<?xml version="1.0" encoding="UTF-8" standalone="no" ?>
<gpx xmlns="http://www.topografix.com/GPX/1/1" xmlns:xsi="http://www.w3.org/2001/XMLSchema-instance" xsi:schemaLocation="http://www.topografix.com/GPX/1/1 http://www.topografix.com/GPX/1/1/gpx.xsd" version="1.1" creator="VisuGPX - https://www.visugpx.com">
  <metadata>
    <name>N-S-Nantes Sautron Treillières Sucé St Mars Le Cellier Nantes</name>
    <desc><![CDATA[N-S-Nantes Sautron Treillières Sucé St Mars Le Cellier Nantes]]></desc>
  </metadata>
  <trk>
    <name><![CDATA[2020-09-12 10:05 +02:00]]></name>
    <trkseg>
      <trkpt lat="47.16786" lon="-1.62664">
        <ele>77</ele>
        <time>2020-09-12T08:05:34.000Z</time>
      </trkpt>
      <trkpt lat="47.16794" lon="-1.6265">
        <ele>70</ele>
        <time>2020-09-12T08:06:48.000Z</time>
      </trkpt>
      <trkpt lat="47.16801" lon="-1.62639">
        <ele>70</ele>
        <time>2020-09-12T08:06:50.000Z</time>
      </trkpt>
      <trkpt lat="47.16808" lon="-1.62627">
        <ele>70</ele>
        <time>2020-09-12T08:06:52.000Z</time>
      </trkpt>
      <trkpt lat="47.16815" lon="-1.62615">
        <ele>70</ele>
        <time>2020-09-12T08:06:54.000Z</time>
      </trkpt>
      <trkpt lat="47.16823" lon="-1.62602">
        <ele>71</ele>
        <time>2020-09-12T08:06:56.000Z</time>
      </trkpt>
      <trkpt lat="47.1683" lon="-1.62589">
        <ele>71</ele>
        <time>2020-09-12T08:06:58.000Z</time>
      </trkpt>
      <trkpt lat="47.16832" lon="-1.62574">
        <ele>71</ele>
        <time>2020-09-12T08:07:00.000Z</time>
      </trkpt>
      <trkpt lat="47.16824" lon="-1.62561">
        <ele>70</ele>
        <time>2020-09-12T08:07:02.000Z</time>
      </trkpt>
      <trkpt lat="47.16814" lon="-1.62553">
        <ele>70</ele>
        <time>2020-09-12T08:07:04.000Z</time>
      </trkpt>
      <trkpt lat="47.16803" lon="-1.62546">
        <ele>71</ele>
        <time>2020-09-12T08:07:06.000Z</time>
      </trkpt>
      <trkpt lat="47.16793" lon="-1.62539">
        <ele>71</ele>
        <time>2020-09-12T08:07:08.000Z</time>
      </trkpt>
      <trkpt lat="47.16782" lon="-1.62532">
        <ele>71</ele>
        <time>2020-09-12T08:07:10.000Z</time>
      </trkpt>
      <trkpt lat="47.16771" lon="-1.62525">
        <ele>71</ele>
        <time>2020-09-12T08:07:12.000Z</time>
      </trkpt>
      <trkpt lat="47.16761" lon="-1.62519">
        <ele>70</ele>
        <time>2020-09-12T08:07:14.000Z</time>
      </trkpt>
      <trkpt lat="47.1675" lon="-1.62512">
        <ele>70</ele>
        <time>2020-09-12T08:07:16.000Z</time>
      </trkpt>
      <trkpt lat="47.16739" lon="-1.62507">
        <ele>70</ele>
        <time>2020-09-12T08:07:18.000Z</time>
      </trkpt>
      <trkpt lat="47.16728" lon="-1.62503">
        <ele>70</ele>
        <time>2020-09-12T08:07:20.000Z</time>
      </trkpt>
      <trkpt lat="47.16719" lon="-1.62499">
        <ele>70</ele>
        <time>2020-09-12T08:07:22.000Z</time>
      </trkpt>
      <trkpt lat="47.16712" lon="-1.62484">
        <ele>69</ele>
        <time>2020-09-12T08:07:25.000Z</time>
      </trkpt>
      <trkpt lat="47.16712" lon="-1.62468">
        <ele>69</ele>
        <time>2020-09-12T08:07:27.000Z</time>
      </trkpt>
      <trkpt lat="47.16715" lon="-1.62453">
        <ele>69</ele>
        <time>2020-09-12T08:07:29.000Z</time>
      </trkpt>
      <trkpt lat="47.16717" lon="-1.62436">
        <ele>69</ele>
        <time>2020-09-12T08:07:31.000Z</time>
      </trkpt>
      <trkpt lat="47.16723" lon="-1.62412">
        <ele>69</ele>
        <time>2020-09-12T08:07:34.000Z</time>
      </trkpt>
      <trkpt lat="47.16728" lon="-1.62396">
        <ele>70</ele>
        <time>2020-09-12T08:07:36.000Z</time>
      </trkpt>
      <trkpt lat="47.16734" lon="-1.62379">
        <ele>70</ele>
        <time>2020-09-12T08:07:38.000Z</time>
      </trkpt>
      <trkpt lat="47.16743" lon="-1.62364">
        <ele>70</ele>
        <time>2020-09-12T08:07:40.000Z</time>
      </trkpt>
      <trkpt lat="47.16752" lon="-1.62353">
        <ele>70</ele>
        <time>2020-09-12T08:07:42.000Z</time>
      </trkpt>
      <trkpt lat="47.16763" lon="-1.62344">
        <ele>71</ele>
        <time>2020-09-12T08:07:44.000Z</time>
      </trkpt>
      <trkpt lat="47.16774" lon="-1.62338">
        <ele>71</ele>
        <time>2020-09-12T08:07:46.000Z</time>
      </trkpt>
      <trkpt lat="47.16785" lon="-1.62331">
        <ele>70</ele>
        <time>2020-09-12T08:07:48.000Z</time>
      </trkpt>
      <trkpt lat="47.16797" lon="-1.62325">
        <ele>71</ele>
        <time>2020-09-12T08:07:50.000Z</time>
      </trkpt>
      <trkpt lat="47.16808" lon="-1.62319">
        <ele>71</ele>
        <time>2020-09-12T08:07:52.000Z</time>
      </trkpt>
      <trkpt lat="47.16818" lon="-1.62312">
        <ele>71</ele>
        <time>2020-09-12T08:07:54.000Z</time>
      </trkpt>
      <trkpt lat="47.16829" lon="-1.62303">
        <ele>72</ele>
        <time>2020-09-12T08:07:56.000Z</time>
      </trkpt>
      <trkpt lat="47.16838" lon="-1.62293">
        <ele>72</ele>
        <time>2020-09-12T08:07:58.000Z</time>
      </trkpt>
      <trkpt lat="47.16847" lon="-1.62281">
        <ele>72</ele>
        <time>2020-09-12T08:08:00.000Z</time>
      </trkpt>
      <trkpt lat="47.16856" lon="-1.62269">
        <ele>71</ele>
        <time>2020-09-12T08:08:02.000Z</time>
      </trkpt>
      <trkpt lat="47.16866" lon="-1.62258">
        <ele>71</ele>
        <time>2020-09-12T08:08:04.000Z</time>
      </trkpt>
      <trkpt lat="47.16876" lon="-1.62247">
        <ele>71</ele>
        <time>2020-09-12T08:08:06.000Z</time>
      </trkpt>
      <trkpt lat="47.16885" lon="-1.62236">
        <ele>71</ele>
        <time>2020-09-12T08:08:08.000Z</time>
      </trkpt>
      <trkpt lat="47.16894" lon="-1.62223">
        <ele>71</ele>
        <time>2020-09-12T08:08:10.000Z</time>
      </trkpt>
      <trkpt lat="47.16902" lon="-1.6221">
        <ele>71</ele>
        <time>2020-09-12T08:08:12.000Z</time>
      </trkpt>
      <trkpt lat="47.16911" lon="-1.62197">
        <ele>72</ele>
        <time>2020-09-12T08:08:14.000Z</time>
      </trkpt>
      <trkpt lat="47.16919" lon="-1.62183">
        <ele>71</ele>
        <time>2020-09-12T08:08:16.000Z</time>
      </trkpt>
      <trkpt lat="47.16927" lon="-1.62168">
        <ele>71</ele>
        <time>2020-09-12T08:08:18.000Z</time>
      </trkpt>
      <trkpt lat="47.16934" lon="-1.62153">
        <ele>71</ele>
        <time>2020-09-12T08:08:20.000Z</time>
      </trkpt>
      <trkpt lat="47.16943" lon="-1.62139">
        <ele>71</ele>
        <time>2020-09-12T08:08:22.000Z</time>
      </trkpt>
      <trkpt lat="47.1695" lon="-1.62124">
        <ele>71</ele>
        <time>2020-09-12T08:08:24.000Z</time>
      </trkpt>
      <trkpt lat="47.16958" lon="-1.62109">
        <ele>71</ele>
        <time>2020-09-12T08:08:26.000Z</time>
      </trkpt>
      <trkpt lat="47.16965" lon="-1.62094">
        <ele>71</ele>
        <time>2020-09-12T08:08:28.000Z</time>
      </trkpt>
      <trkpt lat="47.16973" lon="-1.62079">
        <ele>71</ele>
        <time>2020-09-12T08:08:30.000Z</time>
      </trkpt>
      <trkpt lat="47.16981" lon="-1.62065">
        <ele>71</ele>
        <time>2020-09-12T08:08:32.000Z</time>
      </trkpt>
      <trkpt lat="47.16989" lon="-1.62051">
        <ele>71</ele>
        <time>2020-09-12T08:08:34.000Z</time>
      </trkpt>
      <trkpt lat="47.16998" lon="-1.62037">
        <ele>70</ele>
        <time>2020-09-12T08:08:36.000Z</time>
      </trkpt>
      <trkpt lat="47.17006" lon="-1.62024">
        <ele>70</ele>
        <time>2020-09-12T08:08:38.000Z</time>
      </trkpt>
      <trkpt lat="47.17014" lon="-1.62011">
        <ele>71</ele>
        <time>2020-09-12T08:08:40.000Z</time>
      </trkpt>
      <trkpt lat="47.17023" lon="-1.61998">
        <ele>71</ele>
        <time>2020-09-12T08:08:42.000Z</time>
      </trkpt>
      <trkpt lat="47.17032" lon="-1.61985">
        <ele>71</ele>
        <time>2020-09-12T08:08:44.000Z</time>
      </trkpt>
      <trkpt lat="47.17041" lon="-1.61972">
        <ele>71</ele>
        <time>2020-09-12T08:08:46.000Z</time>
      </trkpt>
      <trkpt lat="47.17049" lon="-1.61959">
        <ele>71</ele>
        <time>2020-09-12T08:08:48.000Z</time>
      </trkpt>
      <trkpt lat="47.17058" lon="-1.61947">
        <ele>71</ele>
        <time>2020-09-12T08:08:50.000Z</time>
      </trkpt>
      <trkpt lat="47.17068" lon="-1.61935">
        <ele>71</ele>
        <time>2020-09-12T08:08:52.000Z</time>
      </trkpt>
      <trkpt lat="47.17078" lon="-1.61925">
        <ele>71</ele>
        <time>2020-09-12T08:08:54.000Z</time>
      </trkpt>
      <trkpt lat="47.17087" lon="-1.61915">
        <ele>71</ele>
        <time>2020-09-12T08:08:56.000Z</time>
      </trkpt>
      <trkpt lat="47.17098" lon="-1.61905">
        <ele>71</ele>
        <time>2020-09-12T08:08:58.000Z</time>
      </trkpt>
      <trkpt lat="47.17108" lon="-1.61896">
        <ele>71</ele>
        <time>2020-09-12T08:09:00.000Z</time>
      </trkpt>
      <trkpt lat="47.17118" lon="-1.61886">
        <ele>71</ele>
        <time>2020-09-12T08:09:02.000Z</time>
      </trkpt>
      <trkpt lat="47.17128" lon="-1.61877">
        <ele>71</ele>
        <time>2020-09-12T08:09:04.000Z</time>
      </trkpt>
      <trkpt lat="47.17138" lon="-1.61867">
        <ele>71</ele>
        <time>2020-09-12T08:09:06.000Z</time>
      </trkpt>
      <trkpt lat="47.17147" lon="-1.61858">
        <ele>71</ele>
        <time>2020-09-12T08:09:08.000Z</time>
      </trkpt>
      <trkpt lat="47.17157" lon="-1.61849">
        <ele>71</ele>
        <time>2020-09-12T08:09:10.000Z</time>
      </trkpt>
      <trkpt lat="47.17167" lon="-1.6184">
        <ele>71</ele>
        <time>2020-09-12T08:09:12.000Z</time>
      </trkpt>
      <trkpt lat="47.17176" lon="-1.61831">
        <ele>70</ele>
        <time>2020-09-12T08:09:14.000Z</time>
      </trkpt>
      <trkpt lat="47.17185" lon="-1.61822">
        <ele>70</ele>
        <time>2020-09-12T08:09:16.000Z</time>
      </trkpt>
      <trkpt lat="47.17195" lon="-1.61813">
        <ele>70</ele>
        <time>2020-09-12T08:09:18.000Z</time>
      </trkpt>
      <trkpt lat="47.17204" lon="-1.61803">
        <ele>71</ele>
        <time>2020-09-12T08:09:20.000Z</time>
      </trkpt>
      <trkpt lat="47.17213" lon="-1.61793">
        <ele>70</ele>
        <time>2020-09-12T08:09:22.000Z</time>
      </trkpt>
      <trkpt lat="47.1722" lon="-1.61782">
        <ele>71</ele>
        <time>2020-09-12T08:09:25.000Z</time>
      </trkpt>
      <trkpt lat="47.17223" lon="-1.61766">
        <ele>71</ele>
        <time>2020-09-12T08:09:29.000Z</time>
      </trkpt>
      <trkpt lat="47.17229" lon="-1.61754">
        <ele>71</ele>
        <time>2020-09-12T08:09:31.000Z</time>
      </trkpt>
      <trkpt lat="47.17237" lon="-1.61742">
        <ele>72</ele>
        <time>2020-09-12T08:09:33.000Z</time>
      </trkpt>
      <trkpt lat="47.17245" lon="-1.61731">
        <ele>72</ele>
        <time>2020-09-12T08:09:35.000Z</time>
      </trkpt>
      <trkpt lat="47.17252" lon="-1.61718">
        <ele>72</ele>
        <time>2020-09-12T08:09:37.000Z</time>
      </trkpt>
      <trkpt lat="47.17259" lon="-1.61704">
        <ele>72</ele>
        <time>2020-09-12T08:09:39.000Z</time>
      </trkpt>
      <trkpt lat="47.17266" lon="-1.61689">
        <ele>73</ele>
        <time>2020-09-12T08:09:41.000Z</time>
      </trkpt>
      <trkpt lat="47.17272" lon="-1.61675">
        <ele>73</ele>
        <time>2020-09-12T08:09:43.000Z</time>
      </trkpt>
      <trkpt lat="47.17278" lon="-1.61661">
        <ele>73</ele>
        <time>2020-09-12T08:09:45.000Z</time>
      </trkpt>
      <trkpt lat="47.17285" lon="-1.61647">
        <ele>75</ele>
        <time>2020-09-12T08:09:47.000Z</time>
      </trkpt>
      <trkpt lat="47.17294" lon="-1.61634">
        <ele>75</ele>
        <time>2020-09-12T08:09:49.000Z</time>
      </trkpt>
      <trkpt lat="47.17302" lon="-1.61621">
        <ele>76</ele>
        <time>2020-09-12T08:09:51.000Z</time>
      </trkpt>
      <trkpt lat="47.1731" lon="-1.61609">
        <ele>76</ele>
        <time>2020-09-12T08:09:53.000Z</time>
      </trkpt>
      <trkpt lat="47.17319" lon="-1.61597">
        <ele>76</ele>
        <time>2020-09-12T08:09:55.000Z</time>
      </trkpt>
      <trkpt lat="47.17328" lon="-1.61585">
        <ele>76</ele>
        <time>2020-09-12T08:09:57.000Z</time>
      </trkpt>
      <trkpt lat="47.17336" lon="-1.61574">
        <ele>76</ele>
        <time>2020-09-12T08:09:59.000Z</time>
      </trkpt>
      <trkpt lat="47.17344" lon="-1.61563">
        <ele>76</ele>
        <time>2020-09-12T08:10:01.000Z</time>
      </trkpt>
      <trkpt lat="47.17353" lon="-1.61553">
        <ele>75</ele>
        <time>2020-09-12T08:10:03.000Z</time>
      </trkpt>
      <trkpt lat="47.17363" lon="-1.61544">
        <ele>74</ele>
        <time>2020-09-12T08:10:05.000Z</time>
      </trkpt>
      <trkpt lat="47.17374" lon="-1.61533">
        <ele>73</ele>
        <time>2020-09-12T08:10:07.000Z</time>
      </trkpt>
      <trkpt lat="47.17385" lon="-1.61524">
        <ele>73</ele>
        <time>2020-09-12T08:10:09.000Z</time>
      </trkpt>
      <trkpt lat="47.17397" lon="-1.61514">
        <ele>72</ele>
        <time>2020-09-12T08:10:11.000Z</time>
      </trkpt>
      <trkpt lat="47.17408" lon="-1.61505">
        <ele>72</ele>
        <time>2020-09-12T08:10:13.000Z</time>
      </trkpt>
      <trkpt lat="47.1742" lon="-1.61496">
        <ele>72</ele>
        <time>2020-09-12T08:10:15.000Z</time>
      </trkpt>
      <trkpt lat="47.17433" lon="-1.61489">
        <ele>71</ele>
        <time>2020-09-12T08:10:17.000Z</time>
      </trkpt>
      <trkpt lat="47.17446" lon="-1.61481">
        <ele>70</ele>
        <time>2020-09-12T08:10:19.000Z</time>
      </trkpt>
      <trkpt lat="47.17459" lon="-1.61474">
        <ele>70</ele>
        <time>2020-09-12T08:10:21.000Z</time>
      </trkpt>
      <trkpt lat="47.17472" lon="-1.61468">
        <ele>70</ele>
        <time>2020-09-12T08:10:23.000Z</time>
      </trkpt>
      <trkpt lat="47.17484" lon="-1.61463">
        <ele>70</ele>
        <time>2020-09-12T08:10:25.000Z</time>
      </trkpt>
      <trkpt lat="47.17497" lon="-1.61459">
        <ele>69</ele>
        <time>2020-09-12T08:10:27.000Z</time>
      </trkpt>
      <trkpt lat="47.17508" lon="-1.61453">
        <ele>67</ele>
        <time>2020-09-12T08:10:29.000Z</time>
      </trkpt>
      <trkpt lat="47.17515" lon="-1.6144">
        <ele>67</ele>
        <time>2020-09-12T08:10:31.000Z</time>
      </trkpt>
      <trkpt lat="47.17517" lon="-1.61421">
        <ele>66</ele>
        <time>2020-09-12T08:10:33.000Z</time>
      </trkpt>
      <trkpt lat="47.1752" lon="-1.61402">
        <ele>65</ele>
        <time>2020-09-12T08:10:35.000Z</time>
      </trkpt>
      <trkpt lat="47.17524" lon="-1.61385">
        <ele>64</ele>
        <time>2020-09-12T08:10:37.000Z</time>
      </trkpt>
      <trkpt lat="47.17527" lon="-1.61371">
        <ele>65</ele>
        <time>2020-09-12T08:10:39.000Z</time>
      </trkpt>
      <trkpt lat="47.17528" lon="-1.61352">
        <ele>64</ele>
        <time>2020-09-12T08:10:42.000Z</time>
      </trkpt>
      <trkpt lat="47.17522" lon="-1.61337">
        <ele>64</ele>
        <time>2020-09-12T08:10:44.000Z</time>
      </trkpt>
      <trkpt lat="47.17519" lon="-1.61319">
        <ele>64</ele>
        <time>2020-09-12T08:10:46.000Z</time>
      </trkpt>
      <trkpt lat="47.1752" lon="-1.613">
        <ele>63</ele>
        <time>2020-09-12T08:10:48.000Z</time>
      </trkpt>
      <trkpt lat="47.17514" lon="-1.61284">
        <ele>63</ele>
        <time>2020-09-12T08:10:50.000Z</time>
      </trkpt>
      <trkpt lat="47.17506" lon="-1.61268">
        <ele>62</ele>
        <time>2020-09-12T08:10:52.000Z</time>
      </trkpt>
      <trkpt lat="47.17498" lon="-1.61253">
        <ele>62</ele>
        <time>2020-09-12T08:10:54.000Z</time>
      </trkpt>
      <trkpt lat="47.17491" lon="-1.61235">
        <ele>62</ele>
        <time>2020-09-12T08:10:56.000Z</time>
      </trkpt>
      <trkpt lat="47.17484" lon="-1.61218">
        <ele>62</ele>
        <time>2020-09-12T08:10:58.000Z</time>
      </trkpt>
      <trkpt lat="47.17477" lon="-1.61202">
        <ele>61</ele>
        <time>2020-09-12T08:11:00.000Z</time>
      </trkpt>
      <trkpt lat="47.1747" lon="-1.61184">
        <ele>61</ele>
        <time>2020-09-12T08:11:02.000Z</time>
      </trkpt>
      <trkpt lat="47.17463" lon="-1.61167">
        <ele>61</ele>
        <time>2020-09-12T08:11:04.000Z</time>
      </trkpt>
      <trkpt lat="47.17456" lon="-1.61149">
        <ele>61</ele>
        <time>2020-09-12T08:11:06.000Z</time>
      </trkpt>
      <trkpt lat="47.17449" lon="-1.61132">
        <ele>60</ele>
        <time>2020-09-12T08:11:08.000Z</time>
      </trkpt>
      <trkpt lat="47.17441" lon="-1.61112">
        <ele>60</ele>
        <time>2020-09-12T08:11:10.000Z</time>
      </trkpt>
      <trkpt lat="47.17433" lon="-1.61093">
        <ele>60</ele>
        <time>2020-09-12T08:11:12.000Z</time>
      </trkpt>
      <trkpt lat="47.17425" lon="-1.61073">
        <ele>59</ele>
        <time>2020-09-12T08:11:14.000Z</time>
      </trkpt>
      <trkpt lat="47.17419" lon="-1.61057">
        <ele>58</ele>
        <time>2020-09-12T08:11:16.000Z</time>
      </trkpt>
      <trkpt lat="47.17413" lon="-1.61047">
        <ele>57</ele>
        <time>2020-09-12T08:11:18.000Z</time>
      </trkpt>
      <trkpt lat="47.17402" lon="-1.61037">
        <ele>57</ele>
        <time>2020-09-12T08:11:21.000Z</time>
      </trkpt>
      <trkpt lat="47.17391" lon="-1.61029">
        <ele>56</ele>
        <time>2020-09-12T08:11:23.000Z</time>
      </trkpt>
      <trkpt lat="47.17384" lon="-1.61015">
        <ele>56</ele>
        <time>2020-09-12T08:11:25.000Z</time>
      </trkpt>
      <trkpt lat="47.17386" lon="-1.60997">
        <ele>56</ele>
        <time>2020-09-12T08:11:27.000Z</time>
      </trkpt>
      <trkpt lat="47.17393" lon="-1.60983">
        <ele>56</ele>
        <time>2020-09-12T08:11:29.000Z</time>
      </trkpt>
      <trkpt lat="47.17408" lon="-1.60984">
        <ele>56</ele>
        <time>2020-09-12T08:11:31.000Z</time>
      </trkpt>
      <trkpt lat="47.17419" lon="-1.60999">
        <ele>56</ele>
        <time>2020-09-12T08:11:33.000Z</time>
      </trkpt>
      <trkpt lat="47.17427" lon="-1.61018">
        <ele>56</ele>
        <time>2020-09-12T08:11:35.000Z</time>
      </trkpt>
      <trkpt lat="47.17434" lon="-1.61035">
        <ele>55</ele>
        <time>2020-09-12T08:11:37.000Z</time>
      </trkpt>
      <trkpt lat="47.1744" lon="-1.61054">
        <ele>54</ele>
        <time>2020-09-12T08:11:39.000Z</time>
      </trkpt>
      <trkpt lat="47.17448" lon="-1.61072">
        <ele>54</ele>
        <time>2020-09-12T08:11:41.000Z</time>
      </trkpt>
      <trkpt lat="47.17458" lon="-1.61088">
        <ele>53</ele>
        <time>2020-09-12T08:11:43.000Z</time>
      </trkpt>
      <trkpt lat="47.17471" lon="-1.611">
        <ele>53</ele>
        <time>2020-09-12T08:11:45.000Z</time>
      </trkpt>
      <trkpt lat="47.17484" lon="-1.61108">
        <ele>52</ele>
        <time>2020-09-12T08:11:47.000Z</time>
      </trkpt>
      <trkpt lat="47.17499" lon="-1.61108">
        <ele>52</ele>
        <time>2020-09-12T08:11:49.000Z</time>
      </trkpt>
      <trkpt lat="47.17513" lon="-1.61102">
        <ele>52</ele>
        <time>2020-09-12T08:11:51.000Z</time>
      </trkpt>
      <trkpt lat="47.17527" lon="-1.61093">
        <ele>53</ele>
        <time>2020-09-12T08:11:53.000Z</time>
      </trkpt>
      <trkpt lat="47.1754" lon="-1.61081">
        <ele>53</ele>
        <time>2020-09-12T08:11:55.000Z</time>
      </trkpt>
      <trkpt lat="47.17551" lon="-1.61069">
        <ele>53</ele>
        <time>2020-09-12T08:11:57.000Z</time>
      </trkpt>
      <trkpt lat="47.17564" lon="-1.61058">
        <ele>54</ele>
        <time>2020-09-12T08:11:59.000Z</time>
      </trkpt>
      <trkpt lat="47.17576" lon="-1.61048">
        <ele>55</ele>
        <time>2020-09-12T08:12:01.000Z</time>
      </trkpt>
      <trkpt lat="47.17589" lon="-1.61037">
        <ele>55</ele>
        <time>2020-09-12T08:12:03.000Z</time>
      </trkpt>
      <trkpt lat="47.17601" lon="-1.61026">
        <ele>55</ele>
        <time>2020-09-12T08:12:05.000Z</time>
      </trkpt>
      <trkpt lat="47.17613" lon="-1.61015">
        <ele>55</ele>
        <time>2020-09-12T08:12:07.000Z</time>
      </trkpt>
      <trkpt lat="47.17624" lon="-1.61004">
        <ele>55</ele>
        <time>2020-09-12T08:12:09.000Z</time>
      </trkpt>
      <trkpt lat="47.17637" lon="-1.60993">
        <ele>54</ele>
        <time>2020-09-12T08:12:11.000Z</time>
      </trkpt>
      <trkpt lat="47.17649" lon="-1.60983">
        <ele>55</ele>
        <time>2020-09-12T08:12:13.000Z</time>
      </trkpt>
      <trkpt lat="47.17661" lon="-1.60972">
        <ele>55</ele>
        <time>2020-09-12T08:12:15.000Z</time>
      </trkpt>
      <trkpt lat="47.17677" lon="-1.60971">
        <ele>55</ele>
        <time>2020-09-12T08:12:17.000Z</time>
      </trkpt>
      <trkpt lat="47.17691" lon="-1.60974">
        <ele>55</ele>
        <time>2020-09-12T08:12:19.000Z</time>
      </trkpt>
      <trkpt lat="47.17703" lon="-1.60971">
        <ele>55</ele>
        <time>2020-09-12T08:12:21.000Z</time>
      </trkpt>
      <trkpt lat="47.17715" lon="-1.60965">
        <ele>55</ele>
        <time>2020-09-12T08:12:23.000Z</time>
      </trkpt>
      <trkpt lat="47.17728" lon="-1.60958">
        <ele>55</ele>
        <time>2020-09-12T08:12:25.000Z</time>
      </trkpt>
      <trkpt lat="47.17739" lon="-1.60949">
        <ele>55</ele>
        <time>2020-09-12T08:12:27.000Z</time>
      </trkpt>
      <trkpt lat="47.17751" lon="-1.60939">
        <ele>54</ele>
        <time>2020-09-12T08:12:29.000Z</time>
      </trkpt>
      <trkpt lat="47.17763" lon="-1.6093">
        <ele>54</ele>
        <time>2020-09-12T08:12:31.000Z</time>
      </trkpt>
      <trkpt lat="47.17775" lon="-1.60921">
        <ele>54</ele>
        <time>2020-09-12T08:12:33.000Z</time>
      </trkpt>
      <trkpt lat="47.17787" lon="-1.60912">
        <ele>53</ele>
        <time>2020-09-12T08:12:35.000Z</time>
      </trkpt>
      <trkpt lat="47.17799" lon="-1.60902">
        <ele>53</ele>
        <time>2020-09-12T08:12:37.000Z</time>
      </trkpt>
      <trkpt lat="47.1781" lon="-1.60892">
        <ele>54</ele>
        <time>2020-09-12T08:12:39.000Z</time>
      </trkpt>
      <trkpt lat="47.17821" lon="-1.60879">
        <ele>54</ele>
        <time>2020-09-12T08:12:41.000Z</time>
      </trkpt>
      <trkpt lat="47.17831" lon="-1.60864">
        <ele>54</ele>
        <time>2020-09-12T08:12:43.000Z</time>
      </trkpt>
      <trkpt lat="47.17838" lon="-1.60848">
        <ele>54</ele>
        <time>2020-09-12T08:12:45.000Z</time>
      </trkpt>
      <trkpt lat="47.17845" lon="-1.6083">
        <ele>54</ele>
        <time>2020-09-12T08:12:47.000Z</time>
      </trkpt>
      <trkpt lat="47.1785" lon="-1.60811">
        <ele>54</ele>
        <time>2020-09-12T08:12:49.000Z</time>
      </trkpt>
      <trkpt lat="47.17854" lon="-1.60793">
        <ele>54</ele>
        <time>2020-09-12T08:12:51.000Z</time>
      </trkpt>
      <trkpt lat="47.17858" lon="-1.60773">
        <ele>55</ele>
        <time>2020-09-12T08:12:53.000Z</time>
      </trkpt>
      <trkpt lat="47.17862" lon="-1.60754">
        <ele>55</ele>
        <time>2020-09-12T08:12:55.000Z</time>
      </trkpt>
      <trkpt lat="47.17866" lon="-1.60734">
        <ele>54</ele>
        <time>2020-09-12T08:12:57.000Z</time>
      </trkpt>
      <trkpt lat="47.17871" lon="-1.60715">
        <ele>54</ele>
        <time>2020-09-12T08:12:59.000Z</time>
      </trkpt>
      <trkpt lat="47.17876" lon="-1.60697">
        <ele>54</ele>
        <time>2020-09-12T08:13:01.000Z</time>
      </trkpt>
      <trkpt lat="47.17881" lon="-1.60678">
        <ele>54</ele>
        <time>2020-09-12T08:13:03.000Z</time>
      </trkpt>
      <trkpt lat="47.17886" lon="-1.60661">
        <ele>55</ele>
        <time>2020-09-12T08:13:05.000Z</time>
      </trkpt>
      <trkpt lat="47.17892" lon="-1.60645">
        <ele>55</ele>
        <time>2020-09-12T08:13:07.000Z</time>
      </trkpt>
      <trkpt lat="47.17898" lon="-1.60628">
        <ele>55</ele>
        <time>2020-09-12T08:13:09.000Z</time>
      </trkpt>
      <trkpt lat="47.17902" lon="-1.60613">
        <ele>55</ele>
        <time>2020-09-12T08:13:11.000Z</time>
      </trkpt>
      <trkpt lat="47.17905" lon="-1.60598">
        <ele>55</ele>
        <time>2020-09-12T08:13:13.000Z</time>
      </trkpt>
      <trkpt lat="47.17915" lon="-1.60587">
        <ele>56</ele>
        <time>2020-09-12T08:13:16.000Z</time>
      </trkpt>
      <trkpt lat="47.17925" lon="-1.60586">
        <ele>56</ele>
        <time>2020-09-12T08:13:18.000Z</time>
      </trkpt>
      <trkpt lat="47.17935" lon="-1.60587">
        <ele>56</ele>
        <time>2020-09-12T08:13:20.000Z</time>
      </trkpt>
      <trkpt lat="47.17947" lon="-1.60584">
        <ele>55</ele>
        <time>2020-09-12T08:13:22.000Z</time>
      </trkpt>
      <trkpt lat="47.17958" lon="-1.60577">
        <ele>56</ele>
        <time>2020-09-12T08:13:24.000Z</time>
      </trkpt>
      <trkpt lat="47.1797" lon="-1.60572">
        <ele>55</ele>
        <time>2020-09-12T08:13:26.000Z</time>
      </trkpt>
      <trkpt lat="47.17983" lon="-1.60566">
        <ele>55</ele>
        <time>2020-09-12T08:13:28.000Z</time>
      </trkpt>
      <trkpt lat="47.17998" lon="-1.60558">
        <ele>54</ele>
        <time>2020-09-12T08:13:30.000Z</time>
      </trkpt>
      <trkpt lat="47.18012" lon="-1.60553">
        <ele>54</ele>
        <time>2020-09-12T08:13:32.000Z</time>
      </trkpt>
      <trkpt lat="47.18026" lon="-1.60551">
        <ele>53</ele>
        <time>2020-09-12T08:13:34.000Z</time>
      </trkpt>
      <trkpt lat="47.18039" lon="-1.60555">
        <ele>53</ele>
        <time>2020-09-12T08:13:36.000Z</time>
      </trkpt>
      <trkpt lat="47.18052" lon="-1.60561">
        <ele>53</ele>
        <time>2020-09-12T08:13:38.000Z</time>
      </trkpt>
      <trkpt lat="47.18064" lon="-1.60568">
        <ele>53</ele>
        <time>2020-09-12T08:13:40.000Z</time>
      </trkpt>
      <trkpt lat="47.18077" lon="-1.60576">
        <ele>53</ele>
        <time>2020-09-12T08:13:42.000Z</time>
      </trkpt>
      <trkpt lat="47.1809" lon="-1.60583">
        <ele>53</ele>
        <time>2020-09-12T08:13:44.000Z</time>
      </trkpt>
      <trkpt lat="47.18103" lon="-1.6059">
        <ele>52</ele>
        <time>2020-09-12T08:13:46.000Z</time>
      </trkpt>
      <trkpt lat="47.18116" lon="-1.60595">
        <ele>52</ele>
        <time>2020-09-12T08:13:48.000Z</time>
      </trkpt>
      <trkpt lat="47.18128" lon="-1.60598">
        <ele>52</ele>
        <time>2020-09-12T08:13:50.000Z</time>
      </trkpt>
      <trkpt lat="47.18141" lon="-1.60602">
        <ele>52</ele>
        <time>2020-09-12T08:13:52.000Z</time>
      </trkpt>
      <trkpt lat="47.18154" lon="-1.60603">
        <ele>52</ele>
        <time>2020-09-12T08:13:54.000Z</time>
      </trkpt>
      <trkpt lat="47.18167" lon="-1.60603">
        <ele>52</ele>
        <time>2020-09-12T08:13:56.000Z</time>
      </trkpt>
      <trkpt lat="47.1818" lon="-1.60601">
        <ele>52</ele>
        <time>2020-09-12T08:13:58.000Z</time>
      </trkpt>
      <trkpt lat="47.1819" lon="-1.60595">
        <ele>52</ele>
        <time>2020-09-12T08:14:00.000Z</time>
      </trkpt>
      <trkpt lat="47.18194" lon="-1.60579">
        <ele>53</ele>
        <time>2020-09-12T08:14:02.000Z</time>
      </trkpt>
      <trkpt lat="47.18206" lon="-1.6057">
        <ele>53</ele>
        <time>2020-09-12T08:14:04.000Z</time>
      </trkpt>
      <trkpt lat="47.18218" lon="-1.60566">
        <ele>54</ele>
        <time>2020-09-12T08:14:06.000Z</time>
      </trkpt>
      <trkpt lat="47.18231" lon="-1.6056">
        <ele>55</ele>
        <time>2020-09-12T08:14:08.000Z</time>
      </trkpt>
      <trkpt lat="47.18243" lon="-1.60553">
        <ele>55</ele>
        <time>2020-09-12T08:14:10.000Z</time>
      </trkpt>
      <trkpt lat="47.18255" lon="-1.60544">
        <ele>56</ele>
        <time>2020-09-12T08:14:12.000Z</time>
      </trkpt>
      <trkpt lat="47.18266" lon="-1.60532">
        <ele>56</ele>
        <time>2020-09-12T08:14:14.000Z</time>
      </trkpt>
      <trkpt lat="47.18279" lon="-1.6052">
        <ele>55</ele>
        <time>2020-09-12T08:14:16.000Z</time>
      </trkpt>
      <trkpt lat="47.1829" lon="-1.60508">
        <ele>55</ele>
        <time>2020-09-12T08:14:18.000Z</time>
      </trkpt>
      <trkpt lat="47.18301" lon="-1.60495">
        <ele>54</ele>
        <time>2020-09-12T08:14:20.000Z</time>
      </trkpt>
      <trkpt lat="47.18312" lon="-1.60484">
        <ele>54</ele>
        <time>2020-09-12T08:14:22.000Z</time>
      </trkpt>
      <trkpt lat="47.18322" lon="-1.60472">
        <ele>54</ele>
        <time>2020-09-12T08:14:24.000Z</time>
      </trkpt>
      <trkpt lat="47.18332" lon="-1.60459">
        <ele>54</ele>
        <time>2020-09-12T08:14:26.000Z</time>
      </trkpt>
      <trkpt lat="47.18343" lon="-1.60446">
        <ele>54</ele>
        <time>2020-09-12T08:14:28.000Z</time>
      </trkpt>
      <trkpt lat="47.18354" lon="-1.60433">
        <ele>54</ele>
        <time>2020-09-12T08:14:30.000Z</time>
      </trkpt>
      <trkpt lat="47.18364" lon="-1.6042">
        <ele>54</ele>
        <time>2020-09-12T08:14:32.000Z</time>
      </trkpt>
      <trkpt lat="47.18375" lon="-1.60407">
        <ele>54</ele>
        <time>2020-09-12T08:14:34.000Z</time>
      </trkpt>
      <trkpt lat="47.18384" lon="-1.60394">
        <ele>54</ele>
        <time>2020-09-12T08:14:36.000Z</time>
      </trkpt>
      <trkpt lat="47.18395" lon="-1.60381">
        <ele>55</ele>
        <time>2020-09-12T08:14:38.000Z</time>
      </trkpt>
      <trkpt lat="47.18405" lon="-1.60366">
        <ele>55</ele>
        <time>2020-09-12T08:14:40.000Z</time>
      </trkpt>
      <trkpt lat="47.18415" lon="-1.60353">
        <ele>55</ele>
        <time>2020-09-12T08:14:42.000Z</time>
      </trkpt>
      <trkpt lat="47.18424" lon="-1.60339">
        <ele>55</ele>
        <time>2020-09-12T08:14:44.000Z</time>
      </trkpt>
      <trkpt lat="47.18434" lon="-1.60325">
        <ele>55</ele>
        <time>2020-09-12T08:14:46.000Z</time>
      </trkpt>
      <trkpt lat="47.18443" lon="-1.6031">
        <ele>54</ele>
        <time>2020-09-12T08:14:48.000Z</time>
      </trkpt>
      <trkpt lat="47.18452" lon="-1.60295">
        <ele>55</ele>
        <time>2020-09-12T08:14:50.000Z</time>
      </trkpt>
      <trkpt lat="47.1846" lon="-1.6028">
        <ele>55</ele>
        <time>2020-09-12T08:14:52.000Z</time>
      </trkpt>
      <trkpt lat="47.18469" lon="-1.60265">
        <ele>55</ele>
        <time>2020-09-12T08:14:54.000Z</time>
      </trkpt>
      <trkpt lat="47.18477" lon="-1.6025">
        <ele>55</ele>
        <time>2020-09-12T08:14:56.000Z</time>
      </trkpt>
      <trkpt lat="47.18486" lon="-1.60235">
        <ele>55</ele>
        <time>2020-09-12T08:14:58.000Z</time>
      </trkpt>
      <trkpt lat="47.18494" lon="-1.6022">
        <ele>55</ele>
        <time>2020-09-12T08:15:00.000Z</time>
      </trkpt>
      <trkpt lat="47.18502" lon="-1.60204">
        <ele>54</ele>
        <time>2020-09-12T08:15:02.000Z</time>
      </trkpt>
      <trkpt lat="47.18509" lon="-1.60188">
        <ele>54</ele>
        <time>2020-09-12T08:15:04.000Z</time>
      </trkpt>
      <trkpt lat="47.18517" lon="-1.60173">
        <ele>54</ele>
        <time>2020-09-12T08:15:06.000Z</time>
      </trkpt>
      <trkpt lat="47.18525" lon="-1.60158">
        <ele>54</ele>
        <time>2020-09-12T08:15:08.000Z</time>
      </trkpt>
      <trkpt lat="47.18532" lon="-1.60141">
        <ele>54</ele>
        <time>2020-09-12T08:15:10.000Z</time>
      </trkpt>
      <trkpt lat="47.18539" lon="-1.60125">
        <ele>54</ele>
        <time>2020-09-12T08:15:12.000Z</time>
      </trkpt>
      <trkpt lat="47.18546" lon="-1.60109">
        <ele>54</ele>
        <time>2020-09-12T08:15:14.000Z</time>
      </trkpt>
      <trkpt lat="47.18553" lon="-1.60092">
        <ele>54</ele>
        <time>2020-09-12T08:15:16.000Z</time>
      </trkpt>
      <trkpt lat="47.1856" lon="-1.60075">
        <ele>54</ele>
        <time>2020-09-12T08:15:18.000Z</time>
      </trkpt>
      <trkpt lat="47.18566" lon="-1.60059">
        <ele>54</ele>
        <time>2020-09-12T08:15:20.000Z</time>
      </trkpt>
      <trkpt lat="47.18572" lon="-1.60043">
        <ele>54</ele>
        <time>2020-09-12T08:15:22.000Z</time>
      </trkpt>
      <trkpt lat="47.18578" lon="-1.60025">
        <ele>54</ele>
        <time>2020-09-12T08:15:24.000Z</time>
      </trkpt>
      <trkpt lat="47.18584" lon="-1.60008">
        <ele>54</ele>
        <time>2020-09-12T08:15:26.000Z</time>
      </trkpt>
      <trkpt lat="47.1859" lon="-1.59991">
        <ele>54</ele>
        <time>2020-09-12T08:15:28.000Z</time>
      </trkpt>
      <trkpt lat="47.18595" lon="-1.59974">
        <ele>54</ele>
        <time>2020-09-12T08:15:30.000Z</time>
      </trkpt>
      <trkpt lat="47.186" lon="-1.59956">
        <ele>54</ele>
        <time>2020-09-12T08:15:32.000Z</time>
      </trkpt>
      <trkpt lat="47.18605" lon="-1.59939">
        <ele>54</ele>
        <time>2020-09-12T08:15:34.000Z</time>
      </trkpt>
      <trkpt lat="47.1861" lon="-1.59922">
        <ele>54</ele>
        <time>2020-09-12T08:15:36.000Z</time>
      </trkpt>
      <trkpt lat="47.18614" lon="-1.59906">
        <ele>54</ele>
        <time>2020-09-12T08:15:38.000Z</time>
      </trkpt>
      <trkpt lat="47.18619" lon="-1.59889">
        <ele>53</ele>
        <time>2020-09-12T08:15:40.000Z</time>
      </trkpt>
      <trkpt lat="47.18623" lon="-1.59873">
        <ele>53</ele>
        <time>2020-09-12T08:15:42.000Z</time>
      </trkpt>
      <trkpt lat="47.18623" lon="-1.59857">
        <ele>53</ele>
        <time>2020-09-12T08:15:44.000Z</time>
      </trkpt>
      <trkpt lat="47.18616" lon="-1.59843">
        <ele>52</ele>
        <time>2020-09-12T08:15:46.000Z</time>
      </trkpt>
      <trkpt lat="47.18619" lon="-1.59827">
        <ele>52</ele>
        <time>2020-09-12T08:15:48.000Z</time>
      </trkpt>
      <trkpt lat="47.18627" lon="-1.59815">
        <ele>52</ele>
        <time>2020-09-12T08:15:51.000Z</time>
      </trkpt>
      <trkpt lat="47.1863" lon="-1.59799">
        <ele>53</ele>
        <time>2020-09-12T08:15:54.000Z</time>
      </trkpt>
      <trkpt lat="47.18633" lon="-1.59783">
        <ele>54</ele>
        <time>2020-09-12T08:15:56.000Z</time>
      </trkpt>
      <trkpt lat="47.1864" lon="-1.59769">
        <ele>54</ele>
        <time>2020-09-12T08:15:58.000Z</time>
      </trkpt>
      <trkpt lat="47.18649" lon="-1.59755">
        <ele>54</ele>
        <time>2020-09-12T08:16:00.000Z</time>
      </trkpt>
      <trkpt lat="47.18654" lon="-1.5974">
        <ele>54</ele>
        <time>2020-09-12T08:16:02.000Z</time>
      </trkpt>
      <trkpt lat="47.18658" lon="-1.59721">
        <ele>55</ele>
        <time>2020-09-12T08:16:04.000Z</time>
      </trkpt>
      <trkpt lat="47.18661" lon="-1.59703">
        <ele>54</ele>
        <time>2020-09-12T08:16:06.000Z</time>
      </trkpt>
      <trkpt lat="47.18664" lon="-1.59685">
        <ele>54</ele>
        <time>2020-09-12T08:16:08.000Z</time>
      </trkpt>
      <trkpt lat="47.18668" lon="-1.59667">
        <ele>54</ele>
        <time>2020-09-12T08:16:10.000Z</time>
      </trkpt>
      <trkpt lat="47.18673" lon="-1.59651">
        <ele>54</ele>
        <time>2020-09-12T08:16:12.000Z</time>
      </trkpt>
      <trkpt lat="47.18676" lon="-1.59633">
        <ele>54</ele>
        <time>2020-09-12T08:16:14.000Z</time>
      </trkpt>
      <trkpt lat="47.18678" lon="-1.59615">
        <ele>54</ele>
        <time>2020-09-12T08:16:16.000Z</time>
      </trkpt>
      <trkpt lat="47.1868" lon="-1.59597">
        <ele>54</ele>
        <time>2020-09-12T08:16:18.000Z</time>
      </trkpt>
      <trkpt lat="47.18682" lon="-1.59578">
        <ele>54</ele>
        <time>2020-09-12T08:16:20.000Z</time>
      </trkpt>
      <trkpt lat="47.18684" lon="-1.59559">
        <ele>55</ele>
        <time>2020-09-12T08:16:22.000Z</time>
      </trkpt>
      <trkpt lat="47.18686" lon="-1.59541">
        <ele>55</ele>
        <time>2020-09-12T08:16:24.000Z</time>
      </trkpt>
      <trkpt lat="47.18688" lon="-1.59522">
        <ele>56</ele>
        <time>2020-09-12T08:16:26.000Z</time>
      </trkpt>
      <trkpt lat="47.1869" lon="-1.59503">
        <ele>56</ele>
        <time>2020-09-12T08:16:28.000Z</time>
      </trkpt>
      <trkpt lat="47.18692" lon="-1.59485">
        <ele>56</ele>
        <time>2020-09-12T08:16:30.000Z</time>
      </trkpt>
      <trkpt lat="47.18694" lon="-1.59465">
        <ele>56</ele>
        <time>2020-09-12T08:16:32.000Z</time>
      </trkpt>
      <trkpt lat="47.18697" lon="-1.59447">
        <ele>55</ele>
        <time>2020-09-12T08:16:34.000Z</time>
      </trkpt>
      <trkpt lat="47.18699" lon="-1.59427">
        <ele>55</ele>
        <time>2020-09-12T08:16:36.000Z</time>
      </trkpt>
      <trkpt lat="47.18701" lon="-1.59408">
        <ele>55</ele>
        <time>2020-09-12T08:16:38.000Z</time>
      </trkpt>
      <trkpt lat="47.18703" lon="-1.59389">
        <ele>55</ele>
        <time>2020-09-12T08:16:40.000Z</time>
      </trkpt>
      <trkpt lat="47.18705" lon="-1.5937">
        <ele>55</ele>
        <time>2020-09-12T08:16:42.000Z</time>
      </trkpt>
      <trkpt lat="47.18707" lon="-1.59352">
        <ele>55</ele>
        <time>2020-09-12T08:16:44.000Z</time>
      </trkpt>
      <trkpt lat="47.18709" lon="-1.59333">
        <ele>54</ele>
        <time>2020-09-12T08:16:46.000Z</time>
      </trkpt>
      <trkpt lat="47.18711" lon="-1.59314">
        <ele>54</ele>
        <time>2020-09-12T08:16:48.000Z</time>
      </trkpt>
      <trkpt lat="47.18714" lon="-1.59296">
        <ele>55</ele>
        <time>2020-09-12T08:16:50.000Z</time>
      </trkpt>
      <trkpt lat="47.18716" lon="-1.59277">
        <ele>55</ele>
        <time>2020-09-12T08:16:52.000Z</time>
      </trkpt>
      <trkpt lat="47.18718" lon="-1.59259">
        <ele>55</ele>
        <time>2020-09-12T08:16:54.000Z</time>
      </trkpt>
      <trkpt lat="47.1872" lon="-1.5924">
        <ele>55</ele>
        <time>2020-09-12T08:16:56.000Z</time>
      </trkpt>
      <trkpt lat="47.18721" lon="-1.59221">
        <ele>55</ele>
        <time>2020-09-12T08:16:58.000Z</time>
      </trkpt>
      <trkpt lat="47.18724" lon="-1.59202">
        <ele>54</ele>
        <time>2020-09-12T08:17:00.000Z</time>
      </trkpt>
      <trkpt lat="47.18726" lon="-1.59184">
        <ele>54</ele>
        <time>2020-09-12T08:17:02.000Z</time>
      </trkpt>
      <trkpt lat="47.18728" lon="-1.59165">
        <ele>54</ele>
        <time>2020-09-12T08:17:04.000Z</time>
      </trkpt>
      <trkpt lat="47.1873" lon="-1.59146">
        <ele>54</ele>
        <time>2020-09-12T08:17:06.000Z</time>
      </trkpt>
      <trkpt lat="47.18732" lon="-1.59126">
        <ele>54</ele>
        <time>2020-09-12T08:17:08.000Z</time>
      </trkpt>
      <trkpt lat="47.18734" lon="-1.59107">
        <ele>54</ele>
        <time>2020-09-12T08:17:10.000Z</time>
      </trkpt>
      <trkpt lat="47.18736" lon="-1.59088">
        <ele>54</ele>
        <time>2020-09-12T08:17:12.000Z</time>
      </trkpt>
      <trkpt lat="47.18739" lon="-1.59069">
        <ele>54</ele>
        <time>2020-09-12T08:17:14.000Z</time>
      </trkpt>
      <trkpt lat="47.1874" lon="-1.59051">
        <ele>54</ele>
        <time>2020-09-12T08:17:16.000Z</time>
      </trkpt>
      <trkpt lat="47.18743" lon="-1.59032">
        <ele>55</ele>
        <time>2020-09-12T08:17:18.000Z</time>
      </trkpt>
      <trkpt lat="47.18744" lon="-1.59013">
        <ele>55</ele>
        <time>2020-09-12T08:17:20.000Z</time>
      </trkpt>
      <trkpt lat="47.18746" lon="-1.58995">
        <ele>55</ele>
        <time>2020-09-12T08:17:22.000Z</time>
      </trkpt>
      <trkpt lat="47.18748" lon="-1.58977">
        <ele>55</ele>
        <time>2020-09-12T08:17:24.000Z</time>
      </trkpt>
      <trkpt lat="47.18749" lon="-1.58959">
        <ele>56</ele>
        <time>2020-09-12T08:17:26.000Z</time>
      </trkpt>
      <trkpt lat="47.18751" lon="-1.5894">
        <ele>56</ele>
        <time>2020-09-12T08:17:28.000Z</time>
      </trkpt>
      <trkpt lat="47.18753" lon="-1.58922">
        <ele>56</ele>
        <time>2020-09-12T08:17:30.000Z</time>
      </trkpt>
      <trkpt lat="47.18755" lon="-1.58903">
        <ele>56</ele>
        <time>2020-09-12T08:17:32.000Z</time>
      </trkpt>
      <trkpt lat="47.18757" lon="-1.58885">
        <ele>55</ele>
        <time>2020-09-12T08:17:34.000Z</time>
      </trkpt>
      <trkpt lat="47.18759" lon="-1.58866">
        <ele>55</ele>
        <time>2020-09-12T08:17:36.000Z</time>
      </trkpt>
      <trkpt lat="47.18762" lon="-1.58846">
        <ele>56</ele>
        <time>2020-09-12T08:17:38.000Z</time>
      </trkpt>
      <trkpt lat="47.18764" lon="-1.58829">
        <ele>56</ele>
        <time>2020-09-12T08:17:40.000Z</time>
      </trkpt>
      <trkpt lat="47.18765" lon="-1.58811">
        <ele>56</ele>
        <time>2020-09-12T08:17:42.000Z</time>
      </trkpt>
      <trkpt lat="47.18764" lon="-1.58794">
        <ele>56</ele>
        <time>2020-09-12T08:17:44.000Z</time>
      </trkpt>
      <trkpt lat="47.18761" lon="-1.58778">
        <ele>57</ele>
        <time>2020-09-12T08:17:46.000Z</time>
      </trkpt>
      <trkpt lat="47.18757" lon="-1.58759">
        <ele>57</ele>
        <time>2020-09-12T08:17:48.000Z</time>
      </trkpt>
      <trkpt lat="47.18759" lon="-1.58739">
        <ele>57</ele>
        <time>2020-09-12T08:17:50.000Z</time>
      </trkpt>
      <trkpt lat="47.18766" lon="-1.58721">
        <ele>57</ele>
        <time>2020-09-12T08:17:52.000Z</time>
      </trkpt>
      <trkpt lat="47.18776" lon="-1.58706">
        <ele>57</ele>
        <time>2020-09-12T08:17:54.000Z</time>
      </trkpt>
      <trkpt lat="47.18784" lon="-1.58691">
        <ele>56</ele>
        <time>2020-09-12T08:17:56.000Z</time>
      </trkpt>
      <trkpt lat="47.18789" lon="-1.58673">
        <ele>56</ele>
        <time>2020-09-12T08:17:58.000Z</time>
      </trkpt>
      <trkpt lat="47.18793" lon="-1.58655">
        <ele>56</ele>
        <time>2020-09-12T08:18:00.000Z</time>
      </trkpt>
      <trkpt lat="47.18798" lon="-1.58636">
        <ele>56</ele>
        <time>2020-09-12T08:18:02.000Z</time>
      </trkpt>
      <trkpt lat="47.18803" lon="-1.58619">
        <ele>55</ele>
        <time>2020-09-12T08:18:04.000Z</time>
      </trkpt>
      <trkpt lat="47.18807" lon="-1.58601">
        <ele>55</ele>
        <time>2020-09-12T08:18:06.000Z</time>
      </trkpt>
      <trkpt lat="47.18812" lon="-1.58583">
        <ele>55</ele>
        <time>2020-09-12T08:18:08.000Z</time>
      </trkpt>
      <trkpt lat="47.18817" lon="-1.58565">
        <ele>55</ele>
        <time>2020-09-12T08:18:10.000Z</time>
      </trkpt>
      <trkpt lat="47.18821" lon="-1.58547">
        <ele>55</ele>
        <time>2020-09-12T08:18:12.000Z</time>
      </trkpt>
      <trkpt lat="47.18827" lon="-1.5853">
        <ele>55</ele>
        <time>2020-09-12T08:18:14.000Z</time>
      </trkpt>
      <trkpt lat="47.18831" lon="-1.58513">
        <ele>55</ele>
        <time>2020-09-12T08:18:16.000Z</time>
      </trkpt>
      <trkpt lat="47.18836" lon="-1.58496">
        <ele>55</ele>
        <time>2020-09-12T08:18:18.000Z</time>
      </trkpt>
      <trkpt lat="47.18841" lon="-1.58479">
        <ele>55</ele>
        <time>2020-09-12T08:18:20.000Z</time>
      </trkpt>
      <trkpt lat="47.18846" lon="-1.58462">
        <ele>55</ele>
        <time>2020-09-12T08:18:22.000Z</time>
      </trkpt>
      <trkpt lat="47.18852" lon="-1.58445">
        <ele>55</ele>
        <time>2020-09-12T08:18:24.000Z</time>
      </trkpt>
      <trkpt lat="47.18857" lon="-1.58428">
        <ele>55</ele>
        <time>2020-09-12T08:18:26.000Z</time>
      </trkpt>
      <trkpt lat="47.18863" lon="-1.58411">
        <ele>55</ele>
        <time>2020-09-12T08:18:28.000Z</time>
      </trkpt>
      <trkpt lat="47.18868" lon="-1.58393">
        <ele>55</ele>
        <time>2020-09-12T08:18:30.000Z</time>
      </trkpt>
      <trkpt lat="47.18874" lon="-1.58377">
        <ele>55</ele>
        <time>2020-09-12T08:18:32.000Z</time>
      </trkpt>
      <trkpt lat="47.1888" lon="-1.5836">
        <ele>55</ele>
        <time>2020-09-12T08:18:34.000Z</time>
      </trkpt>
      <trkpt lat="47.18886" lon="-1.58342">
        <ele>55</ele>
        <time>2020-09-12T08:18:36.000Z</time>
      </trkpt>
      <trkpt lat="47.18892" lon="-1.58325">
        <ele>55</ele>
        <time>2020-09-12T08:18:38.000Z</time>
      </trkpt>
      <trkpt lat="47.18898" lon="-1.58307">
        <ele>55</ele>
        <time>2020-09-12T08:18:40.000Z</time>
      </trkpt>
      <trkpt lat="47.18904" lon="-1.58289">
        <ele>55</ele>
        <time>2020-09-12T08:18:42.000Z</time>
      </trkpt>
      <trkpt lat="47.18909" lon="-1.58272">
        <ele>55</ele>
        <time>2020-09-12T08:18:44.000Z</time>
      </trkpt>
      <trkpt lat="47.18915" lon="-1.58255">
        <ele>55</ele>
        <time>2020-09-12T08:18:46.000Z</time>
      </trkpt>
      <trkpt lat="47.18922" lon="-1.58237">
        <ele>55</ele>
        <time>2020-09-12T08:18:48.000Z</time>
      </trkpt>
      <trkpt lat="47.18928" lon="-1.58219">
        <ele>55</ele>
        <time>2020-09-12T08:18:50.000Z</time>
      </trkpt>
      <trkpt lat="47.18934" lon="-1.58202">
        <ele>56</ele>
        <time>2020-09-12T08:18:52.000Z</time>
      </trkpt>
      <trkpt lat="47.1894" lon="-1.58184">
        <ele>56</ele>
        <time>2020-09-12T08:18:54.000Z</time>
      </trkpt>
      <trkpt lat="47.18947" lon="-1.58167">
        <ele>56</ele>
        <time>2020-09-12T08:18:56.000Z</time>
      </trkpt>
      <trkpt lat="47.18953" lon="-1.58149">
        <ele>56</ele>
        <time>2020-09-12T08:18:58.000Z</time>
      </trkpt>
      <trkpt lat="47.18959" lon="-1.58132">
        <ele>56</ele>
        <time>2020-09-12T08:19:00.000Z</time>
      </trkpt>
      <trkpt lat="47.18965" lon="-1.58115">
        <ele>56</ele>
        <time>2020-09-12T08:19:02.000Z</time>
      </trkpt>
      <trkpt lat="47.18971" lon="-1.58098">
        <ele>56</ele>
        <time>2020-09-12T08:19:04.000Z</time>
      </trkpt>
      <trkpt lat="47.18977" lon="-1.5808">
        <ele>57</ele>
        <time>2020-09-12T08:19:06.000Z</time>
      </trkpt>
      <trkpt lat="47.18985" lon="-1.58062">
        <ele>56</ele>
        <time>2020-09-12T08:19:08.000Z</time>
      </trkpt>
      <trkpt lat="47.18991" lon="-1.58044">
        <ele>57</ele>
        <time>2020-09-12T08:19:10.000Z</time>
      </trkpt>
      <trkpt lat="47.18997" lon="-1.58026">
        <ele>56</ele>
        <time>2020-09-12T08:19:12.000Z</time>
      </trkpt>
      <trkpt lat="47.19004" lon="-1.58009">
        <ele>56</ele>
        <time>2020-09-12T08:19:14.000Z</time>
      </trkpt>
      <trkpt lat="47.1901" lon="-1.57992">
        <ele>56</ele>
        <time>2020-09-12T08:19:16.000Z</time>
      </trkpt>
      <trkpt lat="47.19016" lon="-1.57974">
        <ele>56</ele>
        <time>2020-09-12T08:19:18.000Z</time>
      </trkpt>
      <trkpt lat="47.19023" lon="-1.57957">
        <ele>56</ele>
        <time>2020-09-12T08:19:20.000Z</time>
      </trkpt>
      <trkpt lat="47.19028" lon="-1.5794">
        <ele>56</ele>
        <time>2020-09-12T08:19:22.000Z</time>
      </trkpt>
      <trkpt lat="47.19034" lon="-1.57923">
        <ele>56</ele>
        <time>2020-09-12T08:19:24.000Z</time>
      </trkpt>
      <trkpt lat="47.1904" lon="-1.57906">
        <ele>56</ele>
        <time>2020-09-12T08:19:26.000Z</time>
      </trkpt>
      <trkpt lat="47.19046" lon="-1.57889">
        <ele>55</ele>
        <time>2020-09-12T08:19:28.000Z</time>
      </trkpt>
      <trkpt lat="47.19052" lon="-1.57872">
        <ele>56</ele>
        <time>2020-09-12T08:19:30.000Z</time>
      </trkpt>
      <trkpt lat="47.19058" lon="-1.57855">
        <ele>55</ele>
        <time>2020-09-12T08:19:32.000Z</time>
      </trkpt>
      <trkpt lat="47.19064" lon="-1.57838">
        <ele>55</ele>
        <time>2020-09-12T08:19:34.000Z</time>
      </trkpt>
      <trkpt lat="47.1907" lon="-1.5782">
        <ele>55</ele>
        <time>2020-09-12T08:19:36.000Z</time>
      </trkpt>
      <trkpt lat="47.19076" lon="-1.57802">
        <ele>55</ele>
        <time>2020-09-12T08:19:38.000Z</time>
      </trkpt>
      <trkpt lat="47.19083" lon="-1.57785">
        <ele>55</ele>
        <time>2020-09-12T08:19:40.000Z</time>
      </trkpt>
      <trkpt lat="47.19089" lon="-1.57767">
        <ele>55</ele>
        <time>2020-09-12T08:19:42.000Z</time>
      </trkpt>
      <trkpt lat="47.19095" lon="-1.5775">
        <ele>55</ele>
        <time>2020-09-12T08:19:44.000Z</time>
      </trkpt>
      <trkpt lat="47.19101" lon="-1.57732">
        <ele>54</ele>
        <time>2020-09-12T08:19:46.000Z</time>
      </trkpt>
      <trkpt lat="47.19107" lon="-1.57714">
        <ele>54</ele>
        <time>2020-09-12T08:19:48.000Z</time>
      </trkpt>
      <trkpt lat="47.19113" lon="-1.57697">
        <ele>54</ele>
        <time>2020-09-12T08:19:50.000Z</time>
      </trkpt>
      <trkpt lat="47.1912" lon="-1.57679">
        <ele>54</ele>
        <time>2020-09-12T08:19:52.000Z</time>
      </trkpt>
      <trkpt lat="47.19126" lon="-1.57662">
        <ele>54</ele>
        <time>2020-09-12T08:19:54.000Z</time>
      </trkpt>
      <trkpt lat="47.19132" lon="-1.57645">
        <ele>54</ele>
        <time>2020-09-12T08:19:56.000Z</time>
      </trkpt>
      <trkpt lat="47.19138" lon="-1.57627">
        <ele>54</ele>
        <time>2020-09-12T08:19:58.000Z</time>
      </trkpt>
      <trkpt lat="47.19144" lon="-1.5761">
        <ele>55</ele>
        <time>2020-09-12T08:20:00.000Z</time>
      </trkpt>
      <trkpt lat="47.1915" lon="-1.57593">
        <ele>55</ele>
        <time>2020-09-12T08:20:02.000Z</time>
      </trkpt>
      <trkpt lat="47.19156" lon="-1.57576">
        <ele>55</ele>
        <time>2020-09-12T08:20:04.000Z</time>
      </trkpt>
      <trkpt lat="47.19162" lon="-1.5756">
        <ele>56</ele>
        <time>2020-09-12T08:20:06.000Z</time>
      </trkpt>
      <trkpt lat="47.19168" lon="-1.57544">
        <ele>56</ele>
        <time>2020-09-12T08:20:08.000Z</time>
      </trkpt>
      <trkpt lat="47.19173" lon="-1.57528">
        <ele>57</ele>
        <time>2020-09-12T08:20:10.000Z</time>
      </trkpt>
      <trkpt lat="47.19179" lon="-1.57511">
        <ele>56</ele>
        <time>2020-09-12T08:20:12.000Z</time>
      </trkpt>
      <trkpt lat="47.19185" lon="-1.57494">
        <ele>56</ele>
        <time>2020-09-12T08:20:14.000Z</time>
      </trkpt>
      <trkpt lat="47.1919" lon="-1.57476">
        <ele>56</ele>
        <time>2020-09-12T08:20:16.000Z</time>
      </trkpt>
      <trkpt lat="47.19195" lon="-1.57458">
        <ele>56</ele>
        <time>2020-09-12T08:20:18.000Z</time>
      </trkpt>
      <trkpt lat="47.192" lon="-1.5744">
        <ele>56</ele>
        <time>2020-09-12T08:20:20.000Z</time>
      </trkpt>
      <trkpt lat="47.19205" lon="-1.57423">
        <ele>55</ele>
        <time>2020-09-12T08:20:22.000Z</time>
      </trkpt>
      <trkpt lat="47.19209" lon="-1.57405">
        <ele>55</ele>
        <time>2020-09-12T08:20:24.000Z</time>
      </trkpt>
      <trkpt lat="47.19214" lon="-1.57389">
        <ele>55</ele>
        <time>2020-09-12T08:20:26.000Z</time>
      </trkpt>
      <trkpt lat="47.19218" lon="-1.57371">
        <ele>55</ele>
        <time>2020-09-12T08:20:28.000Z</time>
      </trkpt>
      <trkpt lat="47.19223" lon="-1.57353">
        <ele>55</ele>
        <time>2020-09-12T08:20:30.000Z</time>
      </trkpt>
      <trkpt lat="47.19226" lon="-1.57335">
        <ele>55</ele>
        <time>2020-09-12T08:20:32.000Z</time>
      </trkpt>
      <trkpt lat="47.1923" lon="-1.57316">
        <ele>56</ele>
        <time>2020-09-12T08:20:34.000Z</time>
      </trkpt>
      <trkpt lat="47.19234" lon="-1.57298">
        <ele>55</ele>
        <time>2020-09-12T08:20:36.000Z</time>
      </trkpt>
      <trkpt lat="47.19237" lon="-1.57279">
        <ele>56</ele>
        <time>2020-09-12T08:20:38.000Z</time>
      </trkpt>
      <trkpt lat="47.19239" lon="-1.5726">
        <ele>56</ele>
        <time>2020-09-12T08:20:40.000Z</time>
      </trkpt>
      <trkpt lat="47.19242" lon="-1.57242">
        <ele>56</ele>
        <time>2020-09-12T08:20:42.000Z</time>
      </trkpt>
      <trkpt lat="47.19244" lon="-1.57224">
        <ele>57</ele>
        <time>2020-09-12T08:20:44.000Z</time>
      </trkpt>
      <trkpt lat="47.19246" lon="-1.57206">
        <ele>57</ele>
        <time>2020-09-12T08:20:46.000Z</time>
      </trkpt>
      <trkpt lat="47.19248" lon="-1.57189">
        <ele>57</ele>
        <time>2020-09-12T08:20:48.000Z</time>
      </trkpt>
      <trkpt lat="47.19251" lon="-1.5717">
        <ele>57</ele>
        <time>2020-09-12T08:20:50.000Z</time>
      </trkpt>
      <trkpt lat="47.19254" lon="-1.57151">
        <ele>57</ele>
        <time>2020-09-12T08:20:52.000Z</time>
      </trkpt>
      <trkpt lat="47.19257" lon="-1.57133">
        <ele>56</ele>
        <time>2020-09-12T08:20:54.000Z</time>
      </trkpt>
      <trkpt lat="47.1926" lon="-1.57114">
        <ele>55</ele>
        <time>2020-09-12T08:20:56.000Z</time>
      </trkpt>
      <trkpt lat="47.19262" lon="-1.57097">
        <ele>56</ele>
        <time>2020-09-12T08:20:58.000Z</time>
      </trkpt>
      <trkpt lat="47.19263" lon="-1.57081">
        <ele>55</ele>
        <time>2020-09-12T08:21:00.000Z</time>
      </trkpt>
      <trkpt lat="47.19259" lon="-1.57066">
        <ele>55</ele>
        <time>2020-09-12T08:21:04.000Z</time>
      </trkpt>
      <trkpt lat="47.19257" lon="-1.57046">
        <ele>55</ele>
        <time>2020-09-12T08:21:07.000Z</time>
      </trkpt>
      <trkpt lat="47.19263" lon="-1.5703">
        <ele>54</ele>
        <time>2020-09-12T08:21:09.000Z</time>
      </trkpt>
      <trkpt lat="47.19271" lon="-1.57015">
        <ele>54</ele>
        <time>2020-09-12T08:21:11.000Z</time>
      </trkpt>
      <trkpt lat="47.19274" lon="-1.56997">
        <ele>55</ele>
        <time>2020-09-12T08:21:13.000Z</time>
      </trkpt>
      <trkpt lat="47.19276" lon="-1.56978">
        <ele>55</ele>
        <time>2020-09-12T08:21:15.000Z</time>
      </trkpt>
      <trkpt lat="47.19278" lon="-1.56959">
        <ele>55</ele>
        <time>2020-09-12T08:21:17.000Z</time>
      </trkpt>
      <trkpt lat="47.19279" lon="-1.56939">
        <ele>56</ele>
        <time>2020-09-12T08:21:19.000Z</time>
      </trkpt>
      <trkpt lat="47.1928" lon="-1.5692">
        <ele>55</ele>
        <time>2020-09-12T08:21:21.000Z</time>
      </trkpt>
      <trkpt lat="47.19282" lon="-1.56901">
        <ele>55</ele>
        <time>2020-09-12T08:21:23.000Z</time>
      </trkpt>
      <trkpt lat="47.19284" lon="-1.56882">
        <ele>55</ele>
        <time>2020-09-12T08:21:25.000Z</time>
      </trkpt>
      <trkpt lat="47.19285" lon="-1.56865">
        <ele>55</ele>
        <time>2020-09-12T08:21:27.000Z</time>
      </trkpt>
      <trkpt lat="47.19287" lon="-1.56847">
        <ele>56</ele>
        <time>2020-09-12T08:21:29.000Z</time>
      </trkpt>
      <trkpt lat="47.19288" lon="-1.56829">
        <ele>56</ele>
        <time>2020-09-12T08:21:31.000Z</time>
      </trkpt>
      <trkpt lat="47.19289" lon="-1.56809">
        <ele>57</ele>
        <time>2020-09-12T08:21:33.000Z</time>
      </trkpt>
      <trkpt lat="47.1929" lon="-1.56789">
        <ele>57</ele>
        <time>2020-09-12T08:21:35.000Z</time>
      </trkpt>
      <trkpt lat="47.1929" lon="-1.5677">
        <ele>57</ele>
        <time>2020-09-12T08:21:37.000Z</time>
      </trkpt>
      <trkpt lat="47.1929" lon="-1.56751">
        <ele>56</ele>
        <time>2020-09-12T08:21:39.000Z</time>
      </trkpt>
      <trkpt lat="47.1929" lon="-1.56731">
        <ele>56</ele>
        <time>2020-09-12T08:21:41.000Z</time>
      </trkpt>
      <trkpt lat="47.1929" lon="-1.56713">
        <ele>56</ele>
        <time>2020-09-12T08:21:43.000Z</time>
      </trkpt>
      <trkpt lat="47.1929" lon="-1.56694">
        <ele>56</ele>
        <time>2020-09-12T08:21:45.000Z</time>
      </trkpt>
      <trkpt lat="47.19289" lon="-1.56676">
        <ele>57</ele>
        <time>2020-09-12T08:21:47.000Z</time>
      </trkpt>
      <trkpt lat="47.19288" lon="-1.56657">
        <ele>57</ele>
        <time>2020-09-12T08:21:49.000Z</time>
      </trkpt>
      <trkpt lat="47.19287" lon="-1.56638">
        <ele>56</ele>
        <time>2020-09-12T08:21:51.000Z</time>
      </trkpt>
      <trkpt lat="47.19285" lon="-1.56619">
        <ele>57</ele>
        <time>2020-09-12T08:21:53.000Z</time>
      </trkpt>
      <trkpt lat="47.19284" lon="-1.566">
        <ele>57</ele>
        <time>2020-09-12T08:21:55.000Z</time>
      </trkpt>
      <trkpt lat="47.19281" lon="-1.56582">
        <ele>57</ele>
        <time>2020-09-12T08:21:57.000Z</time>
      </trkpt>
      <trkpt lat="47.1928" lon="-1.56563">
        <ele>56</ele>
        <time>2020-09-12T08:21:59.000Z</time>
      </trkpt>
      <trkpt lat="47.19278" lon="-1.56545">
        <ele>56</ele>
        <time>2020-09-12T08:22:01.000Z</time>
      </trkpt>
      <trkpt lat="47.19276" lon="-1.56527">
        <ele>56</ele>
        <time>2020-09-12T08:22:03.000Z</time>
      </trkpt>
      <trkpt lat="47.19274" lon="-1.56509">
        <ele>56</ele>
        <time>2020-09-12T08:22:05.000Z</time>
      </trkpt>
      <trkpt lat="47.19271" lon="-1.5649">
        <ele>56</ele>
        <time>2020-09-12T08:22:07.000Z</time>
      </trkpt>
      <trkpt lat="47.19269" lon="-1.56471">
        <ele>56</ele>
        <time>2020-09-12T08:22:09.000Z</time>
      </trkpt>
      <trkpt lat="47.19267" lon="-1.56453">
        <ele>56</ele>
        <time>2020-09-12T08:22:11.000Z</time>
      </trkpt>
      <trkpt lat="47.19266" lon="-1.56434">
        <ele>56</ele>
        <time>2020-09-12T08:22:13.000Z</time>
      </trkpt>
      <trkpt lat="47.19266" lon="-1.56415">
        <ele>56</ele>
        <time>2020-09-12T08:22:15.000Z</time>
      </trkpt>
      <trkpt lat="47.19265" lon="-1.56396">
        <ele>56</ele>
        <time>2020-09-12T08:22:17.000Z</time>
      </trkpt>
      <trkpt lat="47.19263" lon="-1.56378">
        <ele>56</ele>
        <time>2020-09-12T08:22:19.000Z</time>
      </trkpt>
      <trkpt lat="47.19259" lon="-1.5636">
        <ele>56</ele>
        <time>2020-09-12T08:22:21.000Z</time>
      </trkpt>
      <trkpt lat="47.19255" lon="-1.56342">
        <ele>56</ele>
        <time>2020-09-12T08:22:23.000Z</time>
      </trkpt>
      <trkpt lat="47.19248" lon="-1.56327">
        <ele>56</ele>
        <time>2020-09-12T08:22:25.000Z</time>
      </trkpt>
      <trkpt lat="47.1924" lon="-1.56314">
        <ele>56</ele>
        <time>2020-09-12T08:22:27.000Z</time>
      </trkpt>
      <trkpt lat="47.19236" lon="-1.56296">
        <ele>56</ele>
        <time>2020-09-12T08:22:29.000Z</time>
      </trkpt>
      <trkpt lat="47.19237" lon="-1.56276">
        <ele>57</ele>
        <time>2020-09-12T08:22:31.000Z</time>
      </trkpt>
      <trkpt lat="47.19245" lon="-1.56259">
        <ele>56</ele>
        <time>2020-09-12T08:22:33.000Z</time>
      </trkpt>
      <trkpt lat="47.19257" lon="-1.56248">
        <ele>56</ele>
        <time>2020-09-12T08:22:35.000Z</time>
      </trkpt>
      <trkpt lat="47.19273" lon="-1.5625">
        <ele>55</ele>
        <time>2020-09-12T08:22:37.000Z</time>
      </trkpt>
      <trkpt lat="47.19287" lon="-1.56261">
        <ele>53</ele>
        <time>2020-09-12T08:22:39.000Z</time>
      </trkpt>
      <trkpt lat="47.19301" lon="-1.56267">
        <ele>53</ele>
        <time>2020-09-12T08:22:41.000Z</time>
      </trkpt>
      <trkpt lat="47.19316" lon="-1.56266">
        <ele>52</ele>
        <time>2020-09-12T08:22:43.000Z</time>
      </trkpt>
      <trkpt lat="47.19332" lon="-1.56263">
        <ele>53</ele>
        <time>2020-09-12T08:22:45.000Z</time>
      </trkpt>
      <trkpt lat="47.19347" lon="-1.56259">
        <ele>53</ele>
        <time>2020-09-12T08:22:47.000Z</time>
      </trkpt>
      <trkpt lat="47.19362" lon="-1.56256">
        <ele>54</ele>
        <time>2020-09-12T08:22:49.000Z</time>
      </trkpt>
      <trkpt lat="47.19377" lon="-1.56253">
        <ele>55</ele>
        <time>2020-09-12T08:22:51.000Z</time>
      </trkpt>
      <trkpt lat="47.19391" lon="-1.5625">
        <ele>55</ele>
        <time>2020-09-12T08:22:53.000Z</time>
      </trkpt>
      <trkpt lat="47.19405" lon="-1.56247">
        <ele>55</ele>
        <time>2020-09-12T08:22:55.000Z</time>
      </trkpt>
      <trkpt lat="47.19419" lon="-1.56245">
        <ele>55</ele>
        <time>2020-09-12T08:22:57.000Z</time>
      </trkpt>
      <trkpt lat="47.19432" lon="-1.56243">
        <ele>54</ele>
        <time>2020-09-12T08:22:59.000Z</time>
      </trkpt>
      <trkpt lat="47.19446" lon="-1.5624">
        <ele>54</ele>
        <time>2020-09-12T08:23:01.000Z</time>
      </trkpt>
      <trkpt lat="47.1946" lon="-1.56238">
        <ele>54</ele>
        <time>2020-09-12T08:23:03.000Z</time>
      </trkpt>
      <trkpt lat="47.19474" lon="-1.56235">
        <ele>54</ele>
        <time>2020-09-12T08:23:05.000Z</time>
      </trkpt>
      <trkpt lat="47.19488" lon="-1.56231">
        <ele>55</ele>
        <time>2020-09-12T08:23:07.000Z</time>
      </trkpt>
      <trkpt lat="47.19503" lon="-1.56227">
        <ele>56</ele>
        <time>2020-09-12T08:23:09.000Z</time>
      </trkpt>
      <trkpt lat="47.19516" lon="-1.56224">
        <ele>57</ele>
        <time>2020-09-12T08:23:11.000Z</time>
      </trkpt>
      <trkpt lat="47.1953" lon="-1.56222">
        <ele>57</ele>
        <time>2020-09-12T08:23:13.000Z</time>
      </trkpt>
      <trkpt lat="47.19545" lon="-1.56219">
        <ele>57</ele>
        <time>2020-09-12T08:23:15.000Z</time>
      </trkpt>
      <trkpt lat="47.19561" lon="-1.56213">
        <ele>57</ele>
        <time>2020-09-12T08:23:17.000Z</time>
      </trkpt>
      <trkpt lat="47.19577" lon="-1.56213">
        <ele>57</ele>
        <time>2020-09-12T08:23:19.000Z</time>
      </trkpt>
      <trkpt lat="47.19591" lon="-1.56213">
        <ele>55</ele>
        <time>2020-09-12T08:23:21.000Z</time>
      </trkpt>
      <trkpt lat="47.19606" lon="-1.5621">
        <ele>55</ele>
        <time>2020-09-12T08:23:23.000Z</time>
      </trkpt>
      <trkpt lat="47.1962" lon="-1.56207">
        <ele>55</ele>
        <time>2020-09-12T08:23:25.000Z</time>
      </trkpt>
      <trkpt lat="47.19633" lon="-1.562">
        <ele>55</ele>
        <time>2020-09-12T08:23:27.000Z</time>
      </trkpt>
      <trkpt lat="47.1964" lon="-1.56182">
        <ele>54</ele>
        <time>2020-09-12T08:23:29.000Z</time>
      </trkpt>
      <trkpt lat="47.19651" lon="-1.56173">
        <ele>54</ele>
        <time>2020-09-12T08:23:31.000Z</time>
      </trkpt>
      <trkpt lat="47.19664" lon="-1.56171">
        <ele>54</ele>
        <time>2020-09-12T08:23:33.000Z</time>
      </trkpt>
      <trkpt lat="47.19678" lon="-1.56178">
        <ele>53</ele>
        <time>2020-09-12T08:23:35.000Z</time>
      </trkpt>
      <trkpt lat="47.19683" lon="-1.56198">
        <ele>52</ele>
        <time>2020-09-12T08:23:37.000Z</time>
      </trkpt>
      <trkpt lat="47.19681" lon="-1.56219">
        <ele>52</ele>
        <time>2020-09-12T08:23:39.000Z</time>
      </trkpt>
      <trkpt lat="47.19678" lon="-1.56242">
        <ele>52</ele>
        <time>2020-09-12T08:23:41.000Z</time>
      </trkpt>
      <trkpt lat="47.19673" lon="-1.56254">
        <ele>51</ele>
        <time>2020-09-12T08:23:43.000Z</time>
      </trkpt>
      <trkpt lat="47.19661" lon="-1.56256">
        <ele>52</ele>
        <time>2020-09-12T08:23:45.000Z</time>
      </trkpt>
      <trkpt lat="47.1965" lon="-1.56254">
        <ele>54</ele>
        <time>2020-09-12T08:23:47.000Z</time>
      </trkpt>
      <trkpt lat="47.19643" lon="-1.56243">
        <ele>55</ele>
        <time>2020-09-12T08:23:49.000Z</time>
      </trkpt>
      <trkpt lat="47.19646" lon="-1.56229">
        <ele>55</ele>
        <time>2020-09-12T08:23:51.000Z</time>
      </trkpt>
      <trkpt lat="47.19657" lon="-1.56225">
        <ele>54</ele>
        <time>2020-09-12T08:23:53.000Z</time>
      </trkpt>
      <trkpt lat="47.19668" lon="-1.56221">
        <ele>55</ele>
        <time>2020-09-12T08:23:55.000Z</time>
      </trkpt>
      <trkpt lat="47.19679" lon="-1.56217">
        <ele>55</ele>
        <time>2020-09-12T08:23:57.000Z</time>
      </trkpt>
      <trkpt lat="47.1969" lon="-1.56215">
        <ele>55</ele>
        <time>2020-09-12T08:23:59.000Z</time>
      </trkpt>
      <trkpt lat="47.19702" lon="-1.56213">
        <ele>56</ele>
        <time>2020-09-12T08:24:01.000Z</time>
      </trkpt>
      <trkpt lat="47.19712" lon="-1.56209">
        <ele>57</ele>
        <time>2020-09-12T08:24:03.000Z</time>
      </trkpt>
      <trkpt lat="47.19723" lon="-1.56208">
        <ele>57</ele>
        <time>2020-09-12T08:24:05.000Z</time>
      </trkpt>
      <trkpt lat="47.19734" lon="-1.56205">
        <ele>58</ele>
        <time>2020-09-12T08:24:07.000Z</time>
      </trkpt>
      <trkpt lat="47.19744" lon="-1.56204">
        <ele>58</ele>
        <time>2020-09-12T08:24:09.000Z</time>
      </trkpt>
      <trkpt lat="47.19755" lon="-1.56202">
        <ele>59</ele>
        <time>2020-09-12T08:24:11.000Z</time>
      </trkpt>
      <trkpt lat="47.19765" lon="-1.562">
        <ele>59</ele>
        <time>2020-09-12T08:24:13.000Z</time>
      </trkpt>
      <trkpt lat="47.19776" lon="-1.56198">
        <ele>59</ele>
        <time>2020-09-12T08:24:15.000Z</time>
      </trkpt>
      <trkpt lat="47.19787" lon="-1.56195">
        <ele>60</ele>
        <time>2020-09-12T08:24:17.000Z</time>
      </trkpt>
      <trkpt lat="47.19797" lon="-1.56194">
        <ele>60</ele>
        <time>2020-09-12T08:24:19.000Z</time>
      </trkpt>
      <trkpt lat="47.19808" lon="-1.56192">
        <ele>61</ele>
        <time>2020-09-12T08:24:21.000Z</time>
      </trkpt>
      <trkpt lat="47.19819" lon="-1.56189">
        <ele>61</ele>
        <time>2020-09-12T08:24:23.000Z</time>
      </trkpt>
      <trkpt lat="47.1983" lon="-1.56187">
        <ele>62</ele>
        <time>2020-09-12T08:24:25.000Z</time>
      </trkpt>
      <trkpt lat="47.19841" lon="-1.56186">
        <ele>62</ele>
        <time>2020-09-12T08:24:27.000Z</time>
      </trkpt>
      <trkpt lat="47.19852" lon="-1.56183">
        <ele>61</ele>
        <time>2020-09-12T08:24:29.000Z</time>
      </trkpt>
      <trkpt lat="47.19864" lon="-1.56181">
        <ele>61</ele>
        <time>2020-09-12T08:24:31.000Z</time>
      </trkpt>
      <trkpt lat="47.19875" lon="-1.56179">
        <ele>61</ele>
        <time>2020-09-12T08:24:33.000Z</time>
      </trkpt>
      <trkpt lat="47.19886" lon="-1.56177">
        <ele>61</ele>
        <time>2020-09-12T08:24:35.000Z</time>
      </trkpt>
      <trkpt lat="47.19898" lon="-1.56175">
        <ele>61</ele>
        <time>2020-09-12T08:24:37.000Z</time>
      </trkpt>
      <trkpt lat="47.19911" lon="-1.56172">
        <ele>60</ele>
        <time>2020-09-12T08:24:39.000Z</time>
      </trkpt>
      <trkpt lat="47.19924" lon="-1.5617">
        <ele>59</ele>
        <time>2020-09-12T08:24:41.000Z</time>
      </trkpt>
      <trkpt lat="47.19939" lon="-1.56167">
        <ele>58</ele>
        <time>2020-09-12T08:24:43.000Z</time>
      </trkpt>
      <trkpt lat="47.19953" lon="-1.56165">
        <ele>57</ele>
        <time>2020-09-12T08:24:45.000Z</time>
      </trkpt>
      <trkpt lat="47.19967" lon="-1.56165">
        <ele>56</ele>
        <time>2020-09-12T08:24:47.000Z</time>
      </trkpt>
      <trkpt lat="47.19979" lon="-1.56176">
        <ele>55</ele>
        <time>2020-09-12T08:24:49.000Z</time>
      </trkpt>
      <trkpt lat="47.19982" lon="-1.562">
        <ele>55</ele>
        <time>2020-09-12T08:24:51.000Z</time>
      </trkpt>
      <trkpt lat="47.19982" lon="-1.56222">
        <ele>55</ele>
        <time>2020-09-12T08:24:53.000Z</time>
      </trkpt>
      <trkpt lat="47.19982" lon="-1.56244">
        <ele>55</ele>
        <time>2020-09-12T08:24:55.000Z</time>
      </trkpt>
      <trkpt lat="47.19982" lon="-1.56266">
        <ele>55</ele>
        <time>2020-09-12T08:24:57.000Z</time>
      </trkpt>
      <trkpt lat="47.19981" lon="-1.56289">
        <ele>55</ele>
        <time>2020-09-12T08:24:59.000Z</time>
      </trkpt>
      <trkpt lat="47.19981" lon="-1.56311">
        <ele>56</ele>
        <time>2020-09-12T08:25:01.000Z</time>
      </trkpt>
      <trkpt lat="47.19979" lon="-1.56333">
        <ele>56</ele>
        <time>2020-09-12T08:25:03.000Z</time>
      </trkpt>
      <trkpt lat="47.19977" lon="-1.56357">
        <ele>56</ele>
        <time>2020-09-12T08:25:05.000Z</time>
      </trkpt>
      <trkpt lat="47.19974" lon="-1.56379">
        <ele>55</ele>
        <time>2020-09-12T08:25:07.000Z</time>
      </trkpt>
      <trkpt lat="47.19973" lon="-1.56403">
        <ele>55</ele>
        <time>2020-09-12T08:25:09.000Z</time>
      </trkpt>
      <trkpt lat="47.19967" lon="-1.56426">
        <ele>55</ele>
        <time>2020-09-12T08:25:11.000Z</time>
      </trkpt>
      <trkpt lat="47.19962" lon="-1.56447">
        <ele>55</ele>
        <time>2020-09-12T08:25:13.000Z</time>
      </trkpt>
      <trkpt lat="47.19959" lon="-1.5647">
        <ele>55</ele>
        <time>2020-09-12T08:25:15.000Z</time>
      </trkpt>
      <trkpt lat="47.19957" lon="-1.56493">
        <ele>55</ele>
        <time>2020-09-12T08:25:17.000Z</time>
      </trkpt>
      <trkpt lat="47.19956" lon="-1.56516">
        <ele>54</ele>
        <time>2020-09-12T08:25:19.000Z</time>
      </trkpt>
      <trkpt lat="47.19956" lon="-1.56538">
        <ele>54</ele>
        <time>2020-09-12T08:25:21.000Z</time>
      </trkpt>
      <trkpt lat="47.19956" lon="-1.56561">
        <ele>55</ele>
        <time>2020-09-12T08:25:23.000Z</time>
      </trkpt>
      <trkpt lat="47.19956" lon="-1.56584">
        <ele>55</ele>
        <time>2020-09-12T08:25:25.000Z</time>
      </trkpt>
      <trkpt lat="47.19956" lon="-1.56607">
        <ele>54</ele>
        <time>2020-09-12T08:25:27.000Z</time>
      </trkpt>
      <trkpt lat="47.19956" lon="-1.56629">
        <ele>54</ele>
        <time>2020-09-12T08:25:29.000Z</time>
      </trkpt>
      <trkpt lat="47.19956" lon="-1.56651">
        <ele>53</ele>
        <time>2020-09-12T08:25:31.000Z</time>
      </trkpt>
      <trkpt lat="47.19956" lon="-1.56674">
        <ele>54</ele>
        <time>2020-09-12T08:25:33.000Z</time>
      </trkpt>
      <trkpt lat="47.19955" lon="-1.56698">
        <ele>54</ele>
        <time>2020-09-12T08:25:35.000Z</time>
      </trkpt>
      <trkpt lat="47.19956" lon="-1.56721">
        <ele>54</ele>
        <time>2020-09-12T08:25:37.000Z</time>
      </trkpt>
      <trkpt lat="47.19955" lon="-1.56744">
        <ele>54</ele>
        <time>2020-09-12T08:25:39.000Z</time>
      </trkpt>
      <trkpt lat="47.19955" lon="-1.56767">
        <ele>54</ele>
        <time>2020-09-12T08:25:41.000Z</time>
      </trkpt>
      <trkpt lat="47.19955" lon="-1.56789">
        <ele>54</ele>
        <time>2020-09-12T08:25:43.000Z</time>
      </trkpt>
      <trkpt lat="47.19955" lon="-1.56812">
        <ele>54</ele>
        <time>2020-09-12T08:25:45.000Z</time>
      </trkpt>
      <trkpt lat="47.19955" lon="-1.56834">
        <ele>54</ele>
        <time>2020-09-12T08:25:47.000Z</time>
      </trkpt>
      <trkpt lat="47.19955" lon="-1.56856">
        <ele>54</ele>
        <time>2020-09-12T08:25:49.000Z</time>
      </trkpt>
      <trkpt lat="47.19955" lon="-1.56878">
        <ele>54</ele>
        <time>2020-09-12T08:25:51.000Z</time>
      </trkpt>
      <trkpt lat="47.19955" lon="-1.569">
        <ele>54</ele>
        <time>2020-09-12T08:25:53.000Z</time>
      </trkpt>
      <trkpt lat="47.19955" lon="-1.56923">
        <ele>54</ele>
        <time>2020-09-12T08:25:55.000Z</time>
      </trkpt>
      <trkpt lat="47.19955" lon="-1.56946">
        <ele>54</ele>
        <time>2020-09-12T08:25:57.000Z</time>
      </trkpt>
      <trkpt lat="47.19955" lon="-1.56969">
        <ele>54</ele>
        <time>2020-09-12T08:25:59.000Z</time>
      </trkpt>
      <trkpt lat="47.19955" lon="-1.56991">
        <ele>54</ele>
        <time>2020-09-12T08:26:01.000Z</time>
      </trkpt>
      <trkpt lat="47.19955" lon="-1.57013">
        <ele>54</ele>
        <time>2020-09-12T08:26:03.000Z</time>
      </trkpt>
      <trkpt lat="47.19955" lon="-1.57035">
        <ele>54</ele>
        <time>2020-09-12T08:26:05.000Z</time>
      </trkpt>
      <trkpt lat="47.1996" lon="-1.57056">
        <ele>54</ele>
        <time>2020-09-12T08:26:07.000Z</time>
      </trkpt>
      <trkpt lat="47.19965" lon="-1.57076">
        <ele>53</ele>
        <time>2020-09-12T08:26:09.000Z</time>
      </trkpt>
      <trkpt lat="47.1997" lon="-1.57098">
        <ele>53</ele>
        <time>2020-09-12T08:26:11.000Z</time>
      </trkpt>
      <trkpt lat="47.19974" lon="-1.57118">
        <ele>53</ele>
        <time>2020-09-12T08:26:13.000Z</time>
      </trkpt>
      <trkpt lat="47.19979" lon="-1.57138">
        <ele>53</ele>
        <time>2020-09-12T08:26:15.000Z</time>
      </trkpt>
      <trkpt lat="47.19982" lon="-1.57159">
        <ele>53</ele>
        <time>2020-09-12T08:26:17.000Z</time>
      </trkpt>
      <trkpt lat="47.19983" lon="-1.57181">
        <ele>54</ele>
        <time>2020-09-12T08:26:19.000Z</time>
      </trkpt>
      <trkpt lat="47.19982" lon="-1.57201">
        <ele>54</ele>
        <time>2020-09-12T08:26:21.000Z</time>
      </trkpt>
      <trkpt lat="47.19983" lon="-1.57222">
        <ele>54</ele>
        <time>2020-09-12T08:26:23.000Z</time>
      </trkpt>
      <trkpt lat="47.19983" lon="-1.57242">
        <ele>54</ele>
        <time>2020-09-12T08:26:25.000Z</time>
      </trkpt>
      <trkpt lat="47.19983" lon="-1.57261">
        <ele>55</ele>
        <time>2020-09-12T08:26:27.000Z</time>
      </trkpt>
      <trkpt lat="47.19982" lon="-1.57278">
        <ele>55</ele>
        <time>2020-09-12T08:26:29.000Z</time>
      </trkpt>
      <trkpt lat="47.19982" lon="-1.57293">
        <ele>56</ele>
        <time>2020-09-12T08:26:31.000Z</time>
      </trkpt>
      <trkpt lat="47.19988" lon="-1.57311">
        <ele>56</ele>
        <time>2020-09-12T08:26:34.000Z</time>
      </trkpt>
      <trkpt lat="47.19999" lon="-1.57315">
        <ele>56</ele>
        <time>2020-09-12T08:26:36.000Z</time>
      </trkpt>
      <trkpt lat="47.20012" lon="-1.57313">
        <ele>56</ele>
        <time>2020-09-12T08:26:38.000Z</time>
      </trkpt>
      <trkpt lat="47.20025" lon="-1.57308">
        <ele>56</ele>
        <time>2020-09-12T08:26:40.000Z</time>
      </trkpt>
      <trkpt lat="47.20037" lon="-1.57301">
        <ele>56</ele>
        <time>2020-09-12T08:26:42.000Z</time>
      </trkpt>
      <trkpt lat="47.20048" lon="-1.57294">
        <ele>57</ele>
        <time>2020-09-12T08:26:44.000Z</time>
      </trkpt>
      <trkpt lat="47.20059" lon="-1.57285">
        <ele>57</ele>
        <time>2020-09-12T08:26:46.000Z</time>
      </trkpt>
      <trkpt lat="47.2007" lon="-1.57274">
        <ele>57</ele>
        <time>2020-09-12T08:26:48.000Z</time>
      </trkpt>
      <trkpt lat="47.20081" lon="-1.57264">
        <ele>57</ele>
        <time>2020-09-12T08:26:50.000Z</time>
      </trkpt>
      <trkpt lat="47.20094" lon="-1.57257">
        <ele>57</ele>
        <time>2020-09-12T08:26:52.000Z</time>
      </trkpt>
      <trkpt lat="47.20105" lon="-1.57249">
        <ele>57</ele>
        <time>2020-09-12T08:26:54.000Z</time>
      </trkpt>
      <trkpt lat="47.20117" lon="-1.57242">
        <ele>57</ele>
        <time>2020-09-12T08:26:56.000Z</time>
      </trkpt>
      <trkpt lat="47.20129" lon="-1.57234">
        <ele>57</ele>
        <time>2020-09-12T08:26:58.000Z</time>
      </trkpt>
      <trkpt lat="47.2014" lon="-1.57225">
        <ele>57</ele>
        <time>2020-09-12T08:27:00.000Z</time>
      </trkpt>
      <trkpt lat="47.20152" lon="-1.57217">
        <ele>56</ele>
        <time>2020-09-12T08:27:02.000Z</time>
      </trkpt>
      <trkpt lat="47.20165" lon="-1.5721">
        <ele>57</ele>
        <time>2020-09-12T08:27:04.000Z</time>
      </trkpt>
      <trkpt lat="47.20176" lon="-1.57202">
        <ele>57</ele>
        <time>2020-09-12T08:27:06.000Z</time>
      </trkpt>
      <trkpt lat="47.20188" lon="-1.57193">
        <ele>57</ele>
        <time>2020-09-12T08:27:08.000Z</time>
      </trkpt>
      <trkpt lat="47.202" lon="-1.57186">
        <ele>56</ele>
        <time>2020-09-12T08:27:10.000Z</time>
      </trkpt>
      <trkpt lat="47.20211" lon="-1.57178">
        <ele>56</ele>
        <time>2020-09-12T08:27:12.000Z</time>
      </trkpt>
      <trkpt lat="47.20223" lon="-1.5717">
        <ele>56</ele>
        <time>2020-09-12T08:27:14.000Z</time>
      </trkpt>
      <trkpt lat="47.20235" lon="-1.57162">
        <ele>55</ele>
        <time>2020-09-12T08:27:16.000Z</time>
      </trkpt>
      <trkpt lat="47.20247" lon="-1.57154">
        <ele>55</ele>
        <time>2020-09-12T08:27:18.000Z</time>
      </trkpt>
      <trkpt lat="47.20259" lon="-1.57146">
        <ele>55</ele>
        <time>2020-09-12T08:27:20.000Z</time>
      </trkpt>
      <trkpt lat="47.20271" lon="-1.57139">
        <ele>55</ele>
        <time>2020-09-12T08:27:22.000Z</time>
      </trkpt>
      <trkpt lat="47.20283" lon="-1.5713">
        <ele>54</ele>
        <time>2020-09-12T08:27:24.000Z</time>
      </trkpt>
      <trkpt lat="47.20295" lon="-1.57122">
        <ele>55</ele>
        <time>2020-09-12T08:27:26.000Z</time>
      </trkpt>
      <trkpt lat="47.20307" lon="-1.57114">
        <ele>55</ele>
        <time>2020-09-12T08:27:28.000Z</time>
      </trkpt>
      <trkpt lat="47.20319" lon="-1.57106">
        <ele>54</ele>
        <time>2020-09-12T08:27:30.000Z</time>
      </trkpt>
      <trkpt lat="47.20331" lon="-1.57098">
        <ele>55</ele>
        <time>2020-09-12T08:27:32.000Z</time>
      </trkpt>
      <trkpt lat="47.20342" lon="-1.57088">
        <ele>55</ele>
        <time>2020-09-12T08:27:34.000Z</time>
      </trkpt>
      <trkpt lat="47.20349" lon="-1.5707">
        <ele>54</ele>
        <time>2020-09-12T08:27:36.000Z</time>
      </trkpt>
      <trkpt lat="47.20357" lon="-1.57052">
        <ele>54</ele>
        <time>2020-09-12T08:27:38.000Z</time>
      </trkpt>
      <trkpt lat="47.20363" lon="-1.57035">
        <ele>54</ele>
        <time>2020-09-12T08:27:40.000Z</time>
      </trkpt>
      <trkpt lat="47.20368" lon="-1.57016">
        <ele>54</ele>
        <time>2020-09-12T08:27:42.000Z</time>
      </trkpt>
      <trkpt lat="47.2037" lon="-1.56997">
        <ele>54</ele>
        <time>2020-09-12T08:27:44.000Z</time>
      </trkpt>
      <trkpt lat="47.20372" lon="-1.56977">
        <ele>54</ele>
        <time>2020-09-12T08:27:46.000Z</time>
      </trkpt>
      <trkpt lat="47.20375" lon="-1.56956">
        <ele>54</ele>
        <time>2020-09-12T08:27:48.000Z</time>
      </trkpt>
      <trkpt lat="47.20376" lon="-1.56935">
        <ele>54</ele>
        <time>2020-09-12T08:27:50.000Z</time>
      </trkpt>
      <trkpt lat="47.20379" lon="-1.56914">
        <ele>54</ele>
        <time>2020-09-12T08:27:52.000Z</time>
      </trkpt>
      <trkpt lat="47.20381" lon="-1.56894">
        <ele>54</ele>
        <time>2020-09-12T08:27:54.000Z</time>
      </trkpt>
      <trkpt lat="47.20383" lon="-1.56874">
        <ele>53</ele>
        <time>2020-09-12T08:27:56.000Z</time>
      </trkpt>
      <trkpt lat="47.20384" lon="-1.56854">
        <ele>53</ele>
        <time>2020-09-12T08:27:58.000Z</time>
      </trkpt>
      <trkpt lat="47.20387" lon="-1.56834">
        <ele>54</ele>
        <time>2020-09-12T08:28:00.000Z</time>
      </trkpt>
      <trkpt lat="47.2039" lon="-1.56813">
        <ele>54</ele>
        <time>2020-09-12T08:28:02.000Z</time>
      </trkpt>
      <trkpt lat="47.20391" lon="-1.56793">
        <ele>54</ele>
        <time>2020-09-12T08:28:04.000Z</time>
      </trkpt>
      <trkpt lat="47.20393" lon="-1.56772">
        <ele>55</ele>
        <time>2020-09-12T08:28:06.000Z</time>
      </trkpt>
      <trkpt lat="47.20396" lon="-1.56752">
        <ele>56</ele>
        <time>2020-09-12T08:28:08.000Z</time>
      </trkpt>
      <trkpt lat="47.20399" lon="-1.56732">
        <ele>55</ele>
        <time>2020-09-12T08:28:10.000Z</time>
      </trkpt>
      <trkpt lat="47.20401" lon="-1.56714">
        <ele>55</ele>
        <time>2020-09-12T08:28:12.000Z</time>
      </trkpt>
      <trkpt lat="47.20402" lon="-1.56695">
        <ele>55</ele>
        <time>2020-09-12T08:28:14.000Z</time>
      </trkpt>
      <trkpt lat="47.20402" lon="-1.56675">
        <ele>56</ele>
        <time>2020-09-12T08:28:16.000Z</time>
      </trkpt>
      <trkpt lat="47.20404" lon="-1.56656">
        <ele>56</ele>
        <time>2020-09-12T08:28:18.000Z</time>
      </trkpt>
      <trkpt lat="47.2041" lon="-1.56635">
        <ele>56</ele>
        <time>2020-09-12T08:28:20.000Z</time>
      </trkpt>
      <trkpt lat="47.20413" lon="-1.56614">
        <ele>57</ele>
        <time>2020-09-12T08:28:22.000Z</time>
      </trkpt>
      <trkpt lat="47.20415" lon="-1.56595">
        <ele>58</ele>
        <time>2020-09-12T08:28:24.000Z</time>
      </trkpt>
      <trkpt lat="47.20416" lon="-1.56576">
        <ele>58</ele>
        <time>2020-09-12T08:28:26.000Z</time>
      </trkpt>
      <trkpt lat="47.20417" lon="-1.56556">
        <ele>58</ele>
        <time>2020-09-12T08:28:28.000Z</time>
      </trkpt>
      <trkpt lat="47.20418" lon="-1.56536">
        <ele>57</ele>
        <time>2020-09-12T08:28:30.000Z</time>
      </trkpt>
      <trkpt lat="47.20418" lon="-1.56516">
        <ele>56</ele>
        <time>2020-09-12T08:28:32.000Z</time>
      </trkpt>
      <trkpt lat="47.2042" lon="-1.56497">
        <ele>56</ele>
        <time>2020-09-12T08:28:34.000Z</time>
      </trkpt>
      <trkpt lat="47.20422" lon="-1.56478">
        <ele>56</ele>
        <time>2020-09-12T08:28:36.000Z</time>
      </trkpt>
      <trkpt lat="47.20424" lon="-1.56457">
        <ele>56</ele>
        <time>2020-09-12T08:28:38.000Z</time>
      </trkpt>
      <trkpt lat="47.20426" lon="-1.56436">
        <ele>56</ele>
        <time>2020-09-12T08:28:40.000Z</time>
      </trkpt>
      <trkpt lat="47.20429" lon="-1.56415">
        <ele>56</ele>
        <time>2020-09-12T08:28:42.000Z</time>
      </trkpt>
      <trkpt lat="47.2043" lon="-1.56394">
        <ele>56</ele>
        <time>2020-09-12T08:28:44.000Z</time>
      </trkpt>
      <trkpt lat="47.20431" lon="-1.56374">
        <ele>57</ele>
        <time>2020-09-12T08:28:46.000Z</time>
      </trkpt>
      <trkpt lat="47.20434" lon="-1.56353">
        <ele>57</ele>
        <time>2020-09-12T08:28:48.000Z</time>
      </trkpt>
      <trkpt lat="47.20436" lon="-1.56334">
        <ele>57</ele>
        <time>2020-09-12T08:28:50.000Z</time>
      </trkpt>
      <trkpt lat="47.20438" lon="-1.56314">
        <ele>57</ele>
        <time>2020-09-12T08:28:52.000Z</time>
      </trkpt>
      <trkpt lat="47.20439" lon="-1.56296">
        <ele>57</ele>
        <time>2020-09-12T08:28:54.000Z</time>
      </trkpt>
      <trkpt lat="47.20438" lon="-1.5628">
        <ele>58</ele>
        <time>2020-09-12T08:28:56.000Z</time>
      </trkpt>
      <trkpt lat="47.20439" lon="-1.5626">
        <ele>57</ele>
        <time>2020-09-12T08:28:59.000Z</time>
      </trkpt>
      <trkpt lat="47.2044" lon="-1.56244">
        <ele>57</ele>
        <time>2020-09-12T08:29:01.000Z</time>
      </trkpt>
      <trkpt lat="47.20452" lon="-1.56234">
        <ele>56</ele>
        <time>2020-09-12T08:29:03.000Z</time>
      </trkpt>
      <trkpt lat="47.20464" lon="-1.5624">
        <ele>55</ele>
        <time>2020-09-12T08:29:05.000Z</time>
      </trkpt>
      <trkpt lat="47.20476" lon="-1.56248">
        <ele>56</ele>
        <time>2020-09-12T08:29:07.000Z</time>
      </trkpt>
      <trkpt lat="47.20488" lon="-1.56258">
        <ele>56</ele>
        <time>2020-09-12T08:29:09.000Z</time>
      </trkpt>
      <trkpt lat="47.205" lon="-1.5627">
        <ele>56</ele>
        <time>2020-09-12T08:29:11.000Z</time>
      </trkpt>
      <trkpt lat="47.20511" lon="-1.56281">
        <ele>55</ele>
        <time>2020-09-12T08:29:13.000Z</time>
      </trkpt>
      <trkpt lat="47.20521" lon="-1.56291">
        <ele>56</ele>
        <time>2020-09-12T08:29:15.000Z</time>
      </trkpt>
      <trkpt lat="47.20531" lon="-1.56303">
        <ele>56</ele>
        <time>2020-09-12T08:29:17.000Z</time>
      </trkpt>
      <trkpt lat="47.20543" lon="-1.56314">
        <ele>56</ele>
        <time>2020-09-12T08:29:19.000Z</time>
      </trkpt>
      <trkpt lat="47.20554" lon="-1.56323">
        <ele>56</ele>
        <time>2020-09-12T08:29:21.000Z</time>
      </trkpt>
      <trkpt lat="47.20565" lon="-1.56336">
        <ele>56</ele>
        <time>2020-09-12T08:29:23.000Z</time>
      </trkpt>
      <trkpt lat="47.20577" lon="-1.56346">
        <ele>56</ele>
        <time>2020-09-12T08:29:25.000Z</time>
      </trkpt>
      <trkpt lat="47.20589" lon="-1.56357">
        <ele>57</ele>
        <time>2020-09-12T08:29:27.000Z</time>
      </trkpt>
      <trkpt lat="47.20601" lon="-1.56367">
        <ele>58</ele>
        <time>2020-09-12T08:29:29.000Z</time>
      </trkpt>
      <trkpt lat="47.20613" lon="-1.56377">
        <ele>58</ele>
        <time>2020-09-12T08:29:31.000Z</time>
      </trkpt>
      <trkpt lat="47.20625" lon="-1.5639">
        <ele>59</ele>
        <time>2020-09-12T08:29:33.000Z</time>
      </trkpt>
      <trkpt lat="47.20635" lon="-1.56401">
        <ele>60</ele>
        <time>2020-09-12T08:29:35.000Z</time>
      </trkpt>
      <trkpt lat="47.20644" lon="-1.56408">
        <ele>59</ele>
        <time>2020-09-12T08:29:37.000Z</time>
      </trkpt>
      <trkpt lat="47.20656" lon="-1.56419">
        <ele>61</ele>
        <time>2020-09-12T08:29:40.000Z</time>
      </trkpt>
      <trkpt lat="47.20663" lon="-1.56426">
        <ele>63</ele>
        <time>2020-09-12T08:29:42.000Z</time>
      </trkpt>
      <trkpt lat="47.20676" lon="-1.5644">
        <ele>63</ele>
        <time>2020-09-12T08:29:44.000Z</time>
      </trkpt>
      <trkpt lat="47.20691" lon="-1.56454">
        <ele>63</ele>
        <time>2020-09-12T08:29:46.000Z</time>
      </trkpt>
      <trkpt lat="47.20704" lon="-1.56466">
        <ele>62</ele>
        <time>2020-09-12T08:29:48.000Z</time>
      </trkpt>
      <trkpt lat="47.20717" lon="-1.56478">
        <ele>62</ele>
        <time>2020-09-12T08:29:50.000Z</time>
      </trkpt>
      <trkpt lat="47.2073" lon="-1.5649">
        <ele>62</ele>
        <time>2020-09-12T08:29:52.000Z</time>
      </trkpt>
      <trkpt lat="47.20742" lon="-1.56501">
        <ele>62</ele>
        <time>2020-09-12T08:29:54.000Z</time>
      </trkpt>
      <trkpt lat="47.20755" lon="-1.56511">
        <ele>62</ele>
        <time>2020-09-12T08:29:56.000Z</time>
      </trkpt>
      <trkpt lat="47.20769" lon="-1.56521">
        <ele>62</ele>
        <time>2020-09-12T08:29:58.000Z</time>
      </trkpt>
      <trkpt lat="47.20781" lon="-1.56532">
        <ele>61</ele>
        <time>2020-09-12T08:30:00.000Z</time>
      </trkpt>
      <trkpt lat="47.20793" lon="-1.56544">
        <ele>60</ele>
        <time>2020-09-12T08:30:02.000Z</time>
      </trkpt>
      <trkpt lat="47.20805" lon="-1.56555">
        <ele>60</ele>
        <time>2020-09-12T08:30:04.000Z</time>
      </trkpt>
      <trkpt lat="47.20816" lon="-1.56565">
        <ele>60</ele>
        <time>2020-09-12T08:30:06.000Z</time>
      </trkpt>
      <trkpt lat="47.20827" lon="-1.56575">
        <ele>60</ele>
        <time>2020-09-12T08:30:08.000Z</time>
      </trkpt>
      <trkpt lat="47.20838" lon="-1.56585">
        <ele>60</ele>
        <time>2020-09-12T08:30:10.000Z</time>
      </trkpt>
      <trkpt lat="47.20848" lon="-1.56595">
        <ele>60</ele>
        <time>2020-09-12T08:30:12.000Z</time>
      </trkpt>
      <trkpt lat="47.20857" lon="-1.56605">
        <ele>59</ele>
        <time>2020-09-12T08:30:14.000Z</time>
      </trkpt>
      <trkpt lat="47.20868" lon="-1.56615">
        <ele>58</ele>
        <time>2020-09-12T08:30:16.000Z</time>
      </trkpt>
      <trkpt lat="47.20879" lon="-1.56626">
        <ele>58</ele>
        <time>2020-09-12T08:30:18.000Z</time>
      </trkpt>
      <trkpt lat="47.20891" lon="-1.56637">
        <ele>57</ele>
        <time>2020-09-12T08:30:20.000Z</time>
      </trkpt>
      <trkpt lat="47.20904" lon="-1.56645">
        <ele>56</ele>
        <time>2020-09-12T08:30:22.000Z</time>
      </trkpt>
      <trkpt lat="47.20918" lon="-1.56653">
        <ele>55</ele>
        <time>2020-09-12T08:30:24.000Z</time>
      </trkpt>
      <trkpt lat="47.20926" lon="-1.56666">
        <ele>56</ele>
        <time>2020-09-12T08:30:26.000Z</time>
      </trkpt>
      <trkpt lat="47.20925" lon="-1.56682">
        <ele>56</ele>
        <time>2020-09-12T08:30:29.000Z</time>
      </trkpt>
      <trkpt lat="47.20923" lon="-1.56701">
        <ele>55</ele>
        <time>2020-09-12T08:30:34.000Z</time>
      </trkpt>
      <trkpt lat="47.20918" lon="-1.56717">
        <ele>54</ele>
        <time>2020-09-12T08:30:36.000Z</time>
      </trkpt>
      <trkpt lat="47.20911" lon="-1.56738">
        <ele>54</ele>
        <time>2020-09-12T08:30:38.000Z</time>
      </trkpt>
      <trkpt lat="47.20905" lon="-1.5676">
        <ele>53</ele>
        <time>2020-09-12T08:30:40.000Z</time>
      </trkpt>
      <trkpt lat="47.20901" lon="-1.56773">
        <ele>54</ele>
        <time>2020-09-12T08:30:41.000Z</time>
      </trkpt>
      <trkpt lat="47.20897" lon="-1.56785">
        <ele>54</ele>
        <time>2020-09-12T08:30:42.000Z</time>
      </trkpt>
      <trkpt lat="47.20893" lon="-1.56798">
        <ele>55</ele>
        <time>2020-09-12T08:30:43.000Z</time>
      </trkpt>
      <trkpt lat="47.20885" lon="-1.56821">
        <ele>56</ele>
        <time>2020-09-12T08:30:45.000Z</time>
      </trkpt>
      <trkpt lat="47.2088" lon="-1.56833">
        <ele>56</ele>
        <time>2020-09-12T08:30:46.000Z</time>
      </trkpt>
      <trkpt lat="47.20873" lon="-1.56857">
        <ele>56</ele>
        <time>2020-09-12T08:30:48.000Z</time>
      </trkpt>
      <trkpt lat="47.20866" lon="-1.5688">
        <ele>56</ele>
        <time>2020-09-12T08:30:50.000Z</time>
      </trkpt>
      <trkpt lat="47.20858" lon="-1.56903">
        <ele>56</ele>
        <time>2020-09-12T08:30:52.000Z</time>
      </trkpt>
      <trkpt lat="47.20851" lon="-1.56923">
        <ele>56</ele>
        <time>2020-09-12T08:30:54.000Z</time>
      </trkpt>
      <trkpt lat="47.20847" lon="-1.56935">
        <ele>56</ele>
        <time>2020-09-12T08:30:56.000Z</time>
      </trkpt>
      <trkpt lat="47.20843" lon="-1.56948">
        <ele>56</ele>
        <time>2020-09-12T08:30:58.000Z</time>
      </trkpt>
      <trkpt lat="47.2084" lon="-1.56961">
        <ele>55</ele>
        <time>2020-09-12T08:31:00.000Z</time>
      </trkpt>
      <trkpt lat="47.20833" lon="-1.56978">
        <ele>54</ele>
        <time>2020-09-12T08:31:02.000Z</time>
      </trkpt>
      <trkpt lat="47.20826" lon="-1.56999">
        <ele>54</ele>
        <time>2020-09-12T08:31:04.000Z</time>
      </trkpt>
      <trkpt lat="47.20821" lon="-1.57011">
        <ele>54</ele>
        <time>2020-09-12T08:31:05.000Z</time>
      </trkpt>
      <trkpt lat="47.20817" lon="-1.57023">
        <ele>54</ele>
        <time>2020-09-12T08:31:06.000Z</time>
      </trkpt>
      <trkpt lat="47.20812" lon="-1.57035">
        <ele>55</ele>
        <time>2020-09-12T08:31:07.000Z</time>
      </trkpt>
      <trkpt lat="47.20808" lon="-1.57047">
        <ele>55</ele>
        <time>2020-09-12T08:31:08.000Z</time>
      </trkpt>
      <trkpt lat="47.20804" lon="-1.5706">
        <ele>55</ele>
        <time>2020-09-12T08:31:09.000Z</time>
      </trkpt>
      <trkpt lat="47.208" lon="-1.57072">
        <ele>55</ele>
        <time>2020-09-12T08:31:10.000Z</time>
      </trkpt>
      <trkpt lat="47.20792" lon="-1.57095">
        <ele>55</ele>
        <time>2020-09-12T08:31:12.000Z</time>
      </trkpt>
      <trkpt lat="47.20787" lon="-1.57107">
        <ele>55</ele>
        <time>2020-09-12T08:31:13.000Z</time>
      </trkpt>
      <trkpt lat="47.20782" lon="-1.57118">
        <ele>56</ele>
        <time>2020-09-12T08:31:14.000Z</time>
      </trkpt>
      <trkpt lat="47.20777" lon="-1.5713">
        <ele>56</ele>
        <time>2020-09-12T08:31:15.000Z</time>
      </trkpt>
      <trkpt lat="47.20773" lon="-1.57141">
        <ele>56</ele>
        <time>2020-09-12T08:31:16.000Z</time>
      </trkpt>
      <trkpt lat="47.20764" lon="-1.57163">
        <ele>55</ele>
        <time>2020-09-12T08:31:18.000Z</time>
      </trkpt>
      <trkpt lat="47.20756" lon="-1.57185">
        <ele>55</ele>
        <time>2020-09-12T08:31:20.000Z</time>
      </trkpt>
      <trkpt lat="47.2075" lon="-1.57205">
        <ele>54</ele>
        <time>2020-09-12T08:31:22.000Z</time>
      </trkpt>
      <trkpt lat="47.20747" lon="-1.57219">
        <ele>54</ele>
        <time>2020-09-12T08:31:24.000Z</time>
      </trkpt>
      <trkpt lat="47.20744" lon="-1.57236">
        <ele>54</ele>
        <time>2020-09-12T08:31:27.000Z</time>
      </trkpt>
      <trkpt lat="47.20731" lon="-1.57245">
        <ele>56</ele>
        <time>2020-09-12T08:31:30.000Z</time>
      </trkpt>
      <trkpt lat="47.20717" lon="-1.57243">
        <ele>55</ele>
        <time>2020-09-12T08:31:32.000Z</time>
      </trkpt>
      <trkpt lat="47.20709" lon="-1.57251">
        <ele>55</ele>
        <time>2020-09-12T08:31:34.000Z</time>
      </trkpt>
      <trkpt lat="47.20699" lon="-1.57264">
        <ele>56</ele>
        <time>2020-09-12T08:31:36.000Z</time>
      </trkpt>
      <trkpt lat="47.2069" lon="-1.57279">
        <ele>56</ele>
        <time>2020-09-12T08:31:38.000Z</time>
      </trkpt>
      <trkpt lat="47.20686" lon="-1.57299">
        <ele>56</ele>
        <time>2020-09-12T08:31:40.000Z</time>
      </trkpt>
      <trkpt lat="47.20677" lon="-1.57314">
        <ele>56</ele>
        <time>2020-09-12T08:31:42.000Z</time>
      </trkpt>
      <trkpt lat="47.20664" lon="-1.57325">
        <ele>56</ele>
        <time>2020-09-12T08:31:44.000Z</time>
      </trkpt>
      <trkpt lat="47.20653" lon="-1.5734">
        <ele>57</ele>
        <time>2020-09-12T08:31:46.000Z</time>
      </trkpt>
      <trkpt lat="47.20641" lon="-1.57355">
        <ele>58</ele>
        <time>2020-09-12T08:31:48.000Z</time>
      </trkpt>
      <trkpt lat="47.20629" lon="-1.57371">
        <ele>58</ele>
        <time>2020-09-12T08:31:50.000Z</time>
      </trkpt>
      <trkpt lat="47.20616" lon="-1.57384">
        <ele>59</ele>
        <time>2020-09-12T08:31:52.000Z</time>
      </trkpt>
      <trkpt lat="47.20604" lon="-1.57398">
        <ele>59</ele>
        <time>2020-09-12T08:31:54.000Z</time>
      </trkpt>
      <trkpt lat="47.20592" lon="-1.57411">
        <ele>60</ele>
        <time>2020-09-12T08:31:56.000Z</time>
      </trkpt>
      <trkpt lat="47.20579" lon="-1.57425">
        <ele>60</ele>
        <time>2020-09-12T08:31:58.000Z</time>
      </trkpt>
      <trkpt lat="47.20566" lon="-1.57439">
        <ele>60</ele>
        <time>2020-09-12T08:32:00.000Z</time>
      </trkpt>
      <trkpt lat="47.20554" lon="-1.57452">
        <ele>60</ele>
        <time>2020-09-12T08:32:02.000Z</time>
      </trkpt>
      <trkpt lat="47.2054" lon="-1.57465">
        <ele>60</ele>
        <time>2020-09-12T08:32:04.000Z</time>
      </trkpt>
      <trkpt lat="47.20527" lon="-1.57476">
        <ele>61</ele>
        <time>2020-09-12T08:32:06.000Z</time>
      </trkpt>
      <trkpt lat="47.20513" lon="-1.57483">
        <ele>61</ele>
        <time>2020-09-12T08:32:08.000Z</time>
      </trkpt>
      <trkpt lat="47.20499" lon="-1.57491">
        <ele>61</ele>
        <time>2020-09-12T08:32:10.000Z</time>
      </trkpt>
      <trkpt lat="47.20485" lon="-1.57499">
        <ele>61</ele>
        <time>2020-09-12T08:32:12.000Z</time>
      </trkpt>
      <trkpt lat="47.2047" lon="-1.57507">
        <ele>61</ele>
        <time>2020-09-12T08:32:14.000Z</time>
      </trkpt>
      <trkpt lat="47.20461" lon="-1.57511">
        <ele>61</ele>
        <time>2020-09-12T08:32:15.000Z</time>
      </trkpt>
      <trkpt lat="47.20445" lon="-1.57515">
        <ele>60</ele>
        <time>2020-09-12T08:32:17.000Z</time>
      </trkpt>
      <trkpt lat="47.20429" lon="-1.57519">
        <ele>59</ele>
        <time>2020-09-12T08:32:19.000Z</time>
      </trkpt>
      <trkpt lat="47.20413" lon="-1.57525">
        <ele>59</ele>
        <time>2020-09-12T08:32:21.000Z</time>
      </trkpt>
      <trkpt lat="47.20396" lon="-1.5753">
        <ele>59</ele>
        <time>2020-09-12T08:32:23.000Z</time>
      </trkpt>
      <trkpt lat="47.2038" lon="-1.57537">
        <ele>59</ele>
        <time>2020-09-12T08:32:25.000Z</time>
      </trkpt>
      <trkpt lat="47.20364" lon="-1.57543">
        <ele>59</ele>
        <time>2020-09-12T08:32:27.000Z</time>
      </trkpt>
      <trkpt lat="47.20348" lon="-1.57551">
        <ele>58</ele>
        <time>2020-09-12T08:32:29.000Z</time>
      </trkpt>
      <trkpt lat="47.20332" lon="-1.5756">
        <ele>58</ele>
        <time>2020-09-12T08:32:31.000Z</time>
      </trkpt>
      <trkpt lat="47.20317" lon="-1.57569">
        <ele>58</ele>
        <time>2020-09-12T08:32:33.000Z</time>
      </trkpt>
      <trkpt lat="47.20302" lon="-1.57578">
        <ele>57</ele>
        <time>2020-09-12T08:32:35.000Z</time>
      </trkpt>
      <trkpt lat="47.20287" lon="-1.57587">
        <ele>56</ele>
        <time>2020-09-12T08:32:37.000Z</time>
      </trkpt>
      <trkpt lat="47.20272" lon="-1.57595">
        <ele>56</ele>
        <time>2020-09-12T08:32:39.000Z</time>
      </trkpt>
      <trkpt lat="47.20256" lon="-1.57605">
        <ele>55</ele>
        <time>2020-09-12T08:32:41.000Z</time>
      </trkpt>
      <trkpt lat="47.20241" lon="-1.57616">
        <ele>55</ele>
        <time>2020-09-12T08:32:43.000Z</time>
      </trkpt>
      <trkpt lat="47.20226" lon="-1.57627">
        <ele>55</ele>
        <time>2020-09-12T08:32:45.000Z</time>
      </trkpt>
      <trkpt lat="47.20211" lon="-1.57638">
        <ele>54</ele>
        <time>2020-09-12T08:32:47.000Z</time>
      </trkpt>
      <trkpt lat="47.20197" lon="-1.5765">
        <ele>54</ele>
        <time>2020-09-12T08:32:49.000Z</time>
      </trkpt>
      <trkpt lat="47.20182" lon="-1.57663">
        <ele>55</ele>
        <time>2020-09-12T08:32:51.000Z</time>
      </trkpt>
      <trkpt lat="47.20168" lon="-1.57677">
        <ele>55</ele>
        <time>2020-09-12T08:32:53.000Z</time>
      </trkpt>
      <trkpt lat="47.20155" lon="-1.57691">
        <ele>55</ele>
        <time>2020-09-12T08:32:55.000Z</time>
      </trkpt>
      <trkpt lat="47.20142" lon="-1.57708">
        <ele>55</ele>
        <time>2020-09-12T08:32:57.000Z</time>
      </trkpt>
      <trkpt lat="47.2013" lon="-1.57723">
        <ele>56</ele>
        <time>2020-09-12T08:32:59.000Z</time>
      </trkpt>
      <trkpt lat="47.20117" lon="-1.5774">
        <ele>56</ele>
        <time>2020-09-12T08:33:01.000Z</time>
      </trkpt>
      <trkpt lat="47.20106" lon="-1.57757">
        <ele>56</ele>
        <time>2020-09-12T08:33:03.000Z</time>
      </trkpt>
      <trkpt lat="47.20094" lon="-1.57776">
        <ele>55</ele>
        <time>2020-09-12T08:33:05.000Z</time>
      </trkpt>
      <trkpt lat="47.20083" lon="-1.57794">
        <ele>56</ele>
        <time>2020-09-12T08:33:07.000Z</time>
      </trkpt>
      <trkpt lat="47.20072" lon="-1.57813">
        <ele>55</ele>
        <time>2020-09-12T08:33:09.000Z</time>
      </trkpt>
      <trkpt lat="47.20062" lon="-1.57832">
        <ele>54</ele>
        <time>2020-09-12T08:33:11.000Z</time>
      </trkpt>
      <trkpt lat="47.20053" lon="-1.57852">
        <ele>54</ele>
        <time>2020-09-12T08:33:13.000Z</time>
      </trkpt>
      <trkpt lat="47.20043" lon="-1.57871">
        <ele>55</ele>
        <time>2020-09-12T08:33:15.000Z</time>
      </trkpt>
      <trkpt lat="47.20034" lon="-1.5789">
        <ele>55</ele>
        <time>2020-09-12T08:33:17.000Z</time>
      </trkpt>
      <trkpt lat="47.20026" lon="-1.5791">
        <ele>55</ele>
        <time>2020-09-12T08:33:19.000Z</time>
      </trkpt>
      <trkpt lat="47.20018" lon="-1.5793">
        <ele>55</ele>
        <time>2020-09-12T08:33:21.000Z</time>
      </trkpt>
      <trkpt lat="47.2001" lon="-1.5795">
        <ele>56</ele>
        <time>2020-09-12T08:33:23.000Z</time>
      </trkpt>
      <trkpt lat="47.20002" lon="-1.5797">
        <ele>55</ele>
        <time>2020-09-12T08:33:25.000Z</time>
      </trkpt>
      <trkpt lat="47.19994" lon="-1.5799">
        <ele>55</ele>
        <time>2020-09-12T08:33:27.000Z</time>
      </trkpt>
      <trkpt lat="47.19986" lon="-1.58011">
        <ele>55</ele>
        <time>2020-09-12T08:33:29.000Z</time>
      </trkpt>
      <trkpt lat="47.19979" lon="-1.58031">
        <ele>55</ele>
        <time>2020-09-12T08:33:31.000Z</time>
      </trkpt>
      <trkpt lat="47.19973" lon="-1.58051">
        <ele>55</ele>
        <time>2020-09-12T08:33:33.000Z</time>
      </trkpt>
      <trkpt lat="47.19966" lon="-1.58072">
        <ele>55</ele>
        <time>2020-09-12T08:33:35.000Z</time>
      </trkpt>
      <trkpt lat="47.1996" lon="-1.58093">
        <ele>55</ele>
        <time>2020-09-12T08:33:37.000Z</time>
      </trkpt>
      <trkpt lat="47.19955" lon="-1.58115">
        <ele>55</ele>
        <time>2020-09-12T08:33:39.000Z</time>
      </trkpt>
      <trkpt lat="47.1995" lon="-1.58137">
        <ele>55</ele>
        <time>2020-09-12T08:33:41.000Z</time>
      </trkpt>
      <trkpt lat="47.19944" lon="-1.58159">
        <ele>54</ele>
        <time>2020-09-12T08:33:43.000Z</time>
      </trkpt>
      <trkpt lat="47.19939" lon="-1.58181">
        <ele>54</ele>
        <time>2020-09-12T08:33:45.000Z</time>
      </trkpt>
      <trkpt lat="47.19934" lon="-1.58202">
        <ele>54</ele>
        <time>2020-09-12T08:33:47.000Z</time>
      </trkpt>
      <trkpt lat="47.19929" lon="-1.58224">
        <ele>54</ele>
        <time>2020-09-12T08:33:49.000Z</time>
      </trkpt>
      <trkpt lat="47.19924" lon="-1.58246">
        <ele>55</ele>
        <time>2020-09-12T08:33:51.000Z</time>
      </trkpt>
      <trkpt lat="47.19919" lon="-1.58267">
        <ele>55</ele>
        <time>2020-09-12T08:33:53.000Z</time>
      </trkpt>
      <trkpt lat="47.19913" lon="-1.5829">
        <ele>55</ele>
        <time>2020-09-12T08:33:55.000Z</time>
      </trkpt>
      <trkpt lat="47.19908" lon="-1.58312">
        <ele>55</ele>
        <time>2020-09-12T08:33:57.000Z</time>
      </trkpt>
      <trkpt lat="47.19903" lon="-1.58333">
        <ele>55</ele>
        <time>2020-09-12T08:33:59.000Z</time>
      </trkpt>
      <trkpt lat="47.19898" lon="-1.58355">
        <ele>56</ele>
        <time>2020-09-12T08:34:01.000Z</time>
      </trkpt>
      <trkpt lat="47.19893" lon="-1.58376">
        <ele>55</ele>
        <time>2020-09-12T08:34:03.000Z</time>
      </trkpt>
      <trkpt lat="47.19888" lon="-1.58398">
        <ele>55</ele>
        <time>2020-09-12T08:34:05.000Z</time>
      </trkpt>
      <trkpt lat="47.19883" lon="-1.5842">
        <ele>55</ele>
        <time>2020-09-12T08:34:07.000Z</time>
      </trkpt>
      <trkpt lat="47.19878" lon="-1.58441">
        <ele>56</ele>
        <time>2020-09-12T08:34:09.000Z</time>
      </trkpt>
      <trkpt lat="47.19873" lon="-1.58461">
        <ele>56</ele>
        <time>2020-09-12T08:34:11.000Z</time>
      </trkpt>
      <trkpt lat="47.19869" lon="-1.5848">
        <ele>56</ele>
        <time>2020-09-12T08:34:13.000Z</time>
      </trkpt>
      <trkpt lat="47.19867" lon="-1.58499">
        <ele>56</ele>
        <time>2020-09-12T08:34:15.000Z</time>
      </trkpt>
      <trkpt lat="47.19866" lon="-1.5852">
        <ele>57</ele>
        <time>2020-09-12T08:34:17.000Z</time>
      </trkpt>
      <trkpt lat="47.19863" lon="-1.58544">
        <ele>57</ele>
        <time>2020-09-12T08:34:19.000Z</time>
      </trkpt>
      <trkpt lat="47.19861" lon="-1.58567">
        <ele>58</ele>
        <time>2020-09-12T08:34:21.000Z</time>
      </trkpt>
      <trkpt lat="47.1986" lon="-1.5859">
        <ele>57</ele>
        <time>2020-09-12T08:34:23.000Z</time>
      </trkpt>
      <trkpt lat="47.19859" lon="-1.58613">
        <ele>57</ele>
        <time>2020-09-12T08:34:25.000Z</time>
      </trkpt>
      <trkpt lat="47.19858" lon="-1.58635">
        <ele>56</ele>
        <time>2020-09-12T08:34:27.000Z</time>
      </trkpt>
      <trkpt lat="47.19857" lon="-1.58659">
        <ele>56</ele>
        <time>2020-09-12T08:34:29.000Z</time>
      </trkpt>
      <trkpt lat="47.19855" lon="-1.58682">
        <ele>57</ele>
        <time>2020-09-12T08:34:31.000Z</time>
      </trkpt>
      <trkpt lat="47.19853" lon="-1.58706">
        <ele>57</ele>
        <time>2020-09-12T08:34:33.000Z</time>
      </trkpt>
      <trkpt lat="47.1985" lon="-1.5873">
        <ele>58</ele>
        <time>2020-09-12T08:34:35.000Z</time>
      </trkpt>
      <trkpt lat="47.19847" lon="-1.58752">
        <ele>58</ele>
        <time>2020-09-12T08:34:37.000Z</time>
      </trkpt>
      <trkpt lat="47.19844" lon="-1.58771">
        <ele>59</ele>
        <time>2020-09-12T08:34:39.000Z</time>
      </trkpt>
      <trkpt lat="47.19841" lon="-1.58791">
        <ele>60</ele>
        <time>2020-09-12T08:34:41.000Z</time>
      </trkpt>
      <trkpt lat="47.19839" lon="-1.5881">
        <ele>60</ele>
        <time>2020-09-12T08:34:43.000Z</time>
      </trkpt>
      <trkpt lat="47.19837" lon="-1.58828">
        <ele>60</ele>
        <time>2020-09-12T08:34:45.000Z</time>
      </trkpt>
      <trkpt lat="47.19838" lon="-1.58843">
        <ele>61</ele>
        <time>2020-09-12T08:34:48.000Z</time>
      </trkpt>
      <trkpt lat="47.19832" lon="-1.58859">
        <ele>60</ele>
        <time>2020-09-12T08:34:51.000Z</time>
      </trkpt>
      <trkpt lat="47.19816" lon="-1.58858">
        <ele>59</ele>
        <time>2020-09-12T08:34:53.000Z</time>
      </trkpt>
      <trkpt lat="47.19808" lon="-1.58875">
        <ele>58</ele>
        <time>2020-09-12T08:34:55.000Z</time>
      </trkpt>
      <trkpt lat="47.19805" lon="-1.58898">
        <ele>57</ele>
        <time>2020-09-12T08:34:57.000Z</time>
      </trkpt>
      <trkpt lat="47.19802" lon="-1.58922">
        <ele>56</ele>
        <time>2020-09-12T08:34:59.000Z</time>
      </trkpt>
      <trkpt lat="47.19801" lon="-1.58935">
        <ele>56</ele>
        <time>2020-09-12T08:35:00.000Z</time>
      </trkpt>
      <trkpt lat="47.19793" lon="-1.58957">
        <ele>56</ele>
        <time>2020-09-12T08:35:02.000Z</time>
      </trkpt>
      <trkpt lat="47.19782" lon="-1.58975">
        <ele>54</ele>
        <time>2020-09-12T08:35:04.000Z</time>
      </trkpt>
      <trkpt lat="47.19777" lon="-1.58998">
        <ele>53</ele>
        <time>2020-09-12T08:35:06.000Z</time>
      </trkpt>
      <trkpt lat="47.19775" lon="-1.59023">
        <ele>55</ele>
        <time>2020-09-12T08:35:08.000Z</time>
      </trkpt>
      <trkpt lat="47.19771" lon="-1.59047">
        <ele>55</ele>
        <time>2020-09-12T08:35:10.000Z</time>
      </trkpt>
      <trkpt lat="47.19767" lon="-1.5907">
        <ele>56</ele>
        <time>2020-09-12T08:35:12.000Z</time>
      </trkpt>
      <trkpt lat="47.19762" lon="-1.59093">
        <ele>57</ele>
        <time>2020-09-12T08:35:14.000Z</time>
      </trkpt>
      <trkpt lat="47.19759" lon="-1.59115">
        <ele>57</ele>
        <time>2020-09-12T08:35:16.000Z</time>
      </trkpt>
      <trkpt lat="47.19755" lon="-1.59137">
        <ele>57</ele>
        <time>2020-09-12T08:35:18.000Z</time>
      </trkpt>
      <trkpt lat="47.19751" lon="-1.59159">
        <ele>57</ele>
        <time>2020-09-12T08:35:20.000Z</time>
      </trkpt>
      <trkpt lat="47.19747" lon="-1.5918">
        <ele>58</ele>
        <time>2020-09-12T08:35:22.000Z</time>
      </trkpt>
      <trkpt lat="47.19744" lon="-1.59203">
        <ele>57</ele>
        <time>2020-09-12T08:35:24.000Z</time>
      </trkpt>
      <trkpt lat="47.1974" lon="-1.59225">
        <ele>58</ele>
        <time>2020-09-12T08:35:26.000Z</time>
      </trkpt>
      <trkpt lat="47.19736" lon="-1.59246">
        <ele>58</ele>
        <time>2020-09-12T08:35:28.000Z</time>
      </trkpt>
      <trkpt lat="47.19732" lon="-1.59267">
        <ele>59</ele>
        <time>2020-09-12T08:35:30.000Z</time>
      </trkpt>
      <trkpt lat="47.19728" lon="-1.59287">
        <ele>59</ele>
        <time>2020-09-12T08:35:32.000Z</time>
      </trkpt>
      <trkpt lat="47.19721" lon="-1.59307">
        <ele>58</ele>
        <time>2020-09-12T08:35:34.000Z</time>
      </trkpt>
      <trkpt lat="47.19714" lon="-1.59329">
        <ele>57</ele>
        <time>2020-09-12T08:35:36.000Z</time>
      </trkpt>
      <trkpt lat="47.19707" lon="-1.5935">
        <ele>56</ele>
        <time>2020-09-12T08:35:38.000Z</time>
      </trkpt>
      <trkpt lat="47.197" lon="-1.59372">
        <ele>56</ele>
        <time>2020-09-12T08:35:40.000Z</time>
      </trkpt>
      <trkpt lat="47.19694" lon="-1.59393">
        <ele>56</ele>
        <time>2020-09-12T08:35:42.000Z</time>
      </trkpt>
      <trkpt lat="47.19688" lon="-1.59415">
        <ele>55</ele>
        <time>2020-09-12T08:35:44.000Z</time>
      </trkpt>
      <trkpt lat="47.19684" lon="-1.59437">
        <ele>56</ele>
        <time>2020-09-12T08:35:46.000Z</time>
      </trkpt>
      <trkpt lat="47.1968" lon="-1.59457">
        <ele>56</ele>
        <time>2020-09-12T08:35:48.000Z</time>
      </trkpt>
      <trkpt lat="47.19676" lon="-1.59479">
        <ele>56</ele>
        <time>2020-09-12T08:35:50.000Z</time>
      </trkpt>
      <trkpt lat="47.19672" lon="-1.59501">
        <ele>56</ele>
        <time>2020-09-12T08:35:52.000Z</time>
      </trkpt>
      <trkpt lat="47.19668" lon="-1.59522">
        <ele>56</ele>
        <time>2020-09-12T08:35:54.000Z</time>
      </trkpt>
      <trkpt lat="47.19665" lon="-1.59543">
        <ele>55</ele>
        <time>2020-09-12T08:35:56.000Z</time>
      </trkpt>
      <trkpt lat="47.19662" lon="-1.59565">
        <ele>55</ele>
        <time>2020-09-12T08:35:58.000Z</time>
      </trkpt>
      <trkpt lat="47.19659" lon="-1.59585">
        <ele>55</ele>
        <time>2020-09-12T08:36:00.000Z</time>
      </trkpt>
      <trkpt lat="47.19656" lon="-1.59606">
        <ele>55</ele>
        <time>2020-09-12T08:36:02.000Z</time>
      </trkpt>
      <trkpt lat="47.19652" lon="-1.59627">
        <ele>55</ele>
        <time>2020-09-12T08:36:04.000Z</time>
      </trkpt>
      <trkpt lat="47.19647" lon="-1.59648">
        <ele>56</ele>
        <time>2020-09-12T08:36:06.000Z</time>
      </trkpt>
      <trkpt lat="47.19641" lon="-1.59669">
        <ele>56</ele>
        <time>2020-09-12T08:36:08.000Z</time>
      </trkpt>
      <trkpt lat="47.19635" lon="-1.59689">
        <ele>56</ele>
        <time>2020-09-12T08:36:10.000Z</time>
      </trkpt>
      <trkpt lat="47.19629" lon="-1.59708">
        <ele>56</ele>
        <time>2020-09-12T08:36:12.000Z</time>
      </trkpt>
      <trkpt lat="47.19623" lon="-1.59728">
        <ele>56</ele>
        <time>2020-09-12T08:36:14.000Z</time>
      </trkpt>
      <trkpt lat="47.19616" lon="-1.59748">
        <ele>56</ele>
        <time>2020-09-12T08:36:16.000Z</time>
      </trkpt>
      <trkpt lat="47.19609" lon="-1.59768">
        <ele>56</ele>
        <time>2020-09-12T08:36:18.000Z</time>
      </trkpt>
      <trkpt lat="47.19603" lon="-1.59787">
        <ele>55</ele>
        <time>2020-09-12T08:36:20.000Z</time>
      </trkpt>
      <trkpt lat="47.19595" lon="-1.59807">
        <ele>55</ele>
        <time>2020-09-12T08:36:22.000Z</time>
      </trkpt>
      <trkpt lat="47.19588" lon="-1.59825">
        <ele>55</ele>
        <time>2020-09-12T08:36:24.000Z</time>
      </trkpt>
      <trkpt lat="47.19582" lon="-1.59845">
        <ele>55</ele>
        <time>2020-09-12T08:36:26.000Z</time>
      </trkpt>
      <trkpt lat="47.19575" lon="-1.59865">
        <ele>55</ele>
        <time>2020-09-12T08:36:28.000Z</time>
      </trkpt>
      <trkpt lat="47.19569" lon="-1.59885">
        <ele>55</ele>
        <time>2020-09-12T08:36:30.000Z</time>
      </trkpt>
      <trkpt lat="47.19563" lon="-1.59906">
        <ele>55</ele>
        <time>2020-09-12T08:36:32.000Z</time>
      </trkpt>
      <trkpt lat="47.19559" lon="-1.59927">
        <ele>55</ele>
        <time>2020-09-12T08:36:34.000Z</time>
      </trkpt>
      <trkpt lat="47.19556" lon="-1.59949">
        <ele>55</ele>
        <time>2020-09-12T08:36:36.000Z</time>
      </trkpt>
      <trkpt lat="47.19555" lon="-1.59971">
        <ele>55</ele>
        <time>2020-09-12T08:36:38.000Z</time>
      </trkpt>
      <trkpt lat="47.19554" lon="-1.59994">
        <ele>56</ele>
        <time>2020-09-12T08:36:40.000Z</time>
      </trkpt>
      <trkpt lat="47.19552" lon="-1.60016">
        <ele>56</ele>
        <time>2020-09-12T08:36:42.000Z</time>
      </trkpt>
      <trkpt lat="47.19551" lon="-1.60039">
        <ele>56</ele>
        <time>2020-09-12T08:36:44.000Z</time>
      </trkpt>
      <trkpt lat="47.1955" lon="-1.60061">
        <ele>56</ele>
        <time>2020-09-12T08:36:46.000Z</time>
      </trkpt>
      <trkpt lat="47.19549" lon="-1.60084">
        <ele>57</ele>
        <time>2020-09-12T08:36:48.000Z</time>
      </trkpt>
      <trkpt lat="47.19547" lon="-1.60107">
        <ele>57</ele>
        <time>2020-09-12T08:36:50.000Z</time>
      </trkpt>
      <trkpt lat="47.19546" lon="-1.6013">
        <ele>57</ele>
        <time>2020-09-12T08:36:52.000Z</time>
      </trkpt>
      <trkpt lat="47.19544" lon="-1.60151">
        <ele>58</ele>
        <time>2020-09-12T08:36:54.000Z</time>
      </trkpt>
      <trkpt lat="47.19542" lon="-1.60173">
        <ele>58</ele>
        <time>2020-09-12T08:36:56.000Z</time>
      </trkpt>
      <trkpt lat="47.19539" lon="-1.60195">
        <ele>58</ele>
        <time>2020-09-12T08:36:58.000Z</time>
      </trkpt>
      <trkpt lat="47.19537" lon="-1.60217">
        <ele>58</ele>
        <time>2020-09-12T08:37:00.000Z</time>
      </trkpt>
      <trkpt lat="47.19536" lon="-1.6024">
        <ele>59</ele>
        <time>2020-09-12T08:37:02.000Z</time>
      </trkpt>
      <trkpt lat="47.19534" lon="-1.60263">
        <ele>59</ele>
        <time>2020-09-12T08:37:04.000Z</time>
      </trkpt>
      <trkpt lat="47.19532" lon="-1.60285">
        <ele>59</ele>
        <time>2020-09-12T08:37:06.000Z</time>
      </trkpt>
      <trkpt lat="47.1953" lon="-1.60307">
        <ele>59</ele>
        <time>2020-09-12T08:37:08.000Z</time>
      </trkpt>
      <trkpt lat="47.19529" lon="-1.6033">
        <ele>59</ele>
        <time>2020-09-12T08:37:10.000Z</time>
      </trkpt>
      <trkpt lat="47.19528" lon="-1.60351">
        <ele>59</ele>
        <time>2020-09-12T08:37:12.000Z</time>
      </trkpt>
      <trkpt lat="47.19528" lon="-1.60373">
        <ele>59</ele>
        <time>2020-09-12T08:37:14.000Z</time>
      </trkpt>
      <trkpt lat="47.19527" lon="-1.60395">
        <ele>59</ele>
        <time>2020-09-12T08:37:16.000Z</time>
      </trkpt>
      <trkpt lat="47.19526" lon="-1.60417">
        <ele>58</ele>
        <time>2020-09-12T08:37:18.000Z</time>
      </trkpt>
      <trkpt lat="47.19524" lon="-1.60437">
        <ele>58</ele>
        <time>2020-09-12T08:37:20.000Z</time>
      </trkpt>
      <trkpt lat="47.19523" lon="-1.60459">
        <ele>57</ele>
        <time>2020-09-12T08:37:22.000Z</time>
      </trkpt>
      <trkpt lat="47.19522" lon="-1.60481">
        <ele>57</ele>
        <time>2020-09-12T08:37:24.000Z</time>
      </trkpt>
      <trkpt lat="47.1952" lon="-1.60503">
        <ele>57</ele>
        <time>2020-09-12T08:37:26.000Z</time>
      </trkpt>
      <trkpt lat="47.19518" lon="-1.60524">
        <ele>58</ele>
        <time>2020-09-12T08:37:28.000Z</time>
      </trkpt>
      <trkpt lat="47.19517" lon="-1.60546">
        <ele>58</ele>
        <time>2020-09-12T08:37:30.000Z</time>
      </trkpt>
      <trkpt lat="47.19515" lon="-1.60567">
        <ele>58</ele>
        <time>2020-09-12T08:37:32.000Z</time>
      </trkpt>
      <trkpt lat="47.19512" lon="-1.60588">
        <ele>58</ele>
        <time>2020-09-12T08:37:34.000Z</time>
      </trkpt>
      <trkpt lat="47.19509" lon="-1.6061">
        <ele>57</ele>
        <time>2020-09-12T08:37:36.000Z</time>
      </trkpt>
      <trkpt lat="47.19506" lon="-1.60631">
        <ele>58</ele>
        <time>2020-09-12T08:37:38.000Z</time>
      </trkpt>
      <trkpt lat="47.19502" lon="-1.60652">
        <ele>57</ele>
        <time>2020-09-12T08:37:40.000Z</time>
      </trkpt>
      <trkpt lat="47.19499" lon="-1.60672">
        <ele>57</ele>
        <time>2020-09-12T08:37:42.000Z</time>
      </trkpt>
      <trkpt lat="47.19497" lon="-1.60694">
        <ele>57</ele>
        <time>2020-09-12T08:37:44.000Z</time>
      </trkpt>
      <trkpt lat="47.19494" lon="-1.60716">
        <ele>57</ele>
        <time>2020-09-12T08:37:46.000Z</time>
      </trkpt>
      <trkpt lat="47.19492" lon="-1.60738">
        <ele>56</ele>
        <time>2020-09-12T08:37:48.000Z</time>
      </trkpt>
      <trkpt lat="47.19491" lon="-1.60759">
        <ele>57</ele>
        <time>2020-09-12T08:37:50.000Z</time>
      </trkpt>
      <trkpt lat="47.19489" lon="-1.60781">
        <ele>57</ele>
        <time>2020-09-12T08:37:52.000Z</time>
      </trkpt>
      <trkpt lat="47.19486" lon="-1.60801">
        <ele>57</ele>
        <time>2020-09-12T08:37:54.000Z</time>
      </trkpt>
      <trkpt lat="47.19484" lon="-1.60824">
        <ele>57</ele>
        <time>2020-09-12T08:37:56.000Z</time>
      </trkpt>
      <trkpt lat="47.19483" lon="-1.60846">
        <ele>57</ele>
        <time>2020-09-12T08:37:58.000Z</time>
      </trkpt>
      <trkpt lat="47.19481" lon="-1.60868">
        <ele>57</ele>
        <time>2020-09-12T08:38:00.000Z</time>
      </trkpt>
      <trkpt lat="47.19481" lon="-1.6089">
        <ele>58</ele>
        <time>2020-09-12T08:38:02.000Z</time>
      </trkpt>
      <trkpt lat="47.1948" lon="-1.60911">
        <ele>58</ele>
        <time>2020-09-12T08:38:04.000Z</time>
      </trkpt>
      <trkpt lat="47.19478" lon="-1.60933">
        <ele>57</ele>
        <time>2020-09-12T08:38:06.000Z</time>
      </trkpt>
      <trkpt lat="47.19475" lon="-1.60955">
        <ele>57</ele>
        <time>2020-09-12T08:38:08.000Z</time>
      </trkpt>
      <trkpt lat="47.1947" lon="-1.60975">
        <ele>56</ele>
        <time>2020-09-12T08:38:10.000Z</time>
      </trkpt>
      <trkpt lat="47.19466" lon="-1.60998">
        <ele>56</ele>
        <time>2020-09-12T08:38:12.000Z</time>
      </trkpt>
      <trkpt lat="47.19466" lon="-1.6102">
        <ele>56</ele>
        <time>2020-09-12T08:38:14.000Z</time>
      </trkpt>
      <trkpt lat="47.19466" lon="-1.61042">
        <ele>56</ele>
        <time>2020-09-12T08:38:16.000Z</time>
      </trkpt>
      <trkpt lat="47.19467" lon="-1.61065">
        <ele>56</ele>
        <time>2020-09-12T08:38:18.000Z</time>
      </trkpt>
      <trkpt lat="47.19465" lon="-1.61087">
        <ele>56</ele>
        <time>2020-09-12T08:38:20.000Z</time>
      </trkpt>
      <trkpt lat="47.19464" lon="-1.61107">
        <ele>55</ele>
        <time>2020-09-12T08:38:22.000Z</time>
      </trkpt>
      <trkpt lat="47.19465" lon="-1.61129">
        <ele>56</ele>
        <time>2020-09-12T08:38:24.000Z</time>
      </trkpt>
      <trkpt lat="47.19467" lon="-1.61152">
        <ele>55</ele>
        <time>2020-09-12T08:38:26.000Z</time>
      </trkpt>
      <trkpt lat="47.19468" lon="-1.61175">
        <ele>55</ele>
        <time>2020-09-12T08:38:28.000Z</time>
      </trkpt>
      <trkpt lat="47.19469" lon="-1.61197">
        <ele>56</ele>
        <time>2020-09-12T08:38:30.000Z</time>
      </trkpt>
      <trkpt lat="47.1947" lon="-1.61221">
        <ele>56</ele>
        <time>2020-09-12T08:38:32.000Z</time>
      </trkpt>
      <trkpt lat="47.1947" lon="-1.61242">
        <ele>56</ele>
        <time>2020-09-12T08:38:34.000Z</time>
      </trkpt>
      <trkpt lat="47.19471" lon="-1.61264">
        <ele>57</ele>
        <time>2020-09-12T08:38:36.000Z</time>
      </trkpt>
      <trkpt lat="47.19473" lon="-1.61285">
        <ele>57</ele>
        <time>2020-09-12T08:38:38.000Z</time>
      </trkpt>
      <trkpt lat="47.19475" lon="-1.61306">
        <ele>58</ele>
        <time>2020-09-12T08:38:40.000Z</time>
      </trkpt>
      <trkpt lat="47.19476" lon="-1.61329">
        <ele>57</ele>
        <time>2020-09-12T08:38:42.000Z</time>
      </trkpt>
      <trkpt lat="47.19477" lon="-1.6135">
        <ele>57</ele>
        <time>2020-09-12T08:38:44.000Z</time>
      </trkpt>
      <trkpt lat="47.19478" lon="-1.61371">
        <ele>57</ele>
        <time>2020-09-12T08:38:46.000Z</time>
      </trkpt>
      <trkpt lat="47.19479" lon="-1.61393">
        <ele>56</ele>
        <time>2020-09-12T08:38:48.000Z</time>
      </trkpt>
      <trkpt lat="47.1948" lon="-1.61414">
        <ele>56</ele>
        <time>2020-09-12T08:38:50.000Z</time>
      </trkpt>
      <trkpt lat="47.19482" lon="-1.61435">
        <ele>56</ele>
        <time>2020-09-12T08:38:52.000Z</time>
      </trkpt>
      <trkpt lat="47.19483" lon="-1.61455">
        <ele>56</ele>
        <time>2020-09-12T08:38:54.000Z</time>
      </trkpt>
      <trkpt lat="47.19481" lon="-1.61474">
        <ele>55</ele>
        <time>2020-09-12T08:38:56.000Z</time>
      </trkpt>
      <trkpt lat="47.19476" lon="-1.61494">
        <ele>55</ele>
        <time>2020-09-12T08:38:58.000Z</time>
      </trkpt>
      <trkpt lat="47.1947" lon="-1.61513">
        <ele>55</ele>
        <time>2020-09-12T08:39:00.000Z</time>
      </trkpt>
      <trkpt lat="47.19464" lon="-1.61533">
        <ele>55</ele>
        <time>2020-09-12T08:39:02.000Z</time>
      </trkpt>
      <trkpt lat="47.19459" lon="-1.61554">
        <ele>55</ele>
        <time>2020-09-12T08:39:04.000Z</time>
      </trkpt>
      <trkpt lat="47.19455" lon="-1.61575">
        <ele>55</ele>
        <time>2020-09-12T08:39:06.000Z</time>
      </trkpt>
      <trkpt lat="47.19452" lon="-1.61597">
        <ele>55</ele>
        <time>2020-09-12T08:39:08.000Z</time>
      </trkpt>
      <trkpt lat="47.1945" lon="-1.61618">
        <ele>55</ele>
        <time>2020-09-12T08:39:10.000Z</time>
      </trkpt>
      <trkpt lat="47.19449" lon="-1.61639">
        <ele>55</ele>
        <time>2020-09-12T08:39:12.000Z</time>
      </trkpt>
      <trkpt lat="47.19448" lon="-1.61661">
        <ele>55</ele>
        <time>2020-09-12T08:39:14.000Z</time>
      </trkpt>
      <trkpt lat="47.19446" lon="-1.61683">
        <ele>55</ele>
        <time>2020-09-12T08:39:16.000Z</time>
      </trkpt>
      <trkpt lat="47.19445" lon="-1.61705">
        <ele>56</ele>
        <time>2020-09-12T08:39:18.000Z</time>
      </trkpt>
      <trkpt lat="47.19445" lon="-1.61727">
        <ele>56</ele>
        <time>2020-09-12T08:39:20.000Z</time>
      </trkpt>
      <trkpt lat="47.19442" lon="-1.61748">
        <ele>56</ele>
        <time>2020-09-12T08:39:22.000Z</time>
      </trkpt>
      <trkpt lat="47.19439" lon="-1.6177">
        <ele>57</ele>
        <time>2020-09-12T08:39:24.000Z</time>
      </trkpt>
      <trkpt lat="47.19435" lon="-1.61791">
        <ele>56</ele>
        <time>2020-09-12T08:39:26.000Z</time>
      </trkpt>
      <trkpt lat="47.19432" lon="-1.61811">
        <ele>57</ele>
        <time>2020-09-12T08:39:28.000Z</time>
      </trkpt>
      <trkpt lat="47.1943" lon="-1.61833">
        <ele>57</ele>
        <time>2020-09-12T08:39:30.000Z</time>
      </trkpt>
      <trkpt lat="47.19431" lon="-1.61853">
        <ele>56</ele>
        <time>2020-09-12T08:39:32.000Z</time>
      </trkpt>
      <trkpt lat="47.19434" lon="-1.61873">
        <ele>57</ele>
        <time>2020-09-12T08:39:34.000Z</time>
      </trkpt>
      <trkpt lat="47.19438" lon="-1.61891">
        <ele>56</ele>
        <time>2020-09-12T08:39:36.000Z</time>
      </trkpt>
      <trkpt lat="47.19444" lon="-1.61908">
        <ele>57</ele>
        <time>2020-09-12T08:39:38.000Z</time>
      </trkpt>
      <trkpt lat="47.19446" lon="-1.61924">
        <ele>57</ele>
        <time>2020-09-12T08:39:40.000Z</time>
      </trkpt>
      <trkpt lat="47.19446" lon="-1.61942">
        <ele>56</ele>
        <time>2020-09-12T08:39:42.000Z</time>
      </trkpt>
      <trkpt lat="47.19451" lon="-1.61959">
        <ele>56</ele>
        <time>2020-09-12T08:39:45.000Z</time>
      </trkpt>
      <trkpt lat="47.19455" lon="-1.61972">
        <ele>56</ele>
        <time>2020-09-12T08:39:49.000Z</time>
      </trkpt>
      <trkpt lat="47.19464" lon="-1.61988">
        <ele>56</ele>
        <time>2020-09-12T08:39:52.000Z</time>
      </trkpt>
      <trkpt lat="47.19464" lon="-1.62008">
        <ele>56</ele>
        <time>2020-09-12T08:39:54.000Z</time>
      </trkpt>
      <trkpt lat="47.19466" lon="-1.62028">
        <ele>56</ele>
        <time>2020-09-12T08:39:56.000Z</time>
      </trkpt>
      <trkpt lat="47.19466" lon="-1.62051">
        <ele>57</ele>
        <time>2020-09-12T08:39:58.000Z</time>
      </trkpt>
      <trkpt lat="47.19467" lon="-1.62074">
        <ele>57</ele>
        <time>2020-09-12T08:40:00.000Z</time>
      </trkpt>
      <trkpt lat="47.19468" lon="-1.62098">
        <ele>56</ele>
        <time>2020-09-12T08:40:02.000Z</time>
      </trkpt>
      <trkpt lat="47.19468" lon="-1.62121">
        <ele>56</ele>
        <time>2020-09-12T08:40:04.000Z</time>
      </trkpt>
      <trkpt lat="47.19469" lon="-1.62144">
        <ele>56</ele>
        <time>2020-09-12T08:40:06.000Z</time>
      </trkpt>
      <trkpt lat="47.19469" lon="-1.62167">
        <ele>56</ele>
        <time>2020-09-12T08:40:08.000Z</time>
      </trkpt>
      <trkpt lat="47.19469" lon="-1.62191">
        <ele>56</ele>
        <time>2020-09-12T08:40:10.000Z</time>
      </trkpt>
      <trkpt lat="47.1947" lon="-1.62213">
        <ele>56</ele>
        <time>2020-09-12T08:40:12.000Z</time>
      </trkpt>
      <trkpt lat="47.19468" lon="-1.62236">
        <ele>56</ele>
        <time>2020-09-12T08:40:14.000Z</time>
      </trkpt>
      <trkpt lat="47.19467" lon="-1.62257">
        <ele>56</ele>
        <time>2020-09-12T08:40:16.000Z</time>
      </trkpt>
      <trkpt lat="47.19467" lon="-1.6228">
        <ele>55</ele>
        <time>2020-09-12T08:40:18.000Z</time>
      </trkpt>
      <trkpt lat="47.19467" lon="-1.62301">
        <ele>56</ele>
        <time>2020-09-12T08:40:20.000Z</time>
      </trkpt>
      <trkpt lat="47.19466" lon="-1.62323">
        <ele>55</ele>
        <time>2020-09-12T08:40:22.000Z</time>
      </trkpt>
      <trkpt lat="47.19466" lon="-1.62346">
        <ele>55</ele>
        <time>2020-09-12T08:40:24.000Z</time>
      </trkpt>
      <trkpt lat="47.19466" lon="-1.62367">
        <ele>55</ele>
        <time>2020-09-12T08:40:26.000Z</time>
      </trkpt>
      <trkpt lat="47.19466" lon="-1.6239">
        <ele>55</ele>
        <time>2020-09-12T08:40:28.000Z</time>
      </trkpt>
      <trkpt lat="47.19467" lon="-1.62411">
        <ele>55</ele>
        <time>2020-09-12T08:40:30.000Z</time>
      </trkpt>
      <trkpt lat="47.19467" lon="-1.62433">
        <ele>55</ele>
        <time>2020-09-12T08:40:32.000Z</time>
      </trkpt>
      <trkpt lat="47.19468" lon="-1.62453">
        <ele>54</ele>
        <time>2020-09-12T08:40:34.000Z</time>
      </trkpt>
      <trkpt lat="47.19469" lon="-1.62474">
        <ele>54</ele>
        <time>2020-09-12T08:40:36.000Z</time>
      </trkpt>
      <trkpt lat="47.1947" lon="-1.62495">
        <ele>55</ele>
        <time>2020-09-12T08:40:38.000Z</time>
      </trkpt>
      <trkpt lat="47.19471" lon="-1.62516">
        <ele>55</ele>
        <time>2020-09-12T08:40:40.000Z</time>
      </trkpt>
      <trkpt lat="47.19472" lon="-1.62538">
        <ele>55</ele>
        <time>2020-09-12T08:40:42.000Z</time>
      </trkpt>
      <trkpt lat="47.19472" lon="-1.62559">
        <ele>55</ele>
        <time>2020-09-12T08:40:44.000Z</time>
      </trkpt>
      <trkpt lat="47.19474" lon="-1.6258">
        <ele>55</ele>
        <time>2020-09-12T08:40:46.000Z</time>
      </trkpt>
      <trkpt lat="47.19475" lon="-1.62601">
        <ele>55</ele>
        <time>2020-09-12T08:40:48.000Z</time>
      </trkpt>
      <trkpt lat="47.19476" lon="-1.62622">
        <ele>54</ele>
        <time>2020-09-12T08:40:50.000Z</time>
      </trkpt>
      <trkpt lat="47.19477" lon="-1.62643">
        <ele>54</ele>
        <time>2020-09-12T08:40:52.000Z</time>
      </trkpt>
      <trkpt lat="47.19478" lon="-1.62665">
        <ele>54</ele>
        <time>2020-09-12T08:40:54.000Z</time>
      </trkpt>
      <trkpt lat="47.19479" lon="-1.62686">
        <ele>54</ele>
        <time>2020-09-12T08:40:56.000Z</time>
      </trkpt>
      <trkpt lat="47.19481" lon="-1.62708">
        <ele>55</ele>
        <time>2020-09-12T08:40:58.000Z</time>
      </trkpt>
      <trkpt lat="47.19482" lon="-1.62729">
        <ele>55</ele>
        <time>2020-09-12T08:41:00.000Z</time>
      </trkpt>
      <trkpt lat="47.19484" lon="-1.62751">
        <ele>55</ele>
        <time>2020-09-12T08:41:02.000Z</time>
      </trkpt>
      <trkpt lat="47.19484" lon="-1.62773">
        <ele>55</ele>
        <time>2020-09-12T08:41:04.000Z</time>
      </trkpt>
      <trkpt lat="47.19486" lon="-1.62794">
        <ele>56</ele>
        <time>2020-09-12T08:41:06.000Z</time>
      </trkpt>
      <trkpt lat="47.19486" lon="-1.62816">
        <ele>56</ele>
        <time>2020-09-12T08:41:08.000Z</time>
      </trkpt>
      <trkpt lat="47.19487" lon="-1.62837">
        <ele>56</ele>
        <time>2020-09-12T08:41:10.000Z</time>
      </trkpt>
      <trkpt lat="47.1949" lon="-1.62858">
        <ele>56</ele>
        <time>2020-09-12T08:41:12.000Z</time>
      </trkpt>
      <trkpt lat="47.19492" lon="-1.6288">
        <ele>56</ele>
        <time>2020-09-12T08:41:14.000Z</time>
      </trkpt>
      <trkpt lat="47.19494" lon="-1.62901">
        <ele>56</ele>
        <time>2020-09-12T08:41:16.000Z</time>
      </trkpt>
      <trkpt lat="47.19496" lon="-1.62923">
        <ele>55</ele>
        <time>2020-09-12T08:41:18.000Z</time>
      </trkpt>
      <trkpt lat="47.19498" lon="-1.62944">
        <ele>55</ele>
        <time>2020-09-12T08:41:20.000Z</time>
      </trkpt>
      <trkpt lat="47.195" lon="-1.62965">
        <ele>55</ele>
        <time>2020-09-12T08:41:22.000Z</time>
      </trkpt>
      <trkpt lat="47.19502" lon="-1.62986">
        <ele>55</ele>
        <time>2020-09-12T08:41:24.000Z</time>
      </trkpt>
      <trkpt lat="47.19504" lon="-1.63008">
        <ele>54</ele>
        <time>2020-09-12T08:41:26.000Z</time>
      </trkpt>
      <trkpt lat="47.19505" lon="-1.63029">
        <ele>54</ele>
        <time>2020-09-12T08:41:28.000Z</time>
      </trkpt>
      <trkpt lat="47.19507" lon="-1.6305">
        <ele>53</ele>
        <time>2020-09-12T08:41:30.000Z</time>
      </trkpt>
      <trkpt lat="47.19507" lon="-1.63071">
        <ele>54</ele>
        <time>2020-09-12T08:41:32.000Z</time>
      </trkpt>
      <trkpt lat="47.19507" lon="-1.63092">
        <ele>54</ele>
        <time>2020-09-12T08:41:34.000Z</time>
      </trkpt>
      <trkpt lat="47.19507" lon="-1.63114">
        <ele>53</ele>
        <time>2020-09-12T08:41:36.000Z</time>
      </trkpt>
      <trkpt lat="47.19506" lon="-1.63135">
        <ele>53</ele>
        <time>2020-09-12T08:41:38.000Z</time>
      </trkpt>
      <trkpt lat="47.19505" lon="-1.63156">
        <ele>53</ele>
        <time>2020-09-12T08:41:40.000Z</time>
      </trkpt>
      <trkpt lat="47.19503" lon="-1.63177">
        <ele>52</ele>
        <time>2020-09-12T08:41:42.000Z</time>
      </trkpt>
      <trkpt lat="47.19501" lon="-1.63198">
        <ele>53</ele>
        <time>2020-09-12T08:41:44.000Z</time>
      </trkpt>
      <trkpt lat="47.19498" lon="-1.63219">
        <ele>53</ele>
        <time>2020-09-12T08:41:46.000Z</time>
      </trkpt>
      <trkpt lat="47.19496" lon="-1.6324">
        <ele>53</ele>
        <time>2020-09-12T08:41:48.000Z</time>
      </trkpt>
      <trkpt lat="47.19493" lon="-1.6326">
        <ele>54</ele>
        <time>2020-09-12T08:41:50.000Z</time>
      </trkpt>
      <trkpt lat="47.1949" lon="-1.63281">
        <ele>55</ele>
        <time>2020-09-12T08:41:52.000Z</time>
      </trkpt>
      <trkpt lat="47.19487" lon="-1.63302">
        <ele>57</ele>
        <time>2020-09-12T08:41:54.000Z</time>
      </trkpt>
      <trkpt lat="47.19483" lon="-1.63321">
        <ele>58</ele>
        <time>2020-09-12T08:41:56.000Z</time>
      </trkpt>
      <trkpt lat="47.1948" lon="-1.63342">
        <ele>58</ele>
        <time>2020-09-12T08:41:58.000Z</time>
      </trkpt>
      <trkpt lat="47.19477" lon="-1.63362">
        <ele>60</ele>
        <time>2020-09-12T08:42:00.000Z</time>
      </trkpt>
      <trkpt lat="47.19474" lon="-1.63383">
        <ele>62</ele>
        <time>2020-09-12T08:42:02.000Z</time>
      </trkpt>
      <trkpt lat="47.19471" lon="-1.63402">
        <ele>64</ele>
        <time>2020-09-12T08:42:04.000Z</time>
      </trkpt>
      <trkpt lat="47.19469" lon="-1.63422">
        <ele>65</ele>
        <time>2020-09-12T08:42:06.000Z</time>
      </trkpt>
      <trkpt lat="47.19466" lon="-1.63443">
        <ele>65</ele>
        <time>2020-09-12T08:42:08.000Z</time>
      </trkpt>
      <trkpt lat="47.19463" lon="-1.63465">
        <ele>64</ele>
        <time>2020-09-12T08:42:10.000Z</time>
      </trkpt>
      <trkpt lat="47.19461" lon="-1.63484">
        <ele>63</ele>
        <time>2020-09-12T08:42:12.000Z</time>
      </trkpt>
      <trkpt lat="47.19458" lon="-1.63504">
        <ele>62</ele>
        <time>2020-09-12T08:42:14.000Z</time>
      </trkpt>
      <trkpt lat="47.19457" lon="-1.63525">
        <ele>61</ele>
        <time>2020-09-12T08:42:16.000Z</time>
      </trkpt>
      <trkpt lat="47.19454" lon="-1.63546">
        <ele>61</ele>
        <time>2020-09-12T08:42:18.000Z</time>
      </trkpt>
      <trkpt lat="47.19452" lon="-1.63566">
        <ele>60</ele>
        <time>2020-09-12T08:42:20.000Z</time>
      </trkpt>
      <trkpt lat="47.19451" lon="-1.63588">
        <ele>59</ele>
        <time>2020-09-12T08:42:22.000Z</time>
      </trkpt>
      <trkpt lat="47.19448" lon="-1.63609">
        <ele>58</ele>
        <time>2020-09-12T08:42:24.000Z</time>
      </trkpt>
      <trkpt lat="47.19446" lon="-1.6363">
        <ele>58</ele>
        <time>2020-09-12T08:42:26.000Z</time>
      </trkpt>
      <trkpt lat="47.19446" lon="-1.63651">
        <ele>58</ele>
        <time>2020-09-12T08:42:28.000Z</time>
      </trkpt>
      <trkpt lat="47.19446" lon="-1.63672">
        <ele>57</ele>
        <time>2020-09-12T08:42:30.000Z</time>
      </trkpt>
      <trkpt lat="47.19446" lon="-1.63693">
        <ele>57</ele>
        <time>2020-09-12T08:42:32.000Z</time>
      </trkpt>
      <trkpt lat="47.19447" lon="-1.63714">
        <ele>56</ele>
        <time>2020-09-12T08:42:34.000Z</time>
      </trkpt>
      <trkpt lat="47.19447" lon="-1.63734">
        <ele>56</ele>
        <time>2020-09-12T08:42:36.000Z</time>
      </trkpt>
      <trkpt lat="47.19449" lon="-1.63755">
        <ele>55</ele>
        <time>2020-09-12T08:42:38.000Z</time>
      </trkpt>
      <trkpt lat="47.19449" lon="-1.63773">
        <ele>55</ele>
        <time>2020-09-12T08:42:40.000Z</time>
      </trkpt>
      <trkpt lat="47.19448" lon="-1.63792">
        <ele>54</ele>
        <time>2020-09-12T08:42:42.000Z</time>
      </trkpt>
      <trkpt lat="47.19454" lon="-1.63811">
        <ele>53</ele>
        <time>2020-09-12T08:42:44.000Z</time>
      </trkpt>
      <trkpt lat="47.19458" lon="-1.6383">
        <ele>54</ele>
        <time>2020-09-12T08:42:46.000Z</time>
      </trkpt>
      <trkpt lat="47.19458" lon="-1.6385">
        <ele>54</ele>
        <time>2020-09-12T08:42:48.000Z</time>
      </trkpt>
      <trkpt lat="47.19455" lon="-1.63871">
        <ele>54</ele>
        <time>2020-09-12T08:42:50.000Z</time>
      </trkpt>
      <trkpt lat="47.19455" lon="-1.63894">
        <ele>53</ele>
        <time>2020-09-12T08:42:52.000Z</time>
      </trkpt>
      <trkpt lat="47.19456" lon="-1.63914">
        <ele>53</ele>
        <time>2020-09-12T08:42:54.000Z</time>
      </trkpt>
      <trkpt lat="47.1946" lon="-1.63936">
        <ele>53</ele>
        <time>2020-09-12T08:42:56.000Z</time>
      </trkpt>
      <trkpt lat="47.19464" lon="-1.63958">
        <ele>53</ele>
        <time>2020-09-12T08:42:58.000Z</time>
      </trkpt>
      <trkpt lat="47.19469" lon="-1.63978">
        <ele>53</ele>
        <time>2020-09-12T08:43:00.000Z</time>
      </trkpt>
      <trkpt lat="47.19474" lon="-1.63999">
        <ele>53</ele>
        <time>2020-09-12T08:43:02.000Z</time>
      </trkpt>
      <trkpt lat="47.1948" lon="-1.6402">
        <ele>53</ele>
        <time>2020-09-12T08:43:04.000Z</time>
      </trkpt>
      <trkpt lat="47.19486" lon="-1.64039">
        <ele>53</ele>
        <time>2020-09-12T08:43:06.000Z</time>
      </trkpt>
      <trkpt lat="47.19493" lon="-1.64057">
        <ele>53</ele>
        <time>2020-09-12T08:43:08.000Z</time>
      </trkpt>
      <trkpt lat="47.195" lon="-1.64077">
        <ele>53</ele>
        <time>2020-09-12T08:43:10.000Z</time>
      </trkpt>
      <trkpt lat="47.19508" lon="-1.64096">
        <ele>53</ele>
        <time>2020-09-12T08:43:12.000Z</time>
      </trkpt>
      <trkpt lat="47.19515" lon="-1.64114">
        <ele>53</ele>
        <time>2020-09-12T08:43:14.000Z</time>
      </trkpt>
      <trkpt lat="47.19522" lon="-1.64134">
        <ele>53</ele>
        <time>2020-09-12T08:43:16.000Z</time>
      </trkpt>
      <trkpt lat="47.19529" lon="-1.64152">
        <ele>53</ele>
        <time>2020-09-12T08:43:18.000Z</time>
      </trkpt>
      <trkpt lat="47.19536" lon="-1.64171">
        <ele>53</ele>
        <time>2020-09-12T08:43:20.000Z</time>
      </trkpt>
      <trkpt lat="47.19543" lon="-1.64189">
        <ele>53</ele>
        <time>2020-09-12T08:43:22.000Z</time>
      </trkpt>
      <trkpt lat="47.1955" lon="-1.64208">
        <ele>53</ele>
        <time>2020-09-12T08:43:24.000Z</time>
      </trkpt>
      <trkpt lat="47.19558" lon="-1.64226">
        <ele>53</ele>
        <time>2020-09-12T08:43:26.000Z</time>
      </trkpt>
      <trkpt lat="47.19565" lon="-1.64244">
        <ele>53</ele>
        <time>2020-09-12T08:43:28.000Z</time>
      </trkpt>
      <trkpt lat="47.19572" lon="-1.64263">
        <ele>54</ele>
        <time>2020-09-12T08:43:30.000Z</time>
      </trkpt>
      <trkpt lat="47.19579" lon="-1.64282">
        <ele>54</ele>
        <time>2020-09-12T08:43:32.000Z</time>
      </trkpt>
      <trkpt lat="47.19587" lon="-1.643">
        <ele>54</ele>
        <time>2020-09-12T08:43:34.000Z</time>
      </trkpt>
      <trkpt lat="47.19594" lon="-1.64318">
        <ele>54</ele>
        <time>2020-09-12T08:43:36.000Z</time>
      </trkpt>
      <trkpt lat="47.19601" lon="-1.64337">
        <ele>55</ele>
        <time>2020-09-12T08:43:38.000Z</time>
      </trkpt>
      <trkpt lat="47.19608" lon="-1.64356">
        <ele>55</ele>
        <time>2020-09-12T08:43:40.000Z</time>
      </trkpt>
      <trkpt lat="47.19615" lon="-1.64374">
        <ele>55</ele>
        <time>2020-09-12T08:43:42.000Z</time>
      </trkpt>
      <trkpt lat="47.19622" lon="-1.64393">
        <ele>54</ele>
        <time>2020-09-12T08:43:44.000Z</time>
      </trkpt>
      <trkpt lat="47.19634" lon="-1.64422">
        <ele>54</ele>
        <time>2020-09-12T08:43:47.000Z</time>
      </trkpt>
      <trkpt lat="47.19641" lon="-1.64441">
        <ele>54</ele>
        <time>2020-09-12T08:43:49.000Z</time>
      </trkpt>
      <trkpt lat="47.19648" lon="-1.6446">
        <ele>54</ele>
        <time>2020-09-12T08:43:51.000Z</time>
      </trkpt>
      <trkpt lat="47.19655" lon="-1.64478">
        <ele>54</ele>
        <time>2020-09-12T08:43:53.000Z</time>
      </trkpt>
      <trkpt lat="47.19663" lon="-1.64497">
        <ele>53</ele>
        <time>2020-09-12T08:43:55.000Z</time>
      </trkpt>
      <trkpt lat="47.1967" lon="-1.64516">
        <ele>53</ele>
        <time>2020-09-12T08:43:57.000Z</time>
      </trkpt>
      <trkpt lat="47.19676" lon="-1.64535">
        <ele>53</ele>
        <time>2020-09-12T08:43:59.000Z</time>
      </trkpt>
      <trkpt lat="47.19684" lon="-1.64553">
        <ele>53</ele>
        <time>2020-09-12T08:44:01.000Z</time>
      </trkpt>
      <trkpt lat="47.19691" lon="-1.64572">
        <ele>53</ele>
        <time>2020-09-12T08:44:03.000Z</time>
      </trkpt>
      <trkpt lat="47.19698" lon="-1.64591">
        <ele>53</ele>
        <time>2020-09-12T08:44:05.000Z</time>
      </trkpt>
      <trkpt lat="47.19705" lon="-1.6461">
        <ele>53</ele>
        <time>2020-09-12T08:44:07.000Z</time>
      </trkpt>
      <trkpt lat="47.19713" lon="-1.64629">
        <ele>53</ele>
        <time>2020-09-12T08:44:09.000Z</time>
      </trkpt>
      <trkpt lat="47.19721" lon="-1.6465">
        <ele>53</ele>
        <time>2020-09-12T08:44:11.000Z</time>
      </trkpt>
      <trkpt lat="47.19728" lon="-1.64669">
        <ele>53</ele>
        <time>2020-09-12T08:44:13.000Z</time>
      </trkpt>
      <trkpt lat="47.19735" lon="-1.64688">
        <ele>53</ele>
        <time>2020-09-12T08:44:15.000Z</time>
      </trkpt>
      <trkpt lat="47.19744" lon="-1.64708">
        <ele>53</ele>
        <time>2020-09-12T08:44:17.000Z</time>
      </trkpt>
      <trkpt lat="47.19751" lon="-1.64727">
        <ele>53</ele>
        <time>2020-09-12T08:44:19.000Z</time>
      </trkpt>
      <trkpt lat="47.19759" lon="-1.64746">
        <ele>53</ele>
        <time>2020-09-12T08:44:21.000Z</time>
      </trkpt>
      <trkpt lat="47.19766" lon="-1.64765">
        <ele>52</ele>
        <time>2020-09-12T08:44:23.000Z</time>
      </trkpt>
      <trkpt lat="47.19774" lon="-1.64785">
        <ele>53</ele>
        <time>2020-09-12T08:44:25.000Z</time>
      </trkpt>
      <trkpt lat="47.19781" lon="-1.64804">
        <ele>53</ele>
        <time>2020-09-12T08:44:27.000Z</time>
      </trkpt>
      <trkpt lat="47.19788" lon="-1.64824">
        <ele>53</ele>
        <time>2020-09-12T08:44:29.000Z</time>
      </trkpt>
      <trkpt lat="47.19796" lon="-1.64843">
        <ele>53</ele>
        <time>2020-09-12T08:44:31.000Z</time>
      </trkpt>
      <trkpt lat="47.19805" lon="-1.64862">
        <ele>53</ele>
        <time>2020-09-12T08:44:33.000Z</time>
      </trkpt>
      <trkpt lat="47.19814" lon="-1.64881">
        <ele>53</ele>
        <time>2020-09-12T08:44:35.000Z</time>
      </trkpt>
      <trkpt lat="47.19823" lon="-1.649">
        <ele>52</ele>
        <time>2020-09-12T08:44:37.000Z</time>
      </trkpt>
      <trkpt lat="47.19831" lon="-1.64921">
        <ele>53</ele>
        <time>2020-09-12T08:44:39.000Z</time>
      </trkpt>
      <trkpt lat="47.19838" lon="-1.64942">
        <ele>53</ele>
        <time>2020-09-12T08:44:41.000Z</time>
      </trkpt>
      <trkpt lat="47.19844" lon="-1.64964">
        <ele>53</ele>
        <time>2020-09-12T08:44:43.000Z</time>
      </trkpt>
      <trkpt lat="47.19851" lon="-1.64984">
        <ele>53</ele>
        <time>2020-09-12T08:44:45.000Z</time>
      </trkpt>
      <trkpt lat="47.19858" lon="-1.65004">
        <ele>53</ele>
        <time>2020-09-12T08:44:47.000Z</time>
      </trkpt>
      <trkpt lat="47.1987" lon="-1.65034">
        <ele>54</ele>
        <time>2020-09-12T08:44:50.000Z</time>
      </trkpt>
      <trkpt lat="47.1988" lon="-1.65062">
        <ele>54</ele>
        <time>2020-09-12T08:44:53.000Z</time>
      </trkpt>
      <trkpt lat="47.19888" lon="-1.65081">
        <ele>54</ele>
        <time>2020-09-12T08:44:55.000Z</time>
      </trkpt>
      <trkpt lat="47.19898" lon="-1.65111">
        <ele>53</ele>
        <time>2020-09-12T08:44:58.000Z</time>
      </trkpt>
      <trkpt lat="47.1991" lon="-1.65139">
        <ele>53</ele>
        <time>2020-09-12T08:45:01.000Z</time>
      </trkpt>
      <trkpt lat="47.19917" lon="-1.65157">
        <ele>53</ele>
        <time>2020-09-12T08:45:03.000Z</time>
      </trkpt>
      <trkpt lat="47.19925" lon="-1.65177">
        <ele>53</ele>
        <time>2020-09-12T08:45:05.000Z</time>
      </trkpt>
      <trkpt lat="47.19935" lon="-1.65205">
        <ele>53</ele>
        <time>2020-09-12T08:45:08.000Z</time>
      </trkpt>
      <trkpt lat="47.19946" lon="-1.65233">
        <ele>53</ele>
        <time>2020-09-12T08:45:11.000Z</time>
      </trkpt>
      <trkpt lat="47.19953" lon="-1.65253">
        <ele>53</ele>
        <time>2020-09-12T08:45:13.000Z</time>
      </trkpt>
      <trkpt lat="47.1996" lon="-1.65273">
        <ele>52</ele>
        <time>2020-09-12T08:45:15.000Z</time>
      </trkpt>
      <trkpt lat="47.19966" lon="-1.65292">
        <ele>53</ele>
        <time>2020-09-12T08:45:17.000Z</time>
      </trkpt>
      <trkpt lat="47.19973" lon="-1.65312">
        <ele>53</ele>
        <time>2020-09-12T08:45:19.000Z</time>
      </trkpt>
      <trkpt lat="47.19979" lon="-1.65332">
        <ele>53</ele>
        <time>2020-09-12T08:45:21.000Z</time>
      </trkpt>
      <trkpt lat="47.19985" lon="-1.65352">
        <ele>54</ele>
        <time>2020-09-12T08:45:23.000Z</time>
      </trkpt>
      <trkpt lat="47.1999" lon="-1.65372">
        <ele>53</ele>
        <time>2020-09-12T08:45:25.000Z</time>
      </trkpt>
      <trkpt lat="47.19996" lon="-1.65393">
        <ele>53</ele>
        <time>2020-09-12T08:45:27.000Z</time>
      </trkpt>
      <trkpt lat="47.20001" lon="-1.65413">
        <ele>53</ele>
        <time>2020-09-12T08:45:29.000Z</time>
      </trkpt>
      <trkpt lat="47.20006" lon="-1.65434">
        <ele>53</ele>
        <time>2020-09-12T08:45:31.000Z</time>
      </trkpt>
      <trkpt lat="47.20012" lon="-1.65464">
        <ele>53</ele>
        <time>2020-09-12T08:45:34.000Z</time>
      </trkpt>
      <trkpt lat="47.20016" lon="-1.65485">
        <ele>53</ele>
        <time>2020-09-12T08:45:36.000Z</time>
      </trkpt>
      <trkpt lat="47.2002" lon="-1.65505">
        <ele>53</ele>
        <time>2020-09-12T08:45:38.000Z</time>
      </trkpt>
      <trkpt lat="47.20024" lon="-1.65526">
        <ele>54</ele>
        <time>2020-09-12T08:45:40.000Z</time>
      </trkpt>
      <trkpt lat="47.20027" lon="-1.65547">
        <ele>54</ele>
        <time>2020-09-12T08:45:42.000Z</time>
      </trkpt>
      <trkpt lat="47.20031" lon="-1.65568">
        <ele>53</ele>
        <time>2020-09-12T08:45:44.000Z</time>
      </trkpt>
      <trkpt lat="47.20034" lon="-1.65588">
        <ele>53</ele>
        <time>2020-09-12T08:45:46.000Z</time>
      </trkpt>
      <trkpt lat="47.20038" lon="-1.65608">
        <ele>53</ele>
        <time>2020-09-12T08:45:48.000Z</time>
      </trkpt>
      <trkpt lat="47.20041" lon="-1.65629">
        <ele>52</ele>
        <time>2020-09-12T08:45:50.000Z</time>
      </trkpt>
      <trkpt lat="47.20044" lon="-1.65649">
        <ele>53</ele>
        <time>2020-09-12T08:45:52.000Z</time>
      </trkpt>
      <trkpt lat="47.20048" lon="-1.6567">
        <ele>52</ele>
        <time>2020-09-12T08:45:54.000Z</time>
      </trkpt>
      <trkpt lat="47.20052" lon="-1.6569">
        <ele>53</ele>
        <time>2020-09-12T08:45:56.000Z</time>
      </trkpt>
      <trkpt lat="47.20056" lon="-1.65711">
        <ele>53</ele>
        <time>2020-09-12T08:45:58.000Z</time>
      </trkpt>
      <trkpt lat="47.2006" lon="-1.65731">
        <ele>52</ele>
        <time>2020-09-12T08:46:00.000Z</time>
      </trkpt>
      <trkpt lat="47.20064" lon="-1.65752">
        <ele>52</ele>
        <time>2020-09-12T08:46:02.000Z</time>
      </trkpt>
      <trkpt lat="47.2007" lon="-1.65783">
        <ele>52</ele>
        <time>2020-09-12T08:46:05.000Z</time>
      </trkpt>
      <trkpt lat="47.20074" lon="-1.65803">
        <ele>53</ele>
        <time>2020-09-12T08:46:07.000Z</time>
      </trkpt>
      <trkpt lat="47.20077" lon="-1.65823">
        <ele>53</ele>
        <time>2020-09-12T08:46:09.000Z</time>
      </trkpt>
      <trkpt lat="47.20081" lon="-1.65844">
        <ele>52</ele>
        <time>2020-09-12T08:46:11.000Z</time>
      </trkpt>
      <trkpt lat="47.20084" lon="-1.65865">
        <ele>52</ele>
        <time>2020-09-12T08:46:13.000Z</time>
      </trkpt>
      <trkpt lat="47.20087" lon="-1.65885">
        <ele>52</ele>
        <time>2020-09-12T08:46:15.000Z</time>
      </trkpt>
      <trkpt lat="47.20091" lon="-1.65905">
        <ele>51</ele>
        <time>2020-09-12T08:46:17.000Z</time>
      </trkpt>
      <trkpt lat="47.20094" lon="-1.65925">
        <ele>52</ele>
        <time>2020-09-12T08:46:19.000Z</time>
      </trkpt>
      <trkpt lat="47.20098" lon="-1.65945">
        <ele>51</ele>
        <time>2020-09-12T08:46:21.000Z</time>
      </trkpt>
      <trkpt lat="47.20101" lon="-1.65966">
        <ele>51</ele>
        <time>2020-09-12T08:46:23.000Z</time>
      </trkpt>
      <trkpt lat="47.20104" lon="-1.65986">
        <ele>52</ele>
        <time>2020-09-12T08:46:25.000Z</time>
      </trkpt>
      <trkpt lat="47.20106" lon="-1.66007">
        <ele>52</ele>
        <time>2020-09-12T08:46:27.000Z</time>
      </trkpt>
      <trkpt lat="47.20109" lon="-1.66027">
        <ele>52</ele>
        <time>2020-09-12T08:46:29.000Z</time>
      </trkpt>
      <trkpt lat="47.20111" lon="-1.66048">
        <ele>52</ele>
        <time>2020-09-12T08:46:31.000Z</time>
      </trkpt>
      <trkpt lat="47.20112" lon="-1.66068">
        <ele>52</ele>
        <time>2020-09-12T08:46:33.000Z</time>
      </trkpt>
      <trkpt lat="47.20115" lon="-1.66089">
        <ele>52</ele>
        <time>2020-09-12T08:46:35.000Z</time>
      </trkpt>
      <trkpt lat="47.20116" lon="-1.66109">
        <ele>52</ele>
        <time>2020-09-12T08:46:37.000Z</time>
      </trkpt>
      <trkpt lat="47.20118" lon="-1.6613">
        <ele>52</ele>
        <time>2020-09-12T08:46:39.000Z</time>
      </trkpt>
      <trkpt lat="47.20119" lon="-1.66151">
        <ele>53</ele>
        <time>2020-09-12T08:46:41.000Z</time>
      </trkpt>
      <trkpt lat="47.2012" lon="-1.66172">
        <ele>53</ele>
        <time>2020-09-12T08:46:43.000Z</time>
      </trkpt>
      <trkpt lat="47.2012" lon="-1.66193">
        <ele>53</ele>
        <time>2020-09-12T08:46:45.000Z</time>
      </trkpt>
      <trkpt lat="47.20121" lon="-1.66214">
        <ele>53</ele>
        <time>2020-09-12T08:46:47.000Z</time>
      </trkpt>
      <trkpt lat="47.20121" lon="-1.66235">
        <ele>53</ele>
        <time>2020-09-12T08:46:49.000Z</time>
      </trkpt>
      <trkpt lat="47.20121" lon="-1.66255">
        <ele>54</ele>
        <time>2020-09-12T08:46:51.000Z</time>
      </trkpt>
      <trkpt lat="47.20123" lon="-1.66275">
        <ele>53</ele>
        <time>2020-09-12T08:46:53.000Z</time>
      </trkpt>
      <trkpt lat="47.20122" lon="-1.66296">
        <ele>53</ele>
        <time>2020-09-12T08:46:55.000Z</time>
      </trkpt>
      <trkpt lat="47.2012" lon="-1.66316">
        <ele>53</ele>
        <time>2020-09-12T08:46:57.000Z</time>
      </trkpt>
      <trkpt lat="47.2012" lon="-1.66336">
        <ele>53</ele>
        <time>2020-09-12T08:46:59.000Z</time>
      </trkpt>
      <trkpt lat="47.20119" lon="-1.66357">
        <ele>54</ele>
        <time>2020-09-12T08:47:01.000Z</time>
      </trkpt>
      <trkpt lat="47.20118" lon="-1.66378">
        <ele>54</ele>
        <time>2020-09-12T08:47:03.000Z</time>
      </trkpt>
      <trkpt lat="47.20118" lon="-1.664">
        <ele>53</ele>
        <time>2020-09-12T08:47:05.000Z</time>
      </trkpt>
      <trkpt lat="47.20117" lon="-1.6642">
        <ele>53</ele>
        <time>2020-09-12T08:47:07.000Z</time>
      </trkpt>
      <trkpt lat="47.20117" lon="-1.66442">
        <ele>53</ele>
        <time>2020-09-12T08:47:09.000Z</time>
      </trkpt>
      <trkpt lat="47.20116" lon="-1.66464">
        <ele>52</ele>
        <time>2020-09-12T08:47:11.000Z</time>
      </trkpt>
      <trkpt lat="47.20115" lon="-1.66485">
        <ele>52</ele>
        <time>2020-09-12T08:47:13.000Z</time>
      </trkpt>
      <trkpt lat="47.20115" lon="-1.66506">
        <ele>52</ele>
        <time>2020-09-12T08:47:15.000Z</time>
      </trkpt>
      <trkpt lat="47.20115" lon="-1.66528">
        <ele>52</ele>
        <time>2020-09-12T08:47:17.000Z</time>
      </trkpt>
      <trkpt lat="47.20114" lon="-1.6655">
        <ele>52</ele>
        <time>2020-09-12T08:47:19.000Z</time>
      </trkpt>
      <trkpt lat="47.20113" lon="-1.66571">
        <ele>52</ele>
        <time>2020-09-12T08:47:21.000Z</time>
      </trkpt>
      <trkpt lat="47.20113" lon="-1.66592">
        <ele>52</ele>
        <time>2020-09-12T08:47:23.000Z</time>
      </trkpt>
      <trkpt lat="47.20113" lon="-1.66613">
        <ele>52</ele>
        <time>2020-09-12T08:47:25.000Z</time>
      </trkpt>
      <trkpt lat="47.20114" lon="-1.66634">
        <ele>52</ele>
        <time>2020-09-12T08:47:27.000Z</time>
      </trkpt>
      <trkpt lat="47.20113" lon="-1.66656">
        <ele>53</ele>
        <time>2020-09-12T08:47:29.000Z</time>
      </trkpt>
      <trkpt lat="47.20113" lon="-1.66687">
        <ele>53</ele>
        <time>2020-09-12T08:47:32.000Z</time>
      </trkpt>
      <trkpt lat="47.20113" lon="-1.66708">
        <ele>53</ele>
        <time>2020-09-12T08:47:34.000Z</time>
      </trkpt>
      <trkpt lat="47.20115" lon="-1.66727">
        <ele>52</ele>
        <time>2020-09-12T08:47:36.000Z</time>
      </trkpt>
      <trkpt lat="47.20123" lon="-1.6674">
        <ele>53</ele>
        <time>2020-09-12T08:47:38.000Z</time>
      </trkpt>
      <trkpt lat="47.20134" lon="-1.6675">
        <ele>53</ele>
        <time>2020-09-12T08:47:40.000Z</time>
      </trkpt>
      <trkpt lat="47.20142" lon="-1.66766">
        <ele>53</ele>
        <time>2020-09-12T08:47:42.000Z</time>
      </trkpt>
      <trkpt lat="47.20144" lon="-1.66786">
        <ele>52</ele>
        <time>2020-09-12T08:47:44.000Z</time>
      </trkpt>
      <trkpt lat="47.20141" lon="-1.66807">
        <ele>53</ele>
        <time>2020-09-12T08:47:46.000Z</time>
      </trkpt>
      <trkpt lat="47.20138" lon="-1.66826">
        <ele>53</ele>
        <time>2020-09-12T08:47:48.000Z</time>
      </trkpt>
      <trkpt lat="47.2014" lon="-1.66846">
        <ele>53</ele>
        <time>2020-09-12T08:47:50.000Z</time>
      </trkpt>
      <trkpt lat="47.20145" lon="-1.66866">
        <ele>53</ele>
        <time>2020-09-12T08:47:52.000Z</time>
      </trkpt>
      <trkpt lat="47.20152" lon="-1.66883">
        <ele>53</ele>
        <time>2020-09-12T08:47:54.000Z</time>
      </trkpt>
      <trkpt lat="47.2016" lon="-1.66902">
        <ele>53</ele>
        <time>2020-09-12T08:47:56.000Z</time>
      </trkpt>
      <trkpt lat="47.20168" lon="-1.66919">
        <ele>53</ele>
        <time>2020-09-12T08:47:58.000Z</time>
      </trkpt>
      <trkpt lat="47.20177" lon="-1.66936">
        <ele>53</ele>
        <time>2020-09-12T08:48:00.000Z</time>
      </trkpt>
      <trkpt lat="47.20185" lon="-1.66953">
        <ele>53</ele>
        <time>2020-09-12T08:48:02.000Z</time>
      </trkpt>
      <trkpt lat="47.20193" lon="-1.6697">
        <ele>53</ele>
        <time>2020-09-12T08:48:04.000Z</time>
      </trkpt>
      <trkpt lat="47.20201" lon="-1.66988">
        <ele>53</ele>
        <time>2020-09-12T08:48:06.000Z</time>
      </trkpt>
      <trkpt lat="47.20209" lon="-1.67006">
        <ele>53</ele>
        <time>2020-09-12T08:48:08.000Z</time>
      </trkpt>
      <trkpt lat="47.20217" lon="-1.67024">
        <ele>53</ele>
        <time>2020-09-12T08:48:10.000Z</time>
      </trkpt>
      <trkpt lat="47.20225" lon="-1.67043">
        <ele>53</ele>
        <time>2020-09-12T08:48:12.000Z</time>
      </trkpt>
      <trkpt lat="47.20233" lon="-1.67061">
        <ele>53</ele>
        <time>2020-09-12T08:48:14.000Z</time>
      </trkpt>
      <trkpt lat="47.20241" lon="-1.67078">
        <ele>53</ele>
        <time>2020-09-12T08:48:16.000Z</time>
      </trkpt>
      <trkpt lat="47.20249" lon="-1.67097">
        <ele>53</ele>
        <time>2020-09-12T08:48:18.000Z</time>
      </trkpt>
      <trkpt lat="47.20257" lon="-1.67114">
        <ele>53</ele>
        <time>2020-09-12T08:48:20.000Z</time>
      </trkpt>
      <trkpt lat="47.20265" lon="-1.67132">
        <ele>53</ele>
        <time>2020-09-12T08:48:22.000Z</time>
      </trkpt>
      <trkpt lat="47.20273" lon="-1.6715">
        <ele>53</ele>
        <time>2020-09-12T08:48:24.000Z</time>
      </trkpt>
      <trkpt lat="47.2028" lon="-1.67168">
        <ele>53</ele>
        <time>2020-09-12T08:48:26.000Z</time>
      </trkpt>
      <trkpt lat="47.20288" lon="-1.67186">
        <ele>53</ele>
        <time>2020-09-12T08:48:28.000Z</time>
      </trkpt>
      <trkpt lat="47.20296" lon="-1.67204">
        <ele>53</ele>
        <time>2020-09-12T08:48:30.000Z</time>
      </trkpt>
      <trkpt lat="47.20304" lon="-1.67221">
        <ele>53</ele>
        <time>2020-09-12T08:48:32.000Z</time>
      </trkpt>
      <trkpt lat="47.20312" lon="-1.67238">
        <ele>54</ele>
        <time>2020-09-12T08:48:34.000Z</time>
      </trkpt>
      <trkpt lat="47.2032" lon="-1.67256">
        <ele>54</ele>
        <time>2020-09-12T08:48:36.000Z</time>
      </trkpt>
      <trkpt lat="47.20327" lon="-1.67273">
        <ele>53</ele>
        <time>2020-09-12T08:48:38.000Z</time>
      </trkpt>
      <trkpt lat="47.20335" lon="-1.67291">
        <ele>53</ele>
        <time>2020-09-12T08:48:40.000Z</time>
      </trkpt>
      <trkpt lat="47.20343" lon="-1.67308">
        <ele>53</ele>
        <time>2020-09-12T08:48:42.000Z</time>
      </trkpt>
      <trkpt lat="47.2035" lon="-1.67326">
        <ele>54</ele>
        <time>2020-09-12T08:48:44.000Z</time>
      </trkpt>
      <trkpt lat="47.20358" lon="-1.67342">
        <ele>53</ele>
        <time>2020-09-12T08:48:46.000Z</time>
      </trkpt>
      <trkpt lat="47.20366" lon="-1.6736">
        <ele>53</ele>
        <time>2020-09-12T08:48:48.000Z</time>
      </trkpt>
      <trkpt lat="47.20373" lon="-1.67377">
        <ele>54</ele>
        <time>2020-09-12T08:48:50.000Z</time>
      </trkpt>
      <trkpt lat="47.20381" lon="-1.67394">
        <ele>54</ele>
        <time>2020-09-12T08:48:52.000Z</time>
      </trkpt>
      <trkpt lat="47.20388" lon="-1.67411">
        <ele>54</ele>
        <time>2020-09-12T08:48:54.000Z</time>
      </trkpt>
      <trkpt lat="47.20396" lon="-1.67428">
        <ele>54</ele>
        <time>2020-09-12T08:48:56.000Z</time>
      </trkpt>
      <trkpt lat="47.20403" lon="-1.67444">
        <ele>53</ele>
        <time>2020-09-12T08:48:58.000Z</time>
      </trkpt>
      <trkpt lat="47.2041" lon="-1.67462">
        <ele>53</ele>
        <time>2020-09-12T08:49:00.000Z</time>
      </trkpt>
      <trkpt lat="47.20415" lon="-1.6748">
        <ele>53</ele>
        <time>2020-09-12T08:49:02.000Z</time>
      </trkpt>
      <trkpt lat="47.20421" lon="-1.67498">
        <ele>53</ele>
        <time>2020-09-12T08:49:04.000Z</time>
      </trkpt>
      <trkpt lat="47.20425" lon="-1.67517">
        <ele>53</ele>
        <time>2020-09-12T08:49:06.000Z</time>
      </trkpt>
      <trkpt lat="47.20433" lon="-1.67533">
        <ele>53</ele>
        <time>2020-09-12T08:49:08.000Z</time>
      </trkpt>
      <trkpt lat="47.20444" lon="-1.67545">
        <ele>53</ele>
        <time>2020-09-12T08:49:10.000Z</time>
      </trkpt>
      <trkpt lat="47.20451" lon="-1.67562">
        <ele>53</ele>
        <time>2020-09-12T08:49:12.000Z</time>
      </trkpt>
      <trkpt lat="47.20456" lon="-1.67581">
        <ele>53</ele>
        <time>2020-09-12T08:49:14.000Z</time>
      </trkpt>
      <trkpt lat="47.20466" lon="-1.67596">
        <ele>53</ele>
        <time>2020-09-12T08:49:16.000Z</time>
      </trkpt>
      <trkpt lat="47.20475" lon="-1.67611">
        <ele>53</ele>
        <time>2020-09-12T08:49:18.000Z</time>
      </trkpt>
      <trkpt lat="47.20482" lon="-1.67627">
        <ele>52</ele>
        <time>2020-09-12T08:49:20.000Z</time>
      </trkpt>
      <trkpt lat="47.20489" lon="-1.67644">
        <ele>52</ele>
        <time>2020-09-12T08:49:22.000Z</time>
      </trkpt>
      <trkpt lat="47.20495" lon="-1.67661">
        <ele>53</ele>
        <time>2020-09-12T08:49:24.000Z</time>
      </trkpt>
      <trkpt lat="47.20501" lon="-1.67679">
        <ele>53</ele>
        <time>2020-09-12T08:49:26.000Z</time>
      </trkpt>
      <trkpt lat="47.20508" lon="-1.67697">
        <ele>52</ele>
        <time>2020-09-12T08:49:28.000Z</time>
      </trkpt>
      <trkpt lat="47.20515" lon="-1.67715">
        <ele>52</ele>
        <time>2020-09-12T08:49:30.000Z</time>
      </trkpt>
      <trkpt lat="47.20522" lon="-1.67733">
        <ele>52</ele>
        <time>2020-09-12T08:49:32.000Z</time>
      </trkpt>
      <trkpt lat="47.20528" lon="-1.67751">
        <ele>52</ele>
        <time>2020-09-12T08:49:34.000Z</time>
      </trkpt>
      <trkpt lat="47.20534" lon="-1.67769">
        <ele>52</ele>
        <time>2020-09-12T08:49:36.000Z</time>
      </trkpt>
      <trkpt lat="47.2054" lon="-1.67787">
        <ele>52</ele>
        <time>2020-09-12T08:49:38.000Z</time>
      </trkpt>
      <trkpt lat="47.20546" lon="-1.67805">
        <ele>52</ele>
        <time>2020-09-12T08:49:40.000Z</time>
      </trkpt>
      <trkpt lat="47.20553" lon="-1.67824">
        <ele>52</ele>
        <time>2020-09-12T08:49:42.000Z</time>
      </trkpt>
      <trkpt lat="47.20559" lon="-1.67843">
        <ele>52</ele>
        <time>2020-09-12T08:49:44.000Z</time>
      </trkpt>
      <trkpt lat="47.20565" lon="-1.67862">
        <ele>52</ele>
        <time>2020-09-12T08:49:46.000Z</time>
      </trkpt>
      <trkpt lat="47.20571" lon="-1.6788">
        <ele>51</ele>
        <time>2020-09-12T08:49:48.000Z</time>
      </trkpt>
      <trkpt lat="47.20577" lon="-1.67899">
        <ele>51</ele>
        <time>2020-09-12T08:49:50.000Z</time>
      </trkpt>
      <trkpt lat="47.20582" lon="-1.67919">
        <ele>51</ele>
        <time>2020-09-12T08:49:52.000Z</time>
      </trkpt>
      <trkpt lat="47.20587" lon="-1.67938">
        <ele>51</ele>
        <time>2020-09-12T08:49:54.000Z</time>
      </trkpt>
      <trkpt lat="47.20593" lon="-1.67958">
        <ele>51</ele>
        <time>2020-09-12T08:49:56.000Z</time>
      </trkpt>
      <trkpt lat="47.20599" lon="-1.67977">
        <ele>51</ele>
        <time>2020-09-12T08:49:58.000Z</time>
      </trkpt>
      <trkpt lat="47.20604" lon="-1.67996">
        <ele>52</ele>
        <time>2020-09-12T08:50:00.000Z</time>
      </trkpt>
      <trkpt lat="47.2061" lon="-1.68015">
        <ele>52</ele>
        <time>2020-09-12T08:50:02.000Z</time>
      </trkpt>
      <trkpt lat="47.20616" lon="-1.68034">
        <ele>51</ele>
        <time>2020-09-12T08:50:04.000Z</time>
      </trkpt>
      <trkpt lat="47.20622" lon="-1.68053">
        <ele>52</ele>
        <time>2020-09-12T08:50:06.000Z</time>
      </trkpt>
      <trkpt lat="47.20628" lon="-1.68073">
        <ele>51</ele>
        <time>2020-09-12T08:50:08.000Z</time>
      </trkpt>
      <trkpt lat="47.20634" lon="-1.68093">
        <ele>51</ele>
        <time>2020-09-12T08:50:10.000Z</time>
      </trkpt>
      <trkpt lat="47.2064" lon="-1.68113">
        <ele>51</ele>
        <time>2020-09-12T08:50:12.000Z</time>
      </trkpt>
      <trkpt lat="47.20645" lon="-1.68132">
        <ele>51</ele>
        <time>2020-09-12T08:50:14.000Z</time>
      </trkpt>
      <trkpt lat="47.20651" lon="-1.68151">
        <ele>51</ele>
        <time>2020-09-12T08:50:16.000Z</time>
      </trkpt>
      <trkpt lat="47.20656" lon="-1.6817">
        <ele>51</ele>
        <time>2020-09-12T08:50:18.000Z</time>
      </trkpt>
      <trkpt lat="47.20662" lon="-1.6819">
        <ele>51</ele>
        <time>2020-09-12T08:50:20.000Z</time>
      </trkpt>
      <trkpt lat="47.20668" lon="-1.68209">
        <ele>52</ele>
        <time>2020-09-12T08:50:22.000Z</time>
      </trkpt>
      <trkpt lat="47.20673" lon="-1.68228">
        <ele>52</ele>
        <time>2020-09-12T08:50:24.000Z</time>
      </trkpt>
      <trkpt lat="47.20679" lon="-1.68247">
        <ele>52</ele>
        <time>2020-09-12T08:50:26.000Z</time>
      </trkpt>
      <trkpt lat="47.20685" lon="-1.68266">
        <ele>52</ele>
        <time>2020-09-12T08:50:28.000Z</time>
      </trkpt>
      <trkpt lat="47.2069" lon="-1.68285">
        <ele>52</ele>
        <time>2020-09-12T08:50:30.000Z</time>
      </trkpt>
      <trkpt lat="47.20696" lon="-1.68303">
        <ele>52</ele>
        <time>2020-09-12T08:50:32.000Z</time>
      </trkpt>
      <trkpt lat="47.20701" lon="-1.68321">
        <ele>52</ele>
        <time>2020-09-12T08:50:34.000Z</time>
      </trkpt>
      <trkpt lat="47.20707" lon="-1.6834">
        <ele>52</ele>
        <time>2020-09-12T08:50:36.000Z</time>
      </trkpt>
      <trkpt lat="47.20714" lon="-1.68358">
        <ele>52</ele>
        <time>2020-09-12T08:50:38.000Z</time>
      </trkpt>
      <trkpt lat="47.20724" lon="-1.68371">
        <ele>52</ele>
        <time>2020-09-12T08:50:40.000Z</time>
      </trkpt>
      <trkpt lat="47.20737" lon="-1.6838">
        <ele>52</ele>
        <time>2020-09-12T08:50:42.000Z</time>
      </trkpt>
      <trkpt lat="47.20751" lon="-1.68385">
        <ele>52</ele>
        <time>2020-09-12T08:50:44.000Z</time>
      </trkpt>
      <trkpt lat="47.20765" lon="-1.68387">
        <ele>52</ele>
        <time>2020-09-12T08:50:46.000Z</time>
      </trkpt>
      <trkpt lat="47.20779" lon="-1.68389">
        <ele>52</ele>
        <time>2020-09-12T08:50:48.000Z</time>
      </trkpt>
      <trkpt lat="47.20792" lon="-1.6839">
        <ele>52</ele>
        <time>2020-09-12T08:50:50.000Z</time>
      </trkpt>
      <trkpt lat="47.20806" lon="-1.68392">
        <ele>52</ele>
        <time>2020-09-12T08:50:52.000Z</time>
      </trkpt>
      <trkpt lat="47.20819" lon="-1.68393">
        <ele>52</ele>
        <time>2020-09-12T08:50:54.000Z</time>
      </trkpt>
      <trkpt lat="47.20833" lon="-1.68393">
        <ele>52</ele>
        <time>2020-09-12T08:50:56.000Z</time>
      </trkpt>
      <trkpt lat="47.20847" lon="-1.68394">
        <ele>52</ele>
        <time>2020-09-12T08:50:58.000Z</time>
      </trkpt>
      <trkpt lat="47.20861" lon="-1.68395">
        <ele>52</ele>
        <time>2020-09-12T08:51:00.000Z</time>
      </trkpt>
      <trkpt lat="47.20875" lon="-1.68395">
        <ele>52</ele>
        <time>2020-09-12T08:51:02.000Z</time>
      </trkpt>
      <trkpt lat="47.20888" lon="-1.68396">
        <ele>52</ele>
        <time>2020-09-12T08:51:04.000Z</time>
      </trkpt>
      <trkpt lat="47.20902" lon="-1.68396">
        <ele>52</ele>
        <time>2020-09-12T08:51:06.000Z</time>
      </trkpt>
      <trkpt lat="47.20916" lon="-1.68396">
        <ele>52</ele>
        <time>2020-09-12T08:51:08.000Z</time>
      </trkpt>
      <trkpt lat="47.2093" lon="-1.68397">
        <ele>52</ele>
        <time>2020-09-12T08:51:10.000Z</time>
      </trkpt>
      <trkpt lat="47.20943" lon="-1.68397">
        <ele>52</ele>
        <time>2020-09-12T08:51:12.000Z</time>
      </trkpt>
      <trkpt lat="47.20957" lon="-1.68398">
        <ele>52</ele>
        <time>2020-09-12T08:51:14.000Z</time>
      </trkpt>
      <trkpt lat="47.2097" lon="-1.68398">
        <ele>52</ele>
        <time>2020-09-12T08:51:16.000Z</time>
      </trkpt>
      <trkpt lat="47.20984" lon="-1.68399">
        <ele>52</ele>
        <time>2020-09-12T08:51:18.000Z</time>
      </trkpt>
      <trkpt lat="47.20998" lon="-1.68399">
        <ele>52</ele>
        <time>2020-09-12T08:51:20.000Z</time>
      </trkpt>
      <trkpt lat="47.21012" lon="-1.684">
        <ele>52</ele>
        <time>2020-09-12T08:51:22.000Z</time>
      </trkpt>
      <trkpt lat="47.21026" lon="-1.68401">
        <ele>52</ele>
        <time>2020-09-12T08:51:24.000Z</time>
      </trkpt>
      <trkpt lat="47.2104" lon="-1.68402">
        <ele>52</ele>
        <time>2020-09-12T08:51:26.000Z</time>
      </trkpt>
      <trkpt lat="47.21053" lon="-1.68403">
        <ele>51</ele>
        <time>2020-09-12T08:51:28.000Z</time>
      </trkpt>
      <trkpt lat="47.21067" lon="-1.68403">
        <ele>51</ele>
        <time>2020-09-12T08:51:30.000Z</time>
      </trkpt>
      <trkpt lat="47.21081" lon="-1.68404">
        <ele>51</ele>
        <time>2020-09-12T08:51:32.000Z</time>
      </trkpt>
      <trkpt lat="47.21094" lon="-1.68404">
        <ele>51</ele>
        <time>2020-09-12T08:51:34.000Z</time>
      </trkpt>
      <trkpt lat="47.21108" lon="-1.68405">
        <ele>51</ele>
        <time>2020-09-12T08:51:36.000Z</time>
      </trkpt>
      <trkpt lat="47.21122" lon="-1.68405">
        <ele>51</ele>
        <time>2020-09-12T08:51:38.000Z</time>
      </trkpt>
      <trkpt lat="47.21136" lon="-1.68406">
        <ele>52</ele>
        <time>2020-09-12T08:51:40.000Z</time>
      </trkpt>
      <trkpt lat="47.21149" lon="-1.68406">
        <ele>52</ele>
        <time>2020-09-12T08:51:42.000Z</time>
      </trkpt>
      <trkpt lat="47.21162" lon="-1.68408">
        <ele>53</ele>
        <time>2020-09-12T08:51:44.000Z</time>
      </trkpt>
      <trkpt lat="47.21173" lon="-1.68407">
        <ele>54</ele>
        <time>2020-09-12T08:51:46.000Z</time>
      </trkpt>
      <trkpt lat="47.21183" lon="-1.68402">
        <ele>54</ele>
        <time>2020-09-12T08:51:48.000Z</time>
      </trkpt>
      <trkpt lat="47.21191" lon="-1.68393">
        <ele>55</ele>
        <time>2020-09-12T08:51:50.000Z</time>
      </trkpt>
      <trkpt lat="47.21193" lon="-1.68378">
        <ele>55</ele>
        <time>2020-09-12T08:51:52.000Z</time>
      </trkpt>
      <trkpt lat="47.21191" lon="-1.68363">
        <ele>55</ele>
        <time>2020-09-12T08:51:54.000Z</time>
      </trkpt>
      <trkpt lat="47.21191" lon="-1.68349">
        <ele>55</ele>
        <time>2020-09-12T08:51:56.000Z</time>
      </trkpt>
      <trkpt lat="47.2119" lon="-1.68334">
        <ele>56</ele>
        <time>2020-09-12T08:51:58.000Z</time>
      </trkpt>
      <trkpt lat="47.21189" lon="-1.6832">
        <ele>57</ele>
        <time>2020-09-12T08:52:00.000Z</time>
      </trkpt>
      <trkpt lat="47.2119" lon="-1.68305">
        <ele>58</ele>
        <time>2020-09-12T08:52:02.000Z</time>
      </trkpt>
      <trkpt lat="47.21194" lon="-1.68293">
        <ele>59</ele>
        <time>2020-09-12T08:52:04.000Z</time>
      </trkpt>
      <trkpt lat="47.21202" lon="-1.68284">
        <ele>59</ele>
        <time>2020-09-12T08:52:06.000Z</time>
      </trkpt>
      <trkpt lat="47.21211" lon="-1.68278">
        <ele>59</ele>
        <time>2020-09-12T08:52:08.000Z</time>
      </trkpt>
      <trkpt lat="47.2122" lon="-1.68277">
        <ele>60</ele>
        <time>2020-09-12T08:52:10.000Z</time>
      </trkpt>
      <trkpt lat="47.2123" lon="-1.68275">
        <ele>60</ele>
        <time>2020-09-12T08:52:12.000Z</time>
      </trkpt>
      <trkpt lat="47.21239" lon="-1.68272">
        <ele>60</ele>
        <time>2020-09-12T08:52:14.000Z</time>
      </trkpt>
      <trkpt lat="47.21249" lon="-1.68271">
        <ele>61</ele>
        <time>2020-09-12T08:52:16.000Z</time>
      </trkpt>
      <trkpt lat="47.21258" lon="-1.68268">
        <ele>61</ele>
        <time>2020-09-12T08:52:18.000Z</time>
      </trkpt>
      <trkpt lat="47.21266" lon="-1.68264">
        <ele>63</ele>
        <time>2020-09-12T08:52:20.000Z</time>
      </trkpt>
      <trkpt lat="47.21275" lon="-1.68261">
        <ele>64</ele>
        <time>2020-09-12T08:52:22.000Z</time>
      </trkpt>
      <trkpt lat="47.21288" lon="-1.68255">
        <ele>65</ele>
        <time>2020-09-12T08:52:25.000Z</time>
      </trkpt>
      <trkpt lat="47.21301" lon="-1.6825">
        <ele>66</ele>
        <time>2020-09-12T08:52:28.000Z</time>
      </trkpt>
      <trkpt lat="47.21313" lon="-1.68242">
        <ele>67</ele>
        <time>2020-09-12T08:52:31.000Z</time>
      </trkpt>
      <trkpt lat="47.21321" lon="-1.68238">
        <ele>67</ele>
        <time>2020-09-12T08:52:33.000Z</time>
      </trkpt>
      <trkpt lat="47.21331" lon="-1.68235">
        <ele>68</ele>
        <time>2020-09-12T08:52:35.000Z</time>
      </trkpt>
      <trkpt lat="47.2134" lon="-1.68233">
        <ele>69</ele>
        <time>2020-09-12T08:52:37.000Z</time>
      </trkpt>
      <trkpt lat="47.2135" lon="-1.68232">
        <ele>70</ele>
        <time>2020-09-12T08:52:39.000Z</time>
      </trkpt>
      <trkpt lat="47.2136" lon="-1.68229">
        <ele>70</ele>
        <time>2020-09-12T08:52:41.000Z</time>
      </trkpt>
      <trkpt lat="47.2137" lon="-1.68226">
        <ele>71</ele>
        <time>2020-09-12T08:52:43.000Z</time>
      </trkpt>
      <trkpt lat="47.2138" lon="-1.68223">
        <ele>71</ele>
        <time>2020-09-12T08:52:45.000Z</time>
      </trkpt>
      <trkpt lat="47.21389" lon="-1.68221">
        <ele>71</ele>
        <time>2020-09-12T08:52:47.000Z</time>
      </trkpt>
      <trkpt lat="47.21399" lon="-1.6822">
        <ele>72</ele>
        <time>2020-09-12T08:52:49.000Z</time>
      </trkpt>
      <trkpt lat="47.21409" lon="-1.68219">
        <ele>72</ele>
        <time>2020-09-12T08:52:51.000Z</time>
      </trkpt>
      <trkpt lat="47.21419" lon="-1.68218">
        <ele>72</ele>
        <time>2020-09-12T08:52:53.000Z</time>
      </trkpt>
      <trkpt lat="47.21429" lon="-1.68217">
        <ele>72</ele>
        <time>2020-09-12T08:52:55.000Z</time>
      </trkpt>
      <trkpt lat="47.21438" lon="-1.68216">
        <ele>71</ele>
        <time>2020-09-12T08:52:57.000Z</time>
      </trkpt>
      <trkpt lat="47.21448" lon="-1.68215">
        <ele>71</ele>
        <time>2020-09-12T08:52:59.000Z</time>
      </trkpt>
      <trkpt lat="47.21459" lon="-1.68214">
        <ele>73</ele>
        <time>2020-09-12T08:53:01.000Z</time>
      </trkpt>
      <trkpt lat="47.21469" lon="-1.68212">
        <ele>73</ele>
        <time>2020-09-12T08:53:03.000Z</time>
      </trkpt>
      <trkpt lat="47.21479" lon="-1.6821">
        <ele>73</ele>
        <time>2020-09-12T08:53:05.000Z</time>
      </trkpt>
      <trkpt lat="47.21488" lon="-1.68205">
        <ele>73</ele>
        <time>2020-09-12T08:53:07.000Z</time>
      </trkpt>
      <trkpt lat="47.21497" lon="-1.68201">
        <ele>73</ele>
        <time>2020-09-12T08:53:09.000Z</time>
      </trkpt>
      <trkpt lat="47.21505" lon="-1.68195">
        <ele>73</ele>
        <time>2020-09-12T08:53:11.000Z</time>
      </trkpt>
      <trkpt lat="47.21514" lon="-1.6819">
        <ele>74</ele>
        <time>2020-09-12T08:53:13.000Z</time>
      </trkpt>
      <trkpt lat="47.21525" lon="-1.68182">
        <ele>75</ele>
        <time>2020-09-12T08:53:16.000Z</time>
      </trkpt>
      <trkpt lat="47.21536" lon="-1.68173">
        <ele>75</ele>
        <time>2020-09-12T08:53:19.000Z</time>
      </trkpt>
      <trkpt lat="47.2155" lon="-1.68174">
        <ele>76</ele>
        <time>2020-09-12T08:53:22.000Z</time>
      </trkpt>
      <trkpt lat="47.2156" lon="-1.68176">
        <ele>77</ele>
        <time>2020-09-12T08:53:24.000Z</time>
      </trkpt>
      <trkpt lat="47.21572" lon="-1.68178">
        <ele>77</ele>
        <time>2020-09-12T08:53:26.000Z</time>
      </trkpt>
      <trkpt lat="47.21584" lon="-1.68181">
        <ele>77</ele>
        <time>2020-09-12T08:53:28.000Z</time>
      </trkpt>
      <trkpt lat="47.21596" lon="-1.68183">
        <ele>78</ele>
        <time>2020-09-12T08:53:30.000Z</time>
      </trkpt>
      <trkpt lat="47.21607" lon="-1.68186">
        <ele>78</ele>
        <time>2020-09-12T08:53:32.000Z</time>
      </trkpt>
      <trkpt lat="47.21619" lon="-1.68189">
        <ele>78</ele>
        <time>2020-09-12T08:53:34.000Z</time>
      </trkpt>
      <trkpt lat="47.21631" lon="-1.68191">
        <ele>78</ele>
        <time>2020-09-12T08:53:36.000Z</time>
      </trkpt>
      <trkpt lat="47.21643" lon="-1.68193">
        <ele>78</ele>
        <time>2020-09-12T08:53:38.000Z</time>
      </trkpt>
      <trkpt lat="47.21655" lon="-1.68194">
        <ele>79</ele>
        <time>2020-09-12T08:53:40.000Z</time>
      </trkpt>
      <trkpt lat="47.21667" lon="-1.68196">
        <ele>79</ele>
        <time>2020-09-12T08:53:42.000Z</time>
      </trkpt>
      <trkpt lat="47.21679" lon="-1.68199">
        <ele>79</ele>
        <time>2020-09-12T08:53:44.000Z</time>
      </trkpt>
      <trkpt lat="47.21692" lon="-1.68202">
        <ele>79</ele>
        <time>2020-09-12T08:53:46.000Z</time>
      </trkpt>
      <trkpt lat="47.21704" lon="-1.68205">
        <ele>80</ele>
        <time>2020-09-12T08:53:48.000Z</time>
      </trkpt>
      <trkpt lat="47.21718" lon="-1.68208">
        <ele>79</ele>
        <time>2020-09-12T08:53:50.000Z</time>
      </trkpt>
      <trkpt lat="47.21731" lon="-1.68211">
        <ele>79</ele>
        <time>2020-09-12T08:53:52.000Z</time>
      </trkpt>
      <trkpt lat="47.21744" lon="-1.68214">
        <ele>79</ele>
        <time>2020-09-12T08:53:54.000Z</time>
      </trkpt>
      <trkpt lat="47.21757" lon="-1.68218">
        <ele>78</ele>
        <time>2020-09-12T08:53:56.000Z</time>
      </trkpt>
      <trkpt lat="47.21771" lon="-1.6822">
        <ele>78</ele>
        <time>2020-09-12T08:53:58.000Z</time>
      </trkpt>
      <trkpt lat="47.21783" lon="-1.68223">
        <ele>79</ele>
        <time>2020-09-12T08:54:00.000Z</time>
      </trkpt>
      <trkpt lat="47.21796" lon="-1.68223">
        <ele>78</ele>
        <time>2020-09-12T08:54:02.000Z</time>
      </trkpt>
      <trkpt lat="47.2181" lon="-1.68223">
        <ele>77</ele>
        <time>2020-09-12T08:54:04.000Z</time>
      </trkpt>
      <trkpt lat="47.21824" lon="-1.68225">
        <ele>77</ele>
        <time>2020-09-12T08:54:06.000Z</time>
      </trkpt>
      <trkpt lat="47.21837" lon="-1.68228">
        <ele>76</ele>
        <time>2020-09-12T08:54:08.000Z</time>
      </trkpt>
      <trkpt lat="47.2185" lon="-1.6823">
        <ele>76</ele>
        <time>2020-09-12T08:54:10.000Z</time>
      </trkpt>
      <trkpt lat="47.21863" lon="-1.68229">
        <ele>76</ele>
        <time>2020-09-12T08:54:12.000Z</time>
      </trkpt>
      <trkpt lat="47.21877" lon="-1.68226">
        <ele>76</ele>
        <time>2020-09-12T08:54:14.000Z</time>
      </trkpt>
      <trkpt lat="47.2189" lon="-1.6822">
        <ele>75</ele>
        <time>2020-09-12T08:54:16.000Z</time>
      </trkpt>
      <trkpt lat="47.21902" lon="-1.68212">
        <ele>75</ele>
        <time>2020-09-12T08:54:18.000Z</time>
      </trkpt>
      <trkpt lat="47.21914" lon="-1.68205">
        <ele>76</ele>
        <time>2020-09-12T08:54:20.000Z</time>
      </trkpt>
      <trkpt lat="47.21926" lon="-1.68197">
        <ele>76</ele>
        <time>2020-09-12T08:54:22.000Z</time>
      </trkpt>
      <trkpt lat="47.21937" lon="-1.68191">
        <ele>77</ele>
        <time>2020-09-12T08:54:24.000Z</time>
      </trkpt>
      <trkpt lat="47.21949" lon="-1.68183">
        <ele>77</ele>
        <time>2020-09-12T08:54:26.000Z</time>
      </trkpt>
      <trkpt lat="47.2196" lon="-1.68176">
        <ele>77</ele>
        <time>2020-09-12T08:54:28.000Z</time>
      </trkpt>
      <trkpt lat="47.21971" lon="-1.68168">
        <ele>78</ele>
        <time>2020-09-12T08:54:30.000Z</time>
      </trkpt>
      <trkpt lat="47.21983" lon="-1.68161">
        <ele>78</ele>
        <time>2020-09-12T08:54:32.000Z</time>
      </trkpt>
      <trkpt lat="47.21994" lon="-1.68153">
        <ele>78</ele>
        <time>2020-09-12T08:54:34.000Z</time>
      </trkpt>
      <trkpt lat="47.22005" lon="-1.68145">
        <ele>78</ele>
        <time>2020-09-12T08:54:36.000Z</time>
      </trkpt>
      <trkpt lat="47.22015" lon="-1.68136">
        <ele>78</ele>
        <time>2020-09-12T08:54:38.000Z</time>
      </trkpt>
      <trkpt lat="47.22025" lon="-1.68126">
        <ele>78</ele>
        <time>2020-09-12T08:54:40.000Z</time>
      </trkpt>
      <trkpt lat="47.22035" lon="-1.68116">
        <ele>78</ele>
        <time>2020-09-12T08:54:42.000Z</time>
      </trkpt>
      <trkpt lat="47.22044" lon="-1.68104">
        <ele>79</ele>
        <time>2020-09-12T08:54:44.000Z</time>
      </trkpt>
      <trkpt lat="47.22053" lon="-1.68093">
        <ele>79</ele>
        <time>2020-09-12T08:54:46.000Z</time>
      </trkpt>
      <trkpt lat="47.22062" lon="-1.68081">
        <ele>79</ele>
        <time>2020-09-12T08:54:48.000Z</time>
      </trkpt>
      <trkpt lat="47.22072" lon="-1.6807">
        <ele>79</ele>
        <time>2020-09-12T08:54:50.000Z</time>
      </trkpt>
      <trkpt lat="47.22081" lon="-1.68058">
        <ele>79</ele>
        <time>2020-09-12T08:54:52.000Z</time>
      </trkpt>
      <trkpt lat="47.2209" lon="-1.68046">
        <ele>79</ele>
        <time>2020-09-12T08:54:54.000Z</time>
      </trkpt>
      <trkpt lat="47.22099" lon="-1.68033">
        <ele>79</ele>
        <time>2020-09-12T08:54:56.000Z</time>
      </trkpt>
      <trkpt lat="47.22108" lon="-1.68021">
        <ele>79</ele>
        <time>2020-09-12T08:54:58.000Z</time>
      </trkpt>
      <trkpt lat="47.22117" lon="-1.68009">
        <ele>80</ele>
        <time>2020-09-12T08:55:00.000Z</time>
      </trkpt>
      <trkpt lat="47.22127" lon="-1.67998">
        <ele>80</ele>
        <time>2020-09-12T08:55:02.000Z</time>
      </trkpt>
      <trkpt lat="47.22136" lon="-1.67989">
        <ele>80</ele>
        <time>2020-09-12T08:55:04.000Z</time>
      </trkpt>
      <trkpt lat="47.22146" lon="-1.67982">
        <ele>80</ele>
        <time>2020-09-12T08:55:06.000Z</time>
      </trkpt>
      <trkpt lat="47.22156" lon="-1.67974">
        <ele>79</ele>
        <time>2020-09-12T08:55:08.000Z</time>
      </trkpt>
      <trkpt lat="47.22167" lon="-1.67967">
        <ele>79</ele>
        <time>2020-09-12T08:55:10.000Z</time>
      </trkpt>
      <trkpt lat="47.22178" lon="-1.6796">
        <ele>79</ele>
        <time>2020-09-12T08:55:12.000Z</time>
      </trkpt>
      <trkpt lat="47.22189" lon="-1.67952">
        <ele>78</ele>
        <time>2020-09-12T08:55:14.000Z</time>
      </trkpt>
      <trkpt lat="47.222" lon="-1.67944">
        <ele>78</ele>
        <time>2020-09-12T08:55:16.000Z</time>
      </trkpt>
      <trkpt lat="47.22212" lon="-1.67937">
        <ele>78</ele>
        <time>2020-09-12T08:55:18.000Z</time>
      </trkpt>
      <trkpt lat="47.22224" lon="-1.67929">
        <ele>77</ele>
        <time>2020-09-12T08:55:20.000Z</time>
      </trkpt>
      <trkpt lat="47.22236" lon="-1.67921">
        <ele>77</ele>
        <time>2020-09-12T08:55:22.000Z</time>
      </trkpt>
      <trkpt lat="47.22247" lon="-1.67912">
        <ele>76</ele>
        <time>2020-09-12T08:55:24.000Z</time>
      </trkpt>
      <trkpt lat="47.22259" lon="-1.67904">
        <ele>76</ele>
        <time>2020-09-12T08:55:26.000Z</time>
      </trkpt>
      <trkpt lat="47.22271" lon="-1.67896">
        <ele>76</ele>
        <time>2020-09-12T08:55:28.000Z</time>
      </trkpt>
      <trkpt lat="47.22283" lon="-1.67888">
        <ele>76</ele>
        <time>2020-09-12T08:55:30.000Z</time>
      </trkpt>
      <trkpt lat="47.22296" lon="-1.67879">
        <ele>76</ele>
        <time>2020-09-12T08:55:32.000Z</time>
      </trkpt>
      <trkpt lat="47.22308" lon="-1.67871">
        <ele>75</ele>
        <time>2020-09-12T08:55:34.000Z</time>
      </trkpt>
      <trkpt lat="47.2232" lon="-1.67863">
        <ele>75</ele>
        <time>2020-09-12T08:55:36.000Z</time>
      </trkpt>
      <trkpt lat="47.22332" lon="-1.67856">
        <ele>75</ele>
        <time>2020-09-12T08:55:38.000Z</time>
      </trkpt>
      <trkpt lat="47.22344" lon="-1.67849">
        <ele>75</ele>
        <time>2020-09-12T08:55:40.000Z</time>
      </trkpt>
      <trkpt lat="47.22356" lon="-1.67843">
        <ele>76</ele>
        <time>2020-09-12T08:55:42.000Z</time>
      </trkpt>
      <trkpt lat="47.22367" lon="-1.67838">
        <ele>76</ele>
        <time>2020-09-12T08:55:44.000Z</time>
      </trkpt>
      <trkpt lat="47.22379" lon="-1.67834">
        <ele>76</ele>
        <time>2020-09-12T08:55:46.000Z</time>
      </trkpt>
      <trkpt lat="47.2239" lon="-1.6783">
        <ele>77</ele>
        <time>2020-09-12T08:55:48.000Z</time>
      </trkpt>
      <trkpt lat="47.22402" lon="-1.67827">
        <ele>78</ele>
        <time>2020-09-12T08:55:50.000Z</time>
      </trkpt>
      <trkpt lat="47.22413" lon="-1.67823">
        <ele>78</ele>
        <time>2020-09-12T08:55:52.000Z</time>
      </trkpt>
      <trkpt lat="47.22425" lon="-1.67822">
        <ele>79</ele>
        <time>2020-09-12T08:55:54.000Z</time>
      </trkpt>
      <trkpt lat="47.22436" lon="-1.67822">
        <ele>80</ele>
        <time>2020-09-12T08:55:56.000Z</time>
      </trkpt>
      <trkpt lat="47.22446" lon="-1.67821">
        <ele>81</ele>
        <time>2020-09-12T08:55:58.000Z</time>
      </trkpt>
      <trkpt lat="47.22457" lon="-1.67821">
        <ele>81</ele>
        <time>2020-09-12T08:56:00.000Z</time>
      </trkpt>
      <trkpt lat="47.22467" lon="-1.67822">
        <ele>81</ele>
        <time>2020-09-12T08:56:02.000Z</time>
      </trkpt>
      <trkpt lat="47.22478" lon="-1.67823">
        <ele>81</ele>
        <time>2020-09-12T08:56:04.000Z</time>
      </trkpt>
      <trkpt lat="47.22489" lon="-1.67825">
        <ele>81</ele>
        <time>2020-09-12T08:56:06.000Z</time>
      </trkpt>
      <trkpt lat="47.22499" lon="-1.67826">
        <ele>81</ele>
        <time>2020-09-12T08:56:08.000Z</time>
      </trkpt>
      <trkpt lat="47.22508" lon="-1.67828">
        <ele>81</ele>
        <time>2020-09-12T08:56:10.000Z</time>
      </trkpt>
      <trkpt lat="47.22518" lon="-1.67829">
        <ele>81</ele>
        <time>2020-09-12T08:56:12.000Z</time>
      </trkpt>
      <trkpt lat="47.22528" lon="-1.67831">
        <ele>82</ele>
        <time>2020-09-12T08:56:14.000Z</time>
      </trkpt>
      <trkpt lat="47.22539" lon="-1.67832">
        <ele>83</ele>
        <time>2020-09-12T08:56:16.000Z</time>
      </trkpt>
      <trkpt lat="47.22549" lon="-1.67834">
        <ele>83</ele>
        <time>2020-09-12T08:56:18.000Z</time>
      </trkpt>
      <trkpt lat="47.2256" lon="-1.67835">
        <ele>84</ele>
        <time>2020-09-12T08:56:20.000Z</time>
      </trkpt>
      <trkpt lat="47.2257" lon="-1.67836">
        <ele>84</ele>
        <time>2020-09-12T08:56:22.000Z</time>
      </trkpt>
      <trkpt lat="47.22579" lon="-1.67829">
        <ele>84</ele>
        <time>2020-09-12T08:56:24.000Z</time>
      </trkpt>
      <trkpt lat="47.22588" lon="-1.67824">
        <ele>83</ele>
        <time>2020-09-12T08:56:26.000Z</time>
      </trkpt>
      <trkpt lat="47.22597" lon="-1.67828">
        <ele>84</ele>
        <time>2020-09-12T08:56:28.000Z</time>
      </trkpt>
      <trkpt lat="47.22607" lon="-1.67833">
        <ele>83</ele>
        <time>2020-09-12T08:56:30.000Z</time>
      </trkpt>
      <trkpt lat="47.22617" lon="-1.67836">
        <ele>84</ele>
        <time>2020-09-12T08:56:32.000Z</time>
      </trkpt>
      <trkpt lat="47.22627" lon="-1.67833">
        <ele>85</ele>
        <time>2020-09-12T08:56:34.000Z</time>
      </trkpt>
      <trkpt lat="47.22637" lon="-1.67831">
        <ele>85</ele>
        <time>2020-09-12T08:56:36.000Z</time>
      </trkpt>
      <trkpt lat="47.22646" lon="-1.6783">
        <ele>85</ele>
        <time>2020-09-12T08:56:38.000Z</time>
      </trkpt>
      <trkpt lat="47.22656" lon="-1.67828">
        <ele>86</ele>
        <time>2020-09-12T08:56:40.000Z</time>
      </trkpt>
      <trkpt lat="47.22666" lon="-1.67826">
        <ele>86</ele>
        <time>2020-09-12T08:56:42.000Z</time>
      </trkpt>
      <trkpt lat="47.22676" lon="-1.67824">
        <ele>87</ele>
        <time>2020-09-12T08:56:44.000Z</time>
      </trkpt>
      <trkpt lat="47.22686" lon="-1.67822">
        <ele>87</ele>
        <time>2020-09-12T08:56:46.000Z</time>
      </trkpt>
      <trkpt lat="47.22696" lon="-1.67819">
        <ele>87</ele>
        <time>2020-09-12T08:56:48.000Z</time>
      </trkpt>
      <trkpt lat="47.22706" lon="-1.67817">
        <ele>86</ele>
        <time>2020-09-12T08:56:50.000Z</time>
      </trkpt>
      <trkpt lat="47.22715" lon="-1.67814">
        <ele>87</ele>
        <time>2020-09-12T08:56:52.000Z</time>
      </trkpt>
      <trkpt lat="47.22725" lon="-1.67812">
        <ele>87</ele>
        <time>2020-09-12T08:56:54.000Z</time>
      </trkpt>
      <trkpt lat="47.22734" lon="-1.6781">
        <ele>88</ele>
        <time>2020-09-12T08:56:56.000Z</time>
      </trkpt>
      <trkpt lat="47.22744" lon="-1.67808">
        <ele>88</ele>
        <time>2020-09-12T08:56:58.000Z</time>
      </trkpt>
      <trkpt lat="47.22753" lon="-1.67805">
        <ele>88</ele>
        <time>2020-09-12T08:57:00.000Z</time>
      </trkpt>
      <trkpt lat="47.22763" lon="-1.67802">
        <ele>89</ele>
        <time>2020-09-12T08:57:02.000Z</time>
      </trkpt>
      <trkpt lat="47.22772" lon="-1.67799">
        <ele>90</ele>
        <time>2020-09-12T08:57:04.000Z</time>
      </trkpt>
      <trkpt lat="47.22782" lon="-1.67795">
        <ele>90</ele>
        <time>2020-09-12T08:57:06.000Z</time>
      </trkpt>
      <trkpt lat="47.22791" lon="-1.67791">
        <ele>91</ele>
        <time>2020-09-12T08:57:08.000Z</time>
      </trkpt>
      <trkpt lat="47.22801" lon="-1.67787">
        <ele>92</ele>
        <time>2020-09-12T08:57:10.000Z</time>
      </trkpt>
      <trkpt lat="47.22811" lon="-1.67783">
        <ele>93</ele>
        <time>2020-09-12T08:57:12.000Z</time>
      </trkpt>
      <trkpt lat="47.22821" lon="-1.67778">
        <ele>94</ele>
        <time>2020-09-12T08:57:14.000Z</time>
      </trkpt>
      <trkpt lat="47.22831" lon="-1.67773">
        <ele>94</ele>
        <time>2020-09-12T08:57:16.000Z</time>
      </trkpt>
      <trkpt lat="47.2284" lon="-1.67767">
        <ele>94</ele>
        <time>2020-09-12T08:57:18.000Z</time>
      </trkpt>
      <trkpt lat="47.2285" lon="-1.67762">
        <ele>94</ele>
        <time>2020-09-12T08:57:20.000Z</time>
      </trkpt>
      <trkpt lat="47.22859" lon="-1.67758">
        <ele>95</ele>
        <time>2020-09-12T08:57:22.000Z</time>
      </trkpt>
      <trkpt lat="47.22868" lon="-1.67752">
        <ele>95</ele>
        <time>2020-09-12T08:57:24.000Z</time>
      </trkpt>
      <trkpt lat="47.22878" lon="-1.67746">
        <ele>95</ele>
        <time>2020-09-12T08:57:26.000Z</time>
      </trkpt>
      <trkpt lat="47.22889" lon="-1.67741">
        <ele>96</ele>
        <time>2020-09-12T08:57:28.000Z</time>
      </trkpt>
      <trkpt lat="47.22898" lon="-1.67734">
        <ele>95</ele>
        <time>2020-09-12T08:57:30.000Z</time>
      </trkpt>
      <trkpt lat="47.22909" lon="-1.67728">
        <ele>95</ele>
        <time>2020-09-12T08:57:32.000Z</time>
      </trkpt>
      <trkpt lat="47.22919" lon="-1.67721">
        <ele>96</ele>
        <time>2020-09-12T08:57:34.000Z</time>
      </trkpt>
      <trkpt lat="47.22929" lon="-1.67715">
        <ele>96</ele>
        <time>2020-09-12T08:57:36.000Z</time>
      </trkpt>
      <trkpt lat="47.22939" lon="-1.67708">
        <ele>96</ele>
        <time>2020-09-12T08:57:38.000Z</time>
      </trkpt>
      <trkpt lat="47.22949" lon="-1.67702">
        <ele>96</ele>
        <time>2020-09-12T08:57:40.000Z</time>
      </trkpt>
      <trkpt lat="47.22958" lon="-1.67694">
        <ele>96</ele>
        <time>2020-09-12T08:57:42.000Z</time>
      </trkpt>
      <trkpt lat="47.22967" lon="-1.67687">
        <ele>95</ele>
        <time>2020-09-12T08:57:44.000Z</time>
      </trkpt>
      <trkpt lat="47.22978" lon="-1.6768">
        <ele>95</ele>
        <time>2020-09-12T08:57:46.000Z</time>
      </trkpt>
      <trkpt lat="47.22988" lon="-1.67673">
        <ele>95</ele>
        <time>2020-09-12T08:57:48.000Z</time>
      </trkpt>
      <trkpt lat="47.22998" lon="-1.67666">
        <ele>95</ele>
        <time>2020-09-12T08:57:50.000Z</time>
      </trkpt>
      <trkpt lat="47.23008" lon="-1.67659">
        <ele>95</ele>
        <time>2020-09-12T08:57:52.000Z</time>
      </trkpt>
      <trkpt lat="47.23018" lon="-1.67651">
        <ele>96</ele>
        <time>2020-09-12T08:57:54.000Z</time>
      </trkpt>
      <trkpt lat="47.23027" lon="-1.67642">
        <ele>95</ele>
        <time>2020-09-12T08:57:56.000Z</time>
      </trkpt>
      <trkpt lat="47.23036" lon="-1.67632">
        <ele>95</ele>
        <time>2020-09-12T08:57:58.000Z</time>
      </trkpt>
      <trkpt lat="47.23044" lon="-1.67621">
        <ele>95</ele>
        <time>2020-09-12T08:58:00.000Z</time>
      </trkpt>
      <trkpt lat="47.23052" lon="-1.67609">
        <ele>95</ele>
        <time>2020-09-12T08:58:02.000Z</time>
      </trkpt>
      <trkpt lat="47.2306" lon="-1.67597">
        <ele>95</ele>
        <time>2020-09-12T08:58:04.000Z</time>
      </trkpt>
      <trkpt lat="47.23067" lon="-1.67585">
        <ele>95</ele>
        <time>2020-09-12T08:58:06.000Z</time>
      </trkpt>
      <trkpt lat="47.23075" lon="-1.67574">
        <ele>96</ele>
        <time>2020-09-12T08:58:08.000Z</time>
      </trkpt>
      <trkpt lat="47.23083" lon="-1.67563">
        <ele>96</ele>
        <time>2020-09-12T08:58:10.000Z</time>
      </trkpt>
      <trkpt lat="47.23091" lon="-1.67552">
        <ele>97</ele>
        <time>2020-09-12T08:58:12.000Z</time>
      </trkpt>
      <trkpt lat="47.23099" lon="-1.67543">
        <ele>96</ele>
        <time>2020-09-12T08:58:14.000Z</time>
      </trkpt>
      <trkpt lat="47.23108" lon="-1.67533">
        <ele>96</ele>
        <time>2020-09-12T08:58:16.000Z</time>
      </trkpt>
      <trkpt lat="47.23117" lon="-1.67523">
        <ele>97</ele>
        <time>2020-09-12T08:58:18.000Z</time>
      </trkpt>
      <trkpt lat="47.23125" lon="-1.67513">
        <ele>97</ele>
        <time>2020-09-12T08:58:20.000Z</time>
      </trkpt>
      <trkpt lat="47.23134" lon="-1.67504">
        <ele>97</ele>
        <time>2020-09-12T08:58:22.000Z</time>
      </trkpt>
      <trkpt lat="47.23142" lon="-1.67494">
        <ele>97</ele>
        <time>2020-09-12T08:58:24.000Z</time>
      </trkpt>
      <trkpt lat="47.23151" lon="-1.67484">
        <ele>97</ele>
        <time>2020-09-12T08:58:26.000Z</time>
      </trkpt>
      <trkpt lat="47.2316" lon="-1.67475">
        <ele>97</ele>
        <time>2020-09-12T08:58:28.000Z</time>
      </trkpt>
      <trkpt lat="47.23169" lon="-1.67466">
        <ele>97</ele>
        <time>2020-09-12T08:58:30.000Z</time>
      </trkpt>
      <trkpt lat="47.23177" lon="-1.67457">
        <ele>98</ele>
        <time>2020-09-12T08:58:32.000Z</time>
      </trkpt>
      <trkpt lat="47.23185" lon="-1.67449">
        <ele>98</ele>
        <time>2020-09-12T08:58:34.000Z</time>
      </trkpt>
      <trkpt lat="47.23193" lon="-1.67439">
        <ele>99</ele>
        <time>2020-09-12T08:58:36.000Z</time>
      </trkpt>
      <trkpt lat="47.23201" lon="-1.6743">
        <ele>99</ele>
        <time>2020-09-12T08:58:38.000Z</time>
      </trkpt>
      <trkpt lat="47.23209" lon="-1.67421">
        <ele>99</ele>
        <time>2020-09-12T08:58:40.000Z</time>
      </trkpt>
      <trkpt lat="47.23217" lon="-1.67411">
        <ele>100</ele>
        <time>2020-09-12T08:58:42.000Z</time>
      </trkpt>
      <trkpt lat="47.23225" lon="-1.67404">
        <ele>100</ele>
        <time>2020-09-12T08:58:44.000Z</time>
      </trkpt>
      <trkpt lat="47.23235" lon="-1.67395">
        <ele>101</ele>
        <time>2020-09-12T08:58:47.000Z</time>
      </trkpt>
      <trkpt lat="47.23247" lon="-1.67385">
        <ele>102</ele>
        <time>2020-09-12T08:58:50.000Z</time>
      </trkpt>
      <trkpt lat="47.23259" lon="-1.67376">
        <ele>104</ele>
        <time>2020-09-12T08:58:53.000Z</time>
      </trkpt>
      <trkpt lat="47.23267" lon="-1.67371">
        <ele>104</ele>
        <time>2020-09-12T08:58:55.000Z</time>
      </trkpt>
      <trkpt lat="47.23276" lon="-1.67366">
        <ele>104</ele>
        <time>2020-09-12T08:58:57.000Z</time>
      </trkpt>
      <trkpt lat="47.23284" lon="-1.6736">
        <ele>105</ele>
        <time>2020-09-12T08:58:59.000Z</time>
      </trkpt>
      <trkpt lat="47.23296" lon="-1.67351">
        <ele>106</ele>
        <time>2020-09-12T08:59:02.000Z</time>
      </trkpt>
      <trkpt lat="47.23304" lon="-1.67346">
        <ele>107</ele>
        <time>2020-09-12T08:59:04.000Z</time>
      </trkpt>
      <trkpt lat="47.23313" lon="-1.67339">
        <ele>106</ele>
        <time>2020-09-12T08:59:06.000Z</time>
      </trkpt>
      <trkpt lat="47.23321" lon="-1.67333">
        <ele>106</ele>
        <time>2020-09-12T08:59:08.000Z</time>
      </trkpt>
      <trkpt lat="47.2333" lon="-1.67328">
        <ele>106</ele>
        <time>2020-09-12T08:59:10.000Z</time>
      </trkpt>
      <trkpt lat="47.23338" lon="-1.67322">
        <ele>106</ele>
        <time>2020-09-12T08:59:12.000Z</time>
      </trkpt>
      <trkpt lat="47.23347" lon="-1.67316">
        <ele>106</ele>
        <time>2020-09-12T08:59:14.000Z</time>
      </trkpt>
      <trkpt lat="47.23355" lon="-1.6731">
        <ele>107</ele>
        <time>2020-09-12T08:59:16.000Z</time>
      </trkpt>
      <trkpt lat="47.23364" lon="-1.67305">
        <ele>107</ele>
        <time>2020-09-12T08:59:18.000Z</time>
      </trkpt>
      <trkpt lat="47.23373" lon="-1.67299">
        <ele>107</ele>
        <time>2020-09-12T08:59:20.000Z</time>
      </trkpt>
      <trkpt lat="47.23381" lon="-1.67294">
        <ele>107</ele>
        <time>2020-09-12T08:59:22.000Z</time>
      </trkpt>
      <trkpt lat="47.2339" lon="-1.67288">
        <ele>107</ele>
        <time>2020-09-12T08:59:24.000Z</time>
      </trkpt>
      <trkpt lat="47.23398" lon="-1.67283">
        <ele>108</ele>
        <time>2020-09-12T08:59:26.000Z</time>
      </trkpt>
      <trkpt lat="47.23406" lon="-1.67277">
        <ele>108</ele>
        <time>2020-09-12T08:59:28.000Z</time>
      </trkpt>
      <trkpt lat="47.23415" lon="-1.67271">
        <ele>108</ele>
        <time>2020-09-12T08:59:30.000Z</time>
      </trkpt>
      <trkpt lat="47.23424" lon="-1.67265">
        <ele>108</ele>
        <time>2020-09-12T08:59:32.000Z</time>
      </trkpt>
      <trkpt lat="47.23433" lon="-1.67259">
        <ele>108</ele>
        <time>2020-09-12T08:59:34.000Z</time>
      </trkpt>
      <trkpt lat="47.23441" lon="-1.67253">
        <ele>108</ele>
        <time>2020-09-12T08:59:36.000Z</time>
      </trkpt>
      <trkpt lat="47.2345" lon="-1.67247">
        <ele>108</ele>
        <time>2020-09-12T08:59:38.000Z</time>
      </trkpt>
      <trkpt lat="47.23459" lon="-1.6724">
        <ele>108</ele>
        <time>2020-09-12T08:59:40.000Z</time>
      </trkpt>
      <trkpt lat="47.23469" lon="-1.67234">
        <ele>108</ele>
        <time>2020-09-12T08:59:42.000Z</time>
      </trkpt>
      <trkpt lat="47.23478" lon="-1.67228">
        <ele>108</ele>
        <time>2020-09-12T08:59:44.000Z</time>
      </trkpt>
      <trkpt lat="47.23487" lon="-1.67221">
        <ele>109</ele>
        <time>2020-09-12T08:59:46.000Z</time>
      </trkpt>
      <trkpt lat="47.23496" lon="-1.67214">
        <ele>109</ele>
        <time>2020-09-12T08:59:48.000Z</time>
      </trkpt>
      <trkpt lat="47.23506" lon="-1.67207">
        <ele>110</ele>
        <time>2020-09-12T08:59:50.000Z</time>
      </trkpt>
      <trkpt lat="47.23515" lon="-1.67199">
        <ele>110</ele>
        <time>2020-09-12T08:59:52.000Z</time>
      </trkpt>
      <trkpt lat="47.23526" lon="-1.67194">
        <ele>110</ele>
        <time>2020-09-12T08:59:54.000Z</time>
      </trkpt>
      <trkpt lat="47.23537" lon="-1.67189">
        <ele>110</ele>
        <time>2020-09-12T08:59:56.000Z</time>
      </trkpt>
      <trkpt lat="47.23549" lon="-1.67186">
        <ele>109</ele>
        <time>2020-09-12T08:59:58.000Z</time>
      </trkpt>
      <trkpt lat="47.23561" lon="-1.67183">
        <ele>108</ele>
        <time>2020-09-12T09:00:00.000Z</time>
      </trkpt>
      <trkpt lat="47.23573" lon="-1.67181">
        <ele>108</ele>
        <time>2020-09-12T09:00:02.000Z</time>
      </trkpt>
      <trkpt lat="47.23585" lon="-1.67178">
        <ele>109</ele>
        <time>2020-09-12T09:00:04.000Z</time>
      </trkpt>
      <trkpt lat="47.23598" lon="-1.67177">
        <ele>109</ele>
        <time>2020-09-12T09:00:06.000Z</time>
      </trkpt>
      <trkpt lat="47.2361" lon="-1.67175">
        <ele>110</ele>
        <time>2020-09-12T09:00:08.000Z</time>
      </trkpt>
      <trkpt lat="47.23622" lon="-1.67172">
        <ele>110</ele>
        <time>2020-09-12T09:00:10.000Z</time>
      </trkpt>
      <trkpt lat="47.23631" lon="-1.67162">
        <ele>109</ele>
        <time>2020-09-12T09:00:12.000Z</time>
      </trkpt>
      <trkpt lat="47.23642" lon="-1.67155">
        <ele>109</ele>
        <time>2020-09-12T09:00:14.000Z</time>
      </trkpt>
      <trkpt lat="47.23654" lon="-1.67159">
        <ele>109</ele>
        <time>2020-09-12T09:00:16.000Z</time>
      </trkpt>
      <trkpt lat="47.23663" lon="-1.67169">
        <ele>109</ele>
        <time>2020-09-12T09:00:18.000Z</time>
      </trkpt>
      <trkpt lat="47.23675" lon="-1.6717">
        <ele>109</ele>
        <time>2020-09-12T09:00:20.000Z</time>
      </trkpt>
      <trkpt lat="47.23688" lon="-1.67168">
        <ele>109</ele>
        <time>2020-09-12T09:00:22.000Z</time>
      </trkpt>
      <trkpt lat="47.237" lon="-1.67167">
        <ele>108</ele>
        <time>2020-09-12T09:00:24.000Z</time>
      </trkpt>
      <trkpt lat="47.23712" lon="-1.67165">
        <ele>108</ele>
        <time>2020-09-12T09:00:26.000Z</time>
      </trkpt>
      <trkpt lat="47.23725" lon="-1.67162">
        <ele>109</ele>
        <time>2020-09-12T09:00:28.000Z</time>
      </trkpt>
      <trkpt lat="47.23737" lon="-1.67158">
        <ele>109</ele>
        <time>2020-09-12T09:00:30.000Z</time>
      </trkpt>
      <trkpt lat="47.23749" lon="-1.67153">
        <ele>109</ele>
        <time>2020-09-12T09:00:32.000Z</time>
      </trkpt>
      <trkpt lat="47.23761" lon="-1.67148">
        <ele>109</ele>
        <time>2020-09-12T09:00:34.000Z</time>
      </trkpt>
      <trkpt lat="47.23773" lon="-1.67143">
        <ele>109</ele>
        <time>2020-09-12T09:00:36.000Z</time>
      </trkpt>
      <trkpt lat="47.23785" lon="-1.67139">
        <ele>109</ele>
        <time>2020-09-12T09:00:38.000Z</time>
      </trkpt>
      <trkpt lat="47.23797" lon="-1.67134">
        <ele>109</ele>
        <time>2020-09-12T09:00:40.000Z</time>
      </trkpt>
      <trkpt lat="47.23809" lon="-1.67131">
        <ele>109</ele>
        <time>2020-09-12T09:00:42.000Z</time>
      </trkpt>
      <trkpt lat="47.23821" lon="-1.6713">
        <ele>109</ele>
        <time>2020-09-12T09:00:44.000Z</time>
      </trkpt>
      <trkpt lat="47.23833" lon="-1.67129">
        <ele>109</ele>
        <time>2020-09-12T09:00:46.000Z</time>
      </trkpt>
      <trkpt lat="47.23844" lon="-1.67129">
        <ele>109</ele>
        <time>2020-09-12T09:00:48.000Z</time>
      </trkpt>
      <trkpt lat="47.23855" lon="-1.67131">
        <ele>109</ele>
        <time>2020-09-12T09:00:50.000Z</time>
      </trkpt>
      <trkpt lat="47.23865" lon="-1.67134">
        <ele>109</ele>
        <time>2020-09-12T09:00:52.000Z</time>
      </trkpt>
      <trkpt lat="47.23875" lon="-1.67139">
        <ele>110</ele>
        <time>2020-09-12T09:00:54.000Z</time>
      </trkpt>
      <trkpt lat="47.23886" lon="-1.67144">
        <ele>110</ele>
        <time>2020-09-12T09:00:56.000Z</time>
      </trkpt>
      <trkpt lat="47.23896" lon="-1.6715">
        <ele>110</ele>
        <time>2020-09-12T09:00:58.000Z</time>
      </trkpt>
      <trkpt lat="47.23907" lon="-1.67156">
        <ele>110</ele>
        <time>2020-09-12T09:01:00.000Z</time>
      </trkpt>
      <trkpt lat="47.23918" lon="-1.67162">
        <ele>111</ele>
        <time>2020-09-12T09:01:02.000Z</time>
      </trkpt>
      <trkpt lat="47.23928" lon="-1.67168">
        <ele>111</ele>
        <time>2020-09-12T09:01:04.000Z</time>
      </trkpt>
      <trkpt lat="47.23938" lon="-1.67175">
        <ele>112</ele>
        <time>2020-09-12T09:01:06.000Z</time>
      </trkpt>
      <trkpt lat="47.23947" lon="-1.67184">
        <ele>111</ele>
        <time>2020-09-12T09:01:08.000Z</time>
      </trkpt>
      <trkpt lat="47.23956" lon="-1.67194">
        <ele>112</ele>
        <time>2020-09-12T09:01:10.000Z</time>
      </trkpt>
      <trkpt lat="47.23964" lon="-1.67206">
        <ele>113</ele>
        <time>2020-09-12T09:01:12.000Z</time>
      </trkpt>
      <trkpt lat="47.23972" lon="-1.67219">
        <ele>113</ele>
        <time>2020-09-12T09:01:14.000Z</time>
      </trkpt>
      <trkpt lat="47.2398" lon="-1.67232">
        <ele>113</ele>
        <time>2020-09-12T09:01:16.000Z</time>
      </trkpt>
      <trkpt lat="47.23989" lon="-1.67242">
        <ele>113</ele>
        <time>2020-09-12T09:01:18.000Z</time>
      </trkpt>
      <trkpt lat="47.23999" lon="-1.67253">
        <ele>112</ele>
        <time>2020-09-12T09:01:20.000Z</time>
      </trkpt>
      <trkpt lat="47.2401" lon="-1.67262">
        <ele>111</ele>
        <time>2020-09-12T09:01:22.000Z</time>
      </trkpt>
      <trkpt lat="47.24022" lon="-1.6727">
        <ele>111</ele>
        <time>2020-09-12T09:01:24.000Z</time>
      </trkpt>
      <trkpt lat="47.24035" lon="-1.67278">
        <ele>111</ele>
        <time>2020-09-12T09:01:26.000Z</time>
      </trkpt>
      <trkpt lat="47.24049" lon="-1.67282">
        <ele>110</ele>
        <time>2020-09-12T09:01:28.000Z</time>
      </trkpt>
      <trkpt lat="47.24065" lon="-1.67284">
        <ele>108</ele>
        <time>2020-09-12T09:01:30.000Z</time>
      </trkpt>
      <trkpt lat="47.24081" lon="-1.67286">
        <ele>106</ele>
        <time>2020-09-12T09:01:32.000Z</time>
      </trkpt>
      <trkpt lat="47.24098" lon="-1.67288">
        <ele>105</ele>
        <time>2020-09-12T09:01:34.000Z</time>
      </trkpt>
      <trkpt lat="47.24116" lon="-1.6729">
        <ele>104</ele>
        <time>2020-09-12T09:01:36.000Z</time>
      </trkpt>
      <trkpt lat="47.24133" lon="-1.67291">
        <ele>104</ele>
        <time>2020-09-12T09:01:38.000Z</time>
      </trkpt>
      <trkpt lat="47.24149" lon="-1.6729">
        <ele>105</ele>
        <time>2020-09-12T09:01:40.000Z</time>
      </trkpt>
      <trkpt lat="47.24163" lon="-1.67288">
        <ele>106</ele>
        <time>2020-09-12T09:01:42.000Z</time>
      </trkpt>
      <trkpt lat="47.24178" lon="-1.67284">
        <ele>106</ele>
        <time>2020-09-12T09:01:44.000Z</time>
      </trkpt>
      <trkpt lat="47.24192" lon="-1.67279">
        <ele>104</ele>
        <time>2020-09-12T09:01:46.000Z</time>
      </trkpt>
      <trkpt lat="47.24206" lon="-1.67273">
        <ele>105</ele>
        <time>2020-09-12T09:01:48.000Z</time>
      </trkpt>
      <trkpt lat="47.24219" lon="-1.67263">
        <ele>104</ele>
        <time>2020-09-12T09:01:50.000Z</time>
      </trkpt>
      <trkpt lat="47.24226" lon="-1.67246">
        <ele>103</ele>
        <time>2020-09-12T09:01:52.000Z</time>
      </trkpt>
      <trkpt lat="47.24227" lon="-1.67227">
        <ele>102</ele>
        <time>2020-09-12T09:01:54.000Z</time>
      </trkpt>
      <trkpt lat="47.24228" lon="-1.6721">
        <ele>103</ele>
        <time>2020-09-12T09:01:56.000Z</time>
      </trkpt>
      <trkpt lat="47.24235" lon="-1.67196">
        <ele>102</ele>
        <time>2020-09-12T09:01:58.000Z</time>
      </trkpt>
      <trkpt lat="47.24244" lon="-1.67185">
        <ele>103</ele>
        <time>2020-09-12T09:02:00.000Z</time>
      </trkpt>
      <trkpt lat="47.24246" lon="-1.67168">
        <ele>103</ele>
        <time>2020-09-12T09:02:02.000Z</time>
      </trkpt>
      <trkpt lat="47.24244" lon="-1.67149">
        <ele>103</ele>
        <time>2020-09-12T09:02:04.000Z</time>
      </trkpt>
      <trkpt lat="47.24243" lon="-1.6713">
        <ele>104</ele>
        <time>2020-09-12T09:02:06.000Z</time>
      </trkpt>
      <trkpt lat="47.24242" lon="-1.67112">
        <ele>104</ele>
        <time>2020-09-12T09:02:08.000Z</time>
      </trkpt>
      <trkpt lat="47.24242" lon="-1.67094">
        <ele>105</ele>
        <time>2020-09-12T09:02:10.000Z</time>
      </trkpt>
      <trkpt lat="47.24242" lon="-1.67076">
        <ele>105</ele>
        <time>2020-09-12T09:02:12.000Z</time>
      </trkpt>
      <trkpt lat="47.24243" lon="-1.67058">
        <ele>106</ele>
        <time>2020-09-12T09:02:14.000Z</time>
      </trkpt>
      <trkpt lat="47.24244" lon="-1.6704">
        <ele>106</ele>
        <time>2020-09-12T09:02:16.000Z</time>
      </trkpt>
      <trkpt lat="47.24247" lon="-1.67022">
        <ele>106</ele>
        <time>2020-09-12T09:02:18.000Z</time>
      </trkpt>
      <trkpt lat="47.2425" lon="-1.67003">
        <ele>106</ele>
        <time>2020-09-12T09:02:20.000Z</time>
      </trkpt>
      <trkpt lat="47.24253" lon="-1.66985">
        <ele>106</ele>
        <time>2020-09-12T09:02:22.000Z</time>
      </trkpt>
      <trkpt lat="47.24257" lon="-1.66968">
        <ele>106</ele>
        <time>2020-09-12T09:02:24.000Z</time>
      </trkpt>
      <trkpt lat="47.2426" lon="-1.6695">
        <ele>106</ele>
        <time>2020-09-12T09:02:26.000Z</time>
      </trkpt>
      <trkpt lat="47.24264" lon="-1.66932">
        <ele>106</ele>
        <time>2020-09-12T09:02:28.000Z</time>
      </trkpt>
      <trkpt lat="47.24267" lon="-1.66914">
        <ele>106</ele>
        <time>2020-09-12T09:02:30.000Z</time>
      </trkpt>
      <trkpt lat="47.24271" lon="-1.66896">
        <ele>106</ele>
        <time>2020-09-12T09:02:32.000Z</time>
      </trkpt>
      <trkpt lat="47.24274" lon="-1.66879">
        <ele>106</ele>
        <time>2020-09-12T09:02:34.000Z</time>
      </trkpt>
      <trkpt lat="47.24279" lon="-1.66862">
        <ele>105</ele>
        <time>2020-09-12T09:02:36.000Z</time>
      </trkpt>
      <trkpt lat="47.24284" lon="-1.66846">
        <ele>105</ele>
        <time>2020-09-12T09:02:38.000Z</time>
      </trkpt>
      <trkpt lat="47.24285" lon="-1.66827">
        <ele>105</ele>
        <time>2020-09-12T09:02:40.000Z</time>
      </trkpt>
      <trkpt lat="47.24292" lon="-1.66812">
        <ele>105</ele>
        <time>2020-09-12T09:02:42.000Z</time>
      </trkpt>
      <trkpt lat="47.24303" lon="-1.66808">
        <ele>105</ele>
        <time>2020-09-12T09:02:44.000Z</time>
      </trkpt>
      <trkpt lat="47.24315" lon="-1.66814">
        <ele>104</ele>
        <time>2020-09-12T09:02:46.000Z</time>
      </trkpt>
      <trkpt lat="47.24324" lon="-1.66828">
        <ele>104</ele>
        <time>2020-09-12T09:02:48.000Z</time>
      </trkpt>
      <trkpt lat="47.24335" lon="-1.66838">
        <ele>103</ele>
        <time>2020-09-12T09:02:50.000Z</time>
      </trkpt>
      <trkpt lat="47.24346" lon="-1.66848">
        <ele>103</ele>
        <time>2020-09-12T09:02:52.000Z</time>
      </trkpt>
      <trkpt lat="47.24358" lon="-1.66859">
        <ele>102</ele>
        <time>2020-09-12T09:02:54.000Z</time>
      </trkpt>
      <trkpt lat="47.2437" lon="-1.66871">
        <ele>102</ele>
        <time>2020-09-12T09:02:56.000Z</time>
      </trkpt>
      <trkpt lat="47.24381" lon="-1.66884">
        <ele>101</ele>
        <time>2020-09-12T09:02:58.000Z</time>
      </trkpt>
      <trkpt lat="47.24393" lon="-1.66898">
        <ele>101</ele>
        <time>2020-09-12T09:03:00.000Z</time>
      </trkpt>
      <trkpt lat="47.24404" lon="-1.66912">
        <ele>101</ele>
        <time>2020-09-12T09:03:02.000Z</time>
      </trkpt>
      <trkpt lat="47.24415" lon="-1.66926">
        <ele>100</ele>
        <time>2020-09-12T09:03:04.000Z</time>
      </trkpt>
      <trkpt lat="47.24425" lon="-1.66942">
        <ele>100</ele>
        <time>2020-09-12T09:03:06.000Z</time>
      </trkpt>
      <trkpt lat="47.24434" lon="-1.66959">
        <ele>100</ele>
        <time>2020-09-12T09:03:08.000Z</time>
      </trkpt>
      <trkpt lat="47.24446" lon="-1.66971">
        <ele>100</ele>
        <time>2020-09-12T09:03:10.000Z</time>
      </trkpt>
      <trkpt lat="47.24458" lon="-1.66986">
        <ele>100</ele>
        <time>2020-09-12T09:03:12.000Z</time>
      </trkpt>
      <trkpt lat="47.24469" lon="-1.66998">
        <ele>99</ele>
        <time>2020-09-12T09:03:14.000Z</time>
      </trkpt>
      <trkpt lat="47.24482" lon="-1.67006">
        <ele>99</ele>
        <time>2020-09-12T09:03:16.000Z</time>
      </trkpt>
      <trkpt lat="47.24495" lon="-1.67013">
        <ele>99</ele>
        <time>2020-09-12T09:03:18.000Z</time>
      </trkpt>
      <trkpt lat="47.24508" lon="-1.67021">
        <ele>100</ele>
        <time>2020-09-12T09:03:20.000Z</time>
      </trkpt>
      <trkpt lat="47.24521" lon="-1.67028">
        <ele>100</ele>
        <time>2020-09-12T09:03:22.000Z</time>
      </trkpt>
      <trkpt lat="47.24534" lon="-1.67031">
        <ele>100</ele>
        <time>2020-09-12T09:03:24.000Z</time>
      </trkpt>
      <trkpt lat="47.24548" lon="-1.67033">
        <ele>100</ele>
        <time>2020-09-12T09:03:26.000Z</time>
      </trkpt>
      <trkpt lat="47.24561" lon="-1.67033">
        <ele>101</ele>
        <time>2020-09-12T09:03:28.000Z</time>
      </trkpt>
      <trkpt lat="47.24574" lon="-1.67032">
        <ele>100</ele>
        <time>2020-09-12T09:03:30.000Z</time>
      </trkpt>
      <trkpt lat="47.24587" lon="-1.67028">
        <ele>100</ele>
        <time>2020-09-12T09:03:32.000Z</time>
      </trkpt>
      <trkpt lat="47.24601" lon="-1.67023">
        <ele>101</ele>
        <time>2020-09-12T09:03:34.000Z</time>
      </trkpt>
      <trkpt lat="47.24614" lon="-1.67018">
        <ele>100</ele>
        <time>2020-09-12T09:03:36.000Z</time>
      </trkpt>
      <trkpt lat="47.24627" lon="-1.67013">
        <ele>100</ele>
        <time>2020-09-12T09:03:38.000Z</time>
      </trkpt>
      <trkpt lat="47.24641" lon="-1.67008">
        <ele>100</ele>
        <time>2020-09-12T09:03:40.000Z</time>
      </trkpt>
      <trkpt lat="47.24653" lon="-1.67001">
        <ele>100</ele>
        <time>2020-09-12T09:03:42.000Z</time>
      </trkpt>
      <trkpt lat="47.24666" lon="-1.66992">
        <ele>99</ele>
        <time>2020-09-12T09:03:44.000Z</time>
      </trkpt>
      <trkpt lat="47.24678" lon="-1.66979">
        <ele>99</ele>
        <time>2020-09-12T09:03:46.000Z</time>
      </trkpt>
      <trkpt lat="47.24689" lon="-1.66964">
        <ele>99</ele>
        <time>2020-09-12T09:03:48.000Z</time>
      </trkpt>
      <trkpt lat="47.24699" lon="-1.6695">
        <ele>99</ele>
        <time>2020-09-12T09:03:50.000Z</time>
      </trkpt>
      <trkpt lat="47.24709" lon="-1.66937">
        <ele>99</ele>
        <time>2020-09-12T09:03:52.000Z</time>
      </trkpt>
      <trkpt lat="47.24721" lon="-1.66926">
        <ele>99</ele>
        <time>2020-09-12T09:03:54.000Z</time>
      </trkpt>
      <trkpt lat="47.24732" lon="-1.66917">
        <ele>99</ele>
        <time>2020-09-12T09:03:56.000Z</time>
      </trkpt>
      <trkpt lat="47.24745" lon="-1.6691">
        <ele>99</ele>
        <time>2020-09-12T09:03:58.000Z</time>
      </trkpt>
      <trkpt lat="47.24758" lon="-1.66902">
        <ele>99</ele>
        <time>2020-09-12T09:04:00.000Z</time>
      </trkpt>
      <trkpt lat="47.24771" lon="-1.66894">
        <ele>99</ele>
        <time>2020-09-12T09:04:02.000Z</time>
      </trkpt>
      <trkpt lat="47.24783" lon="-1.66884">
        <ele>99</ele>
        <time>2020-09-12T09:04:04.000Z</time>
      </trkpt>
      <trkpt lat="47.24795" lon="-1.66874">
        <ele>99</ele>
        <time>2020-09-12T09:04:06.000Z</time>
      </trkpt>
      <trkpt lat="47.24807" lon="-1.66863">
        <ele>99</ele>
        <time>2020-09-12T09:04:08.000Z</time>
      </trkpt>
      <trkpt lat="47.24818" lon="-1.66853">
        <ele>98</ele>
        <time>2020-09-12T09:04:10.000Z</time>
      </trkpt>
      <trkpt lat="47.24831" lon="-1.66847">
        <ele>98</ele>
        <time>2020-09-12T09:04:12.000Z</time>
      </trkpt>
      <trkpt lat="47.24844" lon="-1.66841">
        <ele>98</ele>
        <time>2020-09-12T09:04:14.000Z</time>
      </trkpt>
      <trkpt lat="47.24858" lon="-1.66836">
        <ele>97</ele>
        <time>2020-09-12T09:04:16.000Z</time>
      </trkpt>
      <trkpt lat="47.24871" lon="-1.66832">
        <ele>97</ele>
        <time>2020-09-12T09:04:18.000Z</time>
      </trkpt>
      <trkpt lat="47.24885" lon="-1.66828">
        <ele>96</ele>
        <time>2020-09-12T09:04:20.000Z</time>
      </trkpt>
      <trkpt lat="47.24899" lon="-1.66824">
        <ele>96</ele>
        <time>2020-09-12T09:04:22.000Z</time>
      </trkpt>
      <trkpt lat="47.24913" lon="-1.6682">
        <ele>96</ele>
        <time>2020-09-12T09:04:24.000Z</time>
      </trkpt>
      <trkpt lat="47.24928" lon="-1.66815">
        <ele>96</ele>
        <time>2020-09-12T09:04:26.000Z</time>
      </trkpt>
      <trkpt lat="47.24941" lon="-1.66811">
        <ele>95</ele>
        <time>2020-09-12T09:04:28.000Z</time>
      </trkpt>
      <trkpt lat="47.24955" lon="-1.66807">
        <ele>95</ele>
        <time>2020-09-12T09:04:30.000Z</time>
      </trkpt>
      <trkpt lat="47.2497" lon="-1.66802">
        <ele>95</ele>
        <time>2020-09-12T09:04:32.000Z</time>
      </trkpt>
      <trkpt lat="47.24984" lon="-1.66799">
        <ele>95</ele>
        <time>2020-09-12T09:04:34.000Z</time>
      </trkpt>
      <trkpt lat="47.24999" lon="-1.66796">
        <ele>94</ele>
        <time>2020-09-12T09:04:36.000Z</time>
      </trkpt>
      <trkpt lat="47.25013" lon="-1.66793">
        <ele>94</ele>
        <time>2020-09-12T09:04:38.000Z</time>
      </trkpt>
      <trkpt lat="47.25027" lon="-1.66792">
        <ele>94</ele>
        <time>2020-09-12T09:04:40.000Z</time>
      </trkpt>
      <trkpt lat="47.25042" lon="-1.66791">
        <ele>94</ele>
        <time>2020-09-12T09:04:42.000Z</time>
      </trkpt>
      <trkpt lat="47.25056" lon="-1.66792">
        <ele>94</ele>
        <time>2020-09-12T09:04:44.000Z</time>
      </trkpt>
      <trkpt lat="47.25071" lon="-1.66793">
        <ele>93</ele>
        <time>2020-09-12T09:04:46.000Z</time>
      </trkpt>
      <trkpt lat="47.25085" lon="-1.66794">
        <ele>93</ele>
        <time>2020-09-12T09:04:48.000Z</time>
      </trkpt>
      <trkpt lat="47.251" lon="-1.66799">
        <ele>93</ele>
        <time>2020-09-12T09:04:50.000Z</time>
      </trkpt>
      <trkpt lat="47.25116" lon="-1.66805">
        <ele>93</ele>
        <time>2020-09-12T09:04:52.000Z</time>
      </trkpt>
      <trkpt lat="47.25132" lon="-1.6681">
        <ele>91</ele>
        <time>2020-09-12T09:04:54.000Z</time>
      </trkpt>
      <trkpt lat="47.25149" lon="-1.66816">
        <ele>91</ele>
        <time>2020-09-12T09:04:56.000Z</time>
      </trkpt>
      <trkpt lat="47.25166" lon="-1.6682">
        <ele>91</ele>
        <time>2020-09-12T09:04:58.000Z</time>
      </trkpt>
      <trkpt lat="47.25184" lon="-1.66825">
        <ele>91</ele>
        <time>2020-09-12T09:05:00.000Z</time>
      </trkpt>
      <trkpt lat="47.252" lon="-1.66829">
        <ele>90</ele>
        <time>2020-09-12T09:05:02.000Z</time>
      </trkpt>
      <trkpt lat="47.25214" lon="-1.66833">
        <ele>90</ele>
        <time>2020-09-12T09:05:04.000Z</time>
      </trkpt>
      <trkpt lat="47.25228" lon="-1.66835">
        <ele>90</ele>
        <time>2020-09-12T09:05:06.000Z</time>
      </trkpt>
      <trkpt lat="47.25241" lon="-1.66838">
        <ele>91</ele>
        <time>2020-09-12T09:05:08.000Z</time>
      </trkpt>
      <trkpt lat="47.25253" lon="-1.6684">
        <ele>91</ele>
        <time>2020-09-12T09:05:10.000Z</time>
      </trkpt>
      <trkpt lat="47.25265" lon="-1.66841">
        <ele>92</ele>
        <time>2020-09-12T09:05:12.000Z</time>
      </trkpt>
      <trkpt lat="47.25277" lon="-1.66842">
        <ele>93</ele>
        <time>2020-09-12T09:05:14.000Z</time>
      </trkpt>
      <trkpt lat="47.25289" lon="-1.66845">
        <ele>93</ele>
        <time>2020-09-12T09:05:16.000Z</time>
      </trkpt>
      <trkpt lat="47.25301" lon="-1.66846">
        <ele>93</ele>
        <time>2020-09-12T09:05:18.000Z</time>
      </trkpt>
      <trkpt lat="47.25313" lon="-1.66848">
        <ele>94</ele>
        <time>2020-09-12T09:05:20.000Z</time>
      </trkpt>
      <trkpt lat="47.25325" lon="-1.6685">
        <ele>94</ele>
        <time>2020-09-12T09:05:22.000Z</time>
      </trkpt>
      <trkpt lat="47.25337" lon="-1.66852">
        <ele>95</ele>
        <time>2020-09-12T09:05:24.000Z</time>
      </trkpt>
      <trkpt lat="47.25349" lon="-1.66855">
        <ele>96</ele>
        <time>2020-09-12T09:05:26.000Z</time>
      </trkpt>
      <trkpt lat="47.2536" lon="-1.66856">
        <ele>96</ele>
        <time>2020-09-12T09:05:28.000Z</time>
      </trkpt>
      <trkpt lat="47.25372" lon="-1.66857">
        <ele>96</ele>
        <time>2020-09-12T09:05:30.000Z</time>
      </trkpt>
      <trkpt lat="47.25384" lon="-1.66859">
        <ele>96</ele>
        <time>2020-09-12T09:05:32.000Z</time>
      </trkpt>
      <trkpt lat="47.25396" lon="-1.6686">
        <ele>96</ele>
        <time>2020-09-12T09:05:34.000Z</time>
      </trkpt>
      <trkpt lat="47.25408" lon="-1.66862">
        <ele>97</ele>
        <time>2020-09-12T09:05:36.000Z</time>
      </trkpt>
      <trkpt lat="47.25419" lon="-1.66864">
        <ele>97</ele>
        <time>2020-09-12T09:05:38.000Z</time>
      </trkpt>
      <trkpt lat="47.25431" lon="-1.66865">
        <ele>98</ele>
        <time>2020-09-12T09:05:40.000Z</time>
      </trkpt>
      <trkpt lat="47.25442" lon="-1.66866">
        <ele>99</ele>
        <time>2020-09-12T09:05:42.000Z</time>
      </trkpt>
      <trkpt lat="47.25454" lon="-1.6687">
        <ele>99</ele>
        <time>2020-09-12T09:05:44.000Z</time>
      </trkpt>
      <trkpt lat="47.25466" lon="-1.66872">
        <ele>98</ele>
        <time>2020-09-12T09:05:46.000Z</time>
      </trkpt>
      <trkpt lat="47.25478" lon="-1.66873">
        <ele>99</ele>
        <time>2020-09-12T09:05:48.000Z</time>
      </trkpt>
      <trkpt lat="47.2549" lon="-1.66874">
        <ele>99</ele>
        <time>2020-09-12T09:05:50.000Z</time>
      </trkpt>
      <trkpt lat="47.25501" lon="-1.66876">
        <ele>100</ele>
        <time>2020-09-12T09:05:52.000Z</time>
      </trkpt>
      <trkpt lat="47.25511" lon="-1.66877">
        <ele>100</ele>
        <time>2020-09-12T09:05:54.000Z</time>
      </trkpt>
      <trkpt lat="47.25522" lon="-1.66876">
        <ele>100</ele>
        <time>2020-09-12T09:05:56.000Z</time>
      </trkpt>
      <trkpt lat="47.25534" lon="-1.66878">
        <ele>100</ele>
        <time>2020-09-12T09:05:58.000Z</time>
      </trkpt>
      <trkpt lat="47.25545" lon="-1.66883">
        <ele>101</ele>
        <time>2020-09-12T09:06:00.000Z</time>
      </trkpt>
      <trkpt lat="47.25556" lon="-1.66884">
        <ele>102</ele>
        <time>2020-09-12T09:06:02.000Z</time>
      </trkpt>
      <trkpt lat="47.25569" lon="-1.66885">
        <ele>101</ele>
        <time>2020-09-12T09:06:04.000Z</time>
      </trkpt>
      <trkpt lat="47.25581" lon="-1.66886">
        <ele>101</ele>
        <time>2020-09-12T09:06:06.000Z</time>
      </trkpt>
      <trkpt lat="47.25593" lon="-1.66887">
        <ele>101</ele>
        <time>2020-09-12T09:06:08.000Z</time>
      </trkpt>
      <trkpt lat="47.25605" lon="-1.66887">
        <ele>101</ele>
        <time>2020-09-12T09:06:10.000Z</time>
      </trkpt>
      <trkpt lat="47.25617" lon="-1.66888">
        <ele>101</ele>
        <time>2020-09-12T09:06:12.000Z</time>
      </trkpt>
      <trkpt lat="47.25629" lon="-1.66889">
        <ele>102</ele>
        <time>2020-09-12T09:06:14.000Z</time>
      </trkpt>
      <trkpt lat="47.25641" lon="-1.6689">
        <ele>102</ele>
        <time>2020-09-12T09:06:16.000Z</time>
      </trkpt>
      <trkpt lat="47.25653" lon="-1.66891">
        <ele>102</ele>
        <time>2020-09-12T09:06:18.000Z</time>
      </trkpt>
      <trkpt lat="47.25664" lon="-1.66891">
        <ele>103</ele>
        <time>2020-09-12T09:06:20.000Z</time>
      </trkpt>
      <trkpt lat="47.25676" lon="-1.66891">
        <ele>103</ele>
        <time>2020-09-12T09:06:22.000Z</time>
      </trkpt>
      <trkpt lat="47.25687" lon="-1.66886">
        <ele>103</ele>
        <time>2020-09-12T09:06:24.000Z</time>
      </trkpt>
      <trkpt lat="47.25699" lon="-1.66886">
        <ele>102</ele>
        <time>2020-09-12T09:06:26.000Z</time>
      </trkpt>
      <trkpt lat="47.25711" lon="-1.66891">
        <ele>102</ele>
        <time>2020-09-12T09:06:28.000Z</time>
      </trkpt>
      <trkpt lat="47.25722" lon="-1.66894">
        <ele>101</ele>
        <time>2020-09-12T09:06:30.000Z</time>
      </trkpt>
      <trkpt lat="47.25734" lon="-1.66896">
        <ele>101</ele>
        <time>2020-09-12T09:06:32.000Z</time>
      </trkpt>
      <trkpt lat="47.25746" lon="-1.66897">
        <ele>102</ele>
        <time>2020-09-12T09:06:34.000Z</time>
      </trkpt>
      <trkpt lat="47.25757" lon="-1.66899">
        <ele>102</ele>
        <time>2020-09-12T09:06:36.000Z</time>
      </trkpt>
      <trkpt lat="47.25769" lon="-1.66901">
        <ele>103</ele>
        <time>2020-09-12T09:06:38.000Z</time>
      </trkpt>
      <trkpt lat="47.25781" lon="-1.66902">
        <ele>103</ele>
        <time>2020-09-12T09:06:40.000Z</time>
      </trkpt>
      <trkpt lat="47.25792" lon="-1.66904">
        <ele>103</ele>
        <time>2020-09-12T09:06:42.000Z</time>
      </trkpt>
      <trkpt lat="47.25804" lon="-1.66906">
        <ele>103</ele>
        <time>2020-09-12T09:06:44.000Z</time>
      </trkpt>
      <trkpt lat="47.25816" lon="-1.66909">
        <ele>104</ele>
        <time>2020-09-12T09:06:46.000Z</time>
      </trkpt>
      <trkpt lat="47.25827" lon="-1.66912">
        <ele>105</ele>
        <time>2020-09-12T09:06:48.000Z</time>
      </trkpt>
      <trkpt lat="47.25839" lon="-1.66915">
        <ele>105</ele>
        <time>2020-09-12T09:06:50.000Z</time>
      </trkpt>
      <trkpt lat="47.25851" lon="-1.66918">
        <ele>105</ele>
        <time>2020-09-12T09:06:52.000Z</time>
      </trkpt>
      <trkpt lat="47.25862" lon="-1.66921">
        <ele>106</ele>
        <time>2020-09-12T09:06:54.000Z</time>
      </trkpt>
      <trkpt lat="47.25873" lon="-1.66925">
        <ele>106</ele>
        <time>2020-09-12T09:06:56.000Z</time>
      </trkpt>
      <trkpt lat="47.25885" lon="-1.66928">
        <ele>106</ele>
        <time>2020-09-12T09:06:58.000Z</time>
      </trkpt>
      <trkpt lat="47.25896" lon="-1.66932">
        <ele>106</ele>
        <time>2020-09-12T09:07:00.000Z</time>
      </trkpt>
      <trkpt lat="47.25907" lon="-1.66936">
        <ele>107</ele>
        <time>2020-09-12T09:07:02.000Z</time>
      </trkpt>
      <trkpt lat="47.25918" lon="-1.6694">
        <ele>107</ele>
        <time>2020-09-12T09:07:04.000Z</time>
      </trkpt>
      <trkpt lat="47.25929" lon="-1.66944">
        <ele>108</ele>
        <time>2020-09-12T09:07:06.000Z</time>
      </trkpt>
      <trkpt lat="47.25938" lon="-1.66948">
        <ele>109</ele>
        <time>2020-09-12T09:07:08.000Z</time>
      </trkpt>
      <trkpt lat="47.25949" lon="-1.66952">
        <ele>110</ele>
        <time>2020-09-12T09:07:10.000Z</time>
      </trkpt>
      <trkpt lat="47.25959" lon="-1.66957">
        <ele>110</ele>
        <time>2020-09-12T09:07:12.000Z</time>
      </trkpt>
      <trkpt lat="47.25968" lon="-1.66962">
        <ele>110</ele>
        <time>2020-09-12T09:07:14.000Z</time>
      </trkpt>
      <trkpt lat="47.25978" lon="-1.66967">
        <ele>111</ele>
        <time>2020-09-12T09:07:16.000Z</time>
      </trkpt>
      <trkpt lat="47.25988" lon="-1.66971">
        <ele>111</ele>
        <time>2020-09-12T09:07:18.000Z</time>
      </trkpt>
      <trkpt lat="47.25998" lon="-1.66976">
        <ele>111</ele>
        <time>2020-09-12T09:07:20.000Z</time>
      </trkpt>
      <trkpt lat="47.26007" lon="-1.6698">
        <ele>111</ele>
        <time>2020-09-12T09:07:22.000Z</time>
      </trkpt>
      <trkpt lat="47.26017" lon="-1.66984">
        <ele>112</ele>
        <time>2020-09-12T09:07:24.000Z</time>
      </trkpt>
      <trkpt lat="47.26027" lon="-1.66989">
        <ele>112</ele>
        <time>2020-09-12T09:07:26.000Z</time>
      </trkpt>
      <trkpt lat="47.26037" lon="-1.66993">
        <ele>112</ele>
        <time>2020-09-12T09:07:28.000Z</time>
      </trkpt>
      <trkpt lat="47.26047" lon="-1.66997">
        <ele>112</ele>
        <time>2020-09-12T09:07:30.000Z</time>
      </trkpt>
      <trkpt lat="47.26056" lon="-1.67002">
        <ele>112</ele>
        <time>2020-09-12T09:07:32.000Z</time>
      </trkpt>
      <trkpt lat="47.26066" lon="-1.67007">
        <ele>112</ele>
        <time>2020-09-12T09:07:34.000Z</time>
      </trkpt>
      <trkpt lat="47.26077" lon="-1.67011">
        <ele>112</ele>
        <time>2020-09-12T09:07:36.000Z</time>
      </trkpt>
      <trkpt lat="47.26086" lon="-1.67016">
        <ele>112</ele>
        <time>2020-09-12T09:07:38.000Z</time>
      </trkpt>
      <trkpt lat="47.26096" lon="-1.6702">
        <ele>113</ele>
        <time>2020-09-12T09:07:40.000Z</time>
      </trkpt>
      <trkpt lat="47.26107" lon="-1.67024">
        <ele>114</ele>
        <time>2020-09-12T09:07:42.000Z</time>
      </trkpt>
      <trkpt lat="47.26117" lon="-1.6703">
        <ele>114</ele>
        <time>2020-09-12T09:07:44.000Z</time>
      </trkpt>
      <trkpt lat="47.26127" lon="-1.67035">
        <ele>114</ele>
        <time>2020-09-12T09:07:46.000Z</time>
      </trkpt>
      <trkpt lat="47.26138" lon="-1.6704">
        <ele>115</ele>
        <time>2020-09-12T09:07:48.000Z</time>
      </trkpt>
      <trkpt lat="47.26148" lon="-1.67044">
        <ele>115</ele>
        <time>2020-09-12T09:07:50.000Z</time>
      </trkpt>
      <trkpt lat="47.26158" lon="-1.67049">
        <ele>115</ele>
        <time>2020-09-12T09:07:52.000Z</time>
      </trkpt>
      <trkpt lat="47.26168" lon="-1.67053">
        <ele>115</ele>
        <time>2020-09-12T09:07:54.000Z</time>
      </trkpt>
      <trkpt lat="47.26178" lon="-1.67058">
        <ele>115</ele>
        <time>2020-09-12T09:07:56.000Z</time>
      </trkpt>
      <trkpt lat="47.26187" lon="-1.67062">
        <ele>115</ele>
        <time>2020-09-12T09:07:58.000Z</time>
      </trkpt>
      <trkpt lat="47.26196" lon="-1.67061">
        <ele>116</ele>
        <time>2020-09-12T09:08:00.000Z</time>
      </trkpt>
      <trkpt lat="47.26205" lon="-1.67066">
        <ele>116</ele>
        <time>2020-09-12T09:08:02.000Z</time>
      </trkpt>
      <trkpt lat="47.2621" lon="-1.67079">
        <ele>115</ele>
        <time>2020-09-12T09:08:04.000Z</time>
      </trkpt>
      <trkpt lat="47.26213" lon="-1.67094">
        <ele>116</ele>
        <time>2020-09-12T09:08:06.000Z</time>
      </trkpt>
      <trkpt lat="47.26215" lon="-1.67109">
        <ele>116</ele>
        <time>2020-09-12T09:08:08.000Z</time>
      </trkpt>
      <trkpt lat="47.26219" lon="-1.67126">
        <ele>116</ele>
        <time>2020-09-12T09:08:10.000Z</time>
      </trkpt>
      <trkpt lat="47.26222" lon="-1.67142">
        <ele>117</ele>
        <time>2020-09-12T09:08:12.000Z</time>
      </trkpt>
      <trkpt lat="47.26225" lon="-1.67158">
        <ele>117</ele>
        <time>2020-09-12T09:08:14.000Z</time>
      </trkpt>
      <trkpt lat="47.26229" lon="-1.67175">
        <ele>118</ele>
        <time>2020-09-12T09:08:16.000Z</time>
      </trkpt>
      <trkpt lat="47.26233" lon="-1.6719">
        <ele>118</ele>
        <time>2020-09-12T09:08:18.000Z</time>
      </trkpt>
      <trkpt lat="47.26236" lon="-1.67206">
        <ele>117</ele>
        <time>2020-09-12T09:08:20.000Z</time>
      </trkpt>
      <trkpt lat="47.2624" lon="-1.67222">
        <ele>117</ele>
        <time>2020-09-12T09:08:22.000Z</time>
      </trkpt>
      <trkpt lat="47.26243" lon="-1.67237">
        <ele>117</ele>
        <time>2020-09-12T09:08:24.000Z</time>
      </trkpt>
      <trkpt lat="47.26253" lon="-1.67249">
        <ele>118</ele>
        <time>2020-09-12T09:08:27.000Z</time>
      </trkpt>
      <trkpt lat="47.26263" lon="-1.67245">
        <ele>118</ele>
        <time>2020-09-12T09:08:29.000Z</time>
      </trkpt>
      <trkpt lat="47.26274" lon="-1.67239">
        <ele>118</ele>
        <time>2020-09-12T09:08:31.000Z</time>
      </trkpt>
      <trkpt lat="47.26286" lon="-1.67236">
        <ele>118</ele>
        <time>2020-09-12T09:08:33.000Z</time>
      </trkpt>
      <trkpt lat="47.26298" lon="-1.67232">
        <ele>117</ele>
        <time>2020-09-12T09:08:35.000Z</time>
      </trkpt>
      <trkpt lat="47.26309" lon="-1.67228">
        <ele>117</ele>
        <time>2020-09-12T09:08:37.000Z</time>
      </trkpt>
      <trkpt lat="47.26319" lon="-1.67224">
        <ele>117</ele>
        <time>2020-09-12T09:08:39.000Z</time>
      </trkpt>
      <trkpt lat="47.2633" lon="-1.67221">
        <ele>116</ele>
        <time>2020-09-12T09:08:41.000Z</time>
      </trkpt>
      <trkpt lat="47.26341" lon="-1.67217">
        <ele>116</ele>
        <time>2020-09-12T09:08:43.000Z</time>
      </trkpt>
      <trkpt lat="47.26351" lon="-1.67225">
        <ele>116</ele>
        <time>2020-09-12T09:08:45.000Z</time>
      </trkpt>
      <trkpt lat="47.26356" lon="-1.6724">
        <ele>116</ele>
        <time>2020-09-12T09:08:47.000Z</time>
      </trkpt>
      <trkpt lat="47.26359" lon="-1.67256">
        <ele>117</ele>
        <time>2020-09-12T09:08:49.000Z</time>
      </trkpt>
      <trkpt lat="47.26363" lon="-1.67271">
        <ele>117</ele>
        <time>2020-09-12T09:08:51.000Z</time>
      </trkpt>
      <trkpt lat="47.26368" lon="-1.67286">
        <ele>117</ele>
        <time>2020-09-12T09:08:53.000Z</time>
      </trkpt>
      <trkpt lat="47.26378" lon="-1.67293">
        <ele>116</ele>
        <time>2020-09-12T09:08:55.000Z</time>
      </trkpt>
      <trkpt lat="47.26389" lon="-1.67297">
        <ele>114</ele>
        <time>2020-09-12T09:08:57.000Z</time>
      </trkpt>
      <trkpt lat="47.26401" lon="-1.67299">
        <ele>114</ele>
        <time>2020-09-12T09:08:59.000Z</time>
      </trkpt>
      <trkpt lat="47.26412" lon="-1.67302">
        <ele>114</ele>
        <time>2020-09-12T09:09:01.000Z</time>
      </trkpt>
      <trkpt lat="47.26422" lon="-1.67307">
        <ele>115</ele>
        <time>2020-09-12T09:09:03.000Z</time>
      </trkpt>
      <trkpt lat="47.26431" lon="-1.67315">
        <ele>114</ele>
        <time>2020-09-12T09:09:05.000Z</time>
      </trkpt>
      <trkpt lat="47.26442" lon="-1.67316">
        <ele>113</ele>
        <time>2020-09-12T09:09:08.000Z</time>
      </trkpt>
      <trkpt lat="47.26453" lon="-1.67301">
        <ele>114</ele>
        <time>2020-09-12T09:09:12.000Z</time>
      </trkpt>
      <trkpt lat="47.26459" lon="-1.67286">
        <ele>113</ele>
        <time>2020-09-12T09:09:14.000Z</time>
      </trkpt>
      <trkpt lat="47.26465" lon="-1.67271">
        <ele>113</ele>
        <time>2020-09-12T09:09:16.000Z</time>
      </trkpt>
      <trkpt lat="47.26472" lon="-1.67254">
        <ele>113</ele>
        <time>2020-09-12T09:09:18.000Z</time>
      </trkpt>
      <trkpt lat="47.26479" lon="-1.67238">
        <ele>112</ele>
        <time>2020-09-12T09:09:20.000Z</time>
      </trkpt>
      <trkpt lat="47.26487" lon="-1.67221">
        <ele>112</ele>
        <time>2020-09-12T09:09:22.000Z</time>
      </trkpt>
      <trkpt lat="47.26495" lon="-1.67202">
        <ele>111</ele>
        <time>2020-09-12T09:09:24.000Z</time>
      </trkpt>
      <trkpt lat="47.26504" lon="-1.67185">
        <ele>110</ele>
        <time>2020-09-12T09:09:26.000Z</time>
      </trkpt>
      <trkpt lat="47.26514" lon="-1.67168">
        <ele>109</ele>
        <time>2020-09-12T09:09:28.000Z</time>
      </trkpt>
      <trkpt lat="47.26527" lon="-1.67153">
        <ele>108</ele>
        <time>2020-09-12T09:09:30.000Z</time>
      </trkpt>
      <trkpt lat="47.2654" lon="-1.6714">
        <ele>107</ele>
        <time>2020-09-12T09:09:32.000Z</time>
      </trkpt>
      <trkpt lat="47.26555" lon="-1.67128">
        <ele>106</ele>
        <time>2020-09-12T09:09:34.000Z</time>
      </trkpt>
      <trkpt lat="47.2657" lon="-1.67117">
        <ele>105</ele>
        <time>2020-09-12T09:09:36.000Z</time>
      </trkpt>
      <trkpt lat="47.26585" lon="-1.67106">
        <ele>104</ele>
        <time>2020-09-12T09:09:38.000Z</time>
      </trkpt>
      <trkpt lat="47.26593" lon="-1.67099">
        <ele>104</ele>
        <time>2020-09-12T09:09:39.000Z</time>
      </trkpt>
      <trkpt lat="47.26601" lon="-1.67094">
        <ele>103</ele>
        <time>2020-09-12T09:09:40.000Z</time>
      </trkpt>
      <trkpt lat="47.26618" lon="-1.67086">
        <ele>102</ele>
        <time>2020-09-12T09:09:42.000Z</time>
      </trkpt>
      <trkpt lat="47.26634" lon="-1.67075">
        <ele>101</ele>
        <time>2020-09-12T09:09:44.000Z</time>
      </trkpt>
      <trkpt lat="47.26651" lon="-1.67063">
        <ele>100</ele>
        <time>2020-09-12T09:09:46.000Z</time>
      </trkpt>
      <trkpt lat="47.26659" lon="-1.67058">
        <ele>99</ele>
        <time>2020-09-12T09:09:47.000Z</time>
      </trkpt>
      <trkpt lat="47.26667" lon="-1.67052">
        <ele>98</ele>
        <time>2020-09-12T09:09:48.000Z</time>
      </trkpt>
      <trkpt lat="47.26675" lon="-1.67046">
        <ele>97</ele>
        <time>2020-09-12T09:09:49.000Z</time>
      </trkpt>
      <trkpt lat="47.26684" lon="-1.67041">
        <ele>97</ele>
        <time>2020-09-12T09:09:50.000Z</time>
      </trkpt>
      <trkpt lat="47.26692" lon="-1.67035">
        <ele>97</ele>
        <time>2020-09-12T09:09:51.000Z</time>
      </trkpt>
      <trkpt lat="47.26701" lon="-1.6703">
        <ele>96</ele>
        <time>2020-09-12T09:09:52.000Z</time>
      </trkpt>
      <trkpt lat="47.26709" lon="-1.67024">
        <ele>96</ele>
        <time>2020-09-12T09:09:53.000Z</time>
      </trkpt>
      <trkpt lat="47.26726" lon="-1.67014">
        <ele>95</ele>
        <time>2020-09-12T09:09:55.000Z</time>
      </trkpt>
      <trkpt lat="47.26734" lon="-1.67011">
        <ele>94</ele>
        <time>2020-09-12T09:09:56.000Z</time>
      </trkpt>
      <trkpt lat="47.26744" lon="-1.67009">
        <ele>94</ele>
        <time>2020-09-12T09:09:57.000Z</time>
      </trkpt>
      <trkpt lat="47.26754" lon="-1.6701">
        <ele>94</ele>
        <time>2020-09-12T09:09:58.000Z</time>
      </trkpt>
      <trkpt lat="47.26763" lon="-1.67013">
        <ele>94</ele>
        <time>2020-09-12T09:09:59.000Z</time>
      </trkpt>
      <trkpt lat="47.26772" lon="-1.67018">
        <ele>93</ele>
        <time>2020-09-12T09:10:00.000Z</time>
      </trkpt>
      <trkpt lat="47.2678" lon="-1.67024">
        <ele>93</ele>
        <time>2020-09-12T09:10:01.000Z</time>
      </trkpt>
      <trkpt lat="47.26795" lon="-1.6704">
        <ele>93</ele>
        <time>2020-09-12T09:10:03.000Z</time>
      </trkpt>
      <trkpt lat="47.26802" lon="-1.67049">
        <ele>93</ele>
        <time>2020-09-12T09:10:04.000Z</time>
      </trkpt>
      <trkpt lat="47.26809" lon="-1.67059">
        <ele>92</ele>
        <time>2020-09-12T09:10:05.000Z</time>
      </trkpt>
      <trkpt lat="47.26814" lon="-1.67069">
        <ele>92</ele>
        <time>2020-09-12T09:10:06.000Z</time>
      </trkpt>
      <trkpt lat="47.2682" lon="-1.67081">
        <ele>91</ele>
        <time>2020-09-12T09:10:07.000Z</time>
      </trkpt>
      <trkpt lat="47.26826" lon="-1.67092">
        <ele>91</ele>
        <time>2020-09-12T09:10:08.000Z</time>
      </trkpt>
      <trkpt lat="47.26833" lon="-1.671">
        <ele>91</ele>
        <time>2020-09-12T09:10:09.000Z</time>
      </trkpt>
      <trkpt lat="47.26841" lon="-1.67107">
        <ele>91</ele>
        <time>2020-09-12T09:10:10.000Z</time>
      </trkpt>
      <trkpt lat="47.26849" lon="-1.67115">
        <ele>91</ele>
        <time>2020-09-12T09:10:11.000Z</time>
      </trkpt>
      <trkpt lat="47.26856" lon="-1.67124">
        <ele>91</ele>
        <time>2020-09-12T09:10:12.000Z</time>
      </trkpt>
      <trkpt lat="47.26862" lon="-1.67133">
        <ele>91</ele>
        <time>2020-09-12T09:10:13.000Z</time>
      </trkpt>
      <trkpt lat="47.26869" lon="-1.67142">
        <ele>91</ele>
        <time>2020-09-12T09:10:14.000Z</time>
      </trkpt>
      <trkpt lat="47.26883" lon="-1.67156">
        <ele>91</ele>
        <time>2020-09-12T09:10:16.000Z</time>
      </trkpt>
      <trkpt lat="47.269" lon="-1.67162">
        <ele>91</ele>
        <time>2020-09-12T09:10:18.000Z</time>
      </trkpt>
      <trkpt lat="47.26914" lon="-1.67163">
        <ele>90</ele>
        <time>2020-09-12T09:10:20.000Z</time>
      </trkpt>
      <trkpt lat="47.26925" lon="-1.67158">
        <ele>91</ele>
        <time>2020-09-12T09:10:22.000Z</time>
      </trkpt>
      <trkpt lat="47.26936" lon="-1.67152">
        <ele>91</ele>
        <time>2020-09-12T09:10:24.000Z</time>
      </trkpt>
      <trkpt lat="47.26948" lon="-1.67146">
        <ele>91</ele>
        <time>2020-09-12T09:10:26.000Z</time>
      </trkpt>
      <trkpt lat="47.2696" lon="-1.6714">
        <ele>91</ele>
        <time>2020-09-12T09:10:28.000Z</time>
      </trkpt>
      <trkpt lat="47.26972" lon="-1.67135">
        <ele>91</ele>
        <time>2020-09-12T09:10:30.000Z</time>
      </trkpt>
      <trkpt lat="47.26983" lon="-1.67131">
        <ele>92</ele>
        <time>2020-09-12T09:10:32.000Z</time>
      </trkpt>
      <trkpt lat="47.26994" lon="-1.67127">
        <ele>92</ele>
        <time>2020-09-12T09:10:34.000Z</time>
      </trkpt>
      <trkpt lat="47.27005" lon="-1.67124">
        <ele>92</ele>
        <time>2020-09-12T09:10:36.000Z</time>
      </trkpt>
      <trkpt lat="47.27016" lon="-1.67122">
        <ele>92</ele>
        <time>2020-09-12T09:10:38.000Z</time>
      </trkpt>
      <trkpt lat="47.27028" lon="-1.6712">
        <ele>92</ele>
        <time>2020-09-12T09:10:40.000Z</time>
      </trkpt>
      <trkpt lat="47.27039" lon="-1.67118">
        <ele>92</ele>
        <time>2020-09-12T09:10:42.000Z</time>
      </trkpt>
      <trkpt lat="47.2705" lon="-1.67118">
        <ele>92</ele>
        <time>2020-09-12T09:10:44.000Z</time>
      </trkpt>
      <trkpt lat="47.27061" lon="-1.67118">
        <ele>94</ele>
        <time>2020-09-12T09:10:46.000Z</time>
      </trkpt>
      <trkpt lat="47.27072" lon="-1.67118">
        <ele>94</ele>
        <time>2020-09-12T09:10:48.000Z</time>
      </trkpt>
      <trkpt lat="47.27083" lon="-1.6712">
        <ele>95</ele>
        <time>2020-09-12T09:10:50.000Z</time>
      </trkpt>
      <trkpt lat="47.27092" lon="-1.67122">
        <ele>96</ele>
        <time>2020-09-12T09:10:52.000Z</time>
      </trkpt>
      <trkpt lat="47.27101" lon="-1.67125">
        <ele>96</ele>
        <time>2020-09-12T09:10:54.000Z</time>
      </trkpt>
      <trkpt lat="47.27111" lon="-1.67129">
        <ele>96</ele>
        <time>2020-09-12T09:10:56.000Z</time>
      </trkpt>
      <trkpt lat="47.2712" lon="-1.67133">
        <ele>97</ele>
        <time>2020-09-12T09:10:58.000Z</time>
      </trkpt>
      <trkpt lat="47.27129" lon="-1.67137">
        <ele>97</ele>
        <time>2020-09-12T09:11:00.000Z</time>
      </trkpt>
      <trkpt lat="47.27138" lon="-1.67141">
        <ele>98</ele>
        <time>2020-09-12T09:11:02.000Z</time>
      </trkpt>
      <trkpt lat="47.27147" lon="-1.67145">
        <ele>98</ele>
        <time>2020-09-12T09:11:04.000Z</time>
      </trkpt>
      <trkpt lat="47.27157" lon="-1.67148">
        <ele>99</ele>
        <time>2020-09-12T09:11:06.000Z</time>
      </trkpt>
      <trkpt lat="47.27167" lon="-1.67153">
        <ele>100</ele>
        <time>2020-09-12T09:11:08.000Z</time>
      </trkpt>
      <trkpt lat="47.27177" lon="-1.67157">
        <ele>100</ele>
        <time>2020-09-12T09:11:10.000Z</time>
      </trkpt>
      <trkpt lat="47.27187" lon="-1.67162">
        <ele>100</ele>
        <time>2020-09-12T09:11:12.000Z</time>
      </trkpt>
      <trkpt lat="47.27197" lon="-1.67167">
        <ele>101</ele>
        <time>2020-09-12T09:11:14.000Z</time>
      </trkpt>
      <trkpt lat="47.27208" lon="-1.67171">
        <ele>102</ele>
        <time>2020-09-12T09:11:16.000Z</time>
      </trkpt>
      <trkpt lat="47.27219" lon="-1.67175">
        <ele>103</ele>
        <time>2020-09-12T09:11:18.000Z</time>
      </trkpt>
      <trkpt lat="47.27229" lon="-1.67179">
        <ele>104</ele>
        <time>2020-09-12T09:11:20.000Z</time>
      </trkpt>
      <trkpt lat="47.27239" lon="-1.67182">
        <ele>105</ele>
        <time>2020-09-12T09:11:22.000Z</time>
      </trkpt>
      <trkpt lat="47.27249" lon="-1.67187">
        <ele>105</ele>
        <time>2020-09-12T09:11:24.000Z</time>
      </trkpt>
      <trkpt lat="47.27259" lon="-1.67191">
        <ele>107</ele>
        <time>2020-09-12T09:11:26.000Z</time>
      </trkpt>
      <trkpt lat="47.2727" lon="-1.67196">
        <ele>107</ele>
        <time>2020-09-12T09:11:28.000Z</time>
      </trkpt>
      <trkpt lat="47.27281" lon="-1.67201">
        <ele>106</ele>
        <time>2020-09-12T09:11:30.000Z</time>
      </trkpt>
      <trkpt lat="47.27291" lon="-1.67205">
        <ele>107</ele>
        <time>2020-09-12T09:11:32.000Z</time>
      </trkpt>
      <trkpt lat="47.27301" lon="-1.67209">
        <ele>107</ele>
        <time>2020-09-12T09:11:34.000Z</time>
      </trkpt>
      <trkpt lat="47.27311" lon="-1.67212">
        <ele>107</ele>
        <time>2020-09-12T09:11:36.000Z</time>
      </trkpt>
      <trkpt lat="47.27322" lon="-1.67213">
        <ele>107</ele>
        <time>2020-09-12T09:11:38.000Z</time>
      </trkpt>
      <trkpt lat="47.27333" lon="-1.67215">
        <ele>107</ele>
        <time>2020-09-12T09:11:40.000Z</time>
      </trkpt>
      <trkpt lat="47.27344" lon="-1.67215">
        <ele>108</ele>
        <time>2020-09-12T09:11:42.000Z</time>
      </trkpt>
      <trkpt lat="47.27355" lon="-1.67212">
        <ele>108</ele>
        <time>2020-09-12T09:11:44.000Z</time>
      </trkpt>
      <trkpt lat="47.27365" lon="-1.67209">
        <ele>109</ele>
        <time>2020-09-12T09:11:46.000Z</time>
      </trkpt>
      <trkpt lat="47.27374" lon="-1.67204">
        <ele>109</ele>
        <time>2020-09-12T09:11:48.000Z</time>
      </trkpt>
      <trkpt lat="47.27384" lon="-1.67196">
        <ele>109</ele>
        <time>2020-09-12T09:11:50.000Z</time>
      </trkpt>
      <trkpt lat="47.27394" lon="-1.67189">
        <ele>109</ele>
        <time>2020-09-12T09:11:52.000Z</time>
      </trkpt>
      <trkpt lat="47.27403" lon="-1.67181">
        <ele>109</ele>
        <time>2020-09-12T09:11:54.000Z</time>
      </trkpt>
      <trkpt lat="47.27412" lon="-1.67172">
        <ele>110</ele>
        <time>2020-09-12T09:11:56.000Z</time>
      </trkpt>
      <trkpt lat="47.2742" lon="-1.67163">
        <ele>110</ele>
        <time>2020-09-12T09:11:58.000Z</time>
      </trkpt>
      <trkpt lat="47.2743" lon="-1.67155">
        <ele>110</ele>
        <time>2020-09-12T09:12:00.000Z</time>
      </trkpt>
      <trkpt lat="47.27439" lon="-1.67146">
        <ele>110</ele>
        <time>2020-09-12T09:12:02.000Z</time>
      </trkpt>
      <trkpt lat="47.27449" lon="-1.67137">
        <ele>110</ele>
        <time>2020-09-12T09:12:04.000Z</time>
      </trkpt>
      <trkpt lat="47.27458" lon="-1.67128">
        <ele>111</ele>
        <time>2020-09-12T09:12:06.000Z</time>
      </trkpt>
      <trkpt lat="47.27467" lon="-1.6712">
        <ele>111</ele>
        <time>2020-09-12T09:12:08.000Z</time>
      </trkpt>
      <trkpt lat="47.27476" lon="-1.67112">
        <ele>111</ele>
        <time>2020-09-12T09:12:10.000Z</time>
      </trkpt>
      <trkpt lat="47.27485" lon="-1.67104">
        <ele>111</ele>
        <time>2020-09-12T09:12:12.000Z</time>
      </trkpt>
      <trkpt lat="47.27495" lon="-1.67096">
        <ele>110</ele>
        <time>2020-09-12T09:12:14.000Z</time>
      </trkpt>
      <trkpt lat="47.27505" lon="-1.67089">
        <ele>110</ele>
        <time>2020-09-12T09:12:16.000Z</time>
      </trkpt>
      <trkpt lat="47.27514" lon="-1.67081">
        <ele>110</ele>
        <time>2020-09-12T09:12:18.000Z</time>
      </trkpt>
      <trkpt lat="47.27524" lon="-1.67078">
        <ele>110</ele>
        <time>2020-09-12T09:12:20.000Z</time>
      </trkpt>
      <trkpt lat="47.2753" lon="-1.6709">
        <ele>111</ele>
        <time>2020-09-12T09:12:22.000Z</time>
      </trkpt>
      <trkpt lat="47.27533" lon="-1.67106">
        <ele>111</ele>
        <time>2020-09-12T09:12:24.000Z</time>
      </trkpt>
      <trkpt lat="47.27536" lon="-1.67122">
        <ele>112</ele>
        <time>2020-09-12T09:12:26.000Z</time>
      </trkpt>
      <trkpt lat="47.27539" lon="-1.67137">
        <ele>113</ele>
        <time>2020-09-12T09:12:28.000Z</time>
      </trkpt>
      <trkpt lat="47.27542" lon="-1.67153">
        <ele>113</ele>
        <time>2020-09-12T09:12:30.000Z</time>
      </trkpt>
      <trkpt lat="47.27545" lon="-1.67169">
        <ele>114</ele>
        <time>2020-09-12T09:12:32.000Z</time>
      </trkpt>
      <trkpt lat="47.27547" lon="-1.67184">
        <ele>114</ele>
        <time>2020-09-12T09:12:34.000Z</time>
      </trkpt>
      <trkpt lat="47.2755" lon="-1.672">
        <ele>115</ele>
        <time>2020-09-12T09:12:36.000Z</time>
      </trkpt>
      <trkpt lat="47.27554" lon="-1.67216">
        <ele>115</ele>
        <time>2020-09-12T09:12:38.000Z</time>
      </trkpt>
      <trkpt lat="47.27557" lon="-1.67232">
        <ele>115</ele>
        <time>2020-09-12T09:12:40.000Z</time>
      </trkpt>
      <trkpt lat="47.2756" lon="-1.67247">
        <ele>116</ele>
        <time>2020-09-12T09:12:42.000Z</time>
      </trkpt>
      <trkpt lat="47.27563" lon="-1.67264">
        <ele>116</ele>
        <time>2020-09-12T09:12:44.000Z</time>
      </trkpt>
      <trkpt lat="47.27568" lon="-1.6728">
        <ele>116</ele>
        <time>2020-09-12T09:12:46.000Z</time>
      </trkpt>
      <trkpt lat="47.27575" lon="-1.67295">
        <ele>116</ele>
        <time>2020-09-12T09:12:48.000Z</time>
      </trkpt>
      <trkpt lat="47.27583" lon="-1.67308">
        <ele>116</ele>
        <time>2020-09-12T09:12:50.000Z</time>
      </trkpt>
      <trkpt lat="47.27592" lon="-1.67321">
        <ele>116</ele>
        <time>2020-09-12T09:12:52.000Z</time>
      </trkpt>
      <trkpt lat="47.27601" lon="-1.67333">
        <ele>116</ele>
        <time>2020-09-12T09:12:54.000Z</time>
      </trkpt>
      <trkpt lat="47.2761" lon="-1.67345">
        <ele>117</ele>
        <time>2020-09-12T09:12:56.000Z</time>
      </trkpt>
      <trkpt lat="47.27619" lon="-1.67359">
        <ele>117</ele>
        <time>2020-09-12T09:12:58.000Z</time>
      </trkpt>
      <trkpt lat="47.27629" lon="-1.67372">
        <ele>117</ele>
        <time>2020-09-12T09:13:00.000Z</time>
      </trkpt>
      <trkpt lat="47.27639" lon="-1.67383">
        <ele>117</ele>
        <time>2020-09-12T09:13:02.000Z</time>
      </trkpt>
      <trkpt lat="47.27651" lon="-1.67393">
        <ele>117</ele>
        <time>2020-09-12T09:13:04.000Z</time>
      </trkpt>
      <trkpt lat="47.27664" lon="-1.67399">
        <ele>117</ele>
        <time>2020-09-12T09:13:06.000Z</time>
      </trkpt>
      <trkpt lat="47.27676" lon="-1.67404">
        <ele>116</ele>
        <time>2020-09-12T09:13:08.000Z</time>
      </trkpt>
      <trkpt lat="47.27689" lon="-1.67407">
        <ele>116</ele>
        <time>2020-09-12T09:13:10.000Z</time>
      </trkpt>
      <trkpt lat="47.27702" lon="-1.67411">
        <ele>116</ele>
        <time>2020-09-12T09:13:12.000Z</time>
      </trkpt>
      <trkpt lat="47.27715" lon="-1.67416">
        <ele>116</ele>
        <time>2020-09-12T09:13:14.000Z</time>
      </trkpt>
      <trkpt lat="47.27729" lon="-1.67419">
        <ele>115</ele>
        <time>2020-09-12T09:13:16.000Z</time>
      </trkpt>
      <trkpt lat="47.27743" lon="-1.67422">
        <ele>115</ele>
        <time>2020-09-12T09:13:18.000Z</time>
      </trkpt>
      <trkpt lat="47.27757" lon="-1.67425">
        <ele>114</ele>
        <time>2020-09-12T09:13:20.000Z</time>
      </trkpt>
      <trkpt lat="47.27771" lon="-1.67427">
        <ele>114</ele>
        <time>2020-09-12T09:13:22.000Z</time>
      </trkpt>
      <trkpt lat="47.27786" lon="-1.6743">
        <ele>113</ele>
        <time>2020-09-12T09:13:24.000Z</time>
      </trkpt>
      <trkpt lat="47.27801" lon="-1.67431">
        <ele>112</ele>
        <time>2020-09-12T09:13:26.000Z</time>
      </trkpt>
      <trkpt lat="47.27816" lon="-1.67431">
        <ele>111</ele>
        <time>2020-09-12T09:13:28.000Z</time>
      </trkpt>
      <trkpt lat="47.27832" lon="-1.67431">
        <ele>110</ele>
        <time>2020-09-12T09:13:30.000Z</time>
      </trkpt>
      <trkpt lat="47.27847" lon="-1.6743">
        <ele>108</ele>
        <time>2020-09-12T09:13:32.000Z</time>
      </trkpt>
      <trkpt lat="47.27863" lon="-1.6743">
        <ele>107</ele>
        <time>2020-09-12T09:13:34.000Z</time>
      </trkpt>
      <trkpt lat="47.27879" lon="-1.6743">
        <ele>107</ele>
        <time>2020-09-12T09:13:36.000Z</time>
      </trkpt>
      <trkpt lat="47.27895" lon="-1.67431">
        <ele>107</ele>
        <time>2020-09-12T09:13:38.000Z</time>
      </trkpt>
      <trkpt lat="47.27912" lon="-1.67433">
        <ele>106</ele>
        <time>2020-09-12T09:13:40.000Z</time>
      </trkpt>
      <trkpt lat="47.27928" lon="-1.67436">
        <ele>105</ele>
        <time>2020-09-12T09:13:42.000Z</time>
      </trkpt>
      <trkpt lat="47.27944" lon="-1.67441">
        <ele>106</ele>
        <time>2020-09-12T09:13:44.000Z</time>
      </trkpt>
      <trkpt lat="47.2796" lon="-1.67446">
        <ele>106</ele>
        <time>2020-09-12T09:13:46.000Z</time>
      </trkpt>
      <trkpt lat="47.27975" lon="-1.67452">
        <ele>106</ele>
        <time>2020-09-12T09:13:48.000Z</time>
      </trkpt>
      <trkpt lat="47.2799" lon="-1.67459">
        <ele>106</ele>
        <time>2020-09-12T09:13:50.000Z</time>
      </trkpt>
      <trkpt lat="47.28004" lon="-1.67467">
        <ele>107</ele>
        <time>2020-09-12T09:13:52.000Z</time>
      </trkpt>
      <trkpt lat="47.28017" lon="-1.67477">
        <ele>107</ele>
        <time>2020-09-12T09:13:54.000Z</time>
      </trkpt>
      <trkpt lat="47.28029" lon="-1.67484">
        <ele>107</ele>
        <time>2020-09-12T09:13:56.000Z</time>
      </trkpt>
      <trkpt lat="47.28042" lon="-1.67491">
        <ele>107</ele>
        <time>2020-09-12T09:13:58.000Z</time>
      </trkpt>
      <trkpt lat="47.28054" lon="-1.67497">
        <ele>108</ele>
        <time>2020-09-12T09:14:00.000Z</time>
      </trkpt>
      <trkpt lat="47.28066" lon="-1.67504">
        <ele>108</ele>
        <time>2020-09-12T09:14:02.000Z</time>
      </trkpt>
      <trkpt lat="47.28078" lon="-1.67511">
        <ele>109</ele>
        <time>2020-09-12T09:14:04.000Z</time>
      </trkpt>
      <trkpt lat="47.2809" lon="-1.67518">
        <ele>110</ele>
        <time>2020-09-12T09:14:06.000Z</time>
      </trkpt>
      <trkpt lat="47.28102" lon="-1.67526">
        <ele>110</ele>
        <time>2020-09-12T09:14:08.000Z</time>
      </trkpt>
      <trkpt lat="47.28114" lon="-1.67533">
        <ele>110</ele>
        <time>2020-09-12T09:14:10.000Z</time>
      </trkpt>
      <trkpt lat="47.28125" lon="-1.6754">
        <ele>110</ele>
        <time>2020-09-12T09:14:12.000Z</time>
      </trkpt>
      <trkpt lat="47.28137" lon="-1.67546">
        <ele>110</ele>
        <time>2020-09-12T09:14:14.000Z</time>
      </trkpt>
      <trkpt lat="47.28149" lon="-1.67553">
        <ele>110</ele>
        <time>2020-09-12T09:14:16.000Z</time>
      </trkpt>
      <trkpt lat="47.28161" lon="-1.6756">
        <ele>111</ele>
        <time>2020-09-12T09:14:18.000Z</time>
      </trkpt>
      <trkpt lat="47.28174" lon="-1.67566">
        <ele>111</ele>
        <time>2020-09-12T09:14:20.000Z</time>
      </trkpt>
      <trkpt lat="47.28186" lon="-1.67574">
        <ele>110</ele>
        <time>2020-09-12T09:14:22.000Z</time>
      </trkpt>
      <trkpt lat="47.28198" lon="-1.67581">
        <ele>111</ele>
        <time>2020-09-12T09:14:24.000Z</time>
      </trkpt>
      <trkpt lat="47.28209" lon="-1.67589">
        <ele>111</ele>
        <time>2020-09-12T09:14:26.000Z</time>
      </trkpt>
      <trkpt lat="47.28221" lon="-1.67596">
        <ele>111</ele>
        <time>2020-09-12T09:14:28.000Z</time>
      </trkpt>
      <trkpt lat="47.28232" lon="-1.67603">
        <ele>111</ele>
        <time>2020-09-12T09:14:30.000Z</time>
      </trkpt>
      <trkpt lat="47.28245" lon="-1.6761">
        <ele>110</ele>
        <time>2020-09-12T09:14:32.000Z</time>
      </trkpt>
      <trkpt lat="47.28257" lon="-1.67614">
        <ele>110</ele>
        <time>2020-09-12T09:14:34.000Z</time>
      </trkpt>
      <trkpt lat="47.2827" lon="-1.67617">
        <ele>109</ele>
        <time>2020-09-12T09:14:36.000Z</time>
      </trkpt>
      <trkpt lat="47.28284" lon="-1.67618">
        <ele>108</ele>
        <time>2020-09-12T09:14:38.000Z</time>
      </trkpt>
      <trkpt lat="47.28298" lon="-1.67617">
        <ele>107</ele>
        <time>2020-09-12T09:14:40.000Z</time>
      </trkpt>
      <trkpt lat="47.28311" lon="-1.67615">
        <ele>106</ele>
        <time>2020-09-12T09:14:42.000Z</time>
      </trkpt>
      <trkpt lat="47.28324" lon="-1.67613">
        <ele>106</ele>
        <time>2020-09-12T09:14:44.000Z</time>
      </trkpt>
      <trkpt lat="47.28338" lon="-1.67611">
        <ele>105</ele>
        <time>2020-09-12T09:14:46.000Z</time>
      </trkpt>
      <trkpt lat="47.28351" lon="-1.67609">
        <ele>105</ele>
        <time>2020-09-12T09:14:48.000Z</time>
      </trkpt>
      <trkpt lat="47.28364" lon="-1.67607">
        <ele>105</ele>
        <time>2020-09-12T09:14:50.000Z</time>
      </trkpt>
      <trkpt lat="47.28377" lon="-1.67605">
        <ele>105</ele>
        <time>2020-09-12T09:14:52.000Z</time>
      </trkpt>
      <trkpt lat="47.2839" lon="-1.67603">
        <ele>105</ele>
        <time>2020-09-12T09:14:54.000Z</time>
      </trkpt>
      <trkpt lat="47.28403" lon="-1.67601">
        <ele>105</ele>
        <time>2020-09-12T09:14:56.000Z</time>
      </trkpt>
      <trkpt lat="47.28416" lon="-1.676">
        <ele>105</ele>
        <time>2020-09-12T09:14:58.000Z</time>
      </trkpt>
      <trkpt lat="47.28429" lon="-1.67599">
        <ele>104</ele>
        <time>2020-09-12T09:15:00.000Z</time>
      </trkpt>
      <trkpt lat="47.28442" lon="-1.676">
        <ele>104</ele>
        <time>2020-09-12T09:15:02.000Z</time>
      </trkpt>
      <trkpt lat="47.28455" lon="-1.67604">
        <ele>104</ele>
        <time>2020-09-12T09:15:04.000Z</time>
      </trkpt>
      <trkpt lat="47.28467" lon="-1.67608">
        <ele>105</ele>
        <time>2020-09-12T09:15:06.000Z</time>
      </trkpt>
      <trkpt lat="47.2848" lon="-1.67613">
        <ele>105</ele>
        <time>2020-09-12T09:15:08.000Z</time>
      </trkpt>
      <trkpt lat="47.28493" lon="-1.67617">
        <ele>105</ele>
        <time>2020-09-12T09:15:10.000Z</time>
      </trkpt>
      <trkpt lat="47.28505" lon="-1.67621">
        <ele>105</ele>
        <time>2020-09-12T09:15:12.000Z</time>
      </trkpt>
      <trkpt lat="47.28518" lon="-1.67623">
        <ele>106</ele>
        <time>2020-09-12T09:15:14.000Z</time>
      </trkpt>
      <trkpt lat="47.2853" lon="-1.67622">
        <ele>106</ele>
        <time>2020-09-12T09:15:16.000Z</time>
      </trkpt>
      <trkpt lat="47.28543" lon="-1.67618">
        <ele>106</ele>
        <time>2020-09-12T09:15:18.000Z</time>
      </trkpt>
      <trkpt lat="47.28556" lon="-1.67612">
        <ele>106</ele>
        <time>2020-09-12T09:15:20.000Z</time>
      </trkpt>
      <trkpt lat="47.28569" lon="-1.67605">
        <ele>106</ele>
        <time>2020-09-12T09:15:22.000Z</time>
      </trkpt>
      <trkpt lat="47.28581" lon="-1.67599">
        <ele>105</ele>
        <time>2020-09-12T09:15:24.000Z</time>
      </trkpt>
      <trkpt lat="47.28594" lon="-1.67592">
        <ele>104</ele>
        <time>2020-09-12T09:15:26.000Z</time>
      </trkpt>
      <trkpt lat="47.28607" lon="-1.67585">
        <ele>104</ele>
        <time>2020-09-12T09:15:28.000Z</time>
      </trkpt>
      <trkpt lat="47.28621" lon="-1.6758">
        <ele>103</ele>
        <time>2020-09-12T09:15:30.000Z</time>
      </trkpt>
      <trkpt lat="47.28635" lon="-1.67577">
        <ele>103</ele>
        <time>2020-09-12T09:15:32.000Z</time>
      </trkpt>
      <trkpt lat="47.28648" lon="-1.67577">
        <ele>103</ele>
        <time>2020-09-12T09:15:34.000Z</time>
      </trkpt>
      <trkpt lat="47.28661" lon="-1.67581">
        <ele>103</ele>
        <time>2020-09-12T09:15:36.000Z</time>
      </trkpt>
      <trkpt lat="47.28674" lon="-1.67588">
        <ele>102</ele>
        <time>2020-09-12T09:15:38.000Z</time>
      </trkpt>
      <trkpt lat="47.28687" lon="-1.67596">
        <ele>102</ele>
        <time>2020-09-12T09:15:40.000Z</time>
      </trkpt>
      <trkpt lat="47.28701" lon="-1.67604">
        <ele>102</ele>
        <time>2020-09-12T09:15:42.000Z</time>
      </trkpt>
      <trkpt lat="47.28713" lon="-1.67612">
        <ele>102</ele>
        <time>2020-09-12T09:15:44.000Z</time>
      </trkpt>
      <trkpt lat="47.28726" lon="-1.67619">
        <ele>103</ele>
        <time>2020-09-12T09:15:46.000Z</time>
      </trkpt>
      <trkpt lat="47.28737" lon="-1.67627">
        <ele>104</ele>
        <time>2020-09-12T09:15:48.000Z</time>
      </trkpt>
      <trkpt lat="47.28747" lon="-1.67629">
        <ele>103</ele>
        <time>2020-09-12T09:15:50.000Z</time>
      </trkpt>
      <trkpt lat="47.28757" lon="-1.67614">
        <ele>103</ele>
        <time>2020-09-12T09:15:53.000Z</time>
      </trkpt>
      <trkpt lat="47.28761" lon="-1.67597">
        <ele>104</ele>
        <time>2020-09-12T09:15:55.000Z</time>
      </trkpt>
      <trkpt lat="47.28765" lon="-1.6758">
        <ele>105</ele>
        <time>2020-09-12T09:15:57.000Z</time>
      </trkpt>
      <trkpt lat="47.2877" lon="-1.67563">
        <ele>104</ele>
        <time>2020-09-12T09:15:59.000Z</time>
      </trkpt>
      <trkpt lat="47.28774" lon="-1.67546">
        <ele>105</ele>
        <time>2020-09-12T09:16:01.000Z</time>
      </trkpt>
      <trkpt lat="47.28778" lon="-1.6753">
        <ele>105</ele>
        <time>2020-09-12T09:16:03.000Z</time>
      </trkpt>
      <trkpt lat="47.28782" lon="-1.67513">
        <ele>105</ele>
        <time>2020-09-12T09:16:05.000Z</time>
      </trkpt>
      <trkpt lat="47.28786" lon="-1.67497">
        <ele>105</ele>
        <time>2020-09-12T09:16:07.000Z</time>
      </trkpt>
      <trkpt lat="47.2879" lon="-1.6748">
        <ele>105</ele>
        <time>2020-09-12T09:16:09.000Z</time>
      </trkpt>
      <trkpt lat="47.28794" lon="-1.67464">
        <ele>106</ele>
        <time>2020-09-12T09:16:11.000Z</time>
      </trkpt>
      <trkpt lat="47.28799" lon="-1.67449">
        <ele>107</ele>
        <time>2020-09-12T09:16:13.000Z</time>
      </trkpt>
      <trkpt lat="47.28804" lon="-1.67433">
        <ele>107</ele>
        <time>2020-09-12T09:16:15.000Z</time>
      </trkpt>
      <trkpt lat="47.2881" lon="-1.67417">
        <ele>107</ele>
        <time>2020-09-12T09:16:17.000Z</time>
      </trkpt>
      <trkpt lat="47.28815" lon="-1.67402">
        <ele>107</ele>
        <time>2020-09-12T09:16:19.000Z</time>
      </trkpt>
      <trkpt lat="47.2882" lon="-1.67387">
        <ele>107</ele>
        <time>2020-09-12T09:16:21.000Z</time>
      </trkpt>
      <trkpt lat="47.28826" lon="-1.67372">
        <ele>107</ele>
        <time>2020-09-12T09:16:23.000Z</time>
      </trkpt>
      <trkpt lat="47.28832" lon="-1.67359">
        <ele>108</ele>
        <time>2020-09-12T09:16:25.000Z</time>
      </trkpt>
      <trkpt lat="47.28841" lon="-1.67348">
        <ele>108</ele>
        <time>2020-09-12T09:16:27.000Z</time>
      </trkpt>
      <trkpt lat="47.28852" lon="-1.67342">
        <ele>107</ele>
        <time>2020-09-12T09:16:29.000Z</time>
      </trkpt>
      <trkpt lat="47.28864" lon="-1.67338">
        <ele>107</ele>
        <time>2020-09-12T09:16:31.000Z</time>
      </trkpt>
      <trkpt lat="47.28875" lon="-1.67336">
        <ele>107</ele>
        <time>2020-09-12T09:16:33.000Z</time>
      </trkpt>
      <trkpt lat="47.28887" lon="-1.67335">
        <ele>107</ele>
        <time>2020-09-12T09:16:35.000Z</time>
      </trkpt>
      <trkpt lat="47.28899" lon="-1.67333">
        <ele>106</ele>
        <time>2020-09-12T09:16:37.000Z</time>
      </trkpt>
      <trkpt lat="47.28911" lon="-1.67333">
        <ele>107</ele>
        <time>2020-09-12T09:16:39.000Z</time>
      </trkpt>
      <trkpt lat="47.28922" lon="-1.67335">
        <ele>107</ele>
        <time>2020-09-12T09:16:41.000Z</time>
      </trkpt>
      <trkpt lat="47.28933" lon="-1.67338">
        <ele>107</ele>
        <time>2020-09-12T09:16:43.000Z</time>
      </trkpt>
      <trkpt lat="47.28944" lon="-1.67342">
        <ele>108</ele>
        <time>2020-09-12T09:16:45.000Z</time>
      </trkpt>
      <trkpt lat="47.28955" lon="-1.67347">
        <ele>107</ele>
        <time>2020-09-12T09:16:47.000Z</time>
      </trkpt>
      <trkpt lat="47.28966" lon="-1.67353">
        <ele>107</ele>
        <time>2020-09-12T09:16:49.000Z</time>
      </trkpt>
      <trkpt lat="47.28978" lon="-1.67357">
        <ele>107</ele>
        <time>2020-09-12T09:16:51.000Z</time>
      </trkpt>
      <trkpt lat="47.2899" lon="-1.67358">
        <ele>107</ele>
        <time>2020-09-12T09:16:53.000Z</time>
      </trkpt>
      <trkpt lat="47.29002" lon="-1.67357">
        <ele>107</ele>
        <time>2020-09-12T09:16:55.000Z</time>
      </trkpt>
      <trkpt lat="47.29013" lon="-1.67354">
        <ele>107</ele>
        <time>2020-09-12T09:16:57.000Z</time>
      </trkpt>
      <trkpt lat="47.29024" lon="-1.67351">
        <ele>106</ele>
        <time>2020-09-12T09:16:59.000Z</time>
      </trkpt>
      <trkpt lat="47.29034" lon="-1.67347">
        <ele>106</ele>
        <time>2020-09-12T09:17:01.000Z</time>
      </trkpt>
      <trkpt lat="47.29045" lon="-1.67343">
        <ele>106</ele>
        <time>2020-09-12T09:17:03.000Z</time>
      </trkpt>
      <trkpt lat="47.29057" lon="-1.67339">
        <ele>106</ele>
        <time>2020-09-12T09:17:05.000Z</time>
      </trkpt>
      <trkpt lat="47.29068" lon="-1.67334">
        <ele>106</ele>
        <time>2020-09-12T09:17:07.000Z</time>
      </trkpt>
      <trkpt lat="47.2908" lon="-1.6733">
        <ele>106</ele>
        <time>2020-09-12T09:17:09.000Z</time>
      </trkpt>
      <trkpt lat="47.29091" lon="-1.67326">
        <ele>107</ele>
        <time>2020-09-12T09:17:11.000Z</time>
      </trkpt>
      <trkpt lat="47.29102" lon="-1.67321">
        <ele>107</ele>
        <time>2020-09-12T09:17:13.000Z</time>
      </trkpt>
      <trkpt lat="47.29112" lon="-1.67319">
        <ele>108</ele>
        <time>2020-09-12T09:17:15.000Z</time>
      </trkpt>
      <trkpt lat="47.29122" lon="-1.67317">
        <ele>108</ele>
        <time>2020-09-12T09:17:17.000Z</time>
      </trkpt>
      <trkpt lat="47.29133" lon="-1.67316">
        <ele>108</ele>
        <time>2020-09-12T09:17:19.000Z</time>
      </trkpt>
      <trkpt lat="47.29145" lon="-1.67315">
        <ele>108</ele>
        <time>2020-09-12T09:17:21.000Z</time>
      </trkpt>
      <trkpt lat="47.29156" lon="-1.67316">
        <ele>110</ele>
        <time>2020-09-12T09:17:23.000Z</time>
      </trkpt>
      <trkpt lat="47.29166" lon="-1.67318">
        <ele>111</ele>
        <time>2020-09-12T09:17:25.000Z</time>
      </trkpt>
      <trkpt lat="47.29176" lon="-1.67321">
        <ele>111</ele>
        <time>2020-09-12T09:17:27.000Z</time>
      </trkpt>
      <trkpt lat="47.29186" lon="-1.67324">
        <ele>112</ele>
        <time>2020-09-12T09:17:29.000Z</time>
      </trkpt>
      <trkpt lat="47.29196" lon="-1.67326">
        <ele>111</ele>
        <time>2020-09-12T09:17:31.000Z</time>
      </trkpt>
      <trkpt lat="47.29206" lon="-1.67328">
        <ele>111</ele>
        <time>2020-09-12T09:17:33.000Z</time>
      </trkpt>
      <trkpt lat="47.29216" lon="-1.6733">
        <ele>111</ele>
        <time>2020-09-12T09:17:35.000Z</time>
      </trkpt>
      <trkpt lat="47.29227" lon="-1.6733">
        <ele>111</ele>
        <time>2020-09-12T09:17:37.000Z</time>
      </trkpt>
      <trkpt lat="47.29238" lon="-1.6733">
        <ele>111</ele>
        <time>2020-09-12T09:17:39.000Z</time>
      </trkpt>
      <trkpt lat="47.29249" lon="-1.67329">
        <ele>111</ele>
        <time>2020-09-12T09:17:41.000Z</time>
      </trkpt>
      <trkpt lat="47.2926" lon="-1.67326">
        <ele>110</ele>
        <time>2020-09-12T09:17:43.000Z</time>
      </trkpt>
      <trkpt lat="47.29271" lon="-1.6732">
        <ele>110</ele>
        <time>2020-09-12T09:17:45.000Z</time>
      </trkpt>
      <trkpt lat="47.29281" lon="-1.67311">
        <ele>110</ele>
        <time>2020-09-12T09:17:47.000Z</time>
      </trkpt>
      <trkpt lat="47.2929" lon="-1.67299">
        <ele>111</ele>
        <time>2020-09-12T09:17:49.000Z</time>
      </trkpt>
      <trkpt lat="47.29297" lon="-1.67285">
        <ele>112</ele>
        <time>2020-09-12T09:17:51.000Z</time>
      </trkpt>
      <trkpt lat="47.29304" lon="-1.6727">
        <ele>113</ele>
        <time>2020-09-12T09:17:53.000Z</time>
      </trkpt>
      <trkpt lat="47.29312" lon="-1.67255">
        <ele>114</ele>
        <time>2020-09-12T09:17:55.000Z</time>
      </trkpt>
      <trkpt lat="47.29319" lon="-1.67241">
        <ele>114</ele>
        <time>2020-09-12T09:17:57.000Z</time>
      </trkpt>
      <trkpt lat="47.29325" lon="-1.67227">
        <ele>114</ele>
        <time>2020-09-12T09:17:59.000Z</time>
      </trkpt>
      <trkpt lat="47.29332" lon="-1.67213">
        <ele>114</ele>
        <time>2020-09-12T09:18:01.000Z</time>
      </trkpt>
      <trkpt lat="47.2934" lon="-1.67198">
        <ele>114</ele>
        <time>2020-09-12T09:18:03.000Z</time>
      </trkpt>
      <trkpt lat="47.29347" lon="-1.67184">
        <ele>114</ele>
        <time>2020-09-12T09:18:05.000Z</time>
      </trkpt>
      <trkpt lat="47.29354" lon="-1.67169">
        <ele>114</ele>
        <time>2020-09-12T09:18:07.000Z</time>
      </trkpt>
      <trkpt lat="47.29361" lon="-1.67156">
        <ele>114</ele>
        <time>2020-09-12T09:18:09.000Z</time>
      </trkpt>
      <trkpt lat="47.29368" lon="-1.67141">
        <ele>114</ele>
        <time>2020-09-12T09:18:11.000Z</time>
      </trkpt>
      <trkpt lat="47.29375" lon="-1.67126">
        <ele>115</ele>
        <time>2020-09-12T09:18:13.000Z</time>
      </trkpt>
      <trkpt lat="47.29383" lon="-1.67112">
        <ele>115</ele>
        <time>2020-09-12T09:18:15.000Z</time>
      </trkpt>
      <trkpt lat="47.2939" lon="-1.67097">
        <ele>115</ele>
        <time>2020-09-12T09:18:17.000Z</time>
      </trkpt>
      <trkpt lat="47.29397" lon="-1.67083">
        <ele>115</ele>
        <time>2020-09-12T09:18:19.000Z</time>
      </trkpt>
      <trkpt lat="47.29405" lon="-1.67068">
        <ele>115</ele>
        <time>2020-09-12T09:18:21.000Z</time>
      </trkpt>
      <trkpt lat="47.29412" lon="-1.67053">
        <ele>115</ele>
        <time>2020-09-12T09:18:23.000Z</time>
      </trkpt>
      <trkpt lat="47.29419" lon="-1.67038">
        <ele>116</ele>
        <time>2020-09-12T09:18:25.000Z</time>
      </trkpt>
      <trkpt lat="47.29427" lon="-1.67024">
        <ele>116</ele>
        <time>2020-09-12T09:18:27.000Z</time>
      </trkpt>
      <trkpt lat="47.29434" lon="-1.6701">
        <ele>116</ele>
        <time>2020-09-12T09:18:29.000Z</time>
      </trkpt>
      <trkpt lat="47.29442" lon="-1.66997">
        <ele>116</ele>
        <time>2020-09-12T09:18:31.000Z</time>
      </trkpt>
      <trkpt lat="47.29451" lon="-1.66984">
        <ele>116</ele>
        <time>2020-09-12T09:18:33.000Z</time>
      </trkpt>
      <trkpt lat="47.29462" lon="-1.66976">
        <ele>116</ele>
        <time>2020-09-12T09:18:35.000Z</time>
      </trkpt>
      <trkpt lat="47.29473" lon="-1.66969">
        <ele>116</ele>
        <time>2020-09-12T09:18:37.000Z</time>
      </trkpt>
      <trkpt lat="47.29484" lon="-1.66962">
        <ele>115</ele>
        <time>2020-09-12T09:18:39.000Z</time>
      </trkpt>
      <trkpt lat="47.29495" lon="-1.66956">
        <ele>115</ele>
        <time>2020-09-12T09:18:41.000Z</time>
      </trkpt>
      <trkpt lat="47.29507" lon="-1.66949">
        <ele>116</ele>
        <time>2020-09-12T09:18:43.000Z</time>
      </trkpt>
      <trkpt lat="47.29519" lon="-1.66943">
        <ele>115</ele>
        <time>2020-09-12T09:18:45.000Z</time>
      </trkpt>
      <trkpt lat="47.29531" lon="-1.66936">
        <ele>114</ele>
        <time>2020-09-12T09:18:47.000Z</time>
      </trkpt>
      <trkpt lat="47.29544" lon="-1.6693">
        <ele>114</ele>
        <time>2020-09-12T09:18:49.000Z</time>
      </trkpt>
      <trkpt lat="47.29556" lon="-1.66923">
        <ele>113</ele>
        <time>2020-09-12T09:18:51.000Z</time>
      </trkpt>
      <trkpt lat="47.29569" lon="-1.66916">
        <ele>113</ele>
        <time>2020-09-12T09:18:53.000Z</time>
      </trkpt>
      <trkpt lat="47.29582" lon="-1.66908">
        <ele>112</ele>
        <time>2020-09-12T09:18:55.000Z</time>
      </trkpt>
      <trkpt lat="47.29595" lon="-1.669">
        <ele>111</ele>
        <time>2020-09-12T09:18:57.000Z</time>
      </trkpt>
      <trkpt lat="47.29609" lon="-1.66893">
        <ele>110</ele>
        <time>2020-09-12T09:18:59.000Z</time>
      </trkpt>
      <trkpt lat="47.29623" lon="-1.66885">
        <ele>110</ele>
        <time>2020-09-12T09:19:01.000Z</time>
      </trkpt>
      <trkpt lat="47.29636" lon="-1.66877">
        <ele>110</ele>
        <time>2020-09-12T09:19:03.000Z</time>
      </trkpt>
      <trkpt lat="47.29649" lon="-1.66867">
        <ele>110</ele>
        <time>2020-09-12T09:19:05.000Z</time>
      </trkpt>
      <trkpt lat="47.29662" lon="-1.66854">
        <ele>110</ele>
        <time>2020-09-12T09:19:07.000Z</time>
      </trkpt>
      <trkpt lat="47.29673" lon="-1.6684">
        <ele>110</ele>
        <time>2020-09-12T09:19:09.000Z</time>
      </trkpt>
      <trkpt lat="47.29683" lon="-1.66824">
        <ele>110</ele>
        <time>2020-09-12T09:19:11.000Z</time>
      </trkpt>
      <trkpt lat="47.29692" lon="-1.66808">
        <ele>110</ele>
        <time>2020-09-12T09:19:13.000Z</time>
      </trkpt>
      <trkpt lat="47.29701" lon="-1.66792">
        <ele>110</ele>
        <time>2020-09-12T09:19:15.000Z</time>
      </trkpt>
      <trkpt lat="47.2971" lon="-1.66777">
        <ele>111</ele>
        <time>2020-09-12T09:19:17.000Z</time>
      </trkpt>
      <trkpt lat="47.29719" lon="-1.66763">
        <ele>111</ele>
        <time>2020-09-12T09:19:19.000Z</time>
      </trkpt>
      <trkpt lat="47.29727" lon="-1.66749">
        <ele>111</ele>
        <time>2020-09-12T09:19:21.000Z</time>
      </trkpt>
      <trkpt lat="47.29736" lon="-1.66734">
        <ele>111</ele>
        <time>2020-09-12T09:19:23.000Z</time>
      </trkpt>
      <trkpt lat="47.29745" lon="-1.66719">
        <ele>111</ele>
        <time>2020-09-12T09:19:25.000Z</time>
      </trkpt>
      <trkpt lat="47.29755" lon="-1.66705">
        <ele>111</ele>
        <time>2020-09-12T09:19:27.000Z</time>
      </trkpt>
      <trkpt lat="47.29765" lon="-1.66691">
        <ele>111</ele>
        <time>2020-09-12T09:19:29.000Z</time>
      </trkpt>
      <trkpt lat="47.29776" lon="-1.66679">
        <ele>111</ele>
        <time>2020-09-12T09:19:31.000Z</time>
      </trkpt>
      <trkpt lat="47.29786" lon="-1.66667">
        <ele>112</ele>
        <time>2020-09-12T09:19:33.000Z</time>
      </trkpt>
      <trkpt lat="47.29795" lon="-1.66657">
        <ele>112</ele>
        <time>2020-09-12T09:19:35.000Z</time>
      </trkpt>
      <trkpt lat="47.29805" lon="-1.66646">
        <ele>112</ele>
        <time>2020-09-12T09:19:37.000Z</time>
      </trkpt>
      <trkpt lat="47.29815" lon="-1.66635">
        <ele>113</ele>
        <time>2020-09-12T09:19:39.000Z</time>
      </trkpt>
      <trkpt lat="47.29825" lon="-1.66624">
        <ele>113</ele>
        <time>2020-09-12T09:19:41.000Z</time>
      </trkpt>
      <trkpt lat="47.29836" lon="-1.66613">
        <ele>114</ele>
        <time>2020-09-12T09:19:43.000Z</time>
      </trkpt>
      <trkpt lat="47.29846" lon="-1.66603">
        <ele>114</ele>
        <time>2020-09-12T09:19:45.000Z</time>
      </trkpt>
      <trkpt lat="47.29856" lon="-1.66591">
        <ele>114</ele>
        <time>2020-09-12T09:19:47.000Z</time>
      </trkpt>
      <trkpt lat="47.29866" lon="-1.66576">
        <ele>115</ele>
        <time>2020-09-12T09:19:49.000Z</time>
      </trkpt>
      <trkpt lat="47.29875" lon="-1.66563">
        <ele>115</ele>
        <time>2020-09-12T09:19:51.000Z</time>
      </trkpt>
      <trkpt lat="47.29883" lon="-1.6655">
        <ele>115</ele>
        <time>2020-09-12T09:19:53.000Z</time>
      </trkpt>
      <trkpt lat="47.29892" lon="-1.66536">
        <ele>115</ele>
        <time>2020-09-12T09:19:55.000Z</time>
      </trkpt>
      <trkpt lat="47.299" lon="-1.66523">
        <ele>115</ele>
        <time>2020-09-12T09:19:57.000Z</time>
      </trkpt>
      <trkpt lat="47.29908" lon="-1.66509">
        <ele>115</ele>
        <time>2020-09-12T09:19:59.000Z</time>
      </trkpt>
      <trkpt lat="47.29916" lon="-1.66496">
        <ele>115</ele>
        <time>2020-09-12T09:20:01.000Z</time>
      </trkpt>
      <trkpt lat="47.29923" lon="-1.66484">
        <ele>115</ele>
        <time>2020-09-12T09:20:03.000Z</time>
      </trkpt>
      <trkpt lat="47.29929" lon="-1.66473">
        <ele>115</ele>
        <time>2020-09-12T09:20:05.000Z</time>
      </trkpt>
      <trkpt lat="47.29935" lon="-1.66463">
        <ele>115</ele>
        <time>2020-09-12T09:20:07.000Z</time>
      </trkpt>
      <trkpt lat="47.29941" lon="-1.66452">
        <ele>115</ele>
        <time>2020-09-12T09:20:10.000Z</time>
      </trkpt>
      <trkpt lat="47.29949" lon="-1.66441">
        <ele>115</ele>
        <time>2020-09-12T09:20:13.000Z</time>
      </trkpt>
      <trkpt lat="47.29957" lon="-1.66431">
        <ele>115</ele>
        <time>2020-09-12T09:20:15.000Z</time>
      </trkpt>
      <trkpt lat="47.29964" lon="-1.66419">
        <ele>115</ele>
        <time>2020-09-12T09:20:17.000Z</time>
      </trkpt>
      <trkpt lat="47.29972" lon="-1.66407">
        <ele>115</ele>
        <time>2020-09-12T09:20:19.000Z</time>
      </trkpt>
      <trkpt lat="47.29981" lon="-1.66393">
        <ele>115</ele>
        <time>2020-09-12T09:20:21.000Z</time>
      </trkpt>
      <trkpt lat="47.2999" lon="-1.66379">
        <ele>115</ele>
        <time>2020-09-12T09:20:23.000Z</time>
      </trkpt>
      <trkpt lat="47.29998" lon="-1.66366">
        <ele>115</ele>
        <time>2020-09-12T09:20:25.000Z</time>
      </trkpt>
      <trkpt lat="47.30007" lon="-1.66352">
        <ele>116</ele>
        <time>2020-09-12T09:20:27.000Z</time>
      </trkpt>
      <trkpt lat="47.30015" lon="-1.66339">
        <ele>115</ele>
        <time>2020-09-12T09:20:29.000Z</time>
      </trkpt>
      <trkpt lat="47.30023" lon="-1.66327">
        <ele>115</ele>
        <time>2020-09-12T09:20:31.000Z</time>
      </trkpt>
      <trkpt lat="47.30031" lon="-1.66314">
        <ele>115</ele>
        <time>2020-09-12T09:20:33.000Z</time>
      </trkpt>
      <trkpt lat="47.30039" lon="-1.66301">
        <ele>115</ele>
        <time>2020-09-12T09:20:35.000Z</time>
      </trkpt>
      <trkpt lat="47.30048" lon="-1.66288">
        <ele>115</ele>
        <time>2020-09-12T09:20:37.000Z</time>
      </trkpt>
      <trkpt lat="47.30057" lon="-1.66274">
        <ele>115</ele>
        <time>2020-09-12T09:20:39.000Z</time>
      </trkpt>
      <trkpt lat="47.30065" lon="-1.66261">
        <ele>114</ele>
        <time>2020-09-12T09:20:41.000Z</time>
      </trkpt>
      <trkpt lat="47.30074" lon="-1.66247">
        <ele>114</ele>
        <time>2020-09-12T09:20:43.000Z</time>
      </trkpt>
      <trkpt lat="47.30082" lon="-1.66235">
        <ele>114</ele>
        <time>2020-09-12T09:20:45.000Z</time>
      </trkpt>
      <trkpt lat="47.30091" lon="-1.66221">
        <ele>114</ele>
        <time>2020-09-12T09:20:47.000Z</time>
      </trkpt>
      <trkpt lat="47.301" lon="-1.66208">
        <ele>115</ele>
        <time>2020-09-12T09:20:49.000Z</time>
      </trkpt>
      <trkpt lat="47.30109" lon="-1.66196">
        <ele>115</ele>
        <time>2020-09-12T09:20:51.000Z</time>
      </trkpt>
      <trkpt lat="47.30118" lon="-1.66185">
        <ele>114</ele>
        <time>2020-09-12T09:20:53.000Z</time>
      </trkpt>
      <trkpt lat="47.30128" lon="-1.66174">
        <ele>114</ele>
        <time>2020-09-12T09:20:55.000Z</time>
      </trkpt>
      <trkpt lat="47.30138" lon="-1.66164">
        <ele>115</ele>
        <time>2020-09-12T09:20:57.000Z</time>
      </trkpt>
      <trkpt lat="47.30148" lon="-1.66154">
        <ele>115</ele>
        <time>2020-09-12T09:20:59.000Z</time>
      </trkpt>
      <trkpt lat="47.30157" lon="-1.66144">
        <ele>116</ele>
        <time>2020-09-12T09:21:01.000Z</time>
      </trkpt>
      <trkpt lat="47.30165" lon="-1.66135">
        <ele>116</ele>
        <time>2020-09-12T09:21:03.000Z</time>
      </trkpt>
      <trkpt lat="47.30174" lon="-1.66124">
        <ele>116</ele>
        <time>2020-09-12T09:21:05.000Z</time>
      </trkpt>
      <trkpt lat="47.30184" lon="-1.66114">
        <ele>115</ele>
        <time>2020-09-12T09:21:07.000Z</time>
      </trkpt>
      <trkpt lat="47.30193" lon="-1.66103">
        <ele>115</ele>
        <time>2020-09-12T09:21:09.000Z</time>
      </trkpt>
      <trkpt lat="47.30203" lon="-1.66094">
        <ele>116</ele>
        <time>2020-09-12T09:21:11.000Z</time>
      </trkpt>
      <trkpt lat="47.30213" lon="-1.66084">
        <ele>115</ele>
        <time>2020-09-12T09:21:13.000Z</time>
      </trkpt>
      <trkpt lat="47.30223" lon="-1.66074">
        <ele>116</ele>
        <time>2020-09-12T09:21:15.000Z</time>
      </trkpt>
      <trkpt lat="47.30232" lon="-1.66064">
        <ele>116</ele>
        <time>2020-09-12T09:21:17.000Z</time>
      </trkpt>
      <trkpt lat="47.30242" lon="-1.66054">
        <ele>116</ele>
        <time>2020-09-12T09:21:19.000Z</time>
      </trkpt>
      <trkpt lat="47.30253" lon="-1.66044">
        <ele>115</ele>
        <time>2020-09-12T09:21:21.000Z</time>
      </trkpt>
      <trkpt lat="47.30264" lon="-1.66034">
        <ele>115</ele>
        <time>2020-09-12T09:21:23.000Z</time>
      </trkpt>
      <trkpt lat="47.30274" lon="-1.66022">
        <ele>116</ele>
        <time>2020-09-12T09:21:25.000Z</time>
      </trkpt>
      <trkpt lat="47.30284" lon="-1.66012">
        <ele>116</ele>
        <time>2020-09-12T09:21:27.000Z</time>
      </trkpt>
      <trkpt lat="47.30295" lon="-1.66002">
        <ele>116</ele>
        <time>2020-09-12T09:21:29.000Z</time>
      </trkpt>
      <trkpt lat="47.30304" lon="-1.65991">
        <ele>115</ele>
        <time>2020-09-12T09:21:31.000Z</time>
      </trkpt>
      <trkpt lat="47.30314" lon="-1.65982">
        <ele>115</ele>
        <time>2020-09-12T09:21:33.000Z</time>
      </trkpt>
      <trkpt lat="47.30324" lon="-1.65972">
        <ele>115</ele>
        <time>2020-09-12T09:21:35.000Z</time>
      </trkpt>
      <trkpt lat="47.30333" lon="-1.65962">
        <ele>115</ele>
        <time>2020-09-12T09:21:37.000Z</time>
      </trkpt>
      <trkpt lat="47.30343" lon="-1.65953">
        <ele>116</ele>
        <time>2020-09-12T09:21:39.000Z</time>
      </trkpt>
      <trkpt lat="47.30352" lon="-1.65943">
        <ele>116</ele>
        <time>2020-09-12T09:21:41.000Z</time>
      </trkpt>
      <trkpt lat="47.30362" lon="-1.65933">
        <ele>116</ele>
        <time>2020-09-12T09:21:43.000Z</time>
      </trkpt>
      <trkpt lat="47.30372" lon="-1.65923">
        <ele>116</ele>
        <time>2020-09-12T09:21:45.000Z</time>
      </trkpt>
      <trkpt lat="47.30381" lon="-1.65912">
        <ele>116</ele>
        <time>2020-09-12T09:21:47.000Z</time>
      </trkpt>
      <trkpt lat="47.30391" lon="-1.65902">
        <ele>116</ele>
        <time>2020-09-12T09:21:49.000Z</time>
      </trkpt>
      <trkpt lat="47.30401" lon="-1.65891">
        <ele>116</ele>
        <time>2020-09-12T09:21:51.000Z</time>
      </trkpt>
      <trkpt lat="47.30411" lon="-1.65881">
        <ele>116</ele>
        <time>2020-09-12T09:21:53.000Z</time>
      </trkpt>
      <trkpt lat="47.30421" lon="-1.65872">
        <ele>117</ele>
        <time>2020-09-12T09:21:55.000Z</time>
      </trkpt>
      <trkpt lat="47.3043" lon="-1.65863">
        <ele>117</ele>
        <time>2020-09-12T09:21:57.000Z</time>
      </trkpt>
      <trkpt lat="47.30439" lon="-1.65853">
        <ele>117</ele>
        <time>2020-09-12T09:21:59.000Z</time>
      </trkpt>
      <trkpt lat="47.30448" lon="-1.65843">
        <ele>117</ele>
        <time>2020-09-12T09:22:01.000Z</time>
      </trkpt>
      <trkpt lat="47.30457" lon="-1.65833">
        <ele>117</ele>
        <time>2020-09-12T09:22:03.000Z</time>
      </trkpt>
      <trkpt lat="47.30466" lon="-1.65823">
        <ele>117</ele>
        <time>2020-09-12T09:22:05.000Z</time>
      </trkpt>
      <trkpt lat="47.30476" lon="-1.65813">
        <ele>117</ele>
        <time>2020-09-12T09:22:07.000Z</time>
      </trkpt>
      <trkpt lat="47.30485" lon="-1.65803">
        <ele>117</ele>
        <time>2020-09-12T09:22:09.000Z</time>
      </trkpt>
      <trkpt lat="47.30495" lon="-1.65793">
        <ele>117</ele>
        <time>2020-09-12T09:22:11.000Z</time>
      </trkpt>
      <trkpt lat="47.30504" lon="-1.65783">
        <ele>117</ele>
        <time>2020-09-12T09:22:13.000Z</time>
      </trkpt>
      <trkpt lat="47.30513" lon="-1.65774">
        <ele>117</ele>
        <time>2020-09-12T09:22:15.000Z</time>
      </trkpt>
      <trkpt lat="47.30522" lon="-1.65764">
        <ele>117</ele>
        <time>2020-09-12T09:22:17.000Z</time>
      </trkpt>
      <trkpt lat="47.30532" lon="-1.65754">
        <ele>116</ele>
        <time>2020-09-12T09:22:19.000Z</time>
      </trkpt>
      <trkpt lat="47.30541" lon="-1.65744">
        <ele>116</ele>
        <time>2020-09-12T09:22:21.000Z</time>
      </trkpt>
      <trkpt lat="47.30551" lon="-1.65734">
        <ele>116</ele>
        <time>2020-09-12T09:22:23.000Z</time>
      </trkpt>
      <trkpt lat="47.3056" lon="-1.65725">
        <ele>116</ele>
        <time>2020-09-12T09:22:25.000Z</time>
      </trkpt>
      <trkpt lat="47.3057" lon="-1.65715">
        <ele>116</ele>
        <time>2020-09-12T09:22:27.000Z</time>
      </trkpt>
      <trkpt lat="47.30579" lon="-1.65705">
        <ele>117</ele>
        <time>2020-09-12T09:22:29.000Z</time>
      </trkpt>
      <trkpt lat="47.30589" lon="-1.65696">
        <ele>117</ele>
        <time>2020-09-12T09:22:31.000Z</time>
      </trkpt>
      <trkpt lat="47.30598" lon="-1.65686">
        <ele>117</ele>
        <time>2020-09-12T09:22:33.000Z</time>
      </trkpt>
      <trkpt lat="47.30608" lon="-1.65676">
        <ele>117</ele>
        <time>2020-09-12T09:22:35.000Z</time>
      </trkpt>
      <trkpt lat="47.30618" lon="-1.65666">
        <ele>117</ele>
        <time>2020-09-12T09:22:37.000Z</time>
      </trkpt>
      <trkpt lat="47.30627" lon="-1.65657">
        <ele>117</ele>
        <time>2020-09-12T09:22:39.000Z</time>
      </trkpt>
      <trkpt lat="47.30637" lon="-1.65646">
        <ele>117</ele>
        <time>2020-09-12T09:22:41.000Z</time>
      </trkpt>
      <trkpt lat="47.30647" lon="-1.65637">
        <ele>117</ele>
        <time>2020-09-12T09:22:43.000Z</time>
      </trkpt>
      <trkpt lat="47.30656" lon="-1.65626">
        <ele>117</ele>
        <time>2020-09-12T09:22:45.000Z</time>
      </trkpt>
      <trkpt lat="47.30666" lon="-1.65616">
        <ele>117</ele>
        <time>2020-09-12T09:22:47.000Z</time>
      </trkpt>
      <trkpt lat="47.30676" lon="-1.65607">
        <ele>117</ele>
        <time>2020-09-12T09:22:49.000Z</time>
      </trkpt>
      <trkpt lat="47.30685" lon="-1.65596">
        <ele>117</ele>
        <time>2020-09-12T09:22:51.000Z</time>
      </trkpt>
      <trkpt lat="47.30694" lon="-1.65586">
        <ele>117</ele>
        <time>2020-09-12T09:22:53.000Z</time>
      </trkpt>
      <trkpt lat="47.30704" lon="-1.65576">
        <ele>117</ele>
        <time>2020-09-12T09:22:55.000Z</time>
      </trkpt>
      <trkpt lat="47.30713" lon="-1.65565">
        <ele>117</ele>
        <time>2020-09-12T09:22:57.000Z</time>
      </trkpt>
      <trkpt lat="47.30722" lon="-1.65554">
        <ele>118</ele>
        <time>2020-09-12T09:22:59.000Z</time>
      </trkpt>
      <trkpt lat="47.30731" lon="-1.65543">
        <ele>117</ele>
        <time>2020-09-12T09:23:01.000Z</time>
      </trkpt>
      <trkpt lat="47.30737" lon="-1.65531">
        <ele>118</ele>
        <time>2020-09-12T09:23:03.000Z</time>
      </trkpt>
      <trkpt lat="47.30742" lon="-1.65517">
        <ele>119</ele>
        <time>2020-09-12T09:23:05.000Z</time>
      </trkpt>
      <trkpt lat="47.30748" lon="-1.65503">
        <ele>119</ele>
        <time>2020-09-12T09:23:07.000Z</time>
      </trkpt>
      <trkpt lat="47.30755" lon="-1.65489">
        <ele>118</ele>
        <time>2020-09-12T09:23:09.000Z</time>
      </trkpt>
      <trkpt lat="47.30762" lon="-1.65476">
        <ele>118</ele>
        <time>2020-09-12T09:23:11.000Z</time>
      </trkpt>
      <trkpt lat="47.30769" lon="-1.65464">
        <ele>118</ele>
        <time>2020-09-12T09:23:13.000Z</time>
      </trkpt>
      <trkpt lat="47.30777" lon="-1.65451">
        <ele>118</ele>
        <time>2020-09-12T09:23:15.000Z</time>
      </trkpt>
      <trkpt lat="47.30784" lon="-1.65439">
        <ele>118</ele>
        <time>2020-09-12T09:23:17.000Z</time>
      </trkpt>
      <trkpt lat="47.30791" lon="-1.65426">
        <ele>118</ele>
        <time>2020-09-12T09:23:19.000Z</time>
      </trkpt>
      <trkpt lat="47.30798" lon="-1.65412">
        <ele>117</ele>
        <time>2020-09-12T09:23:21.000Z</time>
      </trkpt>
      <trkpt lat="47.30806" lon="-1.65399">
        <ele>117</ele>
        <time>2020-09-12T09:23:23.000Z</time>
      </trkpt>
      <trkpt lat="47.30814" lon="-1.65386">
        <ele>117</ele>
        <time>2020-09-12T09:23:25.000Z</time>
      </trkpt>
      <trkpt lat="47.30822" lon="-1.65372">
        <ele>117</ele>
        <time>2020-09-12T09:23:27.000Z</time>
      </trkpt>
      <trkpt lat="47.30829" lon="-1.65359">
        <ele>117</ele>
        <time>2020-09-12T09:23:29.000Z</time>
      </trkpt>
      <trkpt lat="47.30837" lon="-1.65345">
        <ele>117</ele>
        <time>2020-09-12T09:23:31.000Z</time>
      </trkpt>
      <trkpt lat="47.30845" lon="-1.65332">
        <ele>117</ele>
        <time>2020-09-12T09:23:33.000Z</time>
      </trkpt>
      <trkpt lat="47.30853" lon="-1.65318">
        <ele>118</ele>
        <time>2020-09-12T09:23:35.000Z</time>
      </trkpt>
      <trkpt lat="47.30861" lon="-1.65302">
        <ele>117</ele>
        <time>2020-09-12T09:23:37.000Z</time>
      </trkpt>
      <trkpt lat="47.3087" lon="-1.65287">
        <ele>117</ele>
        <time>2020-09-12T09:23:39.000Z</time>
      </trkpt>
      <trkpt lat="47.30878" lon="-1.65272">
        <ele>117</ele>
        <time>2020-09-12T09:23:41.000Z</time>
      </trkpt>
      <trkpt lat="47.30887" lon="-1.65256">
        <ele>116</ele>
        <time>2020-09-12T09:23:43.000Z</time>
      </trkpt>
      <trkpt lat="47.30896" lon="-1.65241">
        <ele>115</ele>
        <time>2020-09-12T09:23:45.000Z</time>
      </trkpt>
      <trkpt lat="47.30904" lon="-1.65225">
        <ele>115</ele>
        <time>2020-09-12T09:23:47.000Z</time>
      </trkpt>
      <trkpt lat="47.30913" lon="-1.6521">
        <ele>115</ele>
        <time>2020-09-12T09:23:49.000Z</time>
      </trkpt>
      <trkpt lat="47.30922" lon="-1.65195">
        <ele>115</ele>
        <time>2020-09-12T09:23:51.000Z</time>
      </trkpt>
      <trkpt lat="47.30931" lon="-1.65179">
        <ele>114</ele>
        <time>2020-09-12T09:23:53.000Z</time>
      </trkpt>
      <trkpt lat="47.30941" lon="-1.65162">
        <ele>114</ele>
        <time>2020-09-12T09:23:55.000Z</time>
      </trkpt>
      <trkpt lat="47.3095" lon="-1.65146">
        <ele>114</ele>
        <time>2020-09-12T09:23:57.000Z</time>
      </trkpt>
      <trkpt lat="47.30959" lon="-1.6513">
        <ele>114</ele>
        <time>2020-09-12T09:23:59.000Z</time>
      </trkpt>
      <trkpt lat="47.30968" lon="-1.65114">
        <ele>114</ele>
        <time>2020-09-12T09:24:01.000Z</time>
      </trkpt>
      <trkpt lat="47.30977" lon="-1.65099">
        <ele>114</ele>
        <time>2020-09-12T09:24:03.000Z</time>
      </trkpt>
      <trkpt lat="47.30987" lon="-1.65087">
        <ele>114</ele>
        <time>2020-09-12T09:24:05.000Z</time>
      </trkpt>
      <trkpt lat="47.30999" lon="-1.65077">
        <ele>114</ele>
        <time>2020-09-12T09:24:07.000Z</time>
      </trkpt>
      <trkpt lat="47.31011" lon="-1.6507">
        <ele>114</ele>
        <time>2020-09-12T09:24:09.000Z</time>
      </trkpt>
      <trkpt lat="47.31023" lon="-1.65064">
        <ele>114</ele>
        <time>2020-09-12T09:24:11.000Z</time>
      </trkpt>
      <trkpt lat="47.31036" lon="-1.65057">
        <ele>114</ele>
        <time>2020-09-12T09:24:13.000Z</time>
      </trkpt>
      <trkpt lat="47.31049" lon="-1.65052">
        <ele>114</ele>
        <time>2020-09-12T09:24:15.000Z</time>
      </trkpt>
      <trkpt lat="47.31062" lon="-1.65046">
        <ele>114</ele>
        <time>2020-09-12T09:24:17.000Z</time>
      </trkpt>
      <trkpt lat="47.31075" lon="-1.65042">
        <ele>115</ele>
        <time>2020-09-12T09:24:19.000Z</time>
      </trkpt>
      <trkpt lat="47.31089" lon="-1.65037">
        <ele>114</ele>
        <time>2020-09-12T09:24:21.000Z</time>
      </trkpt>
      <trkpt lat="47.31102" lon="-1.65034">
        <ele>114</ele>
        <time>2020-09-12T09:24:23.000Z</time>
      </trkpt>
      <trkpt lat="47.31116" lon="-1.65033">
        <ele>114</ele>
        <time>2020-09-12T09:24:25.000Z</time>
      </trkpt>
      <trkpt lat="47.31131" lon="-1.65036">
        <ele>114</ele>
        <time>2020-09-12T09:24:27.000Z</time>
      </trkpt>
      <trkpt lat="47.31146" lon="-1.65043">
        <ele>114</ele>
        <time>2020-09-12T09:24:29.000Z</time>
      </trkpt>
      <trkpt lat="47.31159" lon="-1.65051">
        <ele>114</ele>
        <time>2020-09-12T09:24:31.000Z</time>
      </trkpt>
      <trkpt lat="47.31173" lon="-1.65057">
        <ele>114</ele>
        <time>2020-09-12T09:24:33.000Z</time>
      </trkpt>
      <trkpt lat="47.31185" lon="-1.65059">
        <ele>114</ele>
        <time>2020-09-12T09:24:35.000Z</time>
      </trkpt>
      <trkpt lat="47.31197" lon="-1.65056">
        <ele>114</ele>
        <time>2020-09-12T09:24:37.000Z</time>
      </trkpt>
      <trkpt lat="47.31207" lon="-1.65052">
        <ele>114</ele>
        <time>2020-09-12T09:24:39.000Z</time>
      </trkpt>
      <trkpt lat="47.31217" lon="-1.65046">
        <ele>114</ele>
        <time>2020-09-12T09:24:41.000Z</time>
      </trkpt>
      <trkpt lat="47.31228" lon="-1.65041">
        <ele>114</ele>
        <time>2020-09-12T09:24:43.000Z</time>
      </trkpt>
      <trkpt lat="47.31239" lon="-1.65034">
        <ele>114</ele>
        <time>2020-09-12T09:24:45.000Z</time>
      </trkpt>
      <trkpt lat="47.31249" lon="-1.65028">
        <ele>115</ele>
        <time>2020-09-12T09:24:47.000Z</time>
      </trkpt>
      <trkpt lat="47.3126" lon="-1.65021">
        <ele>116</ele>
        <time>2020-09-12T09:24:49.000Z</time>
      </trkpt>
      <trkpt lat="47.3127" lon="-1.65015">
        <ele>116</ele>
        <time>2020-09-12T09:24:51.000Z</time>
      </trkpt>
      <trkpt lat="47.3128" lon="-1.65009">
        <ele>116</ele>
        <time>2020-09-12T09:24:53.000Z</time>
      </trkpt>
      <trkpt lat="47.31291" lon="-1.65003">
        <ele>116</ele>
        <time>2020-09-12T09:24:55.000Z</time>
      </trkpt>
      <trkpt lat="47.31302" lon="-1.64996">
        <ele>116</ele>
        <time>2020-09-12T09:24:57.000Z</time>
      </trkpt>
      <trkpt lat="47.31313" lon="-1.6499">
        <ele>116</ele>
        <time>2020-09-12T09:24:59.000Z</time>
      </trkpt>
      <trkpt lat="47.31324" lon="-1.64983">
        <ele>116</ele>
        <time>2020-09-12T09:25:01.000Z</time>
      </trkpt>
      <trkpt lat="47.31334" lon="-1.64977">
        <ele>116</ele>
        <time>2020-09-12T09:25:03.000Z</time>
      </trkpt>
      <trkpt lat="47.31345" lon="-1.6497">
        <ele>116</ele>
        <time>2020-09-12T09:25:05.000Z</time>
      </trkpt>
      <trkpt lat="47.31355" lon="-1.64963">
        <ele>116</ele>
        <time>2020-09-12T09:25:07.000Z</time>
      </trkpt>
      <trkpt lat="47.31366" lon="-1.64956">
        <ele>116</ele>
        <time>2020-09-12T09:25:09.000Z</time>
      </trkpt>
      <trkpt lat="47.31376" lon="-1.64949">
        <ele>117</ele>
        <time>2020-09-12T09:25:11.000Z</time>
      </trkpt>
      <trkpt lat="47.31387" lon="-1.64942">
        <ele>117</ele>
        <time>2020-09-12T09:25:13.000Z</time>
      </trkpt>
      <trkpt lat="47.31398" lon="-1.64935">
        <ele>117</ele>
        <time>2020-09-12T09:25:15.000Z</time>
      </trkpt>
      <trkpt lat="47.31408" lon="-1.64928">
        <ele>117</ele>
        <time>2020-09-12T09:25:17.000Z</time>
      </trkpt>
      <trkpt lat="47.31419" lon="-1.64922">
        <ele>118</ele>
        <time>2020-09-12T09:25:19.000Z</time>
      </trkpt>
      <trkpt lat="47.3143" lon="-1.64917">
        <ele>118</ele>
        <time>2020-09-12T09:25:21.000Z</time>
      </trkpt>
      <trkpt lat="47.31444" lon="-1.64916">
        <ele>117</ele>
        <time>2020-09-12T09:25:23.000Z</time>
      </trkpt>
      <trkpt lat="47.31458" lon="-1.64915">
        <ele>116</ele>
        <time>2020-09-12T09:25:25.000Z</time>
      </trkpt>
      <trkpt lat="47.31473" lon="-1.64915">
        <ele>115</ele>
        <time>2020-09-12T09:25:27.000Z</time>
      </trkpt>
      <trkpt lat="47.31488" lon="-1.64914">
        <ele>113</ele>
        <time>2020-09-12T09:25:29.000Z</time>
      </trkpt>
      <trkpt lat="47.31502" lon="-1.64913">
        <ele>112</ele>
        <time>2020-09-12T09:25:31.000Z</time>
      </trkpt>
      <trkpt lat="47.31514" lon="-1.64909">
        <ele>110</ele>
        <time>2020-09-12T09:25:33.000Z</time>
      </trkpt>
      <trkpt lat="47.31527" lon="-1.64905">
        <ele>109</ele>
        <time>2020-09-12T09:25:35.000Z</time>
      </trkpt>
      <trkpt lat="47.3154" lon="-1.64898">
        <ele>109</ele>
        <time>2020-09-12T09:25:37.000Z</time>
      </trkpt>
      <trkpt lat="47.31552" lon="-1.64888">
        <ele>109</ele>
        <time>2020-09-12T09:25:39.000Z</time>
      </trkpt>
      <trkpt lat="47.31565" lon="-1.64877">
        <ele>109</ele>
        <time>2020-09-12T09:25:41.000Z</time>
      </trkpt>
      <trkpt lat="47.31578" lon="-1.64869">
        <ele>109</ele>
        <time>2020-09-12T09:25:43.000Z</time>
      </trkpt>
      <trkpt lat="47.31598" lon="-1.64854">
        <ele>108</ele>
        <time>2020-09-12T09:25:46.000Z</time>
      </trkpt>
      <trkpt lat="47.31617" lon="-1.64839">
        <ele>107</ele>
        <time>2020-09-12T09:25:49.000Z</time>
      </trkpt>
      <trkpt lat="47.31629" lon="-1.64827">
        <ele>106</ele>
        <time>2020-09-12T09:25:51.000Z</time>
      </trkpt>
      <trkpt lat="47.31642" lon="-1.64813">
        <ele>106</ele>
        <time>2020-09-12T09:25:53.000Z</time>
      </trkpt>
      <trkpt lat="47.31654" lon="-1.64798">
        <ele>105</ele>
        <time>2020-09-12T09:25:55.000Z</time>
      </trkpt>
      <trkpt lat="47.31673" lon="-1.64776">
        <ele>105</ele>
        <time>2020-09-12T09:25:58.000Z</time>
      </trkpt>
      <trkpt lat="47.31686" lon="-1.64762">
        <ele>104</ele>
        <time>2020-09-12T09:26:00.000Z</time>
      </trkpt>
      <trkpt lat="47.317" lon="-1.64748">
        <ele>104</ele>
        <time>2020-09-12T09:26:02.000Z</time>
      </trkpt>
      <trkpt lat="47.31713" lon="-1.64735">
        <ele>104</ele>
        <time>2020-09-12T09:26:04.000Z</time>
      </trkpt>
      <trkpt lat="47.31727" lon="-1.64722">
        <ele>104</ele>
        <time>2020-09-12T09:26:06.000Z</time>
      </trkpt>
      <trkpt lat="47.31741" lon="-1.64711">
        <ele>104</ele>
        <time>2020-09-12T09:26:08.000Z</time>
      </trkpt>
      <trkpt lat="47.31754" lon="-1.647">
        <ele>104</ele>
        <time>2020-09-12T09:26:10.000Z</time>
      </trkpt>
      <trkpt lat="47.31768" lon="-1.64693">
        <ele>104</ele>
        <time>2020-09-12T09:26:12.000Z</time>
      </trkpt>
      <trkpt lat="47.31783" lon="-1.64687">
        <ele>103</ele>
        <time>2020-09-12T09:26:14.000Z</time>
      </trkpt>
      <trkpt lat="47.31798" lon="-1.64682">
        <ele>104</ele>
        <time>2020-09-12T09:26:16.000Z</time>
      </trkpt>
      <trkpt lat="47.31819" lon="-1.64673">
        <ele>103</ele>
        <time>2020-09-12T09:26:19.000Z</time>
      </trkpt>
      <trkpt lat="47.31833" lon="-1.64668">
        <ele>102</ele>
        <time>2020-09-12T09:26:21.000Z</time>
      </trkpt>
      <trkpt lat="47.31847" lon="-1.64663">
        <ele>102</ele>
        <time>2020-09-12T09:26:23.000Z</time>
      </trkpt>
      <trkpt lat="47.31862" lon="-1.64658">
        <ele>101</ele>
        <time>2020-09-12T09:26:25.000Z</time>
      </trkpt>
      <trkpt lat="47.31877" lon="-1.64653">
        <ele>100</ele>
        <time>2020-09-12T09:26:27.000Z</time>
      </trkpt>
      <trkpt lat="47.31891" lon="-1.64647">
        <ele>100</ele>
        <time>2020-09-12T09:26:29.000Z</time>
      </trkpt>
      <trkpt lat="47.31906" lon="-1.64642">
        <ele>99</ele>
        <time>2020-09-12T09:26:31.000Z</time>
      </trkpt>
      <trkpt lat="47.3192" lon="-1.64637">
        <ele>99</ele>
        <time>2020-09-12T09:26:33.000Z</time>
      </trkpt>
      <trkpt lat="47.31934" lon="-1.64631">
        <ele>98</ele>
        <time>2020-09-12T09:26:35.000Z</time>
      </trkpt>
      <trkpt lat="47.31948" lon="-1.64625">
        <ele>97</ele>
        <time>2020-09-12T09:26:37.000Z</time>
      </trkpt>
      <trkpt lat="47.31963" lon="-1.6462">
        <ele>96</ele>
        <time>2020-09-12T09:26:39.000Z</time>
      </trkpt>
      <trkpt lat="47.31979" lon="-1.64615">
        <ele>96</ele>
        <time>2020-09-12T09:26:41.000Z</time>
      </trkpt>
      <trkpt lat="47.32002" lon="-1.64606">
        <ele>95</ele>
        <time>2020-09-12T09:26:44.000Z</time>
      </trkpt>
      <trkpt lat="47.32017" lon="-1.646">
        <ele>95</ele>
        <time>2020-09-12T09:26:46.000Z</time>
      </trkpt>
      <trkpt lat="47.32033" lon="-1.64594">
        <ele>94</ele>
        <time>2020-09-12T09:26:48.000Z</time>
      </trkpt>
      <trkpt lat="47.32049" lon="-1.64588">
        <ele>94</ele>
        <time>2020-09-12T09:26:50.000Z</time>
      </trkpt>
      <trkpt lat="47.32065" lon="-1.64582">
        <ele>93</ele>
        <time>2020-09-12T09:26:52.000Z</time>
      </trkpt>
      <trkpt lat="47.32081" lon="-1.64577">
        <ele>92</ele>
        <time>2020-09-12T09:26:54.000Z</time>
      </trkpt>
      <trkpt lat="47.32097" lon="-1.64571">
        <ele>90</ele>
        <time>2020-09-12T09:26:56.000Z</time>
      </trkpt>
      <trkpt lat="47.32113" lon="-1.64564">
        <ele>89</ele>
        <time>2020-09-12T09:26:58.000Z</time>
      </trkpt>
      <trkpt lat="47.3213" lon="-1.64556">
        <ele>89</ele>
        <time>2020-09-12T09:27:00.000Z</time>
      </trkpt>
      <trkpt lat="47.32146" lon="-1.64547">
        <ele>88</ele>
        <time>2020-09-12T09:27:02.000Z</time>
      </trkpt>
      <trkpt lat="47.32155" lon="-1.64541">
        <ele>87</ele>
        <time>2020-09-12T09:27:03.000Z</time>
      </trkpt>
      <trkpt lat="47.32163" lon="-1.64534">
        <ele>86</ele>
        <time>2020-09-12T09:27:04.000Z</time>
      </trkpt>
      <trkpt lat="47.32178" lon="-1.64516">
        <ele>85</ele>
        <time>2020-09-12T09:27:06.000Z</time>
      </trkpt>
      <trkpt lat="47.32185" lon="-1.64504">
        <ele>84</ele>
        <time>2020-09-12T09:27:07.000Z</time>
      </trkpt>
      <trkpt lat="47.32191" lon="-1.64492">
        <ele>84</ele>
        <time>2020-09-12T09:27:08.000Z</time>
      </trkpt>
      <trkpt lat="47.32197" lon="-1.64479">
        <ele>84</ele>
        <time>2020-09-12T09:27:09.000Z</time>
      </trkpt>
      <trkpt lat="47.32203" lon="-1.64467">
        <ele>83</ele>
        <time>2020-09-12T09:27:10.000Z</time>
      </trkpt>
      <trkpt lat="47.32215" lon="-1.64445">
        <ele>82</ele>
        <time>2020-09-12T09:27:12.000Z</time>
      </trkpt>
      <trkpt lat="47.32221" lon="-1.64434">
        <ele>82</ele>
        <time>2020-09-12T09:27:13.000Z</time>
      </trkpt>
      <trkpt lat="47.32226" lon="-1.64423">
        <ele>81</ele>
        <time>2020-09-12T09:27:14.000Z</time>
      </trkpt>
      <trkpt lat="47.32231" lon="-1.64411">
        <ele>80</ele>
        <time>2020-09-12T09:27:15.000Z</time>
      </trkpt>
      <trkpt lat="47.32235" lon="-1.64399">
        <ele>79</ele>
        <time>2020-09-12T09:27:16.000Z</time>
      </trkpt>
      <trkpt lat="47.32244" lon="-1.64371">
        <ele>77</ele>
        <time>2020-09-12T09:27:18.000Z</time>
      </trkpt>
      <trkpt lat="47.32247" lon="-1.64357">
        <ele>76</ele>
        <time>2020-09-12T09:27:19.000Z</time>
      </trkpt>
      <trkpt lat="47.3225" lon="-1.64343">
        <ele>76</ele>
        <time>2020-09-12T09:27:20.000Z</time>
      </trkpt>
      <trkpt lat="47.32253" lon="-1.6432">
        <ele>75</ele>
        <time>2020-09-12T09:27:22.000Z</time>
      </trkpt>
      <trkpt lat="47.32259" lon="-1.64306">
        <ele>75</ele>
        <time>2020-09-12T09:27:24.000Z</time>
      </trkpt>
      <trkpt lat="47.32273" lon="-1.64309">
        <ele>74</ele>
        <time>2020-09-12T09:27:26.000Z</time>
      </trkpt>
      <trkpt lat="47.32288" lon="-1.64316">
        <ele>73</ele>
        <time>2020-09-12T09:27:28.000Z</time>
      </trkpt>
      <trkpt lat="47.32302" lon="-1.64324">
        <ele>72</ele>
        <time>2020-09-12T09:27:30.000Z</time>
      </trkpt>
      <trkpt lat="47.32317" lon="-1.64332">
        <ele>72</ele>
        <time>2020-09-12T09:27:32.000Z</time>
      </trkpt>
      <trkpt lat="47.32333" lon="-1.64338">
        <ele>71</ele>
        <time>2020-09-12T09:27:34.000Z</time>
      </trkpt>
      <trkpt lat="47.32349" lon="-1.64341">
        <ele>71</ele>
        <time>2020-09-12T09:27:36.000Z</time>
      </trkpt>
      <trkpt lat="47.32364" lon="-1.64345">
        <ele>71</ele>
        <time>2020-09-12T09:27:38.000Z</time>
      </trkpt>
      <trkpt lat="47.3238" lon="-1.64348">
        <ele>71</ele>
        <time>2020-09-12T09:27:40.000Z</time>
      </trkpt>
      <trkpt lat="47.32395" lon="-1.64351">
        <ele>71</ele>
        <time>2020-09-12T09:27:42.000Z</time>
      </trkpt>
      <trkpt lat="47.3241" lon="-1.64354">
        <ele>70</ele>
        <time>2020-09-12T09:27:44.000Z</time>
      </trkpt>
      <trkpt lat="47.32425" lon="-1.64356">
        <ele>70</ele>
        <time>2020-09-12T09:27:46.000Z</time>
      </trkpt>
      <trkpt lat="47.3244" lon="-1.6436">
        <ele>70</ele>
        <time>2020-09-12T09:27:48.000Z</time>
      </trkpt>
      <trkpt lat="47.32455" lon="-1.64364">
        <ele>70</ele>
        <time>2020-09-12T09:27:50.000Z</time>
      </trkpt>
      <trkpt lat="47.32468" lon="-1.64373">
        <ele>70</ele>
        <time>2020-09-12T09:27:52.000Z</time>
      </trkpt>
      <trkpt lat="47.32482" lon="-1.64382">
        <ele>70</ele>
        <time>2020-09-12T09:27:54.000Z</time>
      </trkpt>
      <trkpt lat="47.32495" lon="-1.6439">
        <ele>70</ele>
        <time>2020-09-12T09:27:56.000Z</time>
      </trkpt>
      <trkpt lat="47.32508" lon="-1.64396">
        <ele>70</ele>
        <time>2020-09-12T09:27:58.000Z</time>
      </trkpt>
      <trkpt lat="47.3252" lon="-1.644">
        <ele>70</ele>
        <time>2020-09-12T09:28:00.000Z</time>
      </trkpt>
      <trkpt lat="47.32532" lon="-1.644">
        <ele>71</ele>
        <time>2020-09-12T09:28:02.000Z</time>
      </trkpt>
      <trkpt lat="47.32542" lon="-1.64398">
        <ele>71</ele>
        <time>2020-09-12T09:28:04.000Z</time>
      </trkpt>
      <trkpt lat="47.32553" lon="-1.64397">
        <ele>72</ele>
        <time>2020-09-12T09:28:06.000Z</time>
      </trkpt>
      <trkpt lat="47.32563" lon="-1.64395">
        <ele>72</ele>
        <time>2020-09-12T09:28:08.000Z</time>
      </trkpt>
      <trkpt lat="47.32574" lon="-1.64392">
        <ele>72</ele>
        <time>2020-09-12T09:28:10.000Z</time>
      </trkpt>
      <trkpt lat="47.32585" lon="-1.64389">
        <ele>73</ele>
        <time>2020-09-12T09:28:12.000Z</time>
      </trkpt>
      <trkpt lat="47.32601" lon="-1.64384">
        <ele>74</ele>
        <time>2020-09-12T09:28:15.000Z</time>
      </trkpt>
      <trkpt lat="47.32611" lon="-1.64381">
        <ele>75</ele>
        <time>2020-09-12T09:28:17.000Z</time>
      </trkpt>
      <trkpt lat="47.32621" lon="-1.64379">
        <ele>75</ele>
        <time>2020-09-12T09:28:19.000Z</time>
      </trkpt>
      <trkpt lat="47.32631" lon="-1.64376">
        <ele>75</ele>
        <time>2020-09-12T09:28:21.000Z</time>
      </trkpt>
      <trkpt lat="47.32641" lon="-1.64373">
        <ele>75</ele>
        <time>2020-09-12T09:28:23.000Z</time>
      </trkpt>
      <trkpt lat="47.3265" lon="-1.64369">
        <ele>76</ele>
        <time>2020-09-12T09:28:25.000Z</time>
      </trkpt>
      <trkpt lat="47.3266" lon="-1.64366">
        <ele>76</ele>
        <time>2020-09-12T09:28:27.000Z</time>
      </trkpt>
      <trkpt lat="47.3267" lon="-1.64364">
        <ele>76</ele>
        <time>2020-09-12T09:28:29.000Z</time>
      </trkpt>
      <trkpt lat="47.32685" lon="-1.64359">
        <ele>77</ele>
        <time>2020-09-12T09:28:32.000Z</time>
      </trkpt>
      <trkpt lat="47.32695" lon="-1.64356">
        <ele>77</ele>
        <time>2020-09-12T09:28:34.000Z</time>
      </trkpt>
      <trkpt lat="47.32704" lon="-1.64353">
        <ele>78</ele>
        <time>2020-09-12T09:28:36.000Z</time>
      </trkpt>
      <trkpt lat="47.32713" lon="-1.6435">
        <ele>78</ele>
        <time>2020-09-12T09:28:38.000Z</time>
      </trkpt>
      <trkpt lat="47.32723" lon="-1.64348">
        <ele>79</ele>
        <time>2020-09-12T09:28:40.000Z</time>
      </trkpt>
      <trkpt lat="47.32733" lon="-1.64345">
        <ele>79</ele>
        <time>2020-09-12T09:28:42.000Z</time>
      </trkpt>
      <trkpt lat="47.32743" lon="-1.64343">
        <ele>79</ele>
        <time>2020-09-12T09:28:44.000Z</time>
      </trkpt>
      <trkpt lat="47.32753" lon="-1.6434">
        <ele>80</ele>
        <time>2020-09-12T09:28:46.000Z</time>
      </trkpt>
      <trkpt lat="47.32768" lon="-1.64338">
        <ele>81</ele>
        <time>2020-09-12T09:28:49.000Z</time>
      </trkpt>
      <trkpt lat="47.32781" lon="-1.64336">
        <ele>82</ele>
        <time>2020-09-12T09:28:52.000Z</time>
      </trkpt>
      <trkpt lat="47.32794" lon="-1.64335">
        <ele>83</ele>
        <time>2020-09-12T09:28:55.000Z</time>
      </trkpt>
      <trkpt lat="47.32808" lon="-1.64332">
        <ele>83</ele>
        <time>2020-09-12T09:28:58.000Z</time>
      </trkpt>
      <trkpt lat="47.32822" lon="-1.6433">
        <ele>84</ele>
        <time>2020-09-12T09:29:01.000Z</time>
      </trkpt>
      <trkpt lat="47.32831" lon="-1.64329">
        <ele>84</ele>
        <time>2020-09-12T09:29:03.000Z</time>
      </trkpt>
      <trkpt lat="47.3284" lon="-1.64326">
        <ele>85</ele>
        <time>2020-09-12T09:29:05.000Z</time>
      </trkpt>
      <trkpt lat="47.32854" lon="-1.64325">
        <ele>86</ele>
        <time>2020-09-12T09:29:08.000Z</time>
      </trkpt>
      <trkpt lat="47.32863" lon="-1.64322">
        <ele>86</ele>
        <time>2020-09-12T09:29:10.000Z</time>
      </trkpt>
      <trkpt lat="47.32872" lon="-1.64321">
        <ele>86</ele>
        <time>2020-09-12T09:29:12.000Z</time>
      </trkpt>
      <trkpt lat="47.32881" lon="-1.6432">
        <ele>86</ele>
        <time>2020-09-12T09:29:14.000Z</time>
      </trkpt>
      <trkpt lat="47.32891" lon="-1.64318">
        <ele>86</ele>
        <time>2020-09-12T09:29:16.000Z</time>
      </trkpt>
      <trkpt lat="47.32904" lon="-1.64315">
        <ele>87</ele>
        <time>2020-09-12T09:29:19.000Z</time>
      </trkpt>
      <trkpt lat="47.32918" lon="-1.64313">
        <ele>88</ele>
        <time>2020-09-12T09:29:22.000Z</time>
      </trkpt>
      <trkpt lat="47.32927" lon="-1.6431">
        <ele>89</ele>
        <time>2020-09-12T09:29:24.000Z</time>
      </trkpt>
      <trkpt lat="47.32936" lon="-1.6431">
        <ele>90</ele>
        <time>2020-09-12T09:29:26.000Z</time>
      </trkpt>
      <trkpt lat="47.32949" lon="-1.64309">
        <ele>90</ele>
        <time>2020-09-12T09:29:29.000Z</time>
      </trkpt>
      <trkpt lat="47.32962" lon="-1.64309">
        <ele>91</ele>
        <time>2020-09-12T09:29:32.000Z</time>
      </trkpt>
      <trkpt lat="47.32975" lon="-1.6431">
        <ele>92</ele>
        <time>2020-09-12T09:29:35.000Z</time>
      </trkpt>
      <trkpt lat="47.32989" lon="-1.64312">
        <ele>93</ele>
        <time>2020-09-12T09:29:38.000Z</time>
      </trkpt>
      <trkpt lat="47.33002" lon="-1.64315">
        <ele>93</ele>
        <time>2020-09-12T09:29:41.000Z</time>
      </trkpt>
      <trkpt lat="47.33013" lon="-1.64318">
        <ele>94</ele>
        <time>2020-09-12T09:29:44.000Z</time>
      </trkpt>
      <trkpt lat="47.33024" lon="-1.6432">
        <ele>94</ele>
        <time>2020-09-12T09:29:47.000Z</time>
      </trkpt>
      <trkpt lat="47.33035" lon="-1.64325">
        <ele>95</ele>
        <time>2020-09-12T09:29:50.000Z</time>
      </trkpt>
      <trkpt lat="47.33046" lon="-1.64329">
        <ele>97</ele>
        <time>2020-09-12T09:29:53.000Z</time>
      </trkpt>
      <trkpt lat="47.33057" lon="-1.64333">
        <ele>98</ele>
        <time>2020-09-12T09:29:56.000Z</time>
      </trkpt>
      <trkpt lat="47.33067" lon="-1.64337">
        <ele>98</ele>
        <time>2020-09-12T09:29:59.000Z</time>
      </trkpt>
      <trkpt lat="47.33078" lon="-1.64341">
        <ele>99</ele>
        <time>2020-09-12T09:30:02.000Z</time>
      </trkpt>
      <trkpt lat="47.33089" lon="-1.64346">
        <ele>99</ele>
        <time>2020-09-12T09:30:05.000Z</time>
      </trkpt>
      <trkpt lat="47.33099" lon="-1.64349">
        <ele>99</ele>
        <time>2020-09-12T09:30:08.000Z</time>
      </trkpt>
      <trkpt lat="47.33108" lon="-1.64349">
        <ele>100</ele>
        <time>2020-09-12T09:30:11.000Z</time>
      </trkpt>
      <trkpt lat="47.3312" lon="-1.64347">
        <ele>101</ele>
        <time>2020-09-12T09:30:14.000Z</time>
      </trkpt>
      <trkpt lat="47.33133" lon="-1.64344">
        <ele>101</ele>
        <time>2020-09-12T09:30:17.000Z</time>
      </trkpt>
      <trkpt lat="47.33145" lon="-1.64341">
        <ele>102</ele>
        <time>2020-09-12T09:30:20.000Z</time>
      </trkpt>
      <trkpt lat="47.33157" lon="-1.64338">
        <ele>102</ele>
        <time>2020-09-12T09:30:23.000Z</time>
      </trkpt>
      <trkpt lat="47.33168" lon="-1.64334">
        <ele>103</ele>
        <time>2020-09-12T09:30:26.000Z</time>
      </trkpt>
      <trkpt lat="47.33179" lon="-1.64332">
        <ele>104</ele>
        <time>2020-09-12T09:30:29.000Z</time>
      </trkpt>
      <trkpt lat="47.3319" lon="-1.64328">
        <ele>105</ele>
        <time>2020-09-12T09:30:32.000Z</time>
      </trkpt>
      <trkpt lat="47.33202" lon="-1.64324">
        <ele>106</ele>
        <time>2020-09-12T09:30:35.000Z</time>
      </trkpt>
      <trkpt lat="47.33214" lon="-1.6432">
        <ele>106</ele>
        <time>2020-09-12T09:30:38.000Z</time>
      </trkpt>
      <trkpt lat="47.33226" lon="-1.64317">
        <ele>107</ele>
        <time>2020-09-12T09:30:41.000Z</time>
      </trkpt>
      <trkpt lat="47.33238" lon="-1.64311">
        <ele>108</ele>
        <time>2020-09-12T09:30:44.000Z</time>
      </trkpt>
      <trkpt lat="47.3325" lon="-1.64306">
        <ele>108</ele>
        <time>2020-09-12T09:30:47.000Z</time>
      </trkpt>
      <trkpt lat="47.33261" lon="-1.64297">
        <ele>109</ele>
        <time>2020-09-12T09:30:50.000Z</time>
      </trkpt>
      <trkpt lat="47.33269" lon="-1.64288">
        <ele>109</ele>
        <time>2020-09-12T09:30:52.000Z</time>
      </trkpt>
      <trkpt lat="47.33277" lon="-1.64278">
        <ele>110</ele>
        <time>2020-09-12T09:30:54.000Z</time>
      </trkpt>
      <trkpt lat="47.33286" lon="-1.64269">
        <ele>110</ele>
        <time>2020-09-12T09:30:56.000Z</time>
      </trkpt>
      <trkpt lat="47.33294" lon="-1.64259">
        <ele>110</ele>
        <time>2020-09-12T09:30:58.000Z</time>
      </trkpt>
      <trkpt lat="47.33302" lon="-1.6425">
        <ele>111</ele>
        <time>2020-09-12T09:31:00.000Z</time>
      </trkpt>
      <trkpt lat="47.3331" lon="-1.64239">
        <ele>111</ele>
        <time>2020-09-12T09:31:02.000Z</time>
      </trkpt>
      <trkpt lat="47.33319" lon="-1.64229">
        <ele>111</ele>
        <time>2020-09-12T09:31:04.000Z</time>
      </trkpt>
      <trkpt lat="47.33327" lon="-1.6422">
        <ele>112</ele>
        <time>2020-09-12T09:31:06.000Z</time>
      </trkpt>
      <trkpt lat="47.33335" lon="-1.6421">
        <ele>113</ele>
        <time>2020-09-12T09:31:08.000Z</time>
      </trkpt>
      <trkpt lat="47.33344" lon="-1.64199">
        <ele>113</ele>
        <time>2020-09-12T09:31:10.000Z</time>
      </trkpt>
      <trkpt lat="47.33352" lon="-1.6419">
        <ele>113</ele>
        <time>2020-09-12T09:31:12.000Z</time>
      </trkpt>
      <trkpt lat="47.33361" lon="-1.64179">
        <ele>113</ele>
        <time>2020-09-12T09:31:14.000Z</time>
      </trkpt>
      <trkpt lat="47.3337" lon="-1.64169">
        <ele>114</ele>
        <time>2020-09-12T09:31:16.000Z</time>
      </trkpt>
      <trkpt lat="47.33378" lon="-1.64159">
        <ele>114</ele>
        <time>2020-09-12T09:31:18.000Z</time>
      </trkpt>
      <trkpt lat="47.33387" lon="-1.64149">
        <ele>114</ele>
        <time>2020-09-12T09:31:20.000Z</time>
      </trkpt>
      <trkpt lat="47.33396" lon="-1.6414">
        <ele>114</ele>
        <time>2020-09-12T09:31:22.000Z</time>
      </trkpt>
      <trkpt lat="47.33404" lon="-1.64128">
        <ele>114</ele>
        <time>2020-09-12T09:31:24.000Z</time>
      </trkpt>
      <trkpt lat="47.33413" lon="-1.64118">
        <ele>114</ele>
        <time>2020-09-12T09:31:26.000Z</time>
      </trkpt>
      <trkpt lat="47.33422" lon="-1.64109">
        <ele>114</ele>
        <time>2020-09-12T09:31:28.000Z</time>
      </trkpt>
      <trkpt lat="47.33431" lon="-1.64099">
        <ele>114</ele>
        <time>2020-09-12T09:31:30.000Z</time>
      </trkpt>
      <trkpt lat="47.3344" lon="-1.64088">
        <ele>113</ele>
        <time>2020-09-12T09:31:32.000Z</time>
      </trkpt>
      <trkpt lat="47.33448" lon="-1.64078">
        <ele>113</ele>
        <time>2020-09-12T09:31:34.000Z</time>
      </trkpt>
      <trkpt lat="47.33457" lon="-1.64067">
        <ele>113</ele>
        <time>2020-09-12T09:31:36.000Z</time>
      </trkpt>
      <trkpt lat="47.33467" lon="-1.64057">
        <ele>113</ele>
        <time>2020-09-12T09:31:38.000Z</time>
      </trkpt>
      <trkpt lat="47.33476" lon="-1.64046">
        <ele>113</ele>
        <time>2020-09-12T09:31:40.000Z</time>
      </trkpt>
      <trkpt lat="47.33485" lon="-1.64036">
        <ele>113</ele>
        <time>2020-09-12T09:31:42.000Z</time>
      </trkpt>
      <trkpt lat="47.33494" lon="-1.64025">
        <ele>113</ele>
        <time>2020-09-12T09:31:44.000Z</time>
      </trkpt>
      <trkpt lat="47.33503" lon="-1.64015">
        <ele>113</ele>
        <time>2020-09-12T09:31:46.000Z</time>
      </trkpt>
      <trkpt lat="47.33513" lon="-1.64004">
        <ele>113</ele>
        <time>2020-09-12T09:31:48.000Z</time>
      </trkpt>
      <trkpt lat="47.33523" lon="-1.63992">
        <ele>112</ele>
        <time>2020-09-12T09:31:50.000Z</time>
      </trkpt>
      <trkpt lat="47.33532" lon="-1.63981">
        <ele>113</ele>
        <time>2020-09-12T09:31:52.000Z</time>
      </trkpt>
      <trkpt lat="47.33542" lon="-1.6397">
        <ele>113</ele>
        <time>2020-09-12T09:31:54.000Z</time>
      </trkpt>
      <trkpt lat="47.33551" lon="-1.63959">
        <ele>113</ele>
        <time>2020-09-12T09:31:56.000Z</time>
      </trkpt>
      <trkpt lat="47.3356" lon="-1.63948">
        <ele>113</ele>
        <time>2020-09-12T09:31:58.000Z</time>
      </trkpt>
      <trkpt lat="47.33569" lon="-1.63936">
        <ele>113</ele>
        <time>2020-09-12T09:32:00.000Z</time>
      </trkpt>
      <trkpt lat="47.33579" lon="-1.63924">
        <ele>114</ele>
        <time>2020-09-12T09:32:02.000Z</time>
      </trkpt>
      <trkpt lat="47.3359" lon="-1.63912">
        <ele>113</ele>
        <time>2020-09-12T09:32:04.000Z</time>
      </trkpt>
      <trkpt lat="47.336" lon="-1.639">
        <ele>114</ele>
        <time>2020-09-12T09:32:06.000Z</time>
      </trkpt>
      <trkpt lat="47.33611" lon="-1.63888">
        <ele>114</ele>
        <time>2020-09-12T09:32:08.000Z</time>
      </trkpt>
      <trkpt lat="47.33621" lon="-1.63875">
        <ele>114</ele>
        <time>2020-09-12T09:32:10.000Z</time>
      </trkpt>
      <trkpt lat="47.33631" lon="-1.63863">
        <ele>114</ele>
        <time>2020-09-12T09:32:12.000Z</time>
      </trkpt>
      <trkpt lat="47.33642" lon="-1.6385">
        <ele>114</ele>
        <time>2020-09-12T09:32:14.000Z</time>
      </trkpt>
      <trkpt lat="47.33653" lon="-1.63837">
        <ele>114</ele>
        <time>2020-09-12T09:32:16.000Z</time>
      </trkpt>
      <trkpt lat="47.33664" lon="-1.63824">
        <ele>113</ele>
        <time>2020-09-12T09:32:18.000Z</time>
      </trkpt>
      <trkpt lat="47.33674" lon="-1.63811">
        <ele>113</ele>
        <time>2020-09-12T09:32:20.000Z</time>
      </trkpt>
      <trkpt lat="47.33686" lon="-1.63798">
        <ele>113</ele>
        <time>2020-09-12T09:32:22.000Z</time>
      </trkpt>
      <trkpt lat="47.33696" lon="-1.63785">
        <ele>113</ele>
        <time>2020-09-12T09:32:24.000Z</time>
      </trkpt>
      <trkpt lat="47.33707" lon="-1.63773">
        <ele>113</ele>
        <time>2020-09-12T09:32:26.000Z</time>
      </trkpt>
      <trkpt lat="47.33718" lon="-1.6376">
        <ele>113</ele>
        <time>2020-09-12T09:32:28.000Z</time>
      </trkpt>
      <trkpt lat="47.33727" lon="-1.63749">
        <ele>113</ele>
        <time>2020-09-12T09:32:30.000Z</time>
      </trkpt>
      <trkpt lat="47.33736" lon="-1.63738">
        <ele>113</ele>
        <time>2020-09-12T09:32:32.000Z</time>
      </trkpt>
      <trkpt lat="47.33746" lon="-1.63726">
        <ele>113</ele>
        <time>2020-09-12T09:32:34.000Z</time>
      </trkpt>
      <trkpt lat="47.33756" lon="-1.63714">
        <ele>112</ele>
        <time>2020-09-12T09:32:36.000Z</time>
      </trkpt>
      <trkpt lat="47.33766" lon="-1.63703">
        <ele>112</ele>
        <time>2020-09-12T09:32:38.000Z</time>
      </trkpt>
      <trkpt lat="47.33777" lon="-1.63691">
        <ele>112</ele>
        <time>2020-09-12T09:32:40.000Z</time>
      </trkpt>
      <trkpt lat="47.33787" lon="-1.63678">
        <ele>111</ele>
        <time>2020-09-12T09:32:42.000Z</time>
      </trkpt>
      <trkpt lat="47.33797" lon="-1.63666">
        <ele>112</ele>
        <time>2020-09-12T09:32:44.000Z</time>
      </trkpt>
      <trkpt lat="47.33807" lon="-1.63654">
        <ele>112</ele>
        <time>2020-09-12T09:32:46.000Z</time>
      </trkpt>
      <trkpt lat="47.33818" lon="-1.63643">
        <ele>112</ele>
        <time>2020-09-12T09:32:48.000Z</time>
      </trkpt>
      <trkpt lat="47.33829" lon="-1.6363">
        <ele>112</ele>
        <time>2020-09-12T09:32:50.000Z</time>
      </trkpt>
      <trkpt lat="47.33838" lon="-1.63618">
        <ele>112</ele>
        <time>2020-09-12T09:32:52.000Z</time>
      </trkpt>
      <trkpt lat="47.33847" lon="-1.63609">
        <ele>112</ele>
        <time>2020-09-12T09:32:54.000Z</time>
      </trkpt>
      <trkpt lat="47.33855" lon="-1.636">
        <ele>111</ele>
        <time>2020-09-12T09:32:56.000Z</time>
      </trkpt>
      <trkpt lat="47.33864" lon="-1.6359">
        <ele>112</ele>
        <time>2020-09-12T09:32:59.000Z</time>
      </trkpt>
      <trkpt lat="47.33872" lon="-1.63582">
        <ele>111</ele>
        <time>2020-09-12T09:33:01.000Z</time>
      </trkpt>
      <trkpt lat="47.3388" lon="-1.63572">
        <ele>112</ele>
        <time>2020-09-12T09:33:03.000Z</time>
      </trkpt>
      <trkpt lat="47.33889" lon="-1.63561">
        <ele>112</ele>
        <time>2020-09-12T09:33:05.000Z</time>
      </trkpt>
      <trkpt lat="47.33899" lon="-1.6355">
        <ele>112</ele>
        <time>2020-09-12T09:33:07.000Z</time>
      </trkpt>
      <trkpt lat="47.3391" lon="-1.63538">
        <ele>113</ele>
        <time>2020-09-12T09:33:09.000Z</time>
      </trkpt>
      <trkpt lat="47.3392" lon="-1.63528">
        <ele>112</ele>
        <time>2020-09-12T09:33:11.000Z</time>
      </trkpt>
      <trkpt lat="47.3393" lon="-1.63519">
        <ele>113</ele>
        <time>2020-09-12T09:33:13.000Z</time>
      </trkpt>
      <trkpt lat="47.3394" lon="-1.63511">
        <ele>113</ele>
        <time>2020-09-12T09:33:15.000Z</time>
      </trkpt>
      <trkpt lat="47.33951" lon="-1.63505">
        <ele>114</ele>
        <time>2020-09-12T09:33:17.000Z</time>
      </trkpt>
      <trkpt lat="47.33963" lon="-1.63497">
        <ele>114</ele>
        <time>2020-09-12T09:33:19.000Z</time>
      </trkpt>
      <trkpt lat="47.33975" lon="-1.63491">
        <ele>114</ele>
        <time>2020-09-12T09:33:21.000Z</time>
      </trkpt>
      <trkpt lat="47.33986" lon="-1.63485">
        <ele>114</ele>
        <time>2020-09-12T09:33:23.000Z</time>
      </trkpt>
      <trkpt lat="47.33997" lon="-1.63478">
        <ele>114</ele>
        <time>2020-09-12T09:33:25.000Z</time>
      </trkpt>
      <trkpt lat="47.34009" lon="-1.63471">
        <ele>114</ele>
        <time>2020-09-12T09:33:27.000Z</time>
      </trkpt>
      <trkpt lat="47.34022" lon="-1.63464">
        <ele>113</ele>
        <time>2020-09-12T09:33:29.000Z</time>
      </trkpt>
      <trkpt lat="47.34034" lon="-1.63457">
        <ele>113</ele>
        <time>2020-09-12T09:33:31.000Z</time>
      </trkpt>
      <trkpt lat="47.34046" lon="-1.6345">
        <ele>113</ele>
        <time>2020-09-12T09:33:33.000Z</time>
      </trkpt>
      <trkpt lat="47.34058" lon="-1.63443">
        <ele>113</ele>
        <time>2020-09-12T09:33:35.000Z</time>
      </trkpt>
      <trkpt lat="47.3407" lon="-1.63436">
        <ele>113</ele>
        <time>2020-09-12T09:33:37.000Z</time>
      </trkpt>
      <trkpt lat="47.34082" lon="-1.63429">
        <ele>114</ele>
        <time>2020-09-12T09:33:39.000Z</time>
      </trkpt>
      <trkpt lat="47.34094" lon="-1.63422">
        <ele>114</ele>
        <time>2020-09-12T09:33:41.000Z</time>
      </trkpt>
      <trkpt lat="47.34106" lon="-1.63414">
        <ele>114</ele>
        <time>2020-09-12T09:33:43.000Z</time>
      </trkpt>
      <trkpt lat="47.34119" lon="-1.63406">
        <ele>114</ele>
        <time>2020-09-12T09:33:45.000Z</time>
      </trkpt>
      <trkpt lat="47.34131" lon="-1.63398">
        <ele>114</ele>
        <time>2020-09-12T09:33:47.000Z</time>
      </trkpt>
      <trkpt lat="47.34143" lon="-1.6339">
        <ele>114</ele>
        <time>2020-09-12T09:33:49.000Z</time>
      </trkpt>
      <trkpt lat="47.34156" lon="-1.6338">
        <ele>113</ele>
        <time>2020-09-12T09:33:51.000Z</time>
      </trkpt>
      <trkpt lat="47.34169" lon="-1.63369">
        <ele>112</ele>
        <time>2020-09-12T09:33:53.000Z</time>
      </trkpt>
      <trkpt lat="47.3418" lon="-1.63358">
        <ele>112</ele>
        <time>2020-09-12T09:33:55.000Z</time>
      </trkpt>
      <trkpt lat="47.34191" lon="-1.63347">
        <ele>112</ele>
        <time>2020-09-12T09:33:57.000Z</time>
      </trkpt>
      <trkpt lat="47.34203" lon="-1.63335">
        <ele>111</ele>
        <time>2020-09-12T09:33:59.000Z</time>
      </trkpt>
      <trkpt lat="47.34213" lon="-1.63324">
        <ele>111</ele>
        <time>2020-09-12T09:34:01.000Z</time>
      </trkpt>
      <trkpt lat="47.34223" lon="-1.63312">
        <ele>111</ele>
        <time>2020-09-12T09:34:03.000Z</time>
      </trkpt>
      <trkpt lat="47.34233" lon="-1.63298">
        <ele>111</ele>
        <time>2020-09-12T09:34:05.000Z</time>
      </trkpt>
      <trkpt lat="47.34241" lon="-1.63282">
        <ele>111</ele>
        <time>2020-09-12T09:34:07.000Z</time>
      </trkpt>
      <trkpt lat="47.34248" lon="-1.63265">
        <ele>111</ele>
        <time>2020-09-12T09:34:09.000Z</time>
      </trkpt>
      <trkpt lat="47.34255" lon="-1.63247">
        <ele>110</ele>
        <time>2020-09-12T09:34:11.000Z</time>
      </trkpt>
      <trkpt lat="47.34262" lon="-1.63228">
        <ele>110</ele>
        <time>2020-09-12T09:34:13.000Z</time>
      </trkpt>
      <trkpt lat="47.34269" lon="-1.6321">
        <ele>109</ele>
        <time>2020-09-12T09:34:15.000Z</time>
      </trkpt>
      <trkpt lat="47.34276" lon="-1.63192">
        <ele>109</ele>
        <time>2020-09-12T09:34:17.000Z</time>
      </trkpt>
      <trkpt lat="47.34285" lon="-1.63176">
        <ele>109</ele>
        <time>2020-09-12T09:34:19.000Z</time>
      </trkpt>
      <trkpt lat="47.34295" lon="-1.63162">
        <ele>108</ele>
        <time>2020-09-12T09:34:21.000Z</time>
      </trkpt>
      <trkpt lat="47.34306" lon="-1.63148">
        <ele>108</ele>
        <time>2020-09-12T09:34:23.000Z</time>
      </trkpt>
      <trkpt lat="47.34317" lon="-1.63135">
        <ele>108</ele>
        <time>2020-09-12T09:34:25.000Z</time>
      </trkpt>
      <trkpt lat="47.34329" lon="-1.63123">
        <ele>107</ele>
        <time>2020-09-12T09:34:27.000Z</time>
      </trkpt>
      <trkpt lat="47.34341" lon="-1.6311">
        <ele>107</ele>
        <time>2020-09-12T09:34:29.000Z</time>
      </trkpt>
      <trkpt lat="47.34353" lon="-1.63099">
        <ele>106</ele>
        <time>2020-09-12T09:34:31.000Z</time>
      </trkpt>
      <trkpt lat="47.34364" lon="-1.63087">
        <ele>106</ele>
        <time>2020-09-12T09:34:33.000Z</time>
      </trkpt>
      <trkpt lat="47.34375" lon="-1.63075">
        <ele>106</ele>
        <time>2020-09-12T09:34:35.000Z</time>
      </trkpt>
      <trkpt lat="47.34386" lon="-1.63064">
        <ele>106</ele>
        <time>2020-09-12T09:34:37.000Z</time>
      </trkpt>
      <trkpt lat="47.34397" lon="-1.63052">
        <ele>106</ele>
        <time>2020-09-12T09:34:39.000Z</time>
      </trkpt>
      <trkpt lat="47.34408" lon="-1.63041">
        <ele>106</ele>
        <time>2020-09-12T09:34:41.000Z</time>
      </trkpt>
      <trkpt lat="47.34419" lon="-1.63029">
        <ele>106</ele>
        <time>2020-09-12T09:34:43.000Z</time>
      </trkpt>
      <trkpt lat="47.3443" lon="-1.63018">
        <ele>106</ele>
        <time>2020-09-12T09:34:45.000Z</time>
      </trkpt>
      <trkpt lat="47.3444" lon="-1.63007">
        <ele>106</ele>
        <time>2020-09-12T09:34:47.000Z</time>
      </trkpt>
      <trkpt lat="47.34451" lon="-1.62995">
        <ele>106</ele>
        <time>2020-09-12T09:34:49.000Z</time>
      </trkpt>
      <trkpt lat="47.34462" lon="-1.62984">
        <ele>106</ele>
        <time>2020-09-12T09:34:51.000Z</time>
      </trkpt>
      <trkpt lat="47.34473" lon="-1.62973">
        <ele>106</ele>
        <time>2020-09-12T09:34:53.000Z</time>
      </trkpt>
      <trkpt lat="47.34484" lon="-1.62962">
        <ele>106</ele>
        <time>2020-09-12T09:34:55.000Z</time>
      </trkpt>
      <trkpt lat="47.34495" lon="-1.62951">
        <ele>106</ele>
        <time>2020-09-12T09:34:57.000Z</time>
      </trkpt>
      <trkpt lat="47.34506" lon="-1.6294">
        <ele>106</ele>
        <time>2020-09-12T09:34:59.000Z</time>
      </trkpt>
      <trkpt lat="47.34516" lon="-1.62928">
        <ele>105</ele>
        <time>2020-09-12T09:35:01.000Z</time>
      </trkpt>
      <trkpt lat="47.34527" lon="-1.62917">
        <ele>106</ele>
        <time>2020-09-12T09:35:03.000Z</time>
      </trkpt>
      <trkpt lat="47.34538" lon="-1.62906">
        <ele>106</ele>
        <time>2020-09-12T09:35:05.000Z</time>
      </trkpt>
      <trkpt lat="47.34549" lon="-1.62894">
        <ele>105</ele>
        <time>2020-09-12T09:35:07.000Z</time>
      </trkpt>
      <trkpt lat="47.34559" lon="-1.62883">
        <ele>105</ele>
        <time>2020-09-12T09:35:09.000Z</time>
      </trkpt>
      <trkpt lat="47.34571" lon="-1.62872">
        <ele>106</ele>
        <time>2020-09-12T09:35:11.000Z</time>
      </trkpt>
      <trkpt lat="47.34582" lon="-1.62861">
        <ele>106</ele>
        <time>2020-09-12T09:35:13.000Z</time>
      </trkpt>
      <trkpt lat="47.34592" lon="-1.62849">
        <ele>106</ele>
        <time>2020-09-12T09:35:15.000Z</time>
      </trkpt>
      <trkpt lat="47.34603" lon="-1.62837">
        <ele>106</ele>
        <time>2020-09-12T09:35:17.000Z</time>
      </trkpt>
      <trkpt lat="47.34613" lon="-1.62824">
        <ele>106</ele>
        <time>2020-09-12T09:35:19.000Z</time>
      </trkpt>
      <trkpt lat="47.34622" lon="-1.62812">
        <ele>106</ele>
        <time>2020-09-12T09:35:21.000Z</time>
      </trkpt>
      <trkpt lat="47.34631" lon="-1.62799">
        <ele>106</ele>
        <time>2020-09-12T09:35:23.000Z</time>
      </trkpt>
      <trkpt lat="47.3464" lon="-1.62786">
        <ele>106</ele>
        <time>2020-09-12T09:35:25.000Z</time>
      </trkpt>
      <trkpt lat="47.3465" lon="-1.62773">
        <ele>106</ele>
        <time>2020-09-12T09:35:27.000Z</time>
      </trkpt>
      <trkpt lat="47.34659" lon="-1.62759">
        <ele>106</ele>
        <time>2020-09-12T09:35:29.000Z</time>
      </trkpt>
      <trkpt lat="47.34668" lon="-1.62744">
        <ele>105</ele>
        <time>2020-09-12T09:35:31.000Z</time>
      </trkpt>
      <trkpt lat="47.34675" lon="-1.62727">
        <ele>105</ele>
        <time>2020-09-12T09:35:33.000Z</time>
      </trkpt>
      <trkpt lat="47.34682" lon="-1.62711">
        <ele>105</ele>
        <time>2020-09-12T09:35:35.000Z</time>
      </trkpt>
      <trkpt lat="47.34689" lon="-1.62695">
        <ele>104</ele>
        <time>2020-09-12T09:35:37.000Z</time>
      </trkpt>
      <trkpt lat="47.34695" lon="-1.62679">
        <ele>104</ele>
        <time>2020-09-12T09:35:39.000Z</time>
      </trkpt>
      <trkpt lat="47.34701" lon="-1.62664">
        <ele>104</ele>
        <time>2020-09-12T09:35:41.000Z</time>
      </trkpt>
      <trkpt lat="47.34707" lon="-1.62649">
        <ele>104</ele>
        <time>2020-09-12T09:35:43.000Z</time>
      </trkpt>
      <trkpt lat="47.34713" lon="-1.62634">
        <ele>105</ele>
        <time>2020-09-12T09:35:45.000Z</time>
      </trkpt>
      <trkpt lat="47.3472" lon="-1.62619">
        <ele>105</ele>
        <time>2020-09-12T09:35:47.000Z</time>
      </trkpt>
      <trkpt lat="47.34725" lon="-1.62606">
        <ele>105</ele>
        <time>2020-09-12T09:35:49.000Z</time>
      </trkpt>
      <trkpt lat="47.34729" lon="-1.62592">
        <ele>105</ele>
        <time>2020-09-12T09:35:52.000Z</time>
      </trkpt>
      <trkpt lat="47.34734" lon="-1.62576">
        <ele>105</ele>
        <time>2020-09-12T09:35:56.000Z</time>
      </trkpt>
      <trkpt lat="47.34739" lon="-1.62562">
        <ele>106</ele>
        <time>2020-09-12T09:35:58.000Z</time>
      </trkpt>
      <trkpt lat="47.34746" lon="-1.62548">
        <ele>105</ele>
        <time>2020-09-12T09:36:00.000Z</time>
      </trkpt>
      <trkpt lat="47.34752" lon="-1.62532">
        <ele>105</ele>
        <time>2020-09-12T09:36:02.000Z</time>
      </trkpt>
      <trkpt lat="47.34759" lon="-1.62515">
        <ele>104</ele>
        <time>2020-09-12T09:36:04.000Z</time>
      </trkpt>
      <trkpt lat="47.34766" lon="-1.62498">
        <ele>104</ele>
        <time>2020-09-12T09:36:06.000Z</time>
      </trkpt>
      <trkpt lat="47.34773" lon="-1.62483">
        <ele>105</ele>
        <time>2020-09-12T09:36:08.000Z</time>
      </trkpt>
      <trkpt lat="47.34781" lon="-1.62466">
        <ele>104</ele>
        <time>2020-09-12T09:36:10.000Z</time>
      </trkpt>
      <trkpt lat="47.34791" lon="-1.62449">
        <ele>103</ele>
        <time>2020-09-12T09:36:12.000Z</time>
      </trkpt>
      <trkpt lat="47.348" lon="-1.62434">
        <ele>103</ele>
        <time>2020-09-12T09:36:14.000Z</time>
      </trkpt>
      <trkpt lat="47.3481" lon="-1.62419">
        <ele>103</ele>
        <time>2020-09-12T09:36:16.000Z</time>
      </trkpt>
      <trkpt lat="47.3482" lon="-1.62405">
        <ele>103</ele>
        <time>2020-09-12T09:36:18.000Z</time>
      </trkpt>
      <trkpt lat="47.34829" lon="-1.6239">
        <ele>103</ele>
        <time>2020-09-12T09:36:20.000Z</time>
      </trkpt>
      <trkpt lat="47.34839" lon="-1.62375">
        <ele>103</ele>
        <time>2020-09-12T09:36:22.000Z</time>
      </trkpt>
      <trkpt lat="47.34849" lon="-1.6236">
        <ele>103</ele>
        <time>2020-09-12T09:36:24.000Z</time>
      </trkpt>
      <trkpt lat="47.34859" lon="-1.62346">
        <ele>103</ele>
        <time>2020-09-12T09:36:26.000Z</time>
      </trkpt>
      <trkpt lat="47.34867" lon="-1.6233">
        <ele>103</ele>
        <time>2020-09-12T09:36:28.000Z</time>
      </trkpt>
      <trkpt lat="47.34876" lon="-1.62316">
        <ele>102</ele>
        <time>2020-09-12T09:36:30.000Z</time>
      </trkpt>
      <trkpt lat="47.34885" lon="-1.62302">
        <ele>102</ele>
        <time>2020-09-12T09:36:32.000Z</time>
      </trkpt>
      <trkpt lat="47.34894" lon="-1.62287">
        <ele>102</ele>
        <time>2020-09-12T09:36:34.000Z</time>
      </trkpt>
      <trkpt lat="47.34903" lon="-1.62273">
        <ele>102</ele>
        <time>2020-09-12T09:36:36.000Z</time>
      </trkpt>
      <trkpt lat="47.34912" lon="-1.6226">
        <ele>102</ele>
        <time>2020-09-12T09:36:38.000Z</time>
      </trkpt>
      <trkpt lat="47.34922" lon="-1.62248">
        <ele>102</ele>
        <time>2020-09-12T09:36:40.000Z</time>
      </trkpt>
      <trkpt lat="47.34933" lon="-1.62237">
        <ele>102</ele>
        <time>2020-09-12T09:36:42.000Z</time>
      </trkpt>
      <trkpt lat="47.34945" lon="-1.62229">
        <ele>103</ele>
        <time>2020-09-12T09:36:44.000Z</time>
      </trkpt>
      <trkpt lat="47.34957" lon="-1.62221">
        <ele>103</ele>
        <time>2020-09-12T09:36:46.000Z</time>
      </trkpt>
      <trkpt lat="47.3497" lon="-1.62215">
        <ele>103</ele>
        <time>2020-09-12T09:36:48.000Z</time>
      </trkpt>
      <trkpt lat="47.34982" lon="-1.62209">
        <ele>103</ele>
        <time>2020-09-12T09:36:50.000Z</time>
      </trkpt>
      <trkpt lat="47.34994" lon="-1.62202">
        <ele>102</ele>
        <time>2020-09-12T09:36:52.000Z</time>
      </trkpt>
      <trkpt lat="47.35007" lon="-1.62193">
        <ele>102</ele>
        <time>2020-09-12T09:36:54.000Z</time>
      </trkpt>
      <trkpt lat="47.35018" lon="-1.62181">
        <ele>101</ele>
        <time>2020-09-12T09:36:56.000Z</time>
      </trkpt>
      <trkpt lat="47.35029" lon="-1.62166">
        <ele>101</ele>
        <time>2020-09-12T09:36:58.000Z</time>
      </trkpt>
      <trkpt lat="47.35039" lon="-1.6215">
        <ele>101</ele>
        <time>2020-09-12T09:37:00.000Z</time>
      </trkpt>
      <trkpt lat="47.3505" lon="-1.62135">
        <ele>101</ele>
        <time>2020-09-12T09:37:02.000Z</time>
      </trkpt>
      <trkpt lat="47.35061" lon="-1.6212">
        <ele>101</ele>
        <time>2020-09-12T09:37:04.000Z</time>
      </trkpt>
      <trkpt lat="47.35072" lon="-1.62105">
        <ele>100</ele>
        <time>2020-09-12T09:37:06.000Z</time>
      </trkpt>
      <trkpt lat="47.35083" lon="-1.62091">
        <ele>100</ele>
        <time>2020-09-12T09:37:08.000Z</time>
      </trkpt>
      <trkpt lat="47.35094" lon="-1.62076">
        <ele>100</ele>
        <time>2020-09-12T09:37:10.000Z</time>
      </trkpt>
      <trkpt lat="47.35106" lon="-1.62062">
        <ele>99</ele>
        <time>2020-09-12T09:37:12.000Z</time>
      </trkpt>
      <trkpt lat="47.35117" lon="-1.62047">
        <ele>99</ele>
        <time>2020-09-12T09:37:14.000Z</time>
      </trkpt>
      <trkpt lat="47.35129" lon="-1.62032">
        <ele>98</ele>
        <time>2020-09-12T09:37:16.000Z</time>
      </trkpt>
      <trkpt lat="47.3514" lon="-1.62018">
        <ele>98</ele>
        <time>2020-09-12T09:37:18.000Z</time>
      </trkpt>
      <trkpt lat="47.35151" lon="-1.62002">
        <ele>97</ele>
        <time>2020-09-12T09:37:20.000Z</time>
      </trkpt>
      <trkpt lat="47.35162" lon="-1.61988">
        <ele>97</ele>
        <time>2020-09-12T09:37:22.000Z</time>
      </trkpt>
      <trkpt lat="47.35173" lon="-1.61972">
        <ele>97</ele>
        <time>2020-09-12T09:37:24.000Z</time>
      </trkpt>
      <trkpt lat="47.35185" lon="-1.61958">
        <ele>97</ele>
        <time>2020-09-12T09:37:26.000Z</time>
      </trkpt>
      <trkpt lat="47.35196" lon="-1.61944">
        <ele>98</ele>
        <time>2020-09-12T09:37:28.000Z</time>
      </trkpt>
      <trkpt lat="47.35207" lon="-1.6193">
        <ele>97</ele>
        <time>2020-09-12T09:37:30.000Z</time>
      </trkpt>
      <trkpt lat="47.35219" lon="-1.61916">
        <ele>97</ele>
        <time>2020-09-12T09:37:32.000Z</time>
      </trkpt>
      <trkpt lat="47.3523" lon="-1.61903">
        <ele>97</ele>
        <time>2020-09-12T09:37:34.000Z</time>
      </trkpt>
      <trkpt lat="47.35241" lon="-1.61889">
        <ele>96</ele>
        <time>2020-09-12T09:37:36.000Z</time>
      </trkpt>
      <trkpt lat="47.35253" lon="-1.61876">
        <ele>96</ele>
        <time>2020-09-12T09:37:38.000Z</time>
      </trkpt>
      <trkpt lat="47.35264" lon="-1.61863">
        <ele>95</ele>
        <time>2020-09-12T09:37:40.000Z</time>
      </trkpt>
      <trkpt lat="47.35275" lon="-1.6185">
        <ele>95</ele>
        <time>2020-09-12T09:37:42.000Z</time>
      </trkpt>
      <trkpt lat="47.35286" lon="-1.61837">
        <ele>95</ele>
        <time>2020-09-12T09:37:44.000Z</time>
      </trkpt>
      <trkpt lat="47.35297" lon="-1.61825">
        <ele>94</ele>
        <time>2020-09-12T09:37:46.000Z</time>
      </trkpt>
      <trkpt lat="47.35308" lon="-1.61813">
        <ele>94</ele>
        <time>2020-09-12T09:37:48.000Z</time>
      </trkpt>
      <trkpt lat="47.35319" lon="-1.618">
        <ele>94</ele>
        <time>2020-09-12T09:37:50.000Z</time>
      </trkpt>
      <trkpt lat="47.3533" lon="-1.61787">
        <ele>94</ele>
        <time>2020-09-12T09:37:52.000Z</time>
      </trkpt>
      <trkpt lat="47.35342" lon="-1.61774">
        <ele>94</ele>
        <time>2020-09-12T09:37:54.000Z</time>
      </trkpt>
      <trkpt lat="47.35353" lon="-1.61762">
        <ele>94</ele>
        <time>2020-09-12T09:37:56.000Z</time>
      </trkpt>
      <trkpt lat="47.35364" lon="-1.61751">
        <ele>93</ele>
        <time>2020-09-12T09:37:58.000Z</time>
      </trkpt>
      <trkpt lat="47.35375" lon="-1.6174">
        <ele>93</ele>
        <time>2020-09-12T09:38:00.000Z</time>
      </trkpt>
      <trkpt lat="47.35386" lon="-1.6173">
        <ele>93</ele>
        <time>2020-09-12T09:38:02.000Z</time>
      </trkpt>
      <trkpt lat="47.35398" lon="-1.6172">
        <ele>93</ele>
        <time>2020-09-12T09:38:04.000Z</time>
      </trkpt>
      <trkpt lat="47.3541" lon="-1.6171">
        <ele>93</ele>
        <time>2020-09-12T09:38:06.000Z</time>
      </trkpt>
      <trkpt lat="47.35422" lon="-1.61699">
        <ele>93</ele>
        <time>2020-09-12T09:38:08.000Z</time>
      </trkpt>
      <trkpt lat="47.35434" lon="-1.61689">
        <ele>93</ele>
        <time>2020-09-12T09:38:10.000Z</time>
      </trkpt>
      <trkpt lat="47.35446" lon="-1.61678">
        <ele>93</ele>
        <time>2020-09-12T09:38:12.000Z</time>
      </trkpt>
      <trkpt lat="47.35458" lon="-1.61668">
        <ele>93</ele>
        <time>2020-09-12T09:38:14.000Z</time>
      </trkpt>
      <trkpt lat="47.3547" lon="-1.61657">
        <ele>93</ele>
        <time>2020-09-12T09:38:16.000Z</time>
      </trkpt>
      <trkpt lat="47.35482" lon="-1.61648">
        <ele>92</ele>
        <time>2020-09-12T09:38:18.000Z</time>
      </trkpt>
      <trkpt lat="47.35492" lon="-1.6164">
        <ele>91</ele>
        <time>2020-09-12T09:38:20.000Z</time>
      </trkpt>
      <trkpt lat="47.35502" lon="-1.61632">
        <ele>91</ele>
        <time>2020-09-12T09:38:22.000Z</time>
      </trkpt>
      <trkpt lat="47.35509" lon="-1.61623">
        <ele>91</ele>
        <time>2020-09-12T09:38:24.000Z</time>
      </trkpt>
      <trkpt lat="47.35511" lon="-1.61608">
        <ele>91</ele>
        <time>2020-09-12T09:38:26.000Z</time>
      </trkpt>
      <trkpt lat="47.35507" lon="-1.61588">
        <ele>91</ele>
        <time>2020-09-12T09:38:28.000Z</time>
      </trkpt>
      <trkpt lat="47.35505" lon="-1.61568">
        <ele>91</ele>
        <time>2020-09-12T09:38:30.000Z</time>
      </trkpt>
      <trkpt lat="47.35502" lon="-1.61548">
        <ele>90</ele>
        <time>2020-09-12T09:38:32.000Z</time>
      </trkpt>
      <trkpt lat="47.35499" lon="-1.61527">
        <ele>90</ele>
        <time>2020-09-12T09:38:34.000Z</time>
      </trkpt>
      <trkpt lat="47.35496" lon="-1.61507">
        <ele>89</ele>
        <time>2020-09-12T09:38:36.000Z</time>
      </trkpt>
      <trkpt lat="47.35492" lon="-1.61486">
        <ele>89</ele>
        <time>2020-09-12T09:38:38.000Z</time>
      </trkpt>
      <trkpt lat="47.35488" lon="-1.61464">
        <ele>89</ele>
        <time>2020-09-12T09:38:40.000Z</time>
      </trkpt>
      <trkpt lat="47.35485" lon="-1.61441">
        <ele>89</ele>
        <time>2020-09-12T09:38:42.000Z</time>
      </trkpt>
      <trkpt lat="47.35481" lon="-1.61418">
        <ele>88</ele>
        <time>2020-09-12T09:38:44.000Z</time>
      </trkpt>
      <trkpt lat="47.35477" lon="-1.61395">
        <ele>88</ele>
        <time>2020-09-12T09:38:46.000Z</time>
      </trkpt>
      <trkpt lat="47.35472" lon="-1.61373">
        <ele>87</ele>
        <time>2020-09-12T09:38:48.000Z</time>
      </trkpt>
      <trkpt lat="47.35467" lon="-1.6135">
        <ele>87</ele>
        <time>2020-09-12T09:38:50.000Z</time>
      </trkpt>
      <trkpt lat="47.35462" lon="-1.61327">
        <ele>86</ele>
        <time>2020-09-12T09:38:52.000Z</time>
      </trkpt>
      <trkpt lat="47.35457" lon="-1.61302">
        <ele>86</ele>
        <time>2020-09-12T09:38:54.000Z</time>
      </trkpt>
      <trkpt lat="47.35452" lon="-1.61279">
        <ele>86</ele>
        <time>2020-09-12T09:38:56.000Z</time>
      </trkpt>
      <trkpt lat="47.35447" lon="-1.61256">
        <ele>85</ele>
        <time>2020-09-12T09:38:58.000Z</time>
      </trkpt>
      <trkpt lat="47.35443" lon="-1.61233">
        <ele>85</ele>
        <time>2020-09-12T09:39:00.000Z</time>
      </trkpt>
      <trkpt lat="47.35439" lon="-1.6121">
        <ele>85</ele>
        <time>2020-09-12T09:39:02.000Z</time>
      </trkpt>
      <trkpt lat="47.35436" lon="-1.61187">
        <ele>85</ele>
        <time>2020-09-12T09:39:04.000Z</time>
      </trkpt>
      <trkpt lat="47.35435" lon="-1.61164">
        <ele>86</ele>
        <time>2020-09-12T09:39:06.000Z</time>
      </trkpt>
      <trkpt lat="47.35436" lon="-1.6114">
        <ele>86</ele>
        <time>2020-09-12T09:39:08.000Z</time>
      </trkpt>
      <trkpt lat="47.35436" lon="-1.61116">
        <ele>86</ele>
        <time>2020-09-12T09:39:10.000Z</time>
      </trkpt>
      <trkpt lat="47.35437" lon="-1.61093">
        <ele>86</ele>
        <time>2020-09-12T09:39:12.000Z</time>
      </trkpt>
      <trkpt lat="47.35438" lon="-1.61071">
        <ele>85</ele>
        <time>2020-09-12T09:39:14.000Z</time>
      </trkpt>
      <trkpt lat="47.35438" lon="-1.6105">
        <ele>86</ele>
        <time>2020-09-12T09:39:16.000Z</time>
      </trkpt>
      <trkpt lat="47.35438" lon="-1.61028">
        <ele>85</ele>
        <time>2020-09-12T09:39:18.000Z</time>
      </trkpt>
      <trkpt lat="47.35438" lon="-1.61006">
        <ele>85</ele>
        <time>2020-09-12T09:39:20.000Z</time>
      </trkpt>
      <trkpt lat="47.35439" lon="-1.60983">
        <ele>84</ele>
        <time>2020-09-12T09:39:22.000Z</time>
      </trkpt>
      <trkpt lat="47.35439" lon="-1.60961">
        <ele>84</ele>
        <time>2020-09-12T09:39:24.000Z</time>
      </trkpt>
      <trkpt lat="47.3544" lon="-1.60939">
        <ele>84</ele>
        <time>2020-09-12T09:39:26.000Z</time>
      </trkpt>
      <trkpt lat="47.3544" lon="-1.60918">
        <ele>84</ele>
        <time>2020-09-12T09:39:28.000Z</time>
      </trkpt>
      <trkpt lat="47.35438" lon="-1.60896">
        <ele>84</ele>
        <time>2020-09-12T09:39:30.000Z</time>
      </trkpt>
      <trkpt lat="47.35436" lon="-1.60876">
        <ele>84</ele>
        <time>2020-09-12T09:39:32.000Z</time>
      </trkpt>
      <trkpt lat="47.35432" lon="-1.60857">
        <ele>84</ele>
        <time>2020-09-12T09:39:34.000Z</time>
      </trkpt>
      <trkpt lat="47.35428" lon="-1.60838">
        <ele>84</ele>
        <time>2020-09-12T09:39:36.000Z</time>
      </trkpt>
      <trkpt lat="47.35425" lon="-1.6082">
        <ele>85</ele>
        <time>2020-09-12T09:39:38.000Z</time>
      </trkpt>
      <trkpt lat="47.35421" lon="-1.60802">
        <ele>85</ele>
        <time>2020-09-12T09:39:40.000Z</time>
      </trkpt>
      <trkpt lat="47.35418" lon="-1.60784">
        <ele>86</ele>
        <time>2020-09-12T09:39:42.000Z</time>
      </trkpt>
      <trkpt lat="47.35415" lon="-1.60766">
        <ele>87</ele>
        <time>2020-09-12T09:39:44.000Z</time>
      </trkpt>
      <trkpt lat="47.35412" lon="-1.60748">
        <ele>88</ele>
        <time>2020-09-12T09:39:46.000Z</time>
      </trkpt>
      <trkpt lat="47.3541" lon="-1.6073">
        <ele>88</ele>
        <time>2020-09-12T09:39:48.000Z</time>
      </trkpt>
      <trkpt lat="47.35409" lon="-1.60712">
        <ele>89</ele>
        <time>2020-09-12T09:39:50.000Z</time>
      </trkpt>
      <trkpt lat="47.35409" lon="-1.60693">
        <ele>89</ele>
        <time>2020-09-12T09:39:52.000Z</time>
      </trkpt>
      <trkpt lat="47.35409" lon="-1.60674">
        <ele>89</ele>
        <time>2020-09-12T09:39:54.000Z</time>
      </trkpt>
      <trkpt lat="47.35408" lon="-1.60656">
        <ele>89</ele>
        <time>2020-09-12T09:39:56.000Z</time>
      </trkpt>
      <trkpt lat="47.35409" lon="-1.60638">
        <ele>89</ele>
        <time>2020-09-12T09:39:58.000Z</time>
      </trkpt>
      <trkpt lat="47.35409" lon="-1.6062">
        <ele>89</ele>
        <time>2020-09-12T09:40:00.000Z</time>
      </trkpt>
      <trkpt lat="47.3541" lon="-1.60602">
        <ele>89</ele>
        <time>2020-09-12T09:40:02.000Z</time>
      </trkpt>
      <trkpt lat="47.3541" lon="-1.60583">
        <ele>89</ele>
        <time>2020-09-12T09:40:04.000Z</time>
      </trkpt>
      <trkpt lat="47.35411" lon="-1.60565">
        <ele>90</ele>
        <time>2020-09-12T09:40:06.000Z</time>
      </trkpt>
      <trkpt lat="47.35411" lon="-1.60548">
        <ele>90</ele>
        <time>2020-09-12T09:40:08.000Z</time>
      </trkpt>
      <trkpt lat="47.35412" lon="-1.60531">
        <ele>90</ele>
        <time>2020-09-12T09:40:10.000Z</time>
      </trkpt>
      <trkpt lat="47.35412" lon="-1.60517">
        <ele>90</ele>
        <time>2020-09-12T09:40:12.000Z</time>
      </trkpt>
      <trkpt lat="47.35412" lon="-1.60501">
        <ele>91</ele>
        <time>2020-09-12T09:40:16.000Z</time>
      </trkpt>
      <trkpt lat="47.35413" lon="-1.60486">
        <ele>91</ele>
        <time>2020-09-12T09:40:18.000Z</time>
      </trkpt>
      <trkpt lat="47.35413" lon="-1.60467">
        <ele>91</ele>
        <time>2020-09-12T09:40:20.000Z</time>
      </trkpt>
      <trkpt lat="47.35414" lon="-1.60448">
        <ele>91</ele>
        <time>2020-09-12T09:40:22.000Z</time>
      </trkpt>
      <trkpt lat="47.35414" lon="-1.60429">
        <ele>91</ele>
        <time>2020-09-12T09:40:24.000Z</time>
      </trkpt>
      <trkpt lat="47.35415" lon="-1.60409">
        <ele>91</ele>
        <time>2020-09-12T09:40:26.000Z</time>
      </trkpt>
      <trkpt lat="47.35415" lon="-1.60389">
        <ele>90</ele>
        <time>2020-09-12T09:40:28.000Z</time>
      </trkpt>
      <trkpt lat="47.35417" lon="-1.6037">
        <ele>90</ele>
        <time>2020-09-12T09:40:30.000Z</time>
      </trkpt>
      <trkpt lat="47.35417" lon="-1.6035">
        <ele>90</ele>
        <time>2020-09-12T09:40:32.000Z</time>
      </trkpt>
      <trkpt lat="47.35417" lon="-1.60332">
        <ele>91</ele>
        <time>2020-09-12T09:40:34.000Z</time>
      </trkpt>
      <trkpt lat="47.35417" lon="-1.60313">
        <ele>91</ele>
        <time>2020-09-12T09:40:36.000Z</time>
      </trkpt>
      <trkpt lat="47.35418" lon="-1.60295">
        <ele>91</ele>
        <time>2020-09-12T09:40:38.000Z</time>
      </trkpt>
      <trkpt lat="47.35418" lon="-1.60277">
        <ele>92</ele>
        <time>2020-09-12T09:40:40.000Z</time>
      </trkpt>
      <trkpt lat="47.35419" lon="-1.60259">
        <ele>91</ele>
        <time>2020-09-12T09:40:42.000Z</time>
      </trkpt>
      <trkpt lat="47.35419" lon="-1.6024">
        <ele>92</ele>
        <time>2020-09-12T09:40:44.000Z</time>
      </trkpt>
      <trkpt lat="47.3542" lon="-1.60222">
        <ele>92</ele>
        <time>2020-09-12T09:40:46.000Z</time>
      </trkpt>
      <trkpt lat="47.3542" lon="-1.60204">
        <ele>92</ele>
        <time>2020-09-12T09:40:48.000Z</time>
      </trkpt>
      <trkpt lat="47.35421" lon="-1.60185">
        <ele>92</ele>
        <time>2020-09-12T09:40:50.000Z</time>
      </trkpt>
      <trkpt lat="47.3542" lon="-1.60165">
        <ele>91</ele>
        <time>2020-09-12T09:40:52.000Z</time>
      </trkpt>
      <trkpt lat="47.35418" lon="-1.60145">
        <ele>91</ele>
        <time>2020-09-12T09:40:54.000Z</time>
      </trkpt>
      <trkpt lat="47.35417" lon="-1.60126">
        <ele>91</ele>
        <time>2020-09-12T09:40:56.000Z</time>
      </trkpt>
      <trkpt lat="47.35417" lon="-1.60106">
        <ele>91</ele>
        <time>2020-09-12T09:40:58.000Z</time>
      </trkpt>
      <trkpt lat="47.35418" lon="-1.60085">
        <ele>92</ele>
        <time>2020-09-12T09:41:00.000Z</time>
      </trkpt>
      <trkpt lat="47.35422" lon="-1.60065">
        <ele>91</ele>
        <time>2020-09-12T09:41:02.000Z</time>
      </trkpt>
      <trkpt lat="47.35428" lon="-1.60045">
        <ele>91</ele>
        <time>2020-09-12T09:41:04.000Z</time>
      </trkpt>
      <trkpt lat="47.35433" lon="-1.60027">
        <ele>91</ele>
        <time>2020-09-12T09:41:06.000Z</time>
      </trkpt>
      <trkpt lat="47.35438" lon="-1.60007">
        <ele>91</ele>
        <time>2020-09-12T09:41:08.000Z</time>
      </trkpt>
      <trkpt lat="47.35443" lon="-1.59989">
        <ele>91</ele>
        <time>2020-09-12T09:41:10.000Z</time>
      </trkpt>
      <trkpt lat="47.35446" lon="-1.59969">
        <ele>91</ele>
        <time>2020-09-12T09:41:12.000Z</time>
      </trkpt>
      <trkpt lat="47.35449" lon="-1.59949">
        <ele>91</ele>
        <time>2020-09-12T09:41:14.000Z</time>
      </trkpt>
      <trkpt lat="47.35451" lon="-1.5993">
        <ele>92</ele>
        <time>2020-09-12T09:41:16.000Z</time>
      </trkpt>
      <trkpt lat="47.35453" lon="-1.59912">
        <ele>92</ele>
        <time>2020-09-12T09:41:18.000Z</time>
      </trkpt>
      <trkpt lat="47.35455" lon="-1.59895">
        <ele>92</ele>
        <time>2020-09-12T09:41:20.000Z</time>
      </trkpt>
      <trkpt lat="47.35457" lon="-1.59877">
        <ele>92</ele>
        <time>2020-09-12T09:41:22.000Z</time>
      </trkpt>
      <trkpt lat="47.3546" lon="-1.59859">
        <ele>93</ele>
        <time>2020-09-12T09:41:24.000Z</time>
      </trkpt>
      <trkpt lat="47.35462" lon="-1.59842">
        <ele>93</ele>
        <time>2020-09-12T09:41:26.000Z</time>
      </trkpt>
      <trkpt lat="47.35465" lon="-1.59825">
        <ele>93</ele>
        <time>2020-09-12T09:41:28.000Z</time>
      </trkpt>
      <trkpt lat="47.35466" lon="-1.5981">
        <ele>92</ele>
        <time>2020-09-12T09:41:30.000Z</time>
      </trkpt>
      <trkpt lat="47.35465" lon="-1.59795">
        <ele>92</ele>
        <time>2020-09-12T09:41:33.000Z</time>
      </trkpt>
      <trkpt lat="47.35456" lon="-1.5979">
        <ele>92</ele>
        <time>2020-09-12T09:41:35.000Z</time>
      </trkpt>
      <trkpt lat="47.35444" lon="-1.59788">
        <ele>92</ele>
        <time>2020-09-12T09:41:37.000Z</time>
      </trkpt>
      <trkpt lat="47.3543" lon="-1.59783">
        <ele>91</ele>
        <time>2020-09-12T09:41:39.000Z</time>
      </trkpt>
      <trkpt lat="47.35417" lon="-1.59779">
        <ele>91</ele>
        <time>2020-09-12T09:41:41.000Z</time>
      </trkpt>
      <trkpt lat="47.35403" lon="-1.59775">
        <ele>90</ele>
        <time>2020-09-12T09:41:43.000Z</time>
      </trkpt>
      <trkpt lat="47.35389" lon="-1.5977">
        <ele>90</ele>
        <time>2020-09-12T09:41:45.000Z</time>
      </trkpt>
      <trkpt lat="47.35375" lon="-1.59765">
        <ele>90</ele>
        <time>2020-09-12T09:41:47.000Z</time>
      </trkpt>
      <trkpt lat="47.35361" lon="-1.59759">
        <ele>89</ele>
        <time>2020-09-12T09:41:49.000Z</time>
      </trkpt>
      <trkpt lat="47.35346" lon="-1.59751">
        <ele>89</ele>
        <time>2020-09-12T09:41:51.000Z</time>
      </trkpt>
      <trkpt lat="47.35332" lon="-1.59741">
        <ele>89</ele>
        <time>2020-09-12T09:41:53.000Z</time>
      </trkpt>
      <trkpt lat="47.35318" lon="-1.59727">
        <ele>88</ele>
        <time>2020-09-12T09:41:55.000Z</time>
      </trkpt>
      <trkpt lat="47.35304" lon="-1.59712">
        <ele>88</ele>
        <time>2020-09-12T09:41:57.000Z</time>
      </trkpt>
      <trkpt lat="47.35297" lon="-1.59704">
        <ele>87</ele>
        <time>2020-09-12T09:41:58.000Z</time>
      </trkpt>
      <trkpt lat="47.35289" lon="-1.59696">
        <ele>87</ele>
        <time>2020-09-12T09:41:59.000Z</time>
      </trkpt>
      <trkpt lat="47.35282" lon="-1.59687">
        <ele>86</ele>
        <time>2020-09-12T09:42:00.000Z</time>
      </trkpt>
      <trkpt lat="47.35275" lon="-1.59678">
        <ele>86</ele>
        <time>2020-09-12T09:42:01.000Z</time>
      </trkpt>
      <trkpt lat="47.35268" lon="-1.59669">
        <ele>85</ele>
        <time>2020-09-12T09:42:02.000Z</time>
      </trkpt>
      <trkpt lat="47.35261" lon="-1.59661">
        <ele>85</ele>
        <time>2020-09-12T09:42:03.000Z</time>
      </trkpt>
      <trkpt lat="47.35254" lon="-1.59652">
        <ele>84</ele>
        <time>2020-09-12T09:42:04.000Z</time>
      </trkpt>
      <trkpt lat="47.35247" lon="-1.59643">
        <ele>83</ele>
        <time>2020-09-12T09:42:05.000Z</time>
      </trkpt>
      <trkpt lat="47.35239" lon="-1.59635">
        <ele>83</ele>
        <time>2020-09-12T09:42:06.000Z</time>
      </trkpt>
      <trkpt lat="47.35226" lon="-1.59619">
        <ele>82</ele>
        <time>2020-09-12T09:42:08.000Z</time>
      </trkpt>
      <trkpt lat="47.35211" lon="-1.59602">
        <ele>82</ele>
        <time>2020-09-12T09:42:10.000Z</time>
      </trkpt>
      <trkpt lat="47.35203" lon="-1.59593">
        <ele>81</ele>
        <time>2020-09-12T09:42:11.000Z</time>
      </trkpt>
      <trkpt lat="47.35196" lon="-1.59584">
        <ele>81</ele>
        <time>2020-09-12T09:42:12.000Z</time>
      </trkpt>
      <trkpt lat="47.35189" lon="-1.59575">
        <ele>81</ele>
        <time>2020-09-12T09:42:13.000Z</time>
      </trkpt>
      <trkpt lat="47.35182" lon="-1.59566">
        <ele>80</ele>
        <time>2020-09-12T09:42:14.000Z</time>
      </trkpt>
      <trkpt lat="47.35174" lon="-1.59556">
        <ele>79</ele>
        <time>2020-09-12T09:42:15.000Z</time>
      </trkpt>
      <trkpt lat="47.35167" lon="-1.59546">
        <ele>78</ele>
        <time>2020-09-12T09:42:16.000Z</time>
      </trkpt>
      <trkpt lat="47.3516" lon="-1.59537">
        <ele>78</ele>
        <time>2020-09-12T09:42:17.000Z</time>
      </trkpt>
      <trkpt lat="47.35153" lon="-1.59528">
        <ele>77</ele>
        <time>2020-09-12T09:42:18.000Z</time>
      </trkpt>
      <trkpt lat="47.35145" lon="-1.59519">
        <ele>76</ele>
        <time>2020-09-12T09:42:19.000Z</time>
      </trkpt>
      <trkpt lat="47.35138" lon="-1.5951">
        <ele>76</ele>
        <time>2020-09-12T09:42:20.000Z</time>
      </trkpt>
      <trkpt lat="47.35131" lon="-1.59501">
        <ele>75</ele>
        <time>2020-09-12T09:42:21.000Z</time>
      </trkpt>
      <trkpt lat="47.35124" lon="-1.59492">
        <ele>75</ele>
        <time>2020-09-12T09:42:22.000Z</time>
      </trkpt>
      <trkpt lat="47.35116" lon="-1.59482">
        <ele>75</ele>
        <time>2020-09-12T09:42:23.000Z</time>
      </trkpt>
      <trkpt lat="47.35109" lon="-1.59474">
        <ele>74</ele>
        <time>2020-09-12T09:42:24.000Z</time>
      </trkpt>
      <trkpt lat="47.35102" lon="-1.59465">
        <ele>74</ele>
        <time>2020-09-12T09:42:25.000Z</time>
      </trkpt>
      <trkpt lat="47.35094" lon="-1.59456">
        <ele>74</ele>
        <time>2020-09-12T09:42:26.000Z</time>
      </trkpt>
      <trkpt lat="47.35087" lon="-1.59447">
        <ele>74</ele>
        <time>2020-09-12T09:42:27.000Z</time>
      </trkpt>
      <trkpt lat="47.3508" lon="-1.59439">
        <ele>73</ele>
        <time>2020-09-12T09:42:28.000Z</time>
      </trkpt>
      <trkpt lat="47.35073" lon="-1.5943">
        <ele>73</ele>
        <time>2020-09-12T09:42:29.000Z</time>
      </trkpt>
      <trkpt lat="47.3506" lon="-1.59415">
        <ele>74</ele>
        <time>2020-09-12T09:42:31.000Z</time>
      </trkpt>
      <trkpt lat="47.35048" lon="-1.594">
        <ele>75</ele>
        <time>2020-09-12T09:42:33.000Z</time>
      </trkpt>
      <trkpt lat="47.35038" lon="-1.59387">
        <ele>75</ele>
        <time>2020-09-12T09:42:35.000Z</time>
      </trkpt>
      <trkpt lat="47.35029" lon="-1.59375">
        <ele>76</ele>
        <time>2020-09-12T09:42:37.000Z</time>
      </trkpt>
      <trkpt lat="47.35019" lon="-1.59365">
        <ele>76</ele>
        <time>2020-09-12T09:42:39.000Z</time>
      </trkpt>
      <trkpt lat="47.35011" lon="-1.59355">
        <ele>76</ele>
        <time>2020-09-12T09:42:41.000Z</time>
      </trkpt>
      <trkpt lat="47.35002" lon="-1.59344">
        <ele>77</ele>
        <time>2020-09-12T09:42:43.000Z</time>
      </trkpt>
      <trkpt lat="47.34994" lon="-1.59334">
        <ele>77</ele>
        <time>2020-09-12T09:42:45.000Z</time>
      </trkpt>
      <trkpt lat="47.34986" lon="-1.59324">
        <ele>78</ele>
        <time>2020-09-12T09:42:47.000Z</time>
      </trkpt>
      <trkpt lat="47.34977" lon="-1.59313">
        <ele>78</ele>
        <time>2020-09-12T09:42:49.000Z</time>
      </trkpt>
      <trkpt lat="47.34969" lon="-1.59303">
        <ele>79</ele>
        <time>2020-09-12T09:42:51.000Z</time>
      </trkpt>
      <trkpt lat="47.34961" lon="-1.59292">
        <ele>80</ele>
        <time>2020-09-12T09:42:53.000Z</time>
      </trkpt>
      <trkpt lat="47.34953" lon="-1.59283">
        <ele>81</ele>
        <time>2020-09-12T09:42:55.000Z</time>
      </trkpt>
      <trkpt lat="47.34945" lon="-1.59273">
        <ele>81</ele>
        <time>2020-09-12T09:42:57.000Z</time>
      </trkpt>
      <trkpt lat="47.34938" lon="-1.59263">
        <ele>81</ele>
        <time>2020-09-12T09:42:59.000Z</time>
      </trkpt>
      <trkpt lat="47.3493" lon="-1.59253">
        <ele>82</ele>
        <time>2020-09-12T09:43:01.000Z</time>
      </trkpt>
      <trkpt lat="47.34922" lon="-1.59243">
        <ele>82</ele>
        <time>2020-09-12T09:43:03.000Z</time>
      </trkpt>
      <trkpt lat="47.34913" lon="-1.59233">
        <ele>83</ele>
        <time>2020-09-12T09:43:05.000Z</time>
      </trkpt>
      <trkpt lat="47.34905" lon="-1.59223">
        <ele>83</ele>
        <time>2020-09-12T09:43:07.000Z</time>
      </trkpt>
      <trkpt lat="47.34897" lon="-1.59214">
        <ele>83</ele>
        <time>2020-09-12T09:43:09.000Z</time>
      </trkpt>
      <trkpt lat="47.34889" lon="-1.59204">
        <ele>84</ele>
        <time>2020-09-12T09:43:11.000Z</time>
      </trkpt>
      <trkpt lat="47.34881" lon="-1.59194">
        <ele>84</ele>
        <time>2020-09-12T09:43:13.000Z</time>
      </trkpt>
      <trkpt lat="47.34872" lon="-1.59184">
        <ele>84</ele>
        <time>2020-09-12T09:43:15.000Z</time>
      </trkpt>
      <trkpt lat="47.34864" lon="-1.59175">
        <ele>86</ele>
        <time>2020-09-12T09:43:17.000Z</time>
      </trkpt>
      <trkpt lat="47.34856" lon="-1.59165">
        <ele>87</ele>
        <time>2020-09-12T09:43:19.000Z</time>
      </trkpt>
      <trkpt lat="47.34848" lon="-1.59155">
        <ele>87</ele>
        <time>2020-09-12T09:43:21.000Z</time>
      </trkpt>
      <trkpt lat="47.3484" lon="-1.59145">
        <ele>88</ele>
        <time>2020-09-12T09:43:23.000Z</time>
      </trkpt>
      <trkpt lat="47.34832" lon="-1.59136">
        <ele>89</ele>
        <time>2020-09-12T09:43:25.000Z</time>
      </trkpt>
      <trkpt lat="47.34824" lon="-1.59127">
        <ele>90</ele>
        <time>2020-09-12T09:43:27.000Z</time>
      </trkpt>
      <trkpt lat="47.34816" lon="-1.59118">
        <ele>89</ele>
        <time>2020-09-12T09:43:29.000Z</time>
      </trkpt>
      <trkpt lat="47.34808" lon="-1.59108">
        <ele>90</ele>
        <time>2020-09-12T09:43:31.000Z</time>
      </trkpt>
      <trkpt lat="47.348" lon="-1.59097">
        <ele>90</ele>
        <time>2020-09-12T09:43:33.000Z</time>
      </trkpt>
      <trkpt lat="47.34792" lon="-1.59088">
        <ele>90</ele>
        <time>2020-09-12T09:43:35.000Z</time>
      </trkpt>
      <trkpt lat="47.34783" lon="-1.59078">
        <ele>91</ele>
        <time>2020-09-12T09:43:37.000Z</time>
      </trkpt>
      <trkpt lat="47.34775" lon="-1.59067">
        <ele>91</ele>
        <time>2020-09-12T09:43:39.000Z</time>
      </trkpt>
      <trkpt lat="47.34766" lon="-1.59057">
        <ele>91</ele>
        <time>2020-09-12T09:43:41.000Z</time>
      </trkpt>
      <trkpt lat="47.34757" lon="-1.59046">
        <ele>91</ele>
        <time>2020-09-12T09:43:43.000Z</time>
      </trkpt>
      <trkpt lat="47.34748" lon="-1.59035">
        <ele>91</ele>
        <time>2020-09-12T09:43:45.000Z</time>
      </trkpt>
      <trkpt lat="47.3474" lon="-1.59023">
        <ele>91</ele>
        <time>2020-09-12T09:43:47.000Z</time>
      </trkpt>
      <trkpt lat="47.34732" lon="-1.59012">
        <ele>91</ele>
        <time>2020-09-12T09:43:49.000Z</time>
      </trkpt>
      <trkpt lat="47.34723" lon="-1.59002">
        <ele>91</ele>
        <time>2020-09-12T09:43:51.000Z</time>
      </trkpt>
      <trkpt lat="47.34714" lon="-1.58991">
        <ele>92</ele>
        <time>2020-09-12T09:43:53.000Z</time>
      </trkpt>
      <trkpt lat="47.34705" lon="-1.5898">
        <ele>91</ele>
        <time>2020-09-12T09:43:55.000Z</time>
      </trkpt>
      <trkpt lat="47.34697" lon="-1.58969">
        <ele>91</ele>
        <time>2020-09-12T09:43:57.000Z</time>
      </trkpt>
      <trkpt lat="47.34688" lon="-1.58958">
        <ele>92</ele>
        <time>2020-09-12T09:43:59.000Z</time>
      </trkpt>
      <trkpt lat="47.34678" lon="-1.58946">
        <ele>92</ele>
        <time>2020-09-12T09:44:01.000Z</time>
      </trkpt>
      <trkpt lat="47.34669" lon="-1.58934">
        <ele>92</ele>
        <time>2020-09-12T09:44:03.000Z</time>
      </trkpt>
      <trkpt lat="47.34659" lon="-1.58923">
        <ele>92</ele>
        <time>2020-09-12T09:44:05.000Z</time>
      </trkpt>
      <trkpt lat="47.3465" lon="-1.58911">
        <ele>92</ele>
        <time>2020-09-12T09:44:07.000Z</time>
      </trkpt>
      <trkpt lat="47.3464" lon="-1.58899">
        <ele>91</ele>
        <time>2020-09-12T09:44:09.000Z</time>
      </trkpt>
      <trkpt lat="47.34629" lon="-1.58887">
        <ele>91</ele>
        <time>2020-09-12T09:44:11.000Z</time>
      </trkpt>
      <trkpt lat="47.34619" lon="-1.58874">
        <ele>91</ele>
        <time>2020-09-12T09:44:13.000Z</time>
      </trkpt>
      <trkpt lat="47.34609" lon="-1.58862">
        <ele>91</ele>
        <time>2020-09-12T09:44:15.000Z</time>
      </trkpt>
      <trkpt lat="47.34599" lon="-1.58849">
        <ele>91</ele>
        <time>2020-09-12T09:44:17.000Z</time>
      </trkpt>
      <trkpt lat="47.34588" lon="-1.58836">
        <ele>91</ele>
        <time>2020-09-12T09:44:19.000Z</time>
      </trkpt>
      <trkpt lat="47.34577" lon="-1.58823">
        <ele>91</ele>
        <time>2020-09-12T09:44:21.000Z</time>
      </trkpt>
      <trkpt lat="47.34566" lon="-1.5881">
        <ele>91</ele>
        <time>2020-09-12T09:44:23.000Z</time>
      </trkpt>
      <trkpt lat="47.34555" lon="-1.58797">
        <ele>91</ele>
        <time>2020-09-12T09:44:25.000Z</time>
      </trkpt>
      <trkpt lat="47.34545" lon="-1.58784">
        <ele>90</ele>
        <time>2020-09-12T09:44:27.000Z</time>
      </trkpt>
      <trkpt lat="47.34534" lon="-1.5877">
        <ele>90</ele>
        <time>2020-09-12T09:44:29.000Z</time>
      </trkpt>
      <trkpt lat="47.34523" lon="-1.58757">
        <ele>90</ele>
        <time>2020-09-12T09:44:31.000Z</time>
      </trkpt>
      <trkpt lat="47.34513" lon="-1.58745">
        <ele>91</ele>
        <time>2020-09-12T09:44:33.000Z</time>
      </trkpt>
      <trkpt lat="47.34503" lon="-1.58731">
        <ele>91</ele>
        <time>2020-09-12T09:44:35.000Z</time>
      </trkpt>
      <trkpt lat="47.34493" lon="-1.58719">
        <ele>91</ele>
        <time>2020-09-12T09:44:37.000Z</time>
      </trkpt>
      <trkpt lat="47.34484" lon="-1.58705">
        <ele>91</ele>
        <time>2020-09-12T09:44:39.000Z</time>
      </trkpt>
      <trkpt lat="47.34475" lon="-1.58692">
        <ele>92</ele>
        <time>2020-09-12T09:44:41.000Z</time>
      </trkpt>
      <trkpt lat="47.34466" lon="-1.58678">
        <ele>92</ele>
        <time>2020-09-12T09:44:43.000Z</time>
      </trkpt>
      <trkpt lat="47.34457" lon="-1.58664">
        <ele>92</ele>
        <time>2020-09-12T09:44:45.000Z</time>
      </trkpt>
      <trkpt lat="47.34448" lon="-1.5865">
        <ele>93</ele>
        <time>2020-09-12T09:44:47.000Z</time>
      </trkpt>
      <trkpt lat="47.34439" lon="-1.58636">
        <ele>93</ele>
        <time>2020-09-12T09:44:49.000Z</time>
      </trkpt>
      <trkpt lat="47.34429" lon="-1.58623">
        <ele>94</ele>
        <time>2020-09-12T09:44:51.000Z</time>
      </trkpt>
      <trkpt lat="47.3442" lon="-1.5861">
        <ele>94</ele>
        <time>2020-09-12T09:44:53.000Z</time>
      </trkpt>
      <trkpt lat="47.34411" lon="-1.58597">
        <ele>94</ele>
        <time>2020-09-12T09:44:55.000Z</time>
      </trkpt>
      <trkpt lat="47.34401" lon="-1.58584">
        <ele>95</ele>
        <time>2020-09-12T09:44:57.000Z</time>
      </trkpt>
      <trkpt lat="47.34392" lon="-1.58572">
        <ele>95</ele>
        <time>2020-09-12T09:44:59.000Z</time>
      </trkpt>
      <trkpt lat="47.34383" lon="-1.58561">
        <ele>95</ele>
        <time>2020-09-12T09:45:01.000Z</time>
      </trkpt>
      <trkpt lat="47.34373" lon="-1.58549">
        <ele>95</ele>
        <time>2020-09-12T09:45:03.000Z</time>
      </trkpt>
      <trkpt lat="47.34364" lon="-1.58538">
        <ele>96</ele>
        <time>2020-09-12T09:45:05.000Z</time>
      </trkpt>
      <trkpt lat="47.34355" lon="-1.58526">
        <ele>96</ele>
        <time>2020-09-12T09:45:07.000Z</time>
      </trkpt>
      <trkpt lat="47.34346" lon="-1.58515">
        <ele>96</ele>
        <time>2020-09-12T09:45:09.000Z</time>
      </trkpt>
      <trkpt lat="47.34337" lon="-1.58503">
        <ele>96</ele>
        <time>2020-09-12T09:45:11.000Z</time>
      </trkpt>
      <trkpt lat="47.34329" lon="-1.58491">
        <ele>96</ele>
        <time>2020-09-12T09:45:13.000Z</time>
      </trkpt>
      <trkpt lat="47.3432" lon="-1.58479">
        <ele>96</ele>
        <time>2020-09-12T09:45:15.000Z</time>
      </trkpt>
      <trkpt lat="47.34311" lon="-1.58465">
        <ele>96</ele>
        <time>2020-09-12T09:45:17.000Z</time>
      </trkpt>
      <trkpt lat="47.34302" lon="-1.58451">
        <ele>96</ele>
        <time>2020-09-12T09:45:19.000Z</time>
      </trkpt>
      <trkpt lat="47.34292" lon="-1.58436">
        <ele>95</ele>
        <time>2020-09-12T09:45:21.000Z</time>
      </trkpt>
      <trkpt lat="47.34281" lon="-1.58423">
        <ele>95</ele>
        <time>2020-09-12T09:45:23.000Z</time>
      </trkpt>
      <trkpt lat="47.3427" lon="-1.58408">
        <ele>95</ele>
        <time>2020-09-12T09:45:25.000Z</time>
      </trkpt>
      <trkpt lat="47.3426" lon="-1.58393">
        <ele>94</ele>
        <time>2020-09-12T09:45:27.000Z</time>
      </trkpt>
      <trkpt lat="47.34248" lon="-1.58378">
        <ele>94</ele>
        <time>2020-09-12T09:45:29.000Z</time>
      </trkpt>
      <trkpt lat="47.34237" lon="-1.58362">
        <ele>93</ele>
        <time>2020-09-12T09:45:31.000Z</time>
      </trkpt>
      <trkpt lat="47.34226" lon="-1.58347">
        <ele>93</ele>
        <time>2020-09-12T09:45:33.000Z</time>
      </trkpt>
      <trkpt lat="47.34214" lon="-1.58331">
        <ele>92</ele>
        <time>2020-09-12T09:45:35.000Z</time>
      </trkpt>
      <trkpt lat="47.34202" lon="-1.58316">
        <ele>92</ele>
        <time>2020-09-12T09:45:37.000Z</time>
      </trkpt>
      <trkpt lat="47.34191" lon="-1.583">
        <ele>92</ele>
        <time>2020-09-12T09:45:39.000Z</time>
      </trkpt>
      <trkpt lat="47.34179" lon="-1.58283">
        <ele>91</ele>
        <time>2020-09-12T09:45:41.000Z</time>
      </trkpt>
      <trkpt lat="47.34167" lon="-1.58268">
        <ele>91</ele>
        <time>2020-09-12T09:45:43.000Z</time>
      </trkpt>
      <trkpt lat="47.34156" lon="-1.58253">
        <ele>90</ele>
        <time>2020-09-12T09:45:45.000Z</time>
      </trkpt>
      <trkpt lat="47.34144" lon="-1.58237">
        <ele>90</ele>
        <time>2020-09-12T09:45:47.000Z</time>
      </trkpt>
      <trkpt lat="47.34133" lon="-1.58221">
        <ele>90</ele>
        <time>2020-09-12T09:45:49.000Z</time>
      </trkpt>
      <trkpt lat="47.34122" lon="-1.58205">
        <ele>90</ele>
        <time>2020-09-12T09:45:51.000Z</time>
      </trkpt>
      <trkpt lat="47.3411" lon="-1.5819">
        <ele>89</ele>
        <time>2020-09-12T09:45:53.000Z</time>
      </trkpt>
      <trkpt lat="47.34099" lon="-1.58175">
        <ele>88</ele>
        <time>2020-09-12T09:45:55.000Z</time>
      </trkpt>
      <trkpt lat="47.34088" lon="-1.5816">
        <ele>88</ele>
        <time>2020-09-12T09:45:57.000Z</time>
      </trkpt>
      <trkpt lat="47.34076" lon="-1.58145">
        <ele>88</ele>
        <time>2020-09-12T09:45:59.000Z</time>
      </trkpt>
      <trkpt lat="47.34064" lon="-1.5813">
        <ele>87</ele>
        <time>2020-09-12T09:46:01.000Z</time>
      </trkpt>
      <trkpt lat="47.34053" lon="-1.58114">
        <ele>87</ele>
        <time>2020-09-12T09:46:03.000Z</time>
      </trkpt>
      <trkpt lat="47.34041" lon="-1.58098">
        <ele>87</ele>
        <time>2020-09-12T09:46:05.000Z</time>
      </trkpt>
      <trkpt lat="47.3403" lon="-1.58083">
        <ele>87</ele>
        <time>2020-09-12T09:46:07.000Z</time>
      </trkpt>
      <trkpt lat="47.34019" lon="-1.58066">
        <ele>86</ele>
        <time>2020-09-12T09:46:09.000Z</time>
      </trkpt>
      <trkpt lat="47.34008" lon="-1.58049">
        <ele>87</ele>
        <time>2020-09-12T09:46:11.000Z</time>
      </trkpt>
      <trkpt lat="47.33995" lon="-1.58031">
        <ele>87</ele>
        <time>2020-09-12T09:46:13.000Z</time>
      </trkpt>
      <trkpt lat="47.33984" lon="-1.58014">
        <ele>86</ele>
        <time>2020-09-12T09:46:15.000Z</time>
      </trkpt>
      <trkpt lat="47.33973" lon="-1.57999">
        <ele>86</ele>
        <time>2020-09-12T09:46:17.000Z</time>
      </trkpt>
      <trkpt lat="47.33962" lon="-1.57984">
        <ele>86</ele>
        <time>2020-09-12T09:46:19.000Z</time>
      </trkpt>
      <trkpt lat="47.33951" lon="-1.5797">
        <ele>86</ele>
        <time>2020-09-12T09:46:21.000Z</time>
      </trkpt>
      <trkpt lat="47.3394" lon="-1.57955">
        <ele>86</ele>
        <time>2020-09-12T09:46:23.000Z</time>
      </trkpt>
      <trkpt lat="47.3393" lon="-1.57941">
        <ele>86</ele>
        <time>2020-09-12T09:46:25.000Z</time>
      </trkpt>
      <trkpt lat="47.3392" lon="-1.57928">
        <ele>86</ele>
        <time>2020-09-12T09:46:27.000Z</time>
      </trkpt>
      <trkpt lat="47.3391" lon="-1.57916">
        <ele>86</ele>
        <time>2020-09-12T09:46:29.000Z</time>
      </trkpt>
      <trkpt lat="47.33902" lon="-1.57903">
        <ele>86</ele>
        <time>2020-09-12T09:46:31.000Z</time>
      </trkpt>
      <trkpt lat="47.33892" lon="-1.57892">
        <ele>86</ele>
        <time>2020-09-12T09:46:33.000Z</time>
      </trkpt>
      <trkpt lat="47.33882" lon="-1.5788">
        <ele>87</ele>
        <time>2020-09-12T09:46:35.000Z</time>
      </trkpt>
      <trkpt lat="47.33873" lon="-1.57868">
        <ele>87</ele>
        <time>2020-09-12T09:46:37.000Z</time>
      </trkpt>
      <trkpt lat="47.33864" lon="-1.57858">
        <ele>87</ele>
        <time>2020-09-12T09:46:39.000Z</time>
      </trkpt>
      <trkpt lat="47.33856" lon="-1.5785">
        <ele>87</ele>
        <time>2020-09-12T09:46:41.000Z</time>
      </trkpt>
      <trkpt lat="47.33846" lon="-1.5784">
        <ele>87</ele>
        <time>2020-09-12T09:46:44.000Z</time>
      </trkpt>
      <trkpt lat="47.3384" lon="-1.57825">
        <ele>87</ele>
        <time>2020-09-12T09:46:48.000Z</time>
      </trkpt>
      <trkpt lat="47.33841" lon="-1.57812">
        <ele>87</ele>
        <time>2020-09-12T09:46:50.000Z</time>
      </trkpt>
      <trkpt lat="47.33842" lon="-1.57796">
        <ele>87</ele>
        <time>2020-09-12T09:46:52.000Z</time>
      </trkpt>
      <trkpt lat="47.33847" lon="-1.5778">
        <ele>87</ele>
        <time>2020-09-12T09:46:54.000Z</time>
      </trkpt>
      <trkpt lat="47.33852" lon="-1.57764">
        <ele>88</ele>
        <time>2020-09-12T09:46:56.000Z</time>
      </trkpt>
      <trkpt lat="47.33857" lon="-1.57749">
        <ele>88</ele>
        <time>2020-09-12T09:46:58.000Z</time>
      </trkpt>
      <trkpt lat="47.33861" lon="-1.57733">
        <ele>88</ele>
        <time>2020-09-12T09:47:00.000Z</time>
      </trkpt>
      <trkpt lat="47.33865" lon="-1.57717">
        <ele>88</ele>
        <time>2020-09-12T09:47:02.000Z</time>
      </trkpt>
      <trkpt lat="47.3387" lon="-1.57701">
        <ele>89</ele>
        <time>2020-09-12T09:47:04.000Z</time>
      </trkpt>
      <trkpt lat="47.33875" lon="-1.57685">
        <ele>90</ele>
        <time>2020-09-12T09:47:06.000Z</time>
      </trkpt>
      <trkpt lat="47.33879" lon="-1.57669">
        <ele>90</ele>
        <time>2020-09-12T09:47:08.000Z</time>
      </trkpt>
      <trkpt lat="47.33883" lon="-1.57653">
        <ele>90</ele>
        <time>2020-09-12T09:47:10.000Z</time>
      </trkpt>
      <trkpt lat="47.33888" lon="-1.57636">
        <ele>91</ele>
        <time>2020-09-12T09:47:12.000Z</time>
      </trkpt>
      <trkpt lat="47.33892" lon="-1.57621">
        <ele>91</ele>
        <time>2020-09-12T09:47:14.000Z</time>
      </trkpt>
      <trkpt lat="47.33897" lon="-1.57605">
        <ele>91</ele>
        <time>2020-09-12T09:47:16.000Z</time>
      </trkpt>
      <trkpt lat="47.33901" lon="-1.57589">
        <ele>90</ele>
        <time>2020-09-12T09:47:18.000Z</time>
      </trkpt>
      <trkpt lat="47.33906" lon="-1.57572">
        <ele>90</ele>
        <time>2020-09-12T09:47:20.000Z</time>
      </trkpt>
      <trkpt lat="47.33912" lon="-1.57555">
        <ele>90</ele>
        <time>2020-09-12T09:47:22.000Z</time>
      </trkpt>
      <trkpt lat="47.33916" lon="-1.57538">
        <ele>90</ele>
        <time>2020-09-12T09:47:24.000Z</time>
      </trkpt>
      <trkpt lat="47.33922" lon="-1.57519">
        <ele>89</ele>
        <time>2020-09-12T09:47:26.000Z</time>
      </trkpt>
      <trkpt lat="47.33927" lon="-1.57499">
        <ele>89</ele>
        <time>2020-09-12T09:47:28.000Z</time>
      </trkpt>
      <trkpt lat="47.33933" lon="-1.57479">
        <ele>88</ele>
        <time>2020-09-12T09:47:30.000Z</time>
      </trkpt>
      <trkpt lat="47.33939" lon="-1.57459">
        <ele>87</ele>
        <time>2020-09-12T09:47:32.000Z</time>
      </trkpt>
      <trkpt lat="47.33945" lon="-1.57438">
        <ele>87</ele>
        <time>2020-09-12T09:47:34.000Z</time>
      </trkpt>
      <trkpt lat="47.33951" lon="-1.57417">
        <ele>86</ele>
        <time>2020-09-12T09:47:36.000Z</time>
      </trkpt>
      <trkpt lat="47.33957" lon="-1.57395">
        <ele>85</ele>
        <time>2020-09-12T09:47:38.000Z</time>
      </trkpt>
      <trkpt lat="47.33963" lon="-1.57374">
        <ele>85</ele>
        <time>2020-09-12T09:47:40.000Z</time>
      </trkpt>
      <trkpt lat="47.3397" lon="-1.57351">
        <ele>83</ele>
        <time>2020-09-12T09:47:42.000Z</time>
      </trkpt>
      <trkpt lat="47.33976" lon="-1.57329">
        <ele>82</ele>
        <time>2020-09-12T09:47:44.000Z</time>
      </trkpt>
      <trkpt lat="47.3398" lon="-1.57307">
        <ele>82</ele>
        <time>2020-09-12T09:47:46.000Z</time>
      </trkpt>
      <trkpt lat="47.33982" lon="-1.57283">
        <ele>82</ele>
        <time>2020-09-12T09:47:48.000Z</time>
      </trkpt>
      <trkpt lat="47.33984" lon="-1.5726">
        <ele>81</ele>
        <time>2020-09-12T09:47:50.000Z</time>
      </trkpt>
      <trkpt lat="47.33986" lon="-1.57237">
        <ele>81</ele>
        <time>2020-09-12T09:47:52.000Z</time>
      </trkpt>
      <trkpt lat="47.33988" lon="-1.57214">
        <ele>81</ele>
        <time>2020-09-12T09:47:54.000Z</time>
      </trkpt>
      <trkpt lat="47.3399" lon="-1.57191">
        <ele>81</ele>
        <time>2020-09-12T09:47:56.000Z</time>
      </trkpt>
      <trkpt lat="47.33991" lon="-1.57168">
        <ele>81</ele>
        <time>2020-09-12T09:47:58.000Z</time>
      </trkpt>
      <trkpt lat="47.33992" lon="-1.57146">
        <ele>81</ele>
        <time>2020-09-12T09:48:00.000Z</time>
      </trkpt>
      <trkpt lat="47.33992" lon="-1.57124">
        <ele>81</ele>
        <time>2020-09-12T09:48:02.000Z</time>
      </trkpt>
      <trkpt lat="47.33992" lon="-1.57101">
        <ele>80</ele>
        <time>2020-09-12T09:48:04.000Z</time>
      </trkpt>
      <trkpt lat="47.33991" lon="-1.57078">
        <ele>80</ele>
        <time>2020-09-12T09:48:06.000Z</time>
      </trkpt>
      <trkpt lat="47.33991" lon="-1.57055">
        <ele>80</ele>
        <time>2020-09-12T09:48:08.000Z</time>
      </trkpt>
      <trkpt lat="47.33991" lon="-1.57032">
        <ele>79</ele>
        <time>2020-09-12T09:48:10.000Z</time>
      </trkpt>
      <trkpt lat="47.33991" lon="-1.57009">
        <ele>79</ele>
        <time>2020-09-12T09:48:12.000Z</time>
      </trkpt>
      <trkpt lat="47.33992" lon="-1.56986">
        <ele>79</ele>
        <time>2020-09-12T09:48:14.000Z</time>
      </trkpt>
      <trkpt lat="47.33992" lon="-1.56964">
        <ele>79</ele>
        <time>2020-09-12T09:48:16.000Z</time>
      </trkpt>
      <trkpt lat="47.33994" lon="-1.56941">
        <ele>79</ele>
        <time>2020-09-12T09:48:18.000Z</time>
      </trkpt>
      <trkpt lat="47.33994" lon="-1.56918">
        <ele>78</ele>
        <time>2020-09-12T09:48:20.000Z</time>
      </trkpt>
      <trkpt lat="47.33995" lon="-1.56894">
        <ele>78</ele>
        <time>2020-09-12T09:48:22.000Z</time>
      </trkpt>
      <trkpt lat="47.33997" lon="-1.56871">
        <ele>78</ele>
        <time>2020-09-12T09:48:24.000Z</time>
      </trkpt>
      <trkpt lat="47.33998" lon="-1.56846">
        <ele>79</ele>
        <time>2020-09-12T09:48:26.000Z</time>
      </trkpt>
      <trkpt lat="47.33999" lon="-1.56823">
        <ele>79</ele>
        <time>2020-09-12T09:48:28.000Z</time>
      </trkpt>
      <trkpt lat="47.34001" lon="-1.56801">
        <ele>78</ele>
        <time>2020-09-12T09:48:30.000Z</time>
      </trkpt>
      <trkpt lat="47.34002" lon="-1.5678">
        <ele>78</ele>
        <time>2020-09-12T09:48:32.000Z</time>
      </trkpt>
      <trkpt lat="47.34004" lon="-1.56759">
        <ele>78</ele>
        <time>2020-09-12T09:48:34.000Z</time>
      </trkpt>
      <trkpt lat="47.34004" lon="-1.56738">
        <ele>79</ele>
        <time>2020-09-12T09:48:36.000Z</time>
      </trkpt>
      <trkpt lat="47.34005" lon="-1.56718">
        <ele>78</ele>
        <time>2020-09-12T09:48:38.000Z</time>
      </trkpt>
      <trkpt lat="47.34006" lon="-1.56697">
        <ele>78</ele>
        <time>2020-09-12T09:48:40.000Z</time>
      </trkpt>
      <trkpt lat="47.34007" lon="-1.56676">
        <ele>78</ele>
        <time>2020-09-12T09:48:42.000Z</time>
      </trkpt>
      <trkpt lat="47.34008" lon="-1.56654">
        <ele>77</ele>
        <time>2020-09-12T09:48:44.000Z</time>
      </trkpt>
      <trkpt lat="47.34009" lon="-1.56632">
        <ele>76</ele>
        <time>2020-09-12T09:48:46.000Z</time>
      </trkpt>
      <trkpt lat="47.3401" lon="-1.56608">
        <ele>75</ele>
        <time>2020-09-12T09:48:48.000Z</time>
      </trkpt>
      <trkpt lat="47.34011" lon="-1.56584">
        <ele>75</ele>
        <time>2020-09-12T09:48:50.000Z</time>
      </trkpt>
      <trkpt lat="47.34012" lon="-1.56561">
        <ele>74</ele>
        <time>2020-09-12T09:48:52.000Z</time>
      </trkpt>
      <trkpt lat="47.34013" lon="-1.56536">
        <ele>73</ele>
        <time>2020-09-12T09:48:54.000Z</time>
      </trkpt>
      <trkpt lat="47.34014" lon="-1.56511">
        <ele>72</ele>
        <time>2020-09-12T09:48:56.000Z</time>
      </trkpt>
      <trkpt lat="47.34016" lon="-1.56486">
        <ele>72</ele>
        <time>2020-09-12T09:48:58.000Z</time>
      </trkpt>
      <trkpt lat="47.34017" lon="-1.56462">
        <ele>72</ele>
        <time>2020-09-12T09:49:00.000Z</time>
      </trkpt>
      <trkpt lat="47.34018" lon="-1.56439">
        <ele>72</ele>
        <time>2020-09-12T09:49:02.000Z</time>
      </trkpt>
      <trkpt lat="47.34019" lon="-1.56416">
        <ele>72</ele>
        <time>2020-09-12T09:49:04.000Z</time>
      </trkpt>
      <trkpt lat="47.34019" lon="-1.56394">
        <ele>72</ele>
        <time>2020-09-12T09:49:06.000Z</time>
      </trkpt>
      <trkpt lat="47.34019" lon="-1.56373">
        <ele>72</ele>
        <time>2020-09-12T09:49:08.000Z</time>
      </trkpt>
      <trkpt lat="47.34018" lon="-1.56352">
        <ele>72</ele>
        <time>2020-09-12T09:49:10.000Z</time>
      </trkpt>
      <trkpt lat="47.34015" lon="-1.56331">
        <ele>72</ele>
        <time>2020-09-12T09:49:12.000Z</time>
      </trkpt>
      <trkpt lat="47.34012" lon="-1.5631">
        <ele>72</ele>
        <time>2020-09-12T09:49:14.000Z</time>
      </trkpt>
      <trkpt lat="47.34009" lon="-1.56288">
        <ele>72</ele>
        <time>2020-09-12T09:49:16.000Z</time>
      </trkpt>
      <trkpt lat="47.34005" lon="-1.56266">
        <ele>72</ele>
        <time>2020-09-12T09:49:18.000Z</time>
      </trkpt>
      <trkpt lat="47.34001" lon="-1.56244">
        <ele>72</ele>
        <time>2020-09-12T09:49:20.000Z</time>
      </trkpt>
      <trkpt lat="47.33997" lon="-1.56222">
        <ele>72</ele>
        <time>2020-09-12T09:49:22.000Z</time>
      </trkpt>
      <trkpt lat="47.33993" lon="-1.56199">
        <ele>72</ele>
        <time>2020-09-12T09:49:24.000Z</time>
      </trkpt>
      <trkpt lat="47.3399" lon="-1.56173">
        <ele>72</ele>
        <time>2020-09-12T09:49:26.000Z</time>
      </trkpt>
      <trkpt lat="47.33988" lon="-1.5616">
        <ele>71</ele>
        <time>2020-09-12T09:49:27.000Z</time>
      </trkpt>
      <trkpt lat="47.33986" lon="-1.56146">
        <ele>71</ele>
        <time>2020-09-12T09:49:28.000Z</time>
      </trkpt>
      <trkpt lat="47.33983" lon="-1.56133">
        <ele>71</ele>
        <time>2020-09-12T09:49:29.000Z</time>
      </trkpt>
      <trkpt lat="47.33982" lon="-1.5612">
        <ele>71</ele>
        <time>2020-09-12T09:49:30.000Z</time>
      </trkpt>
      <trkpt lat="47.3398" lon="-1.56107">
        <ele>71</ele>
        <time>2020-09-12T09:49:31.000Z</time>
      </trkpt>
      <trkpt lat="47.33978" lon="-1.56093">
        <ele>71</ele>
        <time>2020-09-12T09:49:32.000Z</time>
      </trkpt>
      <trkpt lat="47.33977" lon="-1.5608">
        <ele>70</ele>
        <time>2020-09-12T09:49:33.000Z</time>
      </trkpt>
      <trkpt lat="47.33976" lon="-1.56065">
        <ele>69</ele>
        <time>2020-09-12T09:49:34.000Z</time>
      </trkpt>
      <trkpt lat="47.33978" lon="-1.56049">
        <ele>69</ele>
        <time>2020-09-12T09:49:35.000Z</time>
      </trkpt>
      <trkpt lat="47.33982" lon="-1.56034">
        <ele>67</ele>
        <time>2020-09-12T09:49:36.000Z</time>
      </trkpt>
      <trkpt lat="47.33987" lon="-1.5602">
        <ele>66</ele>
        <time>2020-09-12T09:49:37.000Z</time>
      </trkpt>
      <trkpt lat="47.33993" lon="-1.56008">
        <ele>65</ele>
        <time>2020-09-12T09:49:38.000Z</time>
      </trkpt>
      <trkpt lat="47.34" lon="-1.55997">
        <ele>64</ele>
        <time>2020-09-12T09:49:39.000Z</time>
      </trkpt>
      <trkpt lat="47.34006" lon="-1.55988">
        <ele>62</ele>
        <time>2020-09-12T09:49:40.000Z</time>
      </trkpt>
      <trkpt lat="47.34013" lon="-1.55979">
        <ele>61</ele>
        <time>2020-09-12T09:49:41.000Z</time>
      </trkpt>
      <trkpt lat="47.34021" lon="-1.5597">
        <ele>61</ele>
        <time>2020-09-12T09:49:42.000Z</time>
      </trkpt>
      <trkpt lat="47.34029" lon="-1.55962">
        <ele>60</ele>
        <time>2020-09-12T09:49:43.000Z</time>
      </trkpt>
      <trkpt lat="47.34036" lon="-1.55953">
        <ele>60</ele>
        <time>2020-09-12T09:49:44.000Z</time>
      </trkpt>
      <trkpt lat="47.34044" lon="-1.55944">
        <ele>60</ele>
        <time>2020-09-12T09:49:45.000Z</time>
      </trkpt>
      <trkpt lat="47.34051" lon="-1.55935">
        <ele>60</ele>
        <time>2020-09-12T09:49:46.000Z</time>
      </trkpt>
      <trkpt lat="47.34058" lon="-1.55925">
        <ele>60</ele>
        <time>2020-09-12T09:49:47.000Z</time>
      </trkpt>
      <trkpt lat="47.34065" lon="-1.55903">
        <ele>60</ele>
        <time>2020-09-12T09:49:49.000Z</time>
      </trkpt>
      <trkpt lat="47.34064" lon="-1.55882">
        <ele>61</ele>
        <time>2020-09-12T09:49:51.000Z</time>
      </trkpt>
      <trkpt lat="47.34061" lon="-1.55862">
        <ele>62</ele>
        <time>2020-09-12T09:49:53.000Z</time>
      </trkpt>
      <trkpt lat="47.34058" lon="-1.55845">
        <ele>63</ele>
        <time>2020-09-12T09:49:55.000Z</time>
      </trkpt>
      <trkpt lat="47.34055" lon="-1.55829">
        <ele>64</ele>
        <time>2020-09-12T09:49:57.000Z</time>
      </trkpt>
      <trkpt lat="47.34053" lon="-1.55813">
        <ele>64</ele>
        <time>2020-09-12T09:49:59.000Z</time>
      </trkpt>
      <trkpt lat="47.34051" lon="-1.55797">
        <ele>64</ele>
        <time>2020-09-12T09:50:01.000Z</time>
      </trkpt>
      <trkpt lat="47.34051" lon="-1.55781">
        <ele>65</ele>
        <time>2020-09-12T09:50:03.000Z</time>
      </trkpt>
      <trkpt lat="47.34053" lon="-1.55764">
        <ele>66</ele>
        <time>2020-09-12T09:50:05.000Z</time>
      </trkpt>
      <trkpt lat="47.34054" lon="-1.55748">
        <ele>66</ele>
        <time>2020-09-12T09:50:07.000Z</time>
      </trkpt>
      <trkpt lat="47.34058" lon="-1.5573">
        <ele>66</ele>
        <time>2020-09-12T09:50:09.000Z</time>
      </trkpt>
      <trkpt lat="47.34061" lon="-1.55713">
        <ele>66</ele>
        <time>2020-09-12T09:50:11.000Z</time>
      </trkpt>
      <trkpt lat="47.34065" lon="-1.55694">
        <ele>67</ele>
        <time>2020-09-12T09:50:13.000Z</time>
      </trkpt>
      <trkpt lat="47.34069" lon="-1.55676">
        <ele>67</ele>
        <time>2020-09-12T09:50:15.000Z</time>
      </trkpt>
      <trkpt lat="47.34073" lon="-1.55658">
        <ele>67</ele>
        <time>2020-09-12T09:50:17.000Z</time>
      </trkpt>
      <trkpt lat="47.34076" lon="-1.55642">
        <ele>67</ele>
        <time>2020-09-12T09:50:19.000Z</time>
      </trkpt>
      <trkpt lat="47.3408" lon="-1.55624">
        <ele>67</ele>
        <time>2020-09-12T09:50:21.000Z</time>
      </trkpt>
      <trkpt lat="47.34085" lon="-1.55608">
        <ele>67</ele>
        <time>2020-09-12T09:50:23.000Z</time>
      </trkpt>
      <trkpt lat="47.34088" lon="-1.55591">
        <ele>67</ele>
        <time>2020-09-12T09:50:25.000Z</time>
      </trkpt>
      <trkpt lat="47.34093" lon="-1.55575">
        <ele>68</ele>
        <time>2020-09-12T09:50:27.000Z</time>
      </trkpt>
      <trkpt lat="47.34098" lon="-1.55559">
        <ele>67</ele>
        <time>2020-09-12T09:50:29.000Z</time>
      </trkpt>
      <trkpt lat="47.34104" lon="-1.55542">
        <ele>67</ele>
        <time>2020-09-12T09:50:31.000Z</time>
      </trkpt>
      <trkpt lat="47.34111" lon="-1.55527">
        <ele>66</ele>
        <time>2020-09-12T09:50:33.000Z</time>
      </trkpt>
      <trkpt lat="47.34119" lon="-1.55511">
        <ele>67</ele>
        <time>2020-09-12T09:50:35.000Z</time>
      </trkpt>
      <trkpt lat="47.34127" lon="-1.55496">
        <ele>66</ele>
        <time>2020-09-12T09:50:37.000Z</time>
      </trkpt>
      <trkpt lat="47.34135" lon="-1.55483">
        <ele>67</ele>
        <time>2020-09-12T09:50:39.000Z</time>
      </trkpt>
      <trkpt lat="47.34143" lon="-1.5547">
        <ele>67</ele>
        <time>2020-09-12T09:50:41.000Z</time>
      </trkpt>
      <trkpt lat="47.34151" lon="-1.55457">
        <ele>67</ele>
        <time>2020-09-12T09:50:43.000Z</time>
      </trkpt>
      <trkpt lat="47.34159" lon="-1.55444">
        <ele>66</ele>
        <time>2020-09-12T09:50:45.000Z</time>
      </trkpt>
      <trkpt lat="47.34168" lon="-1.55432">
        <ele>67</ele>
        <time>2020-09-12T09:50:47.000Z</time>
      </trkpt>
      <trkpt lat="47.34176" lon="-1.5542">
        <ele>67</ele>
        <time>2020-09-12T09:50:49.000Z</time>
      </trkpt>
      <trkpt lat="47.34184" lon="-1.55407">
        <ele>67</ele>
        <time>2020-09-12T09:50:51.000Z</time>
      </trkpt>
      <trkpt lat="47.34193" lon="-1.55396">
        <ele>67</ele>
        <time>2020-09-12T09:50:53.000Z</time>
      </trkpt>
      <trkpt lat="47.34201" lon="-1.55383">
        <ele>67</ele>
        <time>2020-09-12T09:50:55.000Z</time>
      </trkpt>
      <trkpt lat="47.34209" lon="-1.55371">
        <ele>66</ele>
        <time>2020-09-12T09:50:57.000Z</time>
      </trkpt>
      <trkpt lat="47.34218" lon="-1.55359">
        <ele>65</ele>
        <time>2020-09-12T09:50:59.000Z</time>
      </trkpt>
      <trkpt lat="47.34226" lon="-1.55346">
        <ele>65</ele>
        <time>2020-09-12T09:51:01.000Z</time>
      </trkpt>
      <trkpt lat="47.34235" lon="-1.55332">
        <ele>65</ele>
        <time>2020-09-12T09:51:03.000Z</time>
      </trkpt>
      <trkpt lat="47.34244" lon="-1.55318">
        <ele>65</ele>
        <time>2020-09-12T09:51:05.000Z</time>
      </trkpt>
      <trkpt lat="47.34254" lon="-1.55303">
        <ele>65</ele>
        <time>2020-09-12T09:51:07.000Z</time>
      </trkpt>
      <trkpt lat="47.34264" lon="-1.55289">
        <ele>65</ele>
        <time>2020-09-12T09:51:09.000Z</time>
      </trkpt>
      <trkpt lat="47.34274" lon="-1.55274">
        <ele>64</ele>
        <time>2020-09-12T09:51:11.000Z</time>
      </trkpt>
      <trkpt lat="47.34284" lon="-1.55259">
        <ele>64</ele>
        <time>2020-09-12T09:51:13.000Z</time>
      </trkpt>
      <trkpt lat="47.34292" lon="-1.55242">
        <ele>64</ele>
        <time>2020-09-12T09:51:15.000Z</time>
      </trkpt>
      <trkpt lat="47.34299" lon="-1.55223">
        <ele>64</ele>
        <time>2020-09-12T09:51:17.000Z</time>
      </trkpt>
      <trkpt lat="47.34305" lon="-1.55203">
        <ele>63</ele>
        <time>2020-09-12T09:51:19.000Z</time>
      </trkpt>
      <trkpt lat="47.34309" lon="-1.55181">
        <ele>62</ele>
        <time>2020-09-12T09:51:21.000Z</time>
      </trkpt>
      <trkpt lat="47.34311" lon="-1.55159">
        <ele>61</ele>
        <time>2020-09-12T09:51:23.000Z</time>
      </trkpt>
      <trkpt lat="47.34314" lon="-1.55136">
        <ele>61</ele>
        <time>2020-09-12T09:51:25.000Z</time>
      </trkpt>
      <trkpt lat="47.34316" lon="-1.55112">
        <ele>61</ele>
        <time>2020-09-12T09:51:27.000Z</time>
      </trkpt>
      <trkpt lat="47.34318" lon="-1.55088">
        <ele>61</ele>
        <time>2020-09-12T09:51:29.000Z</time>
      </trkpt>
      <trkpt lat="47.3432" lon="-1.55066">
        <ele>61</ele>
        <time>2020-09-12T09:51:31.000Z</time>
      </trkpt>
      <trkpt lat="47.34322" lon="-1.55046">
        <ele>62</ele>
        <time>2020-09-12T09:51:33.000Z</time>
      </trkpt>
      <trkpt lat="47.34323" lon="-1.55028">
        <ele>62</ele>
        <time>2020-09-12T09:51:35.000Z</time>
      </trkpt>
      <trkpt lat="47.34325" lon="-1.5501">
        <ele>63</ele>
        <time>2020-09-12T09:51:37.000Z</time>
      </trkpt>
      <trkpt lat="47.34327" lon="-1.54995">
        <ele>63</ele>
        <time>2020-09-12T09:51:39.000Z</time>
      </trkpt>
      <trkpt lat="47.34328" lon="-1.54979">
        <ele>64</ele>
        <time>2020-09-12T09:51:41.000Z</time>
      </trkpt>
      <trkpt lat="47.3433" lon="-1.54964">
        <ele>65</ele>
        <time>2020-09-12T09:51:43.000Z</time>
      </trkpt>
      <trkpt lat="47.34331" lon="-1.54948">
        <ele>65</ele>
        <time>2020-09-12T09:51:45.000Z</time>
      </trkpt>
      <trkpt lat="47.34332" lon="-1.54932">
        <ele>66</ele>
        <time>2020-09-12T09:51:47.000Z</time>
      </trkpt>
      <trkpt lat="47.34333" lon="-1.54917">
        <ele>67</ele>
        <time>2020-09-12T09:51:49.000Z</time>
      </trkpt>
      <trkpt lat="47.34334" lon="-1.54901">
        <ele>68</ele>
        <time>2020-09-12T09:51:51.000Z</time>
      </trkpt>
      <trkpt lat="47.34336" lon="-1.54885">
        <ele>68</ele>
        <time>2020-09-12T09:51:53.000Z</time>
      </trkpt>
      <trkpt lat="47.34337" lon="-1.5487">
        <ele>69</ele>
        <time>2020-09-12T09:51:55.000Z</time>
      </trkpt>
      <trkpt lat="47.34339" lon="-1.54854">
        <ele>69</ele>
        <time>2020-09-12T09:51:57.000Z</time>
      </trkpt>
      <trkpt lat="47.34341" lon="-1.54839">
        <ele>70</ele>
        <time>2020-09-12T09:51:59.000Z</time>
      </trkpt>
      <trkpt lat="47.34342" lon="-1.54824">
        <ele>70</ele>
        <time>2020-09-12T09:52:01.000Z</time>
      </trkpt>
      <trkpt lat="47.34343" lon="-1.54809">
        <ele>71</ele>
        <time>2020-09-12T09:52:03.000Z</time>
      </trkpt>
      <trkpt lat="47.34345" lon="-1.54794">
        <ele>71</ele>
        <time>2020-09-12T09:52:05.000Z</time>
      </trkpt>
      <trkpt lat="47.34346" lon="-1.54779">
        <ele>72</ele>
        <time>2020-09-12T09:52:07.000Z</time>
      </trkpt>
      <trkpt lat="47.34348" lon="-1.54764">
        <ele>72</ele>
        <time>2020-09-12T09:52:09.000Z</time>
      </trkpt>
      <trkpt lat="47.34352" lon="-1.54751">
        <ele>73</ele>
        <time>2020-09-12T09:52:11.000Z</time>
      </trkpt>
      <trkpt lat="47.34356" lon="-1.54738">
        <ele>74</ele>
        <time>2020-09-12T09:52:13.000Z</time>
      </trkpt>
      <trkpt lat="47.34361" lon="-1.54725">
        <ele>74</ele>
        <time>2020-09-12T09:52:15.000Z</time>
      </trkpt>
      <trkpt lat="47.34367" lon="-1.54715">
        <ele>75</ele>
        <time>2020-09-12T09:52:17.000Z</time>
      </trkpt>
      <trkpt lat="47.34374" lon="-1.54705">
        <ele>75</ele>
        <time>2020-09-12T09:52:19.000Z</time>
      </trkpt>
      <trkpt lat="47.34382" lon="-1.54696">
        <ele>76</ele>
        <time>2020-09-12T09:52:21.000Z</time>
      </trkpt>
      <trkpt lat="47.3439" lon="-1.54687">
        <ele>76</ele>
        <time>2020-09-12T09:52:23.000Z</time>
      </trkpt>
      <trkpt lat="47.34397" lon="-1.54678">
        <ele>77</ele>
        <time>2020-09-12T09:52:25.000Z</time>
      </trkpt>
      <trkpt lat="47.34406" lon="-1.5467">
        <ele>77</ele>
        <time>2020-09-12T09:52:27.000Z</time>
      </trkpt>
      <trkpt lat="47.34413" lon="-1.5466">
        <ele>77</ele>
        <time>2020-09-12T09:52:29.000Z</time>
      </trkpt>
      <trkpt lat="47.3442" lon="-1.54648">
        <ele>77</ele>
        <time>2020-09-12T09:52:31.000Z</time>
      </trkpt>
      <trkpt lat="47.34425" lon="-1.54635">
        <ele>78</ele>
        <time>2020-09-12T09:52:33.000Z</time>
      </trkpt>
      <trkpt lat="47.34427" lon="-1.5462">
        <ele>78</ele>
        <time>2020-09-12T09:52:35.000Z</time>
      </trkpt>
      <trkpt lat="47.34427" lon="-1.54605">
        <ele>78</ele>
        <time>2020-09-12T09:52:37.000Z</time>
      </trkpt>
      <trkpt lat="47.34425" lon="-1.54591">
        <ele>79</ele>
        <time>2020-09-12T09:52:39.000Z</time>
      </trkpt>
      <trkpt lat="47.34423" lon="-1.54576">
        <ele>79</ele>
        <time>2020-09-12T09:52:41.000Z</time>
      </trkpt>
      <trkpt lat="47.3442" lon="-1.54562">
        <ele>79</ele>
        <time>2020-09-12T09:52:43.000Z</time>
      </trkpt>
      <trkpt lat="47.34418" lon="-1.54549">
        <ele>80</ele>
        <time>2020-09-12T09:52:45.000Z</time>
      </trkpt>
      <trkpt lat="47.34415" lon="-1.54536">
        <ele>80</ele>
        <time>2020-09-12T09:52:47.000Z</time>
      </trkpt>
      <trkpt lat="47.34412" lon="-1.54521">
        <ele>81</ele>
        <time>2020-09-12T09:52:49.000Z</time>
      </trkpt>
      <trkpt lat="47.3441" lon="-1.54508">
        <ele>81</ele>
        <time>2020-09-12T09:52:51.000Z</time>
      </trkpt>
      <trkpt lat="47.34407" lon="-1.54494">
        <ele>81</ele>
        <time>2020-09-12T09:52:53.000Z</time>
      </trkpt>
      <trkpt lat="47.34404" lon="-1.54481">
        <ele>82</ele>
        <time>2020-09-12T09:52:55.000Z</time>
      </trkpt>
      <trkpt lat="47.34401" lon="-1.54467">
        <ele>82</ele>
        <time>2020-09-12T09:52:57.000Z</time>
      </trkpt>
      <trkpt lat="47.34398" lon="-1.54454">
        <ele>83</ele>
        <time>2020-09-12T09:52:59.000Z</time>
      </trkpt>
      <trkpt lat="47.34395" lon="-1.54439">
        <ele>83</ele>
        <time>2020-09-12T09:53:01.000Z</time>
      </trkpt>
      <trkpt lat="47.34393" lon="-1.54425">
        <ele>84</ele>
        <time>2020-09-12T09:53:03.000Z</time>
      </trkpt>
      <trkpt lat="47.34389" lon="-1.54411">
        <ele>84</ele>
        <time>2020-09-12T09:53:05.000Z</time>
      </trkpt>
      <trkpt lat="47.34386" lon="-1.54397">
        <ele>84</ele>
        <time>2020-09-12T09:53:07.000Z</time>
      </trkpt>
      <trkpt lat="47.34382" lon="-1.54382">
        <ele>84</ele>
        <time>2020-09-12T09:53:09.000Z</time>
      </trkpt>
      <trkpt lat="47.34378" lon="-1.54368">
        <ele>84</ele>
        <time>2020-09-12T09:53:11.000Z</time>
      </trkpt>
      <trkpt lat="47.34374" lon="-1.54354">
        <ele>85</ele>
        <time>2020-09-12T09:53:13.000Z</time>
      </trkpt>
      <trkpt lat="47.34369" lon="-1.5434">
        <ele>85</ele>
        <time>2020-09-12T09:53:15.000Z</time>
      </trkpt>
      <trkpt lat="47.34364" lon="-1.54326">
        <ele>85</ele>
        <time>2020-09-12T09:53:17.000Z</time>
      </trkpt>
      <trkpt lat="47.34358" lon="-1.54311">
        <ele>86</ele>
        <time>2020-09-12T09:53:19.000Z</time>
      </trkpt>
      <trkpt lat="47.34353" lon="-1.54297">
        <ele>86</ele>
        <time>2020-09-12T09:53:21.000Z</time>
      </trkpt>
      <trkpt lat="47.34347" lon="-1.54282">
        <ele>86</ele>
        <time>2020-09-12T09:53:23.000Z</time>
      </trkpt>
      <trkpt lat="47.3434" lon="-1.54265">
        <ele>86</ele>
        <time>2020-09-12T09:53:25.000Z</time>
      </trkpt>
      <trkpt lat="47.34334" lon="-1.54249">
        <ele>86</ele>
        <time>2020-09-12T09:53:27.000Z</time>
      </trkpt>
      <trkpt lat="47.34327" lon="-1.54232">
        <ele>85</ele>
        <time>2020-09-12T09:53:29.000Z</time>
      </trkpt>
      <trkpt lat="47.3432" lon="-1.54215">
        <ele>85</ele>
        <time>2020-09-12T09:53:31.000Z</time>
      </trkpt>
      <trkpt lat="47.34312" lon="-1.54198">
        <ele>85</ele>
        <time>2020-09-12T09:53:33.000Z</time>
      </trkpt>
      <trkpt lat="47.34306" lon="-1.5418">
        <ele>84</ele>
        <time>2020-09-12T09:53:35.000Z</time>
      </trkpt>
      <trkpt lat="47.343" lon="-1.54161">
        <ele>84</ele>
        <time>2020-09-12T09:53:37.000Z</time>
      </trkpt>
      <trkpt lat="47.34295" lon="-1.54141">
        <ele>83</ele>
        <time>2020-09-12T09:53:39.000Z</time>
      </trkpt>
      <trkpt lat="47.34291" lon="-1.54121">
        <ele>83</ele>
        <time>2020-09-12T09:53:41.000Z</time>
      </trkpt>
      <trkpt lat="47.34288" lon="-1.541">
        <ele>83</ele>
        <time>2020-09-12T09:53:43.000Z</time>
      </trkpt>
      <trkpt lat="47.34285" lon="-1.5408">
        <ele>83</ele>
        <time>2020-09-12T09:53:45.000Z</time>
      </trkpt>
      <trkpt lat="47.34282" lon="-1.54058">
        <ele>82</ele>
        <time>2020-09-12T09:53:47.000Z</time>
      </trkpt>
      <trkpt lat="47.34277" lon="-1.54037">
        <ele>82</ele>
        <time>2020-09-12T09:53:49.000Z</time>
      </trkpt>
      <trkpt lat="47.34272" lon="-1.54016">
        <ele>82</ele>
        <time>2020-09-12T09:53:51.000Z</time>
      </trkpt>
      <trkpt lat="47.34266" lon="-1.53997">
        <ele>82</ele>
        <time>2020-09-12T09:53:53.000Z</time>
      </trkpt>
      <trkpt lat="47.34258" lon="-1.5398">
        <ele>81</ele>
        <time>2020-09-12T09:53:55.000Z</time>
      </trkpt>
      <trkpt lat="47.34251" lon="-1.53961">
        <ele>82</ele>
        <time>2020-09-12T09:53:57.000Z</time>
      </trkpt>
      <trkpt lat="47.34244" lon="-1.53942">
        <ele>82</ele>
        <time>2020-09-12T09:53:59.000Z</time>
      </trkpt>
      <trkpt lat="47.34235" lon="-1.53925">
        <ele>82</ele>
        <time>2020-09-12T09:54:01.000Z</time>
      </trkpt>
      <trkpt lat="47.34226" lon="-1.5391">
        <ele>82</ele>
        <time>2020-09-12T09:54:03.000Z</time>
      </trkpt>
      <trkpt lat="47.34216" lon="-1.53896">
        <ele>82</ele>
        <time>2020-09-12T09:54:05.000Z</time>
      </trkpt>
      <trkpt lat="47.34205" lon="-1.53883">
        <ele>83</ele>
        <time>2020-09-12T09:54:07.000Z</time>
      </trkpt>
      <trkpt lat="47.34194" lon="-1.53871">
        <ele>82</ele>
        <time>2020-09-12T09:54:09.000Z</time>
      </trkpt>
      <trkpt lat="47.34183" lon="-1.53859">
        <ele>82</ele>
        <time>2020-09-12T09:54:11.000Z</time>
      </trkpt>
      <trkpt lat="47.34171" lon="-1.53847">
        <ele>83</ele>
        <time>2020-09-12T09:54:13.000Z</time>
      </trkpt>
      <trkpt lat="47.34159" lon="-1.53835">
        <ele>83</ele>
        <time>2020-09-12T09:54:15.000Z</time>
      </trkpt>
      <trkpt lat="47.34147" lon="-1.53823">
        <ele>82</ele>
        <time>2020-09-12T09:54:17.000Z</time>
      </trkpt>
      <trkpt lat="47.34136" lon="-1.5381">
        <ele>83</ele>
        <time>2020-09-12T09:54:19.000Z</time>
      </trkpt>
      <trkpt lat="47.34125" lon="-1.53798">
        <ele>83</ele>
        <time>2020-09-12T09:54:21.000Z</time>
      </trkpt>
      <trkpt lat="47.34114" lon="-1.53786">
        <ele>82</ele>
        <time>2020-09-12T09:54:23.000Z</time>
      </trkpt>
      <trkpt lat="47.34102" lon="-1.53773">
        <ele>81</ele>
        <time>2020-09-12T09:54:25.000Z</time>
      </trkpt>
      <trkpt lat="47.3409" lon="-1.53761">
        <ele>81</ele>
        <time>2020-09-12T09:54:27.000Z</time>
      </trkpt>
      <trkpt lat="47.34079" lon="-1.53749">
        <ele>81</ele>
        <time>2020-09-12T09:54:29.000Z</time>
      </trkpt>
      <trkpt lat="47.34067" lon="-1.53737">
        <ele>81</ele>
        <time>2020-09-12T09:54:31.000Z</time>
      </trkpt>
      <trkpt lat="47.34056" lon="-1.53725">
        <ele>81</ele>
        <time>2020-09-12T09:54:33.000Z</time>
      </trkpt>
      <trkpt lat="47.34044" lon="-1.53713">
        <ele>81</ele>
        <time>2020-09-12T09:54:35.000Z</time>
      </trkpt>
      <trkpt lat="47.34032" lon="-1.53701">
        <ele>81</ele>
        <time>2020-09-12T09:54:37.000Z</time>
      </trkpt>
      <trkpt lat="47.3402" lon="-1.53688">
        <ele>81</ele>
        <time>2020-09-12T09:54:39.000Z</time>
      </trkpt>
      <trkpt lat="47.34008" lon="-1.53676">
        <ele>80</ele>
        <time>2020-09-12T09:54:41.000Z</time>
      </trkpt>
      <trkpt lat="47.33995" lon="-1.53663">
        <ele>79</ele>
        <time>2020-09-12T09:54:43.000Z</time>
      </trkpt>
      <trkpt lat="47.33982" lon="-1.53649">
        <ele>79</ele>
        <time>2020-09-12T09:54:45.000Z</time>
      </trkpt>
      <trkpt lat="47.33968" lon="-1.53636">
        <ele>78</ele>
        <time>2020-09-12T09:54:47.000Z</time>
      </trkpt>
      <trkpt lat="47.33955" lon="-1.53622">
        <ele>78</ele>
        <time>2020-09-12T09:54:49.000Z</time>
      </trkpt>
      <trkpt lat="47.33941" lon="-1.53608">
        <ele>77</ele>
        <time>2020-09-12T09:54:51.000Z</time>
      </trkpt>
      <trkpt lat="47.33928" lon="-1.53593">
        <ele>77</ele>
        <time>2020-09-12T09:54:53.000Z</time>
      </trkpt>
      <trkpt lat="47.33917" lon="-1.53573">
        <ele>77</ele>
        <time>2020-09-12T09:54:55.000Z</time>
      </trkpt>
      <trkpt lat="47.33914" lon="-1.5356">
        <ele>76</ele>
        <time>2020-09-12T09:54:56.000Z</time>
      </trkpt>
      <trkpt lat="47.33912" lon="-1.53547">
        <ele>76</ele>
        <time>2020-09-12T09:54:57.000Z</time>
      </trkpt>
      <trkpt lat="47.33911" lon="-1.53533">
        <ele>75</ele>
        <time>2020-09-12T09:54:58.000Z</time>
      </trkpt>
      <trkpt lat="47.33913" lon="-1.53508">
        <ele>74</ele>
        <time>2020-09-12T09:55:00.000Z</time>
      </trkpt>
      <trkpt lat="47.33914" lon="-1.53482">
        <ele>73</ele>
        <time>2020-09-12T09:55:02.000Z</time>
      </trkpt>
      <trkpt lat="47.33913" lon="-1.53456">
        <ele>72</ele>
        <time>2020-09-12T09:55:04.000Z</time>
      </trkpt>
      <trkpt lat="47.33906" lon="-1.53434">
        <ele>71</ele>
        <time>2020-09-12T09:55:06.000Z</time>
      </trkpt>
      <trkpt lat="47.33897" lon="-1.53413">
        <ele>71</ele>
        <time>2020-09-12T09:55:08.000Z</time>
      </trkpt>
      <trkpt lat="47.33894" lon="-1.53389">
        <ele>70</ele>
        <time>2020-09-12T09:55:10.000Z</time>
      </trkpt>
      <trkpt lat="47.33898" lon="-1.53364">
        <ele>69</ele>
        <time>2020-09-12T09:55:12.000Z</time>
      </trkpt>
      <trkpt lat="47.33906" lon="-1.53343">
        <ele>68</ele>
        <time>2020-09-12T09:55:14.000Z</time>
      </trkpt>
      <trkpt lat="47.33915" lon="-1.53322">
        <ele>67</ele>
        <time>2020-09-12T09:55:16.000Z</time>
      </trkpt>
      <trkpt lat="47.33924" lon="-1.53301">
        <ele>66</ele>
        <time>2020-09-12T09:55:18.000Z</time>
      </trkpt>
      <trkpt lat="47.33933" lon="-1.5328">
        <ele>65</ele>
        <time>2020-09-12T09:55:20.000Z</time>
      </trkpt>
      <trkpt lat="47.33942" lon="-1.53259">
        <ele>64</ele>
        <time>2020-09-12T09:55:22.000Z</time>
      </trkpt>
      <trkpt lat="47.3395" lon="-1.53238">
        <ele>63</ele>
        <time>2020-09-12T09:55:24.000Z</time>
      </trkpt>
      <trkpt lat="47.33957" lon="-1.5322">
        <ele>63</ele>
        <time>2020-09-12T09:55:26.000Z</time>
      </trkpt>
      <trkpt lat="47.33958" lon="-1.53205">
        <ele>62</ele>
        <time>2020-09-12T09:55:29.000Z</time>
      </trkpt>
      <trkpt lat="47.33949" lon="-1.53188">
        <ele>62</ele>
        <time>2020-09-12T09:55:32.000Z</time>
      </trkpt>
      <trkpt lat="47.33942" lon="-1.53173">
        <ele>61</ele>
        <time>2020-09-12T09:55:34.000Z</time>
      </trkpt>
      <trkpt lat="47.33933" lon="-1.53157">
        <ele>61</ele>
        <time>2020-09-12T09:55:36.000Z</time>
      </trkpt>
      <trkpt lat="47.33925" lon="-1.5314">
        <ele>61</ele>
        <time>2020-09-12T09:55:38.000Z</time>
      </trkpt>
      <trkpt lat="47.33917" lon="-1.53124">
        <ele>60</ele>
        <time>2020-09-12T09:55:40.000Z</time>
      </trkpt>
      <trkpt lat="47.33908" lon="-1.53106">
        <ele>60</ele>
        <time>2020-09-12T09:55:42.000Z</time>
      </trkpt>
      <trkpt lat="47.339" lon="-1.53089">
        <ele>59</ele>
        <time>2020-09-12T09:55:44.000Z</time>
      </trkpt>
      <trkpt lat="47.33893" lon="-1.53079">
        <ele>59</ele>
        <time>2020-09-12T09:55:46.000Z</time>
      </trkpt>
      <trkpt lat="47.33892" lon="-1.53061">
        <ele>59</ele>
        <time>2020-09-12T09:55:51.000Z</time>
      </trkpt>
      <trkpt lat="47.33898" lon="-1.53044">
        <ele>58</ele>
        <time>2020-09-12T09:55:53.000Z</time>
      </trkpt>
      <trkpt lat="47.33906" lon="-1.53026">
        <ele>57</ele>
        <time>2020-09-12T09:55:55.000Z</time>
      </trkpt>
      <trkpt lat="47.33914" lon="-1.53005">
        <ele>56</ele>
        <time>2020-09-12T09:55:57.000Z</time>
      </trkpt>
      <trkpt lat="47.33921" lon="-1.52986">
        <ele>56</ele>
        <time>2020-09-12T09:55:59.000Z</time>
      </trkpt>
      <trkpt lat="47.33929" lon="-1.52968">
        <ele>57</ele>
        <time>2020-09-12T09:56:01.000Z</time>
      </trkpt>
      <trkpt lat="47.33936" lon="-1.52949">
        <ele>57</ele>
        <time>2020-09-12T09:56:03.000Z</time>
      </trkpt>
      <trkpt lat="47.33943" lon="-1.5293">
        <ele>57</ele>
        <time>2020-09-12T09:56:05.000Z</time>
      </trkpt>
      <trkpt lat="47.33949" lon="-1.52912">
        <ele>58</ele>
        <time>2020-09-12T09:56:07.000Z</time>
      </trkpt>
      <trkpt lat="47.33955" lon="-1.52895">
        <ele>58</ele>
        <time>2020-09-12T09:56:09.000Z</time>
      </trkpt>
      <trkpt lat="47.3396" lon="-1.52881">
        <ele>58</ele>
        <time>2020-09-12T09:56:11.000Z</time>
      </trkpt>
      <trkpt lat="47.33966" lon="-1.5287">
        <ele>58</ele>
        <time>2020-09-12T09:56:13.000Z</time>
      </trkpt>
      <trkpt lat="47.33963" lon="-1.52854">
        <ele>58</ele>
        <time>2020-09-12T09:56:17.000Z</time>
      </trkpt>
      <trkpt lat="47.33953" lon="-1.52847">
        <ele>58</ele>
        <time>2020-09-12T09:56:19.000Z</time>
      </trkpt>
      <trkpt lat="47.33942" lon="-1.52838">
        <ele>57</ele>
        <time>2020-09-12T09:56:21.000Z</time>
      </trkpt>
      <trkpt lat="47.33931" lon="-1.5283">
        <ele>57</ele>
        <time>2020-09-12T09:56:23.000Z</time>
      </trkpt>
      <trkpt lat="47.33918" lon="-1.52821">
        <ele>58</ele>
        <time>2020-09-12T09:56:25.000Z</time>
      </trkpt>
      <trkpt lat="47.33909" lon="-1.52805">
        <ele>59</ele>
        <time>2020-09-12T09:56:27.000Z</time>
      </trkpt>
      <trkpt lat="47.33909" lon="-1.52784">
        <ele>59</ele>
        <time>2020-09-12T09:56:29.000Z</time>
      </trkpt>
      <trkpt lat="47.33912" lon="-1.52766">
        <ele>59</ele>
        <time>2020-09-12T09:56:31.000Z</time>
      </trkpt>
      <trkpt lat="47.33916" lon="-1.52748">
        <ele>59</ele>
        <time>2020-09-12T09:56:33.000Z</time>
      </trkpt>
      <trkpt lat="47.33918" lon="-1.52729">
        <ele>59</ele>
        <time>2020-09-12T09:56:35.000Z</time>
      </trkpt>
      <trkpt lat="47.33921" lon="-1.52709">
        <ele>59</ele>
        <time>2020-09-12T09:56:37.000Z</time>
      </trkpt>
      <trkpt lat="47.33924" lon="-1.5269">
        <ele>59</ele>
        <time>2020-09-12T09:56:39.000Z</time>
      </trkpt>
      <trkpt lat="47.33927" lon="-1.52671">
        <ele>58</ele>
        <time>2020-09-12T09:56:41.000Z</time>
      </trkpt>
      <trkpt lat="47.3393" lon="-1.52654">
        <ele>58</ele>
        <time>2020-09-12T09:56:43.000Z</time>
      </trkpt>
      <trkpt lat="47.33933" lon="-1.52637">
        <ele>58</ele>
        <time>2020-09-12T09:56:45.000Z</time>
      </trkpt>
      <trkpt lat="47.33936" lon="-1.52624">
        <ele>58</ele>
        <time>2020-09-12T09:56:47.000Z</time>
      </trkpt>
      <trkpt lat="47.33935" lon="-1.52608">
        <ele>58</ele>
        <time>2020-09-12T09:56:50.000Z</time>
      </trkpt>
      <trkpt lat="47.33925" lon="-1.526">
        <ele>58</ele>
        <time>2020-09-12T09:56:53.000Z</time>
      </trkpt>
      <trkpt lat="47.33915" lon="-1.52597">
        <ele>58</ele>
        <time>2020-09-12T09:56:55.000Z</time>
      </trkpt>
      <trkpt lat="47.33904" lon="-1.52593">
        <ele>57</ele>
        <time>2020-09-12T09:56:57.000Z</time>
      </trkpt>
      <trkpt lat="47.33891" lon="-1.52589">
        <ele>58</ele>
        <time>2020-09-12T09:56:59.000Z</time>
      </trkpt>
      <trkpt lat="47.33878" lon="-1.52584">
        <ele>58</ele>
        <time>2020-09-12T09:57:01.000Z</time>
      </trkpt>
      <trkpt lat="47.33865" lon="-1.52578">
        <ele>58</ele>
        <time>2020-09-12T09:57:03.000Z</time>
      </trkpt>
      <trkpt lat="47.33852" lon="-1.52573">
        <ele>58</ele>
        <time>2020-09-12T09:57:05.000Z</time>
      </trkpt>
      <trkpt lat="47.33839" lon="-1.52568">
        <ele>58</ele>
        <time>2020-09-12T09:57:07.000Z</time>
      </trkpt>
      <trkpt lat="47.33826" lon="-1.52563">
        <ele>59</ele>
        <time>2020-09-12T09:57:09.000Z</time>
      </trkpt>
      <trkpt lat="47.33813" lon="-1.52557">
        <ele>59</ele>
        <time>2020-09-12T09:57:11.000Z</time>
      </trkpt>
      <trkpt lat="47.338" lon="-1.52552">
        <ele>59</ele>
        <time>2020-09-12T09:57:13.000Z</time>
      </trkpt>
      <trkpt lat="47.33788" lon="-1.52547">
        <ele>60</ele>
        <time>2020-09-12T09:57:15.000Z</time>
      </trkpt>
      <trkpt lat="47.33776" lon="-1.52542">
        <ele>59</ele>
        <time>2020-09-12T09:57:17.000Z</time>
      </trkpt>
      <trkpt lat="47.33762" lon="-1.52536">
        <ele>59</ele>
        <time>2020-09-12T09:57:19.000Z</time>
      </trkpt>
      <trkpt lat="47.33747" lon="-1.52531">
        <ele>59</ele>
        <time>2020-09-12T09:57:21.000Z</time>
      </trkpt>
      <trkpt lat="47.33732" lon="-1.52525">
        <ele>59</ele>
        <time>2020-09-12T09:57:23.000Z</time>
      </trkpt>
      <trkpt lat="47.33718" lon="-1.52515">
        <ele>59</ele>
        <time>2020-09-12T09:57:25.000Z</time>
      </trkpt>
      <trkpt lat="47.33706" lon="-1.52503">
        <ele>59</ele>
        <time>2020-09-12T09:57:27.000Z</time>
      </trkpt>
      <trkpt lat="47.33696" lon="-1.5249">
        <ele>59</ele>
        <time>2020-09-12T09:57:29.000Z</time>
      </trkpt>
      <trkpt lat="47.33691" lon="-1.52474">
        <ele>60</ele>
        <time>2020-09-12T09:57:31.000Z</time>
      </trkpt>
      <trkpt lat="47.33699" lon="-1.52457">
        <ele>60</ele>
        <time>2020-09-12T09:57:33.000Z</time>
      </trkpt>
      <trkpt lat="47.33705" lon="-1.5244">
        <ele>61</ele>
        <time>2020-09-12T09:57:35.000Z</time>
      </trkpt>
      <trkpt lat="47.33707" lon="-1.52424">
        <ele>61</ele>
        <time>2020-09-12T09:57:37.000Z</time>
      </trkpt>
      <trkpt lat="47.3371" lon="-1.52408">
        <ele>61</ele>
        <time>2020-09-12T09:57:39.000Z</time>
      </trkpt>
      <trkpt lat="47.33713" lon="-1.52393">
        <ele>61</ele>
        <time>2020-09-12T09:57:41.000Z</time>
      </trkpt>
      <trkpt lat="47.33716" lon="-1.52378">
        <ele>62</ele>
        <time>2020-09-12T09:57:43.000Z</time>
      </trkpt>
      <trkpt lat="47.33719" lon="-1.52363">
        <ele>63</ele>
        <time>2020-09-12T09:57:45.000Z</time>
      </trkpt>
      <trkpt lat="47.33722" lon="-1.52347">
        <ele>63</ele>
        <time>2020-09-12T09:57:47.000Z</time>
      </trkpt>
      <trkpt lat="47.33725" lon="-1.52332">
        <ele>64</ele>
        <time>2020-09-12T09:57:49.000Z</time>
      </trkpt>
      <trkpt lat="47.33727" lon="-1.52316">
        <ele>64</ele>
        <time>2020-09-12T09:57:51.000Z</time>
      </trkpt>
      <trkpt lat="47.3373" lon="-1.52299">
        <ele>64</ele>
        <time>2020-09-12T09:57:53.000Z</time>
      </trkpt>
      <trkpt lat="47.33733" lon="-1.52281">
        <ele>65</ele>
        <time>2020-09-12T09:57:55.000Z</time>
      </trkpt>
      <trkpt lat="47.33737" lon="-1.52264">
        <ele>64</ele>
        <time>2020-09-12T09:57:57.000Z</time>
      </trkpt>
      <trkpt lat="47.3374" lon="-1.52245">
        <ele>65</ele>
        <time>2020-09-12T09:57:59.000Z</time>
      </trkpt>
      <trkpt lat="47.33743" lon="-1.52227">
        <ele>65</ele>
        <time>2020-09-12T09:58:01.000Z</time>
      </trkpt>
      <trkpt lat="47.33746" lon="-1.5221">
        <ele>65</ele>
        <time>2020-09-12T09:58:03.000Z</time>
      </trkpt>
      <trkpt lat="47.33748" lon="-1.52192">
        <ele>65</ele>
        <time>2020-09-12T09:58:05.000Z</time>
      </trkpt>
      <trkpt lat="47.33749" lon="-1.52174">
        <ele>66</ele>
        <time>2020-09-12T09:58:07.000Z</time>
      </trkpt>
      <trkpt lat="47.3375" lon="-1.52155">
        <ele>66</ele>
        <time>2020-09-12T09:58:09.000Z</time>
      </trkpt>
      <trkpt lat="47.33752" lon="-1.52139">
        <ele>66</ele>
        <time>2020-09-12T09:58:11.000Z</time>
      </trkpt>
      <trkpt lat="47.33753" lon="-1.52122">
        <ele>67</ele>
        <time>2020-09-12T09:58:13.000Z</time>
      </trkpt>
      <trkpt lat="47.33755" lon="-1.52106">
        <ele>67</ele>
        <time>2020-09-12T09:58:15.000Z</time>
      </trkpt>
      <trkpt lat="47.33757" lon="-1.5209">
        <ele>68</ele>
        <time>2020-09-12T09:58:17.000Z</time>
      </trkpt>
      <trkpt lat="47.33758" lon="-1.52074">
        <ele>68</ele>
        <time>2020-09-12T09:58:19.000Z</time>
      </trkpt>
      <trkpt lat="47.3376" lon="-1.52059">
        <ele>69</ele>
        <time>2020-09-12T09:58:21.000Z</time>
      </trkpt>
      <trkpt lat="47.33758" lon="-1.52044">
        <ele>70</ele>
        <time>2020-09-12T09:58:23.000Z</time>
      </trkpt>
      <trkpt lat="47.33759" lon="-1.52028">
        <ele>70</ele>
        <time>2020-09-12T09:58:25.000Z</time>
      </trkpt>
      <trkpt lat="47.33759" lon="-1.52012">
        <ele>71</ele>
        <time>2020-09-12T09:58:27.000Z</time>
      </trkpt>
      <trkpt lat="47.33756" lon="-1.51995">
        <ele>72</ele>
        <time>2020-09-12T09:58:29.000Z</time>
      </trkpt>
      <trkpt lat="47.33752" lon="-1.51978">
        <ele>72</ele>
        <time>2020-09-12T09:58:31.000Z</time>
      </trkpt>
      <trkpt lat="47.3375" lon="-1.51962">
        <ele>72</ele>
        <time>2020-09-12T09:58:33.000Z</time>
      </trkpt>
      <trkpt lat="47.33748" lon="-1.51945">
        <ele>73</ele>
        <time>2020-09-12T09:58:35.000Z</time>
      </trkpt>
      <trkpt lat="47.33746" lon="-1.51929">
        <ele>73</ele>
        <time>2020-09-12T09:58:37.000Z</time>
      </trkpt>
      <trkpt lat="47.33746" lon="-1.51913">
        <ele>74</ele>
        <time>2020-09-12T09:58:39.000Z</time>
      </trkpt>
      <trkpt lat="47.33744" lon="-1.51896">
        <ele>74</ele>
        <time>2020-09-12T09:58:41.000Z</time>
      </trkpt>
      <trkpt lat="47.33743" lon="-1.51878">
        <ele>74</ele>
        <time>2020-09-12T09:58:43.000Z</time>
      </trkpt>
      <trkpt lat="47.33743" lon="-1.51862">
        <ele>75</ele>
        <time>2020-09-12T09:58:45.000Z</time>
      </trkpt>
      <trkpt lat="47.33743" lon="-1.51846">
        <ele>75</ele>
        <time>2020-09-12T09:58:47.000Z</time>
      </trkpt>
      <trkpt lat="47.33742" lon="-1.51831">
        <ele>75</ele>
        <time>2020-09-12T09:58:49.000Z</time>
      </trkpt>
      <trkpt lat="47.33741" lon="-1.51814">
        <ele>76</ele>
        <time>2020-09-12T09:58:51.000Z</time>
      </trkpt>
      <trkpt lat="47.3374" lon="-1.51798">
        <ele>76</ele>
        <time>2020-09-12T09:58:53.000Z</time>
      </trkpt>
      <trkpt lat="47.3374" lon="-1.51781">
        <ele>76</ele>
        <time>2020-09-12T09:58:55.000Z</time>
      </trkpt>
      <trkpt lat="47.33739" lon="-1.51765">
        <ele>76</ele>
        <time>2020-09-12T09:58:57.000Z</time>
      </trkpt>
      <trkpt lat="47.33739" lon="-1.51748">
        <ele>75</ele>
        <time>2020-09-12T09:58:59.000Z</time>
      </trkpt>
      <trkpt lat="47.33738" lon="-1.5173">
        <ele>76</ele>
        <time>2020-09-12T09:59:01.000Z</time>
      </trkpt>
      <trkpt lat="47.33736" lon="-1.51713">
        <ele>76</ele>
        <time>2020-09-12T09:59:03.000Z</time>
      </trkpt>
      <trkpt lat="47.33734" lon="-1.51695">
        <ele>76</ele>
        <time>2020-09-12T09:59:05.000Z</time>
      </trkpt>
      <trkpt lat="47.33732" lon="-1.51678">
        <ele>76</ele>
        <time>2020-09-12T09:59:07.000Z</time>
      </trkpt>
      <trkpt lat="47.33729" lon="-1.5166">
        <ele>75</ele>
        <time>2020-09-12T09:59:09.000Z</time>
      </trkpt>
      <trkpt lat="47.33725" lon="-1.51642">
        <ele>74</ele>
        <time>2020-09-12T09:59:11.000Z</time>
      </trkpt>
      <trkpt lat="47.3372" lon="-1.51624">
        <ele>74</ele>
        <time>2020-09-12T09:59:13.000Z</time>
      </trkpt>
      <trkpt lat="47.33714" lon="-1.51608">
        <ele>74</ele>
        <time>2020-09-12T09:59:15.000Z</time>
      </trkpt>
      <trkpt lat="47.33711" lon="-1.51588">
        <ele>74</ele>
        <time>2020-09-12T09:59:17.000Z</time>
      </trkpt>
      <trkpt lat="47.33706" lon="-1.51568">
        <ele>73</ele>
        <time>2020-09-12T09:59:19.000Z</time>
      </trkpt>
      <trkpt lat="47.33701" lon="-1.51548">
        <ele>73</ele>
        <time>2020-09-12T09:59:21.000Z</time>
      </trkpt>
      <trkpt lat="47.33697" lon="-1.51528">
        <ele>73</ele>
        <time>2020-09-12T09:59:23.000Z</time>
      </trkpt>
      <trkpt lat="47.33693" lon="-1.51506">
        <ele>72</ele>
        <time>2020-09-12T09:59:25.000Z</time>
      </trkpt>
      <trkpt lat="47.33692" lon="-1.51484">
        <ele>72</ele>
        <time>2020-09-12T09:59:27.000Z</time>
      </trkpt>
      <trkpt lat="47.3369" lon="-1.51462">
        <ele>72</ele>
        <time>2020-09-12T09:59:29.000Z</time>
      </trkpt>
      <trkpt lat="47.33688" lon="-1.51439">
        <ele>71</ele>
        <time>2020-09-12T09:59:31.000Z</time>
      </trkpt>
      <trkpt lat="47.33685" lon="-1.51417">
        <ele>71</ele>
        <time>2020-09-12T09:59:33.000Z</time>
      </trkpt>
      <trkpt lat="47.3368" lon="-1.51394">
        <ele>70</ele>
        <time>2020-09-12T09:59:35.000Z</time>
      </trkpt>
      <trkpt lat="47.33675" lon="-1.51373">
        <ele>69</ele>
        <time>2020-09-12T09:59:37.000Z</time>
      </trkpt>
      <trkpt lat="47.3367" lon="-1.51352">
        <ele>69</ele>
        <time>2020-09-12T09:59:39.000Z</time>
      </trkpt>
      <trkpt lat="47.33665" lon="-1.51331">
        <ele>68</ele>
        <time>2020-09-12T09:59:41.000Z</time>
      </trkpt>
      <trkpt lat="47.33661" lon="-1.51308">
        <ele>68</ele>
        <time>2020-09-12T09:59:43.000Z</time>
      </trkpt>
      <trkpt lat="47.33657" lon="-1.51286">
        <ele>68</ele>
        <time>2020-09-12T09:59:45.000Z</time>
      </trkpt>
      <trkpt lat="47.33654" lon="-1.51265">
        <ele>67</ele>
        <time>2020-09-12T09:59:47.000Z</time>
      </trkpt>
      <trkpt lat="47.33653" lon="-1.51244">
        <ele>66</ele>
        <time>2020-09-12T09:59:49.000Z</time>
      </trkpt>
      <trkpt lat="47.33652" lon="-1.51222">
        <ele>66</ele>
        <time>2020-09-12T09:59:51.000Z</time>
      </trkpt>
      <trkpt lat="47.33651" lon="-1.51201">
        <ele>66</ele>
        <time>2020-09-12T09:59:53.000Z</time>
      </trkpt>
      <trkpt lat="47.3365" lon="-1.5118">
        <ele>66</ele>
        <time>2020-09-12T09:59:55.000Z</time>
      </trkpt>
      <trkpt lat="47.33649" lon="-1.51159">
        <ele>66</ele>
        <time>2020-09-12T09:59:57.000Z</time>
      </trkpt>
      <trkpt lat="47.33649" lon="-1.51139">
        <ele>66</ele>
        <time>2020-09-12T09:59:59.000Z</time>
      </trkpt>
      <trkpt lat="47.33649" lon="-1.5112">
        <ele>66</ele>
        <time>2020-09-12T10:00:01.000Z</time>
      </trkpt>
      <trkpt lat="47.33649" lon="-1.51101">
        <ele>66</ele>
        <time>2020-09-12T10:00:03.000Z</time>
      </trkpt>
      <trkpt lat="47.3365" lon="-1.51081">
        <ele>66</ele>
        <time>2020-09-12T10:00:05.000Z</time>
      </trkpt>
      <trkpt lat="47.33656" lon="-1.51062">
        <ele>66</ele>
        <time>2020-09-12T10:00:07.000Z</time>
      </trkpt>
      <trkpt lat="47.33662" lon="-1.51044">
        <ele>65</ele>
        <time>2020-09-12T10:00:09.000Z</time>
      </trkpt>
      <trkpt lat="47.33667" lon="-1.51025">
        <ele>65</ele>
        <time>2020-09-12T10:00:11.000Z</time>
      </trkpt>
      <trkpt lat="47.33671" lon="-1.51004">
        <ele>65</ele>
        <time>2020-09-12T10:00:13.000Z</time>
      </trkpt>
      <trkpt lat="47.33675" lon="-1.50984">
        <ele>64</ele>
        <time>2020-09-12T10:00:15.000Z</time>
      </trkpt>
      <trkpt lat="47.33679" lon="-1.50963">
        <ele>64</ele>
        <time>2020-09-12T10:00:17.000Z</time>
      </trkpt>
      <trkpt lat="47.33683" lon="-1.5094">
        <ele>64</ele>
        <time>2020-09-12T10:00:19.000Z</time>
      </trkpt>
      <trkpt lat="47.33687" lon="-1.50918">
        <ele>64</ele>
        <time>2020-09-12T10:00:21.000Z</time>
      </trkpt>
      <trkpt lat="47.33691" lon="-1.50896">
        <ele>64</ele>
        <time>2020-09-12T10:00:23.000Z</time>
      </trkpt>
      <trkpt lat="47.33695" lon="-1.50876">
        <ele>64</ele>
        <time>2020-09-12T10:00:25.000Z</time>
      </trkpt>
      <trkpt lat="47.33699" lon="-1.50856">
        <ele>63</ele>
        <time>2020-09-12T10:00:27.000Z</time>
      </trkpt>
      <trkpt lat="47.33704" lon="-1.50835">
        <ele>63</ele>
        <time>2020-09-12T10:00:29.000Z</time>
      </trkpt>
      <trkpt lat="47.33708" lon="-1.50813">
        <ele>63</ele>
        <time>2020-09-12T10:00:31.000Z</time>
      </trkpt>
      <trkpt lat="47.33712" lon="-1.50791">
        <ele>62</ele>
        <time>2020-09-12T10:00:33.000Z</time>
      </trkpt>
      <trkpt lat="47.33716" lon="-1.5077">
        <ele>62</ele>
        <time>2020-09-12T10:00:35.000Z</time>
      </trkpt>
      <trkpt lat="47.3372" lon="-1.50749">
        <ele>62</ele>
        <time>2020-09-12T10:00:37.000Z</time>
      </trkpt>
      <trkpt lat="47.33724" lon="-1.50728">
        <ele>61</ele>
        <time>2020-09-12T10:00:39.000Z</time>
      </trkpt>
      <trkpt lat="47.33728" lon="-1.50707">
        <ele>61</ele>
        <time>2020-09-12T10:00:41.000Z</time>
      </trkpt>
      <trkpt lat="47.33732" lon="-1.50686">
        <ele>61</ele>
        <time>2020-09-12T10:00:43.000Z</time>
      </trkpt>
      <trkpt lat="47.33736" lon="-1.50664">
        <ele>61</ele>
        <time>2020-09-12T10:00:45.000Z</time>
      </trkpt>
      <trkpt lat="47.33741" lon="-1.50643">
        <ele>60</ele>
        <time>2020-09-12T10:00:47.000Z</time>
      </trkpt>
      <trkpt lat="47.33746" lon="-1.50621">
        <ele>60</ele>
        <time>2020-09-12T10:00:49.000Z</time>
      </trkpt>
      <trkpt lat="47.33749" lon="-1.506">
        <ele>60</ele>
        <time>2020-09-12T10:00:51.000Z</time>
      </trkpt>
      <trkpt lat="47.33753" lon="-1.50579">
        <ele>59</ele>
        <time>2020-09-12T10:00:53.000Z</time>
      </trkpt>
      <trkpt lat="47.33758" lon="-1.50558">
        <ele>59</ele>
        <time>2020-09-12T10:00:55.000Z</time>
      </trkpt>
      <trkpt lat="47.33762" lon="-1.50537">
        <ele>58</ele>
        <time>2020-09-12T10:00:57.000Z</time>
      </trkpt>
      <trkpt lat="47.33766" lon="-1.50516">
        <ele>58</ele>
        <time>2020-09-12T10:00:59.000Z</time>
      </trkpt>
      <trkpt lat="47.3377" lon="-1.50496">
        <ele>58</ele>
        <time>2020-09-12T10:01:01.000Z</time>
      </trkpt>
      <trkpt lat="47.33774" lon="-1.50476">
        <ele>58</ele>
        <time>2020-09-12T10:01:03.000Z</time>
      </trkpt>
      <trkpt lat="47.33778" lon="-1.50455">
        <ele>58</ele>
        <time>2020-09-12T10:01:05.000Z</time>
      </trkpt>
      <trkpt lat="47.33782" lon="-1.50434">
        <ele>58</ele>
        <time>2020-09-12T10:01:07.000Z</time>
      </trkpt>
      <trkpt lat="47.33786" lon="-1.50413">
        <ele>59</ele>
        <time>2020-09-12T10:01:09.000Z</time>
      </trkpt>
      <trkpt lat="47.33789" lon="-1.50393">
        <ele>59</ele>
        <time>2020-09-12T10:01:11.000Z</time>
      </trkpt>
      <trkpt lat="47.3379" lon="-1.50372">
        <ele>58</ele>
        <time>2020-09-12T10:01:13.000Z</time>
      </trkpt>
      <trkpt lat="47.33788" lon="-1.50352">
        <ele>58</ele>
        <time>2020-09-12T10:01:15.000Z</time>
      </trkpt>
      <trkpt lat="47.33785" lon="-1.50332">
        <ele>58</ele>
        <time>2020-09-12T10:01:17.000Z</time>
      </trkpt>
      <trkpt lat="47.33782" lon="-1.50313">
        <ele>59</ele>
        <time>2020-09-12T10:01:19.000Z</time>
      </trkpt>
      <trkpt lat="47.33779" lon="-1.50294">
        <ele>59</ele>
        <time>2020-09-12T10:01:21.000Z</time>
      </trkpt>
      <trkpt lat="47.33777" lon="-1.50276">
        <ele>60</ele>
        <time>2020-09-12T10:01:23.000Z</time>
      </trkpt>
      <trkpt lat="47.33774" lon="-1.50258">
        <ele>60</ele>
        <time>2020-09-12T10:01:25.000Z</time>
      </trkpt>
      <trkpt lat="47.33771" lon="-1.50241">
        <ele>60</ele>
        <time>2020-09-12T10:01:27.000Z</time>
      </trkpt>
      <trkpt lat="47.33768" lon="-1.50223">
        <ele>61</ele>
        <time>2020-09-12T10:01:29.000Z</time>
      </trkpt>
      <trkpt lat="47.33766" lon="-1.50205">
        <ele>61</ele>
        <time>2020-09-12T10:01:31.000Z</time>
      </trkpt>
      <trkpt lat="47.33763" lon="-1.50188">
        <ele>61</ele>
        <time>2020-09-12T10:01:33.000Z</time>
      </trkpt>
      <trkpt lat="47.3376" lon="-1.50171">
        <ele>61</ele>
        <time>2020-09-12T10:01:35.000Z</time>
      </trkpt>
      <trkpt lat="47.33758" lon="-1.50154">
        <ele>61</ele>
        <time>2020-09-12T10:01:37.000Z</time>
      </trkpt>
      <trkpt lat="47.33755" lon="-1.50137">
        <ele>62</ele>
        <time>2020-09-12T10:01:39.000Z</time>
      </trkpt>
      <trkpt lat="47.33752" lon="-1.5012">
        <ele>63</ele>
        <time>2020-09-12T10:01:41.000Z</time>
      </trkpt>
      <trkpt lat="47.33751" lon="-1.50102">
        <ele>63</ele>
        <time>2020-09-12T10:01:43.000Z</time>
      </trkpt>
      <trkpt lat="47.3375" lon="-1.50083">
        <ele>63</ele>
        <time>2020-09-12T10:01:45.000Z</time>
      </trkpt>
      <trkpt lat="47.33749" lon="-1.50064">
        <ele>63</ele>
        <time>2020-09-12T10:01:47.000Z</time>
      </trkpt>
      <trkpt lat="47.33748" lon="-1.50046">
        <ele>64</ele>
        <time>2020-09-12T10:01:49.000Z</time>
      </trkpt>
      <trkpt lat="47.33745" lon="-1.50028">
        <ele>64</ele>
        <time>2020-09-12T10:01:51.000Z</time>
      </trkpt>
      <trkpt lat="47.33742" lon="-1.5001">
        <ele>64</ele>
        <time>2020-09-12T10:01:53.000Z</time>
      </trkpt>
      <trkpt lat="47.33739" lon="-1.49992">
        <ele>64</ele>
        <time>2020-09-12T10:01:55.000Z</time>
      </trkpt>
      <trkpt lat="47.33735" lon="-1.49975">
        <ele>64</ele>
        <time>2020-09-12T10:01:57.000Z</time>
      </trkpt>
      <trkpt lat="47.3373" lon="-1.49958">
        <ele>64</ele>
        <time>2020-09-12T10:01:59.000Z</time>
      </trkpt>
      <trkpt lat="47.33724" lon="-1.49941">
        <ele>64</ele>
        <time>2020-09-12T10:02:01.000Z</time>
      </trkpt>
      <trkpt lat="47.33715" lon="-1.49924">
        <ele>63</ele>
        <time>2020-09-12T10:02:03.000Z</time>
      </trkpt>
      <trkpt lat="47.33703" lon="-1.4991">
        <ele>62</ele>
        <time>2020-09-12T10:02:05.000Z</time>
      </trkpt>
      <trkpt lat="47.33689" lon="-1.49896">
        <ele>60</ele>
        <time>2020-09-12T10:02:07.000Z</time>
      </trkpt>
      <trkpt lat="47.33677" lon="-1.49878">
        <ele>59</ele>
        <time>2020-09-12T10:02:09.000Z</time>
      </trkpt>
      <trkpt lat="47.33671" lon="-1.49867">
        <ele>59</ele>
        <time>2020-09-12T10:02:10.000Z</time>
      </trkpt>
      <trkpt lat="47.33662" lon="-1.49847">
        <ele>59</ele>
        <time>2020-09-12T10:02:12.000Z</time>
      </trkpt>
      <trkpt lat="47.33655" lon="-1.49824">
        <ele>59</ele>
        <time>2020-09-12T10:02:14.000Z</time>
      </trkpt>
      <trkpt lat="47.33652" lon="-1.49801">
        <ele>59</ele>
        <time>2020-09-12T10:02:16.000Z</time>
      </trkpt>
      <trkpt lat="47.3365" lon="-1.49777">
        <ele>59</ele>
        <time>2020-09-12T10:02:18.000Z</time>
      </trkpt>
      <trkpt lat="47.33648" lon="-1.49754">
        <ele>58</ele>
        <time>2020-09-12T10:02:20.000Z</time>
      </trkpt>
      <trkpt lat="47.33646" lon="-1.49732">
        <ele>58</ele>
        <time>2020-09-12T10:02:22.000Z</time>
      </trkpt>
      <trkpt lat="47.33642" lon="-1.4971">
        <ele>59</ele>
        <time>2020-09-12T10:02:24.000Z</time>
      </trkpt>
      <trkpt lat="47.3364" lon="-1.49687">
        <ele>59</ele>
        <time>2020-09-12T10:02:26.000Z</time>
      </trkpt>
      <trkpt lat="47.33639" lon="-1.49665">
        <ele>58</ele>
        <time>2020-09-12T10:02:28.000Z</time>
      </trkpt>
      <trkpt lat="47.33637" lon="-1.49644">
        <ele>58</ele>
        <time>2020-09-12T10:02:30.000Z</time>
      </trkpt>
      <trkpt lat="47.33638" lon="-1.49623">
        <ele>59</ele>
        <time>2020-09-12T10:02:32.000Z</time>
      </trkpt>
      <trkpt lat="47.33639" lon="-1.49602">
        <ele>59</ele>
        <time>2020-09-12T10:02:34.000Z</time>
      </trkpt>
      <trkpt lat="47.33639" lon="-1.49582">
        <ele>59</ele>
        <time>2020-09-12T10:02:36.000Z</time>
      </trkpt>
      <trkpt lat="47.33637" lon="-1.49563">
        <ele>60</ele>
        <time>2020-09-12T10:02:38.000Z</time>
      </trkpt>
      <trkpt lat="47.33634" lon="-1.49544">
        <ele>61</ele>
        <time>2020-09-12T10:02:40.000Z</time>
      </trkpt>
      <trkpt lat="47.3363" lon="-1.49525">
        <ele>61</ele>
        <time>2020-09-12T10:02:42.000Z</time>
      </trkpt>
      <trkpt lat="47.33625" lon="-1.49506">
        <ele>61</ele>
        <time>2020-09-12T10:02:44.000Z</time>
      </trkpt>
      <trkpt lat="47.33619" lon="-1.49488">
        <ele>62</ele>
        <time>2020-09-12T10:02:46.000Z</time>
      </trkpt>
      <trkpt lat="47.33612" lon="-1.49468">
        <ele>62</ele>
        <time>2020-09-12T10:02:48.000Z</time>
      </trkpt>
      <trkpt lat="47.33606" lon="-1.49451">
        <ele>61</ele>
        <time>2020-09-12T10:02:50.000Z</time>
      </trkpt>
      <trkpt lat="47.33599" lon="-1.49434">
        <ele>61</ele>
        <time>2020-09-12T10:02:52.000Z</time>
      </trkpt>
      <trkpt lat="47.33592" lon="-1.49417">
        <ele>60</ele>
        <time>2020-09-12T10:02:54.000Z</time>
      </trkpt>
      <trkpt lat="47.33585" lon="-1.494">
        <ele>60</ele>
        <time>2020-09-12T10:02:56.000Z</time>
      </trkpt>
      <trkpt lat="47.33578" lon="-1.49382">
        <ele>60</ele>
        <time>2020-09-12T10:02:58.000Z</time>
      </trkpt>
      <trkpt lat="47.33572" lon="-1.49366">
        <ele>59</ele>
        <time>2020-09-12T10:03:00.000Z</time>
      </trkpt>
      <trkpt lat="47.33564" lon="-1.49351">
        <ele>59</ele>
        <time>2020-09-12T10:03:02.000Z</time>
      </trkpt>
      <trkpt lat="47.33562" lon="-1.49334">
        <ele>59</ele>
        <time>2020-09-12T10:03:04.000Z</time>
      </trkpt>
      <trkpt lat="47.3357" lon="-1.4932">
        <ele>58</ele>
        <time>2020-09-12T10:03:06.000Z</time>
      </trkpt>
      <trkpt lat="47.33579" lon="-1.49308">
        <ele>58</ele>
        <time>2020-09-12T10:03:08.000Z</time>
      </trkpt>
      <trkpt lat="47.33589" lon="-1.49296">
        <ele>58</ele>
        <time>2020-09-12T10:03:10.000Z</time>
      </trkpt>
      <trkpt lat="47.33599" lon="-1.49283">
        <ele>59</ele>
        <time>2020-09-12T10:03:12.000Z</time>
      </trkpt>
      <trkpt lat="47.3361" lon="-1.4927">
        <ele>58</ele>
        <time>2020-09-12T10:03:14.000Z</time>
      </trkpt>
      <trkpt lat="47.33619" lon="-1.49257">
        <ele>59</ele>
        <time>2020-09-12T10:03:16.000Z</time>
      </trkpt>
      <trkpt lat="47.33629" lon="-1.49245">
        <ele>59</ele>
        <time>2020-09-12T10:03:18.000Z</time>
      </trkpt>
      <trkpt lat="47.33637" lon="-1.49233">
        <ele>59</ele>
        <time>2020-09-12T10:03:20.000Z</time>
      </trkpt>
      <trkpt lat="47.33647" lon="-1.49221">
        <ele>59</ele>
        <time>2020-09-12T10:03:22.000Z</time>
      </trkpt>
      <trkpt lat="47.33658" lon="-1.49209">
        <ele>59</ele>
        <time>2020-09-12T10:03:24.000Z</time>
      </trkpt>
      <trkpt lat="47.33669" lon="-1.49197">
        <ele>59</ele>
        <time>2020-09-12T10:03:26.000Z</time>
      </trkpt>
      <trkpt lat="47.33679" lon="-1.49183">
        <ele>59</ele>
        <time>2020-09-12T10:03:28.000Z</time>
      </trkpt>
      <trkpt lat="47.33688" lon="-1.49169">
        <ele>59</ele>
        <time>2020-09-12T10:03:30.000Z</time>
      </trkpt>
      <trkpt lat="47.33693" lon="-1.49152">
        <ele>60</ele>
        <time>2020-09-12T10:03:32.000Z</time>
      </trkpt>
      <trkpt lat="47.33697" lon="-1.49134">
        <ele>60</ele>
        <time>2020-09-12T10:03:34.000Z</time>
      </trkpt>
      <trkpt lat="47.33699" lon="-1.49116">
        <ele>60</ele>
        <time>2020-09-12T10:03:36.000Z</time>
      </trkpt>
      <trkpt lat="47.33701" lon="-1.49098">
        <ele>61</ele>
        <time>2020-09-12T10:03:38.000Z</time>
      </trkpt>
      <trkpt lat="47.33707" lon="-1.49081">
        <ele>62</ele>
        <time>2020-09-12T10:03:40.000Z</time>
      </trkpt>
      <trkpt lat="47.33715" lon="-1.49068">
        <ele>62</ele>
        <time>2020-09-12T10:03:42.000Z</time>
      </trkpt>
      <trkpt lat="47.33724" lon="-1.49056">
        <ele>63</ele>
        <time>2020-09-12T10:03:44.000Z</time>
      </trkpt>
      <trkpt lat="47.33734" lon="-1.49046">
        <ele>63</ele>
        <time>2020-09-12T10:03:46.000Z</time>
      </trkpt>
      <trkpt lat="47.33743" lon="-1.49035">
        <ele>63</ele>
        <time>2020-09-12T10:03:48.000Z</time>
      </trkpt>
      <trkpt lat="47.33752" lon="-1.49024">
        <ele>63</ele>
        <time>2020-09-12T10:03:50.000Z</time>
      </trkpt>
      <trkpt lat="47.33762" lon="-1.49014">
        <ele>63</ele>
        <time>2020-09-12T10:03:52.000Z</time>
      </trkpt>
      <trkpt lat="47.3377" lon="-1.49003">
        <ele>64</ele>
        <time>2020-09-12T10:03:54.000Z</time>
      </trkpt>
      <trkpt lat="47.3378" lon="-1.48993">
        <ele>64</ele>
        <time>2020-09-12T10:03:56.000Z</time>
      </trkpt>
      <trkpt lat="47.33789" lon="-1.48981">
        <ele>64</ele>
        <time>2020-09-12T10:03:58.000Z</time>
      </trkpt>
      <trkpt lat="47.33798" lon="-1.48969">
        <ele>64</ele>
        <time>2020-09-12T10:04:00.000Z</time>
      </trkpt>
      <trkpt lat="47.33808" lon="-1.48956">
        <ele>63</ele>
        <time>2020-09-12T10:04:02.000Z</time>
      </trkpt>
      <trkpt lat="47.33816" lon="-1.48942">
        <ele>63</ele>
        <time>2020-09-12T10:04:04.000Z</time>
      </trkpt>
      <trkpt lat="47.33825" lon="-1.48928">
        <ele>63</ele>
        <time>2020-09-12T10:04:06.000Z</time>
      </trkpt>
      <trkpt lat="47.33834" lon="-1.48914">
        <ele>63</ele>
        <time>2020-09-12T10:04:08.000Z</time>
      </trkpt>
      <trkpt lat="47.33843" lon="-1.489">
        <ele>62</ele>
        <time>2020-09-12T10:04:10.000Z</time>
      </trkpt>
      <trkpt lat="47.33852" lon="-1.48886">
        <ele>62</ele>
        <time>2020-09-12T10:04:12.000Z</time>
      </trkpt>
      <trkpt lat="47.33861" lon="-1.48872">
        <ele>62</ele>
        <time>2020-09-12T10:04:14.000Z</time>
      </trkpt>
      <trkpt lat="47.3387" lon="-1.48858">
        <ele>61</ele>
        <time>2020-09-12T10:04:16.000Z</time>
      </trkpt>
      <trkpt lat="47.33879" lon="-1.48844">
        <ele>61</ele>
        <time>2020-09-12T10:04:18.000Z</time>
      </trkpt>
      <trkpt lat="47.33888" lon="-1.4883">
        <ele>61</ele>
        <time>2020-09-12T10:04:20.000Z</time>
      </trkpt>
      <trkpt lat="47.33897" lon="-1.48815">
        <ele>61</ele>
        <time>2020-09-12T10:04:22.000Z</time>
      </trkpt>
      <trkpt lat="47.33907" lon="-1.488">
        <ele>60</ele>
        <time>2020-09-12T10:04:24.000Z</time>
      </trkpt>
      <trkpt lat="47.33916" lon="-1.48784">
        <ele>60</ele>
        <time>2020-09-12T10:04:26.000Z</time>
      </trkpt>
      <trkpt lat="47.33927" lon="-1.48768">
        <ele>59</ele>
        <time>2020-09-12T10:04:28.000Z</time>
      </trkpt>
      <trkpt lat="47.33937" lon="-1.48751">
        <ele>58</ele>
        <time>2020-09-12T10:04:30.000Z</time>
      </trkpt>
      <trkpt lat="47.33948" lon="-1.48734">
        <ele>58</ele>
        <time>2020-09-12T10:04:32.000Z</time>
      </trkpt>
      <trkpt lat="47.33958" lon="-1.48717">
        <ele>57</ele>
        <time>2020-09-12T10:04:34.000Z</time>
      </trkpt>
      <trkpt lat="47.33969" lon="-1.48701">
        <ele>57</ele>
        <time>2020-09-12T10:04:36.000Z</time>
      </trkpt>
      <trkpt lat="47.3398" lon="-1.48684">
        <ele>56</ele>
        <time>2020-09-12T10:04:38.000Z</time>
      </trkpt>
      <trkpt lat="47.3399" lon="-1.48667">
        <ele>56</ele>
        <time>2020-09-12T10:04:40.000Z</time>
      </trkpt>
      <trkpt lat="47.34" lon="-1.4865">
        <ele>56</ele>
        <time>2020-09-12T10:04:42.000Z</time>
      </trkpt>
      <trkpt lat="47.34009" lon="-1.48634">
        <ele>56</ele>
        <time>2020-09-12T10:04:44.000Z</time>
      </trkpt>
      <trkpt lat="47.34019" lon="-1.48618">
        <ele>56</ele>
        <time>2020-09-12T10:04:46.000Z</time>
      </trkpt>
      <trkpt lat="47.34028" lon="-1.48601">
        <ele>56</ele>
        <time>2020-09-12T10:04:48.000Z</time>
      </trkpt>
      <trkpt lat="47.34037" lon="-1.48584">
        <ele>57</ele>
        <time>2020-09-12T10:04:50.000Z</time>
      </trkpt>
      <trkpt lat="47.34045" lon="-1.48568">
        <ele>57</ele>
        <time>2020-09-12T10:04:52.000Z</time>
      </trkpt>
      <trkpt lat="47.34053" lon="-1.48551">
        <ele>57</ele>
        <time>2020-09-12T10:04:54.000Z</time>
      </trkpt>
      <trkpt lat="47.34061" lon="-1.48534">
        <ele>57</ele>
        <time>2020-09-12T10:04:56.000Z</time>
      </trkpt>
      <trkpt lat="47.34068" lon="-1.48518">
        <ele>58</ele>
        <time>2020-09-12T10:04:58.000Z</time>
      </trkpt>
      <trkpt lat="47.34076" lon="-1.48502">
        <ele>58</ele>
        <time>2020-09-12T10:05:00.000Z</time>
      </trkpt>
      <trkpt lat="47.34083" lon="-1.48487">
        <ele>57</ele>
        <time>2020-09-12T10:05:02.000Z</time>
      </trkpt>
      <trkpt lat="47.34091" lon="-1.48472">
        <ele>57</ele>
        <time>2020-09-12T10:05:04.000Z</time>
      </trkpt>
      <trkpt lat="47.34098" lon="-1.48456">
        <ele>58</ele>
        <time>2020-09-12T10:05:06.000Z</time>
      </trkpt>
      <trkpt lat="47.34105" lon="-1.48441">
        <ele>58</ele>
        <time>2020-09-12T10:05:08.000Z</time>
      </trkpt>
      <trkpt lat="47.34112" lon="-1.48425">
        <ele>58</ele>
        <time>2020-09-12T10:05:10.000Z</time>
      </trkpt>
      <trkpt lat="47.34123" lon="-1.48402">
        <ele>59</ele>
        <time>2020-09-12T10:05:13.000Z</time>
      </trkpt>
      <trkpt lat="47.3413" lon="-1.48387">
        <ele>59</ele>
        <time>2020-09-12T10:05:15.000Z</time>
      </trkpt>
      <trkpt lat="47.34137" lon="-1.48372">
        <ele>59</ele>
        <time>2020-09-12T10:05:17.000Z</time>
      </trkpt>
      <trkpt lat="47.34144" lon="-1.48357">
        <ele>58</ele>
        <time>2020-09-12T10:05:19.000Z</time>
      </trkpt>
      <trkpt lat="47.34151" lon="-1.48342">
        <ele>58</ele>
        <time>2020-09-12T10:05:21.000Z</time>
      </trkpt>
      <trkpt lat="47.34159" lon="-1.48326">
        <ele>57</ele>
        <time>2020-09-12T10:05:23.000Z</time>
      </trkpt>
      <trkpt lat="47.34166" lon="-1.48311">
        <ele>58</ele>
        <time>2020-09-12T10:05:25.000Z</time>
      </trkpt>
      <trkpt lat="47.34174" lon="-1.48295">
        <ele>57</ele>
        <time>2020-09-12T10:05:27.000Z</time>
      </trkpt>
      <trkpt lat="47.34186" lon="-1.48271">
        <ele>57</ele>
        <time>2020-09-12T10:05:30.000Z</time>
      </trkpt>
      <trkpt lat="47.34195" lon="-1.48256">
        <ele>57</ele>
        <time>2020-09-12T10:05:32.000Z</time>
      </trkpt>
      <trkpt lat="47.34203" lon="-1.48242">
        <ele>57</ele>
        <time>2020-09-12T10:05:34.000Z</time>
      </trkpt>
      <trkpt lat="47.34212" lon="-1.48228">
        <ele>56</ele>
        <time>2020-09-12T10:05:36.000Z</time>
      </trkpt>
      <trkpt lat="47.34225" lon="-1.48206">
        <ele>56</ele>
        <time>2020-09-12T10:05:39.000Z</time>
      </trkpt>
      <trkpt lat="47.34238" lon="-1.48184">
        <ele>57</ele>
        <time>2020-09-12T10:05:42.000Z</time>
      </trkpt>
      <trkpt lat="47.34251" lon="-1.48163">
        <ele>56</ele>
        <time>2020-09-12T10:05:45.000Z</time>
      </trkpt>
      <trkpt lat="47.34259" lon="-1.48149">
        <ele>56</ele>
        <time>2020-09-12T10:05:47.000Z</time>
      </trkpt>
      <trkpt lat="47.34268" lon="-1.48135">
        <ele>56</ele>
        <time>2020-09-12T10:05:49.000Z</time>
      </trkpt>
      <trkpt lat="47.34277" lon="-1.48121">
        <ele>56</ele>
        <time>2020-09-12T10:05:51.000Z</time>
      </trkpt>
      <trkpt lat="47.3429" lon="-1.481">
        <ele>56</ele>
        <time>2020-09-12T10:05:54.000Z</time>
      </trkpt>
      <trkpt lat="47.34298" lon="-1.48085">
        <ele>56</ele>
        <time>2020-09-12T10:05:56.000Z</time>
      </trkpt>
      <trkpt lat="47.34307" lon="-1.4807">
        <ele>56</ele>
        <time>2020-09-12T10:05:58.000Z</time>
      </trkpt>
      <trkpt lat="47.34317" lon="-1.48055">
        <ele>56</ele>
        <time>2020-09-12T10:06:00.000Z</time>
      </trkpt>
      <trkpt lat="47.34326" lon="-1.4804">
        <ele>56</ele>
        <time>2020-09-12T10:06:02.000Z</time>
      </trkpt>
      <trkpt lat="47.34335" lon="-1.48026">
        <ele>57</ele>
        <time>2020-09-12T10:06:04.000Z</time>
      </trkpt>
      <trkpt lat="47.34345" lon="-1.48011">
        <ele>57</ele>
        <time>2020-09-12T10:06:06.000Z</time>
      </trkpt>
      <trkpt lat="47.34355" lon="-1.47996">
        <ele>56</ele>
        <time>2020-09-12T10:06:08.000Z</time>
      </trkpt>
      <trkpt lat="47.34364" lon="-1.47981">
        <ele>56</ele>
        <time>2020-09-12T10:06:10.000Z</time>
      </trkpt>
      <trkpt lat="47.34374" lon="-1.47967">
        <ele>56</ele>
        <time>2020-09-12T10:06:12.000Z</time>
      </trkpt>
      <trkpt lat="47.34383" lon="-1.47953">
        <ele>56</ele>
        <time>2020-09-12T10:06:14.000Z</time>
      </trkpt>
      <trkpt lat="47.34392" lon="-1.47939">
        <ele>56</ele>
        <time>2020-09-12T10:06:16.000Z</time>
      </trkpt>
      <trkpt lat="47.34402" lon="-1.47925">
        <ele>57</ele>
        <time>2020-09-12T10:06:18.000Z</time>
      </trkpt>
      <trkpt lat="47.34411" lon="-1.47912">
        <ele>57</ele>
        <time>2020-09-12T10:06:20.000Z</time>
      </trkpt>
      <trkpt lat="47.34421" lon="-1.47899">
        <ele>57</ele>
        <time>2020-09-12T10:06:22.000Z</time>
      </trkpt>
      <trkpt lat="47.34431" lon="-1.47887">
        <ele>57</ele>
        <time>2020-09-12T10:06:24.000Z</time>
      </trkpt>
      <trkpt lat="47.3444" lon="-1.47876">
        <ele>57</ele>
        <time>2020-09-12T10:06:26.000Z</time>
      </trkpt>
      <trkpt lat="47.34449" lon="-1.47865">
        <ele>58</ele>
        <time>2020-09-12T10:06:28.000Z</time>
      </trkpt>
      <trkpt lat="47.3446" lon="-1.47854">
        <ele>58</ele>
        <time>2020-09-12T10:06:30.000Z</time>
      </trkpt>
      <trkpt lat="47.3447" lon="-1.47843">
        <ele>58</ele>
        <time>2020-09-12T10:06:32.000Z</time>
      </trkpt>
      <trkpt lat="47.3448" lon="-1.47831">
        <ele>58</ele>
        <time>2020-09-12T10:06:34.000Z</time>
      </trkpt>
      <trkpt lat="47.3449" lon="-1.47819">
        <ele>58</ele>
        <time>2020-09-12T10:06:36.000Z</time>
      </trkpt>
      <trkpt lat="47.345" lon="-1.47808">
        <ele>58</ele>
        <time>2020-09-12T10:06:38.000Z</time>
      </trkpt>
      <trkpt lat="47.3451" lon="-1.47796">
        <ele>58</ele>
        <time>2020-09-12T10:06:40.000Z</time>
      </trkpt>
      <trkpt lat="47.3452" lon="-1.47786">
        <ele>57</ele>
        <time>2020-09-12T10:06:42.000Z</time>
      </trkpt>
      <trkpt lat="47.3453" lon="-1.47774">
        <ele>57</ele>
        <time>2020-09-12T10:06:44.000Z</time>
      </trkpt>
      <trkpt lat="47.3454" lon="-1.47762">
        <ele>57</ele>
        <time>2020-09-12T10:06:46.000Z</time>
      </trkpt>
      <trkpt lat="47.3455" lon="-1.47751">
        <ele>57</ele>
        <time>2020-09-12T10:06:48.000Z</time>
      </trkpt>
      <trkpt lat="47.34566" lon="-1.47734">
        <ele>56</ele>
        <time>2020-09-12T10:06:51.000Z</time>
      </trkpt>
      <trkpt lat="47.34576" lon="-1.47722">
        <ele>56</ele>
        <time>2020-09-12T10:06:53.000Z</time>
      </trkpt>
      <trkpt lat="47.34591" lon="-1.47704">
        <ele>56</ele>
        <time>2020-09-12T10:06:56.000Z</time>
      </trkpt>
      <trkpt lat="47.34607" lon="-1.47687">
        <ele>56</ele>
        <time>2020-09-12T10:06:59.000Z</time>
      </trkpt>
      <trkpt lat="47.34622" lon="-1.4767">
        <ele>56</ele>
        <time>2020-09-12T10:07:02.000Z</time>
      </trkpt>
      <trkpt lat="47.34632" lon="-1.47658">
        <ele>56</ele>
        <time>2020-09-12T10:07:04.000Z</time>
      </trkpt>
      <trkpt lat="47.34642" lon="-1.47647">
        <ele>56</ele>
        <time>2020-09-12T10:07:06.000Z</time>
      </trkpt>
      <trkpt lat="47.34657" lon="-1.47631">
        <ele>57</ele>
        <time>2020-09-12T10:07:09.000Z</time>
      </trkpt>
      <trkpt lat="47.34667" lon="-1.4762">
        <ele>56</ele>
        <time>2020-09-12T10:07:11.000Z</time>
      </trkpt>
      <trkpt lat="47.34677" lon="-1.47609">
        <ele>56</ele>
        <time>2020-09-12T10:07:13.000Z</time>
      </trkpt>
      <trkpt lat="47.34687" lon="-1.47598">
        <ele>56</ele>
        <time>2020-09-12T10:07:15.000Z</time>
      </trkpt>
      <trkpt lat="47.34697" lon="-1.47586">
        <ele>57</ele>
        <time>2020-09-12T10:07:17.000Z</time>
      </trkpt>
      <trkpt lat="47.34707" lon="-1.47575">
        <ele>57</ele>
        <time>2020-09-12T10:07:19.000Z</time>
      </trkpt>
      <trkpt lat="47.34716" lon="-1.47564">
        <ele>56</ele>
        <time>2020-09-12T10:07:21.000Z</time>
      </trkpt>
      <trkpt lat="47.34726" lon="-1.47553">
        <ele>56</ele>
        <time>2020-09-12T10:07:23.000Z</time>
      </trkpt>
      <trkpt lat="47.34735" lon="-1.47544">
        <ele>56</ele>
        <time>2020-09-12T10:07:25.000Z</time>
      </trkpt>
      <trkpt lat="47.34745" lon="-1.47533">
        <ele>56</ele>
        <time>2020-09-12T10:07:27.000Z</time>
      </trkpt>
      <trkpt lat="47.34759" lon="-1.47514">
        <ele>55</ele>
        <time>2020-09-12T10:07:30.000Z</time>
      </trkpt>
      <trkpt lat="47.34768" lon="-1.47501">
        <ele>55</ele>
        <time>2020-09-12T10:07:32.000Z</time>
      </trkpt>
      <trkpt lat="47.34776" lon="-1.47487">
        <ele>55</ele>
        <time>2020-09-12T10:07:34.000Z</time>
      </trkpt>
      <trkpt lat="47.34784" lon="-1.47472">
        <ele>55</ele>
        <time>2020-09-12T10:07:36.000Z</time>
      </trkpt>
      <trkpt lat="47.3479" lon="-1.47456">
        <ele>55</ele>
        <time>2020-09-12T10:07:38.000Z</time>
      </trkpt>
      <trkpt lat="47.34797" lon="-1.47439">
        <ele>55</ele>
        <time>2020-09-12T10:07:40.000Z</time>
      </trkpt>
      <trkpt lat="47.34803" lon="-1.47423">
        <ele>55</ele>
        <time>2020-09-12T10:07:42.000Z</time>
      </trkpt>
      <trkpt lat="47.34809" lon="-1.47407">
        <ele>55</ele>
        <time>2020-09-12T10:07:44.000Z</time>
      </trkpt>
      <trkpt lat="47.34816" lon="-1.47391">
        <ele>55</ele>
        <time>2020-09-12T10:07:46.000Z</time>
      </trkpt>
      <trkpt lat="47.34823" lon="-1.47376">
        <ele>55</ele>
        <time>2020-09-12T10:07:48.000Z</time>
      </trkpt>
      <trkpt lat="47.34831" lon="-1.47361">
        <ele>55</ele>
        <time>2020-09-12T10:07:50.000Z</time>
      </trkpt>
      <trkpt lat="47.3484" lon="-1.47348">
        <ele>55</ele>
        <time>2020-09-12T10:07:52.000Z</time>
      </trkpt>
      <trkpt lat="47.3485" lon="-1.47335">
        <ele>56</ele>
        <time>2020-09-12T10:07:54.000Z</time>
      </trkpt>
      <trkpt lat="47.3486" lon="-1.47325">
        <ele>56</ele>
        <time>2020-09-12T10:07:56.000Z</time>
      </trkpt>
      <trkpt lat="47.34877" lon="-1.47311">
        <ele>56</ele>
        <time>2020-09-12T10:07:59.000Z</time>
      </trkpt>
      <trkpt lat="47.34887" lon="-1.47303">
        <ele>56</ele>
        <time>2020-09-12T10:08:01.000Z</time>
      </trkpt>
      <trkpt lat="47.34898" lon="-1.47294">
        <ele>57</ele>
        <time>2020-09-12T10:08:03.000Z</time>
      </trkpt>
      <trkpt lat="47.34908" lon="-1.47286">
        <ele>57</ele>
        <time>2020-09-12T10:08:05.000Z</time>
      </trkpt>
      <trkpt lat="47.34918" lon="-1.47278">
        <ele>58</ele>
        <time>2020-09-12T10:08:07.000Z</time>
      </trkpt>
      <trkpt lat="47.34928" lon="-1.47271">
        <ele>58</ele>
        <time>2020-09-12T10:08:09.000Z</time>
      </trkpt>
      <trkpt lat="47.34938" lon="-1.47266">
        <ele>58</ele>
        <time>2020-09-12T10:08:11.000Z</time>
      </trkpt>
      <trkpt lat="47.3495" lon="-1.47259">
        <ele>58</ele>
        <time>2020-09-12T10:08:13.000Z</time>
      </trkpt>
      <trkpt lat="47.34961" lon="-1.47253">
        <ele>58</ele>
        <time>2020-09-12T10:08:15.000Z</time>
      </trkpt>
      <trkpt lat="47.34973" lon="-1.47249">
        <ele>59</ele>
        <time>2020-09-12T10:08:17.000Z</time>
      </trkpt>
      <trkpt lat="47.34984" lon="-1.47243">
        <ele>60</ele>
        <time>2020-09-12T10:08:19.000Z</time>
      </trkpt>
      <trkpt lat="47.34992" lon="-1.47234">
        <ele>60</ele>
        <time>2020-09-12T10:08:21.000Z</time>
      </trkpt>
      <trkpt lat="47.35002" lon="-1.47225">
        <ele>61</ele>
        <time>2020-09-12T10:08:23.000Z</time>
      </trkpt>
      <trkpt lat="47.35012" lon="-1.47216">
        <ele>61</ele>
        <time>2020-09-12T10:08:25.000Z</time>
      </trkpt>
      <trkpt lat="47.35023" lon="-1.47211">
        <ele>61</ele>
        <time>2020-09-12T10:08:27.000Z</time>
      </trkpt>
      <trkpt lat="47.35034" lon="-1.47213">
        <ele>61</ele>
        <time>2020-09-12T10:08:29.000Z</time>
      </trkpt>
      <trkpt lat="47.35046" lon="-1.47219">
        <ele>61</ele>
        <time>2020-09-12T10:08:31.000Z</time>
      </trkpt>
      <trkpt lat="47.35059" lon="-1.47224">
        <ele>61</ele>
        <time>2020-09-12T10:08:33.000Z</time>
      </trkpt>
      <trkpt lat="47.35071" lon="-1.47228">
        <ele>61</ele>
        <time>2020-09-12T10:08:35.000Z</time>
      </trkpt>
      <trkpt lat="47.35084" lon="-1.47231">
        <ele>61</ele>
        <time>2020-09-12T10:08:37.000Z</time>
      </trkpt>
      <trkpt lat="47.35103" lon="-1.47235">
        <ele>61</ele>
        <time>2020-09-12T10:08:40.000Z</time>
      </trkpt>
      <trkpt lat="47.35116" lon="-1.47238">
        <ele>61</ele>
        <time>2020-09-12T10:08:42.000Z</time>
      </trkpt>
      <trkpt lat="47.35129" lon="-1.4724">
        <ele>60</ele>
        <time>2020-09-12T10:08:44.000Z</time>
      </trkpt>
      <trkpt lat="47.35142" lon="-1.47243">
        <ele>60</ele>
        <time>2020-09-12T10:08:46.000Z</time>
      </trkpt>
      <trkpt lat="47.35155" lon="-1.47244">
        <ele>60</ele>
        <time>2020-09-12T10:08:48.000Z</time>
      </trkpt>
      <trkpt lat="47.35168" lon="-1.47241">
        <ele>60</ele>
        <time>2020-09-12T10:08:50.000Z</time>
      </trkpt>
      <trkpt lat="47.35181" lon="-1.47236">
        <ele>60</ele>
        <time>2020-09-12T10:08:52.000Z</time>
      </trkpt>
      <trkpt lat="47.35193" lon="-1.47232">
        <ele>61</ele>
        <time>2020-09-12T10:08:54.000Z</time>
      </trkpt>
      <trkpt lat="47.35205" lon="-1.47232">
        <ele>60</ele>
        <time>2020-09-12T10:08:56.000Z</time>
      </trkpt>
      <trkpt lat="47.35217" lon="-1.47241">
        <ele>61</ele>
        <time>2020-09-12T10:08:58.000Z</time>
      </trkpt>
      <trkpt lat="47.35225" lon="-1.47255">
        <ele>61</ele>
        <time>2020-09-12T10:09:00.000Z</time>
      </trkpt>
      <trkpt lat="47.35233" lon="-1.47269">
        <ele>61</ele>
        <time>2020-09-12T10:09:02.000Z</time>
      </trkpt>
      <trkpt lat="47.35241" lon="-1.47284">
        <ele>61</ele>
        <time>2020-09-12T10:09:04.000Z</time>
      </trkpt>
      <trkpt lat="47.3525" lon="-1.47296">
        <ele>60</ele>
        <time>2020-09-12T10:09:06.000Z</time>
      </trkpt>
      <trkpt lat="47.35261" lon="-1.47296">
        <ele>60</ele>
        <time>2020-09-12T10:09:08.000Z</time>
      </trkpt>
      <trkpt lat="47.35271" lon="-1.47286">
        <ele>60</ele>
        <time>2020-09-12T10:09:10.000Z</time>
      </trkpt>
      <trkpt lat="47.35281" lon="-1.4728">
        <ele>61</ele>
        <time>2020-09-12T10:09:12.000Z</time>
      </trkpt>
      <trkpt lat="47.35293" lon="-1.4728">
        <ele>60</ele>
        <time>2020-09-12T10:09:14.000Z</time>
      </trkpt>
      <trkpt lat="47.35306" lon="-1.47278">
        <ele>61</ele>
        <time>2020-09-12T10:09:16.000Z</time>
      </trkpt>
      <trkpt lat="47.35317" lon="-1.47278">
        <ele>62</ele>
        <time>2020-09-12T10:09:18.000Z</time>
      </trkpt>
      <trkpt lat="47.35328" lon="-1.47277">
        <ele>62</ele>
        <time>2020-09-12T10:09:20.000Z</time>
      </trkpt>
      <trkpt lat="47.35338" lon="-1.47277">
        <ele>63</ele>
        <time>2020-09-12T10:09:22.000Z</time>
      </trkpt>
      <trkpt lat="47.35347" lon="-1.47276">
        <ele>63</ele>
        <time>2020-09-12T10:09:24.000Z</time>
      </trkpt>
      <trkpt lat="47.35357" lon="-1.47275">
        <ele>64</ele>
        <time>2020-09-12T10:09:26.000Z</time>
      </trkpt>
      <trkpt lat="47.35366" lon="-1.47272">
        <ele>64</ele>
        <time>2020-09-12T10:09:28.000Z</time>
      </trkpt>
      <trkpt lat="47.35374" lon="-1.47268">
        <ele>64</ele>
        <time>2020-09-12T10:09:30.000Z</time>
      </trkpt>
      <trkpt lat="47.35383" lon="-1.47261">
        <ele>64</ele>
        <time>2020-09-12T10:09:32.000Z</time>
      </trkpt>
      <trkpt lat="47.35392" lon="-1.47254">
        <ele>64</ele>
        <time>2020-09-12T10:09:34.000Z</time>
      </trkpt>
      <trkpt lat="47.35401" lon="-1.47246">
        <ele>65</ele>
        <time>2020-09-12T10:09:36.000Z</time>
      </trkpt>
      <trkpt lat="47.3541" lon="-1.47238">
        <ele>65</ele>
        <time>2020-09-12T10:09:38.000Z</time>
      </trkpt>
      <trkpt lat="47.35419" lon="-1.47231">
        <ele>66</ele>
        <time>2020-09-12T10:09:40.000Z</time>
      </trkpt>
      <trkpt lat="47.35428" lon="-1.47222">
        <ele>66</ele>
        <time>2020-09-12T10:09:42.000Z</time>
      </trkpt>
      <trkpt lat="47.35441" lon="-1.47211">
        <ele>68</ele>
        <time>2020-09-12T10:09:45.000Z</time>
      </trkpt>
      <trkpt lat="47.3545" lon="-1.47203">
        <ele>68</ele>
        <time>2020-09-12T10:09:47.000Z</time>
      </trkpt>
      <trkpt lat="47.3546" lon="-1.47196">
        <ele>69</ele>
        <time>2020-09-12T10:09:49.000Z</time>
      </trkpt>
      <trkpt lat="47.35469" lon="-1.47187">
        <ele>69</ele>
        <time>2020-09-12T10:09:51.000Z</time>
      </trkpt>
      <trkpt lat="47.35478" lon="-1.4718">
        <ele>69</ele>
        <time>2020-09-12T10:09:53.000Z</time>
      </trkpt>
      <trkpt lat="47.35487" lon="-1.47172">
        <ele>70</ele>
        <time>2020-09-12T10:09:55.000Z</time>
      </trkpt>
      <trkpt lat="47.35496" lon="-1.47164">
        <ele>70</ele>
        <time>2020-09-12T10:09:57.000Z</time>
      </trkpt>
      <trkpt lat="47.35505" lon="-1.47155">
        <ele>70</ele>
        <time>2020-09-12T10:09:59.000Z</time>
      </trkpt>
      <trkpt lat="47.35515" lon="-1.47146">
        <ele>70</ele>
        <time>2020-09-12T10:10:01.000Z</time>
      </trkpt>
      <trkpt lat="47.35526" lon="-1.47138">
        <ele>70</ele>
        <time>2020-09-12T10:10:03.000Z</time>
      </trkpt>
      <trkpt lat="47.35536" lon="-1.47129">
        <ele>70</ele>
        <time>2020-09-12T10:10:05.000Z</time>
      </trkpt>
      <trkpt lat="47.35552" lon="-1.47114">
        <ele>70</ele>
        <time>2020-09-12T10:10:08.000Z</time>
      </trkpt>
      <trkpt lat="47.35562" lon="-1.47106">
        <ele>70</ele>
        <time>2020-09-12T10:10:10.000Z</time>
      </trkpt>
      <trkpt lat="47.35571" lon="-1.47098">
        <ele>71</ele>
        <time>2020-09-12T10:10:12.000Z</time>
      </trkpt>
      <trkpt lat="47.35579" lon="-1.4709">
        <ele>71</ele>
        <time>2020-09-12T10:10:14.000Z</time>
      </trkpt>
      <trkpt lat="47.35588" lon="-1.47083">
        <ele>71</ele>
        <time>2020-09-12T10:10:16.000Z</time>
      </trkpt>
      <trkpt lat="47.35598" lon="-1.47074">
        <ele>70</ele>
        <time>2020-09-12T10:10:18.000Z</time>
      </trkpt>
      <trkpt lat="47.35608" lon="-1.47065">
        <ele>69</ele>
        <time>2020-09-12T10:10:20.000Z</time>
      </trkpt>
      <trkpt lat="47.3562" lon="-1.47056">
        <ele>68</ele>
        <time>2020-09-12T10:10:22.000Z</time>
      </trkpt>
      <trkpt lat="47.35631" lon="-1.47047">
        <ele>67</ele>
        <time>2020-09-12T10:10:24.000Z</time>
      </trkpt>
      <trkpt lat="47.35646" lon="-1.47034">
        <ele>65</ele>
        <time>2020-09-12T10:10:26.000Z</time>
      </trkpt>
      <trkpt lat="47.35661" lon="-1.47021">
        <ele>63</ele>
        <time>2020-09-12T10:10:28.000Z</time>
      </trkpt>
      <trkpt lat="47.35669" lon="-1.47014">
        <ele>62</ele>
        <time>2020-09-12T10:10:29.000Z</time>
      </trkpt>
      <trkpt lat="47.35678" lon="-1.47007">
        <ele>60</ele>
        <time>2020-09-12T10:10:30.000Z</time>
      </trkpt>
      <trkpt lat="47.35687" lon="-1.46999">
        <ele>59</ele>
        <time>2020-09-12T10:10:31.000Z</time>
      </trkpt>
      <trkpt lat="47.35696" lon="-1.46991">
        <ele>57</ele>
        <time>2020-09-12T10:10:32.000Z</time>
      </trkpt>
      <trkpt lat="47.35705" lon="-1.46983">
        <ele>57</ele>
        <time>2020-09-12T10:10:33.000Z</time>
      </trkpt>
      <trkpt lat="47.35713" lon="-1.46975">
        <ele>56</ele>
        <time>2020-09-12T10:10:34.000Z</time>
      </trkpt>
      <trkpt lat="47.35721" lon="-1.46968">
        <ele>55</ele>
        <time>2020-09-12T10:10:35.000Z</time>
      </trkpt>
      <trkpt lat="47.35729" lon="-1.46962">
        <ele>55</ele>
        <time>2020-09-12T10:10:36.000Z</time>
      </trkpt>
      <trkpt lat="47.35741" lon="-1.46949">
        <ele>54</ele>
        <time>2020-09-12T10:10:38.000Z</time>
      </trkpt>
      <trkpt lat="47.35744" lon="-1.46931">
        <ele>54</ele>
        <time>2020-09-12T10:10:40.000Z</time>
      </trkpt>
      <trkpt lat="47.35742" lon="-1.46912">
        <ele>54</ele>
        <time>2020-09-12T10:10:42.000Z</time>
      </trkpt>
      <trkpt lat="47.3574" lon="-1.46891">
        <ele>54</ele>
        <time>2020-09-12T10:10:44.000Z</time>
      </trkpt>
      <trkpt lat="47.35738" lon="-1.46869">
        <ele>54</ele>
        <time>2020-09-12T10:10:46.000Z</time>
      </trkpt>
      <trkpt lat="47.35736" lon="-1.4685">
        <ele>54</ele>
        <time>2020-09-12T10:10:48.000Z</time>
      </trkpt>
      <trkpt lat="47.35734" lon="-1.4683">
        <ele>53</ele>
        <time>2020-09-12T10:10:50.000Z</time>
      </trkpt>
      <trkpt lat="47.35733" lon="-1.46809">
        <ele>54</ele>
        <time>2020-09-12T10:10:52.000Z</time>
      </trkpt>
      <trkpt lat="47.35735" lon="-1.46788">
        <ele>54</ele>
        <time>2020-09-12T10:10:54.000Z</time>
      </trkpt>
      <trkpt lat="47.35737" lon="-1.46768">
        <ele>54</ele>
        <time>2020-09-12T10:10:56.000Z</time>
      </trkpt>
      <trkpt lat="47.3574" lon="-1.46749">
        <ele>54</ele>
        <time>2020-09-12T10:10:58.000Z</time>
      </trkpt>
      <trkpt lat="47.35743" lon="-1.4673">
        <ele>54</ele>
        <time>2020-09-12T10:11:00.000Z</time>
      </trkpt>
      <trkpt lat="47.35746" lon="-1.46712">
        <ele>53</ele>
        <time>2020-09-12T10:11:02.000Z</time>
      </trkpt>
      <trkpt lat="47.35748" lon="-1.46693">
        <ele>53</ele>
        <time>2020-09-12T10:11:04.000Z</time>
      </trkpt>
      <trkpt lat="47.35752" lon="-1.46672">
        <ele>53</ele>
        <time>2020-09-12T10:11:06.000Z</time>
      </trkpt>
      <trkpt lat="47.35757" lon="-1.46654">
        <ele>53</ele>
        <time>2020-09-12T10:11:08.000Z</time>
      </trkpt>
      <trkpt lat="47.35767" lon="-1.46638">
        <ele>53</ele>
        <time>2020-09-12T10:11:10.000Z</time>
      </trkpt>
      <trkpt lat="47.35779" lon="-1.46628">
        <ele>53</ele>
        <time>2020-09-12T10:11:12.000Z</time>
      </trkpt>
      <trkpt lat="47.3579" lon="-1.46619">
        <ele>53</ele>
        <time>2020-09-12T10:11:14.000Z</time>
      </trkpt>
      <trkpt lat="47.35802" lon="-1.4661">
        <ele>53</ele>
        <time>2020-09-12T10:11:16.000Z</time>
      </trkpt>
      <trkpt lat="47.35813" lon="-1.466">
        <ele>53</ele>
        <time>2020-09-12T10:11:18.000Z</time>
      </trkpt>
      <trkpt lat="47.35825" lon="-1.4659">
        <ele>53</ele>
        <time>2020-09-12T10:11:20.000Z</time>
      </trkpt>
      <trkpt lat="47.35838" lon="-1.46581">
        <ele>53</ele>
        <time>2020-09-12T10:11:22.000Z</time>
      </trkpt>
      <trkpt lat="47.3585" lon="-1.46571">
        <ele>53</ele>
        <time>2020-09-12T10:11:24.000Z</time>
      </trkpt>
      <trkpt lat="47.35861" lon="-1.46561">
        <ele>53</ele>
        <time>2020-09-12T10:11:26.000Z</time>
      </trkpt>
      <trkpt lat="47.35873" lon="-1.46551">
        <ele>53</ele>
        <time>2020-09-12T10:11:28.000Z</time>
      </trkpt>
      <trkpt lat="47.35882" lon="-1.46537">
        <ele>53</ele>
        <time>2020-09-12T10:11:30.000Z</time>
      </trkpt>
      <trkpt lat="47.35887" lon="-1.46521">
        <ele>53</ele>
        <time>2020-09-12T10:11:32.000Z</time>
      </trkpt>
      <trkpt lat="47.35891" lon="-1.46502">
        <ele>54</ele>
        <time>2020-09-12T10:11:34.000Z</time>
      </trkpt>
      <trkpt lat="47.35895" lon="-1.46483">
        <ele>54</ele>
        <time>2020-09-12T10:11:36.000Z</time>
      </trkpt>
      <trkpt lat="47.35899" lon="-1.46463">
        <ele>53</ele>
        <time>2020-09-12T10:11:38.000Z</time>
      </trkpt>
      <trkpt lat="47.35903" lon="-1.46443">
        <ele>53</ele>
        <time>2020-09-12T10:11:40.000Z</time>
      </trkpt>
      <trkpt lat="47.35906" lon="-1.46424">
        <ele>53</ele>
        <time>2020-09-12T10:11:42.000Z</time>
      </trkpt>
      <trkpt lat="47.35908" lon="-1.46403">
        <ele>53</ele>
        <time>2020-09-12T10:11:44.000Z</time>
      </trkpt>
      <trkpt lat="47.35908" lon="-1.46382">
        <ele>53</ele>
        <time>2020-09-12T10:11:46.000Z</time>
      </trkpt>
      <trkpt lat="47.35901" lon="-1.46365">
        <ele>53</ele>
        <time>2020-09-12T10:11:48.000Z</time>
      </trkpt>
      <trkpt lat="47.35892" lon="-1.46351">
        <ele>53</ele>
        <time>2020-09-12T10:11:50.000Z</time>
      </trkpt>
      <trkpt lat="47.35882" lon="-1.46337">
        <ele>53</ele>
        <time>2020-09-12T10:11:52.000Z</time>
      </trkpt>
      <trkpt lat="47.35871" lon="-1.46323">
        <ele>53</ele>
        <time>2020-09-12T10:11:54.000Z</time>
      </trkpt>
      <trkpt lat="47.35861" lon="-1.46311">
        <ele>54</ele>
        <time>2020-09-12T10:11:56.000Z</time>
      </trkpt>
      <trkpt lat="47.35851" lon="-1.46297">
        <ele>56</ele>
        <time>2020-09-12T10:11:58.000Z</time>
      </trkpt>
      <trkpt lat="47.35843" lon="-1.46281">
        <ele>58</ele>
        <time>2020-09-12T10:12:00.000Z</time>
      </trkpt>
      <trkpt lat="47.35837" lon="-1.46263">
        <ele>57</ele>
        <time>2020-09-12T10:12:02.000Z</time>
      </trkpt>
      <trkpt lat="47.35834" lon="-1.46244">
        <ele>57</ele>
        <time>2020-09-12T10:12:04.000Z</time>
      </trkpt>
      <trkpt lat="47.35835" lon="-1.46225">
        <ele>58</ele>
        <time>2020-09-12T10:12:06.000Z</time>
      </trkpt>
      <trkpt lat="47.3584" lon="-1.46208">
        <ele>58</ele>
        <time>2020-09-12T10:12:08.000Z</time>
      </trkpt>
      <trkpt lat="47.35844" lon="-1.46192">
        <ele>57</ele>
        <time>2020-09-12T10:12:10.000Z</time>
      </trkpt>
      <trkpt lat="47.35843" lon="-1.46174">
        <ele>57</ele>
        <time>2020-09-12T10:12:12.000Z</time>
      </trkpt>
      <trkpt lat="47.3584" lon="-1.46154">
        <ele>56</ele>
        <time>2020-09-12T10:12:14.000Z</time>
      </trkpt>
      <trkpt lat="47.35836" lon="-1.46136">
        <ele>56</ele>
        <time>2020-09-12T10:12:16.000Z</time>
      </trkpt>
      <trkpt lat="47.35833" lon="-1.46117">
        <ele>56</ele>
        <time>2020-09-12T10:12:18.000Z</time>
      </trkpt>
      <trkpt lat="47.35828" lon="-1.46098">
        <ele>56</ele>
        <time>2020-09-12T10:12:20.000Z</time>
      </trkpt>
      <trkpt lat="47.35823" lon="-1.46079">
        <ele>56</ele>
        <time>2020-09-12T10:12:22.000Z</time>
      </trkpt>
      <trkpt lat="47.35817" lon="-1.46061">
        <ele>57</ele>
        <time>2020-09-12T10:12:24.000Z</time>
      </trkpt>
      <trkpt lat="47.35812" lon="-1.46044">
        <ele>57</ele>
        <time>2020-09-12T10:12:26.000Z</time>
      </trkpt>
      <trkpt lat="47.35807" lon="-1.46027">
        <ele>57</ele>
        <time>2020-09-12T10:12:28.000Z</time>
      </trkpt>
      <trkpt lat="47.35803" lon="-1.46011">
        <ele>58</ele>
        <time>2020-09-12T10:12:30.000Z</time>
      </trkpt>
      <trkpt lat="47.358" lon="-1.45993">
        <ele>58</ele>
        <time>2020-09-12T10:12:32.000Z</time>
      </trkpt>
      <trkpt lat="47.358" lon="-1.45975">
        <ele>59</ele>
        <time>2020-09-12T10:12:34.000Z</time>
      </trkpt>
      <trkpt lat="47.358" lon="-1.45956">
        <ele>59</ele>
        <time>2020-09-12T10:12:36.000Z</time>
      </trkpt>
      <trkpt lat="47.358" lon="-1.45938">
        <ele>59</ele>
        <time>2020-09-12T10:12:38.000Z</time>
      </trkpt>
      <trkpt lat="47.358" lon="-1.4592">
        <ele>60</ele>
        <time>2020-09-12T10:12:40.000Z</time>
      </trkpt>
      <trkpt lat="47.358" lon="-1.45903">
        <ele>60</ele>
        <time>2020-09-12T10:12:42.000Z</time>
      </trkpt>
      <trkpt lat="47.358" lon="-1.45886">
        <ele>60</ele>
        <time>2020-09-12T10:12:44.000Z</time>
      </trkpt>
      <trkpt lat="47.35799" lon="-1.45868">
        <ele>60</ele>
        <time>2020-09-12T10:12:46.000Z</time>
      </trkpt>
      <trkpt lat="47.35799" lon="-1.4585">
        <ele>60</ele>
        <time>2020-09-12T10:12:48.000Z</time>
      </trkpt>
      <trkpt lat="47.35798" lon="-1.45832">
        <ele>61</ele>
        <time>2020-09-12T10:12:50.000Z</time>
      </trkpt>
      <trkpt lat="47.35798" lon="-1.45814">
        <ele>61</ele>
        <time>2020-09-12T10:12:52.000Z</time>
      </trkpt>
      <trkpt lat="47.35797" lon="-1.45796">
        <ele>61</ele>
        <time>2020-09-12T10:12:54.000Z</time>
      </trkpt>
      <trkpt lat="47.35796" lon="-1.45779">
        <ele>61</ele>
        <time>2020-09-12T10:12:56.000Z</time>
      </trkpt>
      <trkpt lat="47.35796" lon="-1.45762">
        <ele>61</ele>
        <time>2020-09-12T10:12:58.000Z</time>
      </trkpt>
      <trkpt lat="47.35796" lon="-1.45747">
        <ele>61</ele>
        <time>2020-09-12T10:13:00.000Z</time>
      </trkpt>
      <trkpt lat="47.35793" lon="-1.45732">
        <ele>60</ele>
        <time>2020-09-12T10:13:03.000Z</time>
      </trkpt>
      <trkpt lat="47.35789" lon="-1.45719">
        <ele>61</ele>
        <time>2020-09-12T10:13:08.000Z</time>
      </trkpt>
      <trkpt lat="47.35785" lon="-1.45706">
        <ele>61</ele>
        <time>2020-09-12T10:13:10.000Z</time>
      </trkpt>
      <trkpt lat="47.35782" lon="-1.4569">
        <ele>61</ele>
        <time>2020-09-12T10:13:12.000Z</time>
      </trkpt>
      <trkpt lat="47.35778" lon="-1.45674">
        <ele>61</ele>
        <time>2020-09-12T10:13:14.000Z</time>
      </trkpt>
      <trkpt lat="47.35774" lon="-1.45657">
        <ele>61</ele>
        <time>2020-09-12T10:13:16.000Z</time>
      </trkpt>
      <trkpt lat="47.35771" lon="-1.45641">
        <ele>61</ele>
        <time>2020-09-12T10:13:18.000Z</time>
      </trkpt>
      <trkpt lat="47.35768" lon="-1.45624">
        <ele>61</ele>
        <time>2020-09-12T10:13:20.000Z</time>
      </trkpt>
      <trkpt lat="47.35765" lon="-1.45607">
        <ele>61</ele>
        <time>2020-09-12T10:13:22.000Z</time>
      </trkpt>
      <trkpt lat="47.35764" lon="-1.45589">
        <ele>62</ele>
        <time>2020-09-12T10:13:24.000Z</time>
      </trkpt>
      <trkpt lat="47.35764" lon="-1.45572">
        <ele>62</ele>
        <time>2020-09-12T10:13:26.000Z</time>
      </trkpt>
      <trkpt lat="47.35765" lon="-1.45556">
        <ele>62</ele>
        <time>2020-09-12T10:13:28.000Z</time>
      </trkpt>
      <trkpt lat="47.35768" lon="-1.4554">
        <ele>62</ele>
        <time>2020-09-12T10:13:30.000Z</time>
      </trkpt>
      <trkpt lat="47.35772" lon="-1.45524">
        <ele>62</ele>
        <time>2020-09-12T10:13:32.000Z</time>
      </trkpt>
      <trkpt lat="47.35777" lon="-1.45509">
        <ele>63</ele>
        <time>2020-09-12T10:13:34.000Z</time>
      </trkpt>
      <trkpt lat="47.35783" lon="-1.45493">
        <ele>63</ele>
        <time>2020-09-12T10:13:36.000Z</time>
      </trkpt>
      <trkpt lat="47.35788" lon="-1.45478">
        <ele>63</ele>
        <time>2020-09-12T10:13:38.000Z</time>
      </trkpt>
      <trkpt lat="47.35794" lon="-1.45461">
        <ele>63</ele>
        <time>2020-09-12T10:13:40.000Z</time>
      </trkpt>
      <trkpt lat="47.35798" lon="-1.45444">
        <ele>62</ele>
        <time>2020-09-12T10:13:42.000Z</time>
      </trkpt>
      <trkpt lat="47.358" lon="-1.45426">
        <ele>63</ele>
        <time>2020-09-12T10:13:44.000Z</time>
      </trkpt>
      <trkpt lat="47.35802" lon="-1.45409">
        <ele>63</ele>
        <time>2020-09-12T10:13:46.000Z</time>
      </trkpt>
      <trkpt lat="47.35802" lon="-1.45392">
        <ele>62</ele>
        <time>2020-09-12T10:13:48.000Z</time>
      </trkpt>
      <trkpt lat="47.35799" lon="-1.45375">
        <ele>62</ele>
        <time>2020-09-12T10:13:50.000Z</time>
      </trkpt>
      <trkpt lat="47.35797" lon="-1.45358">
        <ele>63</ele>
        <time>2020-09-12T10:13:52.000Z</time>
      </trkpt>
      <trkpt lat="47.35794" lon="-1.4534">
        <ele>63</ele>
        <time>2020-09-12T10:13:54.000Z</time>
      </trkpt>
      <trkpt lat="47.3579" lon="-1.45323">
        <ele>64</ele>
        <time>2020-09-12T10:13:56.000Z</time>
      </trkpt>
      <trkpt lat="47.35788" lon="-1.45306">
        <ele>64</ele>
        <time>2020-09-12T10:13:58.000Z</time>
      </trkpt>
      <trkpt lat="47.35785" lon="-1.45289">
        <ele>64</ele>
        <time>2020-09-12T10:14:00.000Z</time>
      </trkpt>
      <trkpt lat="47.35782" lon="-1.45273">
        <ele>64</ele>
        <time>2020-09-12T10:14:02.000Z</time>
      </trkpt>
      <trkpt lat="47.35779" lon="-1.45256">
        <ele>65</ele>
        <time>2020-09-12T10:14:04.000Z</time>
      </trkpt>
      <trkpt lat="47.35776" lon="-1.45239">
        <ele>65</ele>
        <time>2020-09-12T10:14:06.000Z</time>
      </trkpt>
      <trkpt lat="47.35773" lon="-1.45223">
        <ele>65</ele>
        <time>2020-09-12T10:14:08.000Z</time>
      </trkpt>
      <trkpt lat="47.3577" lon="-1.45206">
        <ele>66</ele>
        <time>2020-09-12T10:14:10.000Z</time>
      </trkpt>
      <trkpt lat="47.35768" lon="-1.45189">
        <ele>66</ele>
        <time>2020-09-12T10:14:12.000Z</time>
      </trkpt>
      <trkpt lat="47.35766" lon="-1.45173">
        <ele>67</ele>
        <time>2020-09-12T10:14:14.000Z</time>
      </trkpt>
      <trkpt lat="47.35764" lon="-1.45156">
        <ele>67</ele>
        <time>2020-09-12T10:14:16.000Z</time>
      </trkpt>
      <trkpt lat="47.35764" lon="-1.4514">
        <ele>68</ele>
        <time>2020-09-12T10:14:18.000Z</time>
      </trkpt>
      <trkpt lat="47.35764" lon="-1.45124">
        <ele>68</ele>
        <time>2020-09-12T10:14:20.000Z</time>
      </trkpt>
      <trkpt lat="47.35766" lon="-1.45109">
        <ele>68</ele>
        <time>2020-09-12T10:14:22.000Z</time>
      </trkpt>
      <trkpt lat="47.35769" lon="-1.45094">
        <ele>67</ele>
        <time>2020-09-12T10:14:24.000Z</time>
      </trkpt>
      <trkpt lat="47.35772" lon="-1.45078">
        <ele>67</ele>
        <time>2020-09-12T10:14:26.000Z</time>
      </trkpt>
      <trkpt lat="47.35774" lon="-1.45063">
        <ele>68</ele>
        <time>2020-09-12T10:14:28.000Z</time>
      </trkpt>
      <trkpt lat="47.35776" lon="-1.45047">
        <ele>68</ele>
        <time>2020-09-12T10:14:30.000Z</time>
      </trkpt>
      <trkpt lat="47.35778" lon="-1.45031">
        <ele>68</ele>
        <time>2020-09-12T10:14:32.000Z</time>
      </trkpt>
      <trkpt lat="47.35779" lon="-1.45015">
        <ele>68</ele>
        <time>2020-09-12T10:14:34.000Z</time>
      </trkpt>
      <trkpt lat="47.3578" lon="-1.44999">
        <ele>68</ele>
        <time>2020-09-12T10:14:36.000Z</time>
      </trkpt>
      <trkpt lat="47.35781" lon="-1.44983">
        <ele>68</ele>
        <time>2020-09-12T10:14:38.000Z</time>
      </trkpt>
      <trkpt lat="47.35781" lon="-1.44968">
        <ele>69</ele>
        <time>2020-09-12T10:14:40.000Z</time>
      </trkpt>
      <trkpt lat="47.35782" lon="-1.44952">
        <ele>69</ele>
        <time>2020-09-12T10:14:42.000Z</time>
      </trkpt>
      <trkpt lat="47.35782" lon="-1.44936">
        <ele>69</ele>
        <time>2020-09-12T10:14:44.000Z</time>
      </trkpt>
      <trkpt lat="47.35782" lon="-1.4492">
        <ele>70</ele>
        <time>2020-09-12T10:14:46.000Z</time>
      </trkpt>
      <trkpt lat="47.35783" lon="-1.44904">
        <ele>70</ele>
        <time>2020-09-12T10:14:48.000Z</time>
      </trkpt>
      <trkpt lat="47.35783" lon="-1.44887">
        <ele>70</ele>
        <time>2020-09-12T10:14:50.000Z</time>
      </trkpt>
      <trkpt lat="47.35783" lon="-1.44871">
        <ele>70</ele>
        <time>2020-09-12T10:14:52.000Z</time>
      </trkpt>
      <trkpt lat="47.35784" lon="-1.44855">
        <ele>71</ele>
        <time>2020-09-12T10:14:54.000Z</time>
      </trkpt>
      <trkpt lat="47.35784" lon="-1.44839">
        <ele>71</ele>
        <time>2020-09-12T10:14:56.000Z</time>
      </trkpt>
      <trkpt lat="47.35785" lon="-1.44824">
        <ele>71</ele>
        <time>2020-09-12T10:14:58.000Z</time>
      </trkpt>
      <trkpt lat="47.35785" lon="-1.44807">
        <ele>72</ele>
        <time>2020-09-12T10:15:00.000Z</time>
      </trkpt>
      <trkpt lat="47.35785" lon="-1.44792">
        <ele>73</ele>
        <time>2020-09-12T10:15:02.000Z</time>
      </trkpt>
      <trkpt lat="47.35786" lon="-1.44777">
        <ele>73</ele>
        <time>2020-09-12T10:15:04.000Z</time>
      </trkpt>
      <trkpt lat="47.35786" lon="-1.44761">
        <ele>73</ele>
        <time>2020-09-12T10:15:06.000Z</time>
      </trkpt>
      <trkpt lat="47.35787" lon="-1.44746">
        <ele>74</ele>
        <time>2020-09-12T10:15:08.000Z</time>
      </trkpt>
      <trkpt lat="47.35787" lon="-1.44731">
        <ele>75</ele>
        <time>2020-09-12T10:15:10.000Z</time>
      </trkpt>
      <trkpt lat="47.35787" lon="-1.44716">
        <ele>75</ele>
        <time>2020-09-12T10:15:12.000Z</time>
      </trkpt>
      <trkpt lat="47.35787" lon="-1.447">
        <ele>75</ele>
        <time>2020-09-12T10:15:14.000Z</time>
      </trkpt>
      <trkpt lat="47.35787" lon="-1.44686">
        <ele>76</ele>
        <time>2020-09-12T10:15:16.000Z</time>
      </trkpt>
      <trkpt lat="47.35788" lon="-1.44671">
        <ele>77</ele>
        <time>2020-09-12T10:15:18.000Z</time>
      </trkpt>
      <trkpt lat="47.35788" lon="-1.44656">
        <ele>77</ele>
        <time>2020-09-12T10:15:20.000Z</time>
      </trkpt>
      <trkpt lat="47.35789" lon="-1.44641">
        <ele>78</ele>
        <time>2020-09-12T10:15:22.000Z</time>
      </trkpt>
      <trkpt lat="47.35789" lon="-1.44626">
        <ele>78</ele>
        <time>2020-09-12T10:15:24.000Z</time>
      </trkpt>
      <trkpt lat="47.3579" lon="-1.44612">
        <ele>79</ele>
        <time>2020-09-12T10:15:26.000Z</time>
      </trkpt>
      <trkpt lat="47.35791" lon="-1.44597">
        <ele>79</ele>
        <time>2020-09-12T10:15:28.000Z</time>
      </trkpt>
      <trkpt lat="47.35792" lon="-1.44583">
        <ele>79</ele>
        <time>2020-09-12T10:15:30.000Z</time>
      </trkpt>
      <trkpt lat="47.35794" lon="-1.4457">
        <ele>80</ele>
        <time>2020-09-12T10:15:32.000Z</time>
      </trkpt>
      <trkpt lat="47.35796" lon="-1.44556">
        <ele>80</ele>
        <time>2020-09-12T10:15:34.000Z</time>
      </trkpt>
      <trkpt lat="47.35798" lon="-1.44536">
        <ele>81</ele>
        <time>2020-09-12T10:15:37.000Z</time>
      </trkpt>
      <trkpt lat="47.358" lon="-1.44523">
        <ele>81</ele>
        <time>2020-09-12T10:15:39.000Z</time>
      </trkpt>
      <trkpt lat="47.35801" lon="-1.4451">
        <ele>82</ele>
        <time>2020-09-12T10:15:41.000Z</time>
      </trkpt>
      <trkpt lat="47.35803" lon="-1.44496">
        <ele>82</ele>
        <time>2020-09-12T10:15:43.000Z</time>
      </trkpt>
      <trkpt lat="47.35804" lon="-1.44482">
        <ele>82</ele>
        <time>2020-09-12T10:15:45.000Z</time>
      </trkpt>
      <trkpt lat="47.35804" lon="-1.44467">
        <ele>82</ele>
        <time>2020-09-12T10:15:47.000Z</time>
      </trkpt>
      <trkpt lat="47.35805" lon="-1.44452">
        <ele>82</ele>
        <time>2020-09-12T10:15:49.000Z</time>
      </trkpt>
      <trkpt lat="47.35806" lon="-1.44436">
        <ele>82</ele>
        <time>2020-09-12T10:15:51.000Z</time>
      </trkpt>
      <trkpt lat="47.35806" lon="-1.4442">
        <ele>82</ele>
        <time>2020-09-12T10:15:53.000Z</time>
      </trkpt>
      <trkpt lat="47.35806" lon="-1.44403">
        <ele>82</ele>
        <time>2020-09-12T10:15:55.000Z</time>
      </trkpt>
      <trkpt lat="47.35806" lon="-1.44387">
        <ele>82</ele>
        <time>2020-09-12T10:15:57.000Z</time>
      </trkpt>
      <trkpt lat="47.35807" lon="-1.44369">
        <ele>82</ele>
        <time>2020-09-12T10:15:59.000Z</time>
      </trkpt>
      <trkpt lat="47.35807" lon="-1.44351">
        <ele>82</ele>
        <time>2020-09-12T10:16:01.000Z</time>
      </trkpt>
      <trkpt lat="47.35807" lon="-1.44334">
        <ele>82</ele>
        <time>2020-09-12T10:16:03.000Z</time>
      </trkpt>
      <trkpt lat="47.35807" lon="-1.44317">
        <ele>82</ele>
        <time>2020-09-12T10:16:05.000Z</time>
      </trkpt>
      <trkpt lat="47.35809" lon="-1.443">
        <ele>82</ele>
        <time>2020-09-12T10:16:07.000Z</time>
      </trkpt>
      <trkpt lat="47.35811" lon="-1.44285">
        <ele>82</ele>
        <time>2020-09-12T10:16:09.000Z</time>
      </trkpt>
      <trkpt lat="47.35815" lon="-1.4427">
        <ele>82</ele>
        <time>2020-09-12T10:16:11.000Z</time>
      </trkpt>
      <trkpt lat="47.35822" lon="-1.44256">
        <ele>82</ele>
        <time>2020-09-12T10:16:13.000Z</time>
      </trkpt>
      <trkpt lat="47.35829" lon="-1.44243">
        <ele>82</ele>
        <time>2020-09-12T10:16:15.000Z</time>
      </trkpt>
      <trkpt lat="47.35837" lon="-1.44231">
        <ele>82</ele>
        <time>2020-09-12T10:16:17.000Z</time>
      </trkpt>
      <trkpt lat="47.35845" lon="-1.44219">
        <ele>82</ele>
        <time>2020-09-12T10:16:19.000Z</time>
      </trkpt>
      <trkpt lat="47.35854" lon="-1.44208">
        <ele>82</ele>
        <time>2020-09-12T10:16:21.000Z</time>
      </trkpt>
      <trkpt lat="47.35862" lon="-1.44197">
        <ele>82</ele>
        <time>2020-09-12T10:16:23.000Z</time>
      </trkpt>
      <trkpt lat="47.3587" lon="-1.44186">
        <ele>82</ele>
        <time>2020-09-12T10:16:25.000Z</time>
      </trkpt>
      <trkpt lat="47.35879" lon="-1.44175">
        <ele>82</ele>
        <time>2020-09-12T10:16:27.000Z</time>
      </trkpt>
      <trkpt lat="47.35887" lon="-1.44163">
        <ele>82</ele>
        <time>2020-09-12T10:16:29.000Z</time>
      </trkpt>
      <trkpt lat="47.35896" lon="-1.44152">
        <ele>82</ele>
        <time>2020-09-12T10:16:31.000Z</time>
      </trkpt>
      <trkpt lat="47.35904" lon="-1.4414">
        <ele>82</ele>
        <time>2020-09-12T10:16:33.000Z</time>
      </trkpt>
      <trkpt lat="47.35912" lon="-1.44129">
        <ele>82</ele>
        <time>2020-09-12T10:16:35.000Z</time>
      </trkpt>
      <trkpt lat="47.35921" lon="-1.44118">
        <ele>82</ele>
        <time>2020-09-12T10:16:37.000Z</time>
      </trkpt>
      <trkpt lat="47.35929" lon="-1.44107">
        <ele>82</ele>
        <time>2020-09-12T10:16:39.000Z</time>
      </trkpt>
      <trkpt lat="47.35936" lon="-1.44096">
        <ele>82</ele>
        <time>2020-09-12T10:16:41.000Z</time>
      </trkpt>
      <trkpt lat="47.35944" lon="-1.44085">
        <ele>82</ele>
        <time>2020-09-12T10:16:43.000Z</time>
      </trkpt>
      <trkpt lat="47.35953" lon="-1.44074">
        <ele>82</ele>
        <time>2020-09-12T10:16:45.000Z</time>
      </trkpt>
      <trkpt lat="47.35961" lon="-1.44064">
        <ele>82</ele>
        <time>2020-09-12T10:16:47.000Z</time>
      </trkpt>
      <trkpt lat="47.35969" lon="-1.44054">
        <ele>82</ele>
        <time>2020-09-12T10:16:49.000Z</time>
      </trkpt>
      <trkpt lat="47.35978" lon="-1.44042">
        <ele>83</ele>
        <time>2020-09-12T10:16:51.000Z</time>
      </trkpt>
      <trkpt lat="47.35986" lon="-1.44032">
        <ele>83</ele>
        <time>2020-09-12T10:16:53.000Z</time>
      </trkpt>
      <trkpt lat="47.35995" lon="-1.44022">
        <ele>83</ele>
        <time>2020-09-12T10:16:55.000Z</time>
      </trkpt>
      <trkpt lat="47.36003" lon="-1.44011">
        <ele>82</ele>
        <time>2020-09-12T10:16:57.000Z</time>
      </trkpt>
      <trkpt lat="47.36012" lon="-1.43999">
        <ele>82</ele>
        <time>2020-09-12T10:16:59.000Z</time>
      </trkpt>
      <trkpt lat="47.36022" lon="-1.43986">
        <ele>82</ele>
        <time>2020-09-12T10:17:01.000Z</time>
      </trkpt>
      <trkpt lat="47.36031" lon="-1.43972">
        <ele>82</ele>
        <time>2020-09-12T10:17:03.000Z</time>
      </trkpt>
      <trkpt lat="47.36039" lon="-1.43957">
        <ele>82</ele>
        <time>2020-09-12T10:17:05.000Z</time>
      </trkpt>
      <trkpt lat="47.36046" lon="-1.4394">
        <ele>82</ele>
        <time>2020-09-12T10:17:07.000Z</time>
      </trkpt>
      <trkpt lat="47.36052" lon="-1.43924">
        <ele>80</ele>
        <time>2020-09-12T10:17:09.000Z</time>
      </trkpt>
      <trkpt lat="47.36057" lon="-1.43905">
        <ele>80</ele>
        <time>2020-09-12T10:17:11.000Z</time>
      </trkpt>
      <trkpt lat="47.36061" lon="-1.43885">
        <ele>80</ele>
        <time>2020-09-12T10:17:13.000Z</time>
      </trkpt>
      <trkpt lat="47.36064" lon="-1.43865">
        <ele>79</ele>
        <time>2020-09-12T10:17:15.000Z</time>
      </trkpt>
      <trkpt lat="47.36067" lon="-1.43842">
        <ele>79</ele>
        <time>2020-09-12T10:17:17.000Z</time>
      </trkpt>
      <trkpt lat="47.3607" lon="-1.43819">
        <ele>78</ele>
        <time>2020-09-12T10:17:19.000Z</time>
      </trkpt>
      <trkpt lat="47.36073" lon="-1.43794">
        <ele>77</ele>
        <time>2020-09-12T10:17:21.000Z</time>
      </trkpt>
      <trkpt lat="47.36077" lon="-1.43769">
        <ele>76</ele>
        <time>2020-09-12T10:17:23.000Z</time>
      </trkpt>
      <trkpt lat="47.36082" lon="-1.43746">
        <ele>75</ele>
        <time>2020-09-12T10:17:25.000Z</time>
      </trkpt>
      <trkpt lat="47.36091" lon="-1.43724">
        <ele>74</ele>
        <time>2020-09-12T10:17:27.000Z</time>
      </trkpt>
      <trkpt lat="47.36096" lon="-1.43713">
        <ele>74</ele>
        <time>2020-09-12T10:17:28.000Z</time>
      </trkpt>
      <trkpt lat="47.36102" lon="-1.43702">
        <ele>73</ele>
        <time>2020-09-12T10:17:29.000Z</time>
      </trkpt>
      <trkpt lat="47.36108" lon="-1.43692">
        <ele>73</ele>
        <time>2020-09-12T10:17:30.000Z</time>
      </trkpt>
      <trkpt lat="47.36119" lon="-1.43672">
        <ele>73</ele>
        <time>2020-09-12T10:17:32.000Z</time>
      </trkpt>
      <trkpt lat="47.3613" lon="-1.43654">
        <ele>73</ele>
        <time>2020-09-12T10:17:34.000Z</time>
      </trkpt>
      <trkpt lat="47.36139" lon="-1.43636">
        <ele>73</ele>
        <time>2020-09-12T10:17:36.000Z</time>
      </trkpt>
      <trkpt lat="47.36148" lon="-1.43619">
        <ele>73</ele>
        <time>2020-09-12T10:17:38.000Z</time>
      </trkpt>
      <trkpt lat="47.36156" lon="-1.43601">
        <ele>72</ele>
        <time>2020-09-12T10:17:40.000Z</time>
      </trkpt>
      <trkpt lat="47.36164" lon="-1.43584">
        <ele>72</ele>
        <time>2020-09-12T10:17:42.000Z</time>
      </trkpt>
      <trkpt lat="47.36172" lon="-1.43566">
        <ele>72</ele>
        <time>2020-09-12T10:17:44.000Z</time>
      </trkpt>
      <trkpt lat="47.3618" lon="-1.4355">
        <ele>72</ele>
        <time>2020-09-12T10:17:46.000Z</time>
      </trkpt>
      <trkpt lat="47.3619" lon="-1.43534">
        <ele>72</ele>
        <time>2020-09-12T10:17:48.000Z</time>
      </trkpt>
      <trkpt lat="47.36198" lon="-1.4352">
        <ele>73</ele>
        <time>2020-09-12T10:17:50.000Z</time>
      </trkpt>
      <trkpt lat="47.36207" lon="-1.43507">
        <ele>73</ele>
        <time>2020-09-12T10:17:52.000Z</time>
      </trkpt>
      <trkpt lat="47.36215" lon="-1.43494">
        <ele>74</ele>
        <time>2020-09-12T10:17:54.000Z</time>
      </trkpt>
      <trkpt lat="47.36224" lon="-1.43484">
        <ele>74</ele>
        <time>2020-09-12T10:17:56.000Z</time>
      </trkpt>
      <trkpt lat="47.36232" lon="-1.43474">
        <ele>74</ele>
        <time>2020-09-12T10:17:58.000Z</time>
      </trkpt>
      <trkpt lat="47.3624" lon="-1.43465">
        <ele>75</ele>
        <time>2020-09-12T10:18:00.000Z</time>
      </trkpt>
      <trkpt lat="47.36248" lon="-1.43456">
        <ele>76</ele>
        <time>2020-09-12T10:18:02.000Z</time>
      </trkpt>
      <trkpt lat="47.36255" lon="-1.43449">
        <ele>77</ele>
        <time>2020-09-12T10:18:04.000Z</time>
      </trkpt>
      <trkpt lat="47.36263" lon="-1.43441">
        <ele>77</ele>
        <time>2020-09-12T10:18:06.000Z</time>
      </trkpt>
      <trkpt lat="47.36271" lon="-1.43434">
        <ele>78</ele>
        <time>2020-09-12T10:18:08.000Z</time>
      </trkpt>
      <trkpt lat="47.36278" lon="-1.43426">
        <ele>79</ele>
        <time>2020-09-12T10:18:10.000Z</time>
      </trkpt>
      <trkpt lat="47.36285" lon="-1.43418">
        <ele>79</ele>
        <time>2020-09-12T10:18:12.000Z</time>
      </trkpt>
      <trkpt lat="47.36293" lon="-1.43411">
        <ele>80</ele>
        <time>2020-09-12T10:18:14.000Z</time>
      </trkpt>
      <trkpt lat="47.36303" lon="-1.434">
        <ele>81</ele>
        <time>2020-09-12T10:18:17.000Z</time>
      </trkpt>
      <trkpt lat="47.36313" lon="-1.4339">
        <ele>82</ele>
        <time>2020-09-12T10:18:20.000Z</time>
      </trkpt>
      <trkpt lat="47.36324" lon="-1.43379">
        <ele>82</ele>
        <time>2020-09-12T10:18:23.000Z</time>
      </trkpt>
      <trkpt lat="47.36334" lon="-1.43369">
        <ele>84</ele>
        <time>2020-09-12T10:18:26.000Z</time>
      </trkpt>
      <trkpt lat="47.36344" lon="-1.43359">
        <ele>84</ele>
        <time>2020-09-12T10:18:29.000Z</time>
      </trkpt>
      <trkpt lat="47.36354" lon="-1.43348">
        <ele>85</ele>
        <time>2020-09-12T10:18:32.000Z</time>
      </trkpt>
      <trkpt lat="47.36365" lon="-1.43337">
        <ele>86</ele>
        <time>2020-09-12T10:18:35.000Z</time>
      </trkpt>
      <trkpt lat="47.36375" lon="-1.43326">
        <ele>86</ele>
        <time>2020-09-12T10:18:38.000Z</time>
      </trkpt>
      <trkpt lat="47.36384" lon="-1.43316">
        <ele>87</ele>
        <time>2020-09-12T10:18:41.000Z</time>
      </trkpt>
      <trkpt lat="47.36393" lon="-1.43307">
        <ele>88</ele>
        <time>2020-09-12T10:18:44.000Z</time>
      </trkpt>
      <trkpt lat="47.36402" lon="-1.43298">
        <ele>89</ele>
        <time>2020-09-12T10:18:47.000Z</time>
      </trkpt>
      <trkpt lat="47.36411" lon="-1.43289">
        <ele>90</ele>
        <time>2020-09-12T10:18:50.000Z</time>
      </trkpt>
      <trkpt lat="47.36419" lon="-1.4328">
        <ele>91</ele>
        <time>2020-09-12T10:18:53.000Z</time>
      </trkpt>
      <trkpt lat="47.36427" lon="-1.43269">
        <ele>92</ele>
        <time>2020-09-12T10:18:56.000Z</time>
      </trkpt>
      <trkpt lat="47.36434" lon="-1.43257">
        <ele>93</ele>
        <time>2020-09-12T10:18:59.000Z</time>
      </trkpt>
      <trkpt lat="47.36442" lon="-1.43245">
        <ele>94</ele>
        <time>2020-09-12T10:19:02.000Z</time>
      </trkpt>
      <trkpt lat="47.36449" lon="-1.43233">
        <ele>94</ele>
        <time>2020-09-12T10:19:05.000Z</time>
      </trkpt>
      <trkpt lat="47.36455" lon="-1.43219">
        <ele>94</ele>
        <time>2020-09-12T10:19:08.000Z</time>
      </trkpt>
      <trkpt lat="47.36463" lon="-1.43204">
        <ele>95</ele>
        <time>2020-09-12T10:19:11.000Z</time>
      </trkpt>
      <trkpt lat="47.3647" lon="-1.43188">
        <ele>95</ele>
        <time>2020-09-12T10:19:14.000Z</time>
      </trkpt>
      <trkpt lat="47.36477" lon="-1.43172">
        <ele>95</ele>
        <time>2020-09-12T10:19:17.000Z</time>
      </trkpt>
      <trkpt lat="47.36482" lon="-1.43161">
        <ele>96</ele>
        <time>2020-09-12T10:19:19.000Z</time>
      </trkpt>
      <trkpt lat="47.36487" lon="-1.4315">
        <ele>96</ele>
        <time>2020-09-12T10:19:21.000Z</time>
      </trkpt>
      <trkpt lat="47.36493" lon="-1.43139">
        <ele>96</ele>
        <time>2020-09-12T10:19:23.000Z</time>
      </trkpt>
      <trkpt lat="47.36497" lon="-1.43128">
        <ele>96</ele>
        <time>2020-09-12T10:19:25.000Z</time>
      </trkpt>
      <trkpt lat="47.36502" lon="-1.43116">
        <ele>96</ele>
        <time>2020-09-12T10:19:27.000Z</time>
      </trkpt>
      <trkpt lat="47.36506" lon="-1.43103">
        <ele>96</ele>
        <time>2020-09-12T10:19:29.000Z</time>
      </trkpt>
      <trkpt lat="47.3651" lon="-1.43089">
        <ele>96</ele>
        <time>2020-09-12T10:19:31.000Z</time>
      </trkpt>
      <trkpt lat="47.36513" lon="-1.43074">
        <ele>96</ele>
        <time>2020-09-12T10:19:33.000Z</time>
      </trkpt>
      <trkpt lat="47.36515" lon="-1.4306">
        <ele>96</ele>
        <time>2020-09-12T10:19:35.000Z</time>
      </trkpt>
      <trkpt lat="47.36517" lon="-1.43045">
        <ele>97</ele>
        <time>2020-09-12T10:19:37.000Z</time>
      </trkpt>
      <trkpt lat="47.36518" lon="-1.4303">
        <ele>97</ele>
        <time>2020-09-12T10:19:39.000Z</time>
      </trkpt>
      <trkpt lat="47.3652" lon="-1.43015">
        <ele>97</ele>
        <time>2020-09-12T10:19:41.000Z</time>
      </trkpt>
      <trkpt lat="47.36523" lon="-1.43001">
        <ele>97</ele>
        <time>2020-09-12T10:19:43.000Z</time>
      </trkpt>
      <trkpt lat="47.36528" lon="-1.42988">
        <ele>98</ele>
        <time>2020-09-12T10:19:45.000Z</time>
      </trkpt>
      <trkpt lat="47.36536" lon="-1.42981">
        <ele>98</ele>
        <time>2020-09-12T10:19:47.000Z</time>
      </trkpt>
      <trkpt lat="47.36546" lon="-1.4298">
        <ele>98</ele>
        <time>2020-09-12T10:19:49.000Z</time>
      </trkpt>
      <trkpt lat="47.36557" lon="-1.42979">
        <ele>98</ele>
        <time>2020-09-12T10:19:51.000Z</time>
      </trkpt>
      <trkpt lat="47.36568" lon="-1.42978">
        <ele>98</ele>
        <time>2020-09-12T10:19:53.000Z</time>
      </trkpt>
      <trkpt lat="47.3658" lon="-1.42977">
        <ele>98</ele>
        <time>2020-09-12T10:19:55.000Z</time>
      </trkpt>
      <trkpt lat="47.36593" lon="-1.42977">
        <ele>98</ele>
        <time>2020-09-12T10:19:57.000Z</time>
      </trkpt>
      <trkpt lat="47.36606" lon="-1.42977">
        <ele>99</ele>
        <time>2020-09-12T10:19:59.000Z</time>
      </trkpt>
      <trkpt lat="47.36619" lon="-1.42976">
        <ele>99</ele>
        <time>2020-09-12T10:20:01.000Z</time>
      </trkpt>
      <trkpt lat="47.36631" lon="-1.42975">
        <ele>99</ele>
        <time>2020-09-12T10:20:03.000Z</time>
      </trkpt>
      <trkpt lat="47.36643" lon="-1.42974">
        <ele>100</ele>
        <time>2020-09-12T10:20:05.000Z</time>
      </trkpt>
      <trkpt lat="47.36655" lon="-1.42974">
        <ele>99</ele>
        <time>2020-09-12T10:20:07.000Z</time>
      </trkpt>
      <trkpt lat="47.36667" lon="-1.42973">
        <ele>100</ele>
        <time>2020-09-12T10:20:09.000Z</time>
      </trkpt>
      <trkpt lat="47.36678" lon="-1.42973">
        <ele>100</ele>
        <time>2020-09-12T10:20:11.000Z</time>
      </trkpt>
      <trkpt lat="47.36689" lon="-1.4296">
        <ele>100</ele>
        <time>2020-09-12T10:20:14.000Z</time>
      </trkpt>
      <trkpt lat="47.36694" lon="-1.42943">
        <ele>100</ele>
        <time>2020-09-12T10:20:16.000Z</time>
      </trkpt>
      <trkpt lat="47.36699" lon="-1.42925">
        <ele>100</ele>
        <time>2020-09-12T10:20:18.000Z</time>
      </trkpt>
      <trkpt lat="47.36704" lon="-1.42908">
        <ele>100</ele>
        <time>2020-09-12T10:20:20.000Z</time>
      </trkpt>
      <trkpt lat="47.3671" lon="-1.42891">
        <ele>100</ele>
        <time>2020-09-12T10:20:22.000Z</time>
      </trkpt>
      <trkpt lat="47.36716" lon="-1.42873">
        <ele>100</ele>
        <time>2020-09-12T10:20:24.000Z</time>
      </trkpt>
      <trkpt lat="47.3672" lon="-1.42855">
        <ele>100</ele>
        <time>2020-09-12T10:20:26.000Z</time>
      </trkpt>
      <trkpt lat="47.36724" lon="-1.42837">
        <ele>100</ele>
        <time>2020-09-12T10:20:28.000Z</time>
      </trkpt>
      <trkpt lat="47.36728" lon="-1.42819">
        <ele>100</ele>
        <time>2020-09-12T10:20:30.000Z</time>
      </trkpt>
      <trkpt lat="47.36731" lon="-1.42801">
        <ele>99</ele>
        <time>2020-09-12T10:20:32.000Z</time>
      </trkpt>
      <trkpt lat="47.36734" lon="-1.42783">
        <ele>99</ele>
        <time>2020-09-12T10:20:34.000Z</time>
      </trkpt>
      <trkpt lat="47.36736" lon="-1.42763">
        <ele>100</ele>
        <time>2020-09-12T10:20:36.000Z</time>
      </trkpt>
      <trkpt lat="47.36737" lon="-1.42745">
        <ele>100</ele>
        <time>2020-09-12T10:20:38.000Z</time>
      </trkpt>
      <trkpt lat="47.36738" lon="-1.42727">
        <ele>99</ele>
        <time>2020-09-12T10:20:40.000Z</time>
      </trkpt>
      <trkpt lat="47.36738" lon="-1.42708">
        <ele>100</ele>
        <time>2020-09-12T10:20:42.000Z</time>
      </trkpt>
      <trkpt lat="47.36737" lon="-1.42689">
        <ele>100</ele>
        <time>2020-09-12T10:20:44.000Z</time>
      </trkpt>
      <trkpt lat="47.36735" lon="-1.42671">
        <ele>100</ele>
        <time>2020-09-12T10:20:46.000Z</time>
      </trkpt>
      <trkpt lat="47.36733" lon="-1.42652">
        <ele>100</ele>
        <time>2020-09-12T10:20:48.000Z</time>
      </trkpt>
      <trkpt lat="47.36731" lon="-1.42634">
        <ele>100</ele>
        <time>2020-09-12T10:20:50.000Z</time>
      </trkpt>
      <trkpt lat="47.36728" lon="-1.42616">
        <ele>100</ele>
        <time>2020-09-12T10:20:52.000Z</time>
      </trkpt>
      <trkpt lat="47.36726" lon="-1.42598">
        <ele>101</ele>
        <time>2020-09-12T10:20:54.000Z</time>
      </trkpt>
      <trkpt lat="47.36723" lon="-1.4258">
        <ele>101</ele>
        <time>2020-09-12T10:20:56.000Z</time>
      </trkpt>
      <trkpt lat="47.3672" lon="-1.42562">
        <ele>101</ele>
        <time>2020-09-12T10:20:58.000Z</time>
      </trkpt>
      <trkpt lat="47.36717" lon="-1.42544">
        <ele>101</ele>
        <time>2020-09-12T10:21:00.000Z</time>
      </trkpt>
      <trkpt lat="47.36714" lon="-1.42526">
        <ele>101</ele>
        <time>2020-09-12T10:21:02.000Z</time>
      </trkpt>
      <trkpt lat="47.36712" lon="-1.42508">
        <ele>101</ele>
        <time>2020-09-12T10:21:04.000Z</time>
      </trkpt>
      <trkpt lat="47.36709" lon="-1.42489">
        <ele>101</ele>
        <time>2020-09-12T10:21:06.000Z</time>
      </trkpt>
      <trkpt lat="47.36706" lon="-1.42471">
        <ele>101</ele>
        <time>2020-09-12T10:21:08.000Z</time>
      </trkpt>
      <trkpt lat="47.36702" lon="-1.42454">
        <ele>101</ele>
        <time>2020-09-12T10:21:10.000Z</time>
      </trkpt>
      <trkpt lat="47.36699" lon="-1.42436">
        <ele>101</ele>
        <time>2020-09-12T10:21:12.000Z</time>
      </trkpt>
      <trkpt lat="47.36696" lon="-1.42417">
        <ele>101</ele>
        <time>2020-09-12T10:21:14.000Z</time>
      </trkpt>
      <trkpt lat="47.36693" lon="-1.42399">
        <ele>100</ele>
        <time>2020-09-12T10:21:16.000Z</time>
      </trkpt>
      <trkpt lat="47.36691" lon="-1.4238">
        <ele>100</ele>
        <time>2020-09-12T10:21:18.000Z</time>
      </trkpt>
      <trkpt lat="47.36688" lon="-1.42361">
        <ele>101</ele>
        <time>2020-09-12T10:21:20.000Z</time>
      </trkpt>
      <trkpt lat="47.36685" lon="-1.42343">
        <ele>101</ele>
        <time>2020-09-12T10:21:22.000Z</time>
      </trkpt>
      <trkpt lat="47.36682" lon="-1.42325">
        <ele>101</ele>
        <time>2020-09-12T10:21:24.000Z</time>
      </trkpt>
      <trkpt lat="47.3668" lon="-1.42306">
        <ele>101</ele>
        <time>2020-09-12T10:21:26.000Z</time>
      </trkpt>
      <trkpt lat="47.36678" lon="-1.42287">
        <ele>101</ele>
        <time>2020-09-12T10:21:28.000Z</time>
      </trkpt>
      <trkpt lat="47.36676" lon="-1.42269">
        <ele>101</ele>
        <time>2020-09-12T10:21:30.000Z</time>
      </trkpt>
      <trkpt lat="47.36674" lon="-1.42251">
        <ele>102</ele>
        <time>2020-09-12T10:21:32.000Z</time>
      </trkpt>
      <trkpt lat="47.36672" lon="-1.42233">
        <ele>102</ele>
        <time>2020-09-12T10:21:34.000Z</time>
      </trkpt>
      <trkpt lat="47.36671" lon="-1.42215">
        <ele>102</ele>
        <time>2020-09-12T10:21:36.000Z</time>
      </trkpt>
      <trkpt lat="47.36669" lon="-1.42197">
        <ele>102</ele>
        <time>2020-09-12T10:21:38.000Z</time>
      </trkpt>
      <trkpt lat="47.36667" lon="-1.42179">
        <ele>102</ele>
        <time>2020-09-12T10:21:40.000Z</time>
      </trkpt>
      <trkpt lat="47.36666" lon="-1.42162">
        <ele>102</ele>
        <time>2020-09-12T10:21:42.000Z</time>
      </trkpt>
      <trkpt lat="47.36665" lon="-1.42145">
        <ele>102</ele>
        <time>2020-09-12T10:21:44.000Z</time>
      </trkpt>
      <trkpt lat="47.36664" lon="-1.42128">
        <ele>103</ele>
        <time>2020-09-12T10:21:46.000Z</time>
      </trkpt>
      <trkpt lat="47.36662" lon="-1.42111">
        <ele>103</ele>
        <time>2020-09-12T10:21:48.000Z</time>
      </trkpt>
      <trkpt lat="47.36661" lon="-1.42095">
        <ele>104</ele>
        <time>2020-09-12T10:21:50.000Z</time>
      </trkpt>
      <trkpt lat="47.36659" lon="-1.42078">
        <ele>104</ele>
        <time>2020-09-12T10:21:52.000Z</time>
      </trkpt>
      <trkpt lat="47.36657" lon="-1.4206">
        <ele>104</ele>
        <time>2020-09-12T10:21:54.000Z</time>
      </trkpt>
      <trkpt lat="47.36656" lon="-1.42044">
        <ele>105</ele>
        <time>2020-09-12T10:21:56.000Z</time>
      </trkpt>
      <trkpt lat="47.36654" lon="-1.42027">
        <ele>105</ele>
        <time>2020-09-12T10:21:58.000Z</time>
      </trkpt>
      <trkpt lat="47.36653" lon="-1.42012">
        <ele>106</ele>
        <time>2020-09-12T10:22:00.000Z</time>
      </trkpt>
      <trkpt lat="47.36651" lon="-1.41997">
        <ele>106</ele>
        <time>2020-09-12T10:22:02.000Z</time>
      </trkpt>
      <trkpt lat="47.3665" lon="-1.41982">
        <ele>106</ele>
        <time>2020-09-12T10:22:04.000Z</time>
      </trkpt>
      <trkpt lat="47.36649" lon="-1.41966">
        <ele>106</ele>
        <time>2020-09-12T10:22:06.000Z</time>
      </trkpt>
      <trkpt lat="47.36647" lon="-1.4195">
        <ele>106</ele>
        <time>2020-09-12T10:22:08.000Z</time>
      </trkpt>
      <trkpt lat="47.36646" lon="-1.41934">
        <ele>107</ele>
        <time>2020-09-12T10:22:10.000Z</time>
      </trkpt>
      <trkpt lat="47.36645" lon="-1.41918">
        <ele>107</ele>
        <time>2020-09-12T10:22:12.000Z</time>
      </trkpt>
      <trkpt lat="47.36643" lon="-1.41903">
        <ele>107</ele>
        <time>2020-09-12T10:22:14.000Z</time>
      </trkpt>
      <trkpt lat="47.36642" lon="-1.41887">
        <ele>108</ele>
        <time>2020-09-12T10:22:16.000Z</time>
      </trkpt>
      <trkpt lat="47.36641" lon="-1.41872">
        <ele>109</ele>
        <time>2020-09-12T10:22:18.000Z</time>
      </trkpt>
      <trkpt lat="47.36639" lon="-1.41856">
        <ele>109</ele>
        <time>2020-09-12T10:22:20.000Z</time>
      </trkpt>
      <trkpt lat="47.36638" lon="-1.41841">
        <ele>108</ele>
        <time>2020-09-12T10:22:22.000Z</time>
      </trkpt>
      <trkpt lat="47.36637" lon="-1.41826">
        <ele>109</ele>
        <time>2020-09-12T10:22:24.000Z</time>
      </trkpt>
      <trkpt lat="47.36635" lon="-1.41811">
        <ele>109</ele>
        <time>2020-09-12T10:22:26.000Z</time>
      </trkpt>
      <trkpt lat="47.36634" lon="-1.41796">
        <ele>109</ele>
        <time>2020-09-12T10:22:28.000Z</time>
      </trkpt>
      <trkpt lat="47.36632" lon="-1.41781">
        <ele>110</ele>
        <time>2020-09-12T10:22:30.000Z</time>
      </trkpt>
      <trkpt lat="47.36631" lon="-1.41765">
        <ele>110</ele>
        <time>2020-09-12T10:22:32.000Z</time>
      </trkpt>
      <trkpt lat="47.3663" lon="-1.41751">
        <ele>110</ele>
        <time>2020-09-12T10:22:34.000Z</time>
      </trkpt>
      <trkpt lat="47.36628" lon="-1.41736">
        <ele>111</ele>
        <time>2020-09-12T10:22:36.000Z</time>
      </trkpt>
      <trkpt lat="47.36627" lon="-1.4172">
        <ele>111</ele>
        <time>2020-09-12T10:22:38.000Z</time>
      </trkpt>
      <trkpt lat="47.36626" lon="-1.41704">
        <ele>110</ele>
        <time>2020-09-12T10:22:40.000Z</time>
      </trkpt>
      <trkpt lat="47.36625" lon="-1.41689">
        <ele>111</ele>
        <time>2020-09-12T10:22:42.000Z</time>
      </trkpt>
      <trkpt lat="47.36625" lon="-1.41673">
        <ele>111</ele>
        <time>2020-09-12T10:22:44.000Z</time>
      </trkpt>
      <trkpt lat="47.36624" lon="-1.41658">
        <ele>111</ele>
        <time>2020-09-12T10:22:46.000Z</time>
      </trkpt>
      <trkpt lat="47.36624" lon="-1.41642">
        <ele>111</ele>
        <time>2020-09-12T10:22:48.000Z</time>
      </trkpt>
      <trkpt lat="47.36624" lon="-1.41628">
        <ele>111</ele>
        <time>2020-09-12T10:22:50.000Z</time>
      </trkpt>
      <trkpt lat="47.36624" lon="-1.41613">
        <ele>112</ele>
        <time>2020-09-12T10:22:52.000Z</time>
      </trkpt>
      <trkpt lat="47.36625" lon="-1.41599">
        <ele>112</ele>
        <time>2020-09-12T10:22:54.000Z</time>
      </trkpt>
      <trkpt lat="47.36626" lon="-1.41584">
        <ele>112</ele>
        <time>2020-09-12T10:22:56.000Z</time>
      </trkpt>
      <trkpt lat="47.36627" lon="-1.41569">
        <ele>112</ele>
        <time>2020-09-12T10:22:58.000Z</time>
      </trkpt>
      <trkpt lat="47.36628" lon="-1.41554">
        <ele>112</ele>
        <time>2020-09-12T10:23:00.000Z</time>
      </trkpt>
      <trkpt lat="47.36629" lon="-1.41539">
        <ele>112</ele>
        <time>2020-09-12T10:23:02.000Z</time>
      </trkpt>
      <trkpt lat="47.36634" lon="-1.41525">
        <ele>112</ele>
        <time>2020-09-12T10:23:04.000Z</time>
      </trkpt>
      <trkpt lat="47.36638" lon="-1.4151">
        <ele>112</ele>
        <time>2020-09-12T10:23:06.000Z</time>
      </trkpt>
      <trkpt lat="47.36642" lon="-1.41494">
        <ele>113</ele>
        <time>2020-09-12T10:23:08.000Z</time>
      </trkpt>
      <trkpt lat="47.36645" lon="-1.41478">
        <ele>113</ele>
        <time>2020-09-12T10:23:10.000Z</time>
      </trkpt>
      <trkpt lat="47.36649" lon="-1.41463">
        <ele>112</ele>
        <time>2020-09-12T10:23:12.000Z</time>
      </trkpt>
      <trkpt lat="47.36654" lon="-1.41447">
        <ele>113</ele>
        <time>2020-09-12T10:23:14.000Z</time>
      </trkpt>
      <trkpt lat="47.36659" lon="-1.41432">
        <ele>113</ele>
        <time>2020-09-12T10:23:16.000Z</time>
      </trkpt>
      <trkpt lat="47.36664" lon="-1.41416">
        <ele>113</ele>
        <time>2020-09-12T10:23:18.000Z</time>
      </trkpt>
      <trkpt lat="47.3667" lon="-1.414">
        <ele>113</ele>
        <time>2020-09-12T10:23:20.000Z</time>
      </trkpt>
      <trkpt lat="47.36676" lon="-1.41383">
        <ele>114</ele>
        <time>2020-09-12T10:23:22.000Z</time>
      </trkpt>
      <trkpt lat="47.36682" lon="-1.41367">
        <ele>113</ele>
        <time>2020-09-12T10:23:24.000Z</time>
      </trkpt>
      <trkpt lat="47.36688" lon="-1.41351">
        <ele>113</ele>
        <time>2020-09-12T10:23:26.000Z</time>
      </trkpt>
      <trkpt lat="47.36694" lon="-1.41335">
        <ele>113</ele>
        <time>2020-09-12T10:23:28.000Z</time>
      </trkpt>
      <trkpt lat="47.367" lon="-1.41318">
        <ele>113</ele>
        <time>2020-09-12T10:23:30.000Z</time>
      </trkpt>
      <trkpt lat="47.36705" lon="-1.41302">
        <ele>113</ele>
        <time>2020-09-12T10:23:32.000Z</time>
      </trkpt>
      <trkpt lat="47.36711" lon="-1.41286">
        <ele>112</ele>
        <time>2020-09-12T10:23:34.000Z</time>
      </trkpt>
      <trkpt lat="47.36718" lon="-1.41269">
        <ele>112</ele>
        <time>2020-09-12T10:23:36.000Z</time>
      </trkpt>
      <trkpt lat="47.36724" lon="-1.41253">
        <ele>111</ele>
        <time>2020-09-12T10:23:38.000Z</time>
      </trkpt>
      <trkpt lat="47.3673" lon="-1.41237">
        <ele>111</ele>
        <time>2020-09-12T10:23:40.000Z</time>
      </trkpt>
      <trkpt lat="47.36736" lon="-1.4122">
        <ele>110</ele>
        <time>2020-09-12T10:23:42.000Z</time>
      </trkpt>
      <trkpt lat="47.3674" lon="-1.41202">
        <ele>109</ele>
        <time>2020-09-12T10:23:44.000Z</time>
      </trkpt>
      <trkpt lat="47.36742" lon="-1.41183">
        <ele>109</ele>
        <time>2020-09-12T10:23:46.000Z</time>
      </trkpt>
      <trkpt lat="47.3674" lon="-1.41163">
        <ele>109</ele>
        <time>2020-09-12T10:23:48.000Z</time>
      </trkpt>
      <trkpt lat="47.36737" lon="-1.41143">
        <ele>109</ele>
        <time>2020-09-12T10:23:50.000Z</time>
      </trkpt>
      <trkpt lat="47.36733" lon="-1.41123">
        <ele>108</ele>
        <time>2020-09-12T10:23:52.000Z</time>
      </trkpt>
      <trkpt lat="47.36729" lon="-1.41105">
        <ele>108</ele>
        <time>2020-09-12T10:23:54.000Z</time>
      </trkpt>
      <trkpt lat="47.36723" lon="-1.41086">
        <ele>108</ele>
        <time>2020-09-12T10:23:56.000Z</time>
      </trkpt>
      <trkpt lat="47.36719" lon="-1.41067">
        <ele>108</ele>
        <time>2020-09-12T10:23:58.000Z</time>
      </trkpt>
      <trkpt lat="47.36714" lon="-1.41048">
        <ele>108</ele>
        <time>2020-09-12T10:24:00.000Z</time>
      </trkpt>
      <trkpt lat="47.36708" lon="-1.4103">
        <ele>108</ele>
        <time>2020-09-12T10:24:02.000Z</time>
      </trkpt>
      <trkpt lat="47.36703" lon="-1.41012">
        <ele>108</ele>
        <time>2020-09-12T10:24:04.000Z</time>
      </trkpt>
      <trkpt lat="47.36698" lon="-1.40994">
        <ele>108</ele>
        <time>2020-09-12T10:24:06.000Z</time>
      </trkpt>
      <trkpt lat="47.36694" lon="-1.40976">
        <ele>108</ele>
        <time>2020-09-12T10:24:08.000Z</time>
      </trkpt>
      <trkpt lat="47.36691" lon="-1.40959">
        <ele>109</ele>
        <time>2020-09-12T10:24:10.000Z</time>
      </trkpt>
      <trkpt lat="47.36688" lon="-1.40941">
        <ele>109</ele>
        <time>2020-09-12T10:24:12.000Z</time>
      </trkpt>
      <trkpt lat="47.36687" lon="-1.40924">
        <ele>109</ele>
        <time>2020-09-12T10:24:14.000Z</time>
      </trkpt>
      <trkpt lat="47.36687" lon="-1.40906">
        <ele>109</ele>
        <time>2020-09-12T10:24:16.000Z</time>
      </trkpt>
      <trkpt lat="47.36687" lon="-1.40888">
        <ele>109</ele>
        <time>2020-09-12T10:24:18.000Z</time>
      </trkpt>
      <trkpt lat="47.36687" lon="-1.4087">
        <ele>110</ele>
        <time>2020-09-12T10:24:20.000Z</time>
      </trkpt>
      <trkpt lat="47.36688" lon="-1.40852">
        <ele>110</ele>
        <time>2020-09-12T10:24:22.000Z</time>
      </trkpt>
      <trkpt lat="47.36689" lon="-1.40836">
        <ele>110</ele>
        <time>2020-09-12T10:24:24.000Z</time>
      </trkpt>
      <trkpt lat="47.36689" lon="-1.40818">
        <ele>110</ele>
        <time>2020-09-12T10:24:26.000Z</time>
      </trkpt>
      <trkpt lat="47.3669" lon="-1.408">
        <ele>110</ele>
        <time>2020-09-12T10:24:28.000Z</time>
      </trkpt>
      <trkpt lat="47.36691" lon="-1.40783">
        <ele>110</ele>
        <time>2020-09-12T10:24:30.000Z</time>
      </trkpt>
      <trkpt lat="47.36691" lon="-1.40765">
        <ele>110</ele>
        <time>2020-09-12T10:24:32.000Z</time>
      </trkpt>
      <trkpt lat="47.36692" lon="-1.40747">
        <ele>110</ele>
        <time>2020-09-12T10:24:34.000Z</time>
      </trkpt>
      <trkpt lat="47.36692" lon="-1.40729">
        <ele>110</ele>
        <time>2020-09-12T10:24:36.000Z</time>
      </trkpt>
      <trkpt lat="47.36693" lon="-1.40711">
        <ele>110</ele>
        <time>2020-09-12T10:24:38.000Z</time>
      </trkpt>
      <trkpt lat="47.36693" lon="-1.40693">
        <ele>110</ele>
        <time>2020-09-12T10:24:40.000Z</time>
      </trkpt>
      <trkpt lat="47.36694" lon="-1.40676">
        <ele>109</ele>
        <time>2020-09-12T10:24:42.000Z</time>
      </trkpt>
      <trkpt lat="47.36695" lon="-1.40658">
        <ele>108</ele>
        <time>2020-09-12T10:24:44.000Z</time>
      </trkpt>
      <trkpt lat="47.36696" lon="-1.4064">
        <ele>108</ele>
        <time>2020-09-12T10:24:46.000Z</time>
      </trkpt>
      <trkpt lat="47.36696" lon="-1.40622">
        <ele>107</ele>
        <time>2020-09-12T10:24:48.000Z</time>
      </trkpt>
      <trkpt lat="47.36697" lon="-1.40603">
        <ele>106</ele>
        <time>2020-09-12T10:24:50.000Z</time>
      </trkpt>
      <trkpt lat="47.36697" lon="-1.40584">
        <ele>106</ele>
        <time>2020-09-12T10:24:52.000Z</time>
      </trkpt>
      <trkpt lat="47.36698" lon="-1.40564">
        <ele>105</ele>
        <time>2020-09-12T10:24:54.000Z</time>
      </trkpt>
      <trkpt lat="47.36697" lon="-1.40546">
        <ele>105</ele>
        <time>2020-09-12T10:24:56.000Z</time>
      </trkpt>
      <trkpt lat="47.36695" lon="-1.4053">
        <ele>106</ele>
        <time>2020-09-12T10:24:58.000Z</time>
      </trkpt>
      <trkpt lat="47.36698" lon="-1.40517">
        <ele>106</ele>
        <time>2020-09-12T10:25:00.000Z</time>
      </trkpt>
      <trkpt lat="47.3671" lon="-1.40512">
        <ele>106</ele>
        <time>2020-09-12T10:25:02.000Z</time>
      </trkpt>
      <trkpt lat="47.36722" lon="-1.40504">
        <ele>105</ele>
        <time>2020-09-12T10:25:04.000Z</time>
      </trkpt>
      <trkpt lat="47.36726" lon="-1.40486">
        <ele>105</ele>
        <time>2020-09-12T10:25:06.000Z</time>
      </trkpt>
      <trkpt lat="47.36728" lon="-1.40469">
        <ele>104</ele>
        <time>2020-09-12T10:25:08.000Z</time>
      </trkpt>
      <trkpt lat="47.3673" lon="-1.40449">
        <ele>104</ele>
        <time>2020-09-12T10:25:10.000Z</time>
      </trkpt>
      <trkpt lat="47.3673" lon="-1.4043">
        <ele>104</ele>
        <time>2020-09-12T10:25:12.000Z</time>
      </trkpt>
      <trkpt lat="47.36733" lon="-1.40411">
        <ele>104</ele>
        <time>2020-09-12T10:25:14.000Z</time>
      </trkpt>
      <trkpt lat="47.36735" lon="-1.40392">
        <ele>104</ele>
        <time>2020-09-12T10:25:16.000Z</time>
      </trkpt>
      <trkpt lat="47.36739" lon="-1.40373">
        <ele>103</ele>
        <time>2020-09-12T10:25:18.000Z</time>
      </trkpt>
      <trkpt lat="47.36742" lon="-1.40354">
        <ele>102</ele>
        <time>2020-09-12T10:25:20.000Z</time>
      </trkpt>
      <trkpt lat="47.36745" lon="-1.40334">
        <ele>102</ele>
        <time>2020-09-12T10:25:22.000Z</time>
      </trkpt>
      <trkpt lat="47.36748" lon="-1.40315">
        <ele>102</ele>
        <time>2020-09-12T10:25:24.000Z</time>
      </trkpt>
      <trkpt lat="47.36751" lon="-1.40295">
        <ele>102</ele>
        <time>2020-09-12T10:25:26.000Z</time>
      </trkpt>
      <trkpt lat="47.36754" lon="-1.40276">
        <ele>102</ele>
        <time>2020-09-12T10:25:28.000Z</time>
      </trkpt>
      <trkpt lat="47.36756" lon="-1.40256">
        <ele>101</ele>
        <time>2020-09-12T10:25:30.000Z</time>
      </trkpt>
      <trkpt lat="47.36759" lon="-1.40235">
        <ele>101</ele>
        <time>2020-09-12T10:25:32.000Z</time>
      </trkpt>
      <trkpt lat="47.36761" lon="-1.40214">
        <ele>101</ele>
        <time>2020-09-12T10:25:34.000Z</time>
      </trkpt>
      <trkpt lat="47.36762" lon="-1.40194">
        <ele>101</ele>
        <time>2020-09-12T10:25:36.000Z</time>
      </trkpt>
      <trkpt lat="47.36762" lon="-1.40174">
        <ele>101</ele>
        <time>2020-09-12T10:25:38.000Z</time>
      </trkpt>
      <trkpt lat="47.36762" lon="-1.40155">
        <ele>100</ele>
        <time>2020-09-12T10:25:40.000Z</time>
      </trkpt>
      <trkpt lat="47.36761" lon="-1.40135">
        <ele>100</ele>
        <time>2020-09-12T10:25:42.000Z</time>
      </trkpt>
      <trkpt lat="47.36762" lon="-1.40116">
        <ele>101</ele>
        <time>2020-09-12T10:25:44.000Z</time>
      </trkpt>
      <trkpt lat="47.36763" lon="-1.40097">
        <ele>101</ele>
        <time>2020-09-12T10:25:46.000Z</time>
      </trkpt>
      <trkpt lat="47.36762" lon="-1.4008">
        <ele>101</ele>
        <time>2020-09-12T10:25:48.000Z</time>
      </trkpt>
      <trkpt lat="47.36762" lon="-1.40064">
        <ele>101</ele>
        <time>2020-09-12T10:25:50.000Z</time>
      </trkpt>
      <trkpt lat="47.36763" lon="-1.40048">
        <ele>101</ele>
        <time>2020-09-12T10:25:52.000Z</time>
      </trkpt>
      <trkpt lat="47.36763" lon="-1.40033">
        <ele>101</ele>
        <time>2020-09-12T10:25:54.000Z</time>
      </trkpt>
      <trkpt lat="47.36763" lon="-1.40018">
        <ele>101</ele>
        <time>2020-09-12T10:25:56.000Z</time>
      </trkpt>
      <trkpt lat="47.36763" lon="-1.40002">
        <ele>102</ele>
        <time>2020-09-12T10:25:58.000Z</time>
      </trkpt>
      <trkpt lat="47.36763" lon="-1.39986">
        <ele>102</ele>
        <time>2020-09-12T10:26:00.000Z</time>
      </trkpt>
      <trkpt lat="47.36763" lon="-1.3997">
        <ele>103</ele>
        <time>2020-09-12T10:26:02.000Z</time>
      </trkpt>
      <trkpt lat="47.36762" lon="-1.39953">
        <ele>104</ele>
        <time>2020-09-12T10:26:04.000Z</time>
      </trkpt>
      <trkpt lat="47.36762" lon="-1.39938">
        <ele>104</ele>
        <time>2020-09-12T10:26:06.000Z</time>
      </trkpt>
      <trkpt lat="47.36762" lon="-1.39924">
        <ele>104</ele>
        <time>2020-09-12T10:26:08.000Z</time>
      </trkpt>
      <trkpt lat="47.36762" lon="-1.39909">
        <ele>104</ele>
        <time>2020-09-12T10:26:10.000Z</time>
      </trkpt>
      <trkpt lat="47.36762" lon="-1.39895">
        <ele>105</ele>
        <time>2020-09-12T10:26:12.000Z</time>
      </trkpt>
      <trkpt lat="47.36763" lon="-1.39879">
        <ele>105</ele>
        <time>2020-09-12T10:26:14.000Z</time>
      </trkpt>
      <trkpt lat="47.36763" lon="-1.39863">
        <ele>106</ele>
        <time>2020-09-12T10:26:16.000Z</time>
      </trkpt>
      <trkpt lat="47.36763" lon="-1.39847">
        <ele>106</ele>
        <time>2020-09-12T10:26:18.000Z</time>
      </trkpt>
      <trkpt lat="47.36763" lon="-1.39831">
        <ele>107</ele>
        <time>2020-09-12T10:26:20.000Z</time>
      </trkpt>
      <trkpt lat="47.36763" lon="-1.39815">
        <ele>107</ele>
        <time>2020-09-12T10:26:22.000Z</time>
      </trkpt>
      <trkpt lat="47.36763" lon="-1.398">
        <ele>108</ele>
        <time>2020-09-12T10:26:24.000Z</time>
      </trkpt>
      <trkpt lat="47.36764" lon="-1.39785">
        <ele>108</ele>
        <time>2020-09-12T10:26:26.000Z</time>
      </trkpt>
      <trkpt lat="47.36764" lon="-1.3977">
        <ele>109</ele>
        <time>2020-09-12T10:26:28.000Z</time>
      </trkpt>
      <trkpt lat="47.36764" lon="-1.39754">
        <ele>109</ele>
        <time>2020-09-12T10:26:30.000Z</time>
      </trkpt>
      <trkpt lat="47.36764" lon="-1.39739">
        <ele>109</ele>
        <time>2020-09-12T10:26:32.000Z</time>
      </trkpt>
      <trkpt lat="47.36764" lon="-1.39724">
        <ele>109</ele>
        <time>2020-09-12T10:26:34.000Z</time>
      </trkpt>
      <trkpt lat="47.36764" lon="-1.39708">
        <ele>109</ele>
        <time>2020-09-12T10:26:36.000Z</time>
      </trkpt>
      <trkpt lat="47.36764" lon="-1.39693">
        <ele>109</ele>
        <time>2020-09-12T10:26:38.000Z</time>
      </trkpt>
      <trkpt lat="47.36764" lon="-1.39678">
        <ele>110</ele>
        <time>2020-09-12T10:26:40.000Z</time>
      </trkpt>
      <trkpt lat="47.36764" lon="-1.39662">
        <ele>110</ele>
        <time>2020-09-12T10:26:42.000Z</time>
      </trkpt>
      <trkpt lat="47.36764" lon="-1.39647">
        <ele>110</ele>
        <time>2020-09-12T10:26:44.000Z</time>
      </trkpt>
      <trkpt lat="47.36764" lon="-1.39632">
        <ele>110</ele>
        <time>2020-09-12T10:26:46.000Z</time>
      </trkpt>
      <trkpt lat="47.36764" lon="-1.39617">
        <ele>110</ele>
        <time>2020-09-12T10:26:48.000Z</time>
      </trkpt>
      <trkpt lat="47.36765" lon="-1.39601">
        <ele>110</ele>
        <time>2020-09-12T10:26:50.000Z</time>
      </trkpt>
      <trkpt lat="47.36765" lon="-1.39585">
        <ele>110</ele>
        <time>2020-09-12T10:26:52.000Z</time>
      </trkpt>
      <trkpt lat="47.36765" lon="-1.39569">
        <ele>110</ele>
        <time>2020-09-12T10:26:54.000Z</time>
      </trkpt>
      <trkpt lat="47.36765" lon="-1.39554">
        <ele>110</ele>
        <time>2020-09-12T10:26:56.000Z</time>
      </trkpt>
      <trkpt lat="47.36765" lon="-1.39538">
        <ele>111</ele>
        <time>2020-09-12T10:26:58.000Z</time>
      </trkpt>
      <trkpt lat="47.36765" lon="-1.39521">
        <ele>111</ele>
        <time>2020-09-12T10:27:00.000Z</time>
      </trkpt>
      <trkpt lat="47.36765" lon="-1.39505">
        <ele>111</ele>
        <time>2020-09-12T10:27:02.000Z</time>
      </trkpt>
      <trkpt lat="47.36765" lon="-1.39488">
        <ele>111</ele>
        <time>2020-09-12T10:27:04.000Z</time>
      </trkpt>
      <trkpt lat="47.36765" lon="-1.39472">
        <ele>111</ele>
        <time>2020-09-12T10:27:06.000Z</time>
      </trkpt>
      <trkpt lat="47.36765" lon="-1.39455">
        <ele>111</ele>
        <time>2020-09-12T10:27:08.000Z</time>
      </trkpt>
      <trkpt lat="47.36765" lon="-1.39439">
        <ele>111</ele>
        <time>2020-09-12T10:27:10.000Z</time>
      </trkpt>
      <trkpt lat="47.36766" lon="-1.39422">
        <ele>111</ele>
        <time>2020-09-12T10:27:12.000Z</time>
      </trkpt>
      <trkpt lat="47.36766" lon="-1.39406">
        <ele>111</ele>
        <time>2020-09-12T10:27:14.000Z</time>
      </trkpt>
      <trkpt lat="47.36765" lon="-1.39389">
        <ele>111</ele>
        <time>2020-09-12T10:27:16.000Z</time>
      </trkpt>
      <trkpt lat="47.36766" lon="-1.39374">
        <ele>111</ele>
        <time>2020-09-12T10:27:18.000Z</time>
      </trkpt>
      <trkpt lat="47.36765" lon="-1.39358">
        <ele>111</ele>
        <time>2020-09-12T10:27:20.000Z</time>
      </trkpt>
      <trkpt lat="47.36764" lon="-1.39342">
        <ele>111</ele>
        <time>2020-09-12T10:27:22.000Z</time>
      </trkpt>
      <trkpt lat="47.36762" lon="-1.39325">
        <ele>111</ele>
        <time>2020-09-12T10:27:24.000Z</time>
      </trkpt>
      <trkpt lat="47.36759" lon="-1.39308">
        <ele>112</ele>
        <time>2020-09-12T10:27:26.000Z</time>
      </trkpt>
      <trkpt lat="47.36756" lon="-1.39292">
        <ele>112</ele>
        <time>2020-09-12T10:27:28.000Z</time>
      </trkpt>
      <trkpt lat="47.36751" lon="-1.39277">
        <ele>112</ele>
        <time>2020-09-12T10:27:30.000Z</time>
      </trkpt>
      <trkpt lat="47.36746" lon="-1.39261">
        <ele>113</ele>
        <time>2020-09-12T10:27:32.000Z</time>
      </trkpt>
      <trkpt lat="47.3674" lon="-1.39246">
        <ele>113</ele>
        <time>2020-09-12T10:27:34.000Z</time>
      </trkpt>
      <trkpt lat="47.36733" lon="-1.39232">
        <ele>113</ele>
        <time>2020-09-12T10:27:36.000Z</time>
      </trkpt>
      <trkpt lat="47.36726" lon="-1.39217">
        <ele>114</ele>
        <time>2020-09-12T10:27:38.000Z</time>
      </trkpt>
      <trkpt lat="47.36718" lon="-1.39201">
        <ele>114</ele>
        <time>2020-09-12T10:27:40.000Z</time>
      </trkpt>
      <trkpt lat="47.36711" lon="-1.39187">
        <ele>114</ele>
        <time>2020-09-12T10:27:42.000Z</time>
      </trkpt>
      <trkpt lat="47.36704" lon="-1.39171">
        <ele>115</ele>
        <time>2020-09-12T10:27:44.000Z</time>
      </trkpt>
      <trkpt lat="47.36697" lon="-1.39157">
        <ele>115</ele>
        <time>2020-09-12T10:27:46.000Z</time>
      </trkpt>
      <trkpt lat="47.36689" lon="-1.39141">
        <ele>116</ele>
        <time>2020-09-12T10:27:48.000Z</time>
      </trkpt>
      <trkpt lat="47.36682" lon="-1.39126">
        <ele>115</ele>
        <time>2020-09-12T10:27:50.000Z</time>
      </trkpt>
      <trkpt lat="47.36674" lon="-1.3911">
        <ele>115</ele>
        <time>2020-09-12T10:27:52.000Z</time>
      </trkpt>
      <trkpt lat="47.36667" lon="-1.39095">
        <ele>115</ele>
        <time>2020-09-12T10:27:54.000Z</time>
      </trkpt>
      <trkpt lat="47.3666" lon="-1.39079">
        <ele>116</ele>
        <time>2020-09-12T10:27:56.000Z</time>
      </trkpt>
      <trkpt lat="47.36652" lon="-1.39064">
        <ele>116</ele>
        <time>2020-09-12T10:27:58.000Z</time>
      </trkpt>
      <trkpt lat="47.36646" lon="-1.39049">
        <ele>117</ele>
        <time>2020-09-12T10:28:00.000Z</time>
      </trkpt>
      <trkpt lat="47.36639" lon="-1.39034">
        <ele>116</ele>
        <time>2020-09-12T10:28:02.000Z</time>
      </trkpt>
      <trkpt lat="47.36631" lon="-1.39018">
        <ele>116</ele>
        <time>2020-09-12T10:28:04.000Z</time>
      </trkpt>
      <trkpt lat="47.36623" lon="-1.39002">
        <ele>116</ele>
        <time>2020-09-12T10:28:06.000Z</time>
      </trkpt>
      <trkpt lat="47.36616" lon="-1.38987">
        <ele>117</ele>
        <time>2020-09-12T10:28:08.000Z</time>
      </trkpt>
      <trkpt lat="47.36608" lon="-1.38972">
        <ele>117</ele>
        <time>2020-09-12T10:28:10.000Z</time>
      </trkpt>
      <trkpt lat="47.36601" lon="-1.38956">
        <ele>117</ele>
        <time>2020-09-12T10:28:12.000Z</time>
      </trkpt>
      <trkpt lat="47.36594" lon="-1.38942">
        <ele>117</ele>
        <time>2020-09-12T10:28:14.000Z</time>
      </trkpt>
      <trkpt lat="47.36586" lon="-1.38927">
        <ele>117</ele>
        <time>2020-09-12T10:28:16.000Z</time>
      </trkpt>
      <trkpt lat="47.36579" lon="-1.38912">
        <ele>117</ele>
        <time>2020-09-12T10:28:18.000Z</time>
      </trkpt>
      <trkpt lat="47.36571" lon="-1.38896">
        <ele>117</ele>
        <time>2020-09-12T10:28:20.000Z</time>
      </trkpt>
      <trkpt lat="47.36564" lon="-1.3888">
        <ele>117</ele>
        <time>2020-09-12T10:28:22.000Z</time>
      </trkpt>
      <trkpt lat="47.36557" lon="-1.38865">
        <ele>117</ele>
        <time>2020-09-12T10:28:24.000Z</time>
      </trkpt>
      <trkpt lat="47.36549" lon="-1.38849">
        <ele>117</ele>
        <time>2020-09-12T10:28:26.000Z</time>
      </trkpt>
      <trkpt lat="47.36542" lon="-1.38833">
        <ele>117</ele>
        <time>2020-09-12T10:28:28.000Z</time>
      </trkpt>
      <trkpt lat="47.36534" lon="-1.38817">
        <ele>117</ele>
        <time>2020-09-12T10:28:30.000Z</time>
      </trkpt>
      <trkpt lat="47.36527" lon="-1.38802">
        <ele>118</ele>
        <time>2020-09-12T10:28:32.000Z</time>
      </trkpt>
      <trkpt lat="47.36519" lon="-1.38787">
        <ele>118</ele>
        <time>2020-09-12T10:28:34.000Z</time>
      </trkpt>
      <trkpt lat="47.36512" lon="-1.38771">
        <ele>119</ele>
        <time>2020-09-12T10:28:36.000Z</time>
      </trkpt>
      <trkpt lat="47.36505" lon="-1.38756">
        <ele>119</ele>
        <time>2020-09-12T10:28:38.000Z</time>
      </trkpt>
      <trkpt lat="47.36497" lon="-1.38741">
        <ele>119</ele>
        <time>2020-09-12T10:28:40.000Z</time>
      </trkpt>
      <trkpt lat="47.3649" lon="-1.38725">
        <ele>119</ele>
        <time>2020-09-12T10:28:42.000Z</time>
      </trkpt>
      <trkpt lat="47.36483" lon="-1.3871">
        <ele>119</ele>
        <time>2020-09-12T10:28:44.000Z</time>
      </trkpt>
      <trkpt lat="47.36475" lon="-1.38695">
        <ele>119</ele>
        <time>2020-09-12T10:28:46.000Z</time>
      </trkpt>
      <trkpt lat="47.36468" lon="-1.3868">
        <ele>120</ele>
        <time>2020-09-12T10:28:48.000Z</time>
      </trkpt>
      <trkpt lat="47.3646" lon="-1.38664">
        <ele>121</ele>
        <time>2020-09-12T10:28:50.000Z</time>
      </trkpt>
      <trkpt lat="47.36453" lon="-1.38648">
        <ele>121</ele>
        <time>2020-09-12T10:28:52.000Z</time>
      </trkpt>
      <trkpt lat="47.36446" lon="-1.38632">
        <ele>120</ele>
        <time>2020-09-12T10:28:54.000Z</time>
      </trkpt>
      <trkpt lat="47.36439" lon="-1.38616">
        <ele>120</ele>
        <time>2020-09-12T10:28:56.000Z</time>
      </trkpt>
      <trkpt lat="47.36432" lon="-1.386">
        <ele>120</ele>
        <time>2020-09-12T10:28:58.000Z</time>
      </trkpt>
      <trkpt lat="47.36424" lon="-1.38585">
        <ele>120</ele>
        <time>2020-09-12T10:29:00.000Z</time>
      </trkpt>
      <trkpt lat="47.36417" lon="-1.3857">
        <ele>119</ele>
        <time>2020-09-12T10:29:02.000Z</time>
      </trkpt>
      <trkpt lat="47.36409" lon="-1.38555">
        <ele>119</ele>
        <time>2020-09-12T10:29:04.000Z</time>
      </trkpt>
      <trkpt lat="47.364" lon="-1.38541">
        <ele>119</ele>
        <time>2020-09-12T10:29:06.000Z</time>
      </trkpt>
      <trkpt lat="47.36391" lon="-1.38528">
        <ele>119</ele>
        <time>2020-09-12T10:29:08.000Z</time>
      </trkpt>
      <trkpt lat="47.36382" lon="-1.38514">
        <ele>119</ele>
        <time>2020-09-12T10:29:10.000Z</time>
      </trkpt>
      <trkpt lat="47.36372" lon="-1.385">
        <ele>119</ele>
        <time>2020-09-12T10:29:12.000Z</time>
      </trkpt>
      <trkpt lat="47.36363" lon="-1.38487">
        <ele>118</ele>
        <time>2020-09-12T10:29:14.000Z</time>
      </trkpt>
      <trkpt lat="47.36354" lon="-1.38473">
        <ele>118</ele>
        <time>2020-09-12T10:29:16.000Z</time>
      </trkpt>
      <trkpt lat="47.36345" lon="-1.3846">
        <ele>118</ele>
        <time>2020-09-12T10:29:18.000Z</time>
      </trkpt>
      <trkpt lat="47.36336" lon="-1.38447">
        <ele>118</ele>
        <time>2020-09-12T10:29:20.000Z</time>
      </trkpt>
      <trkpt lat="47.36327" lon="-1.38432">
        <ele>117</ele>
        <time>2020-09-12T10:29:22.000Z</time>
      </trkpt>
      <trkpt lat="47.36318" lon="-1.38419">
        <ele>117</ele>
        <time>2020-09-12T10:29:24.000Z</time>
      </trkpt>
      <trkpt lat="47.36308" lon="-1.38405">
        <ele>117</ele>
        <time>2020-09-12T10:29:26.000Z</time>
      </trkpt>
      <trkpt lat="47.36299" lon="-1.3839">
        <ele>117</ele>
        <time>2020-09-12T10:29:28.000Z</time>
      </trkpt>
      <trkpt lat="47.3629" lon="-1.38376">
        <ele>117</ele>
        <time>2020-09-12T10:29:30.000Z</time>
      </trkpt>
      <trkpt lat="47.36281" lon="-1.38362">
        <ele>117</ele>
        <time>2020-09-12T10:29:32.000Z</time>
      </trkpt>
      <trkpt lat="47.36272" lon="-1.38348">
        <ele>117</ele>
        <time>2020-09-12T10:29:34.000Z</time>
      </trkpt>
      <trkpt lat="47.36262" lon="-1.38334">
        <ele>117</ele>
        <time>2020-09-12T10:29:36.000Z</time>
      </trkpt>
      <trkpt lat="47.36252" lon="-1.3832">
        <ele>117</ele>
        <time>2020-09-12T10:29:38.000Z</time>
      </trkpt>
      <trkpt lat="47.36242" lon="-1.38305">
        <ele>116</ele>
        <time>2020-09-12T10:29:40.000Z</time>
      </trkpt>
      <trkpt lat="47.36233" lon="-1.38291">
        <ele>116</ele>
        <time>2020-09-12T10:29:42.000Z</time>
      </trkpt>
      <trkpt lat="47.36224" lon="-1.38276">
        <ele>116</ele>
        <time>2020-09-12T10:29:44.000Z</time>
      </trkpt>
      <trkpt lat="47.36214" lon="-1.38262">
        <ele>116</ele>
        <time>2020-09-12T10:29:46.000Z</time>
      </trkpt>
      <trkpt lat="47.36204" lon="-1.38248">
        <ele>117</ele>
        <time>2020-09-12T10:29:48.000Z</time>
      </trkpt>
      <trkpt lat="47.36194" lon="-1.38233">
        <ele>117</ele>
        <time>2020-09-12T10:29:50.000Z</time>
      </trkpt>
      <trkpt lat="47.36185" lon="-1.38219">
        <ele>117</ele>
        <time>2020-09-12T10:29:52.000Z</time>
      </trkpt>
      <trkpt lat="47.36175" lon="-1.38205">
        <ele>118</ele>
        <time>2020-09-12T10:29:54.000Z</time>
      </trkpt>
      <trkpt lat="47.36166" lon="-1.3819">
        <ele>118</ele>
        <time>2020-09-12T10:29:56.000Z</time>
      </trkpt>
      <trkpt lat="47.36156" lon="-1.38175">
        <ele>118</ele>
        <time>2020-09-12T10:29:58.000Z</time>
      </trkpt>
      <trkpt lat="47.36147" lon="-1.38161">
        <ele>118</ele>
        <time>2020-09-12T10:30:00.000Z</time>
      </trkpt>
      <trkpt lat="47.36137" lon="-1.38148">
        <ele>119</ele>
        <time>2020-09-12T10:30:02.000Z</time>
      </trkpt>
      <trkpt lat="47.36128" lon="-1.38134">
        <ele>119</ele>
        <time>2020-09-12T10:30:04.000Z</time>
      </trkpt>
      <trkpt lat="47.36119" lon="-1.3812">
        <ele>119</ele>
        <time>2020-09-12T10:30:06.000Z</time>
      </trkpt>
      <trkpt lat="47.3611" lon="-1.38107">
        <ele>119</ele>
        <time>2020-09-12T10:30:08.000Z</time>
      </trkpt>
      <trkpt lat="47.36101" lon="-1.38094">
        <ele>119</ele>
        <time>2020-09-12T10:30:10.000Z</time>
      </trkpt>
      <trkpt lat="47.36093" lon="-1.38081">
        <ele>119</ele>
        <time>2020-09-12T10:30:12.000Z</time>
      </trkpt>
      <trkpt lat="47.36084" lon="-1.38068">
        <ele>119</ele>
        <time>2020-09-12T10:30:14.000Z</time>
      </trkpt>
      <trkpt lat="47.36075" lon="-1.38056">
        <ele>119</ele>
        <time>2020-09-12T10:30:16.000Z</time>
      </trkpt>
      <trkpt lat="47.36067" lon="-1.38044">
        <ele>119</ele>
        <time>2020-09-12T10:30:18.000Z</time>
      </trkpt>
      <trkpt lat="47.36059" lon="-1.38031">
        <ele>120</ele>
        <time>2020-09-12T10:30:20.000Z</time>
      </trkpt>
      <trkpt lat="47.36051" lon="-1.38018">
        <ele>120</ele>
        <time>2020-09-12T10:30:22.000Z</time>
      </trkpt>
      <trkpt lat="47.36042" lon="-1.38005">
        <ele>120</ele>
        <time>2020-09-12T10:30:24.000Z</time>
      </trkpt>
      <trkpt lat="47.36034" lon="-1.37992">
        <ele>120</ele>
        <time>2020-09-12T10:30:26.000Z</time>
      </trkpt>
      <trkpt lat="47.36025" lon="-1.37979">
        <ele>120</ele>
        <time>2020-09-12T10:30:28.000Z</time>
      </trkpt>
      <trkpt lat="47.36017" lon="-1.37967">
        <ele>120</ele>
        <time>2020-09-12T10:30:30.000Z</time>
      </trkpt>
      <trkpt lat="47.36008" lon="-1.37953">
        <ele>120</ele>
        <time>2020-09-12T10:30:32.000Z</time>
      </trkpt>
      <trkpt lat="47.35999" lon="-1.37941">
        <ele>121</ele>
        <time>2020-09-12T10:30:34.000Z</time>
      </trkpt>
      <trkpt lat="47.35991" lon="-1.37927">
        <ele>121</ele>
        <time>2020-09-12T10:30:36.000Z</time>
      </trkpt>
      <trkpt lat="47.35982" lon="-1.37914">
        <ele>121</ele>
        <time>2020-09-12T10:30:38.000Z</time>
      </trkpt>
      <trkpt lat="47.35974" lon="-1.37901">
        <ele>121</ele>
        <time>2020-09-12T10:30:40.000Z</time>
      </trkpt>
      <trkpt lat="47.35965" lon="-1.37888">
        <ele>121</ele>
        <time>2020-09-12T10:30:42.000Z</time>
      </trkpt>
      <trkpt lat="47.35957" lon="-1.37875">
        <ele>121</ele>
        <time>2020-09-12T10:30:44.000Z</time>
      </trkpt>
      <trkpt lat="47.35949" lon="-1.37863">
        <ele>121</ele>
        <time>2020-09-12T10:30:46.000Z</time>
      </trkpt>
      <trkpt lat="47.3594" lon="-1.3785">
        <ele>121</ele>
        <time>2020-09-12T10:30:48.000Z</time>
      </trkpt>
      <trkpt lat="47.35932" lon="-1.37838">
        <ele>121</ele>
        <time>2020-09-12T10:30:50.000Z</time>
      </trkpt>
      <trkpt lat="47.35923" lon="-1.37826">
        <ele>122</ele>
        <time>2020-09-12T10:30:52.000Z</time>
      </trkpt>
      <trkpt lat="47.35915" lon="-1.37812">
        <ele>122</ele>
        <time>2020-09-12T10:30:54.000Z</time>
      </trkpt>
      <trkpt lat="47.35906" lon="-1.37799">
        <ele>123</ele>
        <time>2020-09-12T10:30:56.000Z</time>
      </trkpt>
      <trkpt lat="47.35897" lon="-1.37786">
        <ele>123</ele>
        <time>2020-09-12T10:30:58.000Z</time>
      </trkpt>
      <trkpt lat="47.35888" lon="-1.37773">
        <ele>124</ele>
        <time>2020-09-12T10:31:00.000Z</time>
      </trkpt>
      <trkpt lat="47.3588" lon="-1.3776">
        <ele>124</ele>
        <time>2020-09-12T10:31:02.000Z</time>
      </trkpt>
      <trkpt lat="47.35871" lon="-1.37747">
        <ele>125</ele>
        <time>2020-09-12T10:31:04.000Z</time>
      </trkpt>
      <trkpt lat="47.35863" lon="-1.37734">
        <ele>125</ele>
        <time>2020-09-12T10:31:06.000Z</time>
      </trkpt>
      <trkpt lat="47.35854" lon="-1.37721">
        <ele>125</ele>
        <time>2020-09-12T10:31:08.000Z</time>
      </trkpt>
      <trkpt lat="47.35845" lon="-1.37708">
        <ele>125</ele>
        <time>2020-09-12T10:31:10.000Z</time>
      </trkpt>
      <trkpt lat="47.35835" lon="-1.37695">
        <ele>126</ele>
        <time>2020-09-12T10:31:12.000Z</time>
      </trkpt>
      <trkpt lat="47.35826" lon="-1.37682">
        <ele>126</ele>
        <time>2020-09-12T10:31:14.000Z</time>
      </trkpt>
      <trkpt lat="47.35818" lon="-1.37669">
        <ele>126</ele>
        <time>2020-09-12T10:31:16.000Z</time>
      </trkpt>
      <trkpt lat="47.35809" lon="-1.37657">
        <ele>127</ele>
        <time>2020-09-12T10:31:18.000Z</time>
      </trkpt>
      <trkpt lat="47.35799" lon="-1.37644">
        <ele>127</ele>
        <time>2020-09-12T10:31:20.000Z</time>
      </trkpt>
      <trkpt lat="47.35791" lon="-1.37631">
        <ele>128</ele>
        <time>2020-09-12T10:31:22.000Z</time>
      </trkpt>
      <trkpt lat="47.35782" lon="-1.37618">
        <ele>128</ele>
        <time>2020-09-12T10:31:24.000Z</time>
      </trkpt>
      <trkpt lat="47.35774" lon="-1.37605">
        <ele>128</ele>
        <time>2020-09-12T10:31:26.000Z</time>
      </trkpt>
      <trkpt lat="47.35765" lon="-1.37591">
        <ele>129</ele>
        <time>2020-09-12T10:31:28.000Z</time>
      </trkpt>
      <trkpt lat="47.35756" lon="-1.37578">
        <ele>129</ele>
        <time>2020-09-12T10:31:30.000Z</time>
      </trkpt>
      <trkpt lat="47.35747" lon="-1.37564">
        <ele>129</ele>
        <time>2020-09-12T10:31:32.000Z</time>
      </trkpt>
      <trkpt lat="47.35739" lon="-1.37551">
        <ele>129</ele>
        <time>2020-09-12T10:31:34.000Z</time>
      </trkpt>
      <trkpt lat="47.3573" lon="-1.37538">
        <ele>129</ele>
        <time>2020-09-12T10:31:36.000Z</time>
      </trkpt>
      <trkpt lat="47.35722" lon="-1.37525">
        <ele>129</ele>
        <time>2020-09-12T10:31:38.000Z</time>
      </trkpt>
      <trkpt lat="47.35713" lon="-1.37512">
        <ele>129</ele>
        <time>2020-09-12T10:31:40.000Z</time>
      </trkpt>
      <trkpt lat="47.35704" lon="-1.37499">
        <ele>128</ele>
        <time>2020-09-12T10:31:42.000Z</time>
      </trkpt>
      <trkpt lat="47.35695" lon="-1.37486">
        <ele>128</ele>
        <time>2020-09-12T10:31:44.000Z</time>
      </trkpt>
      <trkpt lat="47.35686" lon="-1.37472">
        <ele>128</ele>
        <time>2020-09-12T10:31:46.000Z</time>
      </trkpt>
      <trkpt lat="47.35677" lon="-1.37459">
        <ele>128</ele>
        <time>2020-09-12T10:31:48.000Z</time>
      </trkpt>
      <trkpt lat="47.35669" lon="-1.37446">
        <ele>128</ele>
        <time>2020-09-12T10:31:50.000Z</time>
      </trkpt>
      <trkpt lat="47.3566" lon="-1.37433">
        <ele>129</ele>
        <time>2020-09-12T10:31:52.000Z</time>
      </trkpt>
      <trkpt lat="47.35651" lon="-1.37419">
        <ele>129</ele>
        <time>2020-09-12T10:31:54.000Z</time>
      </trkpt>
      <trkpt lat="47.35642" lon="-1.37406">
        <ele>129</ele>
        <time>2020-09-12T10:31:56.000Z</time>
      </trkpt>
      <trkpt lat="47.35633" lon="-1.37392">
        <ele>129</ele>
        <time>2020-09-12T10:31:58.000Z</time>
      </trkpt>
      <trkpt lat="47.35625" lon="-1.37379">
        <ele>129</ele>
        <time>2020-09-12T10:32:00.000Z</time>
      </trkpt>
      <trkpt lat="47.35616" lon="-1.37366">
        <ele>128</ele>
        <time>2020-09-12T10:32:02.000Z</time>
      </trkpt>
      <trkpt lat="47.35607" lon="-1.37353">
        <ele>128</ele>
        <time>2020-09-12T10:32:04.000Z</time>
      </trkpt>
      <trkpt lat="47.35598" lon="-1.37339">
        <ele>129</ele>
        <time>2020-09-12T10:32:06.000Z</time>
      </trkpt>
      <trkpt lat="47.35589" lon="-1.37325">
        <ele>128</ele>
        <time>2020-09-12T10:32:08.000Z</time>
      </trkpt>
      <trkpt lat="47.35579" lon="-1.37311">
        <ele>128</ele>
        <time>2020-09-12T10:32:10.000Z</time>
      </trkpt>
      <trkpt lat="47.3557" lon="-1.37297">
        <ele>129</ele>
        <time>2020-09-12T10:32:12.000Z</time>
      </trkpt>
      <trkpt lat="47.3556" lon="-1.37283">
        <ele>129</ele>
        <time>2020-09-12T10:32:14.000Z</time>
      </trkpt>
      <trkpt lat="47.3555" lon="-1.37269">
        <ele>129</ele>
        <time>2020-09-12T10:32:16.000Z</time>
      </trkpt>
      <trkpt lat="47.3554" lon="-1.37255">
        <ele>129</ele>
        <time>2020-09-12T10:32:18.000Z</time>
      </trkpt>
      <trkpt lat="47.35531" lon="-1.3724">
        <ele>129</ele>
        <time>2020-09-12T10:32:20.000Z</time>
      </trkpt>
      <trkpt lat="47.35521" lon="-1.37226">
        <ele>129</ele>
        <time>2020-09-12T10:32:22.000Z</time>
      </trkpt>
      <trkpt lat="47.35511" lon="-1.37212">
        <ele>129</ele>
        <time>2020-09-12T10:32:24.000Z</time>
      </trkpt>
      <trkpt lat="47.35502" lon="-1.37198">
        <ele>130</ele>
        <time>2020-09-12T10:32:26.000Z</time>
      </trkpt>
      <trkpt lat="47.35493" lon="-1.37186">
        <ele>130</ele>
        <time>2020-09-12T10:32:28.000Z</time>
      </trkpt>
      <trkpt lat="47.35485" lon="-1.37173">
        <ele>130</ele>
        <time>2020-09-12T10:32:30.000Z</time>
      </trkpt>
      <trkpt lat="47.35477" lon="-1.37162">
        <ele>130</ele>
        <time>2020-09-12T10:32:32.000Z</time>
      </trkpt>
      <trkpt lat="47.35468" lon="-1.3715">
        <ele>131</ele>
        <time>2020-09-12T10:32:34.000Z</time>
      </trkpt>
      <trkpt lat="47.35459" lon="-1.37136">
        <ele>132</ele>
        <time>2020-09-12T10:32:36.000Z</time>
      </trkpt>
      <trkpt lat="47.35449" lon="-1.37121">
        <ele>132</ele>
        <time>2020-09-12T10:32:38.000Z</time>
      </trkpt>
      <trkpt lat="47.35439" lon="-1.37106">
        <ele>133</ele>
        <time>2020-09-12T10:32:40.000Z</time>
      </trkpt>
      <trkpt lat="47.35429" lon="-1.37091">
        <ele>133</ele>
        <time>2020-09-12T10:32:42.000Z</time>
      </trkpt>
      <trkpt lat="47.3542" lon="-1.37076">
        <ele>132</ele>
        <time>2020-09-12T10:32:44.000Z</time>
      </trkpt>
      <trkpt lat="47.35411" lon="-1.37061">
        <ele>133</ele>
        <time>2020-09-12T10:32:46.000Z</time>
      </trkpt>
      <trkpt lat="47.35402" lon="-1.37048">
        <ele>133</ele>
        <time>2020-09-12T10:32:48.000Z</time>
      </trkpt>
      <trkpt lat="47.35393" lon="-1.37034">
        <ele>133</ele>
        <time>2020-09-12T10:32:50.000Z</time>
      </trkpt>
      <trkpt lat="47.35384" lon="-1.37018">
        <ele>132</ele>
        <time>2020-09-12T10:32:52.000Z</time>
      </trkpt>
      <trkpt lat="47.35375" lon="-1.37004">
        <ele>132</ele>
        <time>2020-09-12T10:32:54.000Z</time>
      </trkpt>
      <trkpt lat="47.35367" lon="-1.3699">
        <ele>131</ele>
        <time>2020-09-12T10:32:56.000Z</time>
      </trkpt>
      <trkpt lat="47.35358" lon="-1.36976">
        <ele>131</ele>
        <time>2020-09-12T10:32:58.000Z</time>
      </trkpt>
      <trkpt lat="47.35349" lon="-1.36962">
        <ele>131</ele>
        <time>2020-09-12T10:33:00.000Z</time>
      </trkpt>
      <trkpt lat="47.3534" lon="-1.36948">
        <ele>131</ele>
        <time>2020-09-12T10:33:02.000Z</time>
      </trkpt>
      <trkpt lat="47.35331" lon="-1.36934">
        <ele>130</ele>
        <time>2020-09-12T10:33:04.000Z</time>
      </trkpt>
      <trkpt lat="47.35322" lon="-1.3692">
        <ele>130</ele>
        <time>2020-09-12T10:33:06.000Z</time>
      </trkpt>
      <trkpt lat="47.35313" lon="-1.36907">
        <ele>130</ele>
        <time>2020-09-12T10:33:08.000Z</time>
      </trkpt>
      <trkpt lat="47.35304" lon="-1.36893">
        <ele>130</ele>
        <time>2020-09-12T10:33:10.000Z</time>
      </trkpt>
      <trkpt lat="47.35296" lon="-1.36879">
        <ele>130</ele>
        <time>2020-09-12T10:33:12.000Z</time>
      </trkpt>
      <trkpt lat="47.35287" lon="-1.36865">
        <ele>130</ele>
        <time>2020-09-12T10:33:14.000Z</time>
      </trkpt>
      <trkpt lat="47.35278" lon="-1.36852">
        <ele>130</ele>
        <time>2020-09-12T10:33:16.000Z</time>
      </trkpt>
      <trkpt lat="47.35269" lon="-1.36838">
        <ele>130</ele>
        <time>2020-09-12T10:33:18.000Z</time>
      </trkpt>
      <trkpt lat="47.3526" lon="-1.36825">
        <ele>130</ele>
        <time>2020-09-12T10:33:20.000Z</time>
      </trkpt>
      <trkpt lat="47.35251" lon="-1.36812">
        <ele>131</ele>
        <time>2020-09-12T10:33:22.000Z</time>
      </trkpt>
      <trkpt lat="47.35241" lon="-1.36798">
        <ele>130</ele>
        <time>2020-09-12T10:33:24.000Z</time>
      </trkpt>
      <trkpt lat="47.35232" lon="-1.36784">
        <ele>130</ele>
        <time>2020-09-12T10:33:26.000Z</time>
      </trkpt>
      <trkpt lat="47.35223" lon="-1.3677">
        <ele>130</ele>
        <time>2020-09-12T10:33:28.000Z</time>
      </trkpt>
      <trkpt lat="47.35213" lon="-1.36756">
        <ele>130</ele>
        <time>2020-09-12T10:33:30.000Z</time>
      </trkpt>
      <trkpt lat="47.35204" lon="-1.36742">
        <ele>130</ele>
        <time>2020-09-12T10:33:32.000Z</time>
      </trkpt>
      <trkpt lat="47.35195" lon="-1.36728">
        <ele>130</ele>
        <time>2020-09-12T10:33:34.000Z</time>
      </trkpt>
      <trkpt lat="47.35186" lon="-1.36714">
        <ele>130</ele>
        <time>2020-09-12T10:33:36.000Z</time>
      </trkpt>
      <trkpt lat="47.35177" lon="-1.36701">
        <ele>130</ele>
        <time>2020-09-12T10:33:38.000Z</time>
      </trkpt>
      <trkpt lat="47.35167" lon="-1.36688">
        <ele>131</ele>
        <time>2020-09-12T10:33:40.000Z</time>
      </trkpt>
      <trkpt lat="47.35158" lon="-1.36674">
        <ele>131</ele>
        <time>2020-09-12T10:33:42.000Z</time>
      </trkpt>
      <trkpt lat="47.35148" lon="-1.3666">
        <ele>132</ele>
        <time>2020-09-12T10:33:44.000Z</time>
      </trkpt>
      <trkpt lat="47.35139" lon="-1.36646">
        <ele>132</ele>
        <time>2020-09-12T10:33:46.000Z</time>
      </trkpt>
      <trkpt lat="47.3513" lon="-1.36633">
        <ele>132</ele>
        <time>2020-09-12T10:33:48.000Z</time>
      </trkpt>
      <trkpt lat="47.35121" lon="-1.36619">
        <ele>133</ele>
        <time>2020-09-12T10:33:50.000Z</time>
      </trkpt>
      <trkpt lat="47.35112" lon="-1.36606">
        <ele>133</ele>
        <time>2020-09-12T10:33:52.000Z</time>
      </trkpt>
      <trkpt lat="47.35103" lon="-1.36594">
        <ele>133</ele>
        <time>2020-09-12T10:33:54.000Z</time>
      </trkpt>
      <trkpt lat="47.35094" lon="-1.3658">
        <ele>134</ele>
        <time>2020-09-12T10:33:56.000Z</time>
      </trkpt>
      <trkpt lat="47.35084" lon="-1.36566">
        <ele>134</ele>
        <time>2020-09-12T10:33:58.000Z</time>
      </trkpt>
      <trkpt lat="47.35075" lon="-1.36551">
        <ele>134</ele>
        <time>2020-09-12T10:34:00.000Z</time>
      </trkpt>
      <trkpt lat="47.35066" lon="-1.36537">
        <ele>134</ele>
        <time>2020-09-12T10:34:02.000Z</time>
      </trkpt>
      <trkpt lat="47.35057" lon="-1.36522">
        <ele>134</ele>
        <time>2020-09-12T10:34:04.000Z</time>
      </trkpt>
      <trkpt lat="47.35048" lon="-1.36507">
        <ele>134</ele>
        <time>2020-09-12T10:34:06.000Z</time>
      </trkpt>
      <trkpt lat="47.35039" lon="-1.36492">
        <ele>133</ele>
        <time>2020-09-12T10:34:08.000Z</time>
      </trkpt>
      <trkpt lat="47.35029" lon="-1.36477">
        <ele>133</ele>
        <time>2020-09-12T10:34:10.000Z</time>
      </trkpt>
      <trkpt lat="47.3502" lon="-1.36462">
        <ele>132</ele>
        <time>2020-09-12T10:34:12.000Z</time>
      </trkpt>
      <trkpt lat="47.3501" lon="-1.36449">
        <ele>132</ele>
        <time>2020-09-12T10:34:14.000Z</time>
      </trkpt>
      <trkpt lat="47.35" lon="-1.36436">
        <ele>133</ele>
        <time>2020-09-12T10:34:16.000Z</time>
      </trkpt>
      <trkpt lat="47.34989" lon="-1.36423">
        <ele>132</ele>
        <time>2020-09-12T10:34:18.000Z</time>
      </trkpt>
      <trkpt lat="47.34978" lon="-1.36409">
        <ele>132</ele>
        <time>2020-09-12T10:34:20.000Z</time>
      </trkpt>
      <trkpt lat="47.34967" lon="-1.36395">
        <ele>132</ele>
        <time>2020-09-12T10:34:22.000Z</time>
      </trkpt>
      <trkpt lat="47.34955" lon="-1.36381">
        <ele>132</ele>
        <time>2020-09-12T10:34:24.000Z</time>
      </trkpt>
      <trkpt lat="47.34944" lon="-1.36367">
        <ele>132</ele>
        <time>2020-09-12T10:34:26.000Z</time>
      </trkpt>
      <trkpt lat="47.34933" lon="-1.36353">
        <ele>132</ele>
        <time>2020-09-12T10:34:28.000Z</time>
      </trkpt>
      <trkpt lat="47.34921" lon="-1.36339">
        <ele>132</ele>
        <time>2020-09-12T10:34:30.000Z</time>
      </trkpt>
      <trkpt lat="47.34911" lon="-1.36324">
        <ele>131</ele>
        <time>2020-09-12T10:34:32.000Z</time>
      </trkpt>
      <trkpt lat="47.349" lon="-1.36309">
        <ele>131</ele>
        <time>2020-09-12T10:34:34.000Z</time>
      </trkpt>
      <trkpt lat="47.3489" lon="-1.36293">
        <ele>131</ele>
        <time>2020-09-12T10:34:36.000Z</time>
      </trkpt>
      <trkpt lat="47.34881" lon="-1.36277">
        <ele>131</ele>
        <time>2020-09-12T10:34:38.000Z</time>
      </trkpt>
      <trkpt lat="47.34871" lon="-1.36262">
        <ele>131</ele>
        <time>2020-09-12T10:34:40.000Z</time>
      </trkpt>
      <trkpt lat="47.34861" lon="-1.36246">
        <ele>130</ele>
        <time>2020-09-12T10:34:42.000Z</time>
      </trkpt>
      <trkpt lat="47.34853" lon="-1.36231">
        <ele>130</ele>
        <time>2020-09-12T10:34:44.000Z</time>
      </trkpt>
      <trkpt lat="47.34844" lon="-1.36217">
        <ele>130</ele>
        <time>2020-09-12T10:34:46.000Z</time>
      </trkpt>
      <trkpt lat="47.34834" lon="-1.36203">
        <ele>130</ele>
        <time>2020-09-12T10:34:48.000Z</time>
      </trkpt>
      <trkpt lat="47.34826" lon="-1.3619">
        <ele>130</ele>
        <time>2020-09-12T10:34:50.000Z</time>
      </trkpt>
      <trkpt lat="47.34817" lon="-1.36177">
        <ele>130</ele>
        <time>2020-09-12T10:34:52.000Z</time>
      </trkpt>
      <trkpt lat="47.34809" lon="-1.36164">
        <ele>131</ele>
        <time>2020-09-12T10:34:54.000Z</time>
      </trkpt>
      <trkpt lat="47.348" lon="-1.36151">
        <ele>131</ele>
        <time>2020-09-12T10:34:56.000Z</time>
      </trkpt>
      <trkpt lat="47.34791" lon="-1.36139">
        <ele>131</ele>
        <time>2020-09-12T10:34:58.000Z</time>
      </trkpt>
      <trkpt lat="47.34781" lon="-1.36127">
        <ele>131</ele>
        <time>2020-09-12T10:35:00.000Z</time>
      </trkpt>
      <trkpt lat="47.34771" lon="-1.36114">
        <ele>131</ele>
        <time>2020-09-12T10:35:02.000Z</time>
      </trkpt>
      <trkpt lat="47.34761" lon="-1.36103">
        <ele>131</ele>
        <time>2020-09-12T10:35:04.000Z</time>
      </trkpt>
      <trkpt lat="47.34751" lon="-1.36091">
        <ele>131</ele>
        <time>2020-09-12T10:35:06.000Z</time>
      </trkpt>
      <trkpt lat="47.34741" lon="-1.36079">
        <ele>131</ele>
        <time>2020-09-12T10:35:08.000Z</time>
      </trkpt>
      <trkpt lat="47.34731" lon="-1.36067">
        <ele>131</ele>
        <time>2020-09-12T10:35:10.000Z</time>
      </trkpt>
      <trkpt lat="47.3472" lon="-1.36054">
        <ele>131</ele>
        <time>2020-09-12T10:35:12.000Z</time>
      </trkpt>
      <trkpt lat="47.34709" lon="-1.36042">
        <ele>131</ele>
        <time>2020-09-12T10:35:14.000Z</time>
      </trkpt>
      <trkpt lat="47.34697" lon="-1.36028">
        <ele>130</ele>
        <time>2020-09-12T10:35:16.000Z</time>
      </trkpt>
      <trkpt lat="47.34686" lon="-1.36014">
        <ele>130</ele>
        <time>2020-09-12T10:35:18.000Z</time>
      </trkpt>
      <trkpt lat="47.34673" lon="-1.36001">
        <ele>129</ele>
        <time>2020-09-12T10:35:20.000Z</time>
      </trkpt>
      <trkpt lat="47.3466" lon="-1.35987">
        <ele>129</ele>
        <time>2020-09-12T10:35:22.000Z</time>
      </trkpt>
      <trkpt lat="47.34648" lon="-1.35973">
        <ele>128</ele>
        <time>2020-09-12T10:35:24.000Z</time>
      </trkpt>
      <trkpt lat="47.34635" lon="-1.35959">
        <ele>128</ele>
        <time>2020-09-12T10:35:26.000Z</time>
      </trkpt>
      <trkpt lat="47.34622" lon="-1.35945">
        <ele>127</ele>
        <time>2020-09-12T10:35:28.000Z</time>
      </trkpt>
      <trkpt lat="47.3461" lon="-1.35932">
        <ele>127</ele>
        <time>2020-09-12T10:35:30.000Z</time>
      </trkpt>
      <trkpt lat="47.34599" lon="-1.35918">
        <ele>127</ele>
        <time>2020-09-12T10:35:32.000Z</time>
      </trkpt>
      <trkpt lat="47.34588" lon="-1.35905">
        <ele>127</ele>
        <time>2020-09-12T10:35:34.000Z</time>
      </trkpt>
      <trkpt lat="47.34577" lon="-1.35891">
        <ele>127</ele>
        <time>2020-09-12T10:35:36.000Z</time>
      </trkpt>
      <trkpt lat="47.34567" lon="-1.35878">
        <ele>127</ele>
        <time>2020-09-12T10:35:38.000Z</time>
      </trkpt>
      <trkpt lat="47.34557" lon="-1.35864">
        <ele>128</ele>
        <time>2020-09-12T10:35:40.000Z</time>
      </trkpt>
      <trkpt lat="47.34548" lon="-1.35849">
        <ele>128</ele>
        <time>2020-09-12T10:35:42.000Z</time>
      </trkpt>
      <trkpt lat="47.34539" lon="-1.35833">
        <ele>128</ele>
        <time>2020-09-12T10:35:44.000Z</time>
      </trkpt>
      <trkpt lat="47.3453" lon="-1.35818">
        <ele>128</ele>
        <time>2020-09-12T10:35:46.000Z</time>
      </trkpt>
      <trkpt lat="47.3452" lon="-1.35803">
        <ele>128</ele>
        <time>2020-09-12T10:35:48.000Z</time>
      </trkpt>
      <trkpt lat="47.34511" lon="-1.35787">
        <ele>129</ele>
        <time>2020-09-12T10:35:50.000Z</time>
      </trkpt>
      <trkpt lat="47.34502" lon="-1.35772">
        <ele>129</ele>
        <time>2020-09-12T10:35:52.000Z</time>
      </trkpt>
      <trkpt lat="47.34492" lon="-1.35755">
        <ele>129</ele>
        <time>2020-09-12T10:35:54.000Z</time>
      </trkpt>
      <trkpt lat="47.34483" lon="-1.35739">
        <ele>129</ele>
        <time>2020-09-12T10:35:56.000Z</time>
      </trkpt>
      <trkpt lat="47.34474" lon="-1.35722">
        <ele>129</ele>
        <time>2020-09-12T10:35:58.000Z</time>
      </trkpt>
      <trkpt lat="47.34466" lon="-1.35706">
        <ele>129</ele>
        <time>2020-09-12T10:36:00.000Z</time>
      </trkpt>
      <trkpt lat="47.34457" lon="-1.35691">
        <ele>129</ele>
        <time>2020-09-12T10:36:02.000Z</time>
      </trkpt>
      <trkpt lat="47.34447" lon="-1.35676">
        <ele>129</ele>
        <time>2020-09-12T10:36:04.000Z</time>
      </trkpt>
      <trkpt lat="47.34437" lon="-1.35663">
        <ele>130</ele>
        <time>2020-09-12T10:36:06.000Z</time>
      </trkpt>
      <trkpt lat="47.34428" lon="-1.35649">
        <ele>130</ele>
        <time>2020-09-12T10:36:08.000Z</time>
      </trkpt>
      <trkpt lat="47.34419" lon="-1.35634">
        <ele>130</ele>
        <time>2020-09-12T10:36:10.000Z</time>
      </trkpt>
      <trkpt lat="47.3441" lon="-1.35618">
        <ele>130</ele>
        <time>2020-09-12T10:36:12.000Z</time>
      </trkpt>
      <trkpt lat="47.34401" lon="-1.35601">
        <ele>130</ele>
        <time>2020-09-12T10:36:14.000Z</time>
      </trkpt>
      <trkpt lat="47.34392" lon="-1.35585">
        <ele>131</ele>
        <time>2020-09-12T10:36:16.000Z</time>
      </trkpt>
      <trkpt lat="47.34383" lon="-1.35569">
        <ele>131</ele>
        <time>2020-09-12T10:36:18.000Z</time>
      </trkpt>
      <trkpt lat="47.34374" lon="-1.35554">
        <ele>131</ele>
        <time>2020-09-12T10:36:20.000Z</time>
      </trkpt>
      <trkpt lat="47.34365" lon="-1.35538">
        <ele>131</ele>
        <time>2020-09-12T10:36:22.000Z</time>
      </trkpt>
      <trkpt lat="47.34356" lon="-1.35523">
        <ele>132</ele>
        <time>2020-09-12T10:36:24.000Z</time>
      </trkpt>
      <trkpt lat="47.34347" lon="-1.35508">
        <ele>132</ele>
        <time>2020-09-12T10:36:26.000Z</time>
      </trkpt>
      <trkpt lat="47.34338" lon="-1.35492">
        <ele>132</ele>
        <time>2020-09-12T10:36:28.000Z</time>
      </trkpt>
      <trkpt lat="47.3433" lon="-1.35476">
        <ele>132</ele>
        <time>2020-09-12T10:36:30.000Z</time>
      </trkpt>
      <trkpt lat="47.34321" lon="-1.35461">
        <ele>132</ele>
        <time>2020-09-12T10:36:32.000Z</time>
      </trkpt>
      <trkpt lat="47.34312" lon="-1.35445">
        <ele>132</ele>
        <time>2020-09-12T10:36:34.000Z</time>
      </trkpt>
      <trkpt lat="47.34304" lon="-1.3543">
        <ele>132</ele>
        <time>2020-09-12T10:36:36.000Z</time>
      </trkpt>
      <trkpt lat="47.34295" lon="-1.35416">
        <ele>133</ele>
        <time>2020-09-12T10:36:38.000Z</time>
      </trkpt>
      <trkpt lat="47.34286" lon="-1.35403">
        <ele>133</ele>
        <time>2020-09-12T10:36:40.000Z</time>
      </trkpt>
      <trkpt lat="47.34277" lon="-1.35388">
        <ele>133</ele>
        <time>2020-09-12T10:36:42.000Z</time>
      </trkpt>
      <trkpt lat="47.34269" lon="-1.35373">
        <ele>133</ele>
        <time>2020-09-12T10:36:44.000Z</time>
      </trkpt>
      <trkpt lat="47.3426" lon="-1.35358">
        <ele>133</ele>
        <time>2020-09-12T10:36:46.000Z</time>
      </trkpt>
      <trkpt lat="47.34251" lon="-1.35343">
        <ele>133</ele>
        <time>2020-09-12T10:36:48.000Z</time>
      </trkpt>
      <trkpt lat="47.34242" lon="-1.35328">
        <ele>134</ele>
        <time>2020-09-12T10:36:50.000Z</time>
      </trkpt>
      <trkpt lat="47.34234" lon="-1.35313">
        <ele>133</ele>
        <time>2020-09-12T10:36:52.000Z</time>
      </trkpt>
      <trkpt lat="47.34225" lon="-1.35298">
        <ele>133</ele>
        <time>2020-09-12T10:36:54.000Z</time>
      </trkpt>
      <trkpt lat="47.34216" lon="-1.35284">
        <ele>133</ele>
        <time>2020-09-12T10:36:56.000Z</time>
      </trkpt>
      <trkpt lat="47.34208" lon="-1.35269">
        <ele>133</ele>
        <time>2020-09-12T10:36:58.000Z</time>
      </trkpt>
      <trkpt lat="47.34198" lon="-1.35254">
        <ele>133</ele>
        <time>2020-09-12T10:37:00.000Z</time>
      </trkpt>
      <trkpt lat="47.3419" lon="-1.3524">
        <ele>133</ele>
        <time>2020-09-12T10:37:02.000Z</time>
      </trkpt>
      <trkpt lat="47.34182" lon="-1.35226">
        <ele>133</ele>
        <time>2020-09-12T10:37:04.000Z</time>
      </trkpt>
      <trkpt lat="47.34173" lon="-1.35213">
        <ele>133</ele>
        <time>2020-09-12T10:37:06.000Z</time>
      </trkpt>
      <trkpt lat="47.34165" lon="-1.35198">
        <ele>132</ele>
        <time>2020-09-12T10:37:08.000Z</time>
      </trkpt>
      <trkpt lat="47.34156" lon="-1.35184">
        <ele>132</ele>
        <time>2020-09-12T10:37:10.000Z</time>
      </trkpt>
      <trkpt lat="47.34147" lon="-1.35168">
        <ele>132</ele>
        <time>2020-09-12T10:37:12.000Z</time>
      </trkpt>
      <trkpt lat="47.34138" lon="-1.35152">
        <ele>132</ele>
        <time>2020-09-12T10:37:14.000Z</time>
      </trkpt>
      <trkpt lat="47.34129" lon="-1.35137">
        <ele>132</ele>
        <time>2020-09-12T10:37:16.000Z</time>
      </trkpt>
      <trkpt lat="47.3412" lon="-1.35121">
        <ele>132</ele>
        <time>2020-09-12T10:37:18.000Z</time>
      </trkpt>
      <trkpt lat="47.34111" lon="-1.35106">
        <ele>132</ele>
        <time>2020-09-12T10:37:20.000Z</time>
      </trkpt>
      <trkpt lat="47.34101" lon="-1.3509">
        <ele>131</ele>
        <time>2020-09-12T10:37:22.000Z</time>
      </trkpt>
      <trkpt lat="47.34092" lon="-1.35075">
        <ele>131</ele>
        <time>2020-09-12T10:37:24.000Z</time>
      </trkpt>
      <trkpt lat="47.34083" lon="-1.35061">
        <ele>131</ele>
        <time>2020-09-12T10:37:26.000Z</time>
      </trkpt>
      <trkpt lat="47.34074" lon="-1.35046">
        <ele>131</ele>
        <time>2020-09-12T10:37:28.000Z</time>
      </trkpt>
      <trkpt lat="47.34065" lon="-1.35031">
        <ele>131</ele>
        <time>2020-09-12T10:37:30.000Z</time>
      </trkpt>
      <trkpt lat="47.34057" lon="-1.35016">
        <ele>131</ele>
        <time>2020-09-12T10:37:32.000Z</time>
      </trkpt>
      <trkpt lat="47.34048" lon="-1.35002">
        <ele>132</ele>
        <time>2020-09-12T10:37:34.000Z</time>
      </trkpt>
      <trkpt lat="47.34039" lon="-1.34988">
        <ele>132</ele>
        <time>2020-09-12T10:37:36.000Z</time>
      </trkpt>
      <trkpt lat="47.34029" lon="-1.34975">
        <ele>131</ele>
        <time>2020-09-12T10:37:38.000Z</time>
      </trkpt>
      <trkpt lat="47.34021" lon="-1.34965">
        <ele>131</ele>
        <time>2020-09-12T10:37:40.000Z</time>
      </trkpt>
      <trkpt lat="47.34011" lon="-1.34962">
        <ele>132</ele>
        <time>2020-09-12T10:37:46.000Z</time>
      </trkpt>
      <trkpt lat="47.34" lon="-1.34958">
        <ele>131</ele>
        <time>2020-09-12T10:37:49.000Z</time>
      </trkpt>
      <trkpt lat="47.3399" lon="-1.34947">
        <ele>131</ele>
        <time>2020-09-12T10:37:51.000Z</time>
      </trkpt>
      <trkpt lat="47.33984" lon="-1.34929">
        <ele>130</ele>
        <time>2020-09-12T10:37:53.000Z</time>
      </trkpt>
      <trkpt lat="47.33975" lon="-1.34914">
        <ele>129</ele>
        <time>2020-09-12T10:37:55.000Z</time>
      </trkpt>
      <trkpt lat="47.33964" lon="-1.34901">
        <ele>129</ele>
        <time>2020-09-12T10:37:57.000Z</time>
      </trkpt>
      <trkpt lat="47.33952" lon="-1.34889">
        <ele>129</ele>
        <time>2020-09-12T10:37:59.000Z</time>
      </trkpt>
      <trkpt lat="47.3394" lon="-1.34877">
        <ele>129</ele>
        <time>2020-09-12T10:38:01.000Z</time>
      </trkpt>
      <trkpt lat="47.33927" lon="-1.34865">
        <ele>129</ele>
        <time>2020-09-12T10:38:03.000Z</time>
      </trkpt>
      <trkpt lat="47.33916" lon="-1.34854">
        <ele>129</ele>
        <time>2020-09-12T10:38:05.000Z</time>
      </trkpt>
      <trkpt lat="47.33904" lon="-1.34841">
        <ele>128</ele>
        <time>2020-09-12T10:38:07.000Z</time>
      </trkpt>
      <trkpt lat="47.33893" lon="-1.34829">
        <ele>128</ele>
        <time>2020-09-12T10:38:09.000Z</time>
      </trkpt>
      <trkpt lat="47.33883" lon="-1.34815">
        <ele>128</ele>
        <time>2020-09-12T10:38:11.000Z</time>
      </trkpt>
      <trkpt lat="47.33872" lon="-1.34801">
        <ele>128</ele>
        <time>2020-09-12T10:38:13.000Z</time>
      </trkpt>
      <trkpt lat="47.33862" lon="-1.34786">
        <ele>128</ele>
        <time>2020-09-12T10:38:15.000Z</time>
      </trkpt>
      <trkpt lat="47.33852" lon="-1.34772">
        <ele>128</ele>
        <time>2020-09-12T10:38:17.000Z</time>
      </trkpt>
      <trkpt lat="47.33841" lon="-1.34758">
        <ele>129</ele>
        <time>2020-09-12T10:38:19.000Z</time>
      </trkpt>
      <trkpt lat="47.3383" lon="-1.34744">
        <ele>128</ele>
        <time>2020-09-12T10:38:21.000Z</time>
      </trkpt>
      <trkpt lat="47.3382" lon="-1.34729">
        <ele>129</ele>
        <time>2020-09-12T10:38:23.000Z</time>
      </trkpt>
      <trkpt lat="47.3381" lon="-1.34715">
        <ele>129</ele>
        <time>2020-09-12T10:38:25.000Z</time>
      </trkpt>
      <trkpt lat="47.338" lon="-1.34701">
        <ele>128</ele>
        <time>2020-09-12T10:38:27.000Z</time>
      </trkpt>
      <trkpt lat="47.33789" lon="-1.34687">
        <ele>128</ele>
        <time>2020-09-12T10:38:29.000Z</time>
      </trkpt>
      <trkpt lat="47.33779" lon="-1.34673">
        <ele>129</ele>
        <time>2020-09-12T10:38:31.000Z</time>
      </trkpt>
      <trkpt lat="47.33769" lon="-1.34659">
        <ele>129</ele>
        <time>2020-09-12T10:38:33.000Z</time>
      </trkpt>
      <trkpt lat="47.33759" lon="-1.34645">
        <ele>129</ele>
        <time>2020-09-12T10:38:35.000Z</time>
      </trkpt>
      <trkpt lat="47.33749" lon="-1.34632">
        <ele>129</ele>
        <time>2020-09-12T10:38:37.000Z</time>
      </trkpt>
      <trkpt lat="47.33739" lon="-1.34618">
        <ele>129</ele>
        <time>2020-09-12T10:38:39.000Z</time>
      </trkpt>
      <trkpt lat="47.33729" lon="-1.34605">
        <ele>129</ele>
        <time>2020-09-12T10:38:41.000Z</time>
      </trkpt>
      <trkpt lat="47.3372" lon="-1.34592">
        <ele>128</ele>
        <time>2020-09-12T10:38:43.000Z</time>
      </trkpt>
      <trkpt lat="47.3371" lon="-1.34579">
        <ele>128</ele>
        <time>2020-09-12T10:38:45.000Z</time>
      </trkpt>
      <trkpt lat="47.337" lon="-1.34565">
        <ele>129</ele>
        <time>2020-09-12T10:38:47.000Z</time>
      </trkpt>
      <trkpt lat="47.3369" lon="-1.34552">
        <ele>129</ele>
        <time>2020-09-12T10:38:49.000Z</time>
      </trkpt>
      <trkpt lat="47.33679" lon="-1.34537">
        <ele>129</ele>
        <time>2020-09-12T10:38:51.000Z</time>
      </trkpt>
      <trkpt lat="47.33669" lon="-1.34524">
        <ele>129</ele>
        <time>2020-09-12T10:38:53.000Z</time>
      </trkpt>
      <trkpt lat="47.3366" lon="-1.3451">
        <ele>128</ele>
        <time>2020-09-12T10:38:55.000Z</time>
      </trkpt>
      <trkpt lat="47.3365" lon="-1.34496">
        <ele>128</ele>
        <time>2020-09-12T10:38:57.000Z</time>
      </trkpt>
      <trkpt lat="47.33639" lon="-1.34482">
        <ele>127</ele>
        <time>2020-09-12T10:38:59.000Z</time>
      </trkpt>
      <trkpt lat="47.33628" lon="-1.3447">
        <ele>127</ele>
        <time>2020-09-12T10:39:01.000Z</time>
      </trkpt>
      <trkpt lat="47.33615" lon="-1.34461">
        <ele>127</ele>
        <time>2020-09-12T10:39:03.000Z</time>
      </trkpt>
      <trkpt lat="47.33601" lon="-1.34454">
        <ele>126</ele>
        <time>2020-09-12T10:39:05.000Z</time>
      </trkpt>
      <trkpt lat="47.33588" lon="-1.34447">
        <ele>126</ele>
        <time>2020-09-12T10:39:07.000Z</time>
      </trkpt>
      <trkpt lat="47.33574" lon="-1.3444">
        <ele>126</ele>
        <time>2020-09-12T10:39:09.000Z</time>
      </trkpt>
      <trkpt lat="47.3356" lon="-1.34434">
        <ele>126</ele>
        <time>2020-09-12T10:39:11.000Z</time>
      </trkpt>
      <trkpt lat="47.33546" lon="-1.34427">
        <ele>126</ele>
        <time>2020-09-12T10:39:13.000Z</time>
      </trkpt>
      <trkpt lat="47.33532" lon="-1.3442">
        <ele>126</ele>
        <time>2020-09-12T10:39:15.000Z</time>
      </trkpt>
      <trkpt lat="47.33519" lon="-1.34413">
        <ele>126</ele>
        <time>2020-09-12T10:39:17.000Z</time>
      </trkpt>
      <trkpt lat="47.33505" lon="-1.34407">
        <ele>126</ele>
        <time>2020-09-12T10:39:19.000Z</time>
      </trkpt>
      <trkpt lat="47.3349" lon="-1.344">
        <ele>125</ele>
        <time>2020-09-12T10:39:21.000Z</time>
      </trkpt>
      <trkpt lat="47.33476" lon="-1.34393">
        <ele>125</ele>
        <time>2020-09-12T10:39:23.000Z</time>
      </trkpt>
      <trkpt lat="47.33462" lon="-1.34386">
        <ele>125</ele>
        <time>2020-09-12T10:39:25.000Z</time>
      </trkpt>
      <trkpt lat="47.33447" lon="-1.34379">
        <ele>126</ele>
        <time>2020-09-12T10:39:27.000Z</time>
      </trkpt>
      <trkpt lat="47.33432" lon="-1.34372">
        <ele>125</ele>
        <time>2020-09-12T10:39:29.000Z</time>
      </trkpt>
      <trkpt lat="47.33417" lon="-1.34364">
        <ele>125</ele>
        <time>2020-09-12T10:39:31.000Z</time>
      </trkpt>
      <trkpt lat="47.33403" lon="-1.34358">
        <ele>125</ele>
        <time>2020-09-12T10:39:33.000Z</time>
      </trkpt>
      <trkpt lat="47.33389" lon="-1.3435">
        <ele>124</ele>
        <time>2020-09-12T10:39:35.000Z</time>
      </trkpt>
      <trkpt lat="47.33374" lon="-1.34344">
        <ele>124</ele>
        <time>2020-09-12T10:39:37.000Z</time>
      </trkpt>
      <trkpt lat="47.33359" lon="-1.34336">
        <ele>124</ele>
        <time>2020-09-12T10:39:39.000Z</time>
      </trkpt>
      <trkpt lat="47.33345" lon="-1.34329">
        <ele>124</ele>
        <time>2020-09-12T10:39:41.000Z</time>
      </trkpt>
      <trkpt lat="47.3333" lon="-1.34322">
        <ele>124</ele>
        <time>2020-09-12T10:39:43.000Z</time>
      </trkpt>
      <trkpt lat="47.33316" lon="-1.34316">
        <ele>123</ele>
        <time>2020-09-12T10:39:45.000Z</time>
      </trkpt>
      <trkpt lat="47.33301" lon="-1.34312">
        <ele>123</ele>
        <time>2020-09-12T10:39:47.000Z</time>
      </trkpt>
      <trkpt lat="47.33286" lon="-1.34308">
        <ele>123</ele>
        <time>2020-09-12T10:39:49.000Z</time>
      </trkpt>
      <trkpt lat="47.33271" lon="-1.34306">
        <ele>123</ele>
        <time>2020-09-12T10:39:51.000Z</time>
      </trkpt>
      <trkpt lat="47.33257" lon="-1.34304">
        <ele>123</ele>
        <time>2020-09-12T10:39:53.000Z</time>
      </trkpt>
      <trkpt lat="47.33242" lon="-1.34302">
        <ele>123</ele>
        <time>2020-09-12T10:39:55.000Z</time>
      </trkpt>
      <trkpt lat="47.33226" lon="-1.343">
        <ele>123</ele>
        <time>2020-09-12T10:39:57.000Z</time>
      </trkpt>
      <trkpt lat="47.33211" lon="-1.34298">
        <ele>123</ele>
        <time>2020-09-12T10:39:59.000Z</time>
      </trkpt>
      <trkpt lat="47.33195" lon="-1.34295">
        <ele>123</ele>
        <time>2020-09-12T10:40:01.000Z</time>
      </trkpt>
      <trkpt lat="47.3318" lon="-1.34292">
        <ele>122</ele>
        <time>2020-09-12T10:40:03.000Z</time>
      </trkpt>
      <trkpt lat="47.33165" lon="-1.34288">
        <ele>121</ele>
        <time>2020-09-12T10:40:05.000Z</time>
      </trkpt>
      <trkpt lat="47.3315" lon="-1.34282">
        <ele>120</ele>
        <time>2020-09-12T10:40:07.000Z</time>
      </trkpt>
      <trkpt lat="47.33137" lon="-1.34274">
        <ele>120</ele>
        <time>2020-09-12T10:40:09.000Z</time>
      </trkpt>
      <trkpt lat="47.33122" lon="-1.34264">
        <ele>119</ele>
        <time>2020-09-12T10:40:11.000Z</time>
      </trkpt>
      <trkpt lat="47.33108" lon="-1.34255">
        <ele>119</ele>
        <time>2020-09-12T10:40:13.000Z</time>
      </trkpt>
      <trkpt lat="47.33094" lon="-1.34245">
        <ele>119</ele>
        <time>2020-09-12T10:40:15.000Z</time>
      </trkpt>
      <trkpt lat="47.33079" lon="-1.34235">
        <ele>118</ele>
        <time>2020-09-12T10:40:17.000Z</time>
      </trkpt>
      <trkpt lat="47.33065" lon="-1.34225">
        <ele>117</ele>
        <time>2020-09-12T10:40:19.000Z</time>
      </trkpt>
      <trkpt lat="47.3305" lon="-1.34215">
        <ele>117</ele>
        <time>2020-09-12T10:40:21.000Z</time>
      </trkpt>
      <trkpt lat="47.33035" lon="-1.34206">
        <ele>116</ele>
        <time>2020-09-12T10:40:23.000Z</time>
      </trkpt>
      <trkpt lat="47.3302" lon="-1.34196">
        <ele>115</ele>
        <time>2020-09-12T10:40:25.000Z</time>
      </trkpt>
      <trkpt lat="47.33006" lon="-1.34185">
        <ele>115</ele>
        <time>2020-09-12T10:40:27.000Z</time>
      </trkpt>
      <trkpt lat="47.3299" lon="-1.34174">
        <ele>114</ele>
        <time>2020-09-12T10:40:29.000Z</time>
      </trkpt>
      <trkpt lat="47.32974" lon="-1.34161">
        <ele>114</ele>
        <time>2020-09-12T10:40:31.000Z</time>
      </trkpt>
      <trkpt lat="47.32961" lon="-1.34144">
        <ele>113</ele>
        <time>2020-09-12T10:40:33.000Z</time>
      </trkpt>
      <trkpt lat="47.32955" lon="-1.34134">
        <ele>113</ele>
        <time>2020-09-12T10:40:34.000Z</time>
      </trkpt>
      <trkpt lat="47.3295" lon="-1.34123">
        <ele>113</ele>
        <time>2020-09-12T10:40:35.000Z</time>
      </trkpt>
      <trkpt lat="47.32945" lon="-1.34111">
        <ele>112</ele>
        <time>2020-09-12T10:40:36.000Z</time>
      </trkpt>
      <trkpt lat="47.32941" lon="-1.34099">
        <ele>112</ele>
        <time>2020-09-12T10:40:37.000Z</time>
      </trkpt>
      <trkpt lat="47.32936" lon="-1.34074">
        <ele>112</ele>
        <time>2020-09-12T10:40:39.000Z</time>
      </trkpt>
      <trkpt lat="47.32936" lon="-1.34049">
        <ele>111</ele>
        <time>2020-09-12T10:40:41.000Z</time>
      </trkpt>
      <trkpt lat="47.32941" lon="-1.34024">
        <ele>110</ele>
        <time>2020-09-12T10:40:43.000Z</time>
      </trkpt>
      <trkpt lat="47.32948" lon="-1.34001">
        <ele>109</ele>
        <time>2020-09-12T10:40:45.000Z</time>
      </trkpt>
      <trkpt lat="47.32956" lon="-1.33979">
        <ele>109</ele>
        <time>2020-09-12T10:40:47.000Z</time>
      </trkpt>
      <trkpt lat="47.32964" lon="-1.33957">
        <ele>108</ele>
        <time>2020-09-12T10:40:49.000Z</time>
      </trkpt>
      <trkpt lat="47.32972" lon="-1.33937">
        <ele>107</ele>
        <time>2020-09-12T10:40:51.000Z</time>
      </trkpt>
      <trkpt lat="47.3298" lon="-1.33916">
        <ele>106</ele>
        <time>2020-09-12T10:40:53.000Z</time>
      </trkpt>
      <trkpt lat="47.32988" lon="-1.33897">
        <ele>107</ele>
        <time>2020-09-12T10:40:55.000Z</time>
      </trkpt>
      <trkpt lat="47.32996" lon="-1.33884">
        <ele>107</ele>
        <time>2020-09-12T10:40:57.000Z</time>
      </trkpt>
      <trkpt lat="47.33004" lon="-1.33876">
        <ele>107</ele>
        <time>2020-09-12T10:40:59.000Z</time>
      </trkpt>
      <trkpt lat="47.33011" lon="-1.33867">
        <ele>106</ele>
        <time>2020-09-12T10:41:01.000Z</time>
      </trkpt>
      <trkpt lat="47.33019" lon="-1.33859">
        <ele>106</ele>
        <time>2020-09-12T10:41:04.000Z</time>
      </trkpt>
      <trkpt lat="47.3301" lon="-1.33857">
        <ele>105</ele>
        <time>2020-09-12T10:42:20.000Z</time>
      </trkpt>
      <trkpt lat="47.33009" lon="-1.33843">
        <ele>104</ele>
        <time>2020-09-12T10:42:23.000Z</time>
      </trkpt>
      <trkpt lat="47.33011" lon="-1.33823">
        <ele>103</ele>
        <time>2020-09-12T10:42:26.000Z</time>
      </trkpt>
      <trkpt lat="47.33016" lon="-1.33806">
        <ele>103</ele>
        <time>2020-09-12T10:42:28.000Z</time>
      </trkpt>
      <trkpt lat="47.33023" lon="-1.33788">
        <ele>102</ele>
        <time>2020-09-12T10:42:30.000Z</time>
      </trkpt>
      <trkpt lat="47.33031" lon="-1.3377">
        <ele>102</ele>
        <time>2020-09-12T10:42:32.000Z</time>
      </trkpt>
      <trkpt lat="47.3304" lon="-1.33753">
        <ele>102</ele>
        <time>2020-09-12T10:42:34.000Z</time>
      </trkpt>
      <trkpt lat="47.33051" lon="-1.33736">
        <ele>101</ele>
        <time>2020-09-12T10:42:36.000Z</time>
      </trkpt>
      <trkpt lat="47.33061" lon="-1.33718">
        <ele>100</ele>
        <time>2020-09-12T10:42:38.000Z</time>
      </trkpt>
      <trkpt lat="47.33071" lon="-1.33697">
        <ele>98</ele>
        <time>2020-09-12T10:42:40.000Z</time>
      </trkpt>
      <trkpt lat="47.3308" lon="-1.33676">
        <ele>97</ele>
        <time>2020-09-12T10:42:42.000Z</time>
      </trkpt>
      <trkpt lat="47.33087" lon="-1.33652">
        <ele>97</ele>
        <time>2020-09-12T10:42:44.000Z</time>
      </trkpt>
      <trkpt lat="47.3309" lon="-1.33639">
        <ele>96</ele>
        <time>2020-09-12T10:42:45.000Z</time>
      </trkpt>
      <trkpt lat="47.33093" lon="-1.33627">
        <ele>96</ele>
        <time>2020-09-12T10:42:46.000Z</time>
      </trkpt>
      <trkpt lat="47.33097" lon="-1.33614">
        <ele>96</ele>
        <time>2020-09-12T10:42:47.000Z</time>
      </trkpt>
      <trkpt lat="47.33104" lon="-1.3359">
        <ele>94</ele>
        <time>2020-09-12T10:42:49.000Z</time>
      </trkpt>
      <trkpt lat="47.33111" lon="-1.33566">
        <ele>93</ele>
        <time>2020-09-12T10:42:51.000Z</time>
      </trkpt>
      <trkpt lat="47.33114" lon="-1.33552">
        <ele>93</ele>
        <time>2020-09-12T10:42:52.000Z</time>
      </trkpt>
      <trkpt lat="47.33116" lon="-1.33538">
        <ele>92</ele>
        <time>2020-09-12T10:42:53.000Z</time>
      </trkpt>
      <trkpt lat="47.33117" lon="-1.33523">
        <ele>92</ele>
        <time>2020-09-12T10:42:54.000Z</time>
      </trkpt>
      <trkpt lat="47.33116" lon="-1.33509">
        <ele>91</ele>
        <time>2020-09-12T10:42:55.000Z</time>
      </trkpt>
      <trkpt lat="47.33114" lon="-1.33494">
        <ele>91</ele>
        <time>2020-09-12T10:42:56.000Z</time>
      </trkpt>
      <trkpt lat="47.3311" lon="-1.33481">
        <ele>91</ele>
        <time>2020-09-12T10:42:57.000Z</time>
      </trkpt>
      <trkpt lat="47.33105" lon="-1.33469">
        <ele>91</ele>
        <time>2020-09-12T10:42:58.000Z</time>
      </trkpt>
      <trkpt lat="47.33099" lon="-1.33458">
        <ele>91</ele>
        <time>2020-09-12T10:42:59.000Z</time>
      </trkpt>
      <trkpt lat="47.33092" lon="-1.33449">
        <ele>90</ele>
        <time>2020-09-12T10:43:00.000Z</time>
      </trkpt>
      <trkpt lat="47.33085" lon="-1.3344">
        <ele>89</ele>
        <time>2020-09-12T10:43:01.000Z</time>
      </trkpt>
      <trkpt lat="47.33077" lon="-1.33432">
        <ele>89</ele>
        <time>2020-09-12T10:43:02.000Z</time>
      </trkpt>
      <trkpt lat="47.33068" lon="-1.33424">
        <ele>90</ele>
        <time>2020-09-12T10:43:03.000Z</time>
      </trkpt>
      <trkpt lat="47.33061" lon="-1.33416">
        <ele>90</ele>
        <time>2020-09-12T10:43:04.000Z</time>
      </trkpt>
      <trkpt lat="47.33053" lon="-1.33409">
        <ele>89</ele>
        <time>2020-09-12T10:43:05.000Z</time>
      </trkpt>
      <trkpt lat="47.33045" lon="-1.334">
        <ele>89</ele>
        <time>2020-09-12T10:43:06.000Z</time>
      </trkpt>
      <trkpt lat="47.33037" lon="-1.33392">
        <ele>88</ele>
        <time>2020-09-12T10:43:07.000Z</time>
      </trkpt>
      <trkpt lat="47.3303" lon="-1.33384">
        <ele>88</ele>
        <time>2020-09-12T10:43:08.000Z</time>
      </trkpt>
      <trkpt lat="47.33016" lon="-1.33368">
        <ele>87</ele>
        <time>2020-09-12T10:43:10.000Z</time>
      </trkpt>
      <trkpt lat="47.33008" lon="-1.33359">
        <ele>87</ele>
        <time>2020-09-12T10:43:11.000Z</time>
      </trkpt>
      <trkpt lat="47.33001" lon="-1.33351">
        <ele>87</ele>
        <time>2020-09-12T10:43:12.000Z</time>
      </trkpt>
      <trkpt lat="47.32993" lon="-1.33342">
        <ele>88</ele>
        <time>2020-09-12T10:43:13.000Z</time>
      </trkpt>
      <trkpt lat="47.32985" lon="-1.33333">
        <ele>87</ele>
        <time>2020-09-12T10:43:14.000Z</time>
      </trkpt>
      <trkpt lat="47.32977" lon="-1.33323">
        <ele>87</ele>
        <time>2020-09-12T10:43:15.000Z</time>
      </trkpt>
      <trkpt lat="47.32969" lon="-1.33314">
        <ele>86</ele>
        <time>2020-09-12T10:43:16.000Z</time>
      </trkpt>
      <trkpt lat="47.32962" lon="-1.33305">
        <ele>86</ele>
        <time>2020-09-12T10:43:17.000Z</time>
      </trkpt>
      <trkpt lat="47.32954" lon="-1.33296">
        <ele>85</ele>
        <time>2020-09-12T10:43:18.000Z</time>
      </trkpt>
      <trkpt lat="47.32946" lon="-1.33287">
        <ele>85</ele>
        <time>2020-09-12T10:43:19.000Z</time>
      </trkpt>
      <trkpt lat="47.32938" lon="-1.33278">
        <ele>85</ele>
        <time>2020-09-12T10:43:20.000Z</time>
      </trkpt>
      <trkpt lat="47.32929" lon="-1.33269">
        <ele>85</ele>
        <time>2020-09-12T10:43:21.000Z</time>
      </trkpt>
      <trkpt lat="47.3292" lon="-1.33259">
        <ele>85</ele>
        <time>2020-09-12T10:43:22.000Z</time>
      </trkpt>
      <trkpt lat="47.32911" lon="-1.3325">
        <ele>84</ele>
        <time>2020-09-12T10:43:23.000Z</time>
      </trkpt>
      <trkpt lat="47.32902" lon="-1.3324">
        <ele>84</ele>
        <time>2020-09-12T10:43:24.000Z</time>
      </trkpt>
      <trkpt lat="47.32893" lon="-1.33232">
        <ele>84</ele>
        <time>2020-09-12T10:43:25.000Z</time>
      </trkpt>
      <trkpt lat="47.32883" lon="-1.33224">
        <ele>83</ele>
        <time>2020-09-12T10:43:26.000Z</time>
      </trkpt>
      <trkpt lat="47.32874" lon="-1.33216">
        <ele>83</ele>
        <time>2020-09-12T10:43:27.000Z</time>
      </trkpt>
      <trkpt lat="47.32865" lon="-1.33208">
        <ele>82</ele>
        <time>2020-09-12T10:43:28.000Z</time>
      </trkpt>
      <trkpt lat="47.32855" lon="-1.332">
        <ele>82</ele>
        <time>2020-09-12T10:43:29.000Z</time>
      </trkpt>
      <trkpt lat="47.32846" lon="-1.33192">
        <ele>81</ele>
        <time>2020-09-12T10:43:30.000Z</time>
      </trkpt>
      <trkpt lat="47.32836" lon="-1.33183">
        <ele>80</ele>
        <time>2020-09-12T10:43:31.000Z</time>
      </trkpt>
      <trkpt lat="47.32827" lon="-1.33174">
        <ele>79</ele>
        <time>2020-09-12T10:43:32.000Z</time>
      </trkpt>
      <trkpt lat="47.32817" lon="-1.33166">
        <ele>79</ele>
        <time>2020-09-12T10:43:33.000Z</time>
      </trkpt>
      <trkpt lat="47.32809" lon="-1.33157">
        <ele>78</ele>
        <time>2020-09-12T10:43:34.000Z</time>
      </trkpt>
      <trkpt lat="47.32799" lon="-1.33149">
        <ele>78</ele>
        <time>2020-09-12T10:43:35.000Z</time>
      </trkpt>
      <trkpt lat="47.3279" lon="-1.33141">
        <ele>77</ele>
        <time>2020-09-12T10:43:36.000Z</time>
      </trkpt>
      <trkpt lat="47.32781" lon="-1.33133">
        <ele>76</ele>
        <time>2020-09-12T10:43:37.000Z</time>
      </trkpt>
      <trkpt lat="47.32771" lon="-1.33125">
        <ele>75</ele>
        <time>2020-09-12T10:43:38.000Z</time>
      </trkpt>
      <trkpt lat="47.32762" lon="-1.33117">
        <ele>75</ele>
        <time>2020-09-12T10:43:39.000Z</time>
      </trkpt>
      <trkpt lat="47.32753" lon="-1.33107">
        <ele>74</ele>
        <time>2020-09-12T10:43:40.000Z</time>
      </trkpt>
      <trkpt lat="47.32745" lon="-1.33098">
        <ele>73</ele>
        <time>2020-09-12T10:43:41.000Z</time>
      </trkpt>
      <trkpt lat="47.32736" lon="-1.33088">
        <ele>72</ele>
        <time>2020-09-12T10:43:42.000Z</time>
      </trkpt>
      <trkpt lat="47.32728" lon="-1.33079">
        <ele>72</ele>
        <time>2020-09-12T10:43:43.000Z</time>
      </trkpt>
      <trkpt lat="47.3272" lon="-1.33071">
        <ele>72</ele>
        <time>2020-09-12T10:43:44.000Z</time>
      </trkpt>
      <trkpt lat="47.32712" lon="-1.33062">
        <ele>72</ele>
        <time>2020-09-12T10:43:45.000Z</time>
      </trkpt>
      <trkpt lat="47.32703" lon="-1.33053">
        <ele>71</ele>
        <time>2020-09-12T10:43:46.000Z</time>
      </trkpt>
      <trkpt lat="47.32694" lon="-1.33046">
        <ele>70</ele>
        <time>2020-09-12T10:43:47.000Z</time>
      </trkpt>
      <trkpt lat="47.32686" lon="-1.33039">
        <ele>70</ele>
        <time>2020-09-12T10:43:48.000Z</time>
      </trkpt>
      <trkpt lat="47.32677" lon="-1.33031">
        <ele>69</ele>
        <time>2020-09-12T10:43:49.000Z</time>
      </trkpt>
      <trkpt lat="47.32669" lon="-1.33023">
        <ele>67</ele>
        <time>2020-09-12T10:43:50.000Z</time>
      </trkpt>
      <trkpt lat="47.32661" lon="-1.33016">
        <ele>66</ele>
        <time>2020-09-12T10:43:51.000Z</time>
      </trkpt>
      <trkpt lat="47.32652" lon="-1.33008">
        <ele>66</ele>
        <time>2020-09-12T10:43:52.000Z</time>
      </trkpt>
      <trkpt lat="47.32645" lon="-1.33">
        <ele>65</ele>
        <time>2020-09-12T10:43:53.000Z</time>
      </trkpt>
      <trkpt lat="47.32639" lon="-1.32991">
        <ele>65</ele>
        <time>2020-09-12T10:43:54.000Z</time>
      </trkpt>
      <trkpt lat="47.32628" lon="-1.32973">
        <ele>63</ele>
        <time>2020-09-12T10:43:56.000Z</time>
      </trkpt>
      <trkpt lat="47.32621" lon="-1.32959">
        <ele>63</ele>
        <time>2020-09-12T10:43:58.000Z</time>
      </trkpt>
      <trkpt lat="47.32614" lon="-1.3295">
        <ele>62</ele>
        <time>2020-09-12T10:44:00.000Z</time>
      </trkpt>
      <trkpt lat="47.32605" lon="-1.32963">
        <ele>59</ele>
        <time>2020-09-12T10:44:03.000Z</time>
      </trkpt>
      <trkpt lat="47.32597" lon="-1.32976">
        <ele>59</ele>
        <time>2020-09-12T10:44:05.000Z</time>
      </trkpt>
      <trkpt lat="47.32588" lon="-1.32987">
        <ele>59</ele>
        <time>2020-09-12T10:44:07.000Z</time>
      </trkpt>
      <trkpt lat="47.3258" lon="-1.32997">
        <ele>59</ele>
        <time>2020-09-12T10:44:09.000Z</time>
      </trkpt>
      <trkpt lat="47.32571" lon="-1.33007">
        <ele>59</ele>
        <time>2020-09-12T10:44:11.000Z</time>
      </trkpt>
      <trkpt lat="47.32562" lon="-1.33017">
        <ele>59</ele>
        <time>2020-09-12T10:44:13.000Z</time>
      </trkpt>
      <trkpt lat="47.32553" lon="-1.33028">
        <ele>59</ele>
        <time>2020-09-12T10:44:15.000Z</time>
      </trkpt>
      <trkpt lat="47.32542" lon="-1.33037">
        <ele>59</ele>
        <time>2020-09-12T10:44:17.000Z</time>
      </trkpt>
      <trkpt lat="47.3253" lon="-1.33047">
        <ele>58</ele>
        <time>2020-09-12T10:44:19.000Z</time>
      </trkpt>
      <trkpt lat="47.3252" lon="-1.33058">
        <ele>58</ele>
        <time>2020-09-12T10:44:21.000Z</time>
      </trkpt>
      <trkpt lat="47.32508" lon="-1.33069">
        <ele>58</ele>
        <time>2020-09-12T10:44:23.000Z</time>
      </trkpt>
      <trkpt lat="47.32496" lon="-1.33081">
        <ele>59</ele>
        <time>2020-09-12T10:44:25.000Z</time>
      </trkpt>
      <trkpt lat="47.32485" lon="-1.33093">
        <ele>59</ele>
        <time>2020-09-12T10:44:27.000Z</time>
      </trkpt>
      <trkpt lat="47.32473" lon="-1.33105">
        <ele>58</ele>
        <time>2020-09-12T10:44:29.000Z</time>
      </trkpt>
      <trkpt lat="47.32462" lon="-1.33118">
        <ele>58</ele>
        <time>2020-09-12T10:44:31.000Z</time>
      </trkpt>
      <trkpt lat="47.32453" lon="-1.3313">
        <ele>58</ele>
        <time>2020-09-12T10:44:33.000Z</time>
      </trkpt>
      <trkpt lat="47.32444" lon="-1.3314">
        <ele>58</ele>
        <time>2020-09-12T10:44:35.000Z</time>
      </trkpt>
      <trkpt lat="47.32435" lon="-1.33145">
        <ele>58</ele>
        <time>2020-09-12T10:44:37.000Z</time>
      </trkpt>
      <trkpt lat="47.32422" lon="-1.33145">
        <ele>58</ele>
        <time>2020-09-12T10:44:40.000Z</time>
      </trkpt>
      <trkpt lat="47.32411" lon="-1.33158">
        <ele>57</ele>
        <time>2020-09-12T10:44:43.000Z</time>
      </trkpt>
      <trkpt lat="47.32403" lon="-1.3317">
        <ele>57</ele>
        <time>2020-09-12T10:44:45.000Z</time>
      </trkpt>
      <trkpt lat="47.32396" lon="-1.33182">
        <ele>56</ele>
        <time>2020-09-12T10:44:47.000Z</time>
      </trkpt>
      <trkpt lat="47.32388" lon="-1.33195">
        <ele>56</ele>
        <time>2020-09-12T10:44:49.000Z</time>
      </trkpt>
      <trkpt lat="47.3238" lon="-1.33209">
        <ele>56</ele>
        <time>2020-09-12T10:44:51.000Z</time>
      </trkpt>
      <trkpt lat="47.32371" lon="-1.33224">
        <ele>56</ele>
        <time>2020-09-12T10:44:53.000Z</time>
      </trkpt>
      <trkpt lat="47.32364" lon="-1.33239">
        <ele>56</ele>
        <time>2020-09-12T10:44:55.000Z</time>
      </trkpt>
      <trkpt lat="47.32356" lon="-1.33255">
        <ele>55</ele>
        <time>2020-09-12T10:44:57.000Z</time>
      </trkpt>
      <trkpt lat="47.32348" lon="-1.33272">
        <ele>54</ele>
        <time>2020-09-12T10:44:59.000Z</time>
      </trkpt>
      <trkpt lat="47.3234" lon="-1.33289">
        <ele>55</ele>
        <time>2020-09-12T10:45:01.000Z</time>
      </trkpt>
      <trkpt lat="47.32332" lon="-1.33306">
        <ele>55</ele>
        <time>2020-09-12T10:45:03.000Z</time>
      </trkpt>
      <trkpt lat="47.32325" lon="-1.33323">
        <ele>55</ele>
        <time>2020-09-12T10:45:05.000Z</time>
      </trkpt>
      <trkpt lat="47.32317" lon="-1.33342">
        <ele>54</ele>
        <time>2020-09-12T10:45:07.000Z</time>
      </trkpt>
      <trkpt lat="47.32309" lon="-1.3336">
        <ele>55</ele>
        <time>2020-09-12T10:45:09.000Z</time>
      </trkpt>
      <trkpt lat="47.32301" lon="-1.33378">
        <ele>55</ele>
        <time>2020-09-12T10:45:11.000Z</time>
      </trkpt>
      <trkpt lat="47.32292" lon="-1.33396">
        <ele>55</ele>
        <time>2020-09-12T10:45:13.000Z</time>
      </trkpt>
      <trkpt lat="47.32284" lon="-1.33413">
        <ele>55</ele>
        <time>2020-09-12T10:45:15.000Z</time>
      </trkpt>
      <trkpt lat="47.32275" lon="-1.33431">
        <ele>56</ele>
        <time>2020-09-12T10:45:17.000Z</time>
      </trkpt>
      <trkpt lat="47.32267" lon="-1.33449">
        <ele>56</ele>
        <time>2020-09-12T10:45:19.000Z</time>
      </trkpt>
      <trkpt lat="47.32258" lon="-1.33465">
        <ele>56</ele>
        <time>2020-09-12T10:45:21.000Z</time>
      </trkpt>
      <trkpt lat="47.3225" lon="-1.33483">
        <ele>56</ele>
        <time>2020-09-12T10:45:23.000Z</time>
      </trkpt>
      <trkpt lat="47.32242" lon="-1.33499">
        <ele>56</ele>
        <time>2020-09-12T10:45:25.000Z</time>
      </trkpt>
      <trkpt lat="47.32233" lon="-1.33515">
        <ele>56</ele>
        <time>2020-09-12T10:45:27.000Z</time>
      </trkpt>
      <trkpt lat="47.32225" lon="-1.33531">
        <ele>56</ele>
        <time>2020-09-12T10:45:29.000Z</time>
      </trkpt>
      <trkpt lat="47.32217" lon="-1.33548">
        <ele>55</ele>
        <time>2020-09-12T10:45:31.000Z</time>
      </trkpt>
      <trkpt lat="47.32211" lon="-1.33565">
        <ele>56</ele>
        <time>2020-09-12T10:45:33.000Z</time>
      </trkpt>
      <trkpt lat="47.32204" lon="-1.33581">
        <ele>56</ele>
        <time>2020-09-12T10:45:35.000Z</time>
      </trkpt>
      <trkpt lat="47.32197" lon="-1.33597">
        <ele>55</ele>
        <time>2020-09-12T10:45:37.000Z</time>
      </trkpt>
      <trkpt lat="47.32191" lon="-1.33612">
        <ele>55</ele>
        <time>2020-09-12T10:45:39.000Z</time>
      </trkpt>
      <trkpt lat="47.32186" lon="-1.33628">
        <ele>55</ele>
        <time>2020-09-12T10:45:41.000Z</time>
      </trkpt>
      <trkpt lat="47.32178" lon="-1.3364">
        <ele>55</ele>
        <time>2020-09-12T10:45:43.000Z</time>
      </trkpt>
      <trkpt lat="47.32174" lon="-1.33652">
        <ele>55</ele>
        <time>2020-09-12T10:45:45.000Z</time>
      </trkpt>
      <trkpt lat="47.32169" lon="-1.33666">
        <ele>55</ele>
        <time>2020-09-12T10:45:47.000Z</time>
      </trkpt>
      <trkpt lat="47.32163" lon="-1.33682">
        <ele>55</ele>
        <time>2020-09-12T10:45:49.000Z</time>
      </trkpt>
      <trkpt lat="47.32157" lon="-1.33699">
        <ele>55</ele>
        <time>2020-09-12T10:45:51.000Z</time>
      </trkpt>
      <trkpt lat="47.32151" lon="-1.33717">
        <ele>56</ele>
        <time>2020-09-12T10:45:53.000Z</time>
      </trkpt>
      <trkpt lat="47.32143" lon="-1.33733">
        <ele>55</ele>
        <time>2020-09-12T10:45:55.000Z</time>
      </trkpt>
      <trkpt lat="47.32136" lon="-1.33749">
        <ele>55</ele>
        <time>2020-09-12T10:45:57.000Z</time>
      </trkpt>
      <trkpt lat="47.32129" lon="-1.33767">
        <ele>55</ele>
        <time>2020-09-12T10:45:59.000Z</time>
      </trkpt>
      <trkpt lat="47.32122" lon="-1.33783">
        <ele>55</ele>
        <time>2020-09-12T10:46:01.000Z</time>
      </trkpt>
      <trkpt lat="47.32115" lon="-1.338">
        <ele>56</ele>
        <time>2020-09-12T10:46:03.000Z</time>
      </trkpt>
      <trkpt lat="47.32108" lon="-1.33817">
        <ele>56</ele>
        <time>2020-09-12T10:46:05.000Z</time>
      </trkpt>
      <trkpt lat="47.321" lon="-1.33834">
        <ele>55</ele>
        <time>2020-09-12T10:46:07.000Z</time>
      </trkpt>
      <trkpt lat="47.32092" lon="-1.3385">
        <ele>55</ele>
        <time>2020-09-12T10:46:09.000Z</time>
      </trkpt>
      <trkpt lat="47.32084" lon="-1.33866">
        <ele>55</ele>
        <time>2020-09-12T10:46:11.000Z</time>
      </trkpt>
      <trkpt lat="47.32076" lon="-1.33882">
        <ele>55</ele>
        <time>2020-09-12T10:46:13.000Z</time>
      </trkpt>
      <trkpt lat="47.32067" lon="-1.33898">
        <ele>56</ele>
        <time>2020-09-12T10:46:15.000Z</time>
      </trkpt>
      <trkpt lat="47.32059" lon="-1.33914">
        <ele>56</ele>
        <time>2020-09-12T10:46:17.000Z</time>
      </trkpt>
      <trkpt lat="47.32049" lon="-1.33928">
        <ele>57</ele>
        <time>2020-09-12T10:46:19.000Z</time>
      </trkpt>
      <trkpt lat="47.32041" lon="-1.33943">
        <ele>57</ele>
        <time>2020-09-12T10:46:21.000Z</time>
      </trkpt>
      <trkpt lat="47.32034" lon="-1.33957">
        <ele>58</ele>
        <time>2020-09-12T10:46:23.000Z</time>
      </trkpt>
      <trkpt lat="47.32028" lon="-1.3397">
        <ele>58</ele>
        <time>2020-09-12T10:46:25.000Z</time>
      </trkpt>
      <trkpt lat="47.32021" lon="-1.33982">
        <ele>58</ele>
        <time>2020-09-12T10:46:27.000Z</time>
      </trkpt>
      <trkpt lat="47.32008" lon="-1.34">
        <ele>59</ele>
        <time>2020-09-12T10:46:30.000Z</time>
      </trkpt>
      <trkpt lat="47.31998" lon="-1.34013">
        <ele>59</ele>
        <time>2020-09-12T10:46:32.000Z</time>
      </trkpt>
      <trkpt lat="47.3199" lon="-1.34027">
        <ele>59</ele>
        <time>2020-09-12T10:46:34.000Z</time>
      </trkpt>
      <trkpt lat="47.31981" lon="-1.3404">
        <ele>60</ele>
        <time>2020-09-12T10:46:36.000Z</time>
      </trkpt>
      <trkpt lat="47.31973" lon="-1.34055">
        <ele>60</ele>
        <time>2020-09-12T10:46:38.000Z</time>
      </trkpt>
      <trkpt lat="47.31964" lon="-1.34068">
        <ele>60</ele>
        <time>2020-09-12T10:46:40.000Z</time>
      </trkpt>
      <trkpt lat="47.31955" lon="-1.34081">
        <ele>60</ele>
        <time>2020-09-12T10:46:42.000Z</time>
      </trkpt>
      <trkpt lat="47.31946" lon="-1.34095">
        <ele>61</ele>
        <time>2020-09-12T10:46:44.000Z</time>
      </trkpt>
      <trkpt lat="47.31937" lon="-1.3411">
        <ele>61</ele>
        <time>2020-09-12T10:46:46.000Z</time>
      </trkpt>
      <trkpt lat="47.31929" lon="-1.34123">
        <ele>61</ele>
        <time>2020-09-12T10:46:48.000Z</time>
      </trkpt>
      <trkpt lat="47.3192" lon="-1.34137">
        <ele>61</ele>
        <time>2020-09-12T10:46:50.000Z</time>
      </trkpt>
      <trkpt lat="47.31911" lon="-1.34151">
        <ele>61</ele>
        <time>2020-09-12T10:46:52.000Z</time>
      </trkpt>
      <trkpt lat="47.31902" lon="-1.34165">
        <ele>61</ele>
        <time>2020-09-12T10:46:54.000Z</time>
      </trkpt>
      <trkpt lat="47.31891" lon="-1.34178">
        <ele>59</ele>
        <time>2020-09-12T10:46:56.000Z</time>
      </trkpt>
      <trkpt lat="47.3188" lon="-1.34193">
        <ele>60</ele>
        <time>2020-09-12T10:46:58.000Z</time>
      </trkpt>
      <trkpt lat="47.31869" lon="-1.34208">
        <ele>60</ele>
        <time>2020-09-12T10:47:00.000Z</time>
      </trkpt>
      <trkpt lat="47.3186" lon="-1.34224">
        <ele>60</ele>
        <time>2020-09-12T10:47:02.000Z</time>
      </trkpt>
      <trkpt lat="47.31851" lon="-1.3424">
        <ele>59</ele>
        <time>2020-09-12T10:47:04.000Z</time>
      </trkpt>
      <trkpt lat="47.31842" lon="-1.34255">
        <ele>59</ele>
        <time>2020-09-12T10:47:06.000Z</time>
      </trkpt>
      <trkpt lat="47.31832" lon="-1.3427">
        <ele>58</ele>
        <time>2020-09-12T10:47:08.000Z</time>
      </trkpt>
      <trkpt lat="47.31822" lon="-1.34285">
        <ele>59</ele>
        <time>2020-09-12T10:47:10.000Z</time>
      </trkpt>
      <trkpt lat="47.31812" lon="-1.34299">
        <ele>59</ele>
        <time>2020-09-12T10:47:12.000Z</time>
      </trkpt>
      <trkpt lat="47.31802" lon="-1.34314">
        <ele>59</ele>
        <time>2020-09-12T10:47:14.000Z</time>
      </trkpt>
      <trkpt lat="47.31793" lon="-1.34329">
        <ele>59</ele>
        <time>2020-09-12T10:47:16.000Z</time>
      </trkpt>
      <trkpt lat="47.31783" lon="-1.34345">
        <ele>58</ele>
        <time>2020-09-12T10:47:18.000Z</time>
      </trkpt>
      <trkpt lat="47.31773" lon="-1.34359">
        <ele>57</ele>
        <time>2020-09-12T10:47:20.000Z</time>
      </trkpt>
      <trkpt lat="47.31764" lon="-1.34374">
        <ele>57</ele>
        <time>2020-09-12T10:47:22.000Z</time>
      </trkpt>
      <trkpt lat="47.31755" lon="-1.34389">
        <ele>56</ele>
        <time>2020-09-12T10:47:24.000Z</time>
      </trkpt>
      <trkpt lat="47.31741" lon="-1.34411">
        <ele>55</ele>
        <time>2020-09-12T10:47:27.000Z</time>
      </trkpt>
      <trkpt lat="47.31732" lon="-1.34426">
        <ele>56</ele>
        <time>2020-09-12T10:47:29.000Z</time>
      </trkpt>
      <trkpt lat="47.31724" lon="-1.3444">
        <ele>56</ele>
        <time>2020-09-12T10:47:31.000Z</time>
      </trkpt>
      <trkpt lat="47.3171" lon="-1.34462">
        <ele>56</ele>
        <time>2020-09-12T10:47:34.000Z</time>
      </trkpt>
      <trkpt lat="47.317" lon="-1.34478">
        <ele>56</ele>
        <time>2020-09-12T10:47:36.000Z</time>
      </trkpt>
      <trkpt lat="47.31691" lon="-1.34494">
        <ele>56</ele>
        <time>2020-09-12T10:47:38.000Z</time>
      </trkpt>
      <trkpt lat="47.31682" lon="-1.3451">
        <ele>56</ele>
        <time>2020-09-12T10:47:40.000Z</time>
      </trkpt>
      <trkpt lat="47.31673" lon="-1.34525">
        <ele>56</ele>
        <time>2020-09-12T10:47:42.000Z</time>
      </trkpt>
      <trkpt lat="47.31658" lon="-1.34546">
        <ele>55</ele>
        <time>2020-09-12T10:47:45.000Z</time>
      </trkpt>
      <trkpt lat="47.31649" lon="-1.34561">
        <ele>55</ele>
        <time>2020-09-12T10:47:47.000Z</time>
      </trkpt>
      <trkpt lat="47.31641" lon="-1.34575">
        <ele>56</ele>
        <time>2020-09-12T10:47:49.000Z</time>
      </trkpt>
      <trkpt lat="47.31633" lon="-1.34589">
        <ele>56</ele>
        <time>2020-09-12T10:47:51.000Z</time>
      </trkpt>
      <trkpt lat="47.31624" lon="-1.34602">
        <ele>56</ele>
        <time>2020-09-12T10:47:53.000Z</time>
      </trkpt>
      <trkpt lat="47.31615" lon="-1.34615">
        <ele>56</ele>
        <time>2020-09-12T10:47:55.000Z</time>
      </trkpt>
      <trkpt lat="47.31606" lon="-1.3463">
        <ele>56</ele>
        <time>2020-09-12T10:47:57.000Z</time>
      </trkpt>
      <trkpt lat="47.31597" lon="-1.34644">
        <ele>56</ele>
        <time>2020-09-12T10:47:59.000Z</time>
      </trkpt>
      <trkpt lat="47.31584" lon="-1.34666">
        <ele>56</ele>
        <time>2020-09-12T10:48:02.000Z</time>
      </trkpt>
      <trkpt lat="47.31576" lon="-1.34679">
        <ele>56</ele>
        <time>2020-09-12T10:48:04.000Z</time>
      </trkpt>
      <trkpt lat="47.31567" lon="-1.34692">
        <ele>56</ele>
        <time>2020-09-12T10:48:06.000Z</time>
      </trkpt>
      <trkpt lat="47.31559" lon="-1.34707">
        <ele>56</ele>
        <time>2020-09-12T10:48:08.000Z</time>
      </trkpt>
      <trkpt lat="47.31551" lon="-1.34719">
        <ele>56</ele>
        <time>2020-09-12T10:48:10.000Z</time>
      </trkpt>
      <trkpt lat="47.31543" lon="-1.34731">
        <ele>56</ele>
        <time>2020-09-12T10:48:12.000Z</time>
      </trkpt>
      <trkpt lat="47.31535" lon="-1.34743">
        <ele>56</ele>
        <time>2020-09-12T10:48:14.000Z</time>
      </trkpt>
      <trkpt lat="47.31527" lon="-1.34757">
        <ele>55</ele>
        <time>2020-09-12T10:48:16.000Z</time>
      </trkpt>
      <trkpt lat="47.31517" lon="-1.34772">
        <ele>55</ele>
        <time>2020-09-12T10:48:18.000Z</time>
      </trkpt>
      <trkpt lat="47.31507" lon="-1.34789">
        <ele>55</ele>
        <time>2020-09-12T10:48:20.000Z</time>
      </trkpt>
      <trkpt lat="47.31496" lon="-1.34807">
        <ele>55</ele>
        <time>2020-09-12T10:48:22.000Z</time>
      </trkpt>
      <trkpt lat="47.31484" lon="-1.34824">
        <ele>55</ele>
        <time>2020-09-12T10:48:24.000Z</time>
      </trkpt>
      <trkpt lat="47.31473" lon="-1.34842">
        <ele>56</ele>
        <time>2020-09-12T10:48:26.000Z</time>
      </trkpt>
      <trkpt lat="47.31462" lon="-1.3486">
        <ele>56</ele>
        <time>2020-09-12T10:48:28.000Z</time>
      </trkpt>
      <trkpt lat="47.31451" lon="-1.34877">
        <ele>56</ele>
        <time>2020-09-12T10:48:30.000Z</time>
      </trkpt>
      <trkpt lat="47.3144" lon="-1.34894">
        <ele>56</ele>
        <time>2020-09-12T10:48:32.000Z</time>
      </trkpt>
      <trkpt lat="47.31429" lon="-1.34911">
        <ele>56</ele>
        <time>2020-09-12T10:48:34.000Z</time>
      </trkpt>
      <trkpt lat="47.31418" lon="-1.34929">
        <ele>56</ele>
        <time>2020-09-12T10:48:36.000Z</time>
      </trkpt>
      <trkpt lat="47.31408" lon="-1.34946">
        <ele>56</ele>
        <time>2020-09-12T10:48:38.000Z</time>
      </trkpt>
      <trkpt lat="47.31398" lon="-1.34963">
        <ele>57</ele>
        <time>2020-09-12T10:48:40.000Z</time>
      </trkpt>
      <trkpt lat="47.31388" lon="-1.34979">
        <ele>57</ele>
        <time>2020-09-12T10:48:42.000Z</time>
      </trkpt>
      <trkpt lat="47.31378" lon="-1.34996">
        <ele>57</ele>
        <time>2020-09-12T10:48:44.000Z</time>
      </trkpt>
      <trkpt lat="47.31368" lon="-1.35012">
        <ele>57</ele>
        <time>2020-09-12T10:48:46.000Z</time>
      </trkpt>
      <trkpt lat="47.31359" lon="-1.35028">
        <ele>57</ele>
        <time>2020-09-12T10:48:48.000Z</time>
      </trkpt>
      <trkpt lat="47.31348" lon="-1.35044">
        <ele>56</ele>
        <time>2020-09-12T10:48:50.000Z</time>
      </trkpt>
      <trkpt lat="47.31338" lon="-1.35059">
        <ele>56</ele>
        <time>2020-09-12T10:48:52.000Z</time>
      </trkpt>
      <trkpt lat="47.31329" lon="-1.35074">
        <ele>56</ele>
        <time>2020-09-12T10:48:54.000Z</time>
      </trkpt>
      <trkpt lat="47.31319" lon="-1.35086">
        <ele>56</ele>
        <time>2020-09-12T10:48:56.000Z</time>
      </trkpt>
      <trkpt lat="47.31307" lon="-1.35089">
        <ele>56</ele>
        <time>2020-09-12T10:48:58.000Z</time>
      </trkpt>
      <trkpt lat="47.31296" lon="-1.35102">
        <ele>56</ele>
        <time>2020-09-12T10:49:00.000Z</time>
      </trkpt>
      <trkpt lat="47.3129" lon="-1.35117">
        <ele>56</ele>
        <time>2020-09-12T10:49:02.000Z</time>
      </trkpt>
      <trkpt lat="47.31286" lon="-1.35133">
        <ele>56</ele>
        <time>2020-09-12T10:49:04.000Z</time>
      </trkpt>
      <trkpt lat="47.31277" lon="-1.35149">
        <ele>56</ele>
        <time>2020-09-12T10:49:06.000Z</time>
      </trkpt>
      <trkpt lat="47.31267" lon="-1.35164">
        <ele>56</ele>
        <time>2020-09-12T10:49:08.000Z</time>
      </trkpt>
      <trkpt lat="47.31258" lon="-1.35179">
        <ele>56</ele>
        <time>2020-09-12T10:49:10.000Z</time>
      </trkpt>
      <trkpt lat="47.31248" lon="-1.35195">
        <ele>57</ele>
        <time>2020-09-12T10:49:12.000Z</time>
      </trkpt>
      <trkpt lat="47.31238" lon="-1.35211">
        <ele>57</ele>
        <time>2020-09-12T10:49:14.000Z</time>
      </trkpt>
      <trkpt lat="47.31228" lon="-1.35227">
        <ele>57</ele>
        <time>2020-09-12T10:49:16.000Z</time>
      </trkpt>
      <trkpt lat="47.31219" lon="-1.35242">
        <ele>57</ele>
        <time>2020-09-12T10:49:18.000Z</time>
      </trkpt>
      <trkpt lat="47.3121" lon="-1.35257">
        <ele>58</ele>
        <time>2020-09-12T10:49:20.000Z</time>
      </trkpt>
      <trkpt lat="47.312" lon="-1.35272">
        <ele>58</ele>
        <time>2020-09-12T10:49:22.000Z</time>
      </trkpt>
      <trkpt lat="47.3119" lon="-1.35287">
        <ele>58</ele>
        <time>2020-09-12T10:49:24.000Z</time>
      </trkpt>
      <trkpt lat="47.3118" lon="-1.35303">
        <ele>57</ele>
        <time>2020-09-12T10:49:26.000Z</time>
      </trkpt>
      <trkpt lat="47.3117" lon="-1.35319">
        <ele>57</ele>
        <time>2020-09-12T10:49:28.000Z</time>
      </trkpt>
      <trkpt lat="47.3116" lon="-1.35334">
        <ele>57</ele>
        <time>2020-09-12T10:49:30.000Z</time>
      </trkpt>
      <trkpt lat="47.3115" lon="-1.35349">
        <ele>57</ele>
        <time>2020-09-12T10:49:32.000Z</time>
      </trkpt>
      <trkpt lat="47.31141" lon="-1.35364">
        <ele>57</ele>
        <time>2020-09-12T10:49:34.000Z</time>
      </trkpt>
      <trkpt lat="47.31131" lon="-1.35379">
        <ele>57</ele>
        <time>2020-09-12T10:49:36.000Z</time>
      </trkpt>
      <trkpt lat="47.31116" lon="-1.35402">
        <ele>57</ele>
        <time>2020-09-12T10:49:39.000Z</time>
      </trkpt>
      <trkpt lat="47.31106" lon="-1.35417">
        <ele>57</ele>
        <time>2020-09-12T10:49:41.000Z</time>
      </trkpt>
      <trkpt lat="47.31097" lon="-1.35431">
        <ele>58</ele>
        <time>2020-09-12T10:49:43.000Z</time>
      </trkpt>
      <trkpt lat="47.31086" lon="-1.35445">
        <ele>58</ele>
        <time>2020-09-12T10:49:45.000Z</time>
      </trkpt>
      <trkpt lat="47.31076" lon="-1.35459">
        <ele>58</ele>
        <time>2020-09-12T10:49:47.000Z</time>
      </trkpt>
      <trkpt lat="47.31066" lon="-1.35472">
        <ele>59</ele>
        <time>2020-09-12T10:49:49.000Z</time>
      </trkpt>
      <trkpt lat="47.31056" lon="-1.35485">
        <ele>58</ele>
        <time>2020-09-12T10:49:51.000Z</time>
      </trkpt>
      <trkpt lat="47.31046" lon="-1.35498">
        <ele>59</ele>
        <time>2020-09-12T10:49:53.000Z</time>
      </trkpt>
      <trkpt lat="47.31035" lon="-1.35511">
        <ele>59</ele>
        <time>2020-09-12T10:49:55.000Z</time>
      </trkpt>
      <trkpt lat="47.31024" lon="-1.35523">
        <ele>59</ele>
        <time>2020-09-12T10:49:57.000Z</time>
      </trkpt>
      <trkpt lat="47.31013" lon="-1.35535">
        <ele>59</ele>
        <time>2020-09-12T10:49:59.000Z</time>
      </trkpt>
      <trkpt lat="47.31002" lon="-1.35548">
        <ele>60</ele>
        <time>2020-09-12T10:50:01.000Z</time>
      </trkpt>
      <trkpt lat="47.3099" lon="-1.35561">
        <ele>60</ele>
        <time>2020-09-12T10:50:03.000Z</time>
      </trkpt>
      <trkpt lat="47.30978" lon="-1.35574">
        <ele>60</ele>
        <time>2020-09-12T10:50:05.000Z</time>
      </trkpt>
      <trkpt lat="47.30968" lon="-1.35586">
        <ele>60</ele>
        <time>2020-09-12T10:50:07.000Z</time>
      </trkpt>
      <trkpt lat="47.30956" lon="-1.35599">
        <ele>60</ele>
        <time>2020-09-12T10:50:09.000Z</time>
      </trkpt>
      <trkpt lat="47.30945" lon="-1.35612">
        <ele>60</ele>
        <time>2020-09-12T10:50:11.000Z</time>
      </trkpt>
      <trkpt lat="47.30935" lon="-1.35625">
        <ele>60</ele>
        <time>2020-09-12T10:50:13.000Z</time>
      </trkpt>
      <trkpt lat="47.30924" lon="-1.35638">
        <ele>60</ele>
        <time>2020-09-12T10:50:15.000Z</time>
      </trkpt>
      <trkpt lat="47.30913" lon="-1.35651">
        <ele>60</ele>
        <time>2020-09-12T10:50:17.000Z</time>
      </trkpt>
      <trkpt lat="47.30903" lon="-1.35665">
        <ele>60</ele>
        <time>2020-09-12T10:50:19.000Z</time>
      </trkpt>
      <trkpt lat="47.30892" lon="-1.35677">
        <ele>60</ele>
        <time>2020-09-12T10:50:21.000Z</time>
      </trkpt>
      <trkpt lat="47.30881" lon="-1.35689">
        <ele>59</ele>
        <time>2020-09-12T10:50:23.000Z</time>
      </trkpt>
      <trkpt lat="47.3087" lon="-1.35701">
        <ele>59</ele>
        <time>2020-09-12T10:50:25.000Z</time>
      </trkpt>
      <trkpt lat="47.30859" lon="-1.35715">
        <ele>59</ele>
        <time>2020-09-12T10:50:27.000Z</time>
      </trkpt>
      <trkpt lat="47.30848" lon="-1.35727">
        <ele>59</ele>
        <time>2020-09-12T10:50:29.000Z</time>
      </trkpt>
      <trkpt lat="47.30837" lon="-1.3574">
        <ele>59</ele>
        <time>2020-09-12T10:50:31.000Z</time>
      </trkpt>
      <trkpt lat="47.30826" lon="-1.35752">
        <ele>58</ele>
        <time>2020-09-12T10:50:33.000Z</time>
      </trkpt>
      <trkpt lat="47.30816" lon="-1.35763">
        <ele>58</ele>
        <time>2020-09-12T10:50:35.000Z</time>
      </trkpt>
      <trkpt lat="47.30806" lon="-1.35776">
        <ele>58</ele>
        <time>2020-09-12T10:50:37.000Z</time>
      </trkpt>
      <trkpt lat="47.30794" lon="-1.3579">
        <ele>58</ele>
        <time>2020-09-12T10:50:39.000Z</time>
      </trkpt>
      <trkpt lat="47.30783" lon="-1.35803">
        <ele>57</ele>
        <time>2020-09-12T10:50:41.000Z</time>
      </trkpt>
      <trkpt lat="47.30772" lon="-1.35816">
        <ele>57</ele>
        <time>2020-09-12T10:50:43.000Z</time>
      </trkpt>
      <trkpt lat="47.30761" lon="-1.35828">
        <ele>57</ele>
        <time>2020-09-12T10:50:45.000Z</time>
      </trkpt>
      <trkpt lat="47.3075" lon="-1.35841">
        <ele>57</ele>
        <time>2020-09-12T10:50:47.000Z</time>
      </trkpt>
      <trkpt lat="47.30739" lon="-1.35854">
        <ele>57</ele>
        <time>2020-09-12T10:50:49.000Z</time>
      </trkpt>
      <trkpt lat="47.30728" lon="-1.35866">
        <ele>57</ele>
        <time>2020-09-12T10:50:51.000Z</time>
      </trkpt>
      <trkpt lat="47.30717" lon="-1.35879">
        <ele>57</ele>
        <time>2020-09-12T10:50:53.000Z</time>
      </trkpt>
      <trkpt lat="47.30705" lon="-1.35891">
        <ele>58</ele>
        <time>2020-09-12T10:50:55.000Z</time>
      </trkpt>
      <trkpt lat="47.30695" lon="-1.35903">
        <ele>58</ele>
        <time>2020-09-12T10:50:57.000Z</time>
      </trkpt>
      <trkpt lat="47.30685" lon="-1.35915">
        <ele>58</ele>
        <time>2020-09-12T10:50:59.000Z</time>
      </trkpt>
      <trkpt lat="47.30675" lon="-1.35928">
        <ele>58</ele>
        <time>2020-09-12T10:51:01.000Z</time>
      </trkpt>
      <trkpt lat="47.30665" lon="-1.3594">
        <ele>58</ele>
        <time>2020-09-12T10:51:03.000Z</time>
      </trkpt>
      <trkpt lat="47.30655" lon="-1.35952">
        <ele>57</ele>
        <time>2020-09-12T10:51:05.000Z</time>
      </trkpt>
      <trkpt lat="47.30644" lon="-1.35963">
        <ele>57</ele>
        <time>2020-09-12T10:51:07.000Z</time>
      </trkpt>
      <trkpt lat="47.30635" lon="-1.35975">
        <ele>57</ele>
        <time>2020-09-12T10:51:09.000Z</time>
      </trkpt>
      <trkpt lat="47.30625" lon="-1.35987">
        <ele>57</ele>
        <time>2020-09-12T10:51:11.000Z</time>
      </trkpt>
      <trkpt lat="47.30614" lon="-1.35999">
        <ele>57</ele>
        <time>2020-09-12T10:51:13.000Z</time>
      </trkpt>
      <trkpt lat="47.30604" lon="-1.3601">
        <ele>56</ele>
        <time>2020-09-12T10:51:15.000Z</time>
      </trkpt>
      <trkpt lat="47.30594" lon="-1.36021">
        <ele>55</ele>
        <time>2020-09-12T10:51:17.000Z</time>
      </trkpt>
      <trkpt lat="47.30584" lon="-1.36033">
        <ele>55</ele>
        <time>2020-09-12T10:51:20.000Z</time>
      </trkpt>
      <trkpt lat="47.30579" lon="-1.36047">
        <ele>55</ele>
        <time>2020-09-12T10:51:23.000Z</time>
      </trkpt>
      <trkpt lat="47.30571" lon="-1.36058">
        <ele>56</ele>
        <time>2020-09-12T10:51:25.000Z</time>
      </trkpt>
      <trkpt lat="47.30562" lon="-1.36071">
        <ele>56</ele>
        <time>2020-09-12T10:51:27.000Z</time>
      </trkpt>
      <trkpt lat="47.30552" lon="-1.36085">
        <ele>56</ele>
        <time>2020-09-12T10:51:29.000Z</time>
      </trkpt>
      <trkpt lat="47.30543" lon="-1.36099">
        <ele>55</ele>
        <time>2020-09-12T10:51:31.000Z</time>
      </trkpt>
      <trkpt lat="47.30534" lon="-1.36113">
        <ele>55</ele>
        <time>2020-09-12T10:51:33.000Z</time>
      </trkpt>
      <trkpt lat="47.30525" lon="-1.36128">
        <ele>55</ele>
        <time>2020-09-12T10:51:35.000Z</time>
      </trkpt>
      <trkpt lat="47.30515" lon="-1.36144">
        <ele>55</ele>
        <time>2020-09-12T10:51:37.000Z</time>
      </trkpt>
      <trkpt lat="47.30506" lon="-1.36159">
        <ele>55</ele>
        <time>2020-09-12T10:51:39.000Z</time>
      </trkpt>
      <trkpt lat="47.30498" lon="-1.36174">
        <ele>55</ele>
        <time>2020-09-12T10:51:41.000Z</time>
      </trkpt>
      <trkpt lat="47.3049" lon="-1.3619">
        <ele>54</ele>
        <time>2020-09-12T10:51:43.000Z</time>
      </trkpt>
      <trkpt lat="47.30481" lon="-1.36205">
        <ele>54</ele>
        <time>2020-09-12T10:51:45.000Z</time>
      </trkpt>
      <trkpt lat="47.30473" lon="-1.3622">
        <ele>54</ele>
        <time>2020-09-12T10:51:47.000Z</time>
      </trkpt>
      <trkpt lat="47.30465" lon="-1.36236">
        <ele>54</ele>
        <time>2020-09-12T10:51:49.000Z</time>
      </trkpt>
      <trkpt lat="47.30457" lon="-1.36253">
        <ele>54</ele>
        <time>2020-09-12T10:51:51.000Z</time>
      </trkpt>
      <trkpt lat="47.30449" lon="-1.36269">
        <ele>54</ele>
        <time>2020-09-12T10:51:53.000Z</time>
      </trkpt>
      <trkpt lat="47.30441" lon="-1.36286">
        <ele>53</ele>
        <time>2020-09-12T10:51:55.000Z</time>
      </trkpt>
      <trkpt lat="47.30433" lon="-1.36302">
        <ele>53</ele>
        <time>2020-09-12T10:51:57.000Z</time>
      </trkpt>
      <trkpt lat="47.30425" lon="-1.36318">
        <ele>53</ele>
        <time>2020-09-12T10:51:59.000Z</time>
      </trkpt>
      <trkpt lat="47.30418" lon="-1.36334">
        <ele>53</ele>
        <time>2020-09-12T10:52:01.000Z</time>
      </trkpt>
      <trkpt lat="47.3041" lon="-1.3635">
        <ele>53</ele>
        <time>2020-09-12T10:52:03.000Z</time>
      </trkpt>
      <trkpt lat="47.30402" lon="-1.36366">
        <ele>53</ele>
        <time>2020-09-12T10:52:05.000Z</time>
      </trkpt>
      <trkpt lat="47.30394" lon="-1.36383">
        <ele>53</ele>
        <time>2020-09-12T10:52:07.000Z</time>
      </trkpt>
      <trkpt lat="47.30386" lon="-1.36398">
        <ele>53</ele>
        <time>2020-09-12T10:52:09.000Z</time>
      </trkpt>
      <trkpt lat="47.30379" lon="-1.36414">
        <ele>53</ele>
        <time>2020-09-12T10:52:11.000Z</time>
      </trkpt>
      <trkpt lat="47.30372" lon="-1.3643">
        <ele>53</ele>
        <time>2020-09-12T10:52:13.000Z</time>
      </trkpt>
      <trkpt lat="47.30365" lon="-1.36446">
        <ele>53</ele>
        <time>2020-09-12T10:52:15.000Z</time>
      </trkpt>
      <trkpt lat="47.30358" lon="-1.36462">
        <ele>52</ele>
        <time>2020-09-12T10:52:17.000Z</time>
      </trkpt>
      <trkpt lat="47.3035" lon="-1.36478">
        <ele>52</ele>
        <time>2020-09-12T10:52:19.000Z</time>
      </trkpt>
      <trkpt lat="47.30342" lon="-1.36495">
        <ele>53</ele>
        <time>2020-09-12T10:52:21.000Z</time>
      </trkpt>
      <trkpt lat="47.30333" lon="-1.36512">
        <ele>52</ele>
        <time>2020-09-12T10:52:23.000Z</time>
      </trkpt>
      <trkpt lat="47.30325" lon="-1.36528">
        <ele>52</ele>
        <time>2020-09-12T10:52:25.000Z</time>
      </trkpt>
      <trkpt lat="47.30317" lon="-1.36545">
        <ele>51</ele>
        <time>2020-09-12T10:52:27.000Z</time>
      </trkpt>
      <trkpt lat="47.30309" lon="-1.36562">
        <ele>51</ele>
        <time>2020-09-12T10:52:29.000Z</time>
      </trkpt>
      <trkpt lat="47.303" lon="-1.36579">
        <ele>51</ele>
        <time>2020-09-12T10:52:31.000Z</time>
      </trkpt>
      <trkpt lat="47.30291" lon="-1.36596">
        <ele>51</ele>
        <time>2020-09-12T10:52:33.000Z</time>
      </trkpt>
      <trkpt lat="47.30283" lon="-1.36613">
        <ele>52</ele>
        <time>2020-09-12T10:52:35.000Z</time>
      </trkpt>
      <trkpt lat="47.30275" lon="-1.3663">
        <ele>52</ele>
        <time>2020-09-12T10:52:37.000Z</time>
      </trkpt>
      <trkpt lat="47.30267" lon="-1.36647">
        <ele>52</ele>
        <time>2020-09-12T10:52:39.000Z</time>
      </trkpt>
      <trkpt lat="47.30258" lon="-1.36663">
        <ele>52</ele>
        <time>2020-09-12T10:52:41.000Z</time>
      </trkpt>
      <trkpt lat="47.30249" lon="-1.36681">
        <ele>51</ele>
        <time>2020-09-12T10:52:43.000Z</time>
      </trkpt>
      <trkpt lat="47.3024" lon="-1.36699">
        <ele>52</ele>
        <time>2020-09-12T10:52:45.000Z</time>
      </trkpt>
      <trkpt lat="47.30232" lon="-1.36715">
        <ele>53</ele>
        <time>2020-09-12T10:52:47.000Z</time>
      </trkpt>
      <trkpt lat="47.30224" lon="-1.36733">
        <ele>53</ele>
        <time>2020-09-12T10:52:49.000Z</time>
      </trkpt>
      <trkpt lat="47.30216" lon="-1.3675">
        <ele>53</ele>
        <time>2020-09-12T10:52:51.000Z</time>
      </trkpt>
      <trkpt lat="47.30209" lon="-1.36766">
        <ele>54</ele>
        <time>2020-09-12T10:52:53.000Z</time>
      </trkpt>
      <trkpt lat="47.30201" lon="-1.36783">
        <ele>55</ele>
        <time>2020-09-12T10:52:55.000Z</time>
      </trkpt>
      <trkpt lat="47.30193" lon="-1.368">
        <ele>55</ele>
        <time>2020-09-12T10:52:57.000Z</time>
      </trkpt>
      <trkpt lat="47.30185" lon="-1.36817">
        <ele>56</ele>
        <time>2020-09-12T10:52:59.000Z</time>
      </trkpt>
      <trkpt lat="47.30177" lon="-1.36833">
        <ele>56</ele>
        <time>2020-09-12T10:53:01.000Z</time>
      </trkpt>
      <trkpt lat="47.30168" lon="-1.36849">
        <ele>56</ele>
        <time>2020-09-12T10:53:03.000Z</time>
      </trkpt>
      <trkpt lat="47.3016" lon="-1.36866">
        <ele>55</ele>
        <time>2020-09-12T10:53:05.000Z</time>
      </trkpt>
      <trkpt lat="47.30151" lon="-1.36883">
        <ele>55</ele>
        <time>2020-09-12T10:53:07.000Z</time>
      </trkpt>
      <trkpt lat="47.30143" lon="-1.369">
        <ele>55</ele>
        <time>2020-09-12T10:53:09.000Z</time>
      </trkpt>
      <trkpt lat="47.30135" lon="-1.36916">
        <ele>55</ele>
        <time>2020-09-12T10:53:11.000Z</time>
      </trkpt>
      <trkpt lat="47.30127" lon="-1.36932">
        <ele>55</ele>
        <time>2020-09-12T10:53:13.000Z</time>
      </trkpt>
      <trkpt lat="47.3012" lon="-1.36948">
        <ele>56</ele>
        <time>2020-09-12T10:53:15.000Z</time>
      </trkpt>
      <trkpt lat="47.30114" lon="-1.36966">
        <ele>56</ele>
        <time>2020-09-12T10:53:17.000Z</time>
      </trkpt>
      <trkpt lat="47.30109" lon="-1.36981">
        <ele>56</ele>
        <time>2020-09-12T10:53:19.000Z</time>
      </trkpt>
      <trkpt lat="47.30102" lon="-1.36995">
        <ele>57</ele>
        <time>2020-09-12T10:53:21.000Z</time>
      </trkpt>
      <trkpt lat="47.30094" lon="-1.3701">
        <ele>56</ele>
        <time>2020-09-12T10:53:23.000Z</time>
      </trkpt>
      <trkpt lat="47.30086" lon="-1.37024">
        <ele>57</ele>
        <time>2020-09-12T10:53:25.000Z</time>
      </trkpt>
      <trkpt lat="47.30078" lon="-1.37039">
        <ele>57</ele>
        <time>2020-09-12T10:53:27.000Z</time>
      </trkpt>
      <trkpt lat="47.3007" lon="-1.37055">
        <ele>57</ele>
        <time>2020-09-12T10:53:29.000Z</time>
      </trkpt>
      <trkpt lat="47.30062" lon="-1.37069">
        <ele>56</ele>
        <time>2020-09-12T10:53:31.000Z</time>
      </trkpt>
      <trkpt lat="47.30054" lon="-1.37083">
        <ele>56</ele>
        <time>2020-09-12T10:53:33.000Z</time>
      </trkpt>
      <trkpt lat="47.30045" lon="-1.37098">
        <ele>56</ele>
        <time>2020-09-12T10:53:35.000Z</time>
      </trkpt>
      <trkpt lat="47.30037" lon="-1.37113">
        <ele>56</ele>
        <time>2020-09-12T10:53:37.000Z</time>
      </trkpt>
      <trkpt lat="47.30028" lon="-1.37127">
        <ele>56</ele>
        <time>2020-09-12T10:53:39.000Z</time>
      </trkpt>
      <trkpt lat="47.30019" lon="-1.3714">
        <ele>56</ele>
        <time>2020-09-12T10:53:41.000Z</time>
      </trkpt>
      <trkpt lat="47.30011" lon="-1.37154">
        <ele>56</ele>
        <time>2020-09-12T10:53:43.000Z</time>
      </trkpt>
      <trkpt lat="47.30001" lon="-1.37169">
        <ele>56</ele>
        <time>2020-09-12T10:53:45.000Z</time>
      </trkpt>
      <trkpt lat="47.29992" lon="-1.37183">
        <ele>56</ele>
        <time>2020-09-12T10:53:47.000Z</time>
      </trkpt>
      <trkpt lat="47.29984" lon="-1.37197">
        <ele>56</ele>
        <time>2020-09-12T10:53:49.000Z</time>
      </trkpt>
      <trkpt lat="47.29974" lon="-1.37211">
        <ele>56</ele>
        <time>2020-09-12T10:53:51.000Z</time>
      </trkpt>
      <trkpt lat="47.29965" lon="-1.37224">
        <ele>56</ele>
        <time>2020-09-12T10:53:53.000Z</time>
      </trkpt>
      <trkpt lat="47.29956" lon="-1.37239">
        <ele>56</ele>
        <time>2020-09-12T10:53:55.000Z</time>
      </trkpt>
      <trkpt lat="47.29947" lon="-1.37252">
        <ele>55</ele>
        <time>2020-09-12T10:53:57.000Z</time>
      </trkpt>
      <trkpt lat="47.29938" lon="-1.37266">
        <ele>56</ele>
        <time>2020-09-12T10:53:59.000Z</time>
      </trkpt>
      <trkpt lat="47.29929" lon="-1.3728">
        <ele>55</ele>
        <time>2020-09-12T10:54:01.000Z</time>
      </trkpt>
      <trkpt lat="47.2992" lon="-1.37295">
        <ele>55</ele>
        <time>2020-09-12T10:54:03.000Z</time>
      </trkpt>
      <trkpt lat="47.2991" lon="-1.37309">
        <ele>54</ele>
        <time>2020-09-12T10:54:05.000Z</time>
      </trkpt>
      <trkpt lat="47.29901" lon="-1.37324">
        <ele>54</ele>
        <time>2020-09-12T10:54:07.000Z</time>
      </trkpt>
      <trkpt lat="47.29892" lon="-1.37338">
        <ele>54</ele>
        <time>2020-09-12T10:54:09.000Z</time>
      </trkpt>
      <trkpt lat="47.29883" lon="-1.37352">
        <ele>54</ele>
        <time>2020-09-12T10:54:11.000Z</time>
      </trkpt>
      <trkpt lat="47.29873" lon="-1.37367">
        <ele>54</ele>
        <time>2020-09-12T10:54:13.000Z</time>
      </trkpt>
      <trkpt lat="47.29864" lon="-1.3738">
        <ele>54</ele>
        <time>2020-09-12T10:54:15.000Z</time>
      </trkpt>
      <trkpt lat="47.29855" lon="-1.37394">
        <ele>54</ele>
        <time>2020-09-12T10:54:17.000Z</time>
      </trkpt>
      <trkpt lat="47.29845" lon="-1.37408">
        <ele>54</ele>
        <time>2020-09-12T10:54:19.000Z</time>
      </trkpt>
      <trkpt lat="47.29836" lon="-1.37423">
        <ele>54</ele>
        <time>2020-09-12T10:54:21.000Z</time>
      </trkpt>
      <trkpt lat="47.29827" lon="-1.37436">
        <ele>54</ele>
        <time>2020-09-12T10:54:23.000Z</time>
      </trkpt>
      <trkpt lat="47.29819" lon="-1.3745">
        <ele>54</ele>
        <time>2020-09-12T10:54:25.000Z</time>
      </trkpt>
      <trkpt lat="47.29811" lon="-1.37464">
        <ele>54</ele>
        <time>2020-09-12T10:54:27.000Z</time>
      </trkpt>
      <trkpt lat="47.29802" lon="-1.37479">
        <ele>54</ele>
        <time>2020-09-12T10:54:29.000Z</time>
      </trkpt>
      <trkpt lat="47.29793" lon="-1.37494">
        <ele>53</ele>
        <time>2020-09-12T10:54:31.000Z</time>
      </trkpt>
      <trkpt lat="47.29785" lon="-1.37509">
        <ele>53</ele>
        <time>2020-09-12T10:54:33.000Z</time>
      </trkpt>
      <trkpt lat="47.29776" lon="-1.37525">
        <ele>54</ele>
        <time>2020-09-12T10:54:35.000Z</time>
      </trkpt>
      <trkpt lat="47.29768" lon="-1.37541">
        <ele>54</ele>
        <time>2020-09-12T10:54:37.000Z</time>
      </trkpt>
      <trkpt lat="47.29759" lon="-1.37556">
        <ele>55</ele>
        <time>2020-09-12T10:54:39.000Z</time>
      </trkpt>
      <trkpt lat="47.29751" lon="-1.37572">
        <ele>55</ele>
        <time>2020-09-12T10:54:41.000Z</time>
      </trkpt>
      <trkpt lat="47.29743" lon="-1.37588">
        <ele>55</ele>
        <time>2020-09-12T10:54:43.000Z</time>
      </trkpt>
      <trkpt lat="47.29736" lon="-1.37604">
        <ele>54</ele>
        <time>2020-09-12T10:54:45.000Z</time>
      </trkpt>
      <trkpt lat="47.29727" lon="-1.37619">
        <ele>54</ele>
        <time>2020-09-12T10:54:47.000Z</time>
      </trkpt>
      <trkpt lat="47.29719" lon="-1.37636">
        <ele>54</ele>
        <time>2020-09-12T10:54:49.000Z</time>
      </trkpt>
      <trkpt lat="47.29711" lon="-1.37651">
        <ele>54</ele>
        <time>2020-09-12T10:54:51.000Z</time>
      </trkpt>
      <trkpt lat="47.29703" lon="-1.37667">
        <ele>54</ele>
        <time>2020-09-12T10:54:53.000Z</time>
      </trkpt>
      <trkpt lat="47.29694" lon="-1.37683">
        <ele>54</ele>
        <time>2020-09-12T10:54:55.000Z</time>
      </trkpt>
      <trkpt lat="47.29686" lon="-1.37699">
        <ele>54</ele>
        <time>2020-09-12T10:54:57.000Z</time>
      </trkpt>
      <trkpt lat="47.29678" lon="-1.37714">
        <ele>54</ele>
        <time>2020-09-12T10:54:59.000Z</time>
      </trkpt>
      <trkpt lat="47.29671" lon="-1.3773">
        <ele>54</ele>
        <time>2020-09-12T10:55:01.000Z</time>
      </trkpt>
      <trkpt lat="47.29662" lon="-1.37746">
        <ele>53</ele>
        <time>2020-09-12T10:55:03.000Z</time>
      </trkpt>
      <trkpt lat="47.29653" lon="-1.37762">
        <ele>54</ele>
        <time>2020-09-12T10:55:05.000Z</time>
      </trkpt>
      <trkpt lat="47.29645" lon="-1.37777">
        <ele>54</ele>
        <time>2020-09-12T10:55:07.000Z</time>
      </trkpt>
      <trkpt lat="47.29636" lon="-1.37793">
        <ele>54</ele>
        <time>2020-09-12T10:55:09.000Z</time>
      </trkpt>
      <trkpt lat="47.29628" lon="-1.37808">
        <ele>54</ele>
        <time>2020-09-12T10:55:11.000Z</time>
      </trkpt>
      <trkpt lat="47.2962" lon="-1.37825">
        <ele>54</ele>
        <time>2020-09-12T10:55:13.000Z</time>
      </trkpt>
      <trkpt lat="47.29611" lon="-1.37841">
        <ele>54</ele>
        <time>2020-09-12T10:55:15.000Z</time>
      </trkpt>
      <trkpt lat="47.29603" lon="-1.37858">
        <ele>53</ele>
        <time>2020-09-12T10:55:17.000Z</time>
      </trkpt>
      <trkpt lat="47.29595" lon="-1.37874">
        <ele>53</ele>
        <time>2020-09-12T10:55:19.000Z</time>
      </trkpt>
      <trkpt lat="47.29588" lon="-1.3789">
        <ele>54</ele>
        <time>2020-09-12T10:55:21.000Z</time>
      </trkpt>
      <trkpt lat="47.29581" lon="-1.37906">
        <ele>55</ele>
        <time>2020-09-12T10:55:23.000Z</time>
      </trkpt>
      <trkpt lat="47.29574" lon="-1.37922">
        <ele>55</ele>
        <time>2020-09-12T10:55:25.000Z</time>
      </trkpt>
      <trkpt lat="47.29567" lon="-1.37937">
        <ele>55</ele>
        <time>2020-09-12T10:55:27.000Z</time>
      </trkpt>
      <trkpt lat="47.29561" lon="-1.37954">
        <ele>55</ele>
        <time>2020-09-12T10:55:29.000Z</time>
      </trkpt>
      <trkpt lat="47.29555" lon="-1.37971">
        <ele>55</ele>
        <time>2020-09-12T10:55:31.000Z</time>
      </trkpt>
      <trkpt lat="47.29548" lon="-1.37988">
        <ele>55</ele>
        <time>2020-09-12T10:55:33.000Z</time>
      </trkpt>
      <trkpt lat="47.29542" lon="-1.38006">
        <ele>56</ele>
        <time>2020-09-12T10:55:35.000Z</time>
      </trkpt>
      <trkpt lat="47.29535" lon="-1.38024">
        <ele>56</ele>
        <time>2020-09-12T10:55:37.000Z</time>
      </trkpt>
      <trkpt lat="47.29528" lon="-1.38042">
        <ele>56</ele>
        <time>2020-09-12T10:55:39.000Z</time>
      </trkpt>
      <trkpt lat="47.29522" lon="-1.3806">
        <ele>56</ele>
        <time>2020-09-12T10:55:41.000Z</time>
      </trkpt>
      <trkpt lat="47.29516" lon="-1.38079">
        <ele>56</ele>
        <time>2020-09-12T10:55:43.000Z</time>
      </trkpt>
      <trkpt lat="47.29511" lon="-1.38098">
        <ele>56</ele>
        <time>2020-09-12T10:55:45.000Z</time>
      </trkpt>
      <trkpt lat="47.29505" lon="-1.38116">
        <ele>56</ele>
        <time>2020-09-12T10:55:47.000Z</time>
      </trkpt>
      <trkpt lat="47.295" lon="-1.38134">
        <ele>56</ele>
        <time>2020-09-12T10:55:49.000Z</time>
      </trkpt>
      <trkpt lat="47.29495" lon="-1.38152">
        <ele>57</ele>
        <time>2020-09-12T10:55:51.000Z</time>
      </trkpt>
      <trkpt lat="47.29491" lon="-1.38171">
        <ele>57</ele>
        <time>2020-09-12T10:55:53.000Z</time>
      </trkpt>
      <trkpt lat="47.29486" lon="-1.3819">
        <ele>57</ele>
        <time>2020-09-12T10:55:55.000Z</time>
      </trkpt>
      <trkpt lat="47.29481" lon="-1.38209">
        <ele>57</ele>
        <time>2020-09-12T10:55:57.000Z</time>
      </trkpt>
      <trkpt lat="47.29475" lon="-1.38226">
        <ele>57</ele>
        <time>2020-09-12T10:55:59.000Z</time>
      </trkpt>
      <trkpt lat="47.2947" lon="-1.38245">
        <ele>57</ele>
        <time>2020-09-12T10:56:01.000Z</time>
      </trkpt>
      <trkpt lat="47.29465" lon="-1.38263">
        <ele>57</ele>
        <time>2020-09-12T10:56:03.000Z</time>
      </trkpt>
      <trkpt lat="47.29461" lon="-1.38282">
        <ele>57</ele>
        <time>2020-09-12T10:56:05.000Z</time>
      </trkpt>
      <trkpt lat="47.29456" lon="-1.383">
        <ele>58</ele>
        <time>2020-09-12T10:56:07.000Z</time>
      </trkpt>
      <trkpt lat="47.29451" lon="-1.38316">
        <ele>59</ele>
        <time>2020-09-12T10:56:09.000Z</time>
      </trkpt>
      <trkpt lat="47.29444" lon="-1.3833">
        <ele>60</ele>
        <time>2020-09-12T10:56:11.000Z</time>
      </trkpt>
      <trkpt lat="47.29438" lon="-1.38346">
        <ele>60</ele>
        <time>2020-09-12T10:56:13.000Z</time>
      </trkpt>
      <trkpt lat="47.29436" lon="-1.38365">
        <ele>59</ele>
        <time>2020-09-12T10:56:15.000Z</time>
      </trkpt>
      <trkpt lat="47.29431" lon="-1.38386">
        <ele>59</ele>
        <time>2020-09-12T10:56:17.000Z</time>
      </trkpt>
      <trkpt lat="47.29426" lon="-1.38406">
        <ele>58</ele>
        <time>2020-09-12T10:56:19.000Z</time>
      </trkpt>
      <trkpt lat="47.2942" lon="-1.38426">
        <ele>58</ele>
        <time>2020-09-12T10:56:21.000Z</time>
      </trkpt>
      <trkpt lat="47.29415" lon="-1.38446">
        <ele>57</ele>
        <time>2020-09-12T10:56:23.000Z</time>
      </trkpt>
      <trkpt lat="47.29409" lon="-1.38467">
        <ele>57</ele>
        <time>2020-09-12T10:56:25.000Z</time>
      </trkpt>
      <trkpt lat="47.29403" lon="-1.38486">
        <ele>56</ele>
        <time>2020-09-12T10:56:27.000Z</time>
      </trkpt>
      <trkpt lat="47.29398" lon="-1.38506">
        <ele>56</ele>
        <time>2020-09-12T10:56:29.000Z</time>
      </trkpt>
      <trkpt lat="47.29393" lon="-1.38526">
        <ele>56</ele>
        <time>2020-09-12T10:56:31.000Z</time>
      </trkpt>
      <trkpt lat="47.29388" lon="-1.38542">
        <ele>57</ele>
        <time>2020-09-12T10:56:33.000Z</time>
      </trkpt>
      <trkpt lat="47.29382" lon="-1.38554">
        <ele>57</ele>
        <time>2020-09-12T10:56:35.000Z</time>
      </trkpt>
      <trkpt lat="47.29381" lon="-1.38568">
        <ele>57</ele>
        <time>2020-09-12T10:56:37.000Z</time>
      </trkpt>
      <trkpt lat="47.29377" lon="-1.38589">
        <ele>58</ele>
        <time>2020-09-12T10:56:39.000Z</time>
      </trkpt>
      <trkpt lat="47.29372" lon="-1.38609">
        <ele>57</ele>
        <time>2020-09-12T10:56:41.000Z</time>
      </trkpt>
      <trkpt lat="47.29366" lon="-1.3863">
        <ele>57</ele>
        <time>2020-09-12T10:56:43.000Z</time>
      </trkpt>
      <trkpt lat="47.2936" lon="-1.38652">
        <ele>57</ele>
        <time>2020-09-12T10:56:45.000Z</time>
      </trkpt>
      <trkpt lat="47.29353" lon="-1.38673">
        <ele>57</ele>
        <time>2020-09-12T10:56:47.000Z</time>
      </trkpt>
      <trkpt lat="47.29347" lon="-1.38695">
        <ele>57</ele>
        <time>2020-09-12T10:56:49.000Z</time>
      </trkpt>
      <trkpt lat="47.29341" lon="-1.38715">
        <ele>57</ele>
        <time>2020-09-12T10:56:51.000Z</time>
      </trkpt>
      <trkpt lat="47.29335" lon="-1.38737">
        <ele>57</ele>
        <time>2020-09-12T10:56:53.000Z</time>
      </trkpt>
      <trkpt lat="47.29329" lon="-1.38758">
        <ele>56</ele>
        <time>2020-09-12T10:56:55.000Z</time>
      </trkpt>
      <trkpt lat="47.29323" lon="-1.38779">
        <ele>56</ele>
        <time>2020-09-12T10:56:57.000Z</time>
      </trkpt>
      <trkpt lat="47.29318" lon="-1.38801">
        <ele>57</ele>
        <time>2020-09-12T10:56:59.000Z</time>
      </trkpt>
      <trkpt lat="47.29311" lon="-1.38822">
        <ele>56</ele>
        <time>2020-09-12T10:57:01.000Z</time>
      </trkpt>
      <trkpt lat="47.29306" lon="-1.38842">
        <ele>57</ele>
        <time>2020-09-12T10:57:03.000Z</time>
      </trkpt>
      <trkpt lat="47.29301" lon="-1.38863">
        <ele>57</ele>
        <time>2020-09-12T10:57:05.000Z</time>
      </trkpt>
      <trkpt lat="47.29295" lon="-1.38885">
        <ele>56</ele>
        <time>2020-09-12T10:57:07.000Z</time>
      </trkpt>
      <trkpt lat="47.29289" lon="-1.38905">
        <ele>56</ele>
        <time>2020-09-12T10:57:09.000Z</time>
      </trkpt>
      <trkpt lat="47.29283" lon="-1.38926">
        <ele>56</ele>
        <time>2020-09-12T10:57:11.000Z</time>
      </trkpt>
      <trkpt lat="47.29277" lon="-1.38948">
        <ele>56</ele>
        <time>2020-09-12T10:57:13.000Z</time>
      </trkpt>
      <trkpt lat="47.29271" lon="-1.38969">
        <ele>56</ele>
        <time>2020-09-12T10:57:15.000Z</time>
      </trkpt>
      <trkpt lat="47.29265" lon="-1.38992">
        <ele>56</ele>
        <time>2020-09-12T10:57:17.000Z</time>
      </trkpt>
      <trkpt lat="47.29259" lon="-1.39014">
        <ele>56</ele>
        <time>2020-09-12T10:57:19.000Z</time>
      </trkpt>
      <trkpt lat="47.29254" lon="-1.39036">
        <ele>56</ele>
        <time>2020-09-12T10:57:21.000Z</time>
      </trkpt>
      <trkpt lat="47.29247" lon="-1.39057">
        <ele>56</ele>
        <time>2020-09-12T10:57:23.000Z</time>
      </trkpt>
      <trkpt lat="47.29241" lon="-1.39078">
        <ele>56</ele>
        <time>2020-09-12T10:57:25.000Z</time>
      </trkpt>
      <trkpt lat="47.29234" lon="-1.39099">
        <ele>56</ele>
        <time>2020-09-12T10:57:27.000Z</time>
      </trkpt>
      <trkpt lat="47.29226" lon="-1.39118">
        <ele>57</ele>
        <time>2020-09-12T10:57:29.000Z</time>
      </trkpt>
      <trkpt lat="47.29215" lon="-1.39134">
        <ele>57</ele>
        <time>2020-09-12T10:57:31.000Z</time>
      </trkpt>
      <trkpt lat="47.29204" lon="-1.39149">
        <ele>57</ele>
        <time>2020-09-12T10:57:33.000Z</time>
      </trkpt>
      <trkpt lat="47.29191" lon="-1.39164">
        <ele>57</ele>
        <time>2020-09-12T10:57:35.000Z</time>
      </trkpt>
      <trkpt lat="47.29178" lon="-1.39179">
        <ele>57</ele>
        <time>2020-09-12T10:57:37.000Z</time>
      </trkpt>
      <trkpt lat="47.29166" lon="-1.39194">
        <ele>57</ele>
        <time>2020-09-12T10:57:39.000Z</time>
      </trkpt>
      <trkpt lat="47.29153" lon="-1.39209">
        <ele>57</ele>
        <time>2020-09-12T10:57:41.000Z</time>
      </trkpt>
      <trkpt lat="47.29141" lon="-1.39224">
        <ele>56</ele>
        <time>2020-09-12T10:57:43.000Z</time>
      </trkpt>
      <trkpt lat="47.29129" lon="-1.39239">
        <ele>56</ele>
        <time>2020-09-12T10:57:45.000Z</time>
      </trkpt>
      <trkpt lat="47.29117" lon="-1.39255">
        <ele>56</ele>
        <time>2020-09-12T10:57:47.000Z</time>
      </trkpt>
      <trkpt lat="47.29106" lon="-1.39274">
        <ele>56</ele>
        <time>2020-09-12T10:57:49.000Z</time>
      </trkpt>
      <trkpt lat="47.29096" lon="-1.39294">
        <ele>57</ele>
        <time>2020-09-12T10:57:51.000Z</time>
      </trkpt>
      <trkpt lat="47.29084" lon="-1.39313">
        <ele>57</ele>
        <time>2020-09-12T10:57:53.000Z</time>
      </trkpt>
      <trkpt lat="47.29067" lon="-1.3932">
        <ele>57</ele>
        <time>2020-09-12T10:57:55.000Z</time>
      </trkpt>
      <trkpt lat="47.29058" lon="-1.39325">
        <ele>56</ele>
        <time>2020-09-12T10:57:56.000Z</time>
      </trkpt>
      <trkpt lat="47.2905" lon="-1.39332">
        <ele>56</ele>
        <time>2020-09-12T10:57:57.000Z</time>
      </trkpt>
      <trkpt lat="47.29041" lon="-1.39341">
        <ele>55</ele>
        <time>2020-09-12T10:57:58.000Z</time>
      </trkpt>
      <trkpt lat="47.29034" lon="-1.3935">
        <ele>55</ele>
        <time>2020-09-12T10:57:59.000Z</time>
      </trkpt>
      <trkpt lat="47.29026" lon="-1.39359">
        <ele>55</ele>
        <time>2020-09-12T10:58:00.000Z</time>
      </trkpt>
      <trkpt lat="47.29013" lon="-1.39374">
        <ele>55</ele>
        <time>2020-09-12T10:58:02.000Z</time>
      </trkpt>
      <trkpt lat="47.28999" lon="-1.39391">
        <ele>55</ele>
        <time>2020-09-12T10:58:04.000Z</time>
      </trkpt>
      <trkpt lat="47.28986" lon="-1.39408">
        <ele>55</ele>
        <time>2020-09-12T10:58:06.000Z</time>
      </trkpt>
      <trkpt lat="47.28973" lon="-1.39424">
        <ele>55</ele>
        <time>2020-09-12T10:58:08.000Z</time>
      </trkpt>
      <trkpt lat="47.28961" lon="-1.39439">
        <ele>55</ele>
        <time>2020-09-12T10:58:10.000Z</time>
      </trkpt>
      <trkpt lat="47.28949" lon="-1.39454">
        <ele>55</ele>
        <time>2020-09-12T10:58:12.000Z</time>
      </trkpt>
      <trkpt lat="47.28937" lon="-1.39468">
        <ele>55</ele>
        <time>2020-09-12T10:58:14.000Z</time>
      </trkpt>
      <trkpt lat="47.28926" lon="-1.39482">
        <ele>55</ele>
        <time>2020-09-12T10:58:16.000Z</time>
      </trkpt>
      <trkpt lat="47.28915" lon="-1.39495">
        <ele>55</ele>
        <time>2020-09-12T10:58:18.000Z</time>
      </trkpt>
      <trkpt lat="47.28904" lon="-1.39509">
        <ele>55</ele>
        <time>2020-09-12T10:58:20.000Z</time>
      </trkpt>
      <trkpt lat="47.28892" lon="-1.39523">
        <ele>55</ele>
        <time>2020-09-12T10:58:22.000Z</time>
      </trkpt>
      <trkpt lat="47.2888" lon="-1.39536">
        <ele>54</ele>
        <time>2020-09-12T10:58:24.000Z</time>
      </trkpt>
      <trkpt lat="47.28868" lon="-1.3955">
        <ele>54</ele>
        <time>2020-09-12T10:58:26.000Z</time>
      </trkpt>
      <trkpt lat="47.28857" lon="-1.39564">
        <ele>54</ele>
        <time>2020-09-12T10:58:28.000Z</time>
      </trkpt>
      <trkpt lat="47.28845" lon="-1.39578">
        <ele>54</ele>
        <time>2020-09-12T10:58:30.000Z</time>
      </trkpt>
      <trkpt lat="47.28834" lon="-1.39592">
        <ele>54</ele>
        <time>2020-09-12T10:58:32.000Z</time>
      </trkpt>
      <trkpt lat="47.28822" lon="-1.39606">
        <ele>54</ele>
        <time>2020-09-12T10:58:34.000Z</time>
      </trkpt>
      <trkpt lat="47.28811" lon="-1.39619">
        <ele>54</ele>
        <time>2020-09-12T10:58:36.000Z</time>
      </trkpt>
      <trkpt lat="47.28799" lon="-1.39634">
        <ele>53</ele>
        <time>2020-09-12T10:58:38.000Z</time>
      </trkpt>
      <trkpt lat="47.28788" lon="-1.39647">
        <ele>53</ele>
        <time>2020-09-12T10:58:40.000Z</time>
      </trkpt>
      <trkpt lat="47.28777" lon="-1.39661">
        <ele>53</ele>
        <time>2020-09-12T10:58:42.000Z</time>
      </trkpt>
      <trkpt lat="47.28766" lon="-1.39674">
        <ele>53</ele>
        <time>2020-09-12T10:58:44.000Z</time>
      </trkpt>
      <trkpt lat="47.28754" lon="-1.39688">
        <ele>53</ele>
        <time>2020-09-12T10:58:46.000Z</time>
      </trkpt>
      <trkpt lat="47.28743" lon="-1.39702">
        <ele>53</ele>
        <time>2020-09-12T10:58:48.000Z</time>
      </trkpt>
      <trkpt lat="47.28731" lon="-1.39715">
        <ele>53</ele>
        <time>2020-09-12T10:58:50.000Z</time>
      </trkpt>
      <trkpt lat="47.2872" lon="-1.39729">
        <ele>53</ele>
        <time>2020-09-12T10:58:52.000Z</time>
      </trkpt>
      <trkpt lat="47.28709" lon="-1.39742">
        <ele>53</ele>
        <time>2020-09-12T10:58:54.000Z</time>
      </trkpt>
      <trkpt lat="47.28697" lon="-1.39756">
        <ele>53</ele>
        <time>2020-09-12T10:58:56.000Z</time>
      </trkpt>
      <trkpt lat="47.28686" lon="-1.3977">
        <ele>54</ele>
        <time>2020-09-12T10:58:58.000Z</time>
      </trkpt>
      <trkpt lat="47.28675" lon="-1.39784">
        <ele>54</ele>
        <time>2020-09-12T10:59:00.000Z</time>
      </trkpt>
      <trkpt lat="47.28664" lon="-1.39799">
        <ele>54</ele>
        <time>2020-09-12T10:59:02.000Z</time>
      </trkpt>
      <trkpt lat="47.28654" lon="-1.39814">
        <ele>54</ele>
        <time>2020-09-12T10:59:04.000Z</time>
      </trkpt>
      <trkpt lat="47.28644" lon="-1.3983">
        <ele>55</ele>
        <time>2020-09-12T10:59:06.000Z</time>
      </trkpt>
      <trkpt lat="47.28634" lon="-1.39846">
        <ele>55</ele>
        <time>2020-09-12T10:59:08.000Z</time>
      </trkpt>
      <trkpt lat="47.28624" lon="-1.39861">
        <ele>55</ele>
        <time>2020-09-12T10:59:10.000Z</time>
      </trkpt>
      <trkpt lat="47.28615" lon="-1.39876">
        <ele>55</ele>
        <time>2020-09-12T10:59:12.000Z</time>
      </trkpt>
      <trkpt lat="47.28605" lon="-1.39891">
        <ele>55</ele>
        <time>2020-09-12T10:59:14.000Z</time>
      </trkpt>
      <trkpt lat="47.28595" lon="-1.39906">
        <ele>54</ele>
        <time>2020-09-12T10:59:16.000Z</time>
      </trkpt>
      <trkpt lat="47.28585" lon="-1.39921">
        <ele>54</ele>
        <time>2020-09-12T10:59:18.000Z</time>
      </trkpt>
      <trkpt lat="47.28575" lon="-1.39936">
        <ele>54</ele>
        <time>2020-09-12T10:59:20.000Z</time>
      </trkpt>
      <trkpt lat="47.28565" lon="-1.39951">
        <ele>54</ele>
        <time>2020-09-12T10:59:22.000Z</time>
      </trkpt>
      <trkpt lat="47.28555" lon="-1.39966">
        <ele>54</ele>
        <time>2020-09-12T10:59:24.000Z</time>
      </trkpt>
      <trkpt lat="47.28545" lon="-1.3998">
        <ele>54</ele>
        <time>2020-09-12T10:59:26.000Z</time>
      </trkpt>
      <trkpt lat="47.28534" lon="-1.39994">
        <ele>53</ele>
        <time>2020-09-12T10:59:28.000Z</time>
      </trkpt>
      <trkpt lat="47.28523" lon="-1.40008">
        <ele>53</ele>
        <time>2020-09-12T10:59:30.000Z</time>
      </trkpt>
      <trkpt lat="47.28514" lon="-1.40022">
        <ele>53</ele>
        <time>2020-09-12T10:59:32.000Z</time>
      </trkpt>
      <trkpt lat="47.28504" lon="-1.40037">
        <ele>53</ele>
        <time>2020-09-12T10:59:34.000Z</time>
      </trkpt>
      <trkpt lat="47.28496" lon="-1.40054">
        <ele>53</ele>
        <time>2020-09-12T10:59:36.000Z</time>
      </trkpt>
      <trkpt lat="47.28488" lon="-1.40071">
        <ele>52</ele>
        <time>2020-09-12T10:59:38.000Z</time>
      </trkpt>
      <trkpt lat="47.28481" lon="-1.40087">
        <ele>52</ele>
        <time>2020-09-12T10:59:40.000Z</time>
      </trkpt>
      <trkpt lat="47.28474" lon="-1.40104">
        <ele>52</ele>
        <time>2020-09-12T10:59:42.000Z</time>
      </trkpt>
      <trkpt lat="47.28468" lon="-1.40121">
        <ele>52</ele>
        <time>2020-09-12T10:59:44.000Z</time>
      </trkpt>
      <trkpt lat="47.28461" lon="-1.40139">
        <ele>51</ele>
        <time>2020-09-12T10:59:46.000Z</time>
      </trkpt>
      <trkpt lat="47.28454" lon="-1.40158">
        <ele>52</ele>
        <time>2020-09-12T10:59:48.000Z</time>
      </trkpt>
      <trkpt lat="47.28448" lon="-1.40176">
        <ele>52</ele>
        <time>2020-09-12T10:59:50.000Z</time>
      </trkpt>
      <trkpt lat="47.2844" lon="-1.40194">
        <ele>51</ele>
        <time>2020-09-12T10:59:52.000Z</time>
      </trkpt>
      <trkpt lat="47.28433" lon="-1.40211">
        <ele>51</ele>
        <time>2020-09-12T10:59:54.000Z</time>
      </trkpt>
      <trkpt lat="47.28426" lon="-1.40229">
        <ele>51</ele>
        <time>2020-09-12T10:59:56.000Z</time>
      </trkpt>
      <trkpt lat="47.28419" lon="-1.40247">
        <ele>50</ele>
        <time>2020-09-12T10:59:58.000Z</time>
      </trkpt>
      <trkpt lat="47.2841" lon="-1.40265">
        <ele>50</ele>
        <time>2020-09-12T11:00:00.000Z</time>
      </trkpt>
      <trkpt lat="47.28401" lon="-1.40283">
        <ele>50</ele>
        <time>2020-09-12T11:00:02.000Z</time>
      </trkpt>
      <trkpt lat="47.28392" lon="-1.40302">
        <ele>51</ele>
        <time>2020-09-12T11:00:04.000Z</time>
      </trkpt>
      <trkpt lat="47.28382" lon="-1.40319">
        <ele>51</ele>
        <time>2020-09-12T11:00:06.000Z</time>
      </trkpt>
      <trkpt lat="47.28372" lon="-1.40335">
        <ele>52</ele>
        <time>2020-09-12T11:00:08.000Z</time>
      </trkpt>
      <trkpt lat="47.28362" lon="-1.4035">
        <ele>52</ele>
        <time>2020-09-12T11:00:10.000Z</time>
      </trkpt>
      <trkpt lat="47.28352" lon="-1.40363">
        <ele>52</ele>
        <time>2020-09-12T11:00:12.000Z</time>
      </trkpt>
      <trkpt lat="47.28342" lon="-1.40378">
        <ele>52</ele>
        <time>2020-09-12T11:00:14.000Z</time>
      </trkpt>
      <trkpt lat="47.28332" lon="-1.40392">
        <ele>52</ele>
        <time>2020-09-12T11:00:16.000Z</time>
      </trkpt>
      <trkpt lat="47.28321" lon="-1.40405">
        <ele>52</ele>
        <time>2020-09-12T11:00:18.000Z</time>
      </trkpt>
      <trkpt lat="47.28311" lon="-1.40418">
        <ele>53</ele>
        <time>2020-09-12T11:00:20.000Z</time>
      </trkpt>
      <trkpt lat="47.28299" lon="-1.4043">
        <ele>53</ele>
        <time>2020-09-12T11:00:22.000Z</time>
      </trkpt>
      <trkpt lat="47.28287" lon="-1.40441">
        <ele>53</ele>
        <time>2020-09-12T11:00:24.000Z</time>
      </trkpt>
      <trkpt lat="47.28275" lon="-1.40453">
        <ele>53</ele>
        <time>2020-09-12T11:00:26.000Z</time>
      </trkpt>
      <trkpt lat="47.28264" lon="-1.40463">
        <ele>54</ele>
        <time>2020-09-12T11:00:28.000Z</time>
      </trkpt>
      <trkpt lat="47.28252" lon="-1.40474">
        <ele>54</ele>
        <time>2020-09-12T11:00:30.000Z</time>
      </trkpt>
      <trkpt lat="47.28241" lon="-1.40485">
        <ele>54</ele>
        <time>2020-09-12T11:00:32.000Z</time>
      </trkpt>
      <trkpt lat="47.2823" lon="-1.40496">
        <ele>54</ele>
        <time>2020-09-12T11:00:34.000Z</time>
      </trkpt>
      <trkpt lat="47.28218" lon="-1.40507">
        <ele>54</ele>
        <time>2020-09-12T11:00:36.000Z</time>
      </trkpt>
      <trkpt lat="47.28206" lon="-1.40519">
        <ele>54</ele>
        <time>2020-09-12T11:00:38.000Z</time>
      </trkpt>
      <trkpt lat="47.28195" lon="-1.40531">
        <ele>54</ele>
        <time>2020-09-12T11:00:40.000Z</time>
      </trkpt>
      <trkpt lat="47.28183" lon="-1.40542">
        <ele>54</ele>
        <time>2020-09-12T11:00:42.000Z</time>
      </trkpt>
      <trkpt lat="47.28171" lon="-1.40553">
        <ele>54</ele>
        <time>2020-09-12T11:00:44.000Z</time>
      </trkpt>
      <trkpt lat="47.28159" lon="-1.40565">
        <ele>53</ele>
        <time>2020-09-12T11:00:46.000Z</time>
      </trkpt>
      <trkpt lat="47.28147" lon="-1.40576">
        <ele>53</ele>
        <time>2020-09-12T11:00:48.000Z</time>
      </trkpt>
      <trkpt lat="47.28135" lon="-1.40587">
        <ele>53</ele>
        <time>2020-09-12T11:00:50.000Z</time>
      </trkpt>
      <trkpt lat="47.28123" lon="-1.40599">
        <ele>54</ele>
        <time>2020-09-12T11:00:52.000Z</time>
      </trkpt>
      <trkpt lat="47.28112" lon="-1.4061">
        <ele>54</ele>
        <time>2020-09-12T11:00:54.000Z</time>
      </trkpt>
      <trkpt lat="47.281" lon="-1.40621">
        <ele>53</ele>
        <time>2020-09-12T11:00:56.000Z</time>
      </trkpt>
      <trkpt lat="47.28088" lon="-1.40632">
        <ele>53</ele>
        <time>2020-09-12T11:00:58.000Z</time>
      </trkpt>
      <trkpt lat="47.28076" lon="-1.40642">
        <ele>53</ele>
        <time>2020-09-12T11:01:00.000Z</time>
      </trkpt>
      <trkpt lat="47.28064" lon="-1.40654">
        <ele>52</ele>
        <time>2020-09-12T11:01:02.000Z</time>
      </trkpt>
      <trkpt lat="47.28052" lon="-1.40665">
        <ele>52</ele>
        <time>2020-09-12T11:01:04.000Z</time>
      </trkpt>
      <trkpt lat="47.28041" lon="-1.40676">
        <ele>52</ele>
        <time>2020-09-12T11:01:06.000Z</time>
      </trkpt>
      <trkpt lat="47.28029" lon="-1.40688">
        <ele>51</ele>
        <time>2020-09-12T11:01:08.000Z</time>
      </trkpt>
      <trkpt lat="47.28018" lon="-1.40701">
        <ele>52</ele>
        <time>2020-09-12T11:01:10.000Z</time>
      </trkpt>
      <trkpt lat="47.28007" lon="-1.40713">
        <ele>52</ele>
        <time>2020-09-12T11:01:12.000Z</time>
      </trkpt>
      <trkpt lat="47.27995" lon="-1.40725">
        <ele>52</ele>
        <time>2020-09-12T11:01:14.000Z</time>
      </trkpt>
      <trkpt lat="47.27983" lon="-1.40736">
        <ele>52</ele>
        <time>2020-09-12T11:01:16.000Z</time>
      </trkpt>
      <trkpt lat="47.27971" lon="-1.40747">
        <ele>52</ele>
        <time>2020-09-12T11:01:18.000Z</time>
      </trkpt>
      <trkpt lat="47.27959" lon="-1.40758">
        <ele>53</ele>
        <time>2020-09-12T11:01:20.000Z</time>
      </trkpt>
      <trkpt lat="47.27947" lon="-1.40769">
        <ele>53</ele>
        <time>2020-09-12T11:01:22.000Z</time>
      </trkpt>
      <trkpt lat="47.27935" lon="-1.4078">
        <ele>53</ele>
        <time>2020-09-12T11:01:24.000Z</time>
      </trkpt>
      <trkpt lat="47.27923" lon="-1.40791">
        <ele>53</ele>
        <time>2020-09-12T11:01:26.000Z</time>
      </trkpt>
      <trkpt lat="47.27912" lon="-1.40802">
        <ele>53</ele>
        <time>2020-09-12T11:01:28.000Z</time>
      </trkpt>
      <trkpt lat="47.279" lon="-1.40814">
        <ele>54</ele>
        <time>2020-09-12T11:01:30.000Z</time>
      </trkpt>
      <trkpt lat="47.2789" lon="-1.40826">
        <ele>54</ele>
        <time>2020-09-12T11:01:32.000Z</time>
      </trkpt>
      <trkpt lat="47.2788" lon="-1.40841">
        <ele>54</ele>
        <time>2020-09-12T11:01:34.000Z</time>
      </trkpt>
      <trkpt lat="47.27872" lon="-1.40858">
        <ele>54</ele>
        <time>2020-09-12T11:01:36.000Z</time>
      </trkpt>
      <trkpt lat="47.27864" lon="-1.40874">
        <ele>54</ele>
        <time>2020-09-12T11:01:38.000Z</time>
      </trkpt>
      <trkpt lat="47.27857" lon="-1.40891">
        <ele>54</ele>
        <time>2020-09-12T11:01:40.000Z</time>
      </trkpt>
      <trkpt lat="47.27849" lon="-1.40908">
        <ele>54</ele>
        <time>2020-09-12T11:01:42.000Z</time>
      </trkpt>
      <trkpt lat="47.27841" lon="-1.40924">
        <ele>54</ele>
        <time>2020-09-12T11:01:44.000Z</time>
      </trkpt>
      <trkpt lat="47.27833" lon="-1.4094">
        <ele>54</ele>
        <time>2020-09-12T11:01:46.000Z</time>
      </trkpt>
      <trkpt lat="47.27825" lon="-1.40956">
        <ele>54</ele>
        <time>2020-09-12T11:01:48.000Z</time>
      </trkpt>
      <trkpt lat="47.27816" lon="-1.40971">
        <ele>54</ele>
        <time>2020-09-12T11:01:50.000Z</time>
      </trkpt>
      <trkpt lat="47.27807" lon="-1.40986">
        <ele>54</ele>
        <time>2020-09-12T11:01:52.000Z</time>
      </trkpt>
      <trkpt lat="47.27798" lon="-1.41">
        <ele>54</ele>
        <time>2020-09-12T11:01:54.000Z</time>
      </trkpt>
      <trkpt lat="47.27788" lon="-1.41014">
        <ele>54</ele>
        <time>2020-09-12T11:01:56.000Z</time>
      </trkpt>
      <trkpt lat="47.2778" lon="-1.41028">
        <ele>54</ele>
        <time>2020-09-12T11:01:58.000Z</time>
      </trkpt>
      <trkpt lat="47.27774" lon="-1.41046">
        <ele>54</ele>
        <time>2020-09-12T11:02:00.000Z</time>
      </trkpt>
      <trkpt lat="47.27767" lon="-1.41064">
        <ele>55</ele>
        <time>2020-09-12T11:02:02.000Z</time>
      </trkpt>
      <trkpt lat="47.27757" lon="-1.41078">
        <ele>54</ele>
        <time>2020-09-12T11:02:04.000Z</time>
      </trkpt>
      <trkpt lat="47.27745" lon="-1.41089">
        <ele>55</ele>
        <time>2020-09-12T11:02:06.000Z</time>
      </trkpt>
      <trkpt lat="47.27734" lon="-1.411">
        <ele>54</ele>
        <time>2020-09-12T11:02:08.000Z</time>
      </trkpt>
      <trkpt lat="47.27722" lon="-1.41112">
        <ele>54</ele>
        <time>2020-09-12T11:02:10.000Z</time>
      </trkpt>
      <trkpt lat="47.2771" lon="-1.41124">
        <ele>54</ele>
        <time>2020-09-12T11:02:12.000Z</time>
      </trkpt>
      <trkpt lat="47.27698" lon="-1.41136">
        <ele>54</ele>
        <time>2020-09-12T11:02:14.000Z</time>
      </trkpt>
      <trkpt lat="47.27687" lon="-1.41147">
        <ele>55</ele>
        <time>2020-09-12T11:02:16.000Z</time>
      </trkpt>
      <trkpt lat="47.27676" lon="-1.41161">
        <ele>54</ele>
        <time>2020-09-12T11:02:18.000Z</time>
      </trkpt>
      <trkpt lat="47.27666" lon="-1.41175">
        <ele>55</ele>
        <time>2020-09-12T11:02:20.000Z</time>
      </trkpt>
      <trkpt lat="47.27654" lon="-1.41187">
        <ele>55</ele>
        <time>2020-09-12T11:02:22.000Z</time>
      </trkpt>
      <trkpt lat="47.27643" lon="-1.41198">
        <ele>55</ele>
        <time>2020-09-12T11:02:24.000Z</time>
      </trkpt>
      <trkpt lat="47.27631" lon="-1.4121">
        <ele>55</ele>
        <time>2020-09-12T11:02:26.000Z</time>
      </trkpt>
      <trkpt lat="47.2762" lon="-1.41222">
        <ele>55</ele>
        <time>2020-09-12T11:02:28.000Z</time>
      </trkpt>
      <trkpt lat="47.27608" lon="-1.41233">
        <ele>55</ele>
        <time>2020-09-12T11:02:30.000Z</time>
      </trkpt>
      <trkpt lat="47.27597" lon="-1.41245">
        <ele>54</ele>
        <time>2020-09-12T11:02:32.000Z</time>
      </trkpt>
      <trkpt lat="47.27586" lon="-1.41258">
        <ele>54</ele>
        <time>2020-09-12T11:02:34.000Z</time>
      </trkpt>
      <trkpt lat="47.27574" lon="-1.41271">
        <ele>54</ele>
        <time>2020-09-12T11:02:36.000Z</time>
      </trkpt>
      <trkpt lat="47.27563" lon="-1.41284">
        <ele>54</ele>
        <time>2020-09-12T11:02:38.000Z</time>
      </trkpt>
      <trkpt lat="47.27553" lon="-1.41297">
        <ele>54</ele>
        <time>2020-09-12T11:02:40.000Z</time>
      </trkpt>
      <trkpt lat="47.27543" lon="-1.41311">
        <ele>54</ele>
        <time>2020-09-12T11:02:42.000Z</time>
      </trkpt>
      <trkpt lat="47.27533" lon="-1.41324">
        <ele>54</ele>
        <time>2020-09-12T11:02:44.000Z</time>
      </trkpt>
      <trkpt lat="47.27522" lon="-1.41338">
        <ele>54</ele>
        <time>2020-09-12T11:02:46.000Z</time>
      </trkpt>
      <trkpt lat="47.27512" lon="-1.41353">
        <ele>54</ele>
        <time>2020-09-12T11:02:48.000Z</time>
      </trkpt>
      <trkpt lat="47.27502" lon="-1.41368">
        <ele>54</ele>
        <time>2020-09-12T11:02:50.000Z</time>
      </trkpt>
      <trkpt lat="47.27492" lon="-1.41383">
        <ele>53</ele>
        <time>2020-09-12T11:02:52.000Z</time>
      </trkpt>
      <trkpt lat="47.27483" lon="-1.41398">
        <ele>53</ele>
        <time>2020-09-12T11:02:54.000Z</time>
      </trkpt>
      <trkpt lat="47.27473" lon="-1.41414">
        <ele>53</ele>
        <time>2020-09-12T11:02:56.000Z</time>
      </trkpt>
      <trkpt lat="47.27464" lon="-1.4143">
        <ele>53</ele>
        <time>2020-09-12T11:02:58.000Z</time>
      </trkpt>
      <trkpt lat="47.27455" lon="-1.41447">
        <ele>53</ele>
        <time>2020-09-12T11:03:00.000Z</time>
      </trkpt>
      <trkpt lat="47.27446" lon="-1.41463">
        <ele>53</ele>
        <time>2020-09-12T11:03:02.000Z</time>
      </trkpt>
      <trkpt lat="47.27437" lon="-1.41479">
        <ele>52</ele>
        <time>2020-09-12T11:03:04.000Z</time>
      </trkpt>
      <trkpt lat="47.27428" lon="-1.41495">
        <ele>52</ele>
        <time>2020-09-12T11:03:06.000Z</time>
      </trkpt>
      <trkpt lat="47.27418" lon="-1.41512">
        <ele>53</ele>
        <time>2020-09-12T11:03:08.000Z</time>
      </trkpt>
      <trkpt lat="47.27409" lon="-1.41527">
        <ele>53</ele>
        <time>2020-09-12T11:03:10.000Z</time>
      </trkpt>
      <trkpt lat="47.274" lon="-1.41542">
        <ele>52</ele>
        <time>2020-09-12T11:03:12.000Z</time>
      </trkpt>
      <trkpt lat="47.2739" lon="-1.41557">
        <ele>53</ele>
        <time>2020-09-12T11:03:14.000Z</time>
      </trkpt>
      <trkpt lat="47.2738" lon="-1.41572">
        <ele>53</ele>
        <time>2020-09-12T11:03:16.000Z</time>
      </trkpt>
      <trkpt lat="47.27371" lon="-1.41587">
        <ele>53</ele>
        <time>2020-09-12T11:03:18.000Z</time>
      </trkpt>
      <trkpt lat="47.27361" lon="-1.41602">
        <ele>53</ele>
        <time>2020-09-12T11:03:20.000Z</time>
      </trkpt>
      <trkpt lat="47.27351" lon="-1.41616">
        <ele>53</ele>
        <time>2020-09-12T11:03:22.000Z</time>
      </trkpt>
      <trkpt lat="47.27341" lon="-1.4163">
        <ele>52</ele>
        <time>2020-09-12T11:03:24.000Z</time>
      </trkpt>
      <trkpt lat="47.27331" lon="-1.41645">
        <ele>52</ele>
        <time>2020-09-12T11:03:26.000Z</time>
      </trkpt>
      <trkpt lat="47.27322" lon="-1.41661">
        <ele>52</ele>
        <time>2020-09-12T11:03:28.000Z</time>
      </trkpt>
      <trkpt lat="47.27313" lon="-1.41677">
        <ele>53</ele>
        <time>2020-09-12T11:03:30.000Z</time>
      </trkpt>
      <trkpt lat="47.27305" lon="-1.41693">
        <ele>52</ele>
        <time>2020-09-12T11:03:32.000Z</time>
      </trkpt>
      <trkpt lat="47.27296" lon="-1.4171">
        <ele>52</ele>
        <time>2020-09-12T11:03:34.000Z</time>
      </trkpt>
      <trkpt lat="47.27288" lon="-1.41726">
        <ele>52</ele>
        <time>2020-09-12T11:03:36.000Z</time>
      </trkpt>
      <trkpt lat="47.2728" lon="-1.41743">
        <ele>52</ele>
        <time>2020-09-12T11:03:38.000Z</time>
      </trkpt>
      <trkpt lat="47.27271" lon="-1.4176">
        <ele>52</ele>
        <time>2020-09-12T11:03:40.000Z</time>
      </trkpt>
      <trkpt lat="47.27262" lon="-1.41776">
        <ele>52</ele>
        <time>2020-09-12T11:03:42.000Z</time>
      </trkpt>
      <trkpt lat="47.27254" lon="-1.41792">
        <ele>53</ele>
        <time>2020-09-12T11:03:44.000Z</time>
      </trkpt>
      <trkpt lat="47.27245" lon="-1.41808">
        <ele>52</ele>
        <time>2020-09-12T11:03:46.000Z</time>
      </trkpt>
      <trkpt lat="47.27236" lon="-1.41824">
        <ele>53</ele>
        <time>2020-09-12T11:03:48.000Z</time>
      </trkpt>
      <trkpt lat="47.27227" lon="-1.4184">
        <ele>53</ele>
        <time>2020-09-12T11:03:50.000Z</time>
      </trkpt>
      <trkpt lat="47.27219" lon="-1.41855">
        <ele>53</ele>
        <time>2020-09-12T11:03:52.000Z</time>
      </trkpt>
      <trkpt lat="47.2721" lon="-1.41871">
        <ele>52</ele>
        <time>2020-09-12T11:03:54.000Z</time>
      </trkpt>
      <trkpt lat="47.27201" lon="-1.41886">
        <ele>52</ele>
        <time>2020-09-12T11:03:56.000Z</time>
      </trkpt>
      <trkpt lat="47.27193" lon="-1.41902">
        <ele>52</ele>
        <time>2020-09-12T11:03:58.000Z</time>
      </trkpt>
      <trkpt lat="47.27184" lon="-1.41918">
        <ele>52</ele>
        <time>2020-09-12T11:04:00.000Z</time>
      </trkpt>
      <trkpt lat="47.27175" lon="-1.41934">
        <ele>52</ele>
        <time>2020-09-12T11:04:02.000Z</time>
      </trkpt>
      <trkpt lat="47.27166" lon="-1.41949">
        <ele>52</ele>
        <time>2020-09-12T11:04:04.000Z</time>
      </trkpt>
      <trkpt lat="47.27156" lon="-1.41965">
        <ele>52</ele>
        <time>2020-09-12T11:04:06.000Z</time>
      </trkpt>
      <trkpt lat="47.27148" lon="-1.4198">
        <ele>51</ele>
        <time>2020-09-12T11:04:08.000Z</time>
      </trkpt>
      <trkpt lat="47.27139" lon="-1.41997">
        <ele>51</ele>
        <time>2020-09-12T11:04:10.000Z</time>
      </trkpt>
      <trkpt lat="47.2713" lon="-1.42012">
        <ele>51</ele>
        <time>2020-09-12T11:04:12.000Z</time>
      </trkpt>
      <trkpt lat="47.2712" lon="-1.42027">
        <ele>51</ele>
        <time>2020-09-12T11:04:14.000Z</time>
      </trkpt>
      <trkpt lat="47.2711" lon="-1.42042">
        <ele>51</ele>
        <time>2020-09-12T11:04:16.000Z</time>
      </trkpt>
      <trkpt lat="47.27101" lon="-1.42057">
        <ele>51</ele>
        <time>2020-09-12T11:04:18.000Z</time>
      </trkpt>
      <trkpt lat="47.27091" lon="-1.42071">
        <ele>52</ele>
        <time>2020-09-12T11:04:20.000Z</time>
      </trkpt>
      <trkpt lat="47.27082" lon="-1.42087">
        <ele>51</ele>
        <time>2020-09-12T11:04:22.000Z</time>
      </trkpt>
      <trkpt lat="47.27072" lon="-1.42102">
        <ele>51</ele>
        <time>2020-09-12T11:04:24.000Z</time>
      </trkpt>
      <trkpt lat="47.27064" lon="-1.42118">
        <ele>51</ele>
        <time>2020-09-12T11:04:26.000Z</time>
      </trkpt>
      <trkpt lat="47.27055" lon="-1.42135">
        <ele>51</ele>
        <time>2020-09-12T11:04:28.000Z</time>
      </trkpt>
      <trkpt lat="47.27046" lon="-1.42151">
        <ele>51</ele>
        <time>2020-09-12T11:04:30.000Z</time>
      </trkpt>
      <trkpt lat="47.27038" lon="-1.42167">
        <ele>51</ele>
        <time>2020-09-12T11:04:32.000Z</time>
      </trkpt>
      <trkpt lat="47.27029" lon="-1.42183">
        <ele>51</ele>
        <time>2020-09-12T11:04:34.000Z</time>
      </trkpt>
      <trkpt lat="47.27019" lon="-1.42199">
        <ele>51</ele>
        <time>2020-09-12T11:04:36.000Z</time>
      </trkpt>
      <trkpt lat="47.27011" lon="-1.42214">
        <ele>51</ele>
        <time>2020-09-12T11:04:38.000Z</time>
      </trkpt>
      <trkpt lat="47.27001" lon="-1.4223">
        <ele>51</ele>
        <time>2020-09-12T11:04:40.000Z</time>
      </trkpt>
      <trkpt lat="47.26992" lon="-1.42246">
        <ele>51</ele>
        <time>2020-09-12T11:04:42.000Z</time>
      </trkpt>
      <trkpt lat="47.26983" lon="-1.42261">
        <ele>51</ele>
        <time>2020-09-12T11:04:44.000Z</time>
      </trkpt>
      <trkpt lat="47.26975" lon="-1.42277">
        <ele>50</ele>
        <time>2020-09-12T11:04:46.000Z</time>
      </trkpt>
      <trkpt lat="47.26966" lon="-1.42293">
        <ele>50</ele>
        <time>2020-09-12T11:04:48.000Z</time>
      </trkpt>
      <trkpt lat="47.26958" lon="-1.4231">
        <ele>51</ele>
        <time>2020-09-12T11:04:50.000Z</time>
      </trkpt>
      <trkpt lat="47.26949" lon="-1.42327">
        <ele>50</ele>
        <time>2020-09-12T11:04:52.000Z</time>
      </trkpt>
      <trkpt lat="47.26941" lon="-1.42344">
        <ele>51</ele>
        <time>2020-09-12T11:04:54.000Z</time>
      </trkpt>
      <trkpt lat="47.26932" lon="-1.42361">
        <ele>51</ele>
        <time>2020-09-12T11:04:56.000Z</time>
      </trkpt>
      <trkpt lat="47.26924" lon="-1.42378">
        <ele>51</ele>
        <time>2020-09-12T11:04:58.000Z</time>
      </trkpt>
      <trkpt lat="47.26916" lon="-1.42394">
        <ele>50</ele>
        <time>2020-09-12T11:05:00.000Z</time>
      </trkpt>
      <trkpt lat="47.26908" lon="-1.4241">
        <ele>50</ele>
        <time>2020-09-12T11:05:02.000Z</time>
      </trkpt>
      <trkpt lat="47.26899" lon="-1.42427">
        <ele>51</ele>
        <time>2020-09-12T11:05:04.000Z</time>
      </trkpt>
      <trkpt lat="47.26891" lon="-1.42443">
        <ele>51</ele>
        <time>2020-09-12T11:05:06.000Z</time>
      </trkpt>
      <trkpt lat="47.26881" lon="-1.42459">
        <ele>51</ele>
        <time>2020-09-12T11:05:08.000Z</time>
      </trkpt>
      <trkpt lat="47.26872" lon="-1.42475">
        <ele>50</ele>
        <time>2020-09-12T11:05:10.000Z</time>
      </trkpt>
      <trkpt lat="47.26863" lon="-1.42492">
        <ele>50</ele>
        <time>2020-09-12T11:05:12.000Z</time>
      </trkpt>
      <trkpt lat="47.26853" lon="-1.42509">
        <ele>49</ele>
        <time>2020-09-12T11:05:14.000Z</time>
      </trkpt>
      <trkpt lat="47.26844" lon="-1.42526">
        <ele>49</ele>
        <time>2020-09-12T11:05:16.000Z</time>
      </trkpt>
      <trkpt lat="47.26835" lon="-1.42543">
        <ele>49</ele>
        <time>2020-09-12T11:05:18.000Z</time>
      </trkpt>
      <trkpt lat="47.26827" lon="-1.42561">
        <ele>49</ele>
        <time>2020-09-12T11:05:20.000Z</time>
      </trkpt>
      <trkpt lat="47.26818" lon="-1.42579">
        <ele>49</ele>
        <time>2020-09-12T11:05:22.000Z</time>
      </trkpt>
      <trkpt lat="47.2681" lon="-1.42597">
        <ele>49</ele>
        <time>2020-09-12T11:05:24.000Z</time>
      </trkpt>
      <trkpt lat="47.26803" lon="-1.42616">
        <ele>49</ele>
        <time>2020-09-12T11:05:26.000Z</time>
      </trkpt>
      <trkpt lat="47.26795" lon="-1.42635">
        <ele>49</ele>
        <time>2020-09-12T11:05:28.000Z</time>
      </trkpt>
      <trkpt lat="47.26787" lon="-1.42654">
        <ele>48</ele>
        <time>2020-09-12T11:05:30.000Z</time>
      </trkpt>
      <trkpt lat="47.26781" lon="-1.42673">
        <ele>49</ele>
        <time>2020-09-12T11:05:32.000Z</time>
      </trkpt>
      <trkpt lat="47.26774" lon="-1.42692">
        <ele>48</ele>
        <time>2020-09-12T11:05:34.000Z</time>
      </trkpt>
      <trkpt lat="47.26767" lon="-1.4271">
        <ele>49</ele>
        <time>2020-09-12T11:05:36.000Z</time>
      </trkpt>
      <trkpt lat="47.26759" lon="-1.42728">
        <ele>49</ele>
        <time>2020-09-12T11:05:38.000Z</time>
      </trkpt>
      <trkpt lat="47.2675" lon="-1.42745">
        <ele>49</ele>
        <time>2020-09-12T11:05:40.000Z</time>
      </trkpt>
      <trkpt lat="47.26742" lon="-1.42761">
        <ele>49</ele>
        <time>2020-09-12T11:05:42.000Z</time>
      </trkpt>
      <trkpt lat="47.26735" lon="-1.42779">
        <ele>51</ele>
        <time>2020-09-12T11:05:44.000Z</time>
      </trkpt>
      <trkpt lat="47.2673" lon="-1.42798">
        <ele>52</ele>
        <time>2020-09-12T11:05:46.000Z</time>
      </trkpt>
      <trkpt lat="47.26727" lon="-1.42815">
        <ele>52</ele>
        <time>2020-09-12T11:05:48.000Z</time>
      </trkpt>
      <trkpt lat="47.2672" lon="-1.42833">
        <ele>52</ele>
        <time>2020-09-12T11:05:50.000Z</time>
      </trkpt>
      <trkpt lat="47.26713" lon="-1.42851">
        <ele>52</ele>
        <time>2020-09-12T11:05:52.000Z</time>
      </trkpt>
      <trkpt lat="47.26704" lon="-1.42869">
        <ele>52</ele>
        <time>2020-09-12T11:05:54.000Z</time>
      </trkpt>
      <trkpt lat="47.26696" lon="-1.42887">
        <ele>51</ele>
        <time>2020-09-12T11:05:56.000Z</time>
      </trkpt>
      <trkpt lat="47.26687" lon="-1.42904">
        <ele>51</ele>
        <time>2020-09-12T11:05:58.000Z</time>
      </trkpt>
      <trkpt lat="47.26678" lon="-1.42922">
        <ele>50</ele>
        <time>2020-09-12T11:06:00.000Z</time>
      </trkpt>
      <trkpt lat="47.26669" lon="-1.4294">
        <ele>50</ele>
        <time>2020-09-12T11:06:02.000Z</time>
      </trkpt>
      <trkpt lat="47.26661" lon="-1.42957">
        <ele>50</ele>
        <time>2020-09-12T11:06:04.000Z</time>
      </trkpt>
      <trkpt lat="47.26652" lon="-1.42974">
        <ele>50</ele>
        <time>2020-09-12T11:06:06.000Z</time>
      </trkpt>
      <trkpt lat="47.26644" lon="-1.42991">
        <ele>51</ele>
        <time>2020-09-12T11:06:08.000Z</time>
      </trkpt>
      <trkpt lat="47.26636" lon="-1.43008">
        <ele>51</ele>
        <time>2020-09-12T11:06:10.000Z</time>
      </trkpt>
      <trkpt lat="47.26628" lon="-1.43026">
        <ele>50</ele>
        <time>2020-09-12T11:06:12.000Z</time>
      </trkpt>
      <trkpt lat="47.2662" lon="-1.43042">
        <ele>51</ele>
        <time>2020-09-12T11:06:14.000Z</time>
      </trkpt>
      <trkpt lat="47.26612" lon="-1.43059">
        <ele>51</ele>
        <time>2020-09-12T11:06:16.000Z</time>
      </trkpt>
      <trkpt lat="47.26603" lon="-1.43075">
        <ele>51</ele>
        <time>2020-09-12T11:06:18.000Z</time>
      </trkpt>
      <trkpt lat="47.26594" lon="-1.43091">
        <ele>51</ele>
        <time>2020-09-12T11:06:20.000Z</time>
      </trkpt>
      <trkpt lat="47.26585" lon="-1.43106">
        <ele>51</ele>
        <time>2020-09-12T11:06:22.000Z</time>
      </trkpt>
      <trkpt lat="47.26575" lon="-1.43122">
        <ele>50</ele>
        <time>2020-09-12T11:06:24.000Z</time>
      </trkpt>
      <trkpt lat="47.26566" lon="-1.43137">
        <ele>50</ele>
        <time>2020-09-12T11:06:26.000Z</time>
      </trkpt>
      <trkpt lat="47.26556" lon="-1.43152">
        <ele>50</ele>
        <time>2020-09-12T11:06:28.000Z</time>
      </trkpt>
      <trkpt lat="47.26546" lon="-1.43167">
        <ele>50</ele>
        <time>2020-09-12T11:06:30.000Z</time>
      </trkpt>
      <trkpt lat="47.26536" lon="-1.43182">
        <ele>50</ele>
        <time>2020-09-12T11:06:32.000Z</time>
      </trkpt>
      <trkpt lat="47.26526" lon="-1.43197">
        <ele>50</ele>
        <time>2020-09-12T11:06:34.000Z</time>
      </trkpt>
      <trkpt lat="47.26516" lon="-1.43211">
        <ele>50</ele>
        <time>2020-09-12T11:06:36.000Z</time>
      </trkpt>
      <trkpt lat="47.26506" lon="-1.43224">
        <ele>51</ele>
        <time>2020-09-12T11:06:38.000Z</time>
      </trkpt>
      <trkpt lat="47.26498" lon="-1.43237">
        <ele>51</ele>
        <time>2020-09-12T11:06:40.000Z</time>
      </trkpt>
      <trkpt lat="47.26488" lon="-1.43249">
        <ele>51</ele>
        <time>2020-09-12T11:06:42.000Z</time>
      </trkpt>
      <trkpt lat="47.26479" lon="-1.43262">
        <ele>50</ele>
        <time>2020-09-12T11:06:44.000Z</time>
      </trkpt>
      <trkpt lat="47.2647" lon="-1.43276">
        <ele>50</ele>
        <time>2020-09-12T11:06:46.000Z</time>
      </trkpt>
      <trkpt lat="47.26462" lon="-1.4329">
        <ele>49</ele>
        <time>2020-09-12T11:06:48.000Z</time>
      </trkpt>
      <trkpt lat="47.26453" lon="-1.43305">
        <ele>49</ele>
        <time>2020-09-12T11:06:50.000Z</time>
      </trkpt>
      <trkpt lat="47.26443" lon="-1.43319">
        <ele>50</ele>
        <time>2020-09-12T11:06:52.000Z</time>
      </trkpt>
      <trkpt lat="47.26433" lon="-1.43332">
        <ele>50</ele>
        <time>2020-09-12T11:06:54.000Z</time>
      </trkpt>
      <trkpt lat="47.26422" lon="-1.43346">
        <ele>50</ele>
        <time>2020-09-12T11:06:56.000Z</time>
      </trkpt>
      <trkpt lat="47.26411" lon="-1.43359">
        <ele>50</ele>
        <time>2020-09-12T11:06:58.000Z</time>
      </trkpt>
      <trkpt lat="47.26401" lon="-1.43372">
        <ele>50</ele>
        <time>2020-09-12T11:07:00.000Z</time>
      </trkpt>
      <trkpt lat="47.2639" lon="-1.43385">
        <ele>50</ele>
        <time>2020-09-12T11:07:02.000Z</time>
      </trkpt>
      <trkpt lat="47.26378" lon="-1.43397">
        <ele>50</ele>
        <time>2020-09-12T11:07:04.000Z</time>
      </trkpt>
      <trkpt lat="47.26367" lon="-1.43409">
        <ele>50</ele>
        <time>2020-09-12T11:07:06.000Z</time>
      </trkpt>
      <trkpt lat="47.26356" lon="-1.43421">
        <ele>51</ele>
        <time>2020-09-12T11:07:08.000Z</time>
      </trkpt>
      <trkpt lat="47.26345" lon="-1.43433">
        <ele>51</ele>
        <time>2020-09-12T11:07:10.000Z</time>
      </trkpt>
      <trkpt lat="47.26334" lon="-1.43445">
        <ele>50</ele>
        <time>2020-09-12T11:07:12.000Z</time>
      </trkpt>
      <trkpt lat="47.26324" lon="-1.43456">
        <ele>50</ele>
        <time>2020-09-12T11:07:14.000Z</time>
      </trkpt>
      <trkpt lat="47.26313" lon="-1.43468">
        <ele>50</ele>
        <time>2020-09-12T11:07:16.000Z</time>
      </trkpt>
      <trkpt lat="47.26303" lon="-1.43478">
        <ele>51</ele>
        <time>2020-09-12T11:07:18.000Z</time>
      </trkpt>
      <trkpt lat="47.26293" lon="-1.43486">
        <ele>52</ele>
        <time>2020-09-12T11:07:20.000Z</time>
      </trkpt>
      <trkpt lat="47.26282" lon="-1.4349">
        <ele>52</ele>
        <time>2020-09-12T11:07:22.000Z</time>
      </trkpt>
      <trkpt lat="47.26269" lon="-1.43494">
        <ele>53</ele>
        <time>2020-09-12T11:07:24.000Z</time>
      </trkpt>
      <trkpt lat="47.26257" lon="-1.43501">
        <ele>52</ele>
        <time>2020-09-12T11:07:26.000Z</time>
      </trkpt>
      <trkpt lat="47.26244" lon="-1.43512">
        <ele>51</ele>
        <time>2020-09-12T11:07:28.000Z</time>
      </trkpt>
      <trkpt lat="47.26233" lon="-1.43524">
        <ele>51</ele>
        <time>2020-09-12T11:07:30.000Z</time>
      </trkpt>
      <trkpt lat="47.26222" lon="-1.43536">
        <ele>51</ele>
        <time>2020-09-12T11:07:32.000Z</time>
      </trkpt>
      <trkpt lat="47.26218" lon="-1.4355">
        <ele>50</ele>
        <time>2020-09-12T11:07:34.000Z</time>
      </trkpt>
      <trkpt lat="47.26215" lon="-1.43569">
        <ele>50</ele>
        <time>2020-09-12T11:07:36.000Z</time>
      </trkpt>
      <trkpt lat="47.26206" lon="-1.43587">
        <ele>51</ele>
        <time>2020-09-12T11:07:38.000Z</time>
      </trkpt>
      <trkpt lat="47.26196" lon="-1.43602">
        <ele>50</ele>
        <time>2020-09-12T11:07:40.000Z</time>
      </trkpt>
      <trkpt lat="47.26187" lon="-1.43618">
        <ele>50</ele>
        <time>2020-09-12T11:07:42.000Z</time>
      </trkpt>
      <trkpt lat="47.2618" lon="-1.43634">
        <ele>50</ele>
        <time>2020-09-12T11:07:44.000Z</time>
      </trkpt>
      <trkpt lat="47.2617" lon="-1.4365">
        <ele>50</ele>
        <time>2020-09-12T11:07:46.000Z</time>
      </trkpt>
      <trkpt lat="47.2616" lon="-1.43666">
        <ele>51</ele>
        <time>2020-09-12T11:07:48.000Z</time>
      </trkpt>
      <trkpt lat="47.2615" lon="-1.43682">
        <ele>51</ele>
        <time>2020-09-12T11:07:50.000Z</time>
      </trkpt>
      <trkpt lat="47.2614" lon="-1.43698">
        <ele>51</ele>
        <time>2020-09-12T11:07:52.000Z</time>
      </trkpt>
      <trkpt lat="47.2613" lon="-1.43713">
        <ele>51</ele>
        <time>2020-09-12T11:07:54.000Z</time>
      </trkpt>
      <trkpt lat="47.26122" lon="-1.43728">
        <ele>52</ele>
        <time>2020-09-12T11:07:56.000Z</time>
      </trkpt>
      <trkpt lat="47.26111" lon="-1.43743">
        <ele>52</ele>
        <time>2020-09-12T11:07:58.000Z</time>
      </trkpt>
      <trkpt lat="47.26099" lon="-1.43756">
        <ele>52</ele>
        <time>2020-09-12T11:08:00.000Z</time>
      </trkpt>
      <trkpt lat="47.26088" lon="-1.43769">
        <ele>52</ele>
        <time>2020-09-12T11:08:02.000Z</time>
      </trkpt>
      <trkpt lat="47.26078" lon="-1.43782">
        <ele>52</ele>
        <time>2020-09-12T11:08:04.000Z</time>
      </trkpt>
      <trkpt lat="47.26066" lon="-1.43796">
        <ele>53</ele>
        <time>2020-09-12T11:08:06.000Z</time>
      </trkpt>
      <trkpt lat="47.26056" lon="-1.43812">
        <ele>53</ele>
        <time>2020-09-12T11:08:08.000Z</time>
      </trkpt>
      <trkpt lat="47.26048" lon="-1.4383">
        <ele>53</ele>
        <time>2020-09-12T11:08:10.000Z</time>
      </trkpt>
      <trkpt lat="47.26041" lon="-1.43848">
        <ele>53</ele>
        <time>2020-09-12T11:08:12.000Z</time>
      </trkpt>
      <trkpt lat="47.26031" lon="-1.43863">
        <ele>53</ele>
        <time>2020-09-12T11:08:14.000Z</time>
      </trkpt>
      <trkpt lat="47.2602" lon="-1.43875">
        <ele>53</ele>
        <time>2020-09-12T11:08:16.000Z</time>
      </trkpt>
      <trkpt lat="47.26008" lon="-1.43886">
        <ele>52</ele>
        <time>2020-09-12T11:08:18.000Z</time>
      </trkpt>
      <trkpt lat="47.25998" lon="-1.43897">
        <ele>52</ele>
        <time>2020-09-12T11:08:20.000Z</time>
      </trkpt>
      <trkpt lat="47.25988" lon="-1.43908">
        <ele>51</ele>
        <time>2020-09-12T11:08:22.000Z</time>
      </trkpt>
      <trkpt lat="47.25978" lon="-1.4392">
        <ele>52</ele>
        <time>2020-09-12T11:08:24.000Z</time>
      </trkpt>
      <trkpt lat="47.25967" lon="-1.43932">
        <ele>52</ele>
        <time>2020-09-12T11:08:26.000Z</time>
      </trkpt>
      <trkpt lat="47.25957" lon="-1.43945">
        <ele>52</ele>
        <time>2020-09-12T11:08:28.000Z</time>
      </trkpt>
      <trkpt lat="47.25946" lon="-1.43958">
        <ele>51</ele>
        <time>2020-09-12T11:08:30.000Z</time>
      </trkpt>
      <trkpt lat="47.25935" lon="-1.43971">
        <ele>51</ele>
        <time>2020-09-12T11:08:32.000Z</time>
      </trkpt>
      <trkpt lat="47.25924" lon="-1.43983">
        <ele>51</ele>
        <time>2020-09-12T11:08:34.000Z</time>
      </trkpt>
      <trkpt lat="47.25913" lon="-1.43996">
        <ele>51</ele>
        <time>2020-09-12T11:08:36.000Z</time>
      </trkpt>
      <trkpt lat="47.25902" lon="-1.4401">
        <ele>51</ele>
        <time>2020-09-12T11:08:38.000Z</time>
      </trkpt>
      <trkpt lat="47.2589" lon="-1.44023">
        <ele>51</ele>
        <time>2020-09-12T11:08:40.000Z</time>
      </trkpt>
      <trkpt lat="47.25881" lon="-1.44039">
        <ele>52</ele>
        <time>2020-09-12T11:08:42.000Z</time>
      </trkpt>
      <trkpt lat="47.25875" lon="-1.44059">
        <ele>51</ele>
        <time>2020-09-12T11:08:44.000Z</time>
      </trkpt>
      <trkpt lat="47.25867" lon="-1.44078">
        <ele>51</ele>
        <time>2020-09-12T11:08:46.000Z</time>
      </trkpt>
      <trkpt lat="47.25857" lon="-1.44093">
        <ele>51</ele>
        <time>2020-09-12T11:08:48.000Z</time>
      </trkpt>
      <trkpt lat="47.25845" lon="-1.44107">
        <ele>51</ele>
        <time>2020-09-12T11:08:50.000Z</time>
      </trkpt>
      <trkpt lat="47.25834" lon="-1.44119">
        <ele>52</ele>
        <time>2020-09-12T11:08:52.000Z</time>
      </trkpt>
      <trkpt lat="47.25823" lon="-1.44131">
        <ele>52</ele>
        <time>2020-09-12T11:08:54.000Z</time>
      </trkpt>
      <trkpt lat="47.25812" lon="-1.44143">
        <ele>52</ele>
        <time>2020-09-12T11:08:56.000Z</time>
      </trkpt>
      <trkpt lat="47.25801" lon="-1.44155">
        <ele>52</ele>
        <time>2020-09-12T11:08:58.000Z</time>
      </trkpt>
      <trkpt lat="47.2579" lon="-1.44167">
        <ele>52</ele>
        <time>2020-09-12T11:09:00.000Z</time>
      </trkpt>
      <trkpt lat="47.25778" lon="-1.44181">
        <ele>52</ele>
        <time>2020-09-12T11:09:02.000Z</time>
      </trkpt>
      <trkpt lat="47.25767" lon="-1.44194">
        <ele>52</ele>
        <time>2020-09-12T11:09:04.000Z</time>
      </trkpt>
      <trkpt lat="47.25755" lon="-1.44207">
        <ele>53</ele>
        <time>2020-09-12T11:09:06.000Z</time>
      </trkpt>
      <trkpt lat="47.25745" lon="-1.44222">
        <ele>53</ele>
        <time>2020-09-12T11:09:08.000Z</time>
      </trkpt>
      <trkpt lat="47.25734" lon="-1.44237">
        <ele>53</ele>
        <time>2020-09-12T11:09:10.000Z</time>
      </trkpt>
      <trkpt lat="47.25724" lon="-1.4425">
        <ele>53</ele>
        <time>2020-09-12T11:09:12.000Z</time>
      </trkpt>
      <trkpt lat="47.25713" lon="-1.44263">
        <ele>53</ele>
        <time>2020-09-12T11:09:14.000Z</time>
      </trkpt>
      <trkpt lat="47.25702" lon="-1.44276">
        <ele>52</ele>
        <time>2020-09-12T11:09:16.000Z</time>
      </trkpt>
      <trkpt lat="47.2569" lon="-1.44289">
        <ele>52</ele>
        <time>2020-09-12T11:09:18.000Z</time>
      </trkpt>
      <trkpt lat="47.25679" lon="-1.44303">
        <ele>52</ele>
        <time>2020-09-12T11:09:20.000Z</time>
      </trkpt>
      <trkpt lat="47.25669" lon="-1.44317">
        <ele>52</ele>
        <time>2020-09-12T11:09:22.000Z</time>
      </trkpt>
      <trkpt lat="47.25659" lon="-1.4433">
        <ele>52</ele>
        <time>2020-09-12T11:09:24.000Z</time>
      </trkpt>
      <trkpt lat="47.25648" lon="-1.44342">
        <ele>52</ele>
        <time>2020-09-12T11:09:26.000Z</time>
      </trkpt>
      <trkpt lat="47.25637" lon="-1.44353">
        <ele>52</ele>
        <time>2020-09-12T11:09:28.000Z</time>
      </trkpt>
      <trkpt lat="47.25626" lon="-1.44365">
        <ele>52</ele>
        <time>2020-09-12T11:09:30.000Z</time>
      </trkpt>
      <trkpt lat="47.25615" lon="-1.44377">
        <ele>52</ele>
        <time>2020-09-12T11:09:32.000Z</time>
      </trkpt>
      <trkpt lat="47.25604" lon="-1.44389">
        <ele>52</ele>
        <time>2020-09-12T11:09:34.000Z</time>
      </trkpt>
      <trkpt lat="47.25593" lon="-1.44402">
        <ele>51</ele>
        <time>2020-09-12T11:09:36.000Z</time>
      </trkpt>
      <trkpt lat="47.25582" lon="-1.44415">
        <ele>51</ele>
        <time>2020-09-12T11:09:38.000Z</time>
      </trkpt>
      <trkpt lat="47.25572" lon="-1.44428">
        <ele>52</ele>
        <time>2020-09-12T11:09:40.000Z</time>
      </trkpt>
      <trkpt lat="47.25562" lon="-1.4444">
        <ele>52</ele>
        <time>2020-09-12T11:09:42.000Z</time>
      </trkpt>
      <trkpt lat="47.25552" lon="-1.44455">
        <ele>52</ele>
        <time>2020-09-12T11:09:44.000Z</time>
      </trkpt>
      <trkpt lat="47.25542" lon="-1.4447">
        <ele>52</ele>
        <time>2020-09-12T11:09:46.000Z</time>
      </trkpt>
      <trkpt lat="47.25533" lon="-1.44485">
        <ele>52</ele>
        <time>2020-09-12T11:09:48.000Z</time>
      </trkpt>
      <trkpt lat="47.25523" lon="-1.445">
        <ele>52</ele>
        <time>2020-09-12T11:09:50.000Z</time>
      </trkpt>
      <trkpt lat="47.25513" lon="-1.44515">
        <ele>51</ele>
        <time>2020-09-12T11:09:52.000Z</time>
      </trkpt>
      <trkpt lat="47.25502" lon="-1.4453">
        <ele>51</ele>
        <time>2020-09-12T11:09:54.000Z</time>
      </trkpt>
      <trkpt lat="47.25491" lon="-1.44545">
        <ele>51</ele>
        <time>2020-09-12T11:09:56.000Z</time>
      </trkpt>
      <trkpt lat="47.25481" lon="-1.4456">
        <ele>51</ele>
        <time>2020-09-12T11:09:58.000Z</time>
      </trkpt>
      <trkpt lat="47.25471" lon="-1.44574">
        <ele>51</ele>
        <time>2020-09-12T11:10:00.000Z</time>
      </trkpt>
      <trkpt lat="47.25461" lon="-1.4459">
        <ele>51</ele>
        <time>2020-09-12T11:10:02.000Z</time>
      </trkpt>
      <trkpt lat="47.25452" lon="-1.44604">
        <ele>52</ele>
        <time>2020-09-12T11:10:04.000Z</time>
      </trkpt>
      <trkpt lat="47.25442" lon="-1.44618">
        <ele>52</ele>
        <time>2020-09-12T11:10:06.000Z</time>
      </trkpt>
      <trkpt lat="47.25431" lon="-1.44632">
        <ele>52</ele>
        <time>2020-09-12T11:10:08.000Z</time>
      </trkpt>
      <trkpt lat="47.25421" lon="-1.44646">
        <ele>52</ele>
        <time>2020-09-12T11:10:10.000Z</time>
      </trkpt>
      <trkpt lat="47.25412" lon="-1.44661">
        <ele>53</ele>
        <time>2020-09-12T11:10:12.000Z</time>
      </trkpt>
      <trkpt lat="47.25401" lon="-1.44674">
        <ele>53</ele>
        <time>2020-09-12T11:10:14.000Z</time>
      </trkpt>
      <trkpt lat="47.2539" lon="-1.44688">
        <ele>52</ele>
        <time>2020-09-12T11:10:16.000Z</time>
      </trkpt>
      <trkpt lat="47.25379" lon="-1.44702">
        <ele>52</ele>
        <time>2020-09-12T11:10:18.000Z</time>
      </trkpt>
      <trkpt lat="47.25368" lon="-1.44715">
        <ele>52</ele>
        <time>2020-09-12T11:10:20.000Z</time>
      </trkpt>
      <trkpt lat="47.25357" lon="-1.44727">
        <ele>52</ele>
        <time>2020-09-12T11:10:22.000Z</time>
      </trkpt>
      <trkpt lat="47.25345" lon="-1.44738">
        <ele>52</ele>
        <time>2020-09-12T11:10:24.000Z</time>
      </trkpt>
      <trkpt lat="47.25334" lon="-1.44749">
        <ele>52</ele>
        <time>2020-09-12T11:10:26.000Z</time>
      </trkpt>
      <trkpt lat="47.25322" lon="-1.4476">
        <ele>52</ele>
        <time>2020-09-12T11:10:28.000Z</time>
      </trkpt>
      <trkpt lat="47.25311" lon="-1.44773">
        <ele>52</ele>
        <time>2020-09-12T11:10:30.000Z</time>
      </trkpt>
      <trkpt lat="47.253" lon="-1.44785">
        <ele>52</ele>
        <time>2020-09-12T11:10:32.000Z</time>
      </trkpt>
      <trkpt lat="47.25289" lon="-1.44797">
        <ele>52</ele>
        <time>2020-09-12T11:10:34.000Z</time>
      </trkpt>
      <trkpt lat="47.25279" lon="-1.4481">
        <ele>53</ele>
        <time>2020-09-12T11:10:36.000Z</time>
      </trkpt>
      <trkpt lat="47.25267" lon="-1.44823">
        <ele>53</ele>
        <time>2020-09-12T11:10:38.000Z</time>
      </trkpt>
      <trkpt lat="47.25255" lon="-1.44837">
        <ele>52</ele>
        <time>2020-09-12T11:10:40.000Z</time>
      </trkpt>
      <trkpt lat="47.25242" lon="-1.4485">
        <ele>52</ele>
        <time>2020-09-12T11:10:42.000Z</time>
      </trkpt>
      <trkpt lat="47.2523" lon="-1.44862">
        <ele>52</ele>
        <time>2020-09-12T11:10:44.000Z</time>
      </trkpt>
      <trkpt lat="47.25217" lon="-1.44874">
        <ele>52</ele>
        <time>2020-09-12T11:10:46.000Z</time>
      </trkpt>
      <trkpt lat="47.25205" lon="-1.44885">
        <ele>52</ele>
        <time>2020-09-12T11:10:48.000Z</time>
      </trkpt>
      <trkpt lat="47.25191" lon="-1.44895">
        <ele>51</ele>
        <time>2020-09-12T11:10:50.000Z</time>
      </trkpt>
      <trkpt lat="47.25178" lon="-1.44905">
        <ele>51</ele>
        <time>2020-09-12T11:10:52.000Z</time>
      </trkpt>
      <trkpt lat="47.25166" lon="-1.44916">
        <ele>51</ele>
        <time>2020-09-12T11:10:54.000Z</time>
      </trkpt>
      <trkpt lat="47.25154" lon="-1.44927">
        <ele>51</ele>
        <time>2020-09-12T11:10:56.000Z</time>
      </trkpt>
      <trkpt lat="47.25142" lon="-1.44938">
        <ele>51</ele>
        <time>2020-09-12T11:10:58.000Z</time>
      </trkpt>
      <trkpt lat="47.25131" lon="-1.44949">
        <ele>52</ele>
        <time>2020-09-12T11:11:00.000Z</time>
      </trkpt>
      <trkpt lat="47.2512" lon="-1.44961">
        <ele>52</ele>
        <time>2020-09-12T11:11:02.000Z</time>
      </trkpt>
      <trkpt lat="47.25108" lon="-1.44972">
        <ele>52</ele>
        <time>2020-09-12T11:11:04.000Z</time>
      </trkpt>
      <trkpt lat="47.25097" lon="-1.44983">
        <ele>52</ele>
        <time>2020-09-12T11:11:06.000Z</time>
      </trkpt>
      <trkpt lat="47.25085" lon="-1.44993">
        <ele>52</ele>
        <time>2020-09-12T11:11:08.000Z</time>
      </trkpt>
      <trkpt lat="47.25073" lon="-1.45004">
        <ele>51</ele>
        <time>2020-09-12T11:11:10.000Z</time>
      </trkpt>
      <trkpt lat="47.2506" lon="-1.45013">
        <ele>51</ele>
        <time>2020-09-12T11:11:12.000Z</time>
      </trkpt>
      <trkpt lat="47.25048" lon="-1.45023">
        <ele>51</ele>
        <time>2020-09-12T11:11:14.000Z</time>
      </trkpt>
      <trkpt lat="47.25036" lon="-1.45032">
        <ele>51</ele>
        <time>2020-09-12T11:11:16.000Z</time>
      </trkpt>
      <trkpt lat="47.25023" lon="-1.45042">
        <ele>51</ele>
        <time>2020-09-12T11:11:18.000Z</time>
      </trkpt>
      <trkpt lat="47.25009" lon="-1.45052">
        <ele>51</ele>
        <time>2020-09-12T11:11:20.000Z</time>
      </trkpt>
      <trkpt lat="47.24998" lon="-1.45064">
        <ele>51</ele>
        <time>2020-09-12T11:11:22.000Z</time>
      </trkpt>
      <trkpt lat="47.24987" lon="-1.45077">
        <ele>51</ele>
        <time>2020-09-12T11:11:24.000Z</time>
      </trkpt>
      <trkpt lat="47.24976" lon="-1.4509">
        <ele>51</ele>
        <time>2020-09-12T11:11:26.000Z</time>
      </trkpt>
      <trkpt lat="47.24964" lon="-1.45103">
        <ele>51</ele>
        <time>2020-09-12T11:11:28.000Z</time>
      </trkpt>
      <trkpt lat="47.24953" lon="-1.45115">
        <ele>51</ele>
        <time>2020-09-12T11:11:30.000Z</time>
      </trkpt>
      <trkpt lat="47.24941" lon="-1.45128">
        <ele>51</ele>
        <time>2020-09-12T11:11:32.000Z</time>
      </trkpt>
      <trkpt lat="47.2493" lon="-1.4514">
        <ele>51</ele>
        <time>2020-09-12T11:11:34.000Z</time>
      </trkpt>
      <trkpt lat="47.24918" lon="-1.45152">
        <ele>51</ele>
        <time>2020-09-12T11:11:36.000Z</time>
      </trkpt>
      <trkpt lat="47.24906" lon="-1.45166">
        <ele>52</ele>
        <time>2020-09-12T11:11:38.000Z</time>
      </trkpt>
      <trkpt lat="47.24896" lon="-1.4518">
        <ele>52</ele>
        <time>2020-09-12T11:11:40.000Z</time>
      </trkpt>
      <trkpt lat="47.24887" lon="-1.45195">
        <ele>52</ele>
        <time>2020-09-12T11:11:42.000Z</time>
      </trkpt>
      <trkpt lat="47.24876" lon="-1.45208">
        <ele>52</ele>
        <time>2020-09-12T11:11:44.000Z</time>
      </trkpt>
      <trkpt lat="47.24866" lon="-1.4522">
        <ele>51</ele>
        <time>2020-09-12T11:11:46.000Z</time>
      </trkpt>
      <trkpt lat="47.24856" lon="-1.45234">
        <ele>51</ele>
        <time>2020-09-12T11:11:48.000Z</time>
      </trkpt>
      <trkpt lat="47.24848" lon="-1.45248">
        <ele>51</ele>
        <time>2020-09-12T11:11:50.000Z</time>
      </trkpt>
      <trkpt lat="47.24839" lon="-1.45261">
        <ele>51</ele>
        <time>2020-09-12T11:11:52.000Z</time>
      </trkpt>
      <trkpt lat="47.24833" lon="-1.45273">
        <ele>51</ele>
        <time>2020-09-12T11:11:54.000Z</time>
      </trkpt>
      <trkpt lat="47.24826" lon="-1.45287">
        <ele>51</ele>
        <time>2020-09-12T11:11:56.000Z</time>
      </trkpt>
      <trkpt lat="47.24819" lon="-1.45304">
        <ele>51</ele>
        <time>2020-09-12T11:11:58.000Z</time>
      </trkpt>
      <trkpt lat="47.24812" lon="-1.45321">
        <ele>50</ele>
        <time>2020-09-12T11:12:00.000Z</time>
      </trkpt>
      <trkpt lat="47.24802" lon="-1.45339">
        <ele>50</ele>
        <time>2020-09-12T11:12:02.000Z</time>
      </trkpt>
      <trkpt lat="47.24794" lon="-1.45357">
        <ele>50</ele>
        <time>2020-09-12T11:12:04.000Z</time>
      </trkpt>
      <trkpt lat="47.24785" lon="-1.45379">
        <ele>49</ele>
        <time>2020-09-12T11:12:06.000Z</time>
      </trkpt>
      <trkpt lat="47.24776" lon="-1.454">
        <ele>50</ele>
        <time>2020-09-12T11:12:08.000Z</time>
      </trkpt>
      <trkpt lat="47.24767" lon="-1.45421">
        <ele>51</ele>
        <time>2020-09-12T11:12:10.000Z</time>
      </trkpt>
      <trkpt lat="47.24759" lon="-1.45441">
        <ele>51</ele>
        <time>2020-09-12T11:12:12.000Z</time>
      </trkpt>
      <trkpt lat="47.24752" lon="-1.4546">
        <ele>51</ele>
        <time>2020-09-12T11:12:14.000Z</time>
      </trkpt>
      <trkpt lat="47.24745" lon="-1.45481">
        <ele>52</ele>
        <time>2020-09-12T11:12:16.000Z</time>
      </trkpt>
      <trkpt lat="47.24736" lon="-1.45501">
        <ele>51</ele>
        <time>2020-09-12T11:12:18.000Z</time>
      </trkpt>
      <trkpt lat="47.24727" lon="-1.45522">
        <ele>51</ele>
        <time>2020-09-12T11:12:20.000Z</time>
      </trkpt>
      <trkpt lat="47.24719" lon="-1.45543">
        <ele>51</ele>
        <time>2020-09-12T11:12:22.000Z</time>
      </trkpt>
      <trkpt lat="47.24711" lon="-1.45565">
        <ele>51</ele>
        <time>2020-09-12T11:12:24.000Z</time>
      </trkpt>
      <trkpt lat="47.24705" lon="-1.45586">
        <ele>50</ele>
        <time>2020-09-12T11:12:26.000Z</time>
      </trkpt>
      <trkpt lat="47.24698" lon="-1.45607">
        <ele>51</ele>
        <time>2020-09-12T11:12:28.000Z</time>
      </trkpt>
      <trkpt lat="47.24691" lon="-1.45627">
        <ele>51</ele>
        <time>2020-09-12T11:12:30.000Z</time>
      </trkpt>
      <trkpt lat="47.24685" lon="-1.45646">
        <ele>52</ele>
        <time>2020-09-12T11:12:32.000Z</time>
      </trkpt>
      <trkpt lat="47.24678" lon="-1.45666">
        <ele>52</ele>
        <time>2020-09-12T11:12:34.000Z</time>
      </trkpt>
      <trkpt lat="47.24674" lon="-1.45687">
        <ele>52</ele>
        <time>2020-09-12T11:12:36.000Z</time>
      </trkpt>
      <trkpt lat="47.24668" lon="-1.45709">
        <ele>52</ele>
        <time>2020-09-12T11:12:38.000Z</time>
      </trkpt>
      <trkpt lat="47.24663" lon="-1.4573">
        <ele>52</ele>
        <time>2020-09-12T11:12:40.000Z</time>
      </trkpt>
      <trkpt lat="47.24659" lon="-1.45751">
        <ele>52</ele>
        <time>2020-09-12T11:12:42.000Z</time>
      </trkpt>
      <trkpt lat="47.24655" lon="-1.45771">
        <ele>51</ele>
        <time>2020-09-12T11:12:44.000Z</time>
      </trkpt>
      <trkpt lat="47.24651" lon="-1.4579">
        <ele>51</ele>
        <time>2020-09-12T11:12:46.000Z</time>
      </trkpt>
      <trkpt lat="47.24645" lon="-1.45809">
        <ele>51</ele>
        <time>2020-09-12T11:12:48.000Z</time>
      </trkpt>
      <trkpt lat="47.24639" lon="-1.45827">
        <ele>51</ele>
        <time>2020-09-12T11:12:50.000Z</time>
      </trkpt>
      <trkpt lat="47.24635" lon="-1.45846">
        <ele>51</ele>
        <time>2020-09-12T11:12:52.000Z</time>
      </trkpt>
      <trkpt lat="47.2463" lon="-1.45866">
        <ele>50</ele>
        <time>2020-09-12T11:12:54.000Z</time>
      </trkpt>
      <trkpt lat="47.24624" lon="-1.45886">
        <ele>50</ele>
        <time>2020-09-12T11:12:56.000Z</time>
      </trkpt>
      <trkpt lat="47.24618" lon="-1.45905">
        <ele>50</ele>
        <time>2020-09-12T11:12:58.000Z</time>
      </trkpt>
      <trkpt lat="47.24612" lon="-1.45925">
        <ele>50</ele>
        <time>2020-09-12T11:13:00.000Z</time>
      </trkpt>
      <trkpt lat="47.24604" lon="-1.45942">
        <ele>50</ele>
        <time>2020-09-12T11:13:02.000Z</time>
      </trkpt>
      <trkpt lat="47.24597" lon="-1.45959">
        <ele>51</ele>
        <time>2020-09-12T11:13:04.000Z</time>
      </trkpt>
      <trkpt lat="47.24589" lon="-1.45975">
        <ele>51</ele>
        <time>2020-09-12T11:13:06.000Z</time>
      </trkpt>
      <trkpt lat="47.24579" lon="-1.45994">
        <ele>52</ele>
        <time>2020-09-12T11:13:08.000Z</time>
      </trkpt>
      <trkpt lat="47.24571" lon="-1.46012">
        <ele>52</ele>
        <time>2020-09-12T11:13:10.000Z</time>
      </trkpt>
      <trkpt lat="47.24562" lon="-1.46029">
        <ele>52</ele>
        <time>2020-09-12T11:13:12.000Z</time>
      </trkpt>
      <trkpt lat="47.24553" lon="-1.46046">
        <ele>52</ele>
        <time>2020-09-12T11:13:14.000Z</time>
      </trkpt>
      <trkpt lat="47.24544" lon="-1.46063">
        <ele>53</ele>
        <time>2020-09-12T11:13:16.000Z</time>
      </trkpt>
      <trkpt lat="47.24535" lon="-1.4608">
        <ele>53</ele>
        <time>2020-09-12T11:13:18.000Z</time>
      </trkpt>
      <trkpt lat="47.24526" lon="-1.46097">
        <ele>54</ele>
        <time>2020-09-12T11:13:20.000Z</time>
      </trkpt>
      <trkpt lat="47.24516" lon="-1.46112">
        <ele>54</ele>
        <time>2020-09-12T11:13:22.000Z</time>
      </trkpt>
      <trkpt lat="47.24504" lon="-1.46125">
        <ele>54</ele>
        <time>2020-09-12T11:13:24.000Z</time>
      </trkpt>
      <trkpt lat="47.24493" lon="-1.46138">
        <ele>54</ele>
        <time>2020-09-12T11:13:26.000Z</time>
      </trkpt>
      <trkpt lat="47.24482" lon="-1.46152">
        <ele>54</ele>
        <time>2020-09-12T11:13:28.000Z</time>
      </trkpt>
      <trkpt lat="47.24471" lon="-1.46166">
        <ele>54</ele>
        <time>2020-09-12T11:13:30.000Z</time>
      </trkpt>
      <trkpt lat="47.2446" lon="-1.46179">
        <ele>54</ele>
        <time>2020-09-12T11:13:32.000Z</time>
      </trkpt>
      <trkpt lat="47.2445" lon="-1.46194">
        <ele>54</ele>
        <time>2020-09-12T11:13:34.000Z</time>
      </trkpt>
      <trkpt lat="47.24438" lon="-1.46208">
        <ele>53</ele>
        <time>2020-09-12T11:13:36.000Z</time>
      </trkpt>
      <trkpt lat="47.24427" lon="-1.46223">
        <ele>54</ele>
        <time>2020-09-12T11:13:38.000Z</time>
      </trkpt>
      <trkpt lat="47.24417" lon="-1.46237">
        <ele>54</ele>
        <time>2020-09-12T11:13:40.000Z</time>
      </trkpt>
      <trkpt lat="47.24407" lon="-1.46251">
        <ele>54</ele>
        <time>2020-09-12T11:13:42.000Z</time>
      </trkpt>
      <trkpt lat="47.24396" lon="-1.46265">
        <ele>55</ele>
        <time>2020-09-12T11:13:44.000Z</time>
      </trkpt>
      <trkpt lat="47.24387" lon="-1.46279">
        <ele>55</ele>
        <time>2020-09-12T11:13:46.000Z</time>
      </trkpt>
      <trkpt lat="47.24377" lon="-1.46294">
        <ele>55</ele>
        <time>2020-09-12T11:13:48.000Z</time>
      </trkpt>
      <trkpt lat="47.24367" lon="-1.4631">
        <ele>55</ele>
        <time>2020-09-12T11:13:50.000Z</time>
      </trkpt>
      <trkpt lat="47.24357" lon="-1.46325">
        <ele>55</ele>
        <time>2020-09-12T11:13:52.000Z</time>
      </trkpt>
      <trkpt lat="47.24347" lon="-1.46341">
        <ele>55</ele>
        <time>2020-09-12T11:13:54.000Z</time>
      </trkpt>
      <trkpt lat="47.24337" lon="-1.46357">
        <ele>56</ele>
        <time>2020-09-12T11:13:56.000Z</time>
      </trkpt>
      <trkpt lat="47.24327" lon="-1.46373">
        <ele>55</ele>
        <time>2020-09-12T11:13:58.000Z</time>
      </trkpt>
      <trkpt lat="47.24317" lon="-1.46389">
        <ele>55</ele>
        <time>2020-09-12T11:14:00.000Z</time>
      </trkpt>
      <trkpt lat="47.24308" lon="-1.46406">
        <ele>55</ele>
        <time>2020-09-12T11:14:02.000Z</time>
      </trkpt>
      <trkpt lat="47.24298" lon="-1.46422">
        <ele>55</ele>
        <time>2020-09-12T11:14:04.000Z</time>
      </trkpt>
      <trkpt lat="47.24289" lon="-1.46437">
        <ele>55</ele>
        <time>2020-09-12T11:14:06.000Z</time>
      </trkpt>
      <trkpt lat="47.24279" lon="-1.46452">
        <ele>55</ele>
        <time>2020-09-12T11:14:08.000Z</time>
      </trkpt>
      <trkpt lat="47.24268" lon="-1.46466">
        <ele>54</ele>
        <time>2020-09-12T11:14:10.000Z</time>
      </trkpt>
      <trkpt lat="47.24256" lon="-1.46479">
        <ele>54</ele>
        <time>2020-09-12T11:14:12.000Z</time>
      </trkpt>
      <trkpt lat="47.24246" lon="-1.46493">
        <ele>53</ele>
        <time>2020-09-12T11:14:14.000Z</time>
      </trkpt>
      <trkpt lat="47.24235" lon="-1.46507">
        <ele>53</ele>
        <time>2020-09-12T11:14:16.000Z</time>
      </trkpt>
      <trkpt lat="47.24225" lon="-1.4652">
        <ele>52</ele>
        <time>2020-09-12T11:14:18.000Z</time>
      </trkpt>
      <trkpt lat="47.24214" lon="-1.46533">
        <ele>52</ele>
        <time>2020-09-12T11:14:20.000Z</time>
      </trkpt>
      <trkpt lat="47.24204" lon="-1.46546">
        <ele>52</ele>
        <time>2020-09-12T11:14:22.000Z</time>
      </trkpt>
      <trkpt lat="47.24193" lon="-1.4656">
        <ele>52</ele>
        <time>2020-09-12T11:14:24.000Z</time>
      </trkpt>
      <trkpt lat="47.24182" lon="-1.46573">
        <ele>52</ele>
        <time>2020-09-12T11:14:26.000Z</time>
      </trkpt>
      <trkpt lat="47.24171" lon="-1.46587">
        <ele>52</ele>
        <time>2020-09-12T11:14:28.000Z</time>
      </trkpt>
      <trkpt lat="47.2416" lon="-1.466">
        <ele>52</ele>
        <time>2020-09-12T11:14:30.000Z</time>
      </trkpt>
      <trkpt lat="47.2415" lon="-1.46614">
        <ele>52</ele>
        <time>2020-09-12T11:14:32.000Z</time>
      </trkpt>
      <trkpt lat="47.2414" lon="-1.46627">
        <ele>52</ele>
        <time>2020-09-12T11:14:34.000Z</time>
      </trkpt>
      <trkpt lat="47.2413" lon="-1.46642">
        <ele>52</ele>
        <time>2020-09-12T11:14:36.000Z</time>
      </trkpt>
      <trkpt lat="47.2412" lon="-1.46655">
        <ele>52</ele>
        <time>2020-09-12T11:14:38.000Z</time>
      </trkpt>
      <trkpt lat="47.2411" lon="-1.46669">
        <ele>52</ele>
        <time>2020-09-12T11:14:40.000Z</time>
      </trkpt>
      <trkpt lat="47.241" lon="-1.46684">
        <ele>52</ele>
        <time>2020-09-12T11:14:42.000Z</time>
      </trkpt>
      <trkpt lat="47.24091" lon="-1.46698">
        <ele>52</ele>
        <time>2020-09-12T11:14:44.000Z</time>
      </trkpt>
      <trkpt lat="47.24082" lon="-1.46714">
        <ele>51</ele>
        <time>2020-09-12T11:14:46.000Z</time>
      </trkpt>
      <trkpt lat="47.24076" lon="-1.46731">
        <ele>51</ele>
        <time>2020-09-12T11:14:48.000Z</time>
      </trkpt>
      <trkpt lat="47.24064" lon="-1.46742">
        <ele>52</ele>
        <time>2020-09-12T11:14:50.000Z</time>
      </trkpt>
      <trkpt lat="47.24051" lon="-1.46752">
        <ele>51</ele>
        <time>2020-09-12T11:14:52.000Z</time>
      </trkpt>
      <trkpt lat="47.24039" lon="-1.46763">
        <ele>50</ele>
        <time>2020-09-12T11:14:54.000Z</time>
      </trkpt>
      <trkpt lat="47.24028" lon="-1.46776">
        <ele>50</ele>
        <time>2020-09-12T11:14:56.000Z</time>
      </trkpt>
      <trkpt lat="47.24017" lon="-1.46788">
        <ele>50</ele>
        <time>2020-09-12T11:14:58.000Z</time>
      </trkpt>
      <trkpt lat="47.24006" lon="-1.46801">
        <ele>50</ele>
        <time>2020-09-12T11:15:00.000Z</time>
      </trkpt>
      <trkpt lat="47.23994" lon="-1.46814">
        <ele>51</ele>
        <time>2020-09-12T11:15:02.000Z</time>
      </trkpt>
      <trkpt lat="47.23983" lon="-1.46825">
        <ele>51</ele>
        <time>2020-09-12T11:15:04.000Z</time>
      </trkpt>
      <trkpt lat="47.23972" lon="-1.46837">
        <ele>51</ele>
        <time>2020-09-12T11:15:06.000Z</time>
      </trkpt>
      <trkpt lat="47.23961" lon="-1.46849">
        <ele>51</ele>
        <time>2020-09-12T11:15:08.000Z</time>
      </trkpt>
      <trkpt lat="47.2395" lon="-1.4686">
        <ele>52</ele>
        <time>2020-09-12T11:15:10.000Z</time>
      </trkpt>
      <trkpt lat="47.23938" lon="-1.46869">
        <ele>52</ele>
        <time>2020-09-12T11:15:12.000Z</time>
      </trkpt>
      <trkpt lat="47.23926" lon="-1.46879">
        <ele>52</ele>
        <time>2020-09-12T11:15:14.000Z</time>
      </trkpt>
      <trkpt lat="47.23916" lon="-1.46892">
        <ele>52</ele>
        <time>2020-09-12T11:15:16.000Z</time>
      </trkpt>
      <trkpt lat="47.23906" lon="-1.46905">
        <ele>53</ele>
        <time>2020-09-12T11:15:18.000Z</time>
      </trkpt>
      <trkpt lat="47.23896" lon="-1.46918">
        <ele>53</ele>
        <time>2020-09-12T11:15:20.000Z</time>
      </trkpt>
      <trkpt lat="47.23886" lon="-1.46932">
        <ele>54</ele>
        <time>2020-09-12T11:15:22.000Z</time>
      </trkpt>
      <trkpt lat="47.23876" lon="-1.46946">
        <ele>54</ele>
        <time>2020-09-12T11:15:24.000Z</time>
      </trkpt>
      <trkpt lat="47.23866" lon="-1.46959">
        <ele>54</ele>
        <time>2020-09-12T11:15:26.000Z</time>
      </trkpt>
      <trkpt lat="47.23856" lon="-1.46972">
        <ele>55</ele>
        <time>2020-09-12T11:15:28.000Z</time>
      </trkpt>
      <trkpt lat="47.23846" lon="-1.46986">
        <ele>54</ele>
        <time>2020-09-12T11:15:30.000Z</time>
      </trkpt>
      <trkpt lat="47.23836" lon="-1.47">
        <ele>54</ele>
        <time>2020-09-12T11:15:32.000Z</time>
      </trkpt>
      <trkpt lat="47.23826" lon="-1.47015">
        <ele>54</ele>
        <time>2020-09-12T11:15:34.000Z</time>
      </trkpt>
      <trkpt lat="47.23816" lon="-1.47029">
        <ele>54</ele>
        <time>2020-09-12T11:15:36.000Z</time>
      </trkpt>
      <trkpt lat="47.23805" lon="-1.47043">
        <ele>54</ele>
        <time>2020-09-12T11:15:38.000Z</time>
      </trkpt>
      <trkpt lat="47.23795" lon="-1.47058">
        <ele>54</ele>
        <time>2020-09-12T11:15:40.000Z</time>
      </trkpt>
      <trkpt lat="47.23785" lon="-1.47072">
        <ele>54</ele>
        <time>2020-09-12T11:15:42.000Z</time>
      </trkpt>
      <trkpt lat="47.23775" lon="-1.47085">
        <ele>54</ele>
        <time>2020-09-12T11:15:44.000Z</time>
      </trkpt>
      <trkpt lat="47.23765" lon="-1.47099">
        <ele>54</ele>
        <time>2020-09-12T11:15:46.000Z</time>
      </trkpt>
      <trkpt lat="47.23756" lon="-1.47112">
        <ele>54</ele>
        <time>2020-09-12T11:15:48.000Z</time>
      </trkpt>
      <trkpt lat="47.23745" lon="-1.47126">
        <ele>55</ele>
        <time>2020-09-12T11:15:50.000Z</time>
      </trkpt>
      <trkpt lat="47.23734" lon="-1.4714">
        <ele>56</ele>
        <time>2020-09-12T11:15:52.000Z</time>
      </trkpt>
      <trkpt lat="47.23723" lon="-1.47153">
        <ele>55</ele>
        <time>2020-09-12T11:15:54.000Z</time>
      </trkpt>
      <trkpt lat="47.23712" lon="-1.47168">
        <ele>55</ele>
        <time>2020-09-12T11:15:56.000Z</time>
      </trkpt>
      <trkpt lat="47.23702" lon="-1.47183">
        <ele>54</ele>
        <time>2020-09-12T11:15:58.000Z</time>
      </trkpt>
      <trkpt lat="47.23692" lon="-1.47197">
        <ele>54</ele>
        <time>2020-09-12T11:16:00.000Z</time>
      </trkpt>
      <trkpt lat="47.23682" lon="-1.47213">
        <ele>54</ele>
        <time>2020-09-12T11:16:02.000Z</time>
      </trkpt>
      <trkpt lat="47.23672" lon="-1.47227">
        <ele>53</ele>
        <time>2020-09-12T11:16:04.000Z</time>
      </trkpt>
      <trkpt lat="47.23661" lon="-1.47239">
        <ele>53</ele>
        <time>2020-09-12T11:16:06.000Z</time>
      </trkpt>
      <trkpt lat="47.23649" lon="-1.47252">
        <ele>53</ele>
        <time>2020-09-12T11:16:08.000Z</time>
      </trkpt>
      <trkpt lat="47.23639" lon="-1.47265">
        <ele>53</ele>
        <time>2020-09-12T11:16:10.000Z</time>
      </trkpt>
      <trkpt lat="47.23628" lon="-1.47277">
        <ele>54</ele>
        <time>2020-09-12T11:16:12.000Z</time>
      </trkpt>
      <trkpt lat="47.23617" lon="-1.47289">
        <ele>53</ele>
        <time>2020-09-12T11:16:14.000Z</time>
      </trkpt>
      <trkpt lat="47.23605" lon="-1.47301">
        <ele>53</ele>
        <time>2020-09-12T11:16:16.000Z</time>
      </trkpt>
      <trkpt lat="47.23594" lon="-1.47313">
        <ele>54</ele>
        <time>2020-09-12T11:16:18.000Z</time>
      </trkpt>
      <trkpt lat="47.23583" lon="-1.47323">
        <ele>55</ele>
        <time>2020-09-12T11:16:20.000Z</time>
      </trkpt>
      <trkpt lat="47.2357" lon="-1.47333">
        <ele>55</ele>
        <time>2020-09-12T11:16:22.000Z</time>
      </trkpt>
      <trkpt lat="47.23558" lon="-1.47344">
        <ele>55</ele>
        <time>2020-09-12T11:16:24.000Z</time>
      </trkpt>
      <trkpt lat="47.23546" lon="-1.47353">
        <ele>54</ele>
        <time>2020-09-12T11:16:26.000Z</time>
      </trkpt>
      <trkpt lat="47.23534" lon="-1.47364">
        <ele>54</ele>
        <time>2020-09-12T11:16:28.000Z</time>
      </trkpt>
      <trkpt lat="47.23522" lon="-1.47373">
        <ele>54</ele>
        <time>2020-09-12T11:16:30.000Z</time>
      </trkpt>
      <trkpt lat="47.2351" lon="-1.47383">
        <ele>53</ele>
        <time>2020-09-12T11:16:32.000Z</time>
      </trkpt>
      <trkpt lat="47.23498" lon="-1.47392">
        <ele>54</ele>
        <time>2020-09-12T11:16:34.000Z</time>
      </trkpt>
      <trkpt lat="47.23485" lon="-1.47399">
        <ele>55</ele>
        <time>2020-09-12T11:16:36.000Z</time>
      </trkpt>
      <trkpt lat="47.23471" lon="-1.47404">
        <ele>54</ele>
        <time>2020-09-12T11:16:38.000Z</time>
      </trkpt>
      <trkpt lat="47.23459" lon="-1.47411">
        <ele>54</ele>
        <time>2020-09-12T11:16:40.000Z</time>
      </trkpt>
      <trkpt lat="47.23445" lon="-1.47417">
        <ele>54</ele>
        <time>2020-09-12T11:16:42.000Z</time>
      </trkpt>
      <trkpt lat="47.23432" lon="-1.47424">
        <ele>54</ele>
        <time>2020-09-12T11:16:44.000Z</time>
      </trkpt>
      <trkpt lat="47.23418" lon="-1.47432">
        <ele>54</ele>
        <time>2020-09-12T11:16:46.000Z</time>
      </trkpt>
      <trkpt lat="47.23405" lon="-1.47442">
        <ele>53</ele>
        <time>2020-09-12T11:16:48.000Z</time>
      </trkpt>
      <trkpt lat="47.23392" lon="-1.47451">
        <ele>53</ele>
        <time>2020-09-12T11:16:50.000Z</time>
      </trkpt>
      <trkpt lat="47.23378" lon="-1.47459">
        <ele>54</ele>
        <time>2020-09-12T11:16:52.000Z</time>
      </trkpt>
      <trkpt lat="47.23364" lon="-1.47466">
        <ele>54</ele>
        <time>2020-09-12T11:16:54.000Z</time>
      </trkpt>
      <trkpt lat="47.2335" lon="-1.47471">
        <ele>53</ele>
        <time>2020-09-12T11:16:56.000Z</time>
      </trkpt>
      <trkpt lat="47.23336" lon="-1.47479">
        <ele>53</ele>
        <time>2020-09-12T11:16:58.000Z</time>
      </trkpt>
      <trkpt lat="47.23323" lon="-1.47489">
        <ele>53</ele>
        <time>2020-09-12T11:17:00.000Z</time>
      </trkpt>
      <trkpt lat="47.2331" lon="-1.47499">
        <ele>54</ele>
        <time>2020-09-12T11:17:02.000Z</time>
      </trkpt>
      <trkpt lat="47.23298" lon="-1.47507">
        <ele>54</ele>
        <time>2020-09-12T11:17:04.000Z</time>
      </trkpt>
      <trkpt lat="47.23284" lon="-1.47514">
        <ele>53</ele>
        <time>2020-09-12T11:17:06.000Z</time>
      </trkpt>
      <trkpt lat="47.23271" lon="-1.47521">
        <ele>52</ele>
        <time>2020-09-12T11:17:08.000Z</time>
      </trkpt>
      <trkpt lat="47.2326" lon="-1.47534">
        <ele>52</ele>
        <time>2020-09-12T11:17:10.000Z</time>
      </trkpt>
      <trkpt lat="47.23251" lon="-1.4755">
        <ele>53</ele>
        <time>2020-09-12T11:17:12.000Z</time>
      </trkpt>
      <trkpt lat="47.23243" lon="-1.47567">
        <ele>52</ele>
        <time>2020-09-12T11:17:14.000Z</time>
      </trkpt>
      <trkpt lat="47.23234" lon="-1.47583">
        <ele>52</ele>
        <time>2020-09-12T11:17:16.000Z</time>
      </trkpt>
      <trkpt lat="47.23226" lon="-1.47599">
        <ele>51</ele>
        <time>2020-09-12T11:17:18.000Z</time>
      </trkpt>
      <trkpt lat="47.23218" lon="-1.47616">
        <ele>51</ele>
        <time>2020-09-12T11:17:20.000Z</time>
      </trkpt>
      <trkpt lat="47.23211" lon="-1.47633">
        <ele>51</ele>
        <time>2020-09-12T11:17:22.000Z</time>
      </trkpt>
      <trkpt lat="47.23204" lon="-1.4765">
        <ele>50</ele>
        <time>2020-09-12T11:17:24.000Z</time>
      </trkpt>
      <trkpt lat="47.23196" lon="-1.47668">
        <ele>50</ele>
        <time>2020-09-12T11:17:26.000Z</time>
      </trkpt>
      <trkpt lat="47.23188" lon="-1.47686">
        <ele>51</ele>
        <time>2020-09-12T11:17:28.000Z</time>
      </trkpt>
      <trkpt lat="47.2318" lon="-1.47703">
        <ele>50</ele>
        <time>2020-09-12T11:17:30.000Z</time>
      </trkpt>
      <trkpt lat="47.23172" lon="-1.47721">
        <ele>50</ele>
        <time>2020-09-12T11:17:32.000Z</time>
      </trkpt>
      <trkpt lat="47.23165" lon="-1.47739">
        <ele>51</ele>
        <time>2020-09-12T11:17:34.000Z</time>
      </trkpt>
      <trkpt lat="47.23156" lon="-1.47757">
        <ele>51</ele>
        <time>2020-09-12T11:17:36.000Z</time>
      </trkpt>
      <trkpt lat="47.23149" lon="-1.47774">
        <ele>51</ele>
        <time>2020-09-12T11:17:38.000Z</time>
      </trkpt>
      <trkpt lat="47.23143" lon="-1.47791">
        <ele>51</ele>
        <time>2020-09-12T11:17:40.000Z</time>
      </trkpt>
      <trkpt lat="47.23138" lon="-1.47809">
        <ele>51</ele>
        <time>2020-09-12T11:17:42.000Z</time>
      </trkpt>
      <trkpt lat="47.23132" lon="-1.47825">
        <ele>51</ele>
        <time>2020-09-12T11:17:44.000Z</time>
      </trkpt>
      <trkpt lat="47.23126" lon="-1.47842">
        <ele>51</ele>
        <time>2020-09-12T11:17:46.000Z</time>
      </trkpt>
      <trkpt lat="47.23117" lon="-1.47858">
        <ele>50</ele>
        <time>2020-09-12T11:17:48.000Z</time>
      </trkpt>
      <trkpt lat="47.23107" lon="-1.47874">
        <ele>50</ele>
        <time>2020-09-12T11:17:50.000Z</time>
      </trkpt>
      <trkpt lat="47.23096" lon="-1.47888">
        <ele>50</ele>
        <time>2020-09-12T11:17:52.000Z</time>
      </trkpt>
      <trkpt lat="47.23086" lon="-1.47902">
        <ele>50</ele>
        <time>2020-09-12T11:17:54.000Z</time>
      </trkpt>
      <trkpt lat="47.23075" lon="-1.47915">
        <ele>49</ele>
        <time>2020-09-12T11:17:56.000Z</time>
      </trkpt>
      <trkpt lat="47.23065" lon="-1.47929">
        <ele>49</ele>
        <time>2020-09-12T11:17:58.000Z</time>
      </trkpt>
      <trkpt lat="47.23054" lon="-1.47943">
        <ele>49</ele>
        <time>2020-09-12T11:18:00.000Z</time>
      </trkpt>
      <trkpt lat="47.23043" lon="-1.47957">
        <ele>49</ele>
        <time>2020-09-12T11:18:02.000Z</time>
      </trkpt>
      <trkpt lat="47.23033" lon="-1.47971">
        <ele>50</ele>
        <time>2020-09-12T11:18:04.000Z</time>
      </trkpt>
      <trkpt lat="47.23022" lon="-1.47986">
        <ele>50</ele>
        <time>2020-09-12T11:18:06.000Z</time>
      </trkpt>
      <trkpt lat="47.23013" lon="-1.48">
        <ele>49</ele>
        <time>2020-09-12T11:18:08.000Z</time>
      </trkpt>
      <trkpt lat="47.23004" lon="-1.48015">
        <ele>49</ele>
        <time>2020-09-12T11:18:10.000Z</time>
      </trkpt>
      <trkpt lat="47.22995" lon="-1.48029">
        <ele>49</ele>
        <time>2020-09-12T11:18:12.000Z</time>
      </trkpt>
      <trkpt lat="47.22986" lon="-1.48045">
        <ele>49</ele>
        <time>2020-09-12T11:18:14.000Z</time>
      </trkpt>
      <trkpt lat="47.22978" lon="-1.4806">
        <ele>49</ele>
        <time>2020-09-12T11:18:16.000Z</time>
      </trkpt>
      <trkpt lat="47.2297" lon="-1.48073">
        <ele>49</ele>
        <time>2020-09-12T11:18:18.000Z</time>
      </trkpt>
      <trkpt lat="47.22963" lon="-1.48083">
        <ele>49</ele>
        <time>2020-09-12T11:18:20.000Z</time>
      </trkpt>
      <trkpt lat="47.22955" lon="-1.48093">
        <ele>49</ele>
        <time>2020-09-12T11:18:23.000Z</time>
      </trkpt>
      <trkpt lat="47.2295" lon="-1.48105">
        <ele>50</ele>
        <time>2020-09-12T11:18:25.000Z</time>
      </trkpt>
      <trkpt lat="47.2294" lon="-1.48111">
        <ele>50</ele>
        <time>2020-09-12T11:18:27.000Z</time>
      </trkpt>
      <trkpt lat="47.22927" lon="-1.48112">
        <ele>51</ele>
        <time>2020-09-12T11:18:29.000Z</time>
      </trkpt>
      <trkpt lat="47.22914" lon="-1.48115">
        <ele>51</ele>
        <time>2020-09-12T11:18:31.000Z</time>
      </trkpt>
      <trkpt lat="47.22902" lon="-1.48126">
        <ele>51</ele>
        <time>2020-09-12T11:18:33.000Z</time>
      </trkpt>
      <trkpt lat="47.22891" lon="-1.4814">
        <ele>50</ele>
        <time>2020-09-12T11:18:35.000Z</time>
      </trkpt>
      <trkpt lat="47.22881" lon="-1.48155">
        <ele>50</ele>
        <time>2020-09-12T11:18:37.000Z</time>
      </trkpt>
      <trkpt lat="47.22871" lon="-1.4817">
        <ele>50</ele>
        <time>2020-09-12T11:18:39.000Z</time>
      </trkpt>
      <trkpt lat="47.22862" lon="-1.48185">
        <ele>49</ele>
        <time>2020-09-12T11:18:41.000Z</time>
      </trkpt>
      <trkpt lat="47.22852" lon="-1.482">
        <ele>49</ele>
        <time>2020-09-12T11:18:43.000Z</time>
      </trkpt>
      <trkpt lat="47.22842" lon="-1.48216">
        <ele>48</ele>
        <time>2020-09-12T11:18:45.000Z</time>
      </trkpt>
      <trkpt lat="47.22832" lon="-1.48231">
        <ele>48</ele>
        <time>2020-09-12T11:18:47.000Z</time>
      </trkpt>
      <trkpt lat="47.22822" lon="-1.48245">
        <ele>48</ele>
        <time>2020-09-12T11:18:49.000Z</time>
      </trkpt>
      <trkpt lat="47.22813" lon="-1.4826">
        <ele>48</ele>
        <time>2020-09-12T11:18:51.000Z</time>
      </trkpt>
      <trkpt lat="47.22803" lon="-1.48276">
        <ele>49</ele>
        <time>2020-09-12T11:18:53.000Z</time>
      </trkpt>
      <trkpt lat="47.22794" lon="-1.48292">
        <ele>50</ele>
        <time>2020-09-12T11:18:55.000Z</time>
      </trkpt>
      <trkpt lat="47.22784" lon="-1.48307">
        <ele>50</ele>
        <time>2020-09-12T11:18:57.000Z</time>
      </trkpt>
      <trkpt lat="47.22775" lon="-1.48323">
        <ele>51</ele>
        <time>2020-09-12T11:18:59.000Z</time>
      </trkpt>
      <trkpt lat="47.22765" lon="-1.48337">
        <ele>51</ele>
        <time>2020-09-12T11:19:01.000Z</time>
      </trkpt>
      <trkpt lat="47.22754" lon="-1.48351">
        <ele>51</ele>
        <time>2020-09-12T11:19:03.000Z</time>
      </trkpt>
      <trkpt lat="47.22744" lon="-1.48365">
        <ele>50</ele>
        <time>2020-09-12T11:19:05.000Z</time>
      </trkpt>
      <trkpt lat="47.22734" lon="-1.48378">
        <ele>50</ele>
        <time>2020-09-12T11:19:07.000Z</time>
      </trkpt>
      <trkpt lat="47.22724" lon="-1.48391">
        <ele>50</ele>
        <time>2020-09-12T11:19:09.000Z</time>
      </trkpt>
      <trkpt lat="47.22714" lon="-1.48404">
        <ele>50</ele>
        <time>2020-09-12T11:19:11.000Z</time>
      </trkpt>
      <trkpt lat="47.22706" lon="-1.4842">
        <ele>50</ele>
        <time>2020-09-12T11:19:13.000Z</time>
      </trkpt>
      <trkpt lat="47.227" lon="-1.48438">
        <ele>50</ele>
        <time>2020-09-12T11:19:15.000Z</time>
      </trkpt>
      <trkpt lat="47.22694" lon="-1.48456">
        <ele>50</ele>
        <time>2020-09-12T11:19:17.000Z</time>
      </trkpt>
      <trkpt lat="47.22686" lon="-1.48474">
        <ele>50</ele>
        <time>2020-09-12T11:19:19.000Z</time>
      </trkpt>
      <trkpt lat="47.22678" lon="-1.48491">
        <ele>50</ele>
        <time>2020-09-12T11:19:21.000Z</time>
      </trkpt>
      <trkpt lat="47.22671" lon="-1.48508">
        <ele>50</ele>
        <time>2020-09-12T11:19:23.000Z</time>
      </trkpt>
      <trkpt lat="47.22666" lon="-1.48526">
        <ele>50</ele>
        <time>2020-09-12T11:19:25.000Z</time>
      </trkpt>
      <trkpt lat="47.2266" lon="-1.48546">
        <ele>50</ele>
        <time>2020-09-12T11:19:27.000Z</time>
      </trkpt>
      <trkpt lat="47.22653" lon="-1.48565">
        <ele>50</ele>
        <time>2020-09-12T11:19:29.000Z</time>
      </trkpt>
      <trkpt lat="47.22646" lon="-1.48583">
        <ele>50</ele>
        <time>2020-09-12T11:19:31.000Z</time>
      </trkpt>
      <trkpt lat="47.2264" lon="-1.486">
        <ele>50</ele>
        <time>2020-09-12T11:19:33.000Z</time>
      </trkpt>
      <trkpt lat="47.22634" lon="-1.48616">
        <ele>50</ele>
        <time>2020-09-12T11:19:35.000Z</time>
      </trkpt>
      <trkpt lat="47.22628" lon="-1.48633">
        <ele>50</ele>
        <time>2020-09-12T11:19:37.000Z</time>
      </trkpt>
      <trkpt lat="47.22621" lon="-1.48652">
        <ele>50</ele>
        <time>2020-09-12T11:19:39.000Z</time>
      </trkpt>
      <trkpt lat="47.22615" lon="-1.48672">
        <ele>52</ele>
        <time>2020-09-12T11:19:41.000Z</time>
      </trkpt>
      <trkpt lat="47.2261" lon="-1.48692">
        <ele>52</ele>
        <time>2020-09-12T11:19:43.000Z</time>
      </trkpt>
      <trkpt lat="47.22603" lon="-1.48711">
        <ele>53</ele>
        <time>2020-09-12T11:19:45.000Z</time>
      </trkpt>
      <trkpt lat="47.22598" lon="-1.48731">
        <ele>53</ele>
        <time>2020-09-12T11:19:47.000Z</time>
      </trkpt>
      <trkpt lat="47.22592" lon="-1.4875">
        <ele>52</ele>
        <time>2020-09-12T11:19:49.000Z</time>
      </trkpt>
      <trkpt lat="47.22587" lon="-1.48769">
        <ele>51</ele>
        <time>2020-09-12T11:19:51.000Z</time>
      </trkpt>
      <trkpt lat="47.22582" lon="-1.48788">
        <ele>51</ele>
        <time>2020-09-12T11:19:53.000Z</time>
      </trkpt>
      <trkpt lat="47.22576" lon="-1.48807">
        <ele>52</ele>
        <time>2020-09-12T11:19:55.000Z</time>
      </trkpt>
      <trkpt lat="47.2257" lon="-1.48825">
        <ele>51</ele>
        <time>2020-09-12T11:19:57.000Z</time>
      </trkpt>
      <trkpt lat="47.22565" lon="-1.48842">
        <ele>51</ele>
        <time>2020-09-12T11:19:59.000Z</time>
      </trkpt>
      <trkpt lat="47.22561" lon="-1.48859">
        <ele>51</ele>
        <time>2020-09-12T11:20:01.000Z</time>
      </trkpt>
      <trkpt lat="47.22556" lon="-1.48877">
        <ele>51</ele>
        <time>2020-09-12T11:20:03.000Z</time>
      </trkpt>
      <trkpt lat="47.22551" lon="-1.48894">
        <ele>51</ele>
        <time>2020-09-12T11:20:05.000Z</time>
      </trkpt>
      <trkpt lat="47.22546" lon="-1.48911">
        <ele>51</ele>
        <time>2020-09-12T11:20:07.000Z</time>
      </trkpt>
      <trkpt lat="47.22541" lon="-1.4893">
        <ele>50</ele>
        <time>2020-09-12T11:20:09.000Z</time>
      </trkpt>
      <trkpt lat="47.22535" lon="-1.48948">
        <ele>50</ele>
        <time>2020-09-12T11:20:11.000Z</time>
      </trkpt>
      <trkpt lat="47.22527" lon="-1.48966">
        <ele>51</ele>
        <time>2020-09-12T11:20:13.000Z</time>
      </trkpt>
      <trkpt lat="47.22519" lon="-1.48986">
        <ele>50</ele>
        <time>2020-09-12T11:20:15.000Z</time>
      </trkpt>
      <trkpt lat="47.22514" lon="-1.49004">
        <ele>50</ele>
        <time>2020-09-12T11:20:17.000Z</time>
      </trkpt>
      <trkpt lat="47.22508" lon="-1.49023">
        <ele>50</ele>
        <time>2020-09-12T11:20:19.000Z</time>
      </trkpt>
      <trkpt lat="47.22503" lon="-1.49043">
        <ele>50</ele>
        <time>2020-09-12T11:20:21.000Z</time>
      </trkpt>
      <trkpt lat="47.22497" lon="-1.49061">
        <ele>50</ele>
        <time>2020-09-12T11:20:23.000Z</time>
      </trkpt>
      <trkpt lat="47.22492" lon="-1.49079">
        <ele>51</ele>
        <time>2020-09-12T11:20:25.000Z</time>
      </trkpt>
      <trkpt lat="47.22487" lon="-1.49097">
        <ele>51</ele>
        <time>2020-09-12T11:20:27.000Z</time>
      </trkpt>
      <trkpt lat="47.22481" lon="-1.49116">
        <ele>52</ele>
        <time>2020-09-12T11:20:29.000Z</time>
      </trkpt>
      <trkpt lat="47.22475" lon="-1.49135">
        <ele>52</ele>
        <time>2020-09-12T11:20:31.000Z</time>
      </trkpt>
      <trkpt lat="47.22468" lon="-1.49156">
        <ele>52</ele>
        <time>2020-09-12T11:20:33.000Z</time>
      </trkpt>
      <trkpt lat="47.2246" lon="-1.49175">
        <ele>52</ele>
        <time>2020-09-12T11:20:35.000Z</time>
      </trkpt>
      <trkpt lat="47.22452" lon="-1.49195">
        <ele>52</ele>
        <time>2020-09-12T11:20:37.000Z</time>
      </trkpt>
      <trkpt lat="47.22445" lon="-1.49214">
        <ele>52</ele>
        <time>2020-09-12T11:20:39.000Z</time>
      </trkpt>
      <trkpt lat="47.2244" lon="-1.49233">
        <ele>53</ele>
        <time>2020-09-12T11:20:41.000Z</time>
      </trkpt>
      <trkpt lat="47.22432" lon="-1.49252">
        <ele>53</ele>
        <time>2020-09-12T11:20:43.000Z</time>
      </trkpt>
      <trkpt lat="47.22424" lon="-1.49271">
        <ele>54</ele>
        <time>2020-09-12T11:20:45.000Z</time>
      </trkpt>
      <trkpt lat="47.22416" lon="-1.49288">
        <ele>54</ele>
        <time>2020-09-12T11:20:47.000Z</time>
      </trkpt>
      <trkpt lat="47.2241" lon="-1.49306">
        <ele>54</ele>
        <time>2020-09-12T11:20:49.000Z</time>
      </trkpt>
      <trkpt lat="47.22404" lon="-1.49323">
        <ele>53</ele>
        <time>2020-09-12T11:20:51.000Z</time>
      </trkpt>
      <trkpt lat="47.22398" lon="-1.49341">
        <ele>53</ele>
        <time>2020-09-12T11:20:53.000Z</time>
      </trkpt>
      <trkpt lat="47.2239" lon="-1.4936">
        <ele>53</ele>
        <time>2020-09-12T11:20:55.000Z</time>
      </trkpt>
      <trkpt lat="47.22382" lon="-1.49377">
        <ele>53</ele>
        <time>2020-09-12T11:20:57.000Z</time>
      </trkpt>
      <trkpt lat="47.22376" lon="-1.49393">
        <ele>53</ele>
        <time>2020-09-12T11:20:59.000Z</time>
      </trkpt>
      <trkpt lat="47.22368" lon="-1.4941">
        <ele>53</ele>
        <time>2020-09-12T11:21:01.000Z</time>
      </trkpt>
      <trkpt lat="47.22361" lon="-1.49425">
        <ele>52</ele>
        <time>2020-09-12T11:21:03.000Z</time>
      </trkpt>
      <trkpt lat="47.22355" lon="-1.49441">
        <ele>53</ele>
        <time>2020-09-12T11:21:05.000Z</time>
      </trkpt>
      <trkpt lat="47.2235" lon="-1.49458">
        <ele>53</ele>
        <time>2020-09-12T11:21:07.000Z</time>
      </trkpt>
      <trkpt lat="47.22344" lon="-1.49476">
        <ele>53</ele>
        <time>2020-09-12T11:21:09.000Z</time>
      </trkpt>
      <trkpt lat="47.22339" lon="-1.49495">
        <ele>53</ele>
        <time>2020-09-12T11:21:11.000Z</time>
      </trkpt>
      <trkpt lat="47.22333" lon="-1.49514">
        <ele>52</ele>
        <time>2020-09-12T11:21:13.000Z</time>
      </trkpt>
      <trkpt lat="47.22327" lon="-1.49532">
        <ele>53</ele>
        <time>2020-09-12T11:21:15.000Z</time>
      </trkpt>
      <trkpt lat="47.22321" lon="-1.49551">
        <ele>54</ele>
        <time>2020-09-12T11:21:17.000Z</time>
      </trkpt>
      <trkpt lat="47.22315" lon="-1.4957">
        <ele>54</ele>
        <time>2020-09-12T11:21:19.000Z</time>
      </trkpt>
      <trkpt lat="47.22308" lon="-1.49588">
        <ele>54</ele>
        <time>2020-09-12T11:21:21.000Z</time>
      </trkpt>
      <trkpt lat="47.22302" lon="-1.49605">
        <ele>53</ele>
        <time>2020-09-12T11:21:23.000Z</time>
      </trkpt>
      <trkpt lat="47.22297" lon="-1.49624">
        <ele>53</ele>
        <time>2020-09-12T11:21:25.000Z</time>
      </trkpt>
      <trkpt lat="47.22293" lon="-1.49643">
        <ele>53</ele>
        <time>2020-09-12T11:21:27.000Z</time>
      </trkpt>
      <trkpt lat="47.22288" lon="-1.49662">
        <ele>54</ele>
        <time>2020-09-12T11:21:29.000Z</time>
      </trkpt>
      <trkpt lat="47.22282" lon="-1.49681">
        <ele>54</ele>
        <time>2020-09-12T11:21:31.000Z</time>
      </trkpt>
      <trkpt lat="47.22275" lon="-1.49701">
        <ele>54</ele>
        <time>2020-09-12T11:21:33.000Z</time>
      </trkpt>
      <trkpt lat="47.22269" lon="-1.49719">
        <ele>53</ele>
        <time>2020-09-12T11:21:35.000Z</time>
      </trkpt>
      <trkpt lat="47.22263" lon="-1.49739">
        <ele>53</ele>
        <time>2020-09-12T11:21:37.000Z</time>
      </trkpt>
      <trkpt lat="47.22259" lon="-1.49759">
        <ele>53</ele>
        <time>2020-09-12T11:21:39.000Z</time>
      </trkpt>
      <trkpt lat="47.22256" lon="-1.4978">
        <ele>54</ele>
        <time>2020-09-12T11:21:41.000Z</time>
      </trkpt>
      <trkpt lat="47.22253" lon="-1.498">
        <ele>54</ele>
        <time>2020-09-12T11:21:43.000Z</time>
      </trkpt>
      <trkpt lat="47.22248" lon="-1.49821">
        <ele>55</ele>
        <time>2020-09-12T11:21:45.000Z</time>
      </trkpt>
      <trkpt lat="47.22243" lon="-1.4984">
        <ele>55</ele>
        <time>2020-09-12T11:21:47.000Z</time>
      </trkpt>
      <trkpt lat="47.22238" lon="-1.4986">
        <ele>54</ele>
        <time>2020-09-12T11:21:49.000Z</time>
      </trkpt>
      <trkpt lat="47.22233" lon="-1.49879">
        <ele>54</ele>
        <time>2020-09-12T11:21:51.000Z</time>
      </trkpt>
      <trkpt lat="47.22229" lon="-1.49899">
        <ele>53</ele>
        <time>2020-09-12T11:21:53.000Z</time>
      </trkpt>
      <trkpt lat="47.22224" lon="-1.4992">
        <ele>52</ele>
        <time>2020-09-12T11:21:55.000Z</time>
      </trkpt>
      <trkpt lat="47.22219" lon="-1.49939">
        <ele>52</ele>
        <time>2020-09-12T11:21:57.000Z</time>
      </trkpt>
      <trkpt lat="47.22215" lon="-1.49958">
        <ele>52</ele>
        <time>2020-09-12T11:21:59.000Z</time>
      </trkpt>
      <trkpt lat="47.22211" lon="-1.49977">
        <ele>52</ele>
        <time>2020-09-12T11:22:01.000Z</time>
      </trkpt>
      <trkpt lat="47.22205" lon="-1.49995">
        <ele>53</ele>
        <time>2020-09-12T11:22:03.000Z</time>
      </trkpt>
      <trkpt lat="47.222" lon="-1.50015">
        <ele>53</ele>
        <time>2020-09-12T11:22:05.000Z</time>
      </trkpt>
      <trkpt lat="47.22194" lon="-1.50035">
        <ele>53</ele>
        <time>2020-09-12T11:22:07.000Z</time>
      </trkpt>
      <trkpt lat="47.22189" lon="-1.50055">
        <ele>54</ele>
        <time>2020-09-12T11:22:09.000Z</time>
      </trkpt>
      <trkpt lat="47.22184" lon="-1.50074">
        <ele>54</ele>
        <time>2020-09-12T11:22:11.000Z</time>
      </trkpt>
      <trkpt lat="47.22179" lon="-1.50094">
        <ele>54</ele>
        <time>2020-09-12T11:22:13.000Z</time>
      </trkpt>
      <trkpt lat="47.22175" lon="-1.50112">
        <ele>54</ele>
        <time>2020-09-12T11:22:15.000Z</time>
      </trkpt>
      <trkpt lat="47.2217" lon="-1.50129">
        <ele>54</ele>
        <time>2020-09-12T11:22:17.000Z</time>
      </trkpt>
      <trkpt lat="47.22164" lon="-1.50146">
        <ele>53</ele>
        <time>2020-09-12T11:22:19.000Z</time>
      </trkpt>
      <trkpt lat="47.22159" lon="-1.50164">
        <ele>53</ele>
        <time>2020-09-12T11:22:21.000Z</time>
      </trkpt>
      <trkpt lat="47.22153" lon="-1.50184">
        <ele>53</ele>
        <time>2020-09-12T11:22:23.000Z</time>
      </trkpt>
      <trkpt lat="47.22148" lon="-1.50204">
        <ele>54</ele>
        <time>2020-09-12T11:22:25.000Z</time>
      </trkpt>
      <trkpt lat="47.22142" lon="-1.50224">
        <ele>54</ele>
        <time>2020-09-12T11:22:27.000Z</time>
      </trkpt>
      <trkpt lat="47.22137" lon="-1.50242">
        <ele>55</ele>
        <time>2020-09-12T11:22:29.000Z</time>
      </trkpt>
      <trkpt lat="47.22133" lon="-1.50262">
        <ele>55</ele>
        <time>2020-09-12T11:22:31.000Z</time>
      </trkpt>
      <trkpt lat="47.22124" lon="-1.50282">
        <ele>55</ele>
        <time>2020-09-12T11:22:33.000Z</time>
      </trkpt>
      <trkpt lat="47.22116" lon="-1.50298">
        <ele>55</ele>
        <time>2020-09-12T11:22:35.000Z</time>
      </trkpt>
      <trkpt lat="47.22107" lon="-1.50314">
        <ele>55</ele>
        <time>2020-09-12T11:22:37.000Z</time>
      </trkpt>
      <trkpt lat="47.221" lon="-1.50329">
        <ele>56</ele>
        <time>2020-09-12T11:22:39.000Z</time>
      </trkpt>
      <trkpt lat="47.22094" lon="-1.50345">
        <ele>56</ele>
        <time>2020-09-12T11:22:41.000Z</time>
      </trkpt>
      <trkpt lat="47.22088" lon="-1.50364">
        <ele>55</ele>
        <time>2020-09-12T11:22:43.000Z</time>
      </trkpt>
      <trkpt lat="47.22084" lon="-1.50383">
        <ele>55</ele>
        <time>2020-09-12T11:22:45.000Z</time>
      </trkpt>
      <trkpt lat="47.22079" lon="-1.50402">
        <ele>56</ele>
        <time>2020-09-12T11:22:47.000Z</time>
      </trkpt>
      <trkpt lat="47.22074" lon="-1.50419">
        <ele>56</ele>
        <time>2020-09-12T11:22:49.000Z</time>
      </trkpt>
      <trkpt lat="47.22069" lon="-1.50439">
        <ele>55</ele>
        <time>2020-09-12T11:22:51.000Z</time>
      </trkpt>
      <trkpt lat="47.22066" lon="-1.5046">
        <ele>55</ele>
        <time>2020-09-12T11:22:53.000Z</time>
      </trkpt>
      <trkpt lat="47.22064" lon="-1.50481">
        <ele>54</ele>
        <time>2020-09-12T11:22:55.000Z</time>
      </trkpt>
      <trkpt lat="47.22062" lon="-1.50502">
        <ele>54</ele>
        <time>2020-09-12T11:22:57.000Z</time>
      </trkpt>
      <trkpt lat="47.2206" lon="-1.50522">
        <ele>54</ele>
        <time>2020-09-12T11:22:59.000Z</time>
      </trkpt>
      <trkpt lat="47.22058" lon="-1.50542">
        <ele>54</ele>
        <time>2020-09-12T11:23:01.000Z</time>
      </trkpt>
      <trkpt lat="47.22057" lon="-1.50561">
        <ele>54</ele>
        <time>2020-09-12T11:23:03.000Z</time>
      </trkpt>
      <trkpt lat="47.22057" lon="-1.50579">
        <ele>54</ele>
        <time>2020-09-12T11:23:05.000Z</time>
      </trkpt>
      <trkpt lat="47.22057" lon="-1.50597">
        <ele>54</ele>
        <time>2020-09-12T11:23:07.000Z</time>
      </trkpt>
      <trkpt lat="47.22056" lon="-1.50616">
        <ele>53</ele>
        <time>2020-09-12T11:23:09.000Z</time>
      </trkpt>
      <trkpt lat="47.22055" lon="-1.50635">
        <ele>52</ele>
        <time>2020-09-12T11:23:11.000Z</time>
      </trkpt>
      <trkpt lat="47.22053" lon="-1.50656">
        <ele>53</ele>
        <time>2020-09-12T11:23:13.000Z</time>
      </trkpt>
      <trkpt lat="47.22051" lon="-1.50675">
        <ele>53</ele>
        <time>2020-09-12T11:23:15.000Z</time>
      </trkpt>
      <trkpt lat="47.22049" lon="-1.50693">
        <ele>53</ele>
        <time>2020-09-12T11:23:17.000Z</time>
      </trkpt>
      <trkpt lat="47.22048" lon="-1.5071">
        <ele>52</ele>
        <time>2020-09-12T11:23:19.000Z</time>
      </trkpt>
      <trkpt lat="47.22046" lon="-1.50729">
        <ele>52</ele>
        <time>2020-09-12T11:23:21.000Z</time>
      </trkpt>
      <trkpt lat="47.22043" lon="-1.50749">
        <ele>52</ele>
        <time>2020-09-12T11:23:23.000Z</time>
      </trkpt>
      <trkpt lat="47.2204" lon="-1.50768">
        <ele>52</ele>
        <time>2020-09-12T11:23:25.000Z</time>
      </trkpt>
      <trkpt lat="47.22036" lon="-1.50785">
        <ele>52</ele>
        <time>2020-09-12T11:23:27.000Z</time>
      </trkpt>
      <trkpt lat="47.2203" lon="-1.50802">
        <ele>53</ele>
        <time>2020-09-12T11:23:29.000Z</time>
      </trkpt>
      <trkpt lat="47.22024" lon="-1.50821">
        <ele>53</ele>
        <time>2020-09-12T11:23:31.000Z</time>
      </trkpt>
      <trkpt lat="47.22019" lon="-1.50837">
        <ele>53</ele>
        <time>2020-09-12T11:23:33.000Z</time>
      </trkpt>
      <trkpt lat="47.22012" lon="-1.50855">
        <ele>54</ele>
        <time>2020-09-12T11:23:35.000Z</time>
      </trkpt>
      <trkpt lat="47.22005" lon="-1.50875">
        <ele>54</ele>
        <time>2020-09-12T11:23:37.000Z</time>
      </trkpt>
      <trkpt lat="47.21998" lon="-1.50896">
        <ele>54</ele>
        <time>2020-09-12T11:23:39.000Z</time>
      </trkpt>
      <trkpt lat="47.21992" lon="-1.50915">
        <ele>54</ele>
        <time>2020-09-12T11:23:41.000Z</time>
      </trkpt>
      <trkpt lat="47.21985" lon="-1.50935">
        <ele>54</ele>
        <time>2020-09-12T11:23:43.000Z</time>
      </trkpt>
      <trkpt lat="47.2198" lon="-1.50953">
        <ele>54</ele>
        <time>2020-09-12T11:23:45.000Z</time>
      </trkpt>
      <trkpt lat="47.21975" lon="-1.50972">
        <ele>54</ele>
        <time>2020-09-12T11:23:47.000Z</time>
      </trkpt>
      <trkpt lat="47.21969" lon="-1.50991">
        <ele>54</ele>
        <time>2020-09-12T11:23:49.000Z</time>
      </trkpt>
      <trkpt lat="47.21964" lon="-1.51009">
        <ele>53</ele>
        <time>2020-09-12T11:23:51.000Z</time>
      </trkpt>
      <trkpt lat="47.21958" lon="-1.51027">
        <ele>54</ele>
        <time>2020-09-12T11:23:53.000Z</time>
      </trkpt>
      <trkpt lat="47.21953" lon="-1.51044">
        <ele>53</ele>
        <time>2020-09-12T11:23:55.000Z</time>
      </trkpt>
      <trkpt lat="47.21948" lon="-1.51058">
        <ele>53</ele>
        <time>2020-09-12T11:23:57.000Z</time>
      </trkpt>
      <trkpt lat="47.21938" lon="-1.51069">
        <ele>53</ele>
        <time>2020-09-12T11:23:59.000Z</time>
      </trkpt>
      <trkpt lat="47.2193" lon="-1.51086">
        <ele>52</ele>
        <time>2020-09-12T11:24:01.000Z</time>
      </trkpt>
      <trkpt lat="47.21924" lon="-1.51106">
        <ele>51</ele>
        <time>2020-09-12T11:24:03.000Z</time>
      </trkpt>
      <trkpt lat="47.21918" lon="-1.51125">
        <ele>51</ele>
        <time>2020-09-12T11:24:05.000Z</time>
      </trkpt>
      <trkpt lat="47.21912" lon="-1.51143">
        <ele>51</ele>
        <time>2020-09-12T11:24:07.000Z</time>
      </trkpt>
      <trkpt lat="47.21906" lon="-1.51162">
        <ele>52</ele>
        <time>2020-09-12T11:24:09.000Z</time>
      </trkpt>
      <trkpt lat="47.219" lon="-1.5118">
        <ele>51</ele>
        <time>2020-09-12T11:24:11.000Z</time>
      </trkpt>
      <trkpt lat="47.21894" lon="-1.51198">
        <ele>51</ele>
        <time>2020-09-12T11:24:13.000Z</time>
      </trkpt>
      <trkpt lat="47.21888" lon="-1.51217">
        <ele>51</ele>
        <time>2020-09-12T11:24:15.000Z</time>
      </trkpt>
      <trkpt lat="47.21882" lon="-1.51236">
        <ele>51</ele>
        <time>2020-09-12T11:24:17.000Z</time>
      </trkpt>
      <trkpt lat="47.21876" lon="-1.51254">
        <ele>51</ele>
        <time>2020-09-12T11:24:19.000Z</time>
      </trkpt>
      <trkpt lat="47.2187" lon="-1.51273">
        <ele>51</ele>
        <time>2020-09-12T11:24:21.000Z</time>
      </trkpt>
      <trkpt lat="47.21865" lon="-1.51291">
        <ele>51</ele>
        <time>2020-09-12T11:24:23.000Z</time>
      </trkpt>
      <trkpt lat="47.2186" lon="-1.51307">
        <ele>52</ele>
        <time>2020-09-12T11:24:25.000Z</time>
      </trkpt>
      <trkpt lat="47.21856" lon="-1.51325">
        <ele>52</ele>
        <time>2020-09-12T11:24:27.000Z</time>
      </trkpt>
      <trkpt lat="47.21851" lon="-1.51342">
        <ele>52</ele>
        <time>2020-09-12T11:24:29.000Z</time>
      </trkpt>
      <trkpt lat="47.21846" lon="-1.51361">
        <ele>52</ele>
        <time>2020-09-12T11:24:31.000Z</time>
      </trkpt>
      <trkpt lat="47.21841" lon="-1.51379">
        <ele>52</ele>
        <time>2020-09-12T11:24:33.000Z</time>
      </trkpt>
      <trkpt lat="47.21836" lon="-1.51397">
        <ele>52</ele>
        <time>2020-09-12T11:24:35.000Z</time>
      </trkpt>
      <trkpt lat="47.21832" lon="-1.51417">
        <ele>53</ele>
        <time>2020-09-12T11:24:37.000Z</time>
      </trkpt>
      <trkpt lat="47.21827" lon="-1.51436">
        <ele>53</ele>
        <time>2020-09-12T11:24:39.000Z</time>
      </trkpt>
      <trkpt lat="47.21823" lon="-1.51455">
        <ele>53</ele>
        <time>2020-09-12T11:24:41.000Z</time>
      </trkpt>
      <trkpt lat="47.21818" lon="-1.51475">
        <ele>53</ele>
        <time>2020-09-12T11:24:43.000Z</time>
      </trkpt>
      <trkpt lat="47.21814" lon="-1.51494">
        <ele>53</ele>
        <time>2020-09-12T11:24:45.000Z</time>
      </trkpt>
      <trkpt lat="47.21806" lon="-1.51511">
        <ele>53</ele>
        <time>2020-09-12T11:24:47.000Z</time>
      </trkpt>
      <trkpt lat="47.21799" lon="-1.51528">
        <ele>54</ele>
        <time>2020-09-12T11:24:49.000Z</time>
      </trkpt>
      <trkpt lat="47.21791" lon="-1.51545">
        <ele>54</ele>
        <time>2020-09-12T11:24:51.000Z</time>
      </trkpt>
      <trkpt lat="47.21784" lon="-1.51562">
        <ele>54</ele>
        <time>2020-09-12T11:24:53.000Z</time>
      </trkpt>
      <trkpt lat="47.21776" lon="-1.51579">
        <ele>55</ele>
        <time>2020-09-12T11:24:55.000Z</time>
      </trkpt>
      <trkpt lat="47.21767" lon="-1.51593">
        <ele>55</ele>
        <time>2020-09-12T11:24:57.000Z</time>
      </trkpt>
      <trkpt lat="47.21757" lon="-1.51606">
        <ele>55</ele>
        <time>2020-09-12T11:24:59.000Z</time>
      </trkpt>
      <trkpt lat="47.21749" lon="-1.5162">
        <ele>55</ele>
        <time>2020-09-12T11:25:01.000Z</time>
      </trkpt>
      <trkpt lat="47.21741" lon="-1.51637">
        <ele>55</ele>
        <time>2020-09-12T11:25:03.000Z</time>
      </trkpt>
      <trkpt lat="47.21734" lon="-1.51653">
        <ele>55</ele>
        <time>2020-09-12T11:25:05.000Z</time>
      </trkpt>
      <trkpt lat="47.21727" lon="-1.51668">
        <ele>55</ele>
        <time>2020-09-12T11:25:07.000Z</time>
      </trkpt>
      <trkpt lat="47.2172" lon="-1.51685">
        <ele>55</ele>
        <time>2020-09-12T11:25:09.000Z</time>
      </trkpt>
      <trkpt lat="47.21712" lon="-1.517">
        <ele>55</ele>
        <time>2020-09-12T11:25:11.000Z</time>
      </trkpt>
      <trkpt lat="47.21705" lon="-1.51716">
        <ele>55</ele>
        <time>2020-09-12T11:25:13.000Z</time>
      </trkpt>
      <trkpt lat="47.21698" lon="-1.51733">
        <ele>55</ele>
        <time>2020-09-12T11:25:15.000Z</time>
      </trkpt>
      <trkpt lat="47.21689" lon="-1.51752">
        <ele>55</ele>
        <time>2020-09-12T11:25:17.000Z</time>
      </trkpt>
      <trkpt lat="47.21682" lon="-1.51769">
        <ele>55</ele>
        <time>2020-09-12T11:25:19.000Z</time>
      </trkpt>
      <trkpt lat="47.21674" lon="-1.51788">
        <ele>54</ele>
        <time>2020-09-12T11:25:21.000Z</time>
      </trkpt>
      <trkpt lat="47.21667" lon="-1.51805">
        <ele>55</ele>
        <time>2020-09-12T11:25:23.000Z</time>
      </trkpt>
      <trkpt lat="47.21659" lon="-1.51822">
        <ele>55</ele>
        <time>2020-09-12T11:25:25.000Z</time>
      </trkpt>
      <trkpt lat="47.21653" lon="-1.5184">
        <ele>55</ele>
        <time>2020-09-12T11:25:27.000Z</time>
      </trkpt>
      <trkpt lat="47.21648" lon="-1.51858">
        <ele>56</ele>
        <time>2020-09-12T11:25:29.000Z</time>
      </trkpt>
      <trkpt lat="47.21646" lon="-1.51878">
        <ele>56</ele>
        <time>2020-09-12T11:25:31.000Z</time>
      </trkpt>
      <trkpt lat="47.21638" lon="-1.51895">
        <ele>56</ele>
        <time>2020-09-12T11:25:33.000Z</time>
      </trkpt>
      <trkpt lat="47.2163" lon="-1.51911">
        <ele>56</ele>
        <time>2020-09-12T11:25:35.000Z</time>
      </trkpt>
      <trkpt lat="47.21624" lon="-1.51929">
        <ele>57</ele>
        <time>2020-09-12T11:25:37.000Z</time>
      </trkpt>
      <trkpt lat="47.21621" lon="-1.51948">
        <ele>56</ele>
        <time>2020-09-12T11:25:39.000Z</time>
      </trkpt>
      <trkpt lat="47.21618" lon="-1.51967">
        <ele>56</ele>
        <time>2020-09-12T11:25:41.000Z</time>
      </trkpt>
      <trkpt lat="47.21609" lon="-1.51983">
        <ele>57</ele>
        <time>2020-09-12T11:25:43.000Z</time>
      </trkpt>
      <trkpt lat="47.21604" lon="-1.51999">
        <ele>57</ele>
        <time>2020-09-12T11:25:45.000Z</time>
      </trkpt>
      <trkpt lat="47.21597" lon="-1.52018">
        <ele>56</ele>
        <time>2020-09-12T11:25:47.000Z</time>
      </trkpt>
      <trkpt lat="47.2159" lon="-1.52037">
        <ele>55</ele>
        <time>2020-09-12T11:25:49.000Z</time>
      </trkpt>
      <trkpt lat="47.21584" lon="-1.52057">
        <ele>55</ele>
        <time>2020-09-12T11:25:51.000Z</time>
      </trkpt>
      <trkpt lat="47.21577" lon="-1.52076">
        <ele>55</ele>
        <time>2020-09-12T11:25:53.000Z</time>
      </trkpt>
      <trkpt lat="47.21571" lon="-1.52095">
        <ele>55</ele>
        <time>2020-09-12T11:25:55.000Z</time>
      </trkpt>
      <trkpt lat="47.21565" lon="-1.52114">
        <ele>55</ele>
        <time>2020-09-12T11:25:57.000Z</time>
      </trkpt>
      <trkpt lat="47.21559" lon="-1.52134">
        <ele>55</ele>
        <time>2020-09-12T11:25:59.000Z</time>
      </trkpt>
      <trkpt lat="47.21552" lon="-1.52152">
        <ele>56</ele>
        <time>2020-09-12T11:26:01.000Z</time>
      </trkpt>
      <trkpt lat="47.21547" lon="-1.52172">
        <ele>55</ele>
        <time>2020-09-12T11:26:03.000Z</time>
      </trkpt>
      <trkpt lat="47.2154" lon="-1.52191">
        <ele>55</ele>
        <time>2020-09-12T11:26:05.000Z</time>
      </trkpt>
      <trkpt lat="47.21534" lon="-1.5221">
        <ele>55</ele>
        <time>2020-09-12T11:26:07.000Z</time>
      </trkpt>
      <trkpt lat="47.21528" lon="-1.52229">
        <ele>54</ele>
        <time>2020-09-12T11:26:09.000Z</time>
      </trkpt>
      <trkpt lat="47.21522" lon="-1.52247">
        <ele>54</ele>
        <time>2020-09-12T11:26:11.000Z</time>
      </trkpt>
      <trkpt lat="47.21516" lon="-1.52267">
        <ele>55</ele>
        <time>2020-09-12T11:26:13.000Z</time>
      </trkpt>
      <trkpt lat="47.2151" lon="-1.52287">
        <ele>55</ele>
        <time>2020-09-12T11:26:15.000Z</time>
      </trkpt>
      <trkpt lat="47.21504" lon="-1.52308">
        <ele>55</ele>
        <time>2020-09-12T11:26:17.000Z</time>
      </trkpt>
      <trkpt lat="47.21498" lon="-1.52328">
        <ele>55</ele>
        <time>2020-09-12T11:26:19.000Z</time>
      </trkpt>
      <trkpt lat="47.21492" lon="-1.52347">
        <ele>55</ele>
        <time>2020-09-12T11:26:21.000Z</time>
      </trkpt>
      <trkpt lat="47.21486" lon="-1.52366">
        <ele>56</ele>
        <time>2020-09-12T11:26:23.000Z</time>
      </trkpt>
      <trkpt lat="47.21479" lon="-1.52386">
        <ele>56</ele>
        <time>2020-09-12T11:26:25.000Z</time>
      </trkpt>
      <trkpt lat="47.21472" lon="-1.52406">
        <ele>56</ele>
        <time>2020-09-12T11:26:27.000Z</time>
      </trkpt>
      <trkpt lat="47.21465" lon="-1.52425">
        <ele>56</ele>
        <time>2020-09-12T11:26:29.000Z</time>
      </trkpt>
      <trkpt lat="47.21459" lon="-1.52445">
        <ele>56</ele>
        <time>2020-09-12T11:26:31.000Z</time>
      </trkpt>
      <trkpt lat="47.21454" lon="-1.52465">
        <ele>55</ele>
        <time>2020-09-12T11:26:33.000Z</time>
      </trkpt>
      <trkpt lat="47.21447" lon="-1.52484">
        <ele>55</ele>
        <time>2020-09-12T11:26:35.000Z</time>
      </trkpt>
      <trkpt lat="47.21441" lon="-1.52503">
        <ele>55</ele>
        <time>2020-09-12T11:26:37.000Z</time>
      </trkpt>
      <trkpt lat="47.21434" lon="-1.52523">
        <ele>55</ele>
        <time>2020-09-12T11:26:39.000Z</time>
      </trkpt>
      <trkpt lat="47.21428" lon="-1.52542">
        <ele>55</ele>
        <time>2020-09-12T11:26:41.000Z</time>
      </trkpt>
      <trkpt lat="47.21422" lon="-1.52562">
        <ele>55</ele>
        <time>2020-09-12T11:26:43.000Z</time>
      </trkpt>
      <trkpt lat="47.21416" lon="-1.52581">
        <ele>55</ele>
        <time>2020-09-12T11:26:45.000Z</time>
      </trkpt>
      <trkpt lat="47.2141" lon="-1.52601">
        <ele>55</ele>
        <time>2020-09-12T11:26:47.000Z</time>
      </trkpt>
      <trkpt lat="47.21403" lon="-1.5262">
        <ele>55</ele>
        <time>2020-09-12T11:26:49.000Z</time>
      </trkpt>
      <trkpt lat="47.21398" lon="-1.52638">
        <ele>56</ele>
        <time>2020-09-12T11:26:51.000Z</time>
      </trkpt>
      <trkpt lat="47.21395" lon="-1.52655">
        <ele>57</ele>
        <time>2020-09-12T11:26:53.000Z</time>
      </trkpt>
      <trkpt lat="47.2139" lon="-1.52674">
        <ele>57</ele>
        <time>2020-09-12T11:26:55.000Z</time>
      </trkpt>
      <trkpt lat="47.21385" lon="-1.52695">
        <ele>57</ele>
        <time>2020-09-12T11:26:57.000Z</time>
      </trkpt>
      <trkpt lat="47.2138" lon="-1.52714">
        <ele>57</ele>
        <time>2020-09-12T11:26:59.000Z</time>
      </trkpt>
      <trkpt lat="47.21376" lon="-1.52736">
        <ele>57</ele>
        <time>2020-09-12T11:27:01.000Z</time>
      </trkpt>
      <trkpt lat="47.21372" lon="-1.52757">
        <ele>56</ele>
        <time>2020-09-12T11:27:03.000Z</time>
      </trkpt>
      <trkpt lat="47.21369" lon="-1.52778">
        <ele>56</ele>
        <time>2020-09-12T11:27:05.000Z</time>
      </trkpt>
      <trkpt lat="47.21366" lon="-1.52798">
        <ele>57</ele>
        <time>2020-09-12T11:27:07.000Z</time>
      </trkpt>
      <trkpt lat="47.2136" lon="-1.52826">
        <ele>57</ele>
        <time>2020-09-12T11:27:10.000Z</time>
      </trkpt>
      <trkpt lat="47.21352" lon="-1.52855">
        <ele>55</ele>
        <time>2020-09-12T11:27:13.000Z</time>
      </trkpt>
      <trkpt lat="47.21348" lon="-1.52877">
        <ele>55</ele>
        <time>2020-09-12T11:27:15.000Z</time>
      </trkpt>
      <trkpt lat="47.21344" lon="-1.52898">
        <ele>54</ele>
        <time>2020-09-12T11:27:17.000Z</time>
      </trkpt>
      <trkpt lat="47.21341" lon="-1.52918">
        <ele>54</ele>
        <time>2020-09-12T11:27:19.000Z</time>
      </trkpt>
      <trkpt lat="47.21339" lon="-1.5294">
        <ele>54</ele>
        <time>2020-09-12T11:27:21.000Z</time>
      </trkpt>
      <trkpt lat="47.21339" lon="-1.52959">
        <ele>54</ele>
        <time>2020-09-12T11:27:23.000Z</time>
      </trkpt>
      <trkpt lat="47.21338" lon="-1.52979">
        <ele>54</ele>
        <time>2020-09-12T11:27:25.000Z</time>
      </trkpt>
      <trkpt lat="47.21334" lon="-1.53001">
        <ele>54</ele>
        <time>2020-09-12T11:27:27.000Z</time>
      </trkpt>
      <trkpt lat="47.21332" lon="-1.53023">
        <ele>54</ele>
        <time>2020-09-12T11:27:29.000Z</time>
      </trkpt>
      <trkpt lat="47.21329" lon="-1.53043">
        <ele>54</ele>
        <time>2020-09-12T11:27:31.000Z</time>
      </trkpt>
      <trkpt lat="47.21328" lon="-1.53063">
        <ele>54</ele>
        <time>2020-09-12T11:27:33.000Z</time>
      </trkpt>
      <trkpt lat="47.21327" lon="-1.53082">
        <ele>55</ele>
        <time>2020-09-12T11:27:35.000Z</time>
      </trkpt>
      <trkpt lat="47.21326" lon="-1.53102">
        <ele>55</ele>
        <time>2020-09-12T11:27:37.000Z</time>
      </trkpt>
      <trkpt lat="47.21323" lon="-1.53122">
        <ele>55</ele>
        <time>2020-09-12T11:27:39.000Z</time>
      </trkpt>
      <trkpt lat="47.2132" lon="-1.53142">
        <ele>55</ele>
        <time>2020-09-12T11:27:41.000Z</time>
      </trkpt>
      <trkpt lat="47.21316" lon="-1.53162">
        <ele>55</ele>
        <time>2020-09-12T11:27:43.000Z</time>
      </trkpt>
      <trkpt lat="47.21314" lon="-1.53183">
        <ele>54</ele>
        <time>2020-09-12T11:27:45.000Z</time>
      </trkpt>
      <trkpt lat="47.21311" lon="-1.53214">
        <ele>55</ele>
        <time>2020-09-12T11:27:48.000Z</time>
      </trkpt>
      <trkpt lat="47.2131" lon="-1.53236">
        <ele>54</ele>
        <time>2020-09-12T11:27:50.000Z</time>
      </trkpt>
      <trkpt lat="47.21309" lon="-1.53257">
        <ele>54</ele>
        <time>2020-09-12T11:27:52.000Z</time>
      </trkpt>
      <trkpt lat="47.21309" lon="-1.53278">
        <ele>55</ele>
        <time>2020-09-12T11:27:54.000Z</time>
      </trkpt>
      <trkpt lat="47.21308" lon="-1.53309">
        <ele>54</ele>
        <time>2020-09-12T11:27:57.000Z</time>
      </trkpt>
      <trkpt lat="47.21305" lon="-1.5333">
        <ele>54</ele>
        <time>2020-09-12T11:27:59.000Z</time>
      </trkpt>
      <trkpt lat="47.21301" lon="-1.5335">
        <ele>54</ele>
        <time>2020-09-12T11:28:01.000Z</time>
      </trkpt>
      <trkpt lat="47.21298" lon="-1.53371">
        <ele>53</ele>
        <time>2020-09-12T11:28:03.000Z</time>
      </trkpt>
      <trkpt lat="47.21294" lon="-1.53391">
        <ele>53</ele>
        <time>2020-09-12T11:28:05.000Z</time>
      </trkpt>
      <trkpt lat="47.21292" lon="-1.53411">
        <ele>53</ele>
        <time>2020-09-12T11:28:07.000Z</time>
      </trkpt>
      <trkpt lat="47.2129" lon="-1.53431">
        <ele>53</ele>
        <time>2020-09-12T11:28:09.000Z</time>
      </trkpt>
      <trkpt lat="47.2129" lon="-1.53451">
        <ele>54</ele>
        <time>2020-09-12T11:28:11.000Z</time>
      </trkpt>
      <trkpt lat="47.21295" lon="-1.53469">
        <ele>54</ele>
        <time>2020-09-12T11:28:13.000Z</time>
      </trkpt>
      <trkpt lat="47.213" lon="-1.53488">
        <ele>54</ele>
        <time>2020-09-12T11:28:15.000Z</time>
      </trkpt>
      <trkpt lat="47.21302" lon="-1.53508">
        <ele>55</ele>
        <time>2020-09-12T11:28:17.000Z</time>
      </trkpt>
      <trkpt lat="47.21303" lon="-1.53526">
        <ele>55</ele>
        <time>2020-09-12T11:28:19.000Z</time>
      </trkpt>
      <trkpt lat="47.21303" lon="-1.53554">
        <ele>55</ele>
        <time>2020-09-12T11:28:22.000Z</time>
      </trkpt>
      <trkpt lat="47.21303" lon="-1.53573">
        <ele>56</ele>
        <time>2020-09-12T11:28:24.000Z</time>
      </trkpt>
      <trkpt lat="47.21304" lon="-1.53592">
        <ele>56</ele>
        <time>2020-09-12T11:28:26.000Z</time>
      </trkpt>
      <trkpt lat="47.21304" lon="-1.53609">
        <ele>56</ele>
        <time>2020-09-12T11:28:28.000Z</time>
      </trkpt>
      <trkpt lat="47.21301" lon="-1.53624">
        <ele>56</ele>
        <time>2020-09-12T11:28:30.000Z</time>
      </trkpt>
      <trkpt lat="47.21295" lon="-1.53635">
        <ele>56</ele>
        <time>2020-09-12T11:28:32.000Z</time>
      </trkpt>
      <trkpt lat="47.21293" lon="-1.53649">
        <ele>57</ele>
        <time>2020-09-12T11:28:34.000Z</time>
      </trkpt>
      <trkpt lat="47.21291" lon="-1.53664">
        <ele>57</ele>
        <time>2020-09-12T11:28:36.000Z</time>
      </trkpt>
      <trkpt lat="47.213" lon="-1.53688">
        <ele>56</ele>
        <time>2020-09-12T11:28:40.000Z</time>
      </trkpt>
      <trkpt lat="47.21306" lon="-1.53709">
        <ele>56</ele>
        <time>2020-09-12T11:28:42.000Z</time>
      </trkpt>
      <trkpt lat="47.21311" lon="-1.53728">
        <ele>55</ele>
        <time>2020-09-12T11:28:44.000Z</time>
      </trkpt>
      <trkpt lat="47.21315" lon="-1.53748">
        <ele>55</ele>
        <time>2020-09-12T11:28:46.000Z</time>
      </trkpt>
      <trkpt lat="47.21317" lon="-1.53768">
        <ele>54</ele>
        <time>2020-09-12T11:28:48.000Z</time>
      </trkpt>
      <trkpt lat="47.21321" lon="-1.53788">
        <ele>54</ele>
        <time>2020-09-12T11:28:50.000Z</time>
      </trkpt>
      <trkpt lat="47.21324" lon="-1.53807">
        <ele>54</ele>
        <time>2020-09-12T11:28:52.000Z</time>
      </trkpt>
      <trkpt lat="47.21327" lon="-1.53827">
        <ele>54</ele>
        <time>2020-09-12T11:28:54.000Z</time>
      </trkpt>
      <trkpt lat="47.2133" lon="-1.53845">
        <ele>54</ele>
        <time>2020-09-12T11:28:56.000Z</time>
      </trkpt>
      <trkpt lat="47.21334" lon="-1.53863">
        <ele>54</ele>
        <time>2020-09-12T11:28:58.000Z</time>
      </trkpt>
      <trkpt lat="47.21337" lon="-1.5388">
        <ele>54</ele>
        <time>2020-09-12T11:29:00.000Z</time>
      </trkpt>
      <trkpt lat="47.21339" lon="-1.53897">
        <ele>54</ele>
        <time>2020-09-12T11:29:02.000Z</time>
      </trkpt>
      <trkpt lat="47.21341" lon="-1.53911">
        <ele>54</ele>
        <time>2020-09-12T11:29:04.000Z</time>
      </trkpt>
      <trkpt lat="47.21347" lon="-1.5392">
        <ele>54</ele>
        <time>2020-09-12T11:29:14.000Z</time>
      </trkpt>
      <trkpt lat="47.21357" lon="-1.53923">
        <ele>54</ele>
        <time>2020-09-12T11:29:17.000Z</time>
      </trkpt>
      <trkpt lat="47.21369" lon="-1.53924">
        <ele>55</ele>
        <time>2020-09-12T11:29:20.000Z</time>
      </trkpt>
      <trkpt lat="47.2138" lon="-1.5393">
        <ele>55</ele>
        <time>2020-09-12T11:29:22.000Z</time>
      </trkpt>
      <trkpt lat="47.21387" lon="-1.53949">
        <ele>55</ele>
        <time>2020-09-12T11:29:24.000Z</time>
      </trkpt>
      <trkpt lat="47.21386" lon="-1.53974">
        <ele>54</ele>
        <time>2020-09-12T11:29:26.000Z</time>
      </trkpt>
      <trkpt lat="47.21383" lon="-1.53994">
        <ele>54</ele>
        <time>2020-09-12T11:29:28.000Z</time>
      </trkpt>
      <trkpt lat="47.21392" lon="-1.54009">
        <ele>54</ele>
        <time>2020-09-12T11:29:30.000Z</time>
      </trkpt>
      <trkpt lat="47.21408" lon="-1.54031">
        <ele>54</ele>
        <time>2020-09-12T11:29:33.000Z</time>
      </trkpt>
      <trkpt lat="47.2142" lon="-1.54047">
        <ele>54</ele>
        <time>2020-09-12T11:29:35.000Z</time>
      </trkpt>
      <trkpt lat="47.2143" lon="-1.54062">
        <ele>54</ele>
        <time>2020-09-12T11:29:37.000Z</time>
      </trkpt>
      <trkpt lat="47.21441" lon="-1.54079">
        <ele>54</ele>
        <time>2020-09-12T11:29:39.000Z</time>
      </trkpt>
      <trkpt lat="47.21452" lon="-1.54095">
        <ele>54</ele>
        <time>2020-09-12T11:29:41.000Z</time>
      </trkpt>
      <trkpt lat="47.21463" lon="-1.54112">
        <ele>54</ele>
        <time>2020-09-12T11:29:43.000Z</time>
      </trkpt>
      <trkpt lat="47.21474" lon="-1.54128">
        <ele>54</ele>
        <time>2020-09-12T11:29:45.000Z</time>
      </trkpt>
      <trkpt lat="47.21485" lon="-1.54143">
        <ele>55</ele>
        <time>2020-09-12T11:29:47.000Z</time>
      </trkpt>
      <trkpt lat="47.21495" lon="-1.54157">
        <ele>55</ele>
        <time>2020-09-12T11:29:49.000Z</time>
      </trkpt>
      <trkpt lat="47.21505" lon="-1.54173">
        <ele>55</ele>
        <time>2020-09-12T11:29:51.000Z</time>
      </trkpt>
      <trkpt lat="47.21514" lon="-1.54192">
        <ele>56</ele>
        <time>2020-09-12T11:29:53.000Z</time>
      </trkpt>
      <trkpt lat="47.21525" lon="-1.54208">
        <ele>56</ele>
        <time>2020-09-12T11:29:55.000Z</time>
      </trkpt>
      <trkpt lat="47.21534" lon="-1.54224">
        <ele>57</ele>
        <time>2020-09-12T11:29:57.000Z</time>
      </trkpt>
      <trkpt lat="47.21543" lon="-1.54238">
        <ele>57</ele>
        <time>2020-09-12T11:29:59.000Z</time>
      </trkpt>
      <trkpt lat="47.21553" lon="-1.54247">
        <ele>57</ele>
        <time>2020-09-12T11:30:01.000Z</time>
      </trkpt>
      <trkpt lat="47.21565" lon="-1.54251">
        <ele>57</ele>
        <time>2020-09-12T11:30:03.000Z</time>
      </trkpt>
      <trkpt lat="47.21574" lon="-1.54266">
        <ele>56</ele>
        <time>2020-09-12T11:30:05.000Z</time>
      </trkpt>
      <trkpt lat="47.21578" lon="-1.54285">
        <ele>56</ele>
        <time>2020-09-12T11:30:07.000Z</time>
      </trkpt>
      <trkpt lat="47.21586" lon="-1.54303">
        <ele>57</ele>
        <time>2020-09-12T11:30:09.000Z</time>
      </trkpt>
      <trkpt lat="47.21594" lon="-1.5432">
        <ele>57</ele>
        <time>2020-09-12T11:30:11.000Z</time>
      </trkpt>
      <trkpt lat="47.21602" lon="-1.54336">
        <ele>57</ele>
        <time>2020-09-12T11:30:13.000Z</time>
      </trkpt>
      <trkpt lat="47.21607" lon="-1.54355">
        <ele>56</ele>
        <time>2020-09-12T11:30:15.000Z</time>
      </trkpt>
      <trkpt lat="47.21611" lon="-1.54374">
        <ele>56</ele>
        <time>2020-09-12T11:30:17.000Z</time>
      </trkpt>
      <trkpt lat="47.21615" lon="-1.54404">
        <ele>57</ele>
        <time>2020-09-12T11:30:20.000Z</time>
      </trkpt>
      <trkpt lat="47.21616" lon="-1.54424">
        <ele>57</ele>
        <time>2020-09-12T11:30:22.000Z</time>
      </trkpt>
      <trkpt lat="47.21615" lon="-1.54444">
        <ele>57</ele>
        <time>2020-09-12T11:30:24.000Z</time>
      </trkpt>
      <trkpt lat="47.21613" lon="-1.54465">
        <ele>57</ele>
        <time>2020-09-12T11:30:26.000Z</time>
      </trkpt>
      <trkpt lat="47.2161" lon="-1.54486">
        <ele>58</ele>
        <time>2020-09-12T11:30:28.000Z</time>
      </trkpt>
      <trkpt lat="47.21605" lon="-1.54505">
        <ele>59</ele>
        <time>2020-09-12T11:30:30.000Z</time>
      </trkpt>
      <trkpt lat="47.21599" lon="-1.54524">
        <ele>59</ele>
        <time>2020-09-12T11:30:32.000Z</time>
      </trkpt>
      <trkpt lat="47.21592" lon="-1.54542">
        <ele>59</ele>
        <time>2020-09-12T11:30:34.000Z</time>
      </trkpt>
      <trkpt lat="47.21586" lon="-1.54558">
        <ele>59</ele>
        <time>2020-09-12T11:30:36.000Z</time>
      </trkpt>
      <trkpt lat="47.2158" lon="-1.54575">
        <ele>59</ele>
        <time>2020-09-12T11:30:38.000Z</time>
      </trkpt>
      <trkpt lat="47.21573" lon="-1.54592">
        <ele>58</ele>
        <time>2020-09-12T11:30:40.000Z</time>
      </trkpt>
      <trkpt lat="47.21567" lon="-1.54612">
        <ele>58</ele>
        <time>2020-09-12T11:30:42.000Z</time>
      </trkpt>
      <trkpt lat="47.21559" lon="-1.5463">
        <ele>58</ele>
        <time>2020-09-12T11:30:44.000Z</time>
      </trkpt>
      <trkpt lat="47.21552" lon="-1.54649">
        <ele>58</ele>
        <time>2020-09-12T11:30:46.000Z</time>
      </trkpt>
      <trkpt lat="47.21546" lon="-1.54667">
        <ele>58</ele>
        <time>2020-09-12T11:30:48.000Z</time>
      </trkpt>
      <trkpt lat="47.2154" lon="-1.54685">
        <ele>59</ele>
        <time>2020-09-12T11:30:50.000Z</time>
      </trkpt>
      <trkpt lat="47.21534" lon="-1.54706">
        <ele>58</ele>
        <time>2020-09-12T11:30:52.000Z</time>
      </trkpt>
      <trkpt lat="47.21527" lon="-1.54724">
        <ele>58</ele>
        <time>2020-09-12T11:30:54.000Z</time>
      </trkpt>
      <trkpt lat="47.21519" lon="-1.54742">
        <ele>58</ele>
        <time>2020-09-12T11:30:56.000Z</time>
      </trkpt>
      <trkpt lat="47.21512" lon="-1.54761">
        <ele>59</ele>
        <time>2020-09-12T11:30:58.000Z</time>
      </trkpt>
      <trkpt lat="47.21505" lon="-1.5478">
        <ele>58</ele>
        <time>2020-09-12T11:31:00.000Z</time>
      </trkpt>
      <trkpt lat="47.21497" lon="-1.54798">
        <ele>59</ele>
        <time>2020-09-12T11:31:02.000Z</time>
      </trkpt>
      <trkpt lat="47.21489" lon="-1.54815">
        <ele>59</ele>
        <time>2020-09-12T11:31:04.000Z</time>
      </trkpt>
      <trkpt lat="47.21481" lon="-1.54833">
        <ele>59</ele>
        <time>2020-09-12T11:31:06.000Z</time>
      </trkpt>
      <trkpt lat="47.21473" lon="-1.5485">
        <ele>60</ele>
        <time>2020-09-12T11:31:08.000Z</time>
      </trkpt>
      <trkpt lat="47.21464" lon="-1.54868">
        <ele>59</ele>
        <time>2020-09-12T11:31:10.000Z</time>
      </trkpt>
      <trkpt lat="47.21455" lon="-1.54885">
        <ele>59</ele>
        <time>2020-09-12T11:31:12.000Z</time>
      </trkpt>
      <trkpt lat="47.21447" lon="-1.54902">
        <ele>59</ele>
        <time>2020-09-12T11:31:14.000Z</time>
      </trkpt>
      <trkpt lat="47.21438" lon="-1.5492">
        <ele>60</ele>
        <time>2020-09-12T11:31:16.000Z</time>
      </trkpt>
      <trkpt lat="47.2143" lon="-1.54938">
        <ele>60</ele>
        <time>2020-09-12T11:31:18.000Z</time>
      </trkpt>
      <trkpt lat="47.21421" lon="-1.54956">
        <ele>59</ele>
        <time>2020-09-12T11:31:20.000Z</time>
      </trkpt>
      <trkpt lat="47.21413" lon="-1.54973">
        <ele>59</ele>
        <time>2020-09-12T11:31:22.000Z</time>
      </trkpt>
      <trkpt lat="47.21405" lon="-1.54991">
        <ele>59</ele>
        <time>2020-09-12T11:31:24.000Z</time>
      </trkpt>
      <trkpt lat="47.21397" lon="-1.55009">
        <ele>59</ele>
        <time>2020-09-12T11:31:26.000Z</time>
      </trkpt>
      <trkpt lat="47.21389" lon="-1.55027">
        <ele>59</ele>
        <time>2020-09-12T11:31:28.000Z</time>
      </trkpt>
      <trkpt lat="47.21381" lon="-1.55046">
        <ele>59</ele>
        <time>2020-09-12T11:31:30.000Z</time>
      </trkpt>
      <trkpt lat="47.21373" lon="-1.55068">
        <ele>58</ele>
        <time>2020-09-12T11:31:32.000Z</time>
      </trkpt>
      <trkpt lat="47.21365" lon="-1.5509">
        <ele>57</ele>
        <time>2020-09-12T11:31:34.000Z</time>
      </trkpt>
      <trkpt lat="47.21356" lon="-1.5511">
        <ele>57</ele>
        <time>2020-09-12T11:31:36.000Z</time>
      </trkpt>
      <trkpt lat="47.21348" lon="-1.55129">
        <ele>56</ele>
        <time>2020-09-12T11:31:38.000Z</time>
      </trkpt>
      <trkpt lat="47.2134" lon="-1.55149">
        <ele>56</ele>
        <time>2020-09-12T11:31:40.000Z</time>
      </trkpt>
      <trkpt lat="47.21331" lon="-1.55169">
        <ele>56</ele>
        <time>2020-09-12T11:31:42.000Z</time>
      </trkpt>
      <trkpt lat="47.21323" lon="-1.55188">
        <ele>56</ele>
        <time>2020-09-12T11:31:44.000Z</time>
      </trkpt>
      <trkpt lat="47.21316" lon="-1.55207">
        <ele>55</ele>
        <time>2020-09-12T11:31:46.000Z</time>
      </trkpt>
      <trkpt lat="47.21308" lon="-1.55225">
        <ele>55</ele>
        <time>2020-09-12T11:31:48.000Z</time>
      </trkpt>
      <trkpt lat="47.21301" lon="-1.55244">
        <ele>55</ele>
        <time>2020-09-12T11:31:50.000Z</time>
      </trkpt>
      <trkpt lat="47.21293" lon="-1.55263">
        <ele>56</ele>
        <time>2020-09-12T11:31:52.000Z</time>
      </trkpt>
      <trkpt lat="47.21286" lon="-1.55282">
        <ele>56</ele>
        <time>2020-09-12T11:31:54.000Z</time>
      </trkpt>
      <trkpt lat="47.21278" lon="-1.55296">
        <ele>57</ele>
        <time>2020-09-12T11:31:56.000Z</time>
      </trkpt>
      <trkpt lat="47.21265" lon="-1.55298">
        <ele>58</ele>
        <time>2020-09-12T11:31:58.000Z</time>
      </trkpt>
      <trkpt lat="47.21256" lon="-1.55306">
        <ele>57</ele>
        <time>2020-09-12T11:32:00.000Z</time>
      </trkpt>
      <trkpt lat="47.21257" lon="-1.55321">
        <ele>57</ele>
        <time>2020-09-12T11:32:02.000Z</time>
      </trkpt>
      <trkpt lat="47.21263" lon="-1.55336">
        <ele>57</ele>
        <time>2020-09-12T11:32:04.000Z</time>
      </trkpt>
      <trkpt lat="47.2127" lon="-1.55345">
        <ele>57</ele>
        <time>2020-09-12T11:32:06.000Z</time>
      </trkpt>
      <trkpt lat="47.21279" lon="-1.55353">
        <ele>57</ele>
        <time>2020-09-12T11:32:08.000Z</time>
      </trkpt>
      <trkpt lat="47.21284" lon="-1.55365">
        <ele>57</ele>
        <time>2020-09-12T11:32:10.000Z</time>
      </trkpt>
      <trkpt lat="47.21281" lon="-1.55382">
        <ele>58</ele>
        <time>2020-09-12T11:32:12.000Z</time>
      </trkpt>
      <trkpt lat="47.21273" lon="-1.55396">
        <ele>59</ele>
        <time>2020-09-12T11:32:14.000Z</time>
      </trkpt>
      <trkpt lat="47.21265" lon="-1.5541">
        <ele>59</ele>
        <time>2020-09-12T11:32:16.000Z</time>
      </trkpt>
      <trkpt lat="47.21257" lon="-1.55425">
        <ele>59</ele>
        <time>2020-09-12T11:32:18.000Z</time>
      </trkpt>
      <trkpt lat="47.21247" lon="-1.55441">
        <ele>59</ele>
        <time>2020-09-12T11:32:20.000Z</time>
      </trkpt>
      <trkpt lat="47.21235" lon="-1.55459">
        <ele>59</ele>
        <time>2020-09-12T11:32:22.000Z</time>
      </trkpt>
      <trkpt lat="47.21225" lon="-1.55479">
        <ele>58</ele>
        <time>2020-09-12T11:32:24.000Z</time>
      </trkpt>
      <trkpt lat="47.21217" lon="-1.555">
        <ele>58</ele>
        <time>2020-09-12T11:32:26.000Z</time>
      </trkpt>
      <trkpt lat="47.21211" lon="-1.55523">
        <ele>58</ele>
        <time>2020-09-12T11:32:28.000Z</time>
      </trkpt>
      <trkpt lat="47.21204" lon="-1.55546">
        <ele>57</ele>
        <time>2020-09-12T11:32:30.000Z</time>
      </trkpt>
      <trkpt lat="47.21198" lon="-1.55567">
        <ele>57</ele>
        <time>2020-09-12T11:32:32.000Z</time>
      </trkpt>
      <trkpt lat="47.21191" lon="-1.55588">
        <ele>57</ele>
        <time>2020-09-12T11:32:34.000Z</time>
      </trkpt>
      <trkpt lat="47.21184" lon="-1.55609">
        <ele>57</ele>
        <time>2020-09-12T11:32:36.000Z</time>
      </trkpt>
      <trkpt lat="47.21177" lon="-1.55628">
        <ele>57</ele>
        <time>2020-09-12T11:32:38.000Z</time>
      </trkpt>
      <trkpt lat="47.21172" lon="-1.55647">
        <ele>57</ele>
        <time>2020-09-12T11:32:40.000Z</time>
      </trkpt>
      <trkpt lat="47.21168" lon="-1.55665">
        <ele>57</ele>
        <time>2020-09-12T11:32:42.000Z</time>
      </trkpt>
      <trkpt lat="47.21156" lon="-1.55675">
        <ele>57</ele>
        <time>2020-09-12T11:32:44.000Z</time>
      </trkpt>
      <trkpt lat="47.21144" lon="-1.55668">
        <ele>57</ele>
        <time>2020-09-12T11:32:46.000Z</time>
      </trkpt>
      <trkpt lat="47.21133" lon="-1.55667">
        <ele>56</ele>
        <time>2020-09-12T11:32:48.000Z</time>
      </trkpt>
      <trkpt lat="47.2113" lon="-1.55686">
        <ele>56</ele>
        <time>2020-09-12T11:32:50.000Z</time>
      </trkpt>
      <trkpt lat="47.21127" lon="-1.55706">
        <ele>56</ele>
        <time>2020-09-12T11:32:52.000Z</time>
      </trkpt>
      <trkpt lat="47.21123" lon="-1.55728">
        <ele>56</ele>
        <time>2020-09-12T11:32:54.000Z</time>
      </trkpt>
      <trkpt lat="47.21118" lon="-1.55748">
        <ele>56</ele>
        <time>2020-09-12T11:32:56.000Z</time>
      </trkpt>
      <trkpt lat="47.21112" lon="-1.55769">
        <ele>56</ele>
        <time>2020-09-12T11:32:58.000Z</time>
      </trkpt>
      <trkpt lat="47.21106" lon="-1.55789">
        <ele>55</ele>
        <time>2020-09-12T11:33:00.000Z</time>
      </trkpt>
      <trkpt lat="47.211" lon="-1.55808">
        <ele>55</ele>
        <time>2020-09-12T11:33:02.000Z</time>
      </trkpt>
      <trkpt lat="47.21093" lon="-1.55825">
        <ele>56</ele>
        <time>2020-09-12T11:33:04.000Z</time>
      </trkpt>
      <trkpt lat="47.21087" lon="-1.55843">
        <ele>56</ele>
        <time>2020-09-12T11:33:06.000Z</time>
      </trkpt>
      <trkpt lat="47.2108" lon="-1.55861">
        <ele>56</ele>
        <time>2020-09-12T11:33:08.000Z</time>
      </trkpt>
      <trkpt lat="47.21073" lon="-1.55878">
        <ele>55</ele>
        <time>2020-09-12T11:33:10.000Z</time>
      </trkpt>
      <trkpt lat="47.21066" lon="-1.55895">
        <ele>55</ele>
        <time>2020-09-12T11:33:12.000Z</time>
      </trkpt>
      <trkpt lat="47.21059" lon="-1.55911">
        <ele>55</ele>
        <time>2020-09-12T11:33:14.000Z</time>
      </trkpt>
      <trkpt lat="47.21053" lon="-1.55926">
        <ele>55</ele>
        <time>2020-09-12T11:33:16.000Z</time>
      </trkpt>
      <trkpt lat="47.21049" lon="-1.55942">
        <ele>56</ele>
        <time>2020-09-12T11:33:18.000Z</time>
      </trkpt>
      <trkpt lat="47.21042" lon="-1.55958">
        <ele>55</ele>
        <time>2020-09-12T11:33:20.000Z</time>
      </trkpt>
      <trkpt lat="47.21037" lon="-1.55974">
        <ele>56</ele>
        <time>2020-09-12T11:33:22.000Z</time>
      </trkpt>
      <trkpt lat="47.21031" lon="-1.55989">
        <ele>56</ele>
        <time>2020-09-12T11:33:24.000Z</time>
      </trkpt>
      <trkpt lat="47.21026" lon="-1.56003">
        <ele>56</ele>
        <time>2020-09-12T11:33:26.000Z</time>
      </trkpt>
      <trkpt lat="47.21021" lon="-1.56016">
        <ele>56</ele>
        <time>2020-09-12T11:33:28.000Z</time>
      </trkpt>
      <trkpt lat="47.21016" lon="-1.56029">
        <ele>56</ele>
        <time>2020-09-12T11:33:30.000Z</time>
      </trkpt>
      <trkpt lat="47.21011" lon="-1.56042">
        <ele>56</ele>
        <time>2020-09-12T11:33:32.000Z</time>
      </trkpt>
      <trkpt lat="47.21006" lon="-1.56056">
        <ele>55</ele>
        <time>2020-09-12T11:33:34.000Z</time>
      </trkpt>
      <trkpt lat="47.21" lon="-1.56069">
        <ele>56</ele>
        <time>2020-09-12T11:33:36.000Z</time>
      </trkpt>
      <trkpt lat="47.20992" lon="-1.56082">
        <ele>56</ele>
        <time>2020-09-12T11:33:38.000Z</time>
      </trkpt>
      <trkpt lat="47.20988" lon="-1.56095">
        <ele>57</ele>
        <time>2020-09-12T11:33:40.000Z</time>
      </trkpt>
      <trkpt lat="47.20991" lon="-1.56108">
        <ele>57</ele>
        <time>2020-09-12T11:33:42.000Z</time>
      </trkpt>
      <trkpt lat="47.20987" lon="-1.56123">
        <ele>56</ele>
        <time>2020-09-12T11:33:45.000Z</time>
      </trkpt>
      <trkpt lat="47.20979" lon="-1.56132">
        <ele>57</ele>
        <time>2020-09-12T11:33:47.000Z</time>
      </trkpt>
      <trkpt lat="47.20981" lon="-1.56145">
        <ele>56</ele>
        <time>2020-09-12T11:33:49.000Z</time>
      </trkpt>
      <trkpt lat="47.20983" lon="-1.56163">
        <ele>56</ele>
        <time>2020-09-12T11:33:52.000Z</time>
      </trkpt>
      <trkpt lat="47.20973" lon="-1.5617">
        <ele>56</ele>
        <time>2020-09-12T11:33:54.000Z</time>
      </trkpt>
      <trkpt lat="47.20962" lon="-1.56167">
        <ele>57</ele>
        <time>2020-09-12T11:33:56.000Z</time>
      </trkpt>
      <trkpt lat="47.2095" lon="-1.56165">
        <ele>57</ele>
        <time>2020-09-12T11:33:58.000Z</time>
      </trkpt>
      <trkpt lat="47.20937" lon="-1.56161">
        <ele>58</ele>
        <time>2020-09-12T11:34:00.000Z</time>
      </trkpt>
      <trkpt lat="47.20924" lon="-1.56158">
        <ele>58</ele>
        <time>2020-09-12T11:34:02.000Z</time>
      </trkpt>
      <trkpt lat="47.2091" lon="-1.56154">
        <ele>58</ele>
        <time>2020-09-12T11:34:04.000Z</time>
      </trkpt>
      <trkpt lat="47.20896" lon="-1.56152">
        <ele>58</ele>
        <time>2020-09-12T11:34:06.000Z</time>
      </trkpt>
      <trkpt lat="47.20884" lon="-1.56149">
        <ele>58</ele>
        <time>2020-09-12T11:34:08.000Z</time>
      </trkpt>
      <trkpt lat="47.2087" lon="-1.56145">
        <ele>57</ele>
        <time>2020-09-12T11:34:10.000Z</time>
      </trkpt>
      <trkpt lat="47.20849" lon="-1.56139">
        <ele>57</ele>
        <time>2020-09-12T11:34:13.000Z</time>
      </trkpt>
      <trkpt lat="47.20836" lon="-1.56143">
        <ele>56</ele>
        <time>2020-09-12T11:34:15.000Z</time>
      </trkpt>
      <trkpt lat="47.20835" lon="-1.56163">
        <ele>56</ele>
        <time>2020-09-12T11:34:17.000Z</time>
      </trkpt>
      <trkpt lat="47.20835" lon="-1.56185">
        <ele>56</ele>
        <time>2020-09-12T11:34:19.000Z</time>
      </trkpt>
      <trkpt lat="47.20835" lon="-1.56206">
        <ele>56</ele>
        <time>2020-09-12T11:34:21.000Z</time>
      </trkpt>
      <trkpt lat="47.20834" lon="-1.56226">
        <ele>55</ele>
        <time>2020-09-12T11:34:23.000Z</time>
      </trkpt>
      <trkpt lat="47.20834" lon="-1.56247">
        <ele>55</ele>
        <time>2020-09-12T11:34:25.000Z</time>
      </trkpt>
      <trkpt lat="47.20834" lon="-1.56268">
        <ele>55</ele>
        <time>2020-09-12T11:34:27.000Z</time>
      </trkpt>
      <trkpt lat="47.20832" lon="-1.56289">
        <ele>55</ele>
        <time>2020-09-12T11:34:29.000Z</time>
      </trkpt>
      <trkpt lat="47.2083" lon="-1.56309">
        <ele>55</ele>
        <time>2020-09-12T11:34:31.000Z</time>
      </trkpt>
      <trkpt lat="47.20827" lon="-1.56329">
        <ele>55</ele>
        <time>2020-09-12T11:34:33.000Z</time>
      </trkpt>
      <trkpt lat="47.20821" lon="-1.56348">
        <ele>55</ele>
        <time>2020-09-12T11:34:35.000Z</time>
      </trkpt>
      <trkpt lat="47.20817" lon="-1.56367">
        <ele>55</ele>
        <time>2020-09-12T11:34:37.000Z</time>
      </trkpt>
      <trkpt lat="47.20812" lon="-1.56386">
        <ele>55</ele>
        <time>2020-09-12T11:34:39.000Z</time>
      </trkpt>
      <trkpt lat="47.20808" lon="-1.56405">
        <ele>55</ele>
        <time>2020-09-12T11:34:41.000Z</time>
      </trkpt>
      <trkpt lat="47.20803" lon="-1.56424">
        <ele>55</ele>
        <time>2020-09-12T11:34:43.000Z</time>
      </trkpt>
      <trkpt lat="47.20798" lon="-1.56443">
        <ele>55</ele>
        <time>2020-09-12T11:34:45.000Z</time>
      </trkpt>
      <trkpt lat="47.20793" lon="-1.56463">
        <ele>55</ele>
        <time>2020-09-12T11:34:47.000Z</time>
      </trkpt>
      <trkpt lat="47.20789" lon="-1.56482">
        <ele>54</ele>
        <time>2020-09-12T11:34:49.000Z</time>
      </trkpt>
      <trkpt lat="47.20784" lon="-1.565">
        <ele>54</ele>
        <time>2020-09-12T11:34:51.000Z</time>
      </trkpt>
      <trkpt lat="47.20777" lon="-1.56515">
        <ele>53</ele>
        <time>2020-09-12T11:34:53.000Z</time>
      </trkpt>
      <trkpt lat="47.20766" lon="-1.56513">
        <ele>54</ele>
        <time>2020-09-12T11:34:55.000Z</time>
      </trkpt>
      <trkpt lat="47.20758" lon="-1.56504">
        <ele>54</ele>
        <time>2020-09-12T11:34:57.000Z</time>
      </trkpt>
      <trkpt lat="47.2075" lon="-1.56496">
        <ele>53</ele>
        <time>2020-09-12T11:34:59.000Z</time>
      </trkpt>
      <trkpt lat="47.2074" lon="-1.56494">
        <ele>55</ele>
        <time>2020-09-12T11:35:03.000Z</time>
      </trkpt>
      <trkpt lat="47.20735" lon="-1.5651">
        <ele>55</ele>
        <time>2020-09-12T11:35:06.000Z</time>
      </trkpt>
      <trkpt lat="47.20731" lon="-1.56523">
        <ele>55</ele>
        <time>2020-09-12T11:35:08.000Z</time>
      </trkpt>
      <trkpt lat="47.20726" lon="-1.56536">
        <ele>55</ele>
        <time>2020-09-12T11:35:10.000Z</time>
      </trkpt>
      <trkpt lat="47.2072" lon="-1.56547">
        <ele>55</ele>
        <time>2020-09-12T11:35:12.000Z</time>
      </trkpt>
      <trkpt lat="47.20715" lon="-1.56558">
        <ele>55</ele>
        <time>2020-09-12T11:35:14.000Z</time>
      </trkpt>
      <trkpt lat="47.20707" lon="-1.56565">
        <ele>55</ele>
        <time>2020-09-12T11:35:16.000Z</time>
      </trkpt>
      <trkpt lat="47.20697" lon="-1.56568">
        <ele>55</ele>
        <time>2020-09-12T11:35:18.000Z</time>
      </trkpt>
      <trkpt lat="47.20688" lon="-1.56576">
        <ele>55</ele>
        <time>2020-09-12T11:35:20.000Z</time>
      </trkpt>
      <trkpt lat="47.2068" lon="-1.56585">
        <ele>55</ele>
        <time>2020-09-12T11:35:23.000Z</time>
      </trkpt>
      <trkpt lat="47.20687" lon="-1.56571">
        <ele>55</ele>
        <time>2020-09-12T11:35:28.000Z</time>
      </trkpt>
      <trkpt lat="47.20695" lon="-1.56561">
        <ele>56</ele>
        <time>2020-09-12T11:35:30.000Z</time>
      </trkpt>
      <trkpt lat="47.20699" lon="-1.56547">
        <ele>55</ele>
        <time>2020-09-12T11:35:32.000Z</time>
      </trkpt>
      <trkpt lat="47.20693" lon="-1.56536">
        <ele>55</ele>
        <time>2020-09-12T11:35:34.000Z</time>
      </trkpt>
      <trkpt lat="47.20684" lon="-1.56523">
        <ele>55</ele>
        <time>2020-09-12T11:35:37.000Z</time>
      </trkpt>
      <trkpt lat="47.20672" lon="-1.56518">
        <ele>55</ele>
        <time>2020-09-12T11:35:40.000Z</time>
      </trkpt>
      <trkpt lat="47.20661" lon="-1.56521">
        <ele>56</ele>
        <time>2020-09-12T11:35:43.000Z</time>
      </trkpt>
      <trkpt lat="47.20649" lon="-1.56526">
        <ele>56</ele>
        <time>2020-09-12T11:35:45.000Z</time>
      </trkpt>
      <trkpt lat="47.20638" lon="-1.56533">
        <ele>56</ele>
        <time>2020-09-12T11:35:47.000Z</time>
      </trkpt>
      <trkpt lat="47.2063" lon="-1.56549">
        <ele>56</ele>
        <time>2020-09-12T11:35:49.000Z</time>
      </trkpt>
      <trkpt lat="47.20623" lon="-1.56565">
        <ele>56</ele>
        <time>2020-09-12T11:35:51.000Z</time>
      </trkpt>
      <trkpt lat="47.20613" lon="-1.56581">
        <ele>56</ele>
        <time>2020-09-12T11:35:53.000Z</time>
      </trkpt>
      <trkpt lat="47.20604" lon="-1.56596">
        <ele>56</ele>
        <time>2020-09-12T11:35:55.000Z</time>
      </trkpt>
      <trkpt lat="47.20595" lon="-1.56611">
        <ele>56</ele>
        <time>2020-09-12T11:35:57.000Z</time>
      </trkpt>
      <trkpt lat="47.20585" lon="-1.56626">
        <ele>55</ele>
        <time>2020-09-12T11:35:59.000Z</time>
      </trkpt>
      <trkpt lat="47.20575" lon="-1.56641">
        <ele>55</ele>
        <time>2020-09-12T11:36:01.000Z</time>
      </trkpt>
      <trkpt lat="47.20566" lon="-1.56659">
        <ele>55</ele>
        <time>2020-09-12T11:36:03.000Z</time>
      </trkpt>
      <trkpt lat="47.20557" lon="-1.56676">
        <ele>55</ele>
        <time>2020-09-12T11:36:05.000Z</time>
      </trkpt>
      <trkpt lat="47.20548" lon="-1.56693">
        <ele>55</ele>
        <time>2020-09-12T11:36:07.000Z</time>
      </trkpt>
      <trkpt lat="47.20535" lon="-1.56707">
        <ele>55</ele>
        <time>2020-09-12T11:36:09.000Z</time>
      </trkpt>
      <trkpt lat="47.20519" lon="-1.56713">
        <ele>55</ele>
        <time>2020-09-12T11:36:11.000Z</time>
      </trkpt>
      <trkpt lat="47.20502" lon="-1.56713">
        <ele>55</ele>
        <time>2020-09-12T11:36:13.000Z</time>
      </trkpt>
      <trkpt lat="47.20485" lon="-1.56712">
        <ele>55</ele>
        <time>2020-09-12T11:36:15.000Z</time>
      </trkpt>
      <trkpt lat="47.20468" lon="-1.56709">
        <ele>55</ele>
        <time>2020-09-12T11:36:17.000Z</time>
      </trkpt>
      <trkpt lat="47.20451" lon="-1.56706">
        <ele>55</ele>
        <time>2020-09-12T11:36:19.000Z</time>
      </trkpt>
      <trkpt lat="47.20437" lon="-1.56702">
        <ele>56</ele>
        <time>2020-09-12T11:36:21.000Z</time>
      </trkpt>
      <trkpt lat="47.20423" lon="-1.567">
        <ele>56</ele>
        <time>2020-09-12T11:36:23.000Z</time>
      </trkpt>
      <trkpt lat="47.20411" lon="-1.56702">
        <ele>56</ele>
        <time>2020-09-12T11:36:25.000Z</time>
      </trkpt>
      <trkpt lat="47.20401" lon="-1.56711">
        <ele>57</ele>
        <time>2020-09-12T11:36:27.000Z</time>
      </trkpt>
      <trkpt lat="47.20398" lon="-1.56726">
        <ele>58</ele>
        <time>2020-09-12T11:36:29.000Z</time>
      </trkpt>
      <trkpt lat="47.20398" lon="-1.56747">
        <ele>59</ele>
        <time>2020-09-12T11:36:31.000Z</time>
      </trkpt>
      <trkpt lat="47.20397" lon="-1.56768">
        <ele>60</ele>
        <time>2020-09-12T11:36:33.000Z</time>
      </trkpt>
      <trkpt lat="47.20393" lon="-1.56788">
        <ele>61</ele>
        <time>2020-09-12T11:36:35.000Z</time>
      </trkpt>
      <trkpt lat="47.20393" lon="-1.5681">
        <ele>61</ele>
        <time>2020-09-12T11:36:37.000Z</time>
      </trkpt>
      <trkpt lat="47.20391" lon="-1.56829">
        <ele>64</ele>
        <time>2020-09-12T11:36:39.000Z</time>
      </trkpt>
      <trkpt lat="47.2039" lon="-1.56851">
        <ele>65</ele>
        <time>2020-09-12T11:36:41.000Z</time>
      </trkpt>
      <trkpt lat="47.20389" lon="-1.5687">
        <ele>65</ele>
        <time>2020-09-12T11:36:43.000Z</time>
      </trkpt>
      <trkpt lat="47.20387" lon="-1.56891">
        <ele>65</ele>
        <time>2020-09-12T11:36:45.000Z</time>
      </trkpt>
      <trkpt lat="47.20386" lon="-1.56915">
        <ele>63</ele>
        <time>2020-09-12T11:36:47.000Z</time>
      </trkpt>
      <trkpt lat="47.20383" lon="-1.56937">
        <ele>62</ele>
        <time>2020-09-12T11:36:49.000Z</time>
      </trkpt>
      <trkpt lat="47.20381" lon="-1.56958">
        <ele>62</ele>
        <time>2020-09-12T11:36:51.000Z</time>
      </trkpt>
      <trkpt lat="47.2038" lon="-1.5698">
        <ele>63</ele>
        <time>2020-09-12T11:36:53.000Z</time>
      </trkpt>
      <trkpt lat="47.20377" lon="-1.57">
        <ele>61</ele>
        <time>2020-09-12T11:36:55.000Z</time>
      </trkpt>
      <trkpt lat="47.20373" lon="-1.57021">
        <ele>60</ele>
        <time>2020-09-12T11:36:57.000Z</time>
      </trkpt>
      <trkpt lat="47.20368" lon="-1.57039">
        <ele>58</ele>
        <time>2020-09-12T11:36:59.000Z</time>
      </trkpt>
      <trkpt lat="47.20362" lon="-1.57057">
        <ele>58</ele>
        <time>2020-09-12T11:37:01.000Z</time>
      </trkpt>
      <trkpt lat="47.20354" lon="-1.57074">
        <ele>57</ele>
        <time>2020-09-12T11:37:03.000Z</time>
      </trkpt>
      <trkpt lat="47.20346" lon="-1.5709">
        <ele>57</ele>
        <time>2020-09-12T11:37:05.000Z</time>
      </trkpt>
      <trkpt lat="47.20337" lon="-1.57104">
        <ele>56</ele>
        <time>2020-09-12T11:37:07.000Z</time>
      </trkpt>
      <trkpt lat="47.20327" lon="-1.57115">
        <ele>57</ele>
        <time>2020-09-12T11:37:09.000Z</time>
      </trkpt>
      <trkpt lat="47.20315" lon="-1.57126">
        <ele>60</ele>
        <time>2020-09-12T11:37:11.000Z</time>
      </trkpt>
      <trkpt lat="47.20302" lon="-1.57135">
        <ele>61</ele>
        <time>2020-09-12T11:37:13.000Z</time>
      </trkpt>
      <trkpt lat="47.20288" lon="-1.57144">
        <ele>61</ele>
        <time>2020-09-12T11:37:15.000Z</time>
      </trkpt>
      <trkpt lat="47.20274" lon="-1.57152">
        <ele>61</ele>
        <time>2020-09-12T11:37:17.000Z</time>
      </trkpt>
      <trkpt lat="47.20261" lon="-1.57161">
        <ele>61</ele>
        <time>2020-09-12T11:37:19.000Z</time>
      </trkpt>
      <trkpt lat="47.20248" lon="-1.57169">
        <ele>61</ele>
        <time>2020-09-12T11:37:21.000Z</time>
      </trkpt>
      <trkpt lat="47.20235" lon="-1.57176">
        <ele>60</ele>
        <time>2020-09-12T11:37:23.000Z</time>
      </trkpt>
      <trkpt lat="47.20222" lon="-1.57182">
        <ele>59</ele>
        <time>2020-09-12T11:37:25.000Z</time>
      </trkpt>
      <trkpt lat="47.20209" lon="-1.5719">
        <ele>57</ele>
        <time>2020-09-12T11:37:27.000Z</time>
      </trkpt>
      <trkpt lat="47.20197" lon="-1.57199">
        <ele>57</ele>
        <time>2020-09-12T11:37:29.000Z</time>
      </trkpt>
      <trkpt lat="47.20184" lon="-1.57208">
        <ele>57</ele>
        <time>2020-09-12T11:37:31.000Z</time>
      </trkpt>
      <trkpt lat="47.20172" lon="-1.57217">
        <ele>57</ele>
        <time>2020-09-12T11:37:33.000Z</time>
      </trkpt>
      <trkpt lat="47.20159" lon="-1.57225">
        <ele>57</ele>
        <time>2020-09-12T11:37:35.000Z</time>
      </trkpt>
      <trkpt lat="47.20146" lon="-1.57234">
        <ele>57</ele>
        <time>2020-09-12T11:37:37.000Z</time>
      </trkpt>
      <trkpt lat="47.20133" lon="-1.57243">
        <ele>57</ele>
        <time>2020-09-12T11:37:39.000Z</time>
      </trkpt>
      <trkpt lat="47.2012" lon="-1.57251">
        <ele>57</ele>
        <time>2020-09-12T11:37:41.000Z</time>
      </trkpt>
      <trkpt lat="47.20107" lon="-1.57261">
        <ele>57</ele>
        <time>2020-09-12T11:37:43.000Z</time>
      </trkpt>
      <trkpt lat="47.20095" lon="-1.5727">
        <ele>58</ele>
        <time>2020-09-12T11:37:45.000Z</time>
      </trkpt>
      <trkpt lat="47.20082" lon="-1.5728">
        <ele>59</ele>
        <time>2020-09-12T11:37:47.000Z</time>
      </trkpt>
      <trkpt lat="47.20071" lon="-1.5729">
        <ele>59</ele>
        <time>2020-09-12T11:37:49.000Z</time>
      </trkpt>
      <trkpt lat="47.20059" lon="-1.57301">
        <ele>59</ele>
        <time>2020-09-12T11:37:51.000Z</time>
      </trkpt>
      <trkpt lat="47.20047" lon="-1.57311">
        <ele>60</ele>
        <time>2020-09-12T11:37:53.000Z</time>
      </trkpt>
      <trkpt lat="47.20034" lon="-1.57319">
        <ele>60</ele>
        <time>2020-09-12T11:37:55.000Z</time>
      </trkpt>
      <trkpt lat="47.20021" lon="-1.57327">
        <ele>60</ele>
        <time>2020-09-12T11:37:57.000Z</time>
      </trkpt>
      <trkpt lat="47.20008" lon="-1.57336">
        <ele>60</ele>
        <time>2020-09-12T11:37:59.000Z</time>
      </trkpt>
      <trkpt lat="47.19995" lon="-1.57342">
        <ele>60</ele>
        <time>2020-09-12T11:38:01.000Z</time>
      </trkpt>
      <trkpt lat="47.19983" lon="-1.57332">
        <ele>60</ele>
        <time>2020-09-12T11:38:03.000Z</time>
      </trkpt>
      <trkpt lat="47.19976" lon="-1.57312">
        <ele>60</ele>
        <time>2020-09-12T11:38:05.000Z</time>
      </trkpt>
      <trkpt lat="47.19977" lon="-1.57292">
        <ele>59</ele>
        <time>2020-09-12T11:38:07.000Z</time>
      </trkpt>
      <trkpt lat="47.19978" lon="-1.57271">
        <ele>59</ele>
        <time>2020-09-12T11:38:09.000Z</time>
      </trkpt>
      <trkpt lat="47.19978" lon="-1.57251">
        <ele>58</ele>
        <time>2020-09-12T11:38:11.000Z</time>
      </trkpt>
      <trkpt lat="47.19978" lon="-1.57229">
        <ele>57</ele>
        <time>2020-09-12T11:38:13.000Z</time>
      </trkpt>
      <trkpt lat="47.19978" lon="-1.57207">
        <ele>56</ele>
        <time>2020-09-12T11:38:15.000Z</time>
      </trkpt>
      <trkpt lat="47.19978" lon="-1.57185">
        <ele>56</ele>
        <time>2020-09-12T11:38:17.000Z</time>
      </trkpt>
      <trkpt lat="47.19978" lon="-1.57164">
        <ele>55</ele>
        <time>2020-09-12T11:38:19.000Z</time>
      </trkpt>
      <trkpt lat="47.19977" lon="-1.57143">
        <ele>55</ele>
        <time>2020-09-12T11:38:21.000Z</time>
      </trkpt>
      <trkpt lat="47.19974" lon="-1.57123">
        <ele>55</ele>
        <time>2020-09-12T11:38:23.000Z</time>
      </trkpt>
      <trkpt lat="47.19969" lon="-1.57105">
        <ele>54</ele>
        <time>2020-09-12T11:38:25.000Z</time>
      </trkpt>
      <trkpt lat="47.19965" lon="-1.57087">
        <ele>54</ele>
        <time>2020-09-12T11:38:27.000Z</time>
      </trkpt>
      <trkpt lat="47.19961" lon="-1.57068">
        <ele>55</ele>
        <time>2020-09-12T11:38:29.000Z</time>
      </trkpt>
      <trkpt lat="47.19956" lon="-1.5705">
        <ele>54</ele>
        <time>2020-09-12T11:38:31.000Z</time>
      </trkpt>
      <trkpt lat="47.19951" lon="-1.57033">
        <ele>55</ele>
        <time>2020-09-12T11:38:33.000Z</time>
      </trkpt>
      <trkpt lat="47.19951" lon="-1.57013">
        <ele>55</ele>
        <time>2020-09-12T11:38:35.000Z</time>
      </trkpt>
      <trkpt lat="47.19951" lon="-1.56994">
        <ele>55</ele>
        <time>2020-09-12T11:38:37.000Z</time>
      </trkpt>
      <trkpt lat="47.19951" lon="-1.56974">
        <ele>55</ele>
        <time>2020-09-12T11:38:39.000Z</time>
      </trkpt>
      <trkpt lat="47.19951" lon="-1.56954">
        <ele>54</ele>
        <time>2020-09-12T11:38:41.000Z</time>
      </trkpt>
      <trkpt lat="47.19952" lon="-1.56935">
        <ele>54</ele>
        <time>2020-09-12T11:38:43.000Z</time>
      </trkpt>
      <trkpt lat="47.19951" lon="-1.56916">
        <ele>54</ele>
        <time>2020-09-12T11:38:45.000Z</time>
      </trkpt>
      <trkpt lat="47.19951" lon="-1.56898">
        <ele>54</ele>
        <time>2020-09-12T11:38:47.000Z</time>
      </trkpt>
      <trkpt lat="47.1995" lon="-1.5688">
        <ele>54</ele>
        <time>2020-09-12T11:38:49.000Z</time>
      </trkpt>
      <trkpt lat="47.1995" lon="-1.56861">
        <ele>54</ele>
        <time>2020-09-12T11:38:51.000Z</time>
      </trkpt>
      <trkpt lat="47.1995" lon="-1.56843">
        <ele>54</ele>
        <time>2020-09-12T11:38:53.000Z</time>
      </trkpt>
      <trkpt lat="47.1995" lon="-1.56823">
        <ele>54</ele>
        <time>2020-09-12T11:38:55.000Z</time>
      </trkpt>
      <trkpt lat="47.1995" lon="-1.56803">
        <ele>54</ele>
        <time>2020-09-12T11:38:57.000Z</time>
      </trkpt>
      <trkpt lat="47.19951" lon="-1.56783">
        <ele>54</ele>
        <time>2020-09-12T11:38:59.000Z</time>
      </trkpt>
      <trkpt lat="47.1995" lon="-1.56762">
        <ele>54</ele>
        <time>2020-09-12T11:39:01.000Z</time>
      </trkpt>
      <trkpt lat="47.1995" lon="-1.56742">
        <ele>54</ele>
        <time>2020-09-12T11:39:03.000Z</time>
      </trkpt>
      <trkpt lat="47.19951" lon="-1.56722">
        <ele>54</ele>
        <time>2020-09-12T11:39:05.000Z</time>
      </trkpt>
      <trkpt lat="47.19951" lon="-1.56703">
        <ele>54</ele>
        <time>2020-09-12T11:39:07.000Z</time>
      </trkpt>
      <trkpt lat="47.19951" lon="-1.56683">
        <ele>54</ele>
        <time>2020-09-12T11:39:09.000Z</time>
      </trkpt>
      <trkpt lat="47.19951" lon="-1.56664">
        <ele>54</ele>
        <time>2020-09-12T11:39:11.000Z</time>
      </trkpt>
      <trkpt lat="47.1995" lon="-1.56651">
        <ele>54</ele>
        <time>2020-09-12T11:39:13.000Z</time>
      </trkpt>
      <trkpt lat="47.1995" lon="-1.56632">
        <ele>54</ele>
        <time>2020-09-12T11:39:56.000Z</time>
      </trkpt>
      <trkpt lat="47.19951" lon="-1.56617">
        <ele>54</ele>
        <time>2020-09-12T11:39:58.000Z</time>
      </trkpt>
      <trkpt lat="47.19951" lon="-1.56601">
        <ele>55</ele>
        <time>2020-09-12T11:40:00.000Z</time>
      </trkpt>
      <trkpt lat="47.1995" lon="-1.56583">
        <ele>55</ele>
        <time>2020-09-12T11:40:02.000Z</time>
      </trkpt>
      <trkpt lat="47.1995" lon="-1.56564">
        <ele>55</ele>
        <time>2020-09-12T11:40:04.000Z</time>
      </trkpt>
      <trkpt lat="47.1995" lon="-1.56545">
        <ele>55</ele>
        <time>2020-09-12T11:40:06.000Z</time>
      </trkpt>
      <trkpt lat="47.1995" lon="-1.56525">
        <ele>55</ele>
        <time>2020-09-12T11:40:08.000Z</time>
      </trkpt>
      <trkpt lat="47.19951" lon="-1.56505">
        <ele>55</ele>
        <time>2020-09-12T11:40:10.000Z</time>
      </trkpt>
      <trkpt lat="47.19953" lon="-1.56485">
        <ele>55</ele>
        <time>2020-09-12T11:40:12.000Z</time>
      </trkpt>
      <trkpt lat="47.19955" lon="-1.56465">
        <ele>55</ele>
        <time>2020-09-12T11:40:14.000Z</time>
      </trkpt>
      <trkpt lat="47.19958" lon="-1.56445">
        <ele>55</ele>
        <time>2020-09-12T11:40:16.000Z</time>
      </trkpt>
      <trkpt lat="47.19963" lon="-1.56426">
        <ele>55</ele>
        <time>2020-09-12T11:40:18.000Z</time>
      </trkpt>
      <trkpt lat="47.19967" lon="-1.56405">
        <ele>55</ele>
        <time>2020-09-12T11:40:20.000Z</time>
      </trkpt>
      <trkpt lat="47.19969" lon="-1.56385">
        <ele>55</ele>
        <time>2020-09-12T11:40:22.000Z</time>
      </trkpt>
      <trkpt lat="47.19971" lon="-1.56365">
        <ele>55</ele>
        <time>2020-09-12T11:40:24.000Z</time>
      </trkpt>
      <trkpt lat="47.19972" lon="-1.56344">
        <ele>55</ele>
        <time>2020-09-12T11:40:26.000Z</time>
      </trkpt>
      <trkpt lat="47.19973" lon="-1.56324">
        <ele>55</ele>
        <time>2020-09-12T11:40:28.000Z</time>
      </trkpt>
      <trkpt lat="47.19975" lon="-1.56303">
        <ele>55</ele>
        <time>2020-09-12T11:40:30.000Z</time>
      </trkpt>
      <trkpt lat="47.19976" lon="-1.56283">
        <ele>55</ele>
        <time>2020-09-12T11:40:32.000Z</time>
      </trkpt>
      <trkpt lat="47.19976" lon="-1.56263">
        <ele>55</ele>
        <time>2020-09-12T11:40:34.000Z</time>
      </trkpt>
      <trkpt lat="47.19976" lon="-1.56243">
        <ele>55</ele>
        <time>2020-09-12T11:40:36.000Z</time>
      </trkpt>
      <trkpt lat="47.19975" lon="-1.56224">
        <ele>55</ele>
        <time>2020-09-12T11:40:38.000Z</time>
      </trkpt>
      <trkpt lat="47.19975" lon="-1.56205">
        <ele>55</ele>
        <time>2020-09-12T11:40:40.000Z</time>
      </trkpt>
      <trkpt lat="47.19974" lon="-1.56186">
        <ele>55</ele>
        <time>2020-09-12T11:40:42.000Z</time>
      </trkpt>
      <trkpt lat="47.19971" lon="-1.56171">
        <ele>55</ele>
        <time>2020-09-12T11:40:44.000Z</time>
      </trkpt>
      <trkpt lat="47.19961" lon="-1.56165">
        <ele>55</ele>
        <time>2020-09-12T11:40:46.000Z</time>
      </trkpt>
      <trkpt lat="47.1995" lon="-1.56168">
        <ele>56</ele>
        <time>2020-09-12T11:40:48.000Z</time>
      </trkpt>
      <trkpt lat="47.19937" lon="-1.56172">
        <ele>57</ele>
        <time>2020-09-12T11:40:50.000Z</time>
      </trkpt>
      <trkpt lat="47.19926" lon="-1.56173">
        <ele>58</ele>
        <time>2020-09-12T11:40:52.000Z</time>
      </trkpt>
      <trkpt lat="47.19914" lon="-1.56175">
        <ele>59</ele>
        <time>2020-09-12T11:40:54.000Z</time>
      </trkpt>
      <trkpt lat="47.19902" lon="-1.56178">
        <ele>60</ele>
        <time>2020-09-12T11:40:56.000Z</time>
      </trkpt>
      <trkpt lat="47.1989" lon="-1.5618">
        <ele>61</ele>
        <time>2020-09-12T11:40:58.000Z</time>
      </trkpt>
      <trkpt lat="47.19878" lon="-1.56182">
        <ele>62</ele>
        <time>2020-09-12T11:41:00.000Z</time>
      </trkpt>
      <trkpt lat="47.19865" lon="-1.56184">
        <ele>63</ele>
        <time>2020-09-12T11:41:02.000Z</time>
      </trkpt>
      <trkpt lat="47.19853" lon="-1.56186">
        <ele>62</ele>
        <time>2020-09-12T11:41:04.000Z</time>
      </trkpt>
      <trkpt lat="47.19841" lon="-1.56188">
        <ele>62</ele>
        <time>2020-09-12T11:41:06.000Z</time>
      </trkpt>
      <trkpt lat="47.19829" lon="-1.5619">
        <ele>62</ele>
        <time>2020-09-12T11:41:08.000Z</time>
      </trkpt>
      <trkpt lat="47.19818" lon="-1.56192">
        <ele>62</ele>
        <time>2020-09-12T11:41:10.000Z</time>
      </trkpt>
      <trkpt lat="47.19806" lon="-1.56195">
        <ele>62</ele>
        <time>2020-09-12T11:41:12.000Z</time>
      </trkpt>
      <trkpt lat="47.19795" lon="-1.56197">
        <ele>62</ele>
        <time>2020-09-12T11:41:14.000Z</time>
      </trkpt>
      <trkpt lat="47.19784" lon="-1.56199">
        <ele>61</ele>
        <time>2020-09-12T11:41:16.000Z</time>
      </trkpt>
      <trkpt lat="47.19772" lon="-1.56201">
        <ele>61</ele>
        <time>2020-09-12T11:41:18.000Z</time>
      </trkpt>
      <trkpt lat="47.1976" lon="-1.56204">
        <ele>61</ele>
        <time>2020-09-12T11:41:20.000Z</time>
      </trkpt>
      <trkpt lat="47.19748" lon="-1.56206">
        <ele>60</ele>
        <time>2020-09-12T11:41:22.000Z</time>
      </trkpt>
      <trkpt lat="47.19735" lon="-1.56208">
        <ele>60</ele>
        <time>2020-09-12T11:41:24.000Z</time>
      </trkpt>
      <trkpt lat="47.19722" lon="-1.5621">
        <ele>59</ele>
        <time>2020-09-12T11:41:26.000Z</time>
      </trkpt>
      <trkpt lat="47.19707" lon="-1.56213">
        <ele>58</ele>
        <time>2020-09-12T11:41:28.000Z</time>
      </trkpt>
      <trkpt lat="47.19693" lon="-1.56217">
        <ele>58</ele>
        <time>2020-09-12T11:41:30.000Z</time>
      </trkpt>
      <trkpt lat="47.19677" lon="-1.5622">
        <ele>57</ele>
        <time>2020-09-12T11:41:32.000Z</time>
      </trkpt>
      <trkpt lat="47.19661" lon="-1.56225">
        <ele>55</ele>
        <time>2020-09-12T11:41:34.000Z</time>
      </trkpt>
      <trkpt lat="47.19644" lon="-1.5623">
        <ele>54</ele>
        <time>2020-09-12T11:41:36.000Z</time>
      </trkpt>
      <trkpt lat="47.19635" lon="-1.56251">
        <ele>54</ele>
        <time>2020-09-12T11:41:38.000Z</time>
      </trkpt>
      <trkpt lat="47.19634" lon="-1.56275">
        <ele>53</ele>
        <time>2020-09-12T11:41:40.000Z</time>
      </trkpt>
      <trkpt lat="47.19633" lon="-1.56298">
        <ele>54</ele>
        <time>2020-09-12T11:41:42.000Z</time>
      </trkpt>
      <trkpt lat="47.19633" lon="-1.5632">
        <ele>54</ele>
        <time>2020-09-12T11:41:44.000Z</time>
      </trkpt>
      <trkpt lat="47.19631" lon="-1.56342">
        <ele>53</ele>
        <time>2020-09-12T11:41:46.000Z</time>
      </trkpt>
      <trkpt lat="47.1963" lon="-1.56363">
        <ele>53</ele>
        <time>2020-09-12T11:41:48.000Z</time>
      </trkpt>
      <trkpt lat="47.1963" lon="-1.56385">
        <ele>53</ele>
        <time>2020-09-12T11:41:50.000Z</time>
      </trkpt>
      <trkpt lat="47.19631" lon="-1.56407">
        <ele>53</ele>
        <time>2020-09-12T11:41:52.000Z</time>
      </trkpt>
      <trkpt lat="47.19632" lon="-1.56428">
        <ele>53</ele>
        <time>2020-09-12T11:41:54.000Z</time>
      </trkpt>
      <trkpt lat="47.19633" lon="-1.56449">
        <ele>53</ele>
        <time>2020-09-12T11:41:56.000Z</time>
      </trkpt>
      <trkpt lat="47.19634" lon="-1.5647">
        <ele>53</ele>
        <time>2020-09-12T11:41:58.000Z</time>
      </trkpt>
      <trkpt lat="47.19634" lon="-1.56491">
        <ele>53</ele>
        <time>2020-09-12T11:42:00.000Z</time>
      </trkpt>
      <trkpt lat="47.19634" lon="-1.56512">
        <ele>53</ele>
        <time>2020-09-12T11:42:02.000Z</time>
      </trkpt>
      <trkpt lat="47.19634" lon="-1.56534">
        <ele>53</ele>
        <time>2020-09-12T11:42:04.000Z</time>
      </trkpt>
      <trkpt lat="47.19634" lon="-1.56556">
        <ele>54</ele>
        <time>2020-09-12T11:42:06.000Z</time>
      </trkpt>
      <trkpt lat="47.19634" lon="-1.56577">
        <ele>54</ele>
        <time>2020-09-12T11:42:08.000Z</time>
      </trkpt>
      <trkpt lat="47.19633" lon="-1.56599">
        <ele>56</ele>
        <time>2020-09-12T11:42:10.000Z</time>
      </trkpt>
      <trkpt lat="47.19631" lon="-1.56621">
        <ele>57</ele>
        <time>2020-09-12T11:42:12.000Z</time>
      </trkpt>
      <trkpt lat="47.1963" lon="-1.56642">
        <ele>57</ele>
        <time>2020-09-12T11:42:14.000Z</time>
      </trkpt>
      <trkpt lat="47.1963" lon="-1.56665">
        <ele>58</ele>
        <time>2020-09-12T11:42:16.000Z</time>
      </trkpt>
      <trkpt lat="47.19629" lon="-1.56687">
        <ele>58</ele>
        <time>2020-09-12T11:42:18.000Z</time>
      </trkpt>
      <trkpt lat="47.19629" lon="-1.56707">
        <ele>58</ele>
        <time>2020-09-12T11:42:20.000Z</time>
      </trkpt>
      <trkpt lat="47.19627" lon="-1.56728">
        <ele>59</ele>
        <time>2020-09-12T11:42:22.000Z</time>
      </trkpt>
      <trkpt lat="47.19624" lon="-1.5675">
        <ele>58</ele>
        <time>2020-09-12T11:42:24.000Z</time>
      </trkpt>
      <trkpt lat="47.19622" lon="-1.56773">
        <ele>57</ele>
        <time>2020-09-12T11:42:26.000Z</time>
      </trkpt>
      <trkpt lat="47.19621" lon="-1.56794">
        <ele>57</ele>
        <time>2020-09-12T11:42:28.000Z</time>
      </trkpt>
      <trkpt lat="47.1962" lon="-1.56815">
        <ele>57</ele>
        <time>2020-09-12T11:42:30.000Z</time>
      </trkpt>
      <trkpt lat="47.19619" lon="-1.56836">
        <ele>57</ele>
        <time>2020-09-12T11:42:32.000Z</time>
      </trkpt>
      <trkpt lat="47.19618" lon="-1.56856">
        <ele>57</ele>
        <time>2020-09-12T11:42:34.000Z</time>
      </trkpt>
      <trkpt lat="47.19616" lon="-1.56877">
        <ele>58</ele>
        <time>2020-09-12T11:42:36.000Z</time>
      </trkpt>
      <trkpt lat="47.19615" lon="-1.56897">
        <ele>57</ele>
        <time>2020-09-12T11:42:38.000Z</time>
      </trkpt>
      <trkpt lat="47.19613" lon="-1.56918">
        <ele>57</ele>
        <time>2020-09-12T11:42:40.000Z</time>
      </trkpt>
      <trkpt lat="47.19613" lon="-1.56939">
        <ele>58</ele>
        <time>2020-09-12T11:42:42.000Z</time>
      </trkpt>
      <trkpt lat="47.19611" lon="-1.56959">
        <ele>58</ele>
        <time>2020-09-12T11:42:44.000Z</time>
      </trkpt>
      <trkpt lat="47.19609" lon="-1.56981">
        <ele>57</ele>
        <time>2020-09-12T11:42:46.000Z</time>
      </trkpt>
      <trkpt lat="47.19608" lon="-1.57002">
        <ele>57</ele>
        <time>2020-09-12T11:42:48.000Z</time>
      </trkpt>
      <trkpt lat="47.19606" lon="-1.57023">
        <ele>57</ele>
        <time>2020-09-12T11:42:50.000Z</time>
      </trkpt>
      <trkpt lat="47.19604" lon="-1.57045">
        <ele>57</ele>
        <time>2020-09-12T11:42:52.000Z</time>
      </trkpt>
      <trkpt lat="47.19603" lon="-1.57066">
        <ele>56</ele>
        <time>2020-09-12T11:42:54.000Z</time>
      </trkpt>
      <trkpt lat="47.19602" lon="-1.57086">
        <ele>57</ele>
        <time>2020-09-12T11:42:56.000Z</time>
      </trkpt>
      <trkpt lat="47.196" lon="-1.57106">
        <ele>56</ele>
        <time>2020-09-12T11:42:58.000Z</time>
      </trkpt>
      <trkpt lat="47.19599" lon="-1.57126">
        <ele>56</ele>
        <time>2020-09-12T11:43:00.000Z</time>
      </trkpt>
      <trkpt lat="47.19598" lon="-1.57147">
        <ele>56</ele>
        <time>2020-09-12T11:43:02.000Z</time>
      </trkpt>
      <trkpt lat="47.19597" lon="-1.57168">
        <ele>55</ele>
        <time>2020-09-12T11:43:04.000Z</time>
      </trkpt>
      <trkpt lat="47.19596" lon="-1.57188">
        <ele>55</ele>
        <time>2020-09-12T11:43:06.000Z</time>
      </trkpt>
      <trkpt lat="47.19594" lon="-1.57207">
        <ele>55</ele>
        <time>2020-09-12T11:43:08.000Z</time>
      </trkpt>
      <trkpt lat="47.19593" lon="-1.57227">
        <ele>54</ele>
        <time>2020-09-12T11:43:10.000Z</time>
      </trkpt>
      <trkpt lat="47.19591" lon="-1.57248">
        <ele>54</ele>
        <time>2020-09-12T11:43:12.000Z</time>
      </trkpt>
      <trkpt lat="47.19589" lon="-1.57269">
        <ele>54</ele>
        <time>2020-09-12T11:43:14.000Z</time>
      </trkpt>
      <trkpt lat="47.19588" lon="-1.5729">
        <ele>53</ele>
        <time>2020-09-12T11:43:16.000Z</time>
      </trkpt>
      <trkpt lat="47.19588" lon="-1.57311">
        <ele>53</ele>
        <time>2020-09-12T11:43:18.000Z</time>
      </trkpt>
      <trkpt lat="47.19586" lon="-1.5733">
        <ele>54</ele>
        <time>2020-09-12T11:43:20.000Z</time>
      </trkpt>
      <trkpt lat="47.19581" lon="-1.57348">
        <ele>54</ele>
        <time>2020-09-12T11:43:22.000Z</time>
      </trkpt>
      <trkpt lat="47.19577" lon="-1.57366">
        <ele>55</ele>
        <time>2020-09-12T11:43:24.000Z</time>
      </trkpt>
      <trkpt lat="47.19574" lon="-1.57385">
        <ele>55</ele>
        <time>2020-09-12T11:43:26.000Z</time>
      </trkpt>
      <trkpt lat="47.1957" lon="-1.57405">
        <ele>55</ele>
        <time>2020-09-12T11:43:28.000Z</time>
      </trkpt>
      <trkpt lat="47.19565" lon="-1.57425">
        <ele>55</ele>
        <time>2020-09-12T11:43:30.000Z</time>
      </trkpt>
      <trkpt lat="47.19562" lon="-1.57443">
        <ele>55</ele>
        <time>2020-09-12T11:43:32.000Z</time>
      </trkpt>
      <trkpt lat="47.19559" lon="-1.57462">
        <ele>54</ele>
        <time>2020-09-12T11:43:34.000Z</time>
      </trkpt>
      <trkpt lat="47.19555" lon="-1.57481">
        <ele>54</ele>
        <time>2020-09-12T11:43:36.000Z</time>
      </trkpt>
      <trkpt lat="47.19551" lon="-1.575">
        <ele>53</ele>
        <time>2020-09-12T11:43:38.000Z</time>
      </trkpt>
      <trkpt lat="47.19548" lon="-1.57519">
        <ele>53</ele>
        <time>2020-09-12T11:43:40.000Z</time>
      </trkpt>
      <trkpt lat="47.19544" lon="-1.57538">
        <ele>53</ele>
        <time>2020-09-12T11:43:42.000Z</time>
      </trkpt>
      <trkpt lat="47.19541" lon="-1.57559">
        <ele>53</ele>
        <time>2020-09-12T11:43:44.000Z</time>
      </trkpt>
      <trkpt lat="47.19537" lon="-1.57577">
        <ele>54</ele>
        <time>2020-09-12T11:43:46.000Z</time>
      </trkpt>
      <trkpt lat="47.19532" lon="-1.57598">
        <ele>54</ele>
        <time>2020-09-12T11:43:48.000Z</time>
      </trkpt>
      <trkpt lat="47.19528" lon="-1.57617">
        <ele>54</ele>
        <time>2020-09-12T11:43:50.000Z</time>
      </trkpt>
      <trkpt lat="47.19523" lon="-1.57636">
        <ele>55</ele>
        <time>2020-09-12T11:43:52.000Z</time>
      </trkpt>
      <trkpt lat="47.19519" lon="-1.57655">
        <ele>54</ele>
        <time>2020-09-12T11:43:54.000Z</time>
      </trkpt>
      <trkpt lat="47.19515" lon="-1.57674">
        <ele>54</ele>
        <time>2020-09-12T11:43:56.000Z</time>
      </trkpt>
      <trkpt lat="47.19511" lon="-1.57694">
        <ele>55</ele>
        <time>2020-09-12T11:43:58.000Z</time>
      </trkpt>
      <trkpt lat="47.19507" lon="-1.57714">
        <ele>55</ele>
        <time>2020-09-12T11:44:00.000Z</time>
      </trkpt>
      <trkpt lat="47.19502" lon="-1.57733">
        <ele>55</ele>
        <time>2020-09-12T11:44:02.000Z</time>
      </trkpt>
      <trkpt lat="47.19498" lon="-1.57753">
        <ele>54</ele>
        <time>2020-09-12T11:44:04.000Z</time>
      </trkpt>
      <trkpt lat="47.19494" lon="-1.57773">
        <ele>54</ele>
        <time>2020-09-12T11:44:06.000Z</time>
      </trkpt>
      <trkpt lat="47.1949" lon="-1.57793">
        <ele>54</ele>
        <time>2020-09-12T11:44:08.000Z</time>
      </trkpt>
      <trkpt lat="47.19487" lon="-1.57813">
        <ele>54</ele>
        <time>2020-09-12T11:44:10.000Z</time>
      </trkpt>
      <trkpt lat="47.19483" lon="-1.57833">
        <ele>53</ele>
        <time>2020-09-12T11:44:12.000Z</time>
      </trkpt>
      <trkpt lat="47.19482" lon="-1.57854">
        <ele>53</ele>
        <time>2020-09-12T11:44:14.000Z</time>
      </trkpt>
      <trkpt lat="47.19479" lon="-1.57873">
        <ele>53</ele>
        <time>2020-09-12T11:44:16.000Z</time>
      </trkpt>
      <trkpt lat="47.19474" lon="-1.57893">
        <ele>52</ele>
        <time>2020-09-12T11:44:18.000Z</time>
      </trkpt>
      <trkpt lat="47.19471" lon="-1.57914">
        <ele>52</ele>
        <time>2020-09-12T11:44:20.000Z</time>
      </trkpt>
      <trkpt lat="47.1947" lon="-1.57934">
        <ele>52</ele>
        <time>2020-09-12T11:44:22.000Z</time>
      </trkpt>
      <trkpt lat="47.19467" lon="-1.57954">
        <ele>52</ele>
        <time>2020-09-12T11:44:24.000Z</time>
      </trkpt>
      <trkpt lat="47.19466" lon="-1.57972">
        <ele>52</ele>
        <time>2020-09-12T11:44:26.000Z</time>
      </trkpt>
      <trkpt lat="47.19465" lon="-1.5799">
        <ele>52</ele>
        <time>2020-09-12T11:44:28.000Z</time>
      </trkpt>
      <trkpt lat="47.19463" lon="-1.58008">
        <ele>52</ele>
        <time>2020-09-12T11:44:30.000Z</time>
      </trkpt>
      <trkpt lat="47.19462" lon="-1.58026">
        <ele>51</ele>
        <time>2020-09-12T11:44:32.000Z</time>
      </trkpt>
      <trkpt lat="47.1946" lon="-1.58045">
        <ele>51</ele>
        <time>2020-09-12T11:44:34.000Z</time>
      </trkpt>
      <trkpt lat="47.19458" lon="-1.58062">
        <ele>51</ele>
        <time>2020-09-12T11:44:36.000Z</time>
      </trkpt>
      <trkpt lat="47.19456" lon="-1.58078">
        <ele>51</ele>
        <time>2020-09-12T11:44:38.000Z</time>
      </trkpt>
      <trkpt lat="47.19453" lon="-1.58093">
        <ele>51</ele>
        <time>2020-09-12T11:44:40.000Z</time>
      </trkpt>
      <trkpt lat="47.19443" lon="-1.58107">
        <ele>51</ele>
        <time>2020-09-12T11:44:42.000Z</time>
      </trkpt>
      <trkpt lat="47.19433" lon="-1.5812">
        <ele>52</ele>
        <time>2020-09-12T11:44:44.000Z</time>
      </trkpt>
      <trkpt lat="47.19421" lon="-1.58131">
        <ele>53</ele>
        <time>2020-09-12T11:44:46.000Z</time>
      </trkpt>
      <trkpt lat="47.19411" lon="-1.58144">
        <ele>53</ele>
        <time>2020-09-12T11:44:48.000Z</time>
      </trkpt>
      <trkpt lat="47.19402" lon="-1.58158">
        <ele>54</ele>
        <time>2020-09-12T11:44:50.000Z</time>
      </trkpt>
      <trkpt lat="47.19394" lon="-1.58173">
        <ele>54</ele>
        <time>2020-09-12T11:44:52.000Z</time>
      </trkpt>
      <trkpt lat="47.19387" lon="-1.5819">
        <ele>55</ele>
        <time>2020-09-12T11:44:54.000Z</time>
      </trkpt>
      <trkpt lat="47.1938" lon="-1.58207">
        <ele>56</ele>
        <time>2020-09-12T11:44:56.000Z</time>
      </trkpt>
      <trkpt lat="47.19373" lon="-1.58224">
        <ele>56</ele>
        <time>2020-09-12T11:44:58.000Z</time>
      </trkpt>
      <trkpt lat="47.19367" lon="-1.58242">
        <ele>56</ele>
        <time>2020-09-12T11:45:00.000Z</time>
      </trkpt>
      <trkpt lat="47.1936" lon="-1.5826">
        <ele>55</ele>
        <time>2020-09-12T11:45:02.000Z</time>
      </trkpt>
      <trkpt lat="47.19354" lon="-1.58276">
        <ele>55</ele>
        <time>2020-09-12T11:45:04.000Z</time>
      </trkpt>
      <trkpt lat="47.19342" lon="-1.58289">
        <ele>55</ele>
        <time>2020-09-12T11:45:06.000Z</time>
      </trkpt>
      <trkpt lat="47.19331" lon="-1.58299">
        <ele>55</ele>
        <time>2020-09-12T11:45:08.000Z</time>
      </trkpt>
      <trkpt lat="47.19319" lon="-1.5831">
        <ele>55</ele>
        <time>2020-09-12T11:45:10.000Z</time>
      </trkpt>
      <trkpt lat="47.19307" lon="-1.5832">
        <ele>54</ele>
        <time>2020-09-12T11:45:12.000Z</time>
      </trkpt>
      <trkpt lat="47.19294" lon="-1.58331">
        <ele>53</ele>
        <time>2020-09-12T11:45:14.000Z</time>
      </trkpt>
      <trkpt lat="47.19282" lon="-1.58341">
        <ele>53</ele>
        <time>2020-09-12T11:45:16.000Z</time>
      </trkpt>
      <trkpt lat="47.19271" lon="-1.58353">
        <ele>52</ele>
        <time>2020-09-12T11:45:18.000Z</time>
      </trkpt>
      <trkpt lat="47.19259" lon="-1.58363">
        <ele>52</ele>
        <time>2020-09-12T11:45:20.000Z</time>
      </trkpt>
      <trkpt lat="47.19247" lon="-1.58375">
        <ele>52</ele>
        <time>2020-09-12T11:45:22.000Z</time>
      </trkpt>
      <trkpt lat="47.19235" lon="-1.58387">
        <ele>52</ele>
        <time>2020-09-12T11:45:24.000Z</time>
      </trkpt>
      <trkpt lat="47.19224" lon="-1.58397">
        <ele>52</ele>
        <time>2020-09-12T11:45:26.000Z</time>
      </trkpt>
      <trkpt lat="47.19211" lon="-1.58407">
        <ele>53</ele>
        <time>2020-09-12T11:45:28.000Z</time>
      </trkpt>
      <trkpt lat="47.192" lon="-1.58419">
        <ele>53</ele>
        <time>2020-09-12T11:45:30.000Z</time>
      </trkpt>
      <trkpt lat="47.19189" lon="-1.58429">
        <ele>53</ele>
        <time>2020-09-12T11:45:32.000Z</time>
      </trkpt>
      <trkpt lat="47.19178" lon="-1.58438">
        <ele>53</ele>
        <time>2020-09-12T11:45:34.000Z</time>
      </trkpt>
      <trkpt lat="47.19169" lon="-1.58447">
        <ele>52</ele>
        <time>2020-09-12T11:45:36.000Z</time>
      </trkpt>
      <trkpt lat="47.19158" lon="-1.58457">
        <ele>52</ele>
        <time>2020-09-12T11:45:39.000Z</time>
      </trkpt>
      <trkpt lat="47.1915" lon="-1.58466">
        <ele>52</ele>
        <time>2020-09-12T11:45:42.000Z</time>
      </trkpt>
      <trkpt lat="47.19141" lon="-1.58477">
        <ele>52</ele>
        <time>2020-09-12T11:45:45.000Z</time>
      </trkpt>
      <trkpt lat="47.19131" lon="-1.58485">
        <ele>53</ele>
        <time>2020-09-12T11:45:47.000Z</time>
      </trkpt>
      <trkpt lat="47.1912" lon="-1.58495">
        <ele>53</ele>
        <time>2020-09-12T11:45:49.000Z</time>
      </trkpt>
      <trkpt lat="47.19108" lon="-1.58507">
        <ele>53</ele>
        <time>2020-09-12T11:45:51.000Z</time>
      </trkpt>
      <trkpt lat="47.19097" lon="-1.58518">
        <ele>54</ele>
        <time>2020-09-12T11:45:53.000Z</time>
      </trkpt>
      <trkpt lat="47.19085" lon="-1.5853">
        <ele>54</ele>
        <time>2020-09-12T11:45:55.000Z</time>
      </trkpt>
      <trkpt lat="47.19074" lon="-1.58541">
        <ele>54</ele>
        <time>2020-09-12T11:45:57.000Z</time>
      </trkpt>
      <trkpt lat="47.19063" lon="-1.58553">
        <ele>54</ele>
        <time>2020-09-12T11:45:59.000Z</time>
      </trkpt>
      <trkpt lat="47.19052" lon="-1.58565">
        <ele>54</ele>
        <time>2020-09-12T11:46:01.000Z</time>
      </trkpt>
      <trkpt lat="47.1904" lon="-1.58576">
        <ele>54</ele>
        <time>2020-09-12T11:46:03.000Z</time>
      </trkpt>
      <trkpt lat="47.19029" lon="-1.58589">
        <ele>54</ele>
        <time>2020-09-12T11:46:05.000Z</time>
      </trkpt>
      <trkpt lat="47.19018" lon="-1.58601">
        <ele>54</ele>
        <time>2020-09-12T11:46:07.000Z</time>
      </trkpt>
      <trkpt lat="47.19006" lon="-1.58613">
        <ele>54</ele>
        <time>2020-09-12T11:46:09.000Z</time>
      </trkpt>
      <trkpt lat="47.18995" lon="-1.58625">
        <ele>55</ele>
        <time>2020-09-12T11:46:11.000Z</time>
      </trkpt>
      <trkpt lat="47.18984" lon="-1.58636">
        <ele>55</ele>
        <time>2020-09-12T11:46:13.000Z</time>
      </trkpt>
      <trkpt lat="47.18973" lon="-1.58649">
        <ele>56</ele>
        <time>2020-09-12T11:46:15.000Z</time>
      </trkpt>
      <trkpt lat="47.18961" lon="-1.58659">
        <ele>56</ele>
        <time>2020-09-12T11:46:17.000Z</time>
      </trkpt>
      <trkpt lat="47.1895" lon="-1.5867">
        <ele>56</ele>
        <time>2020-09-12T11:46:19.000Z</time>
      </trkpt>
      <trkpt lat="47.18939" lon="-1.58679">
        <ele>56</ele>
        <time>2020-09-12T11:46:21.000Z</time>
      </trkpt>
      <trkpt lat="47.18928" lon="-1.58689">
        <ele>55</ele>
        <time>2020-09-12T11:46:23.000Z</time>
      </trkpt>
      <trkpt lat="47.18917" lon="-1.58699">
        <ele>55</ele>
        <time>2020-09-12T11:46:25.000Z</time>
      </trkpt>
      <trkpt lat="47.18906" lon="-1.58709">
        <ele>56</ele>
        <time>2020-09-12T11:46:27.000Z</time>
      </trkpt>
      <trkpt lat="47.18894" lon="-1.58716">
        <ele>56</ele>
        <time>2020-09-12T11:46:29.000Z</time>
      </trkpt>
      <trkpt lat="47.18883" lon="-1.58722">
        <ele>56</ele>
        <time>2020-09-12T11:46:31.000Z</time>
      </trkpt>
      <trkpt lat="47.18871" lon="-1.58729">
        <ele>56</ele>
        <time>2020-09-12T11:46:33.000Z</time>
      </trkpt>
      <trkpt lat="47.18861" lon="-1.58735">
        <ele>56</ele>
        <time>2020-09-12T11:46:35.000Z</time>
      </trkpt>
      <trkpt lat="47.1885" lon="-1.58739">
        <ele>56</ele>
        <time>2020-09-12T11:46:37.000Z</time>
      </trkpt>
      <trkpt lat="47.1884" lon="-1.58745">
        <ele>56</ele>
        <time>2020-09-12T11:46:39.000Z</time>
      </trkpt>
      <trkpt lat="47.18833" lon="-1.58756">
        <ele>56</ele>
        <time>2020-09-12T11:46:41.000Z</time>
      </trkpt>
      <trkpt lat="47.1883" lon="-1.58772">
        <ele>56</ele>
        <time>2020-09-12T11:46:43.000Z</time>
      </trkpt>
      <trkpt lat="47.18826" lon="-1.58786">
        <ele>56</ele>
        <time>2020-09-12T11:46:45.000Z</time>
      </trkpt>
      <trkpt lat="47.18817" lon="-1.58799">
        <ele>56</ele>
        <time>2020-09-12T11:46:47.000Z</time>
      </trkpt>
      <trkpt lat="47.18806" lon="-1.58807">
        <ele>56</ele>
        <time>2020-09-12T11:46:49.000Z</time>
      </trkpt>
      <trkpt lat="47.18795" lon="-1.58814">
        <ele>56</ele>
        <time>2020-09-12T11:46:51.000Z</time>
      </trkpt>
      <trkpt lat="47.18788" lon="-1.58829">
        <ele>55</ele>
        <time>2020-09-12T11:46:53.000Z</time>
      </trkpt>
      <trkpt lat="47.18784" lon="-1.58847">
        <ele>55</ele>
        <time>2020-09-12T11:46:55.000Z</time>
      </trkpt>
      <trkpt lat="47.1878" lon="-1.58867">
        <ele>55</ele>
        <time>2020-09-12T11:46:57.000Z</time>
      </trkpt>
      <trkpt lat="47.18776" lon="-1.58886">
        <ele>55</ele>
        <time>2020-09-12T11:46:59.000Z</time>
      </trkpt>
      <trkpt lat="47.18773" lon="-1.58905">
        <ele>54</ele>
        <time>2020-09-12T11:47:01.000Z</time>
      </trkpt>
      <trkpt lat="47.1877" lon="-1.58926">
        <ele>54</ele>
        <time>2020-09-12T11:47:03.000Z</time>
      </trkpt>
      <trkpt lat="47.18767" lon="-1.58948">
        <ele>53</ele>
        <time>2020-09-12T11:47:05.000Z</time>
      </trkpt>
      <trkpt lat="47.18764" lon="-1.5897">
        <ele>54</ele>
        <time>2020-09-12T11:47:07.000Z</time>
      </trkpt>
      <trkpt lat="47.18762" lon="-1.58992">
        <ele>54</ele>
        <time>2020-09-12T11:47:09.000Z</time>
      </trkpt>
      <trkpt lat="47.18761" lon="-1.59014">
        <ele>54</ele>
        <time>2020-09-12T11:47:11.000Z</time>
      </trkpt>
      <trkpt lat="47.1876" lon="-1.59036">
        <ele>54</ele>
        <time>2020-09-12T11:47:13.000Z</time>
      </trkpt>
      <trkpt lat="47.18758" lon="-1.59058">
        <ele>54</ele>
        <time>2020-09-12T11:47:15.000Z</time>
      </trkpt>
      <trkpt lat="47.18755" lon="-1.5908">
        <ele>54</ele>
        <time>2020-09-12T11:47:17.000Z</time>
      </trkpt>
      <trkpt lat="47.18753" lon="-1.59102">
        <ele>54</ele>
        <time>2020-09-12T11:47:19.000Z</time>
      </trkpt>
      <trkpt lat="47.18751" lon="-1.59124">
        <ele>54</ele>
        <time>2020-09-12T11:47:21.000Z</time>
      </trkpt>
      <trkpt lat="47.18748" lon="-1.59146">
        <ele>54</ele>
        <time>2020-09-12T11:47:23.000Z</time>
      </trkpt>
      <trkpt lat="47.18746" lon="-1.59168">
        <ele>54</ele>
        <time>2020-09-12T11:47:25.000Z</time>
      </trkpt>
      <trkpt lat="47.18743" lon="-1.5919">
        <ele>54</ele>
        <time>2020-09-12T11:47:27.000Z</time>
      </trkpt>
      <trkpt lat="47.18741" lon="-1.59212">
        <ele>54</ele>
        <time>2020-09-12T11:47:29.000Z</time>
      </trkpt>
      <trkpt lat="47.18738" lon="-1.59234">
        <ele>54</ele>
        <time>2020-09-12T11:47:31.000Z</time>
      </trkpt>
      <trkpt lat="47.18737" lon="-1.59255">
        <ele>53</ele>
        <time>2020-09-12T11:47:33.000Z</time>
      </trkpt>
      <trkpt lat="47.18734" lon="-1.59276">
        <ele>54</ele>
        <time>2020-09-12T11:47:35.000Z</time>
      </trkpt>
      <trkpt lat="47.18732" lon="-1.59297">
        <ele>53</ele>
        <time>2020-09-12T11:47:37.000Z</time>
      </trkpt>
      <trkpt lat="47.18729" lon="-1.59319">
        <ele>53</ele>
        <time>2020-09-12T11:47:39.000Z</time>
      </trkpt>
      <trkpt lat="47.18727" lon="-1.5934">
        <ele>53</ele>
        <time>2020-09-12T11:47:41.000Z</time>
      </trkpt>
      <trkpt lat="47.18725" lon="-1.59361">
        <ele>53</ele>
        <time>2020-09-12T11:47:43.000Z</time>
      </trkpt>
      <trkpt lat="47.18723" lon="-1.59383">
        <ele>53</ele>
        <time>2020-09-12T11:47:45.000Z</time>
      </trkpt>
      <trkpt lat="47.18721" lon="-1.59404">
        <ele>53</ele>
        <time>2020-09-12T11:47:47.000Z</time>
      </trkpt>
      <trkpt lat="47.18718" lon="-1.59426">
        <ele>53</ele>
        <time>2020-09-12T11:47:49.000Z</time>
      </trkpt>
      <trkpt lat="47.18716" lon="-1.59447">
        <ele>54</ele>
        <time>2020-09-12T11:47:51.000Z</time>
      </trkpt>
      <trkpt lat="47.18713" lon="-1.59468">
        <ele>54</ele>
        <time>2020-09-12T11:47:53.000Z</time>
      </trkpt>
      <trkpt lat="47.18711" lon="-1.59489">
        <ele>54</ele>
        <time>2020-09-12T11:47:55.000Z</time>
      </trkpt>
      <trkpt lat="47.18709" lon="-1.5951">
        <ele>54</ele>
        <time>2020-09-12T11:47:57.000Z</time>
      </trkpt>
      <trkpt lat="47.18707" lon="-1.5953">
        <ele>54</ele>
        <time>2020-09-12T11:47:59.000Z</time>
      </trkpt>
      <trkpt lat="47.18705" lon="-1.5955">
        <ele>54</ele>
        <time>2020-09-12T11:48:01.000Z</time>
      </trkpt>
      <trkpt lat="47.18702" lon="-1.5957">
        <ele>54</ele>
        <time>2020-09-12T11:48:03.000Z</time>
      </trkpt>
      <trkpt lat="47.187" lon="-1.59589">
        <ele>55</ele>
        <time>2020-09-12T11:48:05.000Z</time>
      </trkpt>
      <trkpt lat="47.18697" lon="-1.59609">
        <ele>55</ele>
        <time>2020-09-12T11:48:07.000Z</time>
      </trkpt>
      <trkpt lat="47.18695" lon="-1.59629">
        <ele>55</ele>
        <time>2020-09-12T11:48:09.000Z</time>
      </trkpt>
      <trkpt lat="47.18692" lon="-1.5965">
        <ele>55</ele>
        <time>2020-09-12T11:48:11.000Z</time>
      </trkpt>
      <trkpt lat="47.18689" lon="-1.59669">
        <ele>55</ele>
        <time>2020-09-12T11:48:13.000Z</time>
      </trkpt>
      <trkpt lat="47.18687" lon="-1.59689">
        <ele>55</ele>
        <time>2020-09-12T11:48:15.000Z</time>
      </trkpt>
      <trkpt lat="47.18685" lon="-1.59709">
        <ele>54</ele>
        <time>2020-09-12T11:48:17.000Z</time>
      </trkpt>
      <trkpt lat="47.18684" lon="-1.59728">
        <ele>54</ele>
        <time>2020-09-12T11:48:19.000Z</time>
      </trkpt>
      <trkpt lat="47.18684" lon="-1.59746">
        <ele>54</ele>
        <time>2020-09-12T11:48:21.000Z</time>
      </trkpt>
      <trkpt lat="47.18686" lon="-1.59764">
        <ele>54</ele>
        <time>2020-09-12T11:48:23.000Z</time>
      </trkpt>
      <trkpt lat="47.1869" lon="-1.59782">
        <ele>54</ele>
        <time>2020-09-12T11:48:25.000Z</time>
      </trkpt>
      <trkpt lat="47.18686" lon="-1.59806">
        <ele>54</ele>
        <time>2020-09-12T11:48:27.000Z</time>
      </trkpt>
      <trkpt lat="47.18678" lon="-1.59828">
        <ele>54</ele>
        <time>2020-09-12T11:48:29.000Z</time>
      </trkpt>
      <trkpt lat="47.18663" lon="-1.59844">
        <ele>55</ele>
        <time>2020-09-12T11:48:31.000Z</time>
      </trkpt>
      <trkpt lat="47.18645" lon="-1.59841">
        <ele>55</ele>
        <time>2020-09-12T11:48:33.000Z</time>
      </trkpt>
      <trkpt lat="47.18631" lon="-1.5983">
        <ele>54</ele>
        <time>2020-09-12T11:48:35.000Z</time>
      </trkpt>
      <trkpt lat="47.18619" lon="-1.59831">
        <ele>53</ele>
        <time>2020-09-12T11:48:37.000Z</time>
      </trkpt>
      <trkpt lat="47.18617" lon="-1.59845">
        <ele>52</ele>
        <time>2020-09-12T11:48:39.000Z</time>
      </trkpt>
      <trkpt lat="47.18623" lon="-1.59862">
        <ele>53</ele>
        <time>2020-09-12T11:48:41.000Z</time>
      </trkpt>
      <trkpt lat="47.1862" lon="-1.5988">
        <ele>52</ele>
        <time>2020-09-12T11:48:43.000Z</time>
      </trkpt>
      <trkpt lat="47.18615" lon="-1.59898">
        <ele>52</ele>
        <time>2020-09-12T11:48:45.000Z</time>
      </trkpt>
      <trkpt lat="47.1861" lon="-1.59917">
        <ele>52</ele>
        <time>2020-09-12T11:48:47.000Z</time>
      </trkpt>
      <trkpt lat="47.18605" lon="-1.59936">
        <ele>52</ele>
        <time>2020-09-12T11:48:49.000Z</time>
      </trkpt>
      <trkpt lat="47.18599" lon="-1.59954">
        <ele>52</ele>
        <time>2020-09-12T11:48:51.000Z</time>
      </trkpt>
      <trkpt lat="47.18594" lon="-1.59973">
        <ele>53</ele>
        <time>2020-09-12T11:48:53.000Z</time>
      </trkpt>
      <trkpt lat="47.18589" lon="-1.59991">
        <ele>52</ele>
        <time>2020-09-12T11:48:55.000Z</time>
      </trkpt>
      <trkpt lat="47.18583" lon="-1.6001">
        <ele>52</ele>
        <time>2020-09-12T11:48:57.000Z</time>
      </trkpt>
      <trkpt lat="47.18577" lon="-1.60028">
        <ele>53</ele>
        <time>2020-09-12T11:48:59.000Z</time>
      </trkpt>
      <trkpt lat="47.18571" lon="-1.60047">
        <ele>53</ele>
        <time>2020-09-12T11:49:01.000Z</time>
      </trkpt>
      <trkpt lat="47.18564" lon="-1.60064">
        <ele>54</ele>
        <time>2020-09-12T11:49:03.000Z</time>
      </trkpt>
      <trkpt lat="47.18557" lon="-1.60082">
        <ele>54</ele>
        <time>2020-09-12T11:49:05.000Z</time>
      </trkpt>
      <trkpt lat="47.18549" lon="-1.601">
        <ele>54</ele>
        <time>2020-09-12T11:49:07.000Z</time>
      </trkpt>
      <trkpt lat="47.18542" lon="-1.60117">
        <ele>54</ele>
        <time>2020-09-12T11:49:09.000Z</time>
      </trkpt>
      <trkpt lat="47.18536" lon="-1.60134">
        <ele>54</ele>
        <time>2020-09-12T11:49:11.000Z</time>
      </trkpt>
      <trkpt lat="47.18528" lon="-1.6015">
        <ele>54</ele>
        <time>2020-09-12T11:49:13.000Z</time>
      </trkpt>
      <trkpt lat="47.1852" lon="-1.60166">
        <ele>54</ele>
        <time>2020-09-12T11:49:15.000Z</time>
      </trkpt>
      <trkpt lat="47.18513" lon="-1.60182">
        <ele>54</ele>
        <time>2020-09-12T11:49:17.000Z</time>
      </trkpt>
      <trkpt lat="47.18504" lon="-1.60198">
        <ele>54</ele>
        <time>2020-09-12T11:49:19.000Z</time>
      </trkpt>
      <trkpt lat="47.18496" lon="-1.60214">
        <ele>54</ele>
        <time>2020-09-12T11:49:21.000Z</time>
      </trkpt>
      <trkpt lat="47.18488" lon="-1.60229">
        <ele>54</ele>
        <time>2020-09-12T11:49:23.000Z</time>
      </trkpt>
      <trkpt lat="47.1848" lon="-1.60245">
        <ele>53</ele>
        <time>2020-09-12T11:49:25.000Z</time>
      </trkpt>
      <trkpt lat="47.18471" lon="-1.60261">
        <ele>54</ele>
        <time>2020-09-12T11:49:27.000Z</time>
      </trkpt>
      <trkpt lat="47.18463" lon="-1.60277">
        <ele>54</ele>
        <time>2020-09-12T11:49:29.000Z</time>
      </trkpt>
      <trkpt lat="47.18454" lon="-1.60293">
        <ele>54</ele>
        <time>2020-09-12T11:49:31.000Z</time>
      </trkpt>
      <trkpt lat="47.18444" lon="-1.60308">
        <ele>54</ele>
        <time>2020-09-12T11:49:33.000Z</time>
      </trkpt>
      <trkpt lat="47.18435" lon="-1.60324">
        <ele>54</ele>
        <time>2020-09-12T11:49:35.000Z</time>
      </trkpt>
      <trkpt lat="47.18426" lon="-1.60339">
        <ele>54</ele>
        <time>2020-09-12T11:49:37.000Z</time>
      </trkpt>
      <trkpt lat="47.18416" lon="-1.60353">
        <ele>55</ele>
        <time>2020-09-12T11:49:39.000Z</time>
      </trkpt>
      <trkpt lat="47.18406" lon="-1.60367">
        <ele>55</ele>
        <time>2020-09-12T11:49:41.000Z</time>
      </trkpt>
      <trkpt lat="47.18396" lon="-1.6038">
        <ele>55</ele>
        <time>2020-09-12T11:49:43.000Z</time>
      </trkpt>
      <trkpt lat="47.18386" lon="-1.60394">
        <ele>55</ele>
        <time>2020-09-12T11:49:45.000Z</time>
      </trkpt>
      <trkpt lat="47.18375" lon="-1.60408">
        <ele>54</ele>
        <time>2020-09-12T11:49:47.000Z</time>
      </trkpt>
      <trkpt lat="47.18364" lon="-1.60422">
        <ele>55</ele>
        <time>2020-09-12T11:49:49.000Z</time>
      </trkpt>
      <trkpt lat="47.18353" lon="-1.60436">
        <ele>55</ele>
        <time>2020-09-12T11:49:51.000Z</time>
      </trkpt>
      <trkpt lat="47.18343" lon="-1.60449">
        <ele>55</ele>
        <time>2020-09-12T11:49:53.000Z</time>
      </trkpt>
      <trkpt lat="47.18332" lon="-1.60462">
        <ele>55</ele>
        <time>2020-09-12T11:49:55.000Z</time>
      </trkpt>
      <trkpt lat="47.18321" lon="-1.60475">
        <ele>54</ele>
        <time>2020-09-12T11:49:57.000Z</time>
      </trkpt>
      <trkpt lat="47.18309" lon="-1.60487">
        <ele>54</ele>
        <time>2020-09-12T11:49:59.000Z</time>
      </trkpt>
      <trkpt lat="47.18298" lon="-1.60499">
        <ele>54</ele>
        <time>2020-09-12T11:50:01.000Z</time>
      </trkpt>
      <trkpt lat="47.18286" lon="-1.60511">
        <ele>54</ele>
        <time>2020-09-12T11:50:03.000Z</time>
      </trkpt>
      <trkpt lat="47.18275" lon="-1.60524">
        <ele>54</ele>
        <time>2020-09-12T11:50:05.000Z</time>
      </trkpt>
      <trkpt lat="47.18263" lon="-1.60535">
        <ele>54</ele>
        <time>2020-09-12T11:50:07.000Z</time>
      </trkpt>
      <trkpt lat="47.18251" lon="-1.60545">
        <ele>54</ele>
        <time>2020-09-12T11:50:09.000Z</time>
      </trkpt>
      <trkpt lat="47.18238" lon="-1.60554">
        <ele>54</ele>
        <time>2020-09-12T11:50:11.000Z</time>
      </trkpt>
      <trkpt lat="47.18226" lon="-1.60561">
        <ele>54</ele>
        <time>2020-09-12T11:50:13.000Z</time>
      </trkpt>
      <trkpt lat="47.18214" lon="-1.60568">
        <ele>55</ele>
        <time>2020-09-12T11:50:15.000Z</time>
      </trkpt>
      <trkpt lat="47.18202" lon="-1.60573">
        <ele>55</ele>
        <time>2020-09-12T11:50:17.000Z</time>
      </trkpt>
      <trkpt lat="47.18192" lon="-1.60577">
        <ele>54</ele>
        <time>2020-09-12T11:50:19.000Z</time>
      </trkpt>
      <trkpt lat="47.18184" lon="-1.60587">
        <ele>54</ele>
        <time>2020-09-12T11:50:24.000Z</time>
      </trkpt>
      <trkpt lat="47.18179" lon="-1.60602">
        <ele>53</ele>
        <time>2020-09-12T11:50:28.000Z</time>
      </trkpt>
      <trkpt lat="47.18168" lon="-1.60602">
        <ele>53</ele>
        <time>2020-09-12T11:50:30.000Z</time>
      </trkpt>
      <trkpt lat="47.18155" lon="-1.60603">
        <ele>53</ele>
        <time>2020-09-12T11:50:32.000Z</time>
      </trkpt>
      <trkpt lat="47.18142" lon="-1.60602">
        <ele>53</ele>
        <time>2020-09-12T11:50:34.000Z</time>
      </trkpt>
      <trkpt lat="47.18129" lon="-1.60601">
        <ele>53</ele>
        <time>2020-09-12T11:50:36.000Z</time>
      </trkpt>
      <trkpt lat="47.18116" lon="-1.60596">
        <ele>53</ele>
        <time>2020-09-12T11:50:38.000Z</time>
      </trkpt>
      <trkpt lat="47.18103" lon="-1.60591">
        <ele>53</ele>
        <time>2020-09-12T11:50:40.000Z</time>
      </trkpt>
      <trkpt lat="47.18089" lon="-1.60585">
        <ele>52</ele>
        <time>2020-09-12T11:50:42.000Z</time>
      </trkpt>
      <trkpt lat="47.18077" lon="-1.60579">
        <ele>52</ele>
        <time>2020-09-12T11:50:44.000Z</time>
      </trkpt>
      <trkpt lat="47.18064" lon="-1.60572">
        <ele>52</ele>
        <time>2020-09-12T11:50:46.000Z</time>
      </trkpt>
      <trkpt lat="47.18052" lon="-1.60565">
        <ele>53</ele>
        <time>2020-09-12T11:50:48.000Z</time>
      </trkpt>
      <trkpt lat="47.1804" lon="-1.60559">
        <ele>53</ele>
        <time>2020-09-12T11:50:50.000Z</time>
      </trkpt>
      <trkpt lat="47.18028" lon="-1.60554">
        <ele>53</ele>
        <time>2020-09-12T11:50:52.000Z</time>
      </trkpt>
      <trkpt lat="47.18015" lon="-1.60551">
        <ele>53</ele>
        <time>2020-09-12T11:50:54.000Z</time>
      </trkpt>
      <trkpt lat="47.18003" lon="-1.60554">
        <ele>53</ele>
        <time>2020-09-12T11:50:56.000Z</time>
      </trkpt>
      <trkpt lat="47.17991" lon="-1.60558">
        <ele>53</ele>
        <time>2020-09-12T11:50:58.000Z</time>
      </trkpt>
      <trkpt lat="47.17979" lon="-1.60563">
        <ele>53</ele>
        <time>2020-09-12T11:51:00.000Z</time>
      </trkpt>
      <trkpt lat="47.17967" lon="-1.60567">
        <ele>53</ele>
        <time>2020-09-12T11:51:02.000Z</time>
      </trkpt>
      <trkpt lat="47.17955" lon="-1.60571">
        <ele>53</ele>
        <time>2020-09-12T11:51:04.000Z</time>
      </trkpt>
      <trkpt lat="47.17943" lon="-1.60578">
        <ele>53</ele>
        <time>2020-09-12T11:51:06.000Z</time>
      </trkpt>
      <trkpt lat="47.17932" lon="-1.60585">
        <ele>54</ele>
        <time>2020-09-12T11:51:08.000Z</time>
      </trkpt>
      <trkpt lat="47.17922" lon="-1.60587">
        <ele>55</ele>
        <time>2020-09-12T11:51:10.000Z</time>
      </trkpt>
      <trkpt lat="47.17909" lon="-1.60588">
        <ele>54</ele>
        <time>2020-09-12T11:51:13.000Z</time>
      </trkpt>
      <trkpt lat="47.17903" lon="-1.60605">
        <ele>54</ele>
        <time>2020-09-12T11:51:15.000Z</time>
      </trkpt>
      <trkpt lat="47.17899" lon="-1.60624">
        <ele>53</ele>
        <time>2020-09-12T11:51:17.000Z</time>
      </trkpt>
      <trkpt lat="47.17893" lon="-1.60643">
        <ele>53</ele>
        <time>2020-09-12T11:51:19.000Z</time>
      </trkpt>
      <trkpt lat="47.17886" lon="-1.60662">
        <ele>52</ele>
        <time>2020-09-12T11:51:21.000Z</time>
      </trkpt>
      <trkpt lat="47.17879" lon="-1.60681">
        <ele>52</ele>
        <time>2020-09-12T11:51:23.000Z</time>
      </trkpt>
      <trkpt lat="47.17874" lon="-1.60701">
        <ele>52</ele>
        <time>2020-09-12T11:51:25.000Z</time>
      </trkpt>
      <trkpt lat="47.1787" lon="-1.6072">
        <ele>52</ele>
        <time>2020-09-12T11:51:27.000Z</time>
      </trkpt>
      <trkpt lat="47.17865" lon="-1.6074">
        <ele>52</ele>
        <time>2020-09-12T11:51:29.000Z</time>
      </trkpt>
      <trkpt lat="47.17861" lon="-1.60759">
        <ele>53</ele>
        <time>2020-09-12T11:51:31.000Z</time>
      </trkpt>
      <trkpt lat="47.17857" lon="-1.60778">
        <ele>53</ele>
        <time>2020-09-12T11:51:33.000Z</time>
      </trkpt>
      <trkpt lat="47.17853" lon="-1.60797">
        <ele>52</ele>
        <time>2020-09-12T11:51:35.000Z</time>
      </trkpt>
      <trkpt lat="47.17848" lon="-1.60815">
        <ele>53</ele>
        <time>2020-09-12T11:51:37.000Z</time>
      </trkpt>
      <trkpt lat="47.17843" lon="-1.60833">
        <ele>53</ele>
        <time>2020-09-12T11:51:39.000Z</time>
      </trkpt>
      <trkpt lat="47.17837" lon="-1.6085">
        <ele>53</ele>
        <time>2020-09-12T11:51:41.000Z</time>
      </trkpt>
      <trkpt lat="47.17828" lon="-1.60866">
        <ele>54</ele>
        <time>2020-09-12T11:51:43.000Z</time>
      </trkpt>
      <trkpt lat="47.17819" lon="-1.6088">
        <ele>54</ele>
        <time>2020-09-12T11:51:45.000Z</time>
      </trkpt>
      <trkpt lat="47.17809" lon="-1.60892">
        <ele>54</ele>
        <time>2020-09-12T11:51:47.000Z</time>
      </trkpt>
      <trkpt lat="47.17797" lon="-1.60902">
        <ele>54</ele>
        <time>2020-09-12T11:51:49.000Z</time>
      </trkpt>
      <trkpt lat="47.17785" lon="-1.6091">
        <ele>54</ele>
        <time>2020-09-12T11:51:51.000Z</time>
      </trkpt>
      <trkpt lat="47.17773" lon="-1.60919">
        <ele>54</ele>
        <time>2020-09-12T11:51:53.000Z</time>
      </trkpt>
      <trkpt lat="47.17762" lon="-1.60928">
        <ele>55</ele>
        <time>2020-09-12T11:51:55.000Z</time>
      </trkpt>
      <trkpt lat="47.17751" lon="-1.60937">
        <ele>55</ele>
        <time>2020-09-12T11:51:57.000Z</time>
      </trkpt>
      <trkpt lat="47.17739" lon="-1.60946">
        <ele>55</ele>
        <time>2020-09-12T11:51:59.000Z</time>
      </trkpt>
      <trkpt lat="47.17727" lon="-1.60955">
        <ele>54</ele>
        <time>2020-09-12T11:52:01.000Z</time>
      </trkpt>
      <trkpt lat="47.17715" lon="-1.60962">
        <ele>54</ele>
        <time>2020-09-12T11:52:03.000Z</time>
      </trkpt>
      <trkpt lat="47.17704" lon="-1.60969">
        <ele>54</ele>
        <time>2020-09-12T11:52:05.000Z</time>
      </trkpt>
      <trkpt lat="47.17692" lon="-1.60973">
        <ele>54</ele>
        <time>2020-09-12T11:52:07.000Z</time>
      </trkpt>
      <trkpt lat="47.17678" lon="-1.60971">
        <ele>53</ele>
        <time>2020-09-12T11:52:09.000Z</time>
      </trkpt>
      <trkpt lat="47.17663" lon="-1.60971">
        <ele>53</ele>
        <time>2020-09-12T11:52:11.000Z</time>
      </trkpt>
      <trkpt lat="47.17651" lon="-1.60978">
        <ele>53</ele>
        <time>2020-09-12T11:52:13.000Z</time>
      </trkpt>
      <trkpt lat="47.17639" lon="-1.60989">
        <ele>52</ele>
        <time>2020-09-12T11:52:15.000Z</time>
      </trkpt>
      <trkpt lat="47.17627" lon="-1.60999">
        <ele>52</ele>
        <time>2020-09-12T11:52:17.000Z</time>
      </trkpt>
      <trkpt lat="47.17616" lon="-1.61009">
        <ele>52</ele>
        <time>2020-09-12T11:52:19.000Z</time>
      </trkpt>
      <trkpt lat="47.17604" lon="-1.61019">
        <ele>52</ele>
        <time>2020-09-12T11:52:21.000Z</time>
      </trkpt>
      <trkpt lat="47.17593" lon="-1.61028">
        <ele>53</ele>
        <time>2020-09-12T11:52:23.000Z</time>
      </trkpt>
      <trkpt lat="47.17582" lon="-1.61038">
        <ele>52</ele>
        <time>2020-09-12T11:52:25.000Z</time>
      </trkpt>
      <trkpt lat="47.17571" lon="-1.61048">
        <ele>53</ele>
        <time>2020-09-12T11:52:27.000Z</time>
      </trkpt>
      <trkpt lat="47.1756" lon="-1.61057">
        <ele>52</ele>
        <time>2020-09-12T11:52:29.000Z</time>
      </trkpt>
      <trkpt lat="47.17549" lon="-1.61067">
        <ele>53</ele>
        <time>2020-09-12T11:52:31.000Z</time>
      </trkpt>
      <trkpt lat="47.17538" lon="-1.61077">
        <ele>53</ele>
        <time>2020-09-12T11:52:33.000Z</time>
      </trkpt>
      <trkpt lat="47.17527" lon="-1.61086">
        <ele>53</ele>
        <time>2020-09-12T11:52:35.000Z</time>
      </trkpt>
      <trkpt lat="47.17516" lon="-1.61095">
        <ele>53</ele>
        <time>2020-09-12T11:52:37.000Z</time>
      </trkpt>
      <trkpt lat="47.17505" lon="-1.61102">
        <ele>53</ele>
        <time>2020-09-12T11:52:39.000Z</time>
      </trkpt>
      <trkpt lat="47.17493" lon="-1.61105">
        <ele>53</ele>
        <time>2020-09-12T11:52:41.000Z</time>
      </trkpt>
      <trkpt lat="47.17481" lon="-1.61104">
        <ele>54</ele>
        <time>2020-09-12T11:52:43.000Z</time>
      </trkpt>
      <trkpt lat="47.17469" lon="-1.61099">
        <ele>54</ele>
        <time>2020-09-12T11:52:45.000Z</time>
      </trkpt>
      <trkpt lat="47.17459" lon="-1.6109">
        <ele>54</ele>
        <time>2020-09-12T11:52:47.000Z</time>
      </trkpt>
      <trkpt lat="47.1745" lon="-1.6108">
        <ele>54</ele>
        <time>2020-09-12T11:52:49.000Z</time>
      </trkpt>
      <trkpt lat="47.17442" lon="-1.61067">
        <ele>54</ele>
        <time>2020-09-12T11:52:51.000Z</time>
      </trkpt>
      <trkpt lat="47.17436" lon="-1.61053">
        <ele>54</ele>
        <time>2020-09-12T11:52:53.000Z</time>
      </trkpt>
      <trkpt lat="47.17431" lon="-1.61038">
        <ele>54</ele>
        <time>2020-09-12T11:52:55.000Z</time>
      </trkpt>
      <trkpt lat="47.17428" lon="-1.61025">
        <ele>54</ele>
        <time>2020-09-12T11:52:57.000Z</time>
      </trkpt>
      <trkpt lat="47.17421" lon="-1.61035">
        <ele>54</ele>
        <time>2020-09-12T11:53:02.000Z</time>
      </trkpt>
      <trkpt lat="47.17425" lon="-1.61047">
        <ele>55</ele>
        <time>2020-09-12T11:53:04.000Z</time>
      </trkpt>
      <trkpt lat="47.17429" lon="-1.6106">
        <ele>56</ele>
        <time>2020-09-12T11:53:06.000Z</time>
      </trkpt>
      <trkpt lat="47.17435" lon="-1.61073">
        <ele>57</ele>
        <time>2020-09-12T11:53:08.000Z</time>
      </trkpt>
      <trkpt lat="47.17441" lon="-1.61087">
        <ele>57</ele>
        <time>2020-09-12T11:53:10.000Z</time>
      </trkpt>
      <trkpt lat="47.17447" lon="-1.61101">
        <ele>58</ele>
        <time>2020-09-12T11:53:12.000Z</time>
      </trkpt>
      <trkpt lat="47.17453" lon="-1.61115">
        <ele>58</ele>
        <time>2020-09-12T11:53:14.000Z</time>
      </trkpt>
      <trkpt lat="47.17458" lon="-1.61129">
        <ele>58</ele>
        <time>2020-09-12T11:53:16.000Z</time>
      </trkpt>
      <trkpt lat="47.17463" lon="-1.61142">
        <ele>58</ele>
        <time>2020-09-12T11:53:18.000Z</time>
      </trkpt>
      <trkpt lat="47.17469" lon="-1.61156">
        <ele>59</ele>
        <time>2020-09-12T11:53:20.000Z</time>
      </trkpt>
      <trkpt lat="47.17474" lon="-1.6117">
        <ele>59</ele>
        <time>2020-09-12T11:53:22.000Z</time>
      </trkpt>
      <trkpt lat="47.1748" lon="-1.61183">
        <ele>59</ele>
        <time>2020-09-12T11:53:24.000Z</time>
      </trkpt>
      <trkpt lat="47.17486" lon="-1.61197">
        <ele>59</ele>
        <time>2020-09-12T11:53:26.000Z</time>
      </trkpt>
      <trkpt lat="47.17491" lon="-1.6121">
        <ele>59</ele>
        <time>2020-09-12T11:53:28.000Z</time>
      </trkpt>
      <trkpt lat="47.17497" lon="-1.61225">
        <ele>59</ele>
        <time>2020-09-12T11:53:30.000Z</time>
      </trkpt>
      <trkpt lat="47.17504" lon="-1.61239">
        <ele>60</ele>
        <time>2020-09-12T11:53:32.000Z</time>
      </trkpt>
      <trkpt lat="47.17512" lon="-1.61253">
        <ele>60</ele>
        <time>2020-09-12T11:53:34.000Z</time>
      </trkpt>
      <trkpt lat="47.1752" lon="-1.61267">
        <ele>60</ele>
        <time>2020-09-12T11:53:36.000Z</time>
      </trkpt>
      <trkpt lat="47.17529" lon="-1.61278">
        <ele>60</ele>
        <time>2020-09-12T11:53:38.000Z</time>
      </trkpt>
      <trkpt lat="47.17539" lon="-1.61286">
        <ele>60</ele>
        <time>2020-09-12T11:53:40.000Z</time>
      </trkpt>
      <trkpt lat="47.1755" lon="-1.61293">
        <ele>60</ele>
        <time>2020-09-12T11:53:42.000Z</time>
      </trkpt>
      <trkpt lat="47.17559" lon="-1.61305">
        <ele>60</ele>
        <time>2020-09-12T11:53:44.000Z</time>
      </trkpt>
      <trkpt lat="47.17562" lon="-1.61323">
        <ele>60</ele>
        <time>2020-09-12T11:53:46.000Z</time>
      </trkpt>
      <trkpt lat="47.17557" lon="-1.6134">
        <ele>60</ele>
        <time>2020-09-12T11:53:48.000Z</time>
      </trkpt>
      <trkpt lat="47.17548" lon="-1.61354">
        <ele>60</ele>
        <time>2020-09-12T11:53:50.000Z</time>
      </trkpt>
      <trkpt lat="47.17537" lon="-1.61363">
        <ele>61</ele>
        <time>2020-09-12T11:53:52.000Z</time>
      </trkpt>
      <trkpt lat="47.17529" lon="-1.61377">
        <ele>61</ele>
        <time>2020-09-12T11:53:54.000Z</time>
      </trkpt>
      <trkpt lat="47.17524" lon="-1.61394">
        <ele>61</ele>
        <time>2020-09-12T11:53:56.000Z</time>
      </trkpt>
      <trkpt lat="47.17521" lon="-1.6141">
        <ele>61</ele>
        <time>2020-09-12T11:53:58.000Z</time>
      </trkpt>
      <trkpt lat="47.17518" lon="-1.61425">
        <ele>62</ele>
        <time>2020-09-12T11:54:00.000Z</time>
      </trkpt>
      <trkpt lat="47.17515" lon="-1.6144">
        <ele>62</ele>
        <time>2020-09-12T11:54:02.000Z</time>
      </trkpt>
      <trkpt lat="47.1751" lon="-1.61454">
        <ele>63</ele>
        <time>2020-09-12T11:54:04.000Z</time>
      </trkpt>
      <trkpt lat="47.175" lon="-1.61463">
        <ele>64</ele>
        <time>2020-09-12T11:54:06.000Z</time>
      </trkpt>
      <trkpt lat="47.17489" lon="-1.61468">
        <ele>64</ele>
        <time>2020-09-12T11:54:08.000Z</time>
      </trkpt>
      <trkpt lat="47.17478" lon="-1.61473">
        <ele>65</ele>
        <time>2020-09-12T11:54:10.000Z</time>
      </trkpt>
      <trkpt lat="47.17467" lon="-1.61478">
        <ele>66</ele>
        <time>2020-09-12T11:54:12.000Z</time>
      </trkpt>
      <trkpt lat="47.17456" lon="-1.61483">
        <ele>66</ele>
        <time>2020-09-12T11:54:14.000Z</time>
      </trkpt>
      <trkpt lat="47.17445" lon="-1.61488">
        <ele>66</ele>
        <time>2020-09-12T11:54:16.000Z</time>
      </trkpt>
      <trkpt lat="47.17434" lon="-1.61495">
        <ele>67</ele>
        <time>2020-09-12T11:54:18.000Z</time>
      </trkpt>
      <trkpt lat="47.17425" lon="-1.61502">
        <ele>67</ele>
        <time>2020-09-12T11:54:20.000Z</time>
      </trkpt>
      <trkpt lat="47.17415" lon="-1.61509">
        <ele>68</ele>
        <time>2020-09-12T11:54:22.000Z</time>
      </trkpt>
      <trkpt lat="47.17405" lon="-1.61516">
        <ele>68</ele>
        <time>2020-09-12T11:54:24.000Z</time>
      </trkpt>
      <trkpt lat="47.17396" lon="-1.61522">
        <ele>69</ele>
        <time>2020-09-12T11:54:26.000Z</time>
      </trkpt>
      <trkpt lat="47.17387" lon="-1.61531">
        <ele>69</ele>
        <time>2020-09-12T11:54:28.000Z</time>
      </trkpt>
      <trkpt lat="47.17379" lon="-1.61539">
        <ele>70</ele>
        <time>2020-09-12T11:54:30.000Z</time>
      </trkpt>
      <trkpt lat="47.1737" lon="-1.61548">
        <ele>71</ele>
        <time>2020-09-12T11:54:32.000Z</time>
      </trkpt>
      <trkpt lat="47.17361" lon="-1.61556">
        <ele>71</ele>
        <time>2020-09-12T11:54:34.000Z</time>
      </trkpt>
      <trkpt lat="47.17353" lon="-1.61566">
        <ele>72</ele>
        <time>2020-09-12T11:54:36.000Z</time>
      </trkpt>
      <trkpt lat="47.17346" lon="-1.61575">
        <ele>73</ele>
        <time>2020-09-12T11:54:38.000Z</time>
      </trkpt>
      <trkpt lat="47.17336" lon="-1.61586">
        <ele>74</ele>
        <time>2020-09-12T11:54:40.000Z</time>
      </trkpt>
      <trkpt lat="47.17328" lon="-1.61598">
        <ele>73</ele>
        <time>2020-09-12T11:54:42.000Z</time>
      </trkpt>
      <trkpt lat="47.17319" lon="-1.61609">
        <ele>73</ele>
        <time>2020-09-12T11:54:44.000Z</time>
      </trkpt>
      <trkpt lat="47.1731" lon="-1.61622">
        <ele>73</ele>
        <time>2020-09-12T11:54:46.000Z</time>
      </trkpt>
      <trkpt lat="47.17302" lon="-1.61634">
        <ele>72</ele>
        <time>2020-09-12T11:54:48.000Z</time>
      </trkpt>
      <trkpt lat="47.17295" lon="-1.61647">
        <ele>73</ele>
        <time>2020-09-12T11:54:50.000Z</time>
      </trkpt>
      <trkpt lat="47.17289" lon="-1.61661">
        <ele>74</ele>
        <time>2020-09-12T11:54:52.000Z</time>
      </trkpt>
      <trkpt lat="47.17282" lon="-1.61675">
        <ele>73</ele>
        <time>2020-09-12T11:54:54.000Z</time>
      </trkpt>
      <trkpt lat="47.17274" lon="-1.61688">
        <ele>72</ele>
        <time>2020-09-12T11:54:56.000Z</time>
      </trkpt>
      <trkpt lat="47.17267" lon="-1.61703">
        <ele>72</ele>
        <time>2020-09-12T11:54:58.000Z</time>
      </trkpt>
      <trkpt lat="47.1726" lon="-1.61717">
        <ele>72</ele>
        <time>2020-09-12T11:55:00.000Z</time>
      </trkpt>
      <trkpt lat="47.17253" lon="-1.61732">
        <ele>71</ele>
        <time>2020-09-12T11:55:02.000Z</time>
      </trkpt>
      <trkpt lat="47.17247" lon="-1.61748">
        <ele>71</ele>
        <time>2020-09-12T11:55:04.000Z</time>
      </trkpt>
      <trkpt lat="47.17245" lon="-1.61767">
        <ele>70</ele>
        <time>2020-09-12T11:55:06.000Z</time>
      </trkpt>
      <trkpt lat="47.17238" lon="-1.61781">
        <ele>69</ele>
        <time>2020-09-12T11:55:08.000Z</time>
      </trkpt>
      <trkpt lat="47.17228" lon="-1.6179">
        <ele>69</ele>
        <time>2020-09-12T11:55:10.000Z</time>
      </trkpt>
      <trkpt lat="47.17217" lon="-1.61799">
        <ele>69</ele>
        <time>2020-09-12T11:55:12.000Z</time>
      </trkpt>
      <trkpt lat="47.17206" lon="-1.61809">
        <ele>69</ele>
        <time>2020-09-12T11:55:14.000Z</time>
      </trkpt>
      <trkpt lat="47.17196" lon="-1.61818">
        <ele>70</ele>
        <time>2020-09-12T11:55:16.000Z</time>
      </trkpt>
      <trkpt lat="47.17185" lon="-1.61828">
        <ele>70</ele>
        <time>2020-09-12T11:55:18.000Z</time>
      </trkpt>
      <trkpt lat="47.17175" lon="-1.61838">
        <ele>70</ele>
        <time>2020-09-12T11:55:20.000Z</time>
      </trkpt>
      <trkpt lat="47.17164" lon="-1.61848">
        <ele>70</ele>
        <time>2020-09-12T11:55:22.000Z</time>
      </trkpt>
      <trkpt lat="47.17154" lon="-1.61858">
        <ele>70</ele>
        <time>2020-09-12T11:55:24.000Z</time>
      </trkpt>
      <trkpt lat="47.17143" lon="-1.61868">
        <ele>71</ele>
        <time>2020-09-12T11:55:26.000Z</time>
      </trkpt>
      <trkpt lat="47.17132" lon="-1.61878">
        <ele>71</ele>
        <time>2020-09-12T11:55:28.000Z</time>
      </trkpt>
      <trkpt lat="47.17122" lon="-1.61888">
        <ele>71</ele>
        <time>2020-09-12T11:55:30.000Z</time>
      </trkpt>
      <trkpt lat="47.17111" lon="-1.61898">
        <ele>70</ele>
        <time>2020-09-12T11:55:32.000Z</time>
      </trkpt>
      <trkpt lat="47.17101" lon="-1.61909">
        <ele>70</ele>
        <time>2020-09-12T11:55:34.000Z</time>
      </trkpt>
      <trkpt lat="47.17091" lon="-1.61918">
        <ele>70</ele>
        <time>2020-09-12T11:55:36.000Z</time>
      </trkpt>
      <trkpt lat="47.1708" lon="-1.61928">
        <ele>70</ele>
        <time>2020-09-12T11:55:38.000Z</time>
      </trkpt>
      <trkpt lat="47.17071" lon="-1.61938">
        <ele>70</ele>
        <time>2020-09-12T11:55:40.000Z</time>
      </trkpt>
      <trkpt lat="47.17061" lon="-1.61949">
        <ele>69</ele>
        <time>2020-09-12T11:55:42.000Z</time>
      </trkpt>
      <trkpt lat="47.17051" lon="-1.61962">
        <ele>69</ele>
        <time>2020-09-12T11:55:44.000Z</time>
      </trkpt>
      <trkpt lat="47.17042" lon="-1.61975">
        <ele>69</ele>
        <time>2020-09-12T11:55:46.000Z</time>
      </trkpt>
      <trkpt lat="47.17033" lon="-1.61988">
        <ele>69</ele>
        <time>2020-09-12T11:55:48.000Z</time>
      </trkpt>
      <trkpt lat="47.17024" lon="-1.62002">
        <ele>68</ele>
        <time>2020-09-12T11:55:50.000Z</time>
      </trkpt>
      <trkpt lat="47.17016" lon="-1.62016">
        <ele>69</ele>
        <time>2020-09-12T11:55:52.000Z</time>
      </trkpt>
      <trkpt lat="47.17006" lon="-1.6203">
        <ele>68</ele>
        <time>2020-09-12T11:55:54.000Z</time>
      </trkpt>
      <trkpt lat="47.16998" lon="-1.62045">
        <ele>68</ele>
        <time>2020-09-12T11:55:56.000Z</time>
      </trkpt>
      <trkpt lat="47.1699" lon="-1.6206">
        <ele>68</ele>
        <time>2020-09-12T11:55:58.000Z</time>
      </trkpt>
      <trkpt lat="47.16981" lon="-1.62074">
        <ele>68</ele>
        <time>2020-09-12T11:56:00.000Z</time>
      </trkpt>
      <trkpt lat="47.16973" lon="-1.62089">
        <ele>68</ele>
        <time>2020-09-12T11:56:02.000Z</time>
      </trkpt>
      <trkpt lat="47.16964" lon="-1.62104">
        <ele>68</ele>
        <time>2020-09-12T11:56:04.000Z</time>
      </trkpt>
      <trkpt lat="47.16956" lon="-1.62119">
        <ele>68</ele>
        <time>2020-09-12T11:56:06.000Z</time>
      </trkpt>
      <trkpt lat="47.16949" lon="-1.62134">
        <ele>68</ele>
        <time>2020-09-12T11:56:08.000Z</time>
      </trkpt>
      <trkpt lat="47.16941" lon="-1.6215">
        <ele>68</ele>
        <time>2020-09-12T11:56:10.000Z</time>
      </trkpt>
      <trkpt lat="47.16933" lon="-1.62166">
        <ele>68</ele>
        <time>2020-09-12T11:56:12.000Z</time>
      </trkpt>
      <trkpt lat="47.16927" lon="-1.62182">
        <ele>69</ele>
        <time>2020-09-12T11:56:14.000Z</time>
      </trkpt>
      <trkpt lat="47.16919" lon="-1.62197">
        <ele>69</ele>
        <time>2020-09-12T11:56:16.000Z</time>
      </trkpt>
      <trkpt lat="47.1691" lon="-1.62211">
        <ele>70</ele>
        <time>2020-09-12T11:56:18.000Z</time>
      </trkpt>
      <trkpt lat="47.169" lon="-1.62224">
        <ele>70</ele>
        <time>2020-09-12T11:56:20.000Z</time>
      </trkpt>
      <trkpt lat="47.1689" lon="-1.62235">
        <ele>69</ele>
        <time>2020-09-12T11:56:22.000Z</time>
      </trkpt>
      <trkpt lat="47.1688" lon="-1.62248">
        <ele>70</ele>
        <time>2020-09-12T11:56:24.000Z</time>
      </trkpt>
      <trkpt lat="47.1687" lon="-1.62261">
        <ele>70</ele>
        <time>2020-09-12T11:56:26.000Z</time>
      </trkpt>
      <trkpt lat="47.1686" lon="-1.62273">
        <ele>70</ele>
        <time>2020-09-12T11:56:28.000Z</time>
      </trkpt>
      <trkpt lat="47.1685" lon="-1.62287">
        <ele>70</ele>
        <time>2020-09-12T11:56:30.000Z</time>
      </trkpt>
      <trkpt lat="47.1684" lon="-1.62299">
        <ele>71</ele>
        <time>2020-09-12T11:56:32.000Z</time>
      </trkpt>
      <trkpt lat="47.16829" lon="-1.62311">
        <ele>71</ele>
        <time>2020-09-12T11:56:34.000Z</time>
      </trkpt>
      <trkpt lat="47.16817" lon="-1.6232">
        <ele>72</ele>
        <time>2020-09-12T11:56:36.000Z</time>
      </trkpt>
      <trkpt lat="47.16805" lon="-1.62328">
        <ele>72</ele>
        <time>2020-09-12T11:56:38.000Z</time>
      </trkpt>
      <trkpt lat="47.16792" lon="-1.62335">
        <ele>72</ele>
        <time>2020-09-12T11:56:40.000Z</time>
      </trkpt>
      <trkpt lat="47.16778" lon="-1.62343">
        <ele>71</ele>
        <time>2020-09-12T11:56:42.000Z</time>
      </trkpt>
      <trkpt lat="47.16765" lon="-1.62351">
        <ele>71</ele>
        <time>2020-09-12T11:56:44.000Z</time>
      </trkpt>
      <trkpt lat="47.16752" lon="-1.62361">
        <ele>71</ele>
        <time>2020-09-12T11:56:46.000Z</time>
      </trkpt>
      <trkpt lat="47.16741" lon="-1.62373">
        <ele>70</ele>
        <time>2020-09-12T11:56:48.000Z</time>
      </trkpt>
      <trkpt lat="47.16734" lon="-1.62391">
        <ele>69</ele>
        <time>2020-09-12T11:56:50.000Z</time>
      </trkpt>
      <trkpt lat="47.1673" lon="-1.62409">
        <ele>69</ele>
        <time>2020-09-12T11:56:52.000Z</time>
      </trkpt>
      <trkpt lat="47.16728" lon="-1.62427">
        <ele>69</ele>
        <time>2020-09-12T11:56:54.000Z</time>
      </trkpt>
      <trkpt lat="47.16725" lon="-1.62444">
        <ele>68</ele>
        <time>2020-09-12T11:56:56.000Z</time>
      </trkpt>
      <trkpt lat="47.16721" lon="-1.62461">
        <ele>67</ele>
        <time>2020-09-12T11:56:58.000Z</time>
      </trkpt>
      <trkpt lat="47.16717" lon="-1.62479">
        <ele>67</ele>
        <time>2020-09-12T11:57:00.000Z</time>
      </trkpt>
      <trkpt lat="47.1672" lon="-1.62493">
        <ele>67</ele>
        <time>2020-09-12T11:57:02.000Z</time>
      </trkpt>
      <trkpt lat="47.16731" lon="-1.62497">
        <ele>67</ele>
        <time>2020-09-12T11:57:04.000Z</time>
      </trkpt>
      <trkpt lat="47.16743" lon="-1.62502">
        <ele>67</ele>
        <time>2020-09-12T11:57:06.000Z</time>
      </trkpt>
      <trkpt lat="47.16755" lon="-1.62507">
        <ele>68</ele>
        <time>2020-09-12T11:57:08.000Z</time>
      </trkpt>
      <trkpt lat="47.16766" lon="-1.62515">
        <ele>67</ele>
        <time>2020-09-12T11:57:10.000Z</time>
      </trkpt>
      <trkpt lat="47.16778" lon="-1.62522">
        <ele>68</ele>
        <time>2020-09-12T11:57:12.000Z</time>
      </trkpt>
      <trkpt lat="47.1679" lon="-1.6253">
        <ele>69</ele>
        <time>2020-09-12T11:57:14.000Z</time>
      </trkpt>
      <trkpt lat="47.16802" lon="-1.62538">
        <ele>69</ele>
        <time>2020-09-12T11:57:16.000Z</time>
      </trkpt>
      <trkpt lat="47.16812" lon="-1.62546">
        <ele>68</ele>
        <time>2020-09-12T11:57:18.000Z</time>
      </trkpt>
      <trkpt lat="47.16822" lon="-1.62556">
        <ele>69</ele>
        <time>2020-09-12T11:57:20.000Z</time>
      </trkpt>
      <trkpt lat="47.16831" lon="-1.62569">
        <ele>69</ele>
        <time>2020-09-12T11:57:22.000Z</time>
      </trkpt>
      <trkpt lat="47.1683" lon="-1.62589">
        <ele>69</ele>
        <time>2020-09-12T11:57:24.000Z</time>
      </trkpt>
      <trkpt lat="47.16821" lon="-1.62603">
        <ele>69</ele>
        <time>2020-09-12T11:57:26.000Z</time>
      </trkpt>
      <trkpt lat="47.16812" lon="-1.62616">
        <ele>70</ele>
        <time>2020-09-12T11:57:28.000Z</time>
      </trkpt>
      <trkpt lat="47.16804" lon="-1.62629">
        <ele>71</ele>
        <time>2020-09-12T11:57:30.000Z</time>
      </trkpt>
      <trkpt lat="47.16797" lon="-1.62642">
        <ele>70</ele>
        <time>2020-09-12T11:57:32.000Z</time>
      </trkpt>
      <trkpt lat="47.16791" lon="-1.62653">
        <ele>71</ele>
        <time>2020-09-12T11:57:34.000Z</time>
      </trkpt>
      <trkpt lat="47.1678" lon="-1.62657">
        <ele>71</ele>
        <time>2020-09-12T11:57:37.000Z</time>
      </trkpt>
    </trkseg>
  </trk>
</gpx>